<?xml version="1.0" encoding="UTF-8" standalone="no" ?>
<gpx xmlns="http://www.topografix.com/GPX/1/1" xmlns:xsi="http://www.w3.org/2001/XMLSchema-instance" xsi:schemaLocation="http://www.topografix.com/GPX/1/1 http://www.topografix.com/GPX/1/1/gpx.xsd" version="1.1" creator="VisuGPX - https://www.visugpx.com">
  <metadata>
    <name>Ronde de chatel 2022 43km</name>
  </metadata>
  <trk>
    <name><![CDATA[2ème rando "chatel-guyon"]]></name>
    <trkseg>
      <trkpt lat="45.9159" lon="3.07403">
        <ele>411.7</ele>
        <time>1970-01-01T00:00:00.000Z</time>
      </trkpt>
      <trkpt lat="45.9159" lon="3.07404">
        <ele>411.7</ele>
        <time>1970-01-01T00:00:01.000Z</time>
      </trkpt>
      <trkpt lat="45.9159" lon="3.07404">
        <ele>411.7</ele>
        <time>1970-01-01T00:00:02.000Z</time>
      </trkpt>
      <trkpt lat="45.9159" lon="3.07404">
        <ele>411.7</ele>
        <time>1970-01-01T00:00:03.000Z</time>
      </trkpt>
      <trkpt lat="45.9159" lon="3.07404">
        <ele>411.6</ele>
        <time>1970-01-01T00:00:04.000Z</time>
      </trkpt>
      <trkpt lat="45.9159" lon="3.07404">
        <ele>411.6</ele>
        <time>1970-01-01T00:00:05.000Z</time>
      </trkpt>
      <trkpt lat="45.9159" lon="3.07403">
        <ele>411.6</ele>
        <time>1970-01-01T00:00:06.000Z</time>
      </trkpt>
      <trkpt lat="45.9159" lon="3.07403">
        <ele>411.6</ele>
        <time>1970-01-01T00:00:07.000Z</time>
      </trkpt>
      <trkpt lat="45.9159" lon="3.07403">
        <ele>411.6</ele>
        <time>1970-01-01T00:00:08.000Z</time>
      </trkpt>
      <trkpt lat="45.9159" lon="3.07404">
        <ele>411.6</ele>
        <time>1970-01-01T00:00:09.000Z</time>
      </trkpt>
      <trkpt lat="45.9159" lon="3.07404">
        <ele>411.6</ele>
        <time>1970-01-01T00:00:10.000Z</time>
      </trkpt>
      <trkpt lat="45.9159" lon="3.07404">
        <ele>411.6</ele>
        <time>1970-01-01T00:00:11.000Z</time>
      </trkpt>
      <trkpt lat="45.91591" lon="3.07411">
        <ele>411.2</ele>
        <time>1970-01-01T00:02:25.000Z</time>
      </trkpt>
      <trkpt lat="45.91591" lon="3.07416">
        <ele>411</ele>
        <time>1970-01-01T00:02:26.000Z</time>
      </trkpt>
      <trkpt lat="45.91592" lon="3.07419">
        <ele>410.9</ele>
        <time>1970-01-01T00:02:28.000Z</time>
      </trkpt>
      <trkpt lat="45.91594" lon="3.07424">
        <ele>410.7</ele>
        <time>1970-01-01T00:02:29.000Z</time>
      </trkpt>
      <trkpt lat="45.91596" lon="3.07427">
        <ele>410.5</ele>
        <time>1970-01-01T00:02:30.000Z</time>
      </trkpt>
      <trkpt lat="45.91598" lon="3.07431">
        <ele>410.3</ele>
        <time>1970-01-01T00:02:31.000Z</time>
      </trkpt>
      <trkpt lat="45.91601" lon="3.07438">
        <ele>409.9</ele>
        <time>1970-01-01T00:02:32.000Z</time>
      </trkpt>
      <trkpt lat="45.91604" lon="3.07443">
        <ele>409.7</ele>
        <time>1970-01-01T00:02:33.000Z</time>
      </trkpt>
      <trkpt lat="45.91608" lon="3.07448">
        <ele>409.4</ele>
        <time>1970-01-01T00:02:34.000Z</time>
      </trkpt>
      <trkpt lat="45.9161" lon="3.07451">
        <ele>409.1</ele>
        <time>1970-01-01T00:02:35.000Z</time>
      </trkpt>
      <trkpt lat="45.91613" lon="3.07453">
        <ele>409</ele>
        <time>1970-01-01T00:02:36.000Z</time>
      </trkpt>
      <trkpt lat="45.91616" lon="3.07457">
        <ele>409</ele>
        <time>1970-01-01T00:02:37.000Z</time>
      </trkpt>
      <trkpt lat="45.91618" lon="3.07462">
        <ele>408.8</ele>
        <time>1970-01-01T00:02:39.000Z</time>
      </trkpt>
      <trkpt lat="45.91621" lon="3.07471">
        <ele>408.6</ele>
        <time>1970-01-01T00:02:40.000Z</time>
      </trkpt>
      <trkpt lat="45.91622" lon="3.0748">
        <ele>408.4</ele>
        <time>1970-01-01T00:02:42.000Z</time>
      </trkpt>
      <trkpt lat="45.91624" lon="3.07489">
        <ele>408.2</ele>
        <time>1970-01-01T00:02:43.000Z</time>
      </trkpt>
      <trkpt lat="45.91624" lon="3.07495">
        <ele>408.1</ele>
        <time>1970-01-01T00:02:44.000Z</time>
      </trkpt>
      <trkpt lat="45.91624" lon="3.07502">
        <ele>408</ele>
        <time>1970-01-01T00:02:45.000Z</time>
      </trkpt>
      <trkpt lat="45.9162" lon="3.07501">
        <ele>407.9</ele>
        <time>1970-01-01T00:02:46.000Z</time>
      </trkpt>
      <trkpt lat="45.91617" lon="3.07501">
        <ele>407.9</ele>
        <time>1970-01-01T00:02:48.000Z</time>
      </trkpt>
      <trkpt lat="45.91612" lon="3.07502">
        <ele>407.9</ele>
        <time>1970-01-01T00:02:49.000Z</time>
      </trkpt>
      <trkpt lat="45.91609" lon="3.07504">
        <ele>407.9</ele>
        <time>1970-01-01T00:02:50.000Z</time>
      </trkpt>
      <trkpt lat="45.91604" lon="3.07507">
        <ele>408</ele>
        <time>1970-01-01T00:02:52.000Z</time>
      </trkpt>
      <trkpt lat="45.91602" lon="3.07507">
        <ele>408</ele>
        <time>1970-01-01T00:02:53.000Z</time>
      </trkpt>
      <trkpt lat="45.916" lon="3.07508">
        <ele>408</ele>
        <time>1970-01-01T00:02:54.000Z</time>
      </trkpt>
      <trkpt lat="45.91596" lon="3.0751">
        <ele>408</ele>
        <time>1970-01-01T00:02:55.000Z</time>
      </trkpt>
      <trkpt lat="45.91595" lon="3.07511">
        <ele>408.1</ele>
        <time>1970-01-01T00:02:56.000Z</time>
      </trkpt>
      <trkpt lat="45.91591" lon="3.07511">
        <ele>408.1</ele>
        <time>1970-01-01T00:02:57.000Z</time>
      </trkpt>
      <trkpt lat="45.9159" lon="3.07512">
        <ele>408.1</ele>
        <time>1970-01-01T00:02:58.000Z</time>
      </trkpt>
      <trkpt lat="45.91589" lon="3.07512">
        <ele>408.2</ele>
        <time>1970-01-01T00:03:00.000Z</time>
      </trkpt>
      <trkpt lat="45.91589" lon="3.07513">
        <ele>408.2</ele>
        <time>1970-01-01T00:03:01.000Z</time>
      </trkpt>
      <trkpt lat="45.91587" lon="3.07514">
        <ele>408.2</ele>
        <time>1970-01-01T00:03:02.000Z</time>
      </trkpt>
      <trkpt lat="45.91586" lon="3.07514">
        <ele>408.2</ele>
        <time>1970-01-01T00:03:03.000Z</time>
      </trkpt>
      <trkpt lat="45.91585" lon="3.07514">
        <ele>407.7</ele>
        <time>1970-01-01T00:03:05.000Z</time>
      </trkpt>
      <trkpt lat="45.91584" lon="3.07514">
        <ele>407.8</ele>
        <time>1970-01-01T00:03:06.000Z</time>
      </trkpt>
      <trkpt lat="45.91583" lon="3.07514">
        <ele>408.3</ele>
        <time>1970-01-01T00:03:07.000Z</time>
      </trkpt>
      <trkpt lat="45.91581" lon="3.07514">
        <ele>407.8</ele>
        <time>1970-01-01T00:03:09.000Z</time>
      </trkpt>
      <trkpt lat="45.9158" lon="3.07515">
        <ele>408</ele>
        <time>1970-01-01T00:03:10.000Z</time>
      </trkpt>
      <trkpt lat="45.91578" lon="3.07515">
        <ele>408</ele>
        <time>1970-01-01T00:03:11.000Z</time>
      </trkpt>
      <trkpt lat="45.91574" lon="3.07517">
        <ele>408</ele>
        <time>1970-01-01T00:03:12.000Z</time>
      </trkpt>
      <trkpt lat="45.91571" lon="3.07518">
        <ele>408</ele>
        <time>1970-01-01T00:03:13.000Z</time>
      </trkpt>
      <trkpt lat="45.91566" lon="3.07519">
        <ele>408.2</ele>
        <time>1970-01-01T00:03:15.000Z</time>
      </trkpt>
      <trkpt lat="45.91562" lon="3.0752">
        <ele>408.2</ele>
        <time>1970-01-01T00:03:16.000Z</time>
      </trkpt>
      <trkpt lat="45.91557" lon="3.07522">
        <ele>408.5</ele>
        <time>1970-01-01T00:03:17.000Z</time>
      </trkpt>
      <trkpt lat="45.91553" lon="3.07524">
        <ele>408.5</ele>
        <time>1970-01-01T00:03:18.000Z</time>
      </trkpt>
      <trkpt lat="45.91549" lon="3.07527">
        <ele>408.5</ele>
        <time>1970-01-01T00:03:20.000Z</time>
      </trkpt>
      <trkpt lat="45.91544" lon="3.07536">
        <ele>408.1</ele>
        <time>1970-01-01T00:03:21.000Z</time>
      </trkpt>
      <trkpt lat="45.91541" lon="3.07543">
        <ele>408.1</ele>
        <time>1970-01-01T00:03:22.000Z</time>
      </trkpt>
      <trkpt lat="45.91539" lon="3.07546">
        <ele>408.1</ele>
        <time>1970-01-01T00:03:23.000Z</time>
      </trkpt>
      <trkpt lat="45.91535" lon="3.07551">
        <ele>407.4</ele>
        <time>1970-01-01T00:03:24.000Z</time>
      </trkpt>
      <trkpt lat="45.9153" lon="3.07556">
        <ele>407.7</ele>
        <time>1970-01-01T00:03:25.000Z</time>
      </trkpt>
      <trkpt lat="45.91526" lon="3.07559">
        <ele>407.7</ele>
        <time>1970-01-01T00:03:26.000Z</time>
      </trkpt>
      <trkpt lat="45.91522" lon="3.07561">
        <ele>407.8</ele>
        <time>1970-01-01T00:03:27.000Z</time>
      </trkpt>
      <trkpt lat="45.91518" lon="3.07563">
        <ele>408.1</ele>
        <time>1970-01-01T00:03:28.000Z</time>
      </trkpt>
      <trkpt lat="45.91515" lon="3.07565">
        <ele>408.1</ele>
        <time>1970-01-01T00:03:29.000Z</time>
      </trkpt>
      <trkpt lat="45.91512" lon="3.07567">
        <ele>407.5</ele>
        <time>1970-01-01T00:03:30.000Z</time>
      </trkpt>
      <trkpt lat="45.91509" lon="3.07568">
        <ele>407.5</ele>
        <time>1970-01-01T00:03:31.000Z</time>
      </trkpt>
      <trkpt lat="45.91505" lon="3.07569">
        <ele>407.8</ele>
        <time>1970-01-01T00:03:32.000Z</time>
      </trkpt>
      <trkpt lat="45.91501" lon="3.07569">
        <ele>407.8</ele>
        <time>1970-01-01T00:03:33.000Z</time>
      </trkpt>
      <trkpt lat="45.91498" lon="3.07569">
        <ele>407.8</ele>
        <time>1970-01-01T00:03:34.000Z</time>
      </trkpt>
      <trkpt lat="45.91493" lon="3.0757">
        <ele>408.1</ele>
        <time>1970-01-01T00:03:35.000Z</time>
      </trkpt>
      <trkpt lat="45.9149" lon="3.07571">
        <ele>408.1</ele>
        <time>1970-01-01T00:03:36.000Z</time>
      </trkpt>
      <trkpt lat="45.91487" lon="3.07572">
        <ele>408.2</ele>
        <time>1970-01-01T00:03:38.000Z</time>
      </trkpt>
      <trkpt lat="45.91484" lon="3.07573">
        <ele>408.4</ele>
        <time>1970-01-01T00:03:39.000Z</time>
      </trkpt>
      <trkpt lat="45.91481" lon="3.07573">
        <ele>408.5</ele>
        <time>1970-01-01T00:03:40.000Z</time>
      </trkpt>
      <trkpt lat="45.91477" lon="3.07572">
        <ele>408.5</ele>
        <time>1970-01-01T00:03:41.000Z</time>
      </trkpt>
      <trkpt lat="45.91473" lon="3.07571">
        <ele>408.9</ele>
        <time>1970-01-01T00:03:42.000Z</time>
      </trkpt>
      <trkpt lat="45.91468" lon="3.0757">
        <ele>408.9</ele>
        <time>1970-01-01T00:03:44.000Z</time>
      </trkpt>
      <trkpt lat="45.91466" lon="3.0757">
        <ele>409</ele>
        <time>1970-01-01T00:03:45.000Z</time>
      </trkpt>
      <trkpt lat="45.91465" lon="3.0757">
        <ele>409</ele>
        <time>1970-01-01T00:03:46.000Z</time>
      </trkpt>
      <trkpt lat="45.91461" lon="3.07571">
        <ele>409.4</ele>
        <time>1970-01-01T00:03:47.000Z</time>
      </trkpt>
      <trkpt lat="45.91457" lon="3.07573">
        <ele>409.4</ele>
        <time>1970-01-01T00:03:48.000Z</time>
      </trkpt>
      <trkpt lat="45.91453" lon="3.07575">
        <ele>409.5</ele>
        <time>1970-01-01T00:03:49.000Z</time>
      </trkpt>
      <trkpt lat="45.91452" lon="3.07576">
        <ele>409.5</ele>
        <time>1970-01-01T00:03:50.000Z</time>
      </trkpt>
      <trkpt lat="45.9145" lon="3.07577">
        <ele>409.5</ele>
        <time>1970-01-01T00:03:51.000Z</time>
      </trkpt>
      <trkpt lat="45.91448" lon="3.07578">
        <ele>410</ele>
        <time>1970-01-01T00:03:53.000Z</time>
      </trkpt>
      <trkpt lat="45.91446" lon="3.07581">
        <ele>410</ele>
        <time>1970-01-01T00:03:54.000Z</time>
      </trkpt>
      <trkpt lat="45.91442" lon="3.07585">
        <ele>409</ele>
        <time>1970-01-01T00:03:55.000Z</time>
      </trkpt>
      <trkpt lat="45.91441" lon="3.07587">
        <ele>409</ele>
        <time>1970-01-01T00:03:56.000Z</time>
      </trkpt>
      <trkpt lat="45.91438" lon="3.0759">
        <ele>409.6</ele>
        <time>1970-01-01T00:03:57.000Z</time>
      </trkpt>
      <trkpt lat="45.91435" lon="3.07593">
        <ele>409.6</ele>
        <time>1970-01-01T00:03:58.000Z</time>
      </trkpt>
      <trkpt lat="45.91432" lon="3.07596">
        <ele>409.6</ele>
        <time>1970-01-01T00:03:59.000Z</time>
      </trkpt>
      <trkpt lat="45.9143" lon="3.07599">
        <ele>409.6</ele>
        <time>1970-01-01T00:04:01.000Z</time>
      </trkpt>
      <trkpt lat="45.91427" lon="3.07602">
        <ele>408.7</ele>
        <time>1970-01-01T00:04:02.000Z</time>
      </trkpt>
      <trkpt lat="45.91424" lon="3.07603">
        <ele>409.4</ele>
        <time>1970-01-01T00:04:03.000Z</time>
      </trkpt>
      <trkpt lat="45.91421" lon="3.07605">
        <ele>409.4</ele>
        <time>1970-01-01T00:04:04.000Z</time>
      </trkpt>
      <trkpt lat="45.91417" lon="3.07606">
        <ele>409.4</ele>
        <time>1970-01-01T00:04:05.000Z</time>
      </trkpt>
      <trkpt lat="45.91415" lon="3.07607">
        <ele>409.4</ele>
        <time>1970-01-01T00:04:06.000Z</time>
      </trkpt>
      <trkpt lat="45.91411" lon="3.07607">
        <ele>410.3</ele>
        <time>1970-01-01T00:04:08.000Z</time>
      </trkpt>
      <trkpt lat="45.91408" lon="3.07607">
        <ele>410.4</ele>
        <time>1970-01-01T00:04:09.000Z</time>
      </trkpt>
      <trkpt lat="45.91405" lon="3.07608">
        <ele>410.4</ele>
        <time>1970-01-01T00:04:10.000Z</time>
      </trkpt>
      <trkpt lat="45.91402" lon="3.07608">
        <ele>411.2</ele>
        <time>1970-01-01T00:04:11.000Z</time>
      </trkpt>
      <trkpt lat="45.91398" lon="3.07609">
        <ele>411.3</ele>
        <time>1970-01-01T00:04:12.000Z</time>
      </trkpt>
      <trkpt lat="45.91397" lon="3.07609">
        <ele>411.3</ele>
        <time>1970-01-01T00:04:13.000Z</time>
      </trkpt>
      <trkpt lat="45.91394" lon="3.0761">
        <ele>411.3</ele>
        <time>1970-01-01T00:04:14.000Z</time>
      </trkpt>
      <trkpt lat="45.91388" lon="3.0761">
        <ele>412.2</ele>
        <time>1970-01-01T00:04:16.000Z</time>
      </trkpt>
      <trkpt lat="45.91387" lon="3.0761">
        <ele>412.2</ele>
        <time>1970-01-01T00:04:17.000Z</time>
      </trkpt>
      <trkpt lat="45.91385" lon="3.0761">
        <ele>412.3</ele>
        <time>1970-01-01T00:04:18.000Z</time>
      </trkpt>
      <trkpt lat="45.91381" lon="3.07609">
        <ele>412.3</ele>
        <time>1970-01-01T00:04:19.000Z</time>
      </trkpt>
      <trkpt lat="45.91379" lon="3.0761">
        <ele>412.3</ele>
        <time>1970-01-01T00:04:20.000Z</time>
      </trkpt>
      <trkpt lat="45.91376" lon="3.0761">
        <ele>413</ele>
        <time>1970-01-01T00:04:21.000Z</time>
      </trkpt>
      <trkpt lat="45.91371" lon="3.07611">
        <ele>413.1</ele>
        <time>1970-01-01T00:04:23.000Z</time>
      </trkpt>
      <trkpt lat="45.9137" lon="3.07611">
        <ele>413.1</ele>
        <time>1970-01-01T00:04:24.000Z</time>
      </trkpt>
      <trkpt lat="45.91368" lon="3.07611">
        <ele>413.1</ele>
        <time>1970-01-01T00:04:25.000Z</time>
      </trkpt>
      <trkpt lat="45.91365" lon="3.07612">
        <ele>413.8</ele>
        <time>1970-01-01T00:04:26.000Z</time>
      </trkpt>
      <trkpt lat="45.91363" lon="3.07615">
        <ele>413.9</ele>
        <time>1970-01-01T00:04:27.000Z</time>
      </trkpt>
      <trkpt lat="45.91362" lon="3.0762">
        <ele>412.8</ele>
        <time>1970-01-01T00:04:28.000Z</time>
      </trkpt>
      <trkpt lat="45.91362" lon="3.07624">
        <ele>412.8</ele>
        <time>1970-01-01T00:04:29.000Z</time>
      </trkpt>
      <trkpt lat="45.91365" lon="3.07629">
        <ele>412.9</ele>
        <time>1970-01-01T00:04:31.000Z</time>
      </trkpt>
      <trkpt lat="45.91368" lon="3.07633">
        <ele>412.2</ele>
        <time>1970-01-01T00:04:32.000Z</time>
      </trkpt>
      <trkpt lat="45.91371" lon="3.07636">
        <ele>411.3</ele>
        <time>1970-01-01T00:04:33.000Z</time>
      </trkpt>
      <trkpt lat="45.9137" lon="3.07649">
        <ele>411.3</ele>
        <time>1970-01-01T00:04:34.000Z</time>
      </trkpt>
      <trkpt lat="45.91372" lon="3.07657">
        <ele>410.6</ele>
        <time>1970-01-01T00:04:35.000Z</time>
      </trkpt>
      <trkpt lat="45.91373" lon="3.07665">
        <ele>410.7</ele>
        <time>1970-01-01T00:04:36.000Z</time>
      </trkpt>
      <trkpt lat="45.91373" lon="3.07673">
        <ele>409.9</ele>
        <time>1970-01-01T00:04:37.000Z</time>
      </trkpt>
      <trkpt lat="45.91373" lon="3.07681">
        <ele>409.9</ele>
        <time>1970-01-01T00:04:38.000Z</time>
      </trkpt>
      <trkpt lat="45.91375" lon="3.07687">
        <ele>409</ele>
        <time>1970-01-01T00:04:39.000Z</time>
      </trkpt>
      <trkpt lat="45.91377" lon="3.07693">
        <ele>409.1</ele>
        <time>1970-01-01T00:04:40.000Z</time>
      </trkpt>
      <trkpt lat="45.91375" lon="3.07707">
        <ele>408.1</ele>
        <time>1970-01-01T00:04:42.000Z</time>
      </trkpt>
      <trkpt lat="45.91376" lon="3.07715">
        <ele>408.1</ele>
        <time>1970-01-01T00:04:43.000Z</time>
      </trkpt>
      <trkpt lat="45.91377" lon="3.07724">
        <ele>407.2</ele>
        <time>1970-01-01T00:04:44.000Z</time>
      </trkpt>
      <trkpt lat="45.91377" lon="3.07732">
        <ele>407.2</ele>
        <time>1970-01-01T00:04:45.000Z</time>
      </trkpt>
      <trkpt lat="45.91376" lon="3.0774">
        <ele>406.4</ele>
        <time>1970-01-01T00:04:46.000Z</time>
      </trkpt>
      <trkpt lat="45.91378" lon="3.07744">
        <ele>406.3</ele>
        <time>1970-01-01T00:04:47.000Z</time>
      </trkpt>
      <trkpt lat="45.91378" lon="3.07748">
        <ele>406.3</ele>
        <time>1970-01-01T00:04:48.000Z</time>
      </trkpt>
      <trkpt lat="45.9137" lon="3.07756">
        <ele>405.9</ele>
        <time>1970-01-01T00:04:49.000Z</time>
      </trkpt>
      <trkpt lat="45.91363" lon="3.07758">
        <ele>405.6</ele>
        <time>1970-01-01T00:04:50.000Z</time>
      </trkpt>
      <trkpt lat="45.91366" lon="3.07762">
        <ele>405.4</ele>
        <time>1970-01-01T00:04:51.000Z</time>
      </trkpt>
      <trkpt lat="45.91363" lon="3.07767">
        <ele>405.2</ele>
        <time>1970-01-01T00:04:53.000Z</time>
      </trkpt>
      <trkpt lat="45.91361" lon="3.0777">
        <ele>405</ele>
        <time>1970-01-01T00:04:54.000Z</time>
      </trkpt>
      <trkpt lat="45.91359" lon="3.07774">
        <ele>404.8</ele>
        <time>1970-01-01T00:04:55.000Z</time>
      </trkpt>
      <trkpt lat="45.91359" lon="3.07778">
        <ele>404.7</ele>
        <time>1970-01-01T00:04:56.000Z</time>
      </trkpt>
      <trkpt lat="45.91359" lon="3.07784">
        <ele>404.5</ele>
        <time>1970-01-01T00:04:57.000Z</time>
      </trkpt>
      <trkpt lat="45.91359" lon="3.07786">
        <ele>404.4</ele>
        <time>1970-01-01T00:04:58.000Z</time>
      </trkpt>
      <trkpt lat="45.91359" lon="3.07793">
        <ele>404.1</ele>
        <time>1970-01-01T00:04:59.000Z</time>
      </trkpt>
      <trkpt lat="45.91353" lon="3.07802">
        <ele>403.6</ele>
        <time>1970-01-01T00:05:01.000Z</time>
      </trkpt>
      <trkpt lat="45.91349" lon="3.07806">
        <ele>403.3</ele>
        <time>1970-01-01T00:05:02.000Z</time>
      </trkpt>
      <trkpt lat="45.91345" lon="3.07808">
        <ele>403</ele>
        <time>1970-01-01T00:05:03.000Z</time>
      </trkpt>
      <trkpt lat="45.91343" lon="3.0781">
        <ele>402.9</ele>
        <time>1970-01-01T00:05:04.000Z</time>
      </trkpt>
      <trkpt lat="45.9134" lon="3.07814">
        <ele>402.6</ele>
        <time>1970-01-01T00:05:05.000Z</time>
      </trkpt>
      <trkpt lat="45.91338" lon="3.07818">
        <ele>402.4</ele>
        <time>1970-01-01T00:05:06.000Z</time>
      </trkpt>
      <trkpt lat="45.91335" lon="3.07823">
        <ele>402.2</ele>
        <time>1970-01-01T00:05:07.000Z</time>
      </trkpt>
      <trkpt lat="45.91331" lon="3.0783">
        <ele>401.8</ele>
        <time>1970-01-01T00:05:08.000Z</time>
      </trkpt>
      <trkpt lat="45.91328" lon="3.07835">
        <ele>401.5</ele>
        <time>1970-01-01T00:05:10.000Z</time>
      </trkpt>
      <trkpt lat="45.91324" lon="3.0784">
        <ele>401.3</ele>
        <time>1970-01-01T00:05:11.000Z</time>
      </trkpt>
      <trkpt lat="45.9132" lon="3.07845">
        <ele>401</ele>
        <time>1970-01-01T00:05:13.000Z</time>
      </trkpt>
      <trkpt lat="45.91318" lon="3.07849">
        <ele>400.9</ele>
        <time>1970-01-01T00:05:14.000Z</time>
      </trkpt>
      <trkpt lat="45.91316" lon="3.07855">
        <ele>400.7</ele>
        <time>1970-01-01T00:05:15.000Z</time>
      </trkpt>
      <trkpt lat="45.91313" lon="3.07862">
        <ele>400.5</ele>
        <time>1970-01-01T00:05:16.000Z</time>
      </trkpt>
      <trkpt lat="45.91309" lon="3.07868">
        <ele>400.3</ele>
        <time>1970-01-01T00:05:17.000Z</time>
      </trkpt>
      <trkpt lat="45.91306" lon="3.07873">
        <ele>400.1</ele>
        <time>1970-01-01T00:05:18.000Z</time>
      </trkpt>
      <trkpt lat="45.91302" lon="3.07879">
        <ele>400</ele>
        <time>1970-01-01T00:05:19.000Z</time>
      </trkpt>
      <trkpt lat="45.91298" lon="3.07883">
        <ele>399.8</ele>
        <time>1970-01-01T00:05:20.000Z</time>
      </trkpt>
      <trkpt lat="45.91292" lon="3.07886">
        <ele>399.7</ele>
        <time>1970-01-01T00:05:21.000Z</time>
      </trkpt>
      <trkpt lat="45.91287" lon="3.07887">
        <ele>399.5</ele>
        <time>1970-01-01T00:05:22.000Z</time>
      </trkpt>
      <trkpt lat="45.91282" lon="3.07889">
        <ele>399.4</ele>
        <time>1970-01-01T00:05:23.000Z</time>
      </trkpt>
      <trkpt lat="45.91277" lon="3.07891">
        <ele>399.3</ele>
        <time>1970-01-01T00:05:24.000Z</time>
      </trkpt>
      <trkpt lat="45.91273" lon="3.07896">
        <ele>399.3</ele>
        <time>1970-01-01T00:05:25.000Z</time>
      </trkpt>
      <trkpt lat="45.9127" lon="3.07902">
        <ele>399.2</ele>
        <time>1970-01-01T00:05:26.000Z</time>
      </trkpt>
      <trkpt lat="45.91268" lon="3.07908">
        <ele>399.1</ele>
        <time>1970-01-01T00:05:27.000Z</time>
      </trkpt>
      <trkpt lat="45.91266" lon="3.07913">
        <ele>399.1</ele>
        <time>1970-01-01T00:05:28.000Z</time>
      </trkpt>
      <trkpt lat="45.91266" lon="3.07917">
        <ele>399</ele>
        <time>1970-01-01T00:05:29.000Z</time>
      </trkpt>
      <trkpt lat="45.91263" lon="3.07922">
        <ele>399</ele>
        <time>1970-01-01T00:05:30.000Z</time>
      </trkpt>
      <trkpt lat="45.91261" lon="3.07926">
        <ele>398.7</ele>
        <time>1970-01-01T00:05:31.000Z</time>
      </trkpt>
      <trkpt lat="45.9126" lon="3.07931">
        <ele>398.7</ele>
        <time>1970-01-01T00:05:32.000Z</time>
      </trkpt>
      <trkpt lat="45.91258" lon="3.07937">
        <ele>398.7</ele>
        <time>1970-01-01T00:05:33.000Z</time>
      </trkpt>
      <trkpt lat="45.91257" lon="3.07941">
        <ele>398.7</ele>
        <time>1970-01-01T00:05:34.000Z</time>
      </trkpt>
      <trkpt lat="45.91254" lon="3.0795">
        <ele>398.7</ele>
        <time>1970-01-01T00:05:35.000Z</time>
      </trkpt>
      <trkpt lat="45.91244" lon="3.07957">
        <ele>398.6</ele>
        <time>1970-01-01T00:05:37.000Z</time>
      </trkpt>
      <trkpt lat="45.9124" lon="3.07961">
        <ele>398.6</ele>
        <time>1970-01-01T00:05:38.000Z</time>
      </trkpt>
      <trkpt lat="45.91237" lon="3.07965">
        <ele>398.6</ele>
        <time>1970-01-01T00:05:39.000Z</time>
      </trkpt>
      <trkpt lat="45.91234" lon="3.0797">
        <ele>398.6</ele>
        <time>1970-01-01T00:05:40.000Z</time>
      </trkpt>
      <trkpt lat="45.91233" lon="3.07973">
        <ele>398.6</ele>
        <time>1970-01-01T00:05:41.000Z</time>
      </trkpt>
      <trkpt lat="45.91232" lon="3.0798">
        <ele>398.5</ele>
        <time>1970-01-01T00:05:42.000Z</time>
      </trkpt>
      <trkpt lat="45.91232" lon="3.0799">
        <ele>398.5</ele>
        <time>1970-01-01T00:05:43.000Z</time>
      </trkpt>
      <trkpt lat="45.9123" lon="3.07997">
        <ele>398.5</ele>
        <time>1970-01-01T00:05:44.000Z</time>
      </trkpt>
      <trkpt lat="45.91227" lon="3.08004">
        <ele>398.5</ele>
        <time>1970-01-01T00:05:46.000Z</time>
      </trkpt>
      <trkpt lat="45.91225" lon="3.08009">
        <ele>398.5</ele>
        <time>1970-01-01T00:05:47.000Z</time>
      </trkpt>
      <trkpt lat="45.9122" lon="3.08016">
        <ele>398.5</ele>
        <time>1970-01-01T00:05:48.000Z</time>
      </trkpt>
      <trkpt lat="45.91215" lon="3.08021">
        <ele>398.6</ele>
        <time>1970-01-01T00:05:49.000Z</time>
      </trkpt>
      <trkpt lat="45.91212" lon="3.08027">
        <ele>398.6</ele>
        <time>1970-01-01T00:05:51.000Z</time>
      </trkpt>
      <trkpt lat="45.91209" lon="3.08032">
        <ele>398.7</ele>
        <time>1970-01-01T00:05:52.000Z</time>
      </trkpt>
      <trkpt lat="45.91206" lon="3.08037">
        <ele>398.8</ele>
        <time>1970-01-01T00:05:53.000Z</time>
      </trkpt>
      <trkpt lat="45.91203" lon="3.08042">
        <ele>398.9</ele>
        <time>1970-01-01T00:05:54.000Z</time>
      </trkpt>
      <trkpt lat="45.912" lon="3.0805">
        <ele>399.1</ele>
        <time>1970-01-01T00:05:55.000Z</time>
      </trkpt>
      <trkpt lat="45.91197" lon="3.08055">
        <ele>399.2</ele>
        <time>1970-01-01T00:05:56.000Z</time>
      </trkpt>
      <trkpt lat="45.91192" lon="3.08061">
        <ele>399.5</ele>
        <time>1970-01-01T00:05:58.000Z</time>
      </trkpt>
      <trkpt lat="45.91187" lon="3.08069">
        <ele>399.7</ele>
        <time>1970-01-01T00:06:00.000Z</time>
      </trkpt>
      <trkpt lat="45.91184" lon="3.08073">
        <ele>399.9</ele>
        <time>1970-01-01T00:06:01.000Z</time>
      </trkpt>
      <trkpt lat="45.91182" lon="3.0808">
        <ele>400.1</ele>
        <time>1970-01-01T00:06:02.000Z</time>
      </trkpt>
      <trkpt lat="45.91181" lon="3.08086">
        <ele>400.4</ele>
        <time>1970-01-01T00:06:03.000Z</time>
      </trkpt>
      <trkpt lat="45.9118" lon="3.08092">
        <ele>400.6</ele>
        <time>1970-01-01T00:06:04.000Z</time>
      </trkpt>
      <trkpt lat="45.91178" lon="3.08098">
        <ele>400.9</ele>
        <time>1970-01-01T00:06:06.000Z</time>
      </trkpt>
      <trkpt lat="45.91175" lon="3.08105">
        <ele>401.2</ele>
        <time>1970-01-01T00:06:07.000Z</time>
      </trkpt>
      <trkpt lat="45.91174" lon="3.08109">
        <ele>401.5</ele>
        <time>1970-01-01T00:06:08.000Z</time>
      </trkpt>
      <trkpt lat="45.91172" lon="3.08114">
        <ele>401.7</ele>
        <time>1970-01-01T00:06:10.000Z</time>
      </trkpt>
      <trkpt lat="45.91168" lon="3.0812">
        <ele>402</ele>
        <time>1970-01-01T00:06:12.000Z</time>
      </trkpt>
      <trkpt lat="45.91165" lon="3.08123">
        <ele>402.2</ele>
        <time>1970-01-01T00:06:13.000Z</time>
      </trkpt>
      <trkpt lat="45.91164" lon="3.08124">
        <ele>402.3</ele>
        <time>1970-01-01T00:06:14.000Z</time>
      </trkpt>
      <trkpt lat="45.91161" lon="3.08127">
        <ele>402.4</ele>
        <time>1970-01-01T00:06:15.000Z</time>
      </trkpt>
      <trkpt lat="45.9116" lon="3.08128">
        <ele>402.5</ele>
        <time>1970-01-01T00:06:16.000Z</time>
      </trkpt>
      <trkpt lat="45.91157" lon="3.0813">
        <ele>402.7</ele>
        <time>1970-01-01T00:06:17.000Z</time>
      </trkpt>
      <trkpt lat="45.91155" lon="3.08133">
        <ele>402.8</ele>
        <time>1970-01-01T00:06:18.000Z</time>
      </trkpt>
      <trkpt lat="45.91152" lon="3.08137">
        <ele>403</ele>
        <time>1970-01-01T00:06:19.000Z</time>
      </trkpt>
      <trkpt lat="45.91148" lon="3.0814">
        <ele>403.2</ele>
        <time>1970-01-01T00:06:20.000Z</time>
      </trkpt>
      <trkpt lat="45.91146" lon="3.08143">
        <ele>403.3</ele>
        <time>1970-01-01T00:06:22.000Z</time>
      </trkpt>
      <trkpt lat="45.91143" lon="3.08145">
        <ele>403.5</ele>
        <time>1970-01-01T00:06:23.000Z</time>
      </trkpt>
      <trkpt lat="45.91141" lon="3.08148">
        <ele>403.6</ele>
        <time>1970-01-01T00:06:24.000Z</time>
      </trkpt>
      <trkpt lat="45.91139" lon="3.0815">
        <ele>403.8</ele>
        <time>1970-01-01T00:06:25.000Z</time>
      </trkpt>
      <trkpt lat="45.91136" lon="3.08153">
        <ele>403.9</ele>
        <time>1970-01-01T00:06:26.000Z</time>
      </trkpt>
      <trkpt lat="45.91133" lon="3.08157">
        <ele>404.1</ele>
        <time>1970-01-01T00:06:27.000Z</time>
      </trkpt>
      <trkpt lat="45.9113" lon="3.08161">
        <ele>404.2</ele>
        <time>1970-01-01T00:06:29.000Z</time>
      </trkpt>
      <trkpt lat="45.91126" lon="3.08165">
        <ele>404.3</ele>
        <time>1970-01-01T00:06:31.000Z</time>
      </trkpt>
      <trkpt lat="45.91123" lon="3.08167">
        <ele>404.4</ele>
        <time>1970-01-01T00:06:32.000Z</time>
      </trkpt>
      <trkpt lat="45.91121" lon="3.0817">
        <ele>404.4</ele>
        <time>1970-01-01T00:06:33.000Z</time>
      </trkpt>
      <trkpt lat="45.91119" lon="3.08172">
        <ele>404.5</ele>
        <time>1970-01-01T00:06:34.000Z</time>
      </trkpt>
      <trkpt lat="45.91115" lon="3.08174">
        <ele>404.5</ele>
        <time>1970-01-01T00:06:35.000Z</time>
      </trkpt>
      <trkpt lat="45.91113" lon="3.08176">
        <ele>404.5</ele>
        <time>1970-01-01T00:06:36.000Z</time>
      </trkpt>
      <trkpt lat="45.9111" lon="3.08179">
        <ele>404.5</ele>
        <time>1970-01-01T00:06:37.000Z</time>
      </trkpt>
      <trkpt lat="45.91106" lon="3.08182">
        <ele>404.5</ele>
        <time>1970-01-01T00:06:38.000Z</time>
      </trkpt>
      <trkpt lat="45.91104" lon="3.08185">
        <ele>404.5</ele>
        <time>1970-01-01T00:06:39.000Z</time>
      </trkpt>
      <trkpt lat="45.91101" lon="3.08187">
        <ele>404.4</ele>
        <time>1970-01-01T00:06:41.000Z</time>
      </trkpt>
      <trkpt lat="45.91098" lon="3.0819">
        <ele>404.4</ele>
        <time>1970-01-01T00:06:42.000Z</time>
      </trkpt>
      <trkpt lat="45.91095" lon="3.08192">
        <ele>404.3</ele>
        <time>1970-01-01T00:06:43.000Z</time>
      </trkpt>
      <trkpt lat="45.91091" lon="3.08196">
        <ele>404.2</ele>
        <time>1970-01-01T00:06:44.000Z</time>
      </trkpt>
      <trkpt lat="45.91087" lon="3.082">
        <ele>404.1</ele>
        <time>1970-01-01T00:06:45.000Z</time>
      </trkpt>
      <trkpt lat="45.91081" lon="3.08204">
        <ele>404</ele>
        <time>1970-01-01T00:06:47.000Z</time>
      </trkpt>
      <trkpt lat="45.91074" lon="3.08208">
        <ele>403.9</ele>
        <time>1970-01-01T00:06:49.000Z</time>
      </trkpt>
      <trkpt lat="45.9107" lon="3.08211">
        <ele>403.9</ele>
        <time>1970-01-01T00:06:50.000Z</time>
      </trkpt>
      <trkpt lat="45.91067" lon="3.08213">
        <ele>403.9</ele>
        <time>1970-01-01T00:06:51.000Z</time>
      </trkpt>
      <trkpt lat="45.91062" lon="3.08215">
        <ele>403.9</ele>
        <time>1970-01-01T00:06:52.000Z</time>
      </trkpt>
      <trkpt lat="45.91057" lon="3.08219">
        <ele>403.9</ele>
        <time>1970-01-01T00:06:53.000Z</time>
      </trkpt>
      <trkpt lat="45.91053" lon="3.08222">
        <ele>403.8</ele>
        <time>1970-01-01T00:06:55.000Z</time>
      </trkpt>
      <trkpt lat="45.91048" lon="3.08225">
        <ele>403.8</ele>
        <time>1970-01-01T00:06:56.000Z</time>
      </trkpt>
      <trkpt lat="45.91043" lon="3.08228">
        <ele>403.8</ele>
        <time>1970-01-01T00:06:57.000Z</time>
      </trkpt>
      <trkpt lat="45.91038" lon="3.08231">
        <ele>403.7</ele>
        <time>1970-01-01T00:06:58.000Z</time>
      </trkpt>
      <trkpt lat="45.91034" lon="3.08233">
        <ele>403.7</ele>
        <time>1970-01-01T00:06:59.000Z</time>
      </trkpt>
      <trkpt lat="45.9103" lon="3.08236">
        <ele>403.7</ele>
        <time>1970-01-01T00:07:01.000Z</time>
      </trkpt>
      <trkpt lat="45.91025" lon="3.08238">
        <ele>403.6</ele>
        <time>1970-01-01T00:07:02.000Z</time>
      </trkpt>
      <trkpt lat="45.91021" lon="3.08241">
        <ele>403.6</ele>
        <time>1970-01-01T00:07:04.000Z</time>
      </trkpt>
      <trkpt lat="45.91017" lon="3.08242">
        <ele>403.5</ele>
        <time>1970-01-01T00:07:05.000Z</time>
      </trkpt>
      <trkpt lat="45.91013" lon="3.08243">
        <ele>403.4</ele>
        <time>1970-01-01T00:07:06.000Z</time>
      </trkpt>
      <trkpt lat="45.91007" lon="3.08246">
        <ele>403.3</ele>
        <time>1970-01-01T00:07:07.000Z</time>
      </trkpt>
      <trkpt lat="45.91002" lon="3.08248">
        <ele>403.2</ele>
        <time>1970-01-01T00:07:09.000Z</time>
      </trkpt>
      <trkpt lat="45.90998" lon="3.08249">
        <ele>403.2</ele>
        <time>1970-01-01T00:07:10.000Z</time>
      </trkpt>
      <trkpt lat="45.90991" lon="3.08251">
        <ele>403</ele>
        <time>1970-01-01T00:07:11.000Z</time>
      </trkpt>
      <trkpt lat="45.90986" lon="3.08252">
        <ele>403</ele>
        <time>1970-01-01T00:07:13.000Z</time>
      </trkpt>
      <trkpt lat="45.90981" lon="3.08252">
        <ele>402.9</ele>
        <time>1970-01-01T00:07:14.000Z</time>
      </trkpt>
      <trkpt lat="45.90977" lon="3.08253">
        <ele>402.9</ele>
        <time>1970-01-01T00:07:15.000Z</time>
      </trkpt>
      <trkpt lat="45.90974" lon="3.08253">
        <ele>402.8</ele>
        <time>1970-01-01T00:07:16.000Z</time>
      </trkpt>
      <trkpt lat="45.90968" lon="3.08255">
        <ele>402.8</ele>
        <time>1970-01-01T00:07:17.000Z</time>
      </trkpt>
      <trkpt lat="45.90964" lon="3.08256">
        <ele>402.7</ele>
        <time>1970-01-01T00:07:18.000Z</time>
      </trkpt>
      <trkpt lat="45.90959" lon="3.08258">
        <ele>402.7</ele>
        <time>1970-01-01T00:07:19.000Z</time>
      </trkpt>
      <trkpt lat="45.90954" lon="3.08258">
        <ele>402.6</ele>
        <time>1970-01-01T00:07:21.000Z</time>
      </trkpt>
      <trkpt lat="45.9095" lon="3.08259">
        <ele>402.6</ele>
        <time>1970-01-01T00:07:22.000Z</time>
      </trkpt>
      <trkpt lat="45.90945" lon="3.0826">
        <ele>402.6</ele>
        <time>1970-01-01T00:07:23.000Z</time>
      </trkpt>
      <trkpt lat="45.90941" lon="3.08261">
        <ele>402.6</ele>
        <time>1970-01-01T00:07:24.000Z</time>
      </trkpt>
      <trkpt lat="45.90935" lon="3.08262">
        <ele>402.6</ele>
        <time>1970-01-01T00:07:25.000Z</time>
      </trkpt>
      <trkpt lat="45.90929" lon="3.08263">
        <ele>402.7</ele>
        <time>1970-01-01T00:07:27.000Z</time>
      </trkpt>
      <trkpt lat="45.90924" lon="3.08264">
        <ele>402.7</ele>
        <time>1970-01-01T00:07:28.000Z</time>
      </trkpt>
      <trkpt lat="45.90918" lon="3.08267">
        <ele>402.8</ele>
        <time>1970-01-01T00:07:29.000Z</time>
      </trkpt>
      <trkpt lat="45.90913" lon="3.08266">
        <ele>402.9</ele>
        <time>1970-01-01T00:07:31.000Z</time>
      </trkpt>
      <trkpt lat="45.90908" lon="3.08267">
        <ele>403</ele>
        <time>1970-01-01T00:07:32.000Z</time>
      </trkpt>
      <trkpt lat="45.90904" lon="3.08267">
        <ele>403.1</ele>
        <time>1970-01-01T00:07:33.000Z</time>
      </trkpt>
      <trkpt lat="45.909" lon="3.08268">
        <ele>403.1</ele>
        <time>1970-01-01T00:07:34.000Z</time>
      </trkpt>
      <trkpt lat="45.90896" lon="3.08268">
        <ele>403.2</ele>
        <time>1970-01-01T00:07:35.000Z</time>
      </trkpt>
      <trkpt lat="45.90892" lon="3.08267">
        <ele>403.3</ele>
        <time>1970-01-01T00:07:36.000Z</time>
      </trkpt>
      <trkpt lat="45.90886" lon="3.08265">
        <ele>403.4</ele>
        <time>1970-01-01T00:07:38.000Z</time>
      </trkpt>
      <trkpt lat="45.90882" lon="3.08265">
        <ele>403.5</ele>
        <time>1970-01-01T00:07:39.000Z</time>
      </trkpt>
      <trkpt lat="45.90878" lon="3.08264">
        <ele>403.6</ele>
        <time>1970-01-01T00:07:40.000Z</time>
      </trkpt>
      <trkpt lat="45.90874" lon="3.08263">
        <ele>403.7</ele>
        <time>1970-01-01T00:07:41.000Z</time>
      </trkpt>
      <trkpt lat="45.9087" lon="3.08262">
        <ele>403.7</ele>
        <time>1970-01-01T00:07:42.000Z</time>
      </trkpt>
      <trkpt lat="45.90865" lon="3.0826">
        <ele>403.8</ele>
        <time>1970-01-01T00:07:44.000Z</time>
      </trkpt>
      <trkpt lat="45.90862" lon="3.0826">
        <ele>403.8</ele>
        <time>1970-01-01T00:07:45.000Z</time>
      </trkpt>
      <trkpt lat="45.90858" lon="3.08259">
        <ele>403.9</ele>
        <time>1970-01-01T00:07:46.000Z</time>
      </trkpt>
      <trkpt lat="45.90854" lon="3.08259">
        <ele>403.9</ele>
        <time>1970-01-01T00:07:47.000Z</time>
      </trkpt>
      <trkpt lat="45.90849" lon="3.08258">
        <ele>404</ele>
        <time>1970-01-01T00:07:48.000Z</time>
      </trkpt>
      <trkpt lat="45.90844" lon="3.08256">
        <ele>404</ele>
        <time>1970-01-01T00:07:49.000Z</time>
      </trkpt>
      <trkpt lat="45.9084" lon="3.08255">
        <ele>404.1</ele>
        <time>1970-01-01T00:07:51.000Z</time>
      </trkpt>
      <trkpt lat="45.90836" lon="3.08255">
        <ele>404.1</ele>
        <time>1970-01-01T00:07:52.000Z</time>
      </trkpt>
      <trkpt lat="45.90832" lon="3.08254">
        <ele>404.2</ele>
        <time>1970-01-01T00:07:53.000Z</time>
      </trkpt>
      <trkpt lat="45.90828" lon="3.08253">
        <ele>404.2</ele>
        <time>1970-01-01T00:07:54.000Z</time>
      </trkpt>
      <trkpt lat="45.90825" lon="3.08252">
        <ele>404.2</ele>
        <time>1970-01-01T00:07:55.000Z</time>
      </trkpt>
      <trkpt lat="45.90821" lon="3.0825">
        <ele>404.3</ele>
        <time>1970-01-01T00:07:56.000Z</time>
      </trkpt>
      <trkpt lat="45.90818" lon="3.08249">
        <ele>404.3</ele>
        <time>1970-01-01T00:07:57.000Z</time>
      </trkpt>
      <trkpt lat="45.90814" lon="3.08247">
        <ele>404.3</ele>
        <time>1970-01-01T00:07:58.000Z</time>
      </trkpt>
      <trkpt lat="45.9081" lon="3.08246">
        <ele>404.4</ele>
        <time>1970-01-01T00:07:59.000Z</time>
      </trkpt>
      <trkpt lat="45.90806" lon="3.08244">
        <ele>404.4</ele>
        <time>1970-01-01T00:08:00.000Z</time>
      </trkpt>
      <trkpt lat="45.90802" lon="3.08242">
        <ele>404.5</ele>
        <time>1970-01-01T00:08:01.000Z</time>
      </trkpt>
      <trkpt lat="45.90798" lon="3.0824">
        <ele>404.5</ele>
        <time>1970-01-01T00:08:02.000Z</time>
      </trkpt>
      <trkpt lat="45.90794" lon="3.08238">
        <ele>404.6</ele>
        <time>1970-01-01T00:08:03.000Z</time>
      </trkpt>
      <trkpt lat="45.9079" lon="3.08235">
        <ele>404.6</ele>
        <time>1970-01-01T00:08:05.000Z</time>
      </trkpt>
      <trkpt lat="45.90786" lon="3.08233">
        <ele>404.6</ele>
        <time>1970-01-01T00:08:06.000Z</time>
      </trkpt>
      <trkpt lat="45.90783" lon="3.08232">
        <ele>404.7</ele>
        <time>1970-01-01T00:08:07.000Z</time>
      </trkpt>
      <trkpt lat="45.90779" lon="3.0823">
        <ele>404.7</ele>
        <time>1970-01-01T00:08:08.000Z</time>
      </trkpt>
      <trkpt lat="45.90775" lon="3.08228">
        <ele>404.7</ele>
        <time>1970-01-01T00:08:09.000Z</time>
      </trkpt>
      <trkpt lat="45.90772" lon="3.08226">
        <ele>404.6</ele>
        <time>1970-01-01T00:08:10.000Z</time>
      </trkpt>
      <trkpt lat="45.90768" lon="3.08224">
        <ele>404.6</ele>
        <time>1970-01-01T00:08:11.000Z</time>
      </trkpt>
      <trkpt lat="45.90764" lon="3.08222">
        <ele>404.5</ele>
        <time>1970-01-01T00:08:12.000Z</time>
      </trkpt>
      <trkpt lat="45.9076" lon="3.0822">
        <ele>404.4</ele>
        <time>1970-01-01T00:08:14.000Z</time>
      </trkpt>
      <trkpt lat="45.90757" lon="3.08218">
        <ele>404.3</ele>
        <time>1970-01-01T00:08:15.000Z</time>
      </trkpt>
      <trkpt lat="45.90753" lon="3.08216">
        <ele>404.1</ele>
        <time>1970-01-01T00:08:16.000Z</time>
      </trkpt>
      <trkpt lat="45.90748" lon="3.08214">
        <ele>403.8</ele>
        <time>1970-01-01T00:08:17.000Z</time>
      </trkpt>
      <trkpt lat="45.90739" lon="3.0821">
        <ele>403.2</ele>
        <time>1970-01-01T00:08:19.000Z</time>
      </trkpt>
      <trkpt lat="45.90735" lon="3.08208">
        <ele>402.8</ele>
        <time>1970-01-01T00:08:20.000Z</time>
      </trkpt>
      <trkpt lat="45.9073" lon="3.08205">
        <ele>402.4</ele>
        <time>1970-01-01T00:08:21.000Z</time>
      </trkpt>
      <trkpt lat="45.90724" lon="3.08202">
        <ele>402</ele>
        <time>1970-01-01T00:08:22.000Z</time>
      </trkpt>
      <trkpt lat="45.90719" lon="3.08199">
        <ele>401.6</ele>
        <time>1970-01-01T00:08:23.000Z</time>
      </trkpt>
      <trkpt lat="45.90713" lon="3.08196">
        <ele>401.1</ele>
        <time>1970-01-01T00:08:24.000Z</time>
      </trkpt>
      <trkpt lat="45.90706" lon="3.08193">
        <ele>400.5</ele>
        <time>1970-01-01T00:08:25.000Z</time>
      </trkpt>
      <trkpt lat="45.907" lon="3.08189">
        <ele>400</ele>
        <time>1970-01-01T00:08:26.000Z</time>
      </trkpt>
      <trkpt lat="45.90693" lon="3.08185">
        <ele>399.5</ele>
        <time>1970-01-01T00:08:27.000Z</time>
      </trkpt>
      <trkpt lat="45.90686" lon="3.08182">
        <ele>398.9</ele>
        <time>1970-01-01T00:08:28.000Z</time>
      </trkpt>
      <trkpt lat="45.90679" lon="3.08178">
        <ele>398.4</ele>
        <time>1970-01-01T00:08:29.000Z</time>
      </trkpt>
      <trkpt lat="45.90671" lon="3.08174">
        <ele>397.8</ele>
        <time>1970-01-01T00:08:30.000Z</time>
      </trkpt>
      <trkpt lat="45.90663" lon="3.0817">
        <ele>397.3</ele>
        <time>1970-01-01T00:08:31.000Z</time>
      </trkpt>
      <trkpt lat="45.90655" lon="3.08167">
        <ele>396.9</ele>
        <time>1970-01-01T00:08:32.000Z</time>
      </trkpt>
      <trkpt lat="45.90647" lon="3.08164">
        <ele>396.5</ele>
        <time>1970-01-01T00:08:33.000Z</time>
      </trkpt>
      <trkpt lat="45.90639" lon="3.08161">
        <ele>396.3</ele>
        <time>1970-01-01T00:08:34.000Z</time>
      </trkpt>
      <trkpt lat="45.90631" lon="3.08159">
        <ele>396.1</ele>
        <time>1970-01-01T00:08:35.000Z</time>
      </trkpt>
      <trkpt lat="45.90623" lon="3.08157">
        <ele>395.9</ele>
        <time>1970-01-01T00:08:36.000Z</time>
      </trkpt>
      <trkpt lat="45.90616" lon="3.08155">
        <ele>395.8</ele>
        <time>1970-01-01T00:08:37.000Z</time>
      </trkpt>
      <trkpt lat="45.90608" lon="3.08154">
        <ele>395.7</ele>
        <time>1970-01-01T00:08:38.000Z</time>
      </trkpt>
      <trkpt lat="45.90601" lon="3.08152">
        <ele>395.6</ele>
        <time>1970-01-01T00:08:39.000Z</time>
      </trkpt>
      <trkpt lat="45.90593" lon="3.08151">
        <ele>395.5</ele>
        <time>1970-01-01T00:08:40.000Z</time>
      </trkpt>
      <trkpt lat="45.90586" lon="3.0815">
        <ele>395.3</ele>
        <time>1970-01-01T00:08:41.000Z</time>
      </trkpt>
      <trkpt lat="45.90579" lon="3.08149">
        <ele>395.2</ele>
        <time>1970-01-01T00:08:42.000Z</time>
      </trkpt>
      <trkpt lat="45.90573" lon="3.08148">
        <ele>395</ele>
        <time>1970-01-01T00:08:43.000Z</time>
      </trkpt>
      <trkpt lat="45.90566" lon="3.08148">
        <ele>394.9</ele>
        <time>1970-01-01T00:08:44.000Z</time>
      </trkpt>
      <trkpt lat="45.90559" lon="3.08148">
        <ele>394.8</ele>
        <time>1970-01-01T00:08:45.000Z</time>
      </trkpt>
      <trkpt lat="45.90553" lon="3.08148">
        <ele>394.7</ele>
        <time>1970-01-01T00:08:46.000Z</time>
      </trkpt>
      <trkpt lat="45.90546" lon="3.08148">
        <ele>394.6</ele>
        <time>1970-01-01T00:08:47.000Z</time>
      </trkpt>
      <trkpt lat="45.9054" lon="3.08149">
        <ele>394.4</ele>
        <time>1970-01-01T00:08:48.000Z</time>
      </trkpt>
      <trkpt lat="45.90533" lon="3.0815">
        <ele>394.2</ele>
        <time>1970-01-01T00:08:49.000Z</time>
      </trkpt>
      <trkpt lat="45.90526" lon="3.08151">
        <ele>394.1</ele>
        <time>1970-01-01T00:08:50.000Z</time>
      </trkpt>
      <trkpt lat="45.9052" lon="3.08152">
        <ele>393.9</ele>
        <time>1970-01-01T00:08:51.000Z</time>
      </trkpt>
      <trkpt lat="45.90513" lon="3.08153">
        <ele>393.8</ele>
        <time>1970-01-01T00:08:52.000Z</time>
      </trkpt>
      <trkpt lat="45.90506" lon="3.08154">
        <ele>393.6</ele>
        <time>1970-01-01T00:08:53.000Z</time>
      </trkpt>
      <trkpt lat="45.905" lon="3.08155">
        <ele>393.4</ele>
        <time>1970-01-01T00:08:54.000Z</time>
      </trkpt>
      <trkpt lat="45.90493" lon="3.08157">
        <ele>393.3</ele>
        <time>1970-01-01T00:08:55.000Z</time>
      </trkpt>
      <trkpt lat="45.90487" lon="3.08159">
        <ele>393.1</ele>
        <time>1970-01-01T00:08:56.000Z</time>
      </trkpt>
      <trkpt lat="45.9048" lon="3.08161">
        <ele>393</ele>
        <time>1970-01-01T00:08:57.000Z</time>
      </trkpt>
      <trkpt lat="45.90474" lon="3.08164">
        <ele>392.9</ele>
        <time>1970-01-01T00:08:58.000Z</time>
      </trkpt>
      <trkpt lat="45.90468" lon="3.08166">
        <ele>392.7</ele>
        <time>1970-01-01T00:08:59.000Z</time>
      </trkpt>
      <trkpt lat="45.90461" lon="3.08168">
        <ele>392.6</ele>
        <time>1970-01-01T00:09:00.000Z</time>
      </trkpt>
      <trkpt lat="45.90455" lon="3.0817">
        <ele>392.5</ele>
        <time>1970-01-01T00:09:01.000Z</time>
      </trkpt>
      <trkpt lat="45.90449" lon="3.08172">
        <ele>392.3</ele>
        <time>1970-01-01T00:09:02.000Z</time>
      </trkpt>
      <trkpt lat="45.90443" lon="3.08174">
        <ele>392.2</ele>
        <time>1970-01-01T00:09:03.000Z</time>
      </trkpt>
      <trkpt lat="45.90437" lon="3.08176">
        <ele>392.1</ele>
        <time>1970-01-01T00:09:04.000Z</time>
      </trkpt>
      <trkpt lat="45.90431" lon="3.08178">
        <ele>392</ele>
        <time>1970-01-01T00:09:05.000Z</time>
      </trkpt>
      <trkpt lat="45.90424" lon="3.0818">
        <ele>391.9</ele>
        <time>1970-01-01T00:09:06.000Z</time>
      </trkpt>
      <trkpt lat="45.90418" lon="3.08182">
        <ele>391.8</ele>
        <time>1970-01-01T00:09:07.000Z</time>
      </trkpt>
      <trkpt lat="45.90412" lon="3.08184">
        <ele>391.7</ele>
        <time>1970-01-01T00:09:08.000Z</time>
      </trkpt>
      <trkpt lat="45.90406" lon="3.08187">
        <ele>391.6</ele>
        <time>1970-01-01T00:09:09.000Z</time>
      </trkpt>
      <trkpt lat="45.90399" lon="3.08189">
        <ele>391.5</ele>
        <time>1970-01-01T00:09:10.000Z</time>
      </trkpt>
      <trkpt lat="45.90393" lon="3.08192">
        <ele>391.4</ele>
        <time>1970-01-01T00:09:11.000Z</time>
      </trkpt>
      <trkpt lat="45.90387" lon="3.08195">
        <ele>391.3</ele>
        <time>1970-01-01T00:09:12.000Z</time>
      </trkpt>
      <trkpt lat="45.90381" lon="3.08197">
        <ele>391.2</ele>
        <time>1970-01-01T00:09:13.000Z</time>
      </trkpt>
      <trkpt lat="45.90374" lon="3.08199">
        <ele>391.1</ele>
        <time>1970-01-01T00:09:14.000Z</time>
      </trkpt>
      <trkpt lat="45.90368" lon="3.08201">
        <ele>391</ele>
        <time>1970-01-01T00:09:15.000Z</time>
      </trkpt>
      <trkpt lat="45.90361" lon="3.08203">
        <ele>390.9</ele>
        <time>1970-01-01T00:09:16.000Z</time>
      </trkpt>
      <trkpt lat="45.90355" lon="3.08205">
        <ele>390.8</ele>
        <time>1970-01-01T00:09:17.000Z</time>
      </trkpt>
      <trkpt lat="45.9035" lon="3.08207">
        <ele>390.7</ele>
        <time>1970-01-01T00:09:18.000Z</time>
      </trkpt>
      <trkpt lat="45.90344" lon="3.08208">
        <ele>390.6</ele>
        <time>1970-01-01T00:09:19.000Z</time>
      </trkpt>
      <trkpt lat="45.90339" lon="3.0821">
        <ele>390.5</ele>
        <time>1970-01-01T00:09:20.000Z</time>
      </trkpt>
      <trkpt lat="45.90334" lon="3.08211">
        <ele>390.4</ele>
        <time>1970-01-01T00:09:21.000Z</time>
      </trkpt>
      <trkpt lat="45.90328" lon="3.08213">
        <ele>390.3</ele>
        <time>1970-01-01T00:09:22.000Z</time>
      </trkpt>
      <trkpt lat="45.90323" lon="3.08214">
        <ele>390.2</ele>
        <time>1970-01-01T00:09:23.000Z</time>
      </trkpt>
      <trkpt lat="45.90317" lon="3.08215">
        <ele>390.2</ele>
        <time>1970-01-01T00:09:24.000Z</time>
      </trkpt>
      <trkpt lat="45.90311" lon="3.08216">
        <ele>390.1</ele>
        <time>1970-01-01T00:09:25.000Z</time>
      </trkpt>
      <trkpt lat="45.90306" lon="3.08219">
        <ele>390.1</ele>
        <time>1970-01-01T00:09:26.000Z</time>
      </trkpt>
      <trkpt lat="45.903" lon="3.0822">
        <ele>390</ele>
        <time>1970-01-01T00:09:27.000Z</time>
      </trkpt>
      <trkpt lat="45.90293" lon="3.08221">
        <ele>390</ele>
        <time>1970-01-01T00:09:28.000Z</time>
      </trkpt>
      <trkpt lat="45.90287" lon="3.08221">
        <ele>389.9</ele>
        <time>1970-01-01T00:09:29.000Z</time>
      </trkpt>
      <trkpt lat="45.90281" lon="3.08221">
        <ele>389.8</ele>
        <time>1970-01-01T00:09:30.000Z</time>
      </trkpt>
      <trkpt lat="45.90274" lon="3.08221">
        <ele>389.7</ele>
        <time>1970-01-01T00:09:31.000Z</time>
      </trkpt>
      <trkpt lat="45.90268" lon="3.08222">
        <ele>389.6</ele>
        <time>1970-01-01T00:09:32.000Z</time>
      </trkpt>
      <trkpt lat="45.90262" lon="3.08222">
        <ele>389.6</ele>
        <time>1970-01-01T00:09:33.000Z</time>
      </trkpt>
      <trkpt lat="45.90256" lon="3.08222">
        <ele>389.5</ele>
        <time>1970-01-01T00:09:34.000Z</time>
      </trkpt>
      <trkpt lat="45.9025" lon="3.08222">
        <ele>389.5</ele>
        <time>1970-01-01T00:09:35.000Z</time>
      </trkpt>
      <trkpt lat="45.90244" lon="3.08221">
        <ele>389.6</ele>
        <time>1970-01-01T00:09:36.000Z</time>
      </trkpt>
      <trkpt lat="45.90238" lon="3.0822">
        <ele>389.6</ele>
        <time>1970-01-01T00:09:37.000Z</time>
      </trkpt>
      <trkpt lat="45.90232" lon="3.0822">
        <ele>389.7</ele>
        <time>1970-01-01T00:09:38.000Z</time>
      </trkpt>
      <trkpt lat="45.90226" lon="3.08219">
        <ele>389.8</ele>
        <time>1970-01-01T00:09:39.000Z</time>
      </trkpt>
      <trkpt lat="45.9022" lon="3.08218">
        <ele>389.8</ele>
        <time>1970-01-01T00:09:40.000Z</time>
      </trkpt>
      <trkpt lat="45.90214" lon="3.08217">
        <ele>389.9</ele>
        <time>1970-01-01T00:09:41.000Z</time>
      </trkpt>
      <trkpt lat="45.90208" lon="3.08215">
        <ele>390</ele>
        <time>1970-01-01T00:09:42.000Z</time>
      </trkpt>
      <trkpt lat="45.90202" lon="3.08214">
        <ele>390</ele>
        <time>1970-01-01T00:09:43.000Z</time>
      </trkpt>
      <trkpt lat="45.90196" lon="3.08212">
        <ele>390.1</ele>
        <time>1970-01-01T00:09:44.000Z</time>
      </trkpt>
      <trkpt lat="45.9019" lon="3.08211">
        <ele>390.1</ele>
        <time>1970-01-01T00:09:45.000Z</time>
      </trkpt>
      <trkpt lat="45.90184" lon="3.08209">
        <ele>390.2</ele>
        <time>1970-01-01T00:09:46.000Z</time>
      </trkpt>
      <trkpt lat="45.90178" lon="3.08207">
        <ele>390.3</ele>
        <time>1970-01-01T00:09:47.000Z</time>
      </trkpt>
      <trkpt lat="45.90172" lon="3.08205">
        <ele>390.3</ele>
        <time>1970-01-01T00:09:48.000Z</time>
      </trkpt>
      <trkpt lat="45.90166" lon="3.08203">
        <ele>390.4</ele>
        <time>1970-01-01T00:09:49.000Z</time>
      </trkpt>
      <trkpt lat="45.9016" lon="3.08201">
        <ele>390.5</ele>
        <time>1970-01-01T00:09:50.000Z</time>
      </trkpt>
      <trkpt lat="45.90154" lon="3.082">
        <ele>390.5</ele>
        <time>1970-01-01T00:09:51.000Z</time>
      </trkpt>
      <trkpt lat="45.90149" lon="3.08197">
        <ele>390.6</ele>
        <time>1970-01-01T00:09:52.000Z</time>
      </trkpt>
      <trkpt lat="45.90143" lon="3.08194">
        <ele>390.7</ele>
        <time>1970-01-01T00:09:53.000Z</time>
      </trkpt>
      <trkpt lat="45.90138" lon="3.08191">
        <ele>390.7</ele>
        <time>1970-01-01T00:09:54.000Z</time>
      </trkpt>
      <trkpt lat="45.90132" lon="3.08188">
        <ele>390.8</ele>
        <time>1970-01-01T00:09:55.000Z</time>
      </trkpt>
      <trkpt lat="45.90127" lon="3.08185">
        <ele>390.8</ele>
        <time>1970-01-01T00:09:56.000Z</time>
      </trkpt>
      <trkpt lat="45.90121" lon="3.08182">
        <ele>390.9</ele>
        <time>1970-01-01T00:09:57.000Z</time>
      </trkpt>
      <trkpt lat="45.90116" lon="3.08179">
        <ele>391</ele>
        <time>1970-01-01T00:09:58.000Z</time>
      </trkpt>
      <trkpt lat="45.90111" lon="3.08176">
        <ele>391</ele>
        <time>1970-01-01T00:09:59.000Z</time>
      </trkpt>
      <trkpt lat="45.90106" lon="3.08172">
        <ele>391.1</ele>
        <time>1970-01-01T00:10:00.000Z</time>
      </trkpt>
      <trkpt lat="45.90101" lon="3.08169">
        <ele>391.1</ele>
        <time>1970-01-01T00:10:01.000Z</time>
      </trkpt>
      <trkpt lat="45.90095" lon="3.08165">
        <ele>391.2</ele>
        <time>1970-01-01T00:10:02.000Z</time>
      </trkpt>
      <trkpt lat="45.9009" lon="3.08161">
        <ele>391.2</ele>
        <time>1970-01-01T00:10:03.000Z</time>
      </trkpt>
      <trkpt lat="45.90085" lon="3.08158">
        <ele>391.3</ele>
        <time>1970-01-01T00:10:04.000Z</time>
      </trkpt>
      <trkpt lat="45.9008" lon="3.08154">
        <ele>391.3</ele>
        <time>1970-01-01T00:10:05.000Z</time>
      </trkpt>
      <trkpt lat="45.90074" lon="3.08151">
        <ele>391.4</ele>
        <time>1970-01-01T00:10:06.000Z</time>
      </trkpt>
      <trkpt lat="45.90069" lon="3.08148">
        <ele>391.5</ele>
        <time>1970-01-01T00:10:07.000Z</time>
      </trkpt>
      <trkpt lat="45.90064" lon="3.08144">
        <ele>391.5</ele>
        <time>1970-01-01T00:10:08.000Z</time>
      </trkpt>
      <trkpt lat="45.90059" lon="3.08141">
        <ele>391.6</ele>
        <time>1970-01-01T00:10:09.000Z</time>
      </trkpt>
      <trkpt lat="45.90054" lon="3.08137">
        <ele>391.6</ele>
        <time>1970-01-01T00:10:10.000Z</time>
      </trkpt>
      <trkpt lat="45.90049" lon="3.08134">
        <ele>391.7</ele>
        <time>1970-01-01T00:10:11.000Z</time>
      </trkpt>
      <trkpt lat="45.90045" lon="3.08131">
        <ele>391.6</ele>
        <time>1970-01-01T00:10:12.000Z</time>
      </trkpt>
      <trkpt lat="45.90041" lon="3.08127">
        <ele>391.6</ele>
        <time>1970-01-01T00:10:13.000Z</time>
      </trkpt>
      <trkpt lat="45.90038" lon="3.08124">
        <ele>391.5</ele>
        <time>1970-01-01T00:10:14.000Z</time>
      </trkpt>
      <trkpt lat="45.90034" lon="3.08119">
        <ele>391.4</ele>
        <time>1970-01-01T00:10:15.000Z</time>
      </trkpt>
      <trkpt lat="45.90031" lon="3.08114">
        <ele>391.1</ele>
        <time>1970-01-01T00:10:16.000Z</time>
      </trkpt>
      <trkpt lat="45.90026" lon="3.08109">
        <ele>390.8</ele>
        <time>1970-01-01T00:10:17.000Z</time>
      </trkpt>
      <trkpt lat="45.90021" lon="3.08103">
        <ele>390.3</ele>
        <time>1970-01-01T00:10:18.000Z</time>
      </trkpt>
      <trkpt lat="45.90015" lon="3.08098">
        <ele>389.7</ele>
        <time>1970-01-01T00:10:19.000Z</time>
      </trkpt>
      <trkpt lat="45.90009" lon="3.08092">
        <ele>389.1</ele>
        <time>1970-01-01T00:10:20.000Z</time>
      </trkpt>
      <trkpt lat="45.90003" lon="3.08085">
        <ele>388.5</ele>
        <time>1970-01-01T00:10:21.000Z</time>
      </trkpt>
      <trkpt lat="45.89995" lon="3.08078">
        <ele>387.9</ele>
        <time>1970-01-01T00:10:22.000Z</time>
      </trkpt>
      <trkpt lat="45.89987" lon="3.08072">
        <ele>387.3</ele>
        <time>1970-01-01T00:10:23.000Z</time>
      </trkpt>
      <trkpt lat="45.89979" lon="3.08066">
        <ele>386.7</ele>
        <time>1970-01-01T00:10:24.000Z</time>
      </trkpt>
      <trkpt lat="45.8997" lon="3.0806">
        <ele>386</ele>
        <time>1970-01-01T00:10:25.000Z</time>
      </trkpt>
      <trkpt lat="45.8996" lon="3.08055">
        <ele>385.3</ele>
        <time>1970-01-01T00:10:26.000Z</time>
      </trkpt>
      <trkpt lat="45.8995" lon="3.0805">
        <ele>384.7</ele>
        <time>1970-01-01T00:10:27.000Z</time>
      </trkpt>
      <trkpt lat="45.8994" lon="3.08045">
        <ele>384.2</ele>
        <time>1970-01-01T00:10:28.000Z</time>
      </trkpt>
      <trkpt lat="45.89931" lon="3.08042">
        <ele>383.8</ele>
        <time>1970-01-01T00:10:29.000Z</time>
      </trkpt>
      <trkpt lat="45.89922" lon="3.0804">
        <ele>376.7</ele>
        <time>1970-01-01T00:10:30.000Z</time>
      </trkpt>
      <trkpt lat="45.89914" lon="3.08039">
        <ele>374.9</ele>
        <time>1970-01-01T00:10:31.000Z</time>
      </trkpt>
      <trkpt lat="45.89907" lon="3.08038">
        <ele>373.4</ele>
        <time>1970-01-01T00:10:32.000Z</time>
      </trkpt>
      <trkpt lat="45.89902" lon="3.08037">
        <ele>372.2</ele>
        <time>1970-01-01T00:10:33.000Z</time>
      </trkpt>
      <trkpt lat="45.89897" lon="3.08035">
        <ele>371.1</ele>
        <time>1970-01-01T00:10:34.000Z</time>
      </trkpt>
      <trkpt lat="45.89893" lon="3.08035">
        <ele>370.1</ele>
        <time>1970-01-01T00:10:35.000Z</time>
      </trkpt>
      <trkpt lat="45.8989" lon="3.08036">
        <ele>369.4</ele>
        <time>1970-01-01T00:10:36.000Z</time>
      </trkpt>
      <trkpt lat="45.89887" lon="3.08038">
        <ele>368.6</ele>
        <time>1970-01-01T00:10:37.000Z</time>
      </trkpt>
      <trkpt lat="45.89883" lon="3.08039">
        <ele>367.8</ele>
        <time>1970-01-01T00:10:38.000Z</time>
      </trkpt>
      <trkpt lat="45.89882" lon="3.08039">
        <ele>368</ele>
        <time>1970-01-01T00:10:39.000Z</time>
      </trkpt>
      <trkpt lat="45.89881" lon="3.08036">
        <ele>368</ele>
        <time>1970-01-01T00:10:40.000Z</time>
      </trkpt>
      <trkpt lat="45.89881" lon="3.08035">
        <ele>368.1</ele>
        <time>1970-01-01T00:10:41.000Z</time>
      </trkpt>
      <trkpt lat="45.89881" lon="3.08034">
        <ele>368.1</ele>
        <time>1970-01-01T00:10:42.000Z</time>
      </trkpt>
      <trkpt lat="45.89881" lon="3.08033">
        <ele>368.1</ele>
        <time>1970-01-01T00:10:43.000Z</time>
      </trkpt>
      <trkpt lat="45.89881" lon="3.08026">
        <ele>368.2</ele>
        <time>1970-01-01T00:10:45.000Z</time>
      </trkpt>
      <trkpt lat="45.89881" lon="3.08021">
        <ele>368.3</ele>
        <time>1970-01-01T00:10:46.000Z</time>
      </trkpt>
      <trkpt lat="45.89879" lon="3.08015">
        <ele>368.4</ele>
        <time>1970-01-01T00:10:47.000Z</time>
      </trkpt>
      <trkpt lat="45.89877" lon="3.08007">
        <ele>368.6</ele>
        <time>1970-01-01T00:10:48.000Z</time>
      </trkpt>
      <trkpt lat="45.89876" lon="3.07998">
        <ele>368.8</ele>
        <time>1970-01-01T00:10:49.000Z</time>
      </trkpt>
      <trkpt lat="45.89875" lon="3.07987">
        <ele>369.1</ele>
        <time>1970-01-01T00:10:51.000Z</time>
      </trkpt>
      <trkpt lat="45.89874" lon="3.07982">
        <ele>369.2</ele>
        <time>1970-01-01T00:10:52.000Z</time>
      </trkpt>
      <trkpt lat="45.89873" lon="3.07973">
        <ele>369.4</ele>
        <time>1970-01-01T00:10:53.000Z</time>
      </trkpt>
      <trkpt lat="45.89872" lon="3.07969">
        <ele>369.5</ele>
        <time>1970-01-01T00:10:55.000Z</time>
      </trkpt>
      <trkpt lat="45.89871" lon="3.07965">
        <ele>369.6</ele>
        <time>1970-01-01T00:10:56.000Z</time>
      </trkpt>
      <trkpt lat="45.89871" lon="3.07957">
        <ele>369.8</ele>
        <time>1970-01-01T00:10:57.000Z</time>
      </trkpt>
      <trkpt lat="45.8987" lon="3.07953">
        <ele>369.9</ele>
        <time>1970-01-01T00:10:59.000Z</time>
      </trkpt>
      <trkpt lat="45.89869" lon="3.07948">
        <ele>370</ele>
        <time>1970-01-01T00:11:00.000Z</time>
      </trkpt>
      <trkpt lat="45.89869" lon="3.07943">
        <ele>370.1</ele>
        <time>1970-01-01T00:11:01.000Z</time>
      </trkpt>
      <trkpt lat="45.89868" lon="3.07938">
        <ele>370.2</ele>
        <time>1970-01-01T00:11:02.000Z</time>
      </trkpt>
      <trkpt lat="45.89867" lon="3.07933">
        <ele>370.4</ele>
        <time>1970-01-01T00:11:03.000Z</time>
      </trkpt>
      <trkpt lat="45.89866" lon="3.07928">
        <ele>370.5</ele>
        <time>1970-01-01T00:11:05.000Z</time>
      </trkpt>
      <trkpt lat="45.89866" lon="3.07923">
        <ele>370.6</ele>
        <time>1970-01-01T00:11:06.000Z</time>
      </trkpt>
      <trkpt lat="45.89865" lon="3.0792">
        <ele>370.6</ele>
        <time>1970-01-01T00:11:07.000Z</time>
      </trkpt>
      <trkpt lat="45.89864" lon="3.07915">
        <ele>370.7</ele>
        <time>1970-01-01T00:11:08.000Z</time>
      </trkpt>
      <trkpt lat="45.89863" lon="3.0791">
        <ele>370.9</ele>
        <time>1970-01-01T00:11:09.000Z</time>
      </trkpt>
      <trkpt lat="45.89862" lon="3.07905">
        <ele>371</ele>
        <time>1970-01-01T00:11:10.000Z</time>
      </trkpt>
      <trkpt lat="45.89862" lon="3.07901">
        <ele>371</ele>
        <time>1970-01-01T00:11:12.000Z</time>
      </trkpt>
      <trkpt lat="45.8986" lon="3.07895">
        <ele>371.2</ele>
        <time>1970-01-01T00:11:13.000Z</time>
      </trkpt>
      <trkpt lat="45.89859" lon="3.07889">
        <ele>371.3</ele>
        <time>1970-01-01T00:11:15.000Z</time>
      </trkpt>
      <trkpt lat="45.89858" lon="3.07884">
        <ele>371.4</ele>
        <time>1970-01-01T00:11:16.000Z</time>
      </trkpt>
      <trkpt lat="45.89858" lon="3.0788">
        <ele>371.5</ele>
        <time>1970-01-01T00:11:17.000Z</time>
      </trkpt>
      <trkpt lat="45.89857" lon="3.07874">
        <ele>371.6</ele>
        <time>1970-01-01T00:11:18.000Z</time>
      </trkpt>
      <trkpt lat="45.89856" lon="3.0787">
        <ele>371.7</ele>
        <time>1970-01-01T00:11:19.000Z</time>
      </trkpt>
      <trkpt lat="45.89855" lon="3.07865">
        <ele>371.7</ele>
        <time>1970-01-01T00:11:20.000Z</time>
      </trkpt>
      <trkpt lat="45.89854" lon="3.07857">
        <ele>371.8</ele>
        <time>1970-01-01T00:11:22.000Z</time>
      </trkpt>
      <trkpt lat="45.89853" lon="3.07853">
        <ele>371.9</ele>
        <time>1970-01-01T00:11:23.000Z</time>
      </trkpt>
      <trkpt lat="45.89852" lon="3.07847">
        <ele>371.9</ele>
        <time>1970-01-01T00:11:25.000Z</time>
      </trkpt>
      <trkpt lat="45.89852" lon="3.07842">
        <ele>372</ele>
        <time>1970-01-01T00:11:26.000Z</time>
      </trkpt>
      <trkpt lat="45.89851" lon="3.07837">
        <ele>372</ele>
        <time>1970-01-01T00:11:27.000Z</time>
      </trkpt>
      <trkpt lat="45.8985" lon="3.07833">
        <ele>372.1</ele>
        <time>1970-01-01T00:11:28.000Z</time>
      </trkpt>
      <trkpt lat="45.8985" lon="3.07827">
        <ele>372.1</ele>
        <time>1970-01-01T00:11:30.000Z</time>
      </trkpt>
      <trkpt lat="45.89849" lon="3.07822">
        <ele>372.2</ele>
        <time>1970-01-01T00:11:31.000Z</time>
      </trkpt>
      <trkpt lat="45.89848" lon="3.07814">
        <ele>372.3</ele>
        <time>1970-01-01T00:11:32.000Z</time>
      </trkpt>
      <trkpt lat="45.89847" lon="3.0781">
        <ele>372.4</ele>
        <time>1970-01-01T00:11:33.000Z</time>
      </trkpt>
      <trkpt lat="45.89846" lon="3.07805">
        <ele>372.4</ele>
        <time>1970-01-01T00:11:35.000Z</time>
      </trkpt>
      <trkpt lat="45.89846" lon="3.07801">
        <ele>372.5</ele>
        <time>1970-01-01T00:11:36.000Z</time>
      </trkpt>
      <trkpt lat="45.89845" lon="3.07796">
        <ele>372.5</ele>
        <time>1970-01-01T00:11:37.000Z</time>
      </trkpt>
      <trkpt lat="45.89845" lon="3.07792">
        <ele>372.6</ele>
        <time>1970-01-01T00:11:38.000Z</time>
      </trkpt>
      <trkpt lat="45.89844" lon="3.07788">
        <ele>372.7</ele>
        <time>1970-01-01T00:11:39.000Z</time>
      </trkpt>
      <trkpt lat="45.89844" lon="3.07783">
        <ele>372.7</ele>
        <time>1970-01-01T00:11:40.000Z</time>
      </trkpt>
      <trkpt lat="45.89844" lon="3.07779">
        <ele>372.8</ele>
        <time>1970-01-01T00:11:41.000Z</time>
      </trkpt>
      <trkpt lat="45.89843" lon="3.07776">
        <ele>372.9</ele>
        <time>1970-01-01T00:11:42.000Z</time>
      </trkpt>
      <trkpt lat="45.89842" lon="3.0777">
        <ele>373</ele>
        <time>1970-01-01T00:11:43.000Z</time>
      </trkpt>
      <trkpt lat="45.89842" lon="3.07768">
        <ele>373.1</ele>
        <time>1970-01-01T00:11:44.000Z</time>
      </trkpt>
      <trkpt lat="45.8984" lon="3.07761">
        <ele>373.2</ele>
        <time>1970-01-01T00:11:45.000Z</time>
      </trkpt>
      <trkpt lat="45.8984" lon="3.07757">
        <ele>373.3</ele>
        <time>1970-01-01T00:11:46.000Z</time>
      </trkpt>
      <trkpt lat="45.89839" lon="3.07753">
        <ele>373.4</ele>
        <time>1970-01-01T00:11:47.000Z</time>
      </trkpt>
      <trkpt lat="45.89838" lon="3.07748">
        <ele>373.5</ele>
        <time>1970-01-01T00:11:49.000Z</time>
      </trkpt>
      <trkpt lat="45.89837" lon="3.07743">
        <ele>373.6</ele>
        <time>1970-01-01T00:11:50.000Z</time>
      </trkpt>
      <trkpt lat="45.89837" lon="3.07739">
        <ele>373.7</ele>
        <time>1970-01-01T00:11:51.000Z</time>
      </trkpt>
      <trkpt lat="45.89836" lon="3.07735">
        <ele>373.8</ele>
        <time>1970-01-01T00:11:52.000Z</time>
      </trkpt>
      <trkpt lat="45.89836" lon="3.07731">
        <ele>373.9</ele>
        <time>1970-01-01T00:11:53.000Z</time>
      </trkpt>
      <trkpt lat="45.89835" lon="3.07726">
        <ele>373.9</ele>
        <time>1970-01-01T00:11:54.000Z</time>
      </trkpt>
      <trkpt lat="45.89835" lon="3.07721">
        <ele>374</ele>
        <time>1970-01-01T00:11:55.000Z</time>
      </trkpt>
      <trkpt lat="45.89833" lon="3.07713">
        <ele>374.1</ele>
        <time>1970-01-01T00:11:57.000Z</time>
      </trkpt>
      <trkpt lat="45.89832" lon="3.07709">
        <ele>374.1</ele>
        <time>1970-01-01T00:11:58.000Z</time>
      </trkpt>
      <trkpt lat="45.89831" lon="3.07704">
        <ele>374.2</ele>
        <time>1970-01-01T00:11:59.000Z</time>
      </trkpt>
      <trkpt lat="45.8983" lon="3.07698">
        <ele>374.3</ele>
        <time>1970-01-01T00:12:00.000Z</time>
      </trkpt>
      <trkpt lat="45.89829" lon="3.07692">
        <ele>374.3</ele>
        <time>1970-01-01T00:12:02.000Z</time>
      </trkpt>
      <trkpt lat="45.89828" lon="3.07687">
        <ele>374.4</ele>
        <time>1970-01-01T00:12:03.000Z</time>
      </trkpt>
      <trkpt lat="45.89828" lon="3.07682">
        <ele>374.5</ele>
        <time>1970-01-01T00:12:04.000Z</time>
      </trkpt>
      <trkpt lat="45.89827" lon="3.07678">
        <ele>374.5</ele>
        <time>1970-01-01T00:12:05.000Z</time>
      </trkpt>
      <trkpt lat="45.89826" lon="3.07674">
        <ele>374.6</ele>
        <time>1970-01-01T00:12:06.000Z</time>
      </trkpt>
      <trkpt lat="45.89825" lon="3.07669">
        <ele>374.6</ele>
        <time>1970-01-01T00:12:07.000Z</time>
      </trkpt>
      <trkpt lat="45.89824" lon="3.07665">
        <ele>374.7</ele>
        <time>1970-01-01T00:12:08.000Z</time>
      </trkpt>
      <trkpt lat="45.89823" lon="3.07661">
        <ele>374.7</ele>
        <time>1970-01-01T00:12:09.000Z</time>
      </trkpt>
      <trkpt lat="45.89822" lon="3.07656">
        <ele>374.8</ele>
        <time>1970-01-01T00:12:10.000Z</time>
      </trkpt>
      <trkpt lat="45.89822" lon="3.07654">
        <ele>374.8</ele>
        <time>1970-01-01T00:12:11.000Z</time>
      </trkpt>
      <trkpt lat="45.89821" lon="3.07649">
        <ele>374.9</ele>
        <time>1970-01-01T00:12:12.000Z</time>
      </trkpt>
      <trkpt lat="45.89821" lon="3.07647">
        <ele>374.9</ele>
        <time>1970-01-01T00:12:13.000Z</time>
      </trkpt>
      <trkpt lat="45.89819" lon="3.07642">
        <ele>375</ele>
        <time>1970-01-01T00:12:14.000Z</time>
      </trkpt>
      <trkpt lat="45.89819" lon="3.0764">
        <ele>375.1</ele>
        <time>1970-01-01T00:12:15.000Z</time>
      </trkpt>
      <trkpt lat="45.89817" lon="3.07635">
        <ele>375.1</ele>
        <time>1970-01-01T00:12:16.000Z</time>
      </trkpt>
      <trkpt lat="45.89817" lon="3.07634">
        <ele>375.2</ele>
        <time>1970-01-01T00:12:17.000Z</time>
      </trkpt>
      <trkpt lat="45.89816" lon="3.0763">
        <ele>375.2</ele>
        <time>1970-01-01T00:12:18.000Z</time>
      </trkpt>
      <trkpt lat="45.89814" lon="3.07626">
        <ele>375.3</ele>
        <time>1970-01-01T00:12:19.000Z</time>
      </trkpt>
      <trkpt lat="45.89813" lon="3.07623">
        <ele>375.3</ele>
        <time>1970-01-01T00:12:20.000Z</time>
      </trkpt>
      <trkpt lat="45.89811" lon="3.07617">
        <ele>375.5</ele>
        <time>1970-01-01T00:12:21.000Z</time>
      </trkpt>
      <trkpt lat="45.8981" lon="3.07614">
        <ele>375.5</ele>
        <time>1970-01-01T00:12:22.000Z</time>
      </trkpt>
      <trkpt lat="45.89809" lon="3.07608">
        <ele>375.6</ele>
        <time>1970-01-01T00:12:23.000Z</time>
      </trkpt>
      <trkpt lat="45.89807" lon="3.07603">
        <ele>375.7</ele>
        <time>1970-01-01T00:12:25.000Z</time>
      </trkpt>
      <trkpt lat="45.89806" lon="3.07598">
        <ele>375.8</ele>
        <time>1970-01-01T00:12:26.000Z</time>
      </trkpt>
      <trkpt lat="45.89805" lon="3.07593">
        <ele>375.9</ele>
        <time>1970-01-01T00:12:27.000Z</time>
      </trkpt>
      <trkpt lat="45.89803" lon="3.07587">
        <ele>376</ele>
        <time>1970-01-01T00:12:29.000Z</time>
      </trkpt>
      <trkpt lat="45.89801" lon="3.07582">
        <ele>376.1</ele>
        <time>1970-01-01T00:12:30.000Z</time>
      </trkpt>
      <trkpt lat="45.898" lon="3.07578">
        <ele>376.2</ele>
        <time>1970-01-01T00:12:31.000Z</time>
      </trkpt>
      <trkpt lat="45.89798" lon="3.07572">
        <ele>376.3</ele>
        <time>1970-01-01T00:12:32.000Z</time>
      </trkpt>
      <trkpt lat="45.89797" lon="3.07568">
        <ele>376.3</ele>
        <time>1970-01-01T00:12:33.000Z</time>
      </trkpt>
      <trkpt lat="45.89795" lon="3.07563">
        <ele>376.4</ele>
        <time>1970-01-01T00:12:34.000Z</time>
      </trkpt>
      <trkpt lat="45.89794" lon="3.07558">
        <ele>376.5</ele>
        <time>1970-01-01T00:12:36.000Z</time>
      </trkpt>
      <trkpt lat="45.89792" lon="3.07554">
        <ele>376.6</ele>
        <time>1970-01-01T00:12:37.000Z</time>
      </trkpt>
      <trkpt lat="45.8979" lon="3.07549">
        <ele>376.7</ele>
        <time>1970-01-01T00:12:38.000Z</time>
      </trkpt>
      <trkpt lat="45.89788" lon="3.07544">
        <ele>376.8</ele>
        <time>1970-01-01T00:12:39.000Z</time>
      </trkpt>
      <trkpt lat="45.89786" lon="3.07539">
        <ele>376.9</ele>
        <time>1970-01-01T00:12:41.000Z</time>
      </trkpt>
      <trkpt lat="45.89784" lon="3.07535">
        <ele>377</ele>
        <time>1970-01-01T00:12:42.000Z</time>
      </trkpt>
      <trkpt lat="45.89783" lon="3.07531">
        <ele>377</ele>
        <time>1970-01-01T00:12:43.000Z</time>
      </trkpt>
      <trkpt lat="45.89781" lon="3.07527">
        <ele>377.1</ele>
        <time>1970-01-01T00:12:44.000Z</time>
      </trkpt>
      <trkpt lat="45.89779" lon="3.07523">
        <ele>377.1</ele>
        <time>1970-01-01T00:12:45.000Z</time>
      </trkpt>
      <trkpt lat="45.89778" lon="3.07519">
        <ele>377.1</ele>
        <time>1970-01-01T00:12:46.000Z</time>
      </trkpt>
      <trkpt lat="45.89776" lon="3.07514">
        <ele>377.2</ele>
        <time>1970-01-01T00:12:47.000Z</time>
      </trkpt>
      <trkpt lat="45.89774" lon="3.0751">
        <ele>377.2</ele>
        <time>1970-01-01T00:12:48.000Z</time>
      </trkpt>
      <trkpt lat="45.8977" lon="3.07504">
        <ele>377.3</ele>
        <time>1970-01-01T00:12:49.000Z</time>
      </trkpt>
      <trkpt lat="45.89768" lon="3.07499">
        <ele>377.3</ele>
        <time>1970-01-01T00:12:51.000Z</time>
      </trkpt>
      <trkpt lat="45.89766" lon="3.07495">
        <ele>377.4</ele>
        <time>1970-01-01T00:12:52.000Z</time>
      </trkpt>
      <trkpt lat="45.89765" lon="3.07491">
        <ele>377.4</ele>
        <time>1970-01-01T00:12:53.000Z</time>
      </trkpt>
      <trkpt lat="45.89763" lon="3.07487">
        <ele>377.5</ele>
        <time>1970-01-01T00:12:54.000Z</time>
      </trkpt>
      <trkpt lat="45.89761" lon="3.07482">
        <ele>377.6</ele>
        <time>1970-01-01T00:12:55.000Z</time>
      </trkpt>
      <trkpt lat="45.89759" lon="3.07478">
        <ele>377.7</ele>
        <time>1970-01-01T00:12:56.000Z</time>
      </trkpt>
      <trkpt lat="45.89757" lon="3.07474">
        <ele>377.7</ele>
        <time>1970-01-01T00:12:58.000Z</time>
      </trkpt>
      <trkpt lat="45.89754" lon="3.07468">
        <ele>377.8</ele>
        <time>1970-01-01T00:12:59.000Z</time>
      </trkpt>
      <trkpt lat="45.89752" lon="3.07463">
        <ele>377.9</ele>
        <time>1970-01-01T00:13:01.000Z</time>
      </trkpt>
      <trkpt lat="45.89749" lon="3.07459">
        <ele>378</ele>
        <time>1970-01-01T00:13:02.000Z</time>
      </trkpt>
      <trkpt lat="45.89746" lon="3.07454">
        <ele>378.1</ele>
        <time>1970-01-01T00:13:03.000Z</time>
      </trkpt>
      <trkpt lat="45.89743" lon="3.07449">
        <ele>378.2</ele>
        <time>1970-01-01T00:13:05.000Z</time>
      </trkpt>
      <trkpt lat="45.89741" lon="3.07445">
        <ele>378.3</ele>
        <time>1970-01-01T00:13:06.000Z</time>
      </trkpt>
      <trkpt lat="45.89739" lon="3.07442">
        <ele>378.4</ele>
        <time>1970-01-01T00:13:07.000Z</time>
      </trkpt>
      <trkpt lat="45.89737" lon="3.07438">
        <ele>378.5</ele>
        <time>1970-01-01T00:13:08.000Z</time>
      </trkpt>
      <trkpt lat="45.89734" lon="3.07434">
        <ele>378.5</ele>
        <time>1970-01-01T00:13:09.000Z</time>
      </trkpt>
      <trkpt lat="45.89733" lon="3.07431">
        <ele>378.6</ele>
        <time>1970-01-01T00:13:10.000Z</time>
      </trkpt>
      <trkpt lat="45.89731" lon="3.07428">
        <ele>378.7</ele>
        <time>1970-01-01T00:13:11.000Z</time>
      </trkpt>
      <trkpt lat="45.89728" lon="3.07424">
        <ele>378.7</ele>
        <time>1970-01-01T00:13:12.000Z</time>
      </trkpt>
      <trkpt lat="45.89726" lon="3.0742">
        <ele>378.8</ele>
        <time>1970-01-01T00:13:13.000Z</time>
      </trkpt>
      <trkpt lat="45.89725" lon="3.07417">
        <ele>378.9</ele>
        <time>1970-01-01T00:13:14.000Z</time>
      </trkpt>
      <trkpt lat="45.89722" lon="3.07412">
        <ele>379</ele>
        <time>1970-01-01T00:13:15.000Z</time>
      </trkpt>
      <trkpt lat="45.89719" lon="3.07408">
        <ele>379.1</ele>
        <time>1970-01-01T00:13:16.000Z</time>
      </trkpt>
      <trkpt lat="45.89716" lon="3.07405">
        <ele>379.1</ele>
        <time>1970-01-01T00:13:17.000Z</time>
      </trkpt>
      <trkpt lat="45.89714" lon="3.07401">
        <ele>379.2</ele>
        <time>1970-01-01T00:13:19.000Z</time>
      </trkpt>
      <trkpt lat="45.89711" lon="3.07397">
        <ele>379.3</ele>
        <time>1970-01-01T00:13:20.000Z</time>
      </trkpt>
      <trkpt lat="45.89709" lon="3.07394">
        <ele>379.4</ele>
        <time>1970-01-01T00:13:21.000Z</time>
      </trkpt>
      <trkpt lat="45.89705" lon="3.07388">
        <ele>379.6</ele>
        <time>1970-01-01T00:13:22.000Z</time>
      </trkpt>
      <trkpt lat="45.89703" lon="3.07384">
        <ele>379.7</ele>
        <time>1970-01-01T00:13:23.000Z</time>
      </trkpt>
      <trkpt lat="45.897" lon="3.0738">
        <ele>379.8</ele>
        <time>1970-01-01T00:13:25.000Z</time>
      </trkpt>
      <trkpt lat="45.89698" lon="3.07377">
        <ele>379.9</ele>
        <time>1970-01-01T00:13:26.000Z</time>
      </trkpt>
      <trkpt lat="45.89695" lon="3.07373">
        <ele>380</ele>
        <time>1970-01-01T00:13:27.000Z</time>
      </trkpt>
      <trkpt lat="45.89693" lon="3.0737">
        <ele>380</ele>
        <time>1970-01-01T00:13:28.000Z</time>
      </trkpt>
      <trkpt lat="45.89691" lon="3.07367">
        <ele>380.1</ele>
        <time>1970-01-01T00:13:29.000Z</time>
      </trkpt>
      <trkpt lat="45.89687" lon="3.07362">
        <ele>380.2</ele>
        <time>1970-01-01T00:13:30.000Z</time>
      </trkpt>
      <trkpt lat="45.89685" lon="3.07359">
        <ele>380.3</ele>
        <time>1970-01-01T00:13:31.000Z</time>
      </trkpt>
      <trkpt lat="45.89683" lon="3.07355">
        <ele>380.4</ele>
        <time>1970-01-01T00:13:32.000Z</time>
      </trkpt>
      <trkpt lat="45.8968" lon="3.07352">
        <ele>380.5</ele>
        <time>1970-01-01T00:13:34.000Z</time>
      </trkpt>
      <trkpt lat="45.89677" lon="3.07349">
        <ele>380.6</ele>
        <time>1970-01-01T00:13:35.000Z</time>
      </trkpt>
      <trkpt lat="45.89675" lon="3.07346">
        <ele>380.8</ele>
        <time>1970-01-01T00:13:36.000Z</time>
      </trkpt>
      <trkpt lat="45.89671" lon="3.07342">
        <ele>380.9</ele>
        <time>1970-01-01T00:13:37.000Z</time>
      </trkpt>
      <trkpt lat="45.89669" lon="3.0734">
        <ele>381</ele>
        <time>1970-01-01T00:13:38.000Z</time>
      </trkpt>
      <trkpt lat="45.89666" lon="3.07337">
        <ele>381.2</ele>
        <time>1970-01-01T00:13:40.000Z</time>
      </trkpt>
      <trkpt lat="45.89663" lon="3.07335">
        <ele>381.3</ele>
        <time>1970-01-01T00:13:41.000Z</time>
      </trkpt>
      <trkpt lat="45.8966" lon="3.07332">
        <ele>381.4</ele>
        <time>1970-01-01T00:13:42.000Z</time>
      </trkpt>
      <trkpt lat="45.89657" lon="3.07329">
        <ele>381.6</ele>
        <time>1970-01-01T00:13:43.000Z</time>
      </trkpt>
      <trkpt lat="45.89654" lon="3.07327">
        <ele>381.8</ele>
        <time>1970-01-01T00:13:45.000Z</time>
      </trkpt>
      <trkpt lat="45.89652" lon="3.07325">
        <ele>381.9</ele>
        <time>1970-01-01T00:13:46.000Z</time>
      </trkpt>
      <trkpt lat="45.89648" lon="3.07322">
        <ele>382.1</ele>
        <time>1970-01-01T00:13:47.000Z</time>
      </trkpt>
      <trkpt lat="45.89646" lon="3.0732">
        <ele>382.3</ele>
        <time>1970-01-01T00:13:48.000Z</time>
      </trkpt>
      <trkpt lat="45.89642" lon="3.07318">
        <ele>382.5</ele>
        <time>1970-01-01T00:13:49.000Z</time>
      </trkpt>
      <trkpt lat="45.89641" lon="3.07317">
        <ele>382.6</ele>
        <time>1970-01-01T00:13:50.000Z</time>
      </trkpt>
      <trkpt lat="45.89637" lon="3.07312">
        <ele>382.8</ele>
        <time>1970-01-01T00:13:52.000Z</time>
      </trkpt>
      <trkpt lat="45.89636" lon="3.07311">
        <ele>382.9</ele>
        <time>1970-01-01T00:13:53.000Z</time>
      </trkpt>
      <trkpt lat="45.89635" lon="3.07309">
        <ele>382.9</ele>
        <time>1970-01-01T00:13:54.000Z</time>
      </trkpt>
      <trkpt lat="45.89632" lon="3.07305">
        <ele>383.1</ele>
        <time>1970-01-01T00:13:55.000Z</time>
      </trkpt>
      <trkpt lat="45.89631" lon="3.07304">
        <ele>383.1</ele>
        <time>1970-01-01T00:13:56.000Z</time>
      </trkpt>
      <trkpt lat="45.8963" lon="3.073">
        <ele>383.3</ele>
        <time>1970-01-01T00:13:57.000Z</time>
      </trkpt>
      <trkpt lat="45.89629" lon="3.07296">
        <ele>383.4</ele>
        <time>1970-01-01T00:13:58.000Z</time>
      </trkpt>
      <trkpt lat="45.89629" lon="3.0729">
        <ele>383.5</ele>
        <time>1970-01-01T00:13:59.000Z</time>
      </trkpt>
      <trkpt lat="45.8963" lon="3.07286">
        <ele>383.6</ele>
        <time>1970-01-01T00:14:00.000Z</time>
      </trkpt>
      <trkpt lat="45.89629" lon="3.07281">
        <ele>383.7</ele>
        <time>1970-01-01T00:14:01.000Z</time>
      </trkpt>
      <trkpt lat="45.89628" lon="3.0728">
        <ele>383.8</ele>
        <time>1970-01-01T00:14:02.000Z</time>
      </trkpt>
      <trkpt lat="45.89626" lon="3.07276">
        <ele>383.9</ele>
        <time>1970-01-01T00:14:04.000Z</time>
      </trkpt>
      <trkpt lat="45.89625" lon="3.07275">
        <ele>384.4</ele>
        <time>1970-01-01T00:14:05.000Z</time>
      </trkpt>
      <trkpt lat="45.89623" lon="3.07271">
        <ele>384.5</ele>
        <time>1970-01-01T00:14:06.000Z</time>
      </trkpt>
      <trkpt lat="45.89622" lon="3.07269">
        <ele>384.5</ele>
        <time>1970-01-01T00:14:07.000Z</time>
      </trkpt>
      <trkpt lat="45.8962" lon="3.07265">
        <ele>384.5</ele>
        <time>1970-01-01T00:14:08.000Z</time>
      </trkpt>
      <trkpt lat="45.89619" lon="3.07263">
        <ele>384.5</ele>
        <time>1970-01-01T00:14:09.000Z</time>
      </trkpt>
      <trkpt lat="45.89615" lon="3.07261">
        <ele>384.5</ele>
        <time>1970-01-01T00:14:10.000Z</time>
      </trkpt>
      <trkpt lat="45.89614" lon="3.0726">
        <ele>384.6</ele>
        <time>1970-01-01T00:14:11.000Z</time>
      </trkpt>
      <trkpt lat="45.89611" lon="3.07257">
        <ele>384.7</ele>
        <time>1970-01-01T00:14:12.000Z</time>
      </trkpt>
      <trkpt lat="45.89609" lon="3.07255">
        <ele>384.7</ele>
        <time>1970-01-01T00:14:13.000Z</time>
      </trkpt>
      <trkpt lat="45.89607" lon="3.07251">
        <ele>384.7</ele>
        <time>1970-01-01T00:14:14.000Z</time>
      </trkpt>
      <trkpt lat="45.89606" lon="3.07248">
        <ele>384.7</ele>
        <time>1970-01-01T00:14:16.000Z</time>
      </trkpt>
      <trkpt lat="45.89604" lon="3.07244">
        <ele>384.7</ele>
        <time>1970-01-01T00:14:17.000Z</time>
      </trkpt>
      <trkpt lat="45.896" lon="3.07243">
        <ele>384.8</ele>
        <time>1970-01-01T00:14:18.000Z</time>
      </trkpt>
      <trkpt lat="45.89596" lon="3.07245">
        <ele>384.8</ele>
        <time>1970-01-01T00:14:20.000Z</time>
      </trkpt>
      <trkpt lat="45.89593" lon="3.07246">
        <ele>384.9</ele>
        <time>1970-01-01T00:14:21.000Z</time>
      </trkpt>
      <trkpt lat="45.8959" lon="3.07247">
        <ele>384.9</ele>
        <time>1970-01-01T00:14:22.000Z</time>
      </trkpt>
      <trkpt lat="45.89587" lon="3.07246">
        <ele>384.9</ele>
        <time>1970-01-01T00:14:23.000Z</time>
      </trkpt>
      <trkpt lat="45.89582" lon="3.07245">
        <ele>384.9</ele>
        <time>1970-01-01T00:14:25.000Z</time>
      </trkpt>
      <trkpt lat="45.89578" lon="3.07246">
        <ele>384.8</ele>
        <time>1970-01-01T00:14:27.000Z</time>
      </trkpt>
      <trkpt lat="45.89574" lon="3.07246">
        <ele>384.8</ele>
        <time>1970-01-01T00:14:28.000Z</time>
      </trkpt>
      <trkpt lat="45.89571" lon="3.07247">
        <ele>384.8</ele>
        <time>1970-01-01T00:14:29.000Z</time>
      </trkpt>
      <trkpt lat="45.89566" lon="3.07249">
        <ele>384.8</ele>
        <time>1970-01-01T00:14:30.000Z</time>
      </trkpt>
      <trkpt lat="45.89559" lon="3.07251">
        <ele>384.8</ele>
        <time>1970-01-01T00:14:32.000Z</time>
      </trkpt>
      <trkpt lat="45.89552" lon="3.07248">
        <ele>384.7</ele>
        <time>1970-01-01T00:14:33.000Z</time>
      </trkpt>
      <trkpt lat="45.89547" lon="3.07246">
        <ele>384.7</ele>
        <time>1970-01-01T00:14:34.000Z</time>
      </trkpt>
      <trkpt lat="45.89543" lon="3.07243">
        <ele>384.7</ele>
        <time>1970-01-01T00:14:35.000Z</time>
      </trkpt>
      <trkpt lat="45.89538" lon="3.07241">
        <ele>384.6</ele>
        <time>1970-01-01T00:14:36.000Z</time>
      </trkpt>
      <trkpt lat="45.89534" lon="3.07239">
        <ele>384.6</ele>
        <time>1970-01-01T00:14:37.000Z</time>
      </trkpt>
      <trkpt lat="45.8953" lon="3.07237">
        <ele>384.6</ele>
        <time>1970-01-01T00:14:38.000Z</time>
      </trkpt>
      <trkpt lat="45.89525" lon="3.07235">
        <ele>384.6</ele>
        <time>1970-01-01T00:14:39.000Z</time>
      </trkpt>
      <trkpt lat="45.8952" lon="3.07233">
        <ele>384.5</ele>
        <time>1970-01-01T00:14:40.000Z</time>
      </trkpt>
      <trkpt lat="45.89515" lon="3.07231">
        <ele>384.5</ele>
        <time>1970-01-01T00:14:41.000Z</time>
      </trkpt>
      <trkpt lat="45.89511" lon="3.0723">
        <ele>384.5</ele>
        <time>1970-01-01T00:14:42.000Z</time>
      </trkpt>
      <trkpt lat="45.89506" lon="3.07228">
        <ele>384.5</ele>
        <time>1970-01-01T00:14:43.000Z</time>
      </trkpt>
      <trkpt lat="45.89501" lon="3.07227">
        <ele>384.5</ele>
        <time>1970-01-01T00:14:44.000Z</time>
      </trkpt>
      <trkpt lat="45.89496" lon="3.07226">
        <ele>384.5</ele>
        <time>1970-01-01T00:14:45.000Z</time>
      </trkpt>
      <trkpt lat="45.89491" lon="3.07225">
        <ele>384.5</ele>
        <time>1970-01-01T00:14:46.000Z</time>
      </trkpt>
      <trkpt lat="45.89487" lon="3.07224">
        <ele>384.5</ele>
        <time>1970-01-01T00:14:47.000Z</time>
      </trkpt>
      <trkpt lat="45.89483" lon="3.07222">
        <ele>384.5</ele>
        <time>1970-01-01T00:14:48.000Z</time>
      </trkpt>
      <trkpt lat="45.89478" lon="3.07221">
        <ele>384.5</ele>
        <time>1970-01-01T00:14:49.000Z</time>
      </trkpt>
      <trkpt lat="45.89473" lon="3.0722">
        <ele>384.4</ele>
        <time>1970-01-01T00:14:50.000Z</time>
      </trkpt>
      <trkpt lat="45.89468" lon="3.07219">
        <ele>384.4</ele>
        <time>1970-01-01T00:14:51.000Z</time>
      </trkpt>
      <trkpt lat="45.89463" lon="3.07218">
        <ele>384.4</ele>
        <time>1970-01-01T00:14:52.000Z</time>
      </trkpt>
      <trkpt lat="45.89459" lon="3.07217">
        <ele>384.4</ele>
        <time>1970-01-01T00:14:53.000Z</time>
      </trkpt>
      <trkpt lat="45.89454" lon="3.07217">
        <ele>384.4</ele>
        <time>1970-01-01T00:14:54.000Z</time>
      </trkpt>
      <trkpt lat="45.89449" lon="3.07216">
        <ele>384.4</ele>
        <time>1970-01-01T00:14:55.000Z</time>
      </trkpt>
      <trkpt lat="45.89445" lon="3.07215">
        <ele>384.4</ele>
        <time>1970-01-01T00:14:56.000Z</time>
      </trkpt>
      <trkpt lat="45.89441" lon="3.07214">
        <ele>384.3</ele>
        <time>1970-01-01T00:14:57.000Z</time>
      </trkpt>
      <trkpt lat="45.89437" lon="3.07213">
        <ele>384.3</ele>
        <time>1970-01-01T00:14:58.000Z</time>
      </trkpt>
      <trkpt lat="45.89433" lon="3.07212">
        <ele>384.3</ele>
        <time>1970-01-01T00:14:59.000Z</time>
      </trkpt>
      <trkpt lat="45.89428" lon="3.07212">
        <ele>384.3</ele>
        <time>1970-01-01T00:15:00.000Z</time>
      </trkpt>
      <trkpt lat="45.89424" lon="3.07212">
        <ele>384.3</ele>
        <time>1970-01-01T00:15:01.000Z</time>
      </trkpt>
      <trkpt lat="45.89419" lon="3.07212">
        <ele>384.3</ele>
        <time>1970-01-01T00:15:02.000Z</time>
      </trkpt>
      <trkpt lat="45.89416" lon="3.07214">
        <ele>384.3</ele>
        <time>1970-01-01T00:15:03.000Z</time>
      </trkpt>
      <trkpt lat="45.89408" lon="3.07212">
        <ele>384.4</ele>
        <time>1970-01-01T00:15:05.000Z</time>
      </trkpt>
      <trkpt lat="45.89403" lon="3.07211">
        <ele>384.4</ele>
        <time>1970-01-01T00:15:06.000Z</time>
      </trkpt>
      <trkpt lat="45.89399" lon="3.0721">
        <ele>384.4</ele>
        <time>1970-01-01T00:15:07.000Z</time>
      </trkpt>
      <trkpt lat="45.89393" lon="3.0721">
        <ele>384.4</ele>
        <time>1970-01-01T00:15:08.000Z</time>
      </trkpt>
      <trkpt lat="45.89383" lon="3.07212">
        <ele>384.5</ele>
        <time>1970-01-01T00:15:10.000Z</time>
      </trkpt>
      <trkpt lat="45.89379" lon="3.07213">
        <ele>384.5</ele>
        <time>1970-01-01T00:15:12.000Z</time>
      </trkpt>
      <trkpt lat="45.89375" lon="3.07213">
        <ele>384.5</ele>
        <time>1970-01-01T00:15:13.000Z</time>
      </trkpt>
      <trkpt lat="45.89371" lon="3.07213">
        <ele>384.6</ele>
        <time>1970-01-01T00:15:14.000Z</time>
      </trkpt>
      <trkpt lat="45.89367" lon="3.07214">
        <ele>384.6</ele>
        <time>1970-01-01T00:15:15.000Z</time>
      </trkpt>
      <trkpt lat="45.89363" lon="3.07214">
        <ele>384.6</ele>
        <time>1970-01-01T00:15:16.000Z</time>
      </trkpt>
      <trkpt lat="45.8936" lon="3.07214">
        <ele>384.6</ele>
        <time>1970-01-01T00:15:17.000Z</time>
      </trkpt>
      <trkpt lat="45.89357" lon="3.07215">
        <ele>384.7</ele>
        <time>1970-01-01T00:15:18.000Z</time>
      </trkpt>
      <trkpt lat="45.89355" lon="3.07216">
        <ele>384.7</ele>
        <time>1970-01-01T00:15:19.000Z</time>
      </trkpt>
      <trkpt lat="45.89352" lon="3.07217">
        <ele>384.7</ele>
        <time>1970-01-01T00:15:20.000Z</time>
      </trkpt>
      <trkpt lat="45.89349" lon="3.07218">
        <ele>384.7</ele>
        <time>1970-01-01T00:15:21.000Z</time>
      </trkpt>
      <trkpt lat="45.89343" lon="3.0722">
        <ele>384.7</ele>
        <time>1970-01-01T00:15:22.000Z</time>
      </trkpt>
      <trkpt lat="45.89338" lon="3.07221">
        <ele>384.8</ele>
        <time>1970-01-01T00:15:23.000Z</time>
      </trkpt>
      <trkpt lat="45.89334" lon="3.07222">
        <ele>384.8</ele>
        <time>1970-01-01T00:15:25.000Z</time>
      </trkpt>
      <trkpt lat="45.8933" lon="3.07222">
        <ele>384.8</ele>
        <time>1970-01-01T00:15:26.000Z</time>
      </trkpt>
      <trkpt lat="45.89327" lon="3.07222">
        <ele>384.8</ele>
        <time>1970-01-01T00:15:27.000Z</time>
      </trkpt>
      <trkpt lat="45.89323" lon="3.07223">
        <ele>384.8</ele>
        <time>1970-01-01T00:15:28.000Z</time>
      </trkpt>
      <trkpt lat="45.89318" lon="3.07224">
        <ele>384.8</ele>
        <time>1970-01-01T00:15:29.000Z</time>
      </trkpt>
      <trkpt lat="45.89313" lon="3.07226">
        <ele>384.8</ele>
        <time>1970-01-01T00:15:30.000Z</time>
      </trkpt>
      <trkpt lat="45.89309" lon="3.07228">
        <ele>384.8</ele>
        <time>1970-01-01T00:15:31.000Z</time>
      </trkpt>
      <trkpt lat="45.89305" lon="3.07231">
        <ele>384.9</ele>
        <time>1970-01-01T00:15:33.000Z</time>
      </trkpt>
      <trkpt lat="45.89302" lon="3.07232">
        <ele>384.9</ele>
        <time>1970-01-01T00:15:34.000Z</time>
      </trkpt>
      <trkpt lat="45.89293" lon="3.07234">
        <ele>384.9</ele>
        <time>1970-01-01T00:15:36.000Z</time>
      </trkpt>
      <trkpt lat="45.8929" lon="3.07235">
        <ele>384.9</ele>
        <time>1970-01-01T00:15:37.000Z</time>
      </trkpt>
      <trkpt lat="45.89286" lon="3.07237">
        <ele>384.9</ele>
        <time>1970-01-01T00:15:38.000Z</time>
      </trkpt>
      <trkpt lat="45.89283" lon="3.07238">
        <ele>385</ele>
        <time>1970-01-01T00:15:39.000Z</time>
      </trkpt>
      <trkpt lat="45.89279" lon="3.0724">
        <ele>385</ele>
        <time>1970-01-01T00:15:40.000Z</time>
      </trkpt>
      <trkpt lat="45.89275" lon="3.07241">
        <ele>385</ele>
        <time>1970-01-01T00:15:41.000Z</time>
      </trkpt>
      <trkpt lat="45.89271" lon="3.07242">
        <ele>385</ele>
        <time>1970-01-01T00:15:42.000Z</time>
      </trkpt>
      <trkpt lat="45.89267" lon="3.07244">
        <ele>385.1</ele>
        <time>1970-01-01T00:15:43.000Z</time>
      </trkpt>
      <trkpt lat="45.89263" lon="3.07246">
        <ele>385.1</ele>
        <time>1970-01-01T00:15:45.000Z</time>
      </trkpt>
      <trkpt lat="45.8926" lon="3.07248">
        <ele>385.1</ele>
        <time>1970-01-01T00:15:46.000Z</time>
      </trkpt>
      <trkpt lat="45.89255" lon="3.0725">
        <ele>385.1</ele>
        <time>1970-01-01T00:15:47.000Z</time>
      </trkpt>
      <trkpt lat="45.89251" lon="3.07252">
        <ele>385.1</ele>
        <time>1970-01-01T00:15:49.000Z</time>
      </trkpt>
      <trkpt lat="45.89247" lon="3.07253">
        <ele>385.1</ele>
        <time>1970-01-01T00:15:50.000Z</time>
      </trkpt>
      <trkpt lat="45.89241" lon="3.07256">
        <ele>385.1</ele>
        <time>1970-01-01T00:15:51.000Z</time>
      </trkpt>
      <trkpt lat="45.89236" lon="3.07257">
        <ele>385.2</ele>
        <time>1970-01-01T00:15:53.000Z</time>
      </trkpt>
      <trkpt lat="45.89232" lon="3.07259">
        <ele>385.2</ele>
        <time>1970-01-01T00:15:54.000Z</time>
      </trkpt>
      <trkpt lat="45.89229" lon="3.0726">
        <ele>385.3</ele>
        <time>1970-01-01T00:15:55.000Z</time>
      </trkpt>
      <trkpt lat="45.89224" lon="3.07263">
        <ele>385.4</ele>
        <time>1970-01-01T00:15:56.000Z</time>
      </trkpt>
      <trkpt lat="45.89222" lon="3.07265">
        <ele>385.4</ele>
        <time>1970-01-01T00:15:57.000Z</time>
      </trkpt>
      <trkpt lat="45.89217" lon="3.07268">
        <ele>385.5</ele>
        <time>1970-01-01T00:15:59.000Z</time>
      </trkpt>
      <trkpt lat="45.89213" lon="3.07269">
        <ele>385.8</ele>
        <time>1970-01-01T00:16:00.000Z</time>
      </trkpt>
      <trkpt lat="45.89208" lon="3.07266">
        <ele>385.8</ele>
        <time>1970-01-01T00:16:01.000Z</time>
      </trkpt>
      <trkpt lat="45.89207" lon="3.07259">
        <ele>385.9</ele>
        <time>1970-01-01T00:16:03.000Z</time>
      </trkpt>
      <trkpt lat="45.89206" lon="3.07251">
        <ele>386</ele>
        <time>1970-01-01T00:16:04.000Z</time>
      </trkpt>
      <trkpt lat="45.89207" lon="3.07245">
        <ele>386</ele>
        <time>1970-01-01T00:16:05.000Z</time>
      </trkpt>
      <trkpt lat="45.89207" lon="3.07239">
        <ele>386.1</ele>
        <time>1970-01-01T00:16:06.000Z</time>
      </trkpt>
      <trkpt lat="45.89209" lon="3.0723">
        <ele>386.2</ele>
        <time>1970-01-01T00:16:08.000Z</time>
      </trkpt>
      <trkpt lat="45.89209" lon="3.07225">
        <ele>386.2</ele>
        <time>1970-01-01T00:16:09.000Z</time>
      </trkpt>
      <trkpt lat="45.8921" lon="3.07219">
        <ele>386.3</ele>
        <time>1970-01-01T00:16:10.000Z</time>
      </trkpt>
      <trkpt lat="45.89211" lon="3.07212">
        <ele>386.4</ele>
        <time>1970-01-01T00:16:11.000Z</time>
      </trkpt>
      <trkpt lat="45.89211" lon="3.07207">
        <ele>386.5</ele>
        <time>1970-01-01T00:16:12.000Z</time>
      </trkpt>
      <trkpt lat="45.89212" lon="3.07201">
        <ele>386.5</ele>
        <time>1970-01-01T00:16:13.000Z</time>
      </trkpt>
      <trkpt lat="45.89213" lon="3.07197">
        <ele>386.6</ele>
        <time>1970-01-01T00:16:14.000Z</time>
      </trkpt>
      <trkpt lat="45.89214" lon="3.07191">
        <ele>386.7</ele>
        <time>1970-01-01T00:16:16.000Z</time>
      </trkpt>
      <trkpt lat="45.89214" lon="3.07186">
        <ele>386.7</ele>
        <time>1970-01-01T00:16:17.000Z</time>
      </trkpt>
      <trkpt lat="45.89215" lon="3.07182">
        <ele>386.8</ele>
        <time>1970-01-01T00:16:18.000Z</time>
      </trkpt>
      <trkpt lat="45.89216" lon="3.07175">
        <ele>386.8</ele>
        <time>1970-01-01T00:16:19.000Z</time>
      </trkpt>
      <trkpt lat="45.89216" lon="3.0717">
        <ele>386.9</ele>
        <time>1970-01-01T00:16:20.000Z</time>
      </trkpt>
      <trkpt lat="45.89217" lon="3.07164">
        <ele>386.9</ele>
        <time>1970-01-01T00:16:21.000Z</time>
      </trkpt>
      <trkpt lat="45.89218" lon="3.07159">
        <ele>387</ele>
        <time>1970-01-01T00:16:22.000Z</time>
      </trkpt>
      <trkpt lat="45.89218" lon="3.07154">
        <ele>387.1</ele>
        <time>1970-01-01T00:16:24.000Z</time>
      </trkpt>
      <trkpt lat="45.89219" lon="3.07148">
        <ele>387.1</ele>
        <time>1970-01-01T00:16:25.000Z</time>
      </trkpt>
      <trkpt lat="45.8922" lon="3.07142">
        <ele>387.2</ele>
        <time>1970-01-01T00:16:26.000Z</time>
      </trkpt>
      <trkpt lat="45.89221" lon="3.07137">
        <ele>387.2</ele>
        <time>1970-01-01T00:16:27.000Z</time>
      </trkpt>
      <trkpt lat="45.89222" lon="3.07131">
        <ele>387.3</ele>
        <time>1970-01-01T00:16:28.000Z</time>
      </trkpt>
      <trkpt lat="45.89222" lon="3.07125">
        <ele>387.4</ele>
        <time>1970-01-01T00:16:29.000Z</time>
      </trkpt>
      <trkpt lat="45.89223" lon="3.07119">
        <ele>387.5</ele>
        <time>1970-01-01T00:16:31.000Z</time>
      </trkpt>
      <trkpt lat="45.89223" lon="3.07114">
        <ele>387.5</ele>
        <time>1970-01-01T00:16:32.000Z</time>
      </trkpt>
      <trkpt lat="45.89225" lon="3.07104">
        <ele>387.7</ele>
        <time>1970-01-01T00:16:34.000Z</time>
      </trkpt>
      <trkpt lat="45.89225" lon="3.07099">
        <ele>387.8</ele>
        <time>1970-01-01T00:16:35.000Z</time>
      </trkpt>
      <trkpt lat="45.89225" lon="3.07092">
        <ele>387.8</ele>
        <time>1970-01-01T00:16:36.000Z</time>
      </trkpt>
      <trkpt lat="45.89226" lon="3.07086">
        <ele>387.9</ele>
        <time>1970-01-01T00:16:37.000Z</time>
      </trkpt>
      <trkpt lat="45.89227" lon="3.07081">
        <ele>387.9</ele>
        <time>1970-01-01T00:16:39.000Z</time>
      </trkpt>
      <trkpt lat="45.89228" lon="3.07076">
        <ele>388</ele>
        <time>1970-01-01T00:16:40.000Z</time>
      </trkpt>
      <trkpt lat="45.89228" lon="3.07071">
        <ele>388.1</ele>
        <time>1970-01-01T00:16:41.000Z</time>
      </trkpt>
      <trkpt lat="45.89229" lon="3.07066">
        <ele>388.1</ele>
        <time>1970-01-01T00:16:42.000Z</time>
      </trkpt>
      <trkpt lat="45.89229" lon="3.07061">
        <ele>388.2</ele>
        <time>1970-01-01T00:16:43.000Z</time>
      </trkpt>
      <trkpt lat="45.8923" lon="3.07053">
        <ele>388.3</ele>
        <time>1970-01-01T00:16:44.000Z</time>
      </trkpt>
      <trkpt lat="45.8923" lon="3.07048">
        <ele>388.3</ele>
        <time>1970-01-01T00:16:45.000Z</time>
      </trkpt>
      <trkpt lat="45.89231" lon="3.07042">
        <ele>388.4</ele>
        <time>1970-01-01T00:16:47.000Z</time>
      </trkpt>
      <trkpt lat="45.89232" lon="3.07033">
        <ele>388.5</ele>
        <time>1970-01-01T00:16:48.000Z</time>
      </trkpt>
      <trkpt lat="45.89232" lon="3.07027">
        <ele>388.6</ele>
        <time>1970-01-01T00:16:49.000Z</time>
      </trkpt>
      <trkpt lat="45.89233" lon="3.07021">
        <ele>388.7</ele>
        <time>1970-01-01T00:16:51.000Z</time>
      </trkpt>
      <trkpt lat="45.89234" lon="3.07016">
        <ele>388.8</ele>
        <time>1970-01-01T00:16:52.000Z</time>
      </trkpt>
      <trkpt lat="45.89235" lon="3.07008">
        <ele>388.9</ele>
        <time>1970-01-01T00:16:53.000Z</time>
      </trkpt>
      <trkpt lat="45.89236" lon="3.07001">
        <ele>389</ele>
        <time>1970-01-01T00:16:55.000Z</time>
      </trkpt>
      <trkpt lat="45.89236" lon="3.06991">
        <ele>389.1</ele>
        <time>1970-01-01T00:16:57.000Z</time>
      </trkpt>
      <trkpt lat="45.89237" lon="3.06987">
        <ele>389.2</ele>
        <time>1970-01-01T00:16:58.000Z</time>
      </trkpt>
      <trkpt lat="45.89238" lon="3.06982">
        <ele>389.2</ele>
        <time>1970-01-01T00:16:59.000Z</time>
      </trkpt>
      <trkpt lat="45.89239" lon="3.06977">
        <ele>389.3</ele>
        <time>1970-01-01T00:17:00.000Z</time>
      </trkpt>
      <trkpt lat="45.89239" lon="3.06973">
        <ele>389.3</ele>
        <time>1970-01-01T00:17:01.000Z</time>
      </trkpt>
      <trkpt lat="45.8924" lon="3.06969">
        <ele>389.4</ele>
        <time>1970-01-01T00:17:02.000Z</time>
      </trkpt>
      <trkpt lat="45.8924" lon="3.06964">
        <ele>389.5</ele>
        <time>1970-01-01T00:17:03.000Z</time>
      </trkpt>
      <trkpt lat="45.89241" lon="3.06959">
        <ele>389.5</ele>
        <time>1970-01-01T00:17:04.000Z</time>
      </trkpt>
      <trkpt lat="45.89242" lon="3.06952">
        <ele>389.6</ele>
        <time>1970-01-01T00:17:05.000Z</time>
      </trkpt>
      <trkpt lat="45.89243" lon="3.06945">
        <ele>389.7</ele>
        <time>1970-01-01T00:17:07.000Z</time>
      </trkpt>
      <trkpt lat="45.89244" lon="3.06939">
        <ele>389.7</ele>
        <time>1970-01-01T00:17:08.000Z</time>
      </trkpt>
      <trkpt lat="45.89244" lon="3.06935">
        <ele>389.8</ele>
        <time>1970-01-01T00:17:09.000Z</time>
      </trkpt>
      <trkpt lat="45.89244" lon="3.06925">
        <ele>389.9</ele>
        <time>1970-01-01T00:17:11.000Z</time>
      </trkpt>
      <trkpt lat="45.89246" lon="3.06914">
        <ele>390</ele>
        <time>1970-01-01T00:17:13.000Z</time>
      </trkpt>
      <trkpt lat="45.89247" lon="3.06909">
        <ele>390</ele>
        <time>1970-01-01T00:17:14.000Z</time>
      </trkpt>
      <trkpt lat="45.89247" lon="3.06905">
        <ele>390.1</ele>
        <time>1970-01-01T00:17:15.000Z</time>
      </trkpt>
      <trkpt lat="45.89248" lon="3.069">
        <ele>390.2</ele>
        <time>1970-01-01T00:17:16.000Z</time>
      </trkpt>
      <trkpt lat="45.89248" lon="3.06895">
        <ele>390.2</ele>
        <time>1970-01-01T00:17:17.000Z</time>
      </trkpt>
      <trkpt lat="45.89249" lon="3.06889">
        <ele>390.3</ele>
        <time>1970-01-01T00:17:18.000Z</time>
      </trkpt>
      <trkpt lat="45.89249" lon="3.06882">
        <ele>390.3</ele>
        <time>1970-01-01T00:17:19.000Z</time>
      </trkpt>
      <trkpt lat="45.89251" lon="3.06876">
        <ele>390.4</ele>
        <time>1970-01-01T00:17:21.000Z</time>
      </trkpt>
      <trkpt lat="45.89252" lon="3.0687">
        <ele>390.5</ele>
        <time>1970-01-01T00:17:22.000Z</time>
      </trkpt>
      <trkpt lat="45.89253" lon="3.06864">
        <ele>390.5</ele>
        <time>1970-01-01T00:17:23.000Z</time>
      </trkpt>
      <trkpt lat="45.89253" lon="3.06858">
        <ele>390.6</ele>
        <time>1970-01-01T00:17:25.000Z</time>
      </trkpt>
      <trkpt lat="45.89254" lon="3.0685">
        <ele>390.7</ele>
        <time>1970-01-01T00:17:26.000Z</time>
      </trkpt>
      <trkpt lat="45.89255" lon="3.06844">
        <ele>390.8</ele>
        <time>1970-01-01T00:17:28.000Z</time>
      </trkpt>
      <trkpt lat="45.89255" lon="3.06838">
        <ele>390.9</ele>
        <time>1970-01-01T00:17:29.000Z</time>
      </trkpt>
      <trkpt lat="45.89256" lon="3.06831">
        <ele>391</ele>
        <time>1970-01-01T00:17:30.000Z</time>
      </trkpt>
      <trkpt lat="45.89257" lon="3.06824">
        <ele>391.1</ele>
        <time>1970-01-01T00:17:31.000Z</time>
      </trkpt>
      <trkpt lat="45.89257" lon="3.06819">
        <ele>391.1</ele>
        <time>1970-01-01T00:17:33.000Z</time>
      </trkpt>
      <trkpt lat="45.89257" lon="3.06813">
        <ele>391.2</ele>
        <time>1970-01-01T00:17:34.000Z</time>
      </trkpt>
      <trkpt lat="45.89258" lon="3.06809">
        <ele>391.2</ele>
        <time>1970-01-01T00:17:35.000Z</time>
      </trkpt>
      <trkpt lat="45.89259" lon="3.06804">
        <ele>391.3</ele>
        <time>1970-01-01T00:17:36.000Z</time>
      </trkpt>
      <trkpt lat="45.89259" lon="3.06799">
        <ele>391.3</ele>
        <time>1970-01-01T00:17:37.000Z</time>
      </trkpt>
      <trkpt lat="45.8926" lon="3.06793">
        <ele>391.4</ele>
        <time>1970-01-01T00:17:38.000Z</time>
      </trkpt>
      <trkpt lat="45.89261" lon="3.06786">
        <ele>391.5</ele>
        <time>1970-01-01T00:17:39.000Z</time>
      </trkpt>
      <trkpt lat="45.89262" lon="3.06777">
        <ele>391.6</ele>
        <time>1970-01-01T00:17:41.000Z</time>
      </trkpt>
      <trkpt lat="45.89262" lon="3.06771">
        <ele>391.7</ele>
        <time>1970-01-01T00:17:42.000Z</time>
      </trkpt>
      <trkpt lat="45.89263" lon="3.06763">
        <ele>391.8</ele>
        <time>1970-01-01T00:17:43.000Z</time>
      </trkpt>
      <trkpt lat="45.89264" lon="3.06757">
        <ele>391.9</ele>
        <time>1970-01-01T00:17:44.000Z</time>
      </trkpt>
      <trkpt lat="45.89265" lon="3.06749">
        <ele>392</ele>
        <time>1970-01-01T00:17:46.000Z</time>
      </trkpt>
      <trkpt lat="45.89266" lon="3.06739">
        <ele>392.1</ele>
        <time>1970-01-01T00:17:48.000Z</time>
      </trkpt>
      <trkpt lat="45.89267" lon="3.06733">
        <ele>392.1</ele>
        <time>1970-01-01T00:17:49.000Z</time>
      </trkpt>
      <trkpt lat="45.89267" lon="3.06728">
        <ele>392.2</ele>
        <time>1970-01-01T00:17:50.000Z</time>
      </trkpt>
      <trkpt lat="45.89267" lon="3.06723">
        <ele>392.3</ele>
        <time>1970-01-01T00:17:51.000Z</time>
      </trkpt>
      <trkpt lat="45.89268" lon="3.06718">
        <ele>392.3</ele>
        <time>1970-01-01T00:17:52.000Z</time>
      </trkpt>
      <trkpt lat="45.89268" lon="3.06713">
        <ele>392.4</ele>
        <time>1970-01-01T00:17:53.000Z</time>
      </trkpt>
      <trkpt lat="45.89269" lon="3.06707">
        <ele>392.4</ele>
        <time>1970-01-01T00:17:54.000Z</time>
      </trkpt>
      <trkpt lat="45.8927" lon="3.06699">
        <ele>392.5</ele>
        <time>1970-01-01T00:17:55.000Z</time>
      </trkpt>
      <trkpt lat="45.8927" lon="3.06694">
        <ele>392.6</ele>
        <time>1970-01-01T00:17:56.000Z</time>
      </trkpt>
      <trkpt lat="45.89271" lon="3.06688">
        <ele>392.6</ele>
        <time>1970-01-01T00:17:57.000Z</time>
      </trkpt>
      <trkpt lat="45.89272" lon="3.06682">
        <ele>392.7</ele>
        <time>1970-01-01T00:17:59.000Z</time>
      </trkpt>
      <trkpt lat="45.89272" lon="3.06677">
        <ele>392.8</ele>
        <time>1970-01-01T00:18:00.000Z</time>
      </trkpt>
      <trkpt lat="45.89274" lon="3.06671">
        <ele>392.9</ele>
        <time>1970-01-01T00:18:01.000Z</time>
      </trkpt>
      <trkpt lat="45.89274" lon="3.06666">
        <ele>392.9</ele>
        <time>1970-01-01T00:18:02.000Z</time>
      </trkpt>
      <trkpt lat="45.89274" lon="3.0666">
        <ele>393</ele>
        <time>1970-01-01T00:18:03.000Z</time>
      </trkpt>
      <trkpt lat="45.89275" lon="3.06655">
        <ele>393.1</ele>
        <time>1970-01-01T00:18:04.000Z</time>
      </trkpt>
      <trkpt lat="45.89275" lon="3.0665">
        <ele>393.2</ele>
        <time>1970-01-01T00:18:05.000Z</time>
      </trkpt>
      <trkpt lat="45.89276" lon="3.06642">
        <ele>393.3</ele>
        <time>1970-01-01T00:18:06.000Z</time>
      </trkpt>
      <trkpt lat="45.89278" lon="3.06634">
        <ele>393.4</ele>
        <time>1970-01-01T00:18:08.000Z</time>
      </trkpt>
      <trkpt lat="45.89278" lon="3.06628">
        <ele>393.5</ele>
        <time>1970-01-01T00:18:09.000Z</time>
      </trkpt>
      <trkpt lat="45.89278" lon="3.06621">
        <ele>393.5</ele>
        <time>1970-01-01T00:18:10.000Z</time>
      </trkpt>
      <trkpt lat="45.89279" lon="3.06616">
        <ele>393.6</ele>
        <time>1970-01-01T00:18:11.000Z</time>
      </trkpt>
      <trkpt lat="45.8928" lon="3.06611">
        <ele>393.7</ele>
        <time>1970-01-01T00:18:12.000Z</time>
      </trkpt>
      <trkpt lat="45.8928" lon="3.06606">
        <ele>393.7</ele>
        <time>1970-01-01T00:18:13.000Z</time>
      </trkpt>
      <trkpt lat="45.89281" lon="3.06599">
        <ele>393.8</ele>
        <time>1970-01-01T00:18:15.000Z</time>
      </trkpt>
      <trkpt lat="45.89282" lon="3.06593">
        <ele>393.8</ele>
        <time>1970-01-01T00:18:16.000Z</time>
      </trkpt>
      <trkpt lat="45.89282" lon="3.06588">
        <ele>393.9</ele>
        <time>1970-01-01T00:18:17.000Z</time>
      </trkpt>
      <trkpt lat="45.89283" lon="3.06581">
        <ele>394</ele>
        <time>1970-01-01T00:18:18.000Z</time>
      </trkpt>
      <trkpt lat="45.89284" lon="3.06575">
        <ele>394</ele>
        <time>1970-01-01T00:18:19.000Z</time>
      </trkpt>
      <trkpt lat="45.89284" lon="3.06569">
        <ele>394.1</ele>
        <time>1970-01-01T00:18:20.000Z</time>
      </trkpt>
      <trkpt lat="45.89285" lon="3.06563">
        <ele>394.2</ele>
        <time>1970-01-01T00:18:22.000Z</time>
      </trkpt>
      <trkpt lat="45.89286" lon="3.06558">
        <ele>394.2</ele>
        <time>1970-01-01T00:18:23.000Z</time>
      </trkpt>
      <trkpt lat="45.89286" lon="3.06552">
        <ele>394.3</ele>
        <time>1970-01-01T00:18:24.000Z</time>
      </trkpt>
      <trkpt lat="45.89287" lon="3.06546">
        <ele>394.3</ele>
        <time>1970-01-01T00:18:25.000Z</time>
      </trkpt>
      <trkpt lat="45.89288" lon="3.06538">
        <ele>394.4</ele>
        <time>1970-01-01T00:18:26.000Z</time>
      </trkpt>
      <trkpt lat="45.89288" lon="3.06531">
        <ele>394.5</ele>
        <time>1970-01-01T00:18:27.000Z</time>
      </trkpt>
      <trkpt lat="45.89289" lon="3.06526">
        <ele>394.6</ele>
        <time>1970-01-01T00:18:29.000Z</time>
      </trkpt>
      <trkpt lat="45.8929" lon="3.0652">
        <ele>394.6</ele>
        <time>1970-01-01T00:18:30.000Z</time>
      </trkpt>
      <trkpt lat="45.89291" lon="3.06512">
        <ele>394.7</ele>
        <time>1970-01-01T00:18:31.000Z</time>
      </trkpt>
      <trkpt lat="45.89291" lon="3.06506">
        <ele>394.8</ele>
        <time>1970-01-01T00:18:33.000Z</time>
      </trkpt>
      <trkpt lat="45.89293" lon="3.06498">
        <ele>394.9</ele>
        <time>1970-01-01T00:18:34.000Z</time>
      </trkpt>
      <trkpt lat="45.89293" lon="3.06493">
        <ele>394.9</ele>
        <time>1970-01-01T00:18:35.000Z</time>
      </trkpt>
      <trkpt lat="45.89294" lon="3.06486">
        <ele>395</ele>
        <time>1970-01-01T00:18:36.000Z</time>
      </trkpt>
      <trkpt lat="45.89295" lon="3.06481">
        <ele>395.1</ele>
        <time>1970-01-01T00:18:38.000Z</time>
      </trkpt>
      <trkpt lat="45.89295" lon="3.06473">
        <ele>395.1</ele>
        <time>1970-01-01T00:18:39.000Z</time>
      </trkpt>
      <trkpt lat="45.89297" lon="3.06467">
        <ele>395.2</ele>
        <time>1970-01-01T00:18:40.000Z</time>
      </trkpt>
      <trkpt lat="45.89298" lon="3.06461">
        <ele>395.3</ele>
        <time>1970-01-01T00:18:42.000Z</time>
      </trkpt>
      <trkpt lat="45.89298" lon="3.06456">
        <ele>395.3</ele>
        <time>1970-01-01T00:18:43.000Z</time>
      </trkpt>
      <trkpt lat="45.89298" lon="3.06451">
        <ele>395.4</ele>
        <time>1970-01-01T00:18:44.000Z</time>
      </trkpt>
      <trkpt lat="45.89299" lon="3.06445">
        <ele>395.5</ele>
        <time>1970-01-01T00:18:45.000Z</time>
      </trkpt>
      <trkpt lat="45.89299" lon="3.0644">
        <ele>395.5</ele>
        <time>1970-01-01T00:18:46.000Z</time>
      </trkpt>
      <trkpt lat="45.893" lon="3.06434">
        <ele>395.6</ele>
        <time>1970-01-01T00:18:47.000Z</time>
      </trkpt>
      <trkpt lat="45.893" lon="3.06427">
        <ele>395.7</ele>
        <time>1970-01-01T00:18:48.000Z</time>
      </trkpt>
      <trkpt lat="45.89299" lon="3.0642">
        <ele>395.8</ele>
        <time>1970-01-01T00:18:50.000Z</time>
      </trkpt>
      <trkpt lat="45.89299" lon="3.06415">
        <ele>395.8</ele>
        <time>1970-01-01T00:18:51.000Z</time>
      </trkpt>
      <trkpt lat="45.89298" lon="3.0641">
        <ele>395.9</ele>
        <time>1970-01-01T00:18:52.000Z</time>
      </trkpt>
      <trkpt lat="45.89297" lon="3.06405">
        <ele>396</ele>
        <time>1970-01-01T00:18:53.000Z</time>
      </trkpt>
      <trkpt lat="45.89295" lon="3.064">
        <ele>396.1</ele>
        <time>1970-01-01T00:18:54.000Z</time>
      </trkpt>
      <trkpt lat="45.89294" lon="3.06395">
        <ele>396.2</ele>
        <time>1970-01-01T00:18:55.000Z</time>
      </trkpt>
      <trkpt lat="45.89293" lon="3.06389">
        <ele>396.3</ele>
        <time>1970-01-01T00:18:56.000Z</time>
      </trkpt>
      <trkpt lat="45.89291" lon="3.06384">
        <ele>396.4</ele>
        <time>1970-01-01T00:18:57.000Z</time>
      </trkpt>
      <trkpt lat="45.89289" lon="3.06378">
        <ele>396.6</ele>
        <time>1970-01-01T00:18:59.000Z</time>
      </trkpt>
      <trkpt lat="45.89288" lon="3.06372">
        <ele>396.7</ele>
        <time>1970-01-01T00:19:00.000Z</time>
      </trkpt>
      <trkpt lat="45.89286" lon="3.06367">
        <ele>396.8</ele>
        <time>1970-01-01T00:19:01.000Z</time>
      </trkpt>
      <trkpt lat="45.89284" lon="3.06362">
        <ele>396.9</ele>
        <time>1970-01-01T00:19:02.000Z</time>
      </trkpt>
      <trkpt lat="45.89283" lon="3.06357">
        <ele>397</ele>
        <time>1970-01-01T00:19:03.000Z</time>
      </trkpt>
      <trkpt lat="45.8928" lon="3.06351">
        <ele>397.2</ele>
        <time>1970-01-01T00:19:05.000Z</time>
      </trkpt>
      <trkpt lat="45.89279" lon="3.06347">
        <ele>397.3</ele>
        <time>1970-01-01T00:19:06.000Z</time>
      </trkpt>
      <trkpt lat="45.89278" lon="3.06343">
        <ele>397.4</ele>
        <time>1970-01-01T00:19:07.000Z</time>
      </trkpt>
      <trkpt lat="45.89276" lon="3.06339">
        <ele>397.5</ele>
        <time>1970-01-01T00:19:08.000Z</time>
      </trkpt>
      <trkpt lat="45.89275" lon="3.06334">
        <ele>397.7</ele>
        <time>1970-01-01T00:19:09.000Z</time>
      </trkpt>
      <trkpt lat="45.89273" lon="3.0633">
        <ele>397.8</ele>
        <time>1970-01-01T00:19:10.000Z</time>
      </trkpt>
      <trkpt lat="45.89272" lon="3.06324">
        <ele>398</ele>
        <time>1970-01-01T00:19:11.000Z</time>
      </trkpt>
      <trkpt lat="45.8927" lon="3.06317">
        <ele>398.2</ele>
        <time>1970-01-01T00:19:13.000Z</time>
      </trkpt>
      <trkpt lat="45.89268" lon="3.06313">
        <ele>398.3</ele>
        <time>1970-01-01T00:19:14.000Z</time>
      </trkpt>
      <trkpt lat="45.89267" lon="3.06307">
        <ele>398.4</ele>
        <time>1970-01-01T00:19:15.000Z</time>
      </trkpt>
      <trkpt lat="45.89266" lon="3.06304">
        <ele>398.5</ele>
        <time>1970-01-01T00:19:16.000Z</time>
      </trkpt>
      <trkpt lat="45.89265" lon="3.06297">
        <ele>398.7</ele>
        <time>1970-01-01T00:19:18.000Z</time>
      </trkpt>
      <trkpt lat="45.89265" lon="3.06293">
        <ele>398.8</ele>
        <time>1970-01-01T00:19:19.000Z</time>
      </trkpt>
      <trkpt lat="45.89268" lon="3.0629">
        <ele>398.8</ele>
        <time>1970-01-01T00:19:20.000Z</time>
      </trkpt>
      <trkpt lat="45.8927" lon="3.06287">
        <ele>398.8</ele>
        <time>1970-01-01T00:19:21.000Z</time>
      </trkpt>
      <trkpt lat="45.89275" lon="3.06285">
        <ele>398.8</ele>
        <time>1970-01-01T00:19:22.000Z</time>
      </trkpt>
      <trkpt lat="45.89281" lon="3.06283">
        <ele>398.8</ele>
        <time>1970-01-01T00:19:24.000Z</time>
      </trkpt>
      <trkpt lat="45.89284" lon="3.06282">
        <ele>398.8</ele>
        <time>1970-01-01T00:19:25.000Z</time>
      </trkpt>
      <trkpt lat="45.89288" lon="3.0628">
        <ele>398.8</ele>
        <time>1970-01-01T00:19:26.000Z</time>
      </trkpt>
      <trkpt lat="45.89292" lon="3.06278">
        <ele>398.8</ele>
        <time>1970-01-01T00:19:27.000Z</time>
      </trkpt>
      <trkpt lat="45.89296" lon="3.06277">
        <ele>398.7</ele>
        <time>1970-01-01T00:19:28.000Z</time>
      </trkpt>
      <trkpt lat="45.89301" lon="3.06274">
        <ele>398.7</ele>
        <time>1970-01-01T00:19:30.000Z</time>
      </trkpt>
      <trkpt lat="45.89304" lon="3.06272">
        <ele>398.6</ele>
        <time>1970-01-01T00:19:31.000Z</time>
      </trkpt>
      <trkpt lat="45.89308" lon="3.0627">
        <ele>398.6</ele>
        <time>1970-01-01T00:19:32.000Z</time>
      </trkpt>
      <trkpt lat="45.89313" lon="3.06266">
        <ele>398.5</ele>
        <time>1970-01-01T00:19:34.000Z</time>
      </trkpt>
      <trkpt lat="45.89317" lon="3.06264">
        <ele>398.5</ele>
        <time>1970-01-01T00:19:35.000Z</time>
      </trkpt>
      <trkpt lat="45.8932" lon="3.06262">
        <ele>398.5</ele>
        <time>1970-01-01T00:19:36.000Z</time>
      </trkpt>
      <trkpt lat="45.89323" lon="3.06261">
        <ele>398.4</ele>
        <time>1970-01-01T00:19:37.000Z</time>
      </trkpt>
      <trkpt lat="45.89327" lon="3.06259">
        <ele>398.4</ele>
        <time>1970-01-01T00:19:38.000Z</time>
      </trkpt>
      <trkpt lat="45.8933" lon="3.06257">
        <ele>398.4</ele>
        <time>1970-01-01T00:19:39.000Z</time>
      </trkpt>
      <trkpt lat="45.89337" lon="3.06252">
        <ele>398.3</ele>
        <time>1970-01-01T00:19:41.000Z</time>
      </trkpt>
      <trkpt lat="45.89341" lon="3.0625">
        <ele>398.3</ele>
        <time>1970-01-01T00:19:42.000Z</time>
      </trkpt>
      <trkpt lat="45.89345" lon="3.06247">
        <ele>398.2</ele>
        <time>1970-01-01T00:19:43.000Z</time>
      </trkpt>
      <trkpt lat="45.89349" lon="3.06245">
        <ele>398.2</ele>
        <time>1970-01-01T00:19:44.000Z</time>
      </trkpt>
      <trkpt lat="45.89353" lon="3.06243">
        <ele>398.1</ele>
        <time>1970-01-01T00:19:45.000Z</time>
      </trkpt>
      <trkpt lat="45.89357" lon="3.06241">
        <ele>398.1</ele>
        <time>1970-01-01T00:19:46.000Z</time>
      </trkpt>
      <trkpt lat="45.8936" lon="3.06239">
        <ele>398.1</ele>
        <time>1970-01-01T00:19:47.000Z</time>
      </trkpt>
      <trkpt lat="45.89366" lon="3.06235">
        <ele>398</ele>
        <time>1970-01-01T00:19:48.000Z</time>
      </trkpt>
      <trkpt lat="45.89371" lon="3.06232">
        <ele>398</ele>
        <time>1970-01-01T00:19:49.000Z</time>
      </trkpt>
      <trkpt lat="45.89375" lon="3.06229">
        <ele>397.9</ele>
        <time>1970-01-01T00:19:51.000Z</time>
      </trkpt>
      <trkpt lat="45.89379" lon="3.06227">
        <ele>397.8</ele>
        <time>1970-01-01T00:19:52.000Z</time>
      </trkpt>
      <trkpt lat="45.89383" lon="3.06224">
        <ele>397.8</ele>
        <time>1970-01-01T00:19:53.000Z</time>
      </trkpt>
      <trkpt lat="45.89388" lon="3.06221">
        <ele>397.7</ele>
        <time>1970-01-01T00:19:54.000Z</time>
      </trkpt>
      <trkpt lat="45.89391" lon="3.06219">
        <ele>397.6</ele>
        <time>1970-01-01T00:19:55.000Z</time>
      </trkpt>
      <trkpt lat="45.89397" lon="3.06216">
        <ele>397.5</ele>
        <time>1970-01-01T00:19:56.000Z</time>
      </trkpt>
      <trkpt lat="45.894" lon="3.06214">
        <ele>397.4</ele>
        <time>1970-01-01T00:19:58.000Z</time>
      </trkpt>
      <trkpt lat="45.89406" lon="3.0621">
        <ele>397.3</ele>
        <time>1970-01-01T00:19:59.000Z</time>
      </trkpt>
      <trkpt lat="45.8941" lon="3.06208">
        <ele>397.2</ele>
        <time>1970-01-01T00:20:00.000Z</time>
      </trkpt>
      <trkpt lat="45.89414" lon="3.06205">
        <ele>397.1</ele>
        <time>1970-01-01T00:20:01.000Z</time>
      </trkpt>
      <trkpt lat="45.89418" lon="3.06203">
        <ele>397</ele>
        <time>1970-01-01T00:20:02.000Z</time>
      </trkpt>
      <trkpt lat="45.89423" lon="3.06201">
        <ele>396.9</ele>
        <time>1970-01-01T00:20:04.000Z</time>
      </trkpt>
      <trkpt lat="45.89427" lon="3.06199">
        <ele>396.9</ele>
        <time>1970-01-01T00:20:05.000Z</time>
      </trkpt>
      <trkpt lat="45.8943" lon="3.06198">
        <ele>396.9</ele>
        <time>1970-01-01T00:20:06.000Z</time>
      </trkpt>
      <trkpt lat="45.89435" lon="3.06198">
        <ele>396.9</ele>
        <time>1970-01-01T00:20:07.000Z</time>
      </trkpt>
      <trkpt lat="45.89441" lon="3.06196">
        <ele>396.9</ele>
        <time>1970-01-01T00:20:09.000Z</time>
      </trkpt>
      <trkpt lat="45.89445" lon="3.06195">
        <ele>396.9</ele>
        <time>1970-01-01T00:20:10.000Z</time>
      </trkpt>
      <trkpt lat="45.89449" lon="3.06195">
        <ele>396.9</ele>
        <time>1970-01-01T00:20:11.000Z</time>
      </trkpt>
      <trkpt lat="45.89452" lon="3.06195">
        <ele>397</ele>
        <time>1970-01-01T00:20:12.000Z</time>
      </trkpt>
      <trkpt lat="45.89455" lon="3.06195">
        <ele>397</ele>
        <time>1970-01-01T00:20:13.000Z</time>
      </trkpt>
      <trkpt lat="45.89457" lon="3.06193">
        <ele>397</ele>
        <time>1970-01-01T00:20:15.000Z</time>
      </trkpt>
      <trkpt lat="45.89456" lon="3.06188">
        <ele>397</ele>
        <time>1970-01-01T00:20:16.000Z</time>
      </trkpt>
      <trkpt lat="45.89456" lon="3.06185">
        <ele>397</ele>
        <time>1970-01-01T00:20:17.000Z</time>
      </trkpt>
      <trkpt lat="45.89454" lon="3.06182">
        <ele>397</ele>
        <time>1970-01-01T00:20:18.000Z</time>
      </trkpt>
      <trkpt lat="45.89452" lon="3.06177">
        <ele>397.1</ele>
        <time>1970-01-01T00:20:19.000Z</time>
      </trkpt>
      <trkpt lat="45.89452" lon="3.06168">
        <ele>397.1</ele>
        <time>1970-01-01T00:20:20.000Z</time>
      </trkpt>
      <trkpt lat="45.89453" lon="3.0616">
        <ele>397.2</ele>
        <time>1970-01-01T00:20:22.000Z</time>
      </trkpt>
      <trkpt lat="45.89452" lon="3.06152">
        <ele>397.3</ele>
        <time>1970-01-01T00:20:23.000Z</time>
      </trkpt>
      <trkpt lat="45.89451" lon="3.06147">
        <ele>397.4</ele>
        <time>1970-01-01T00:20:25.000Z</time>
      </trkpt>
      <trkpt lat="45.89451" lon="3.06142">
        <ele>397.4</ele>
        <time>1970-01-01T00:20:26.000Z</time>
      </trkpt>
      <trkpt lat="45.8945" lon="3.06138">
        <ele>397.5</ele>
        <time>1970-01-01T00:20:27.000Z</time>
      </trkpt>
      <trkpt lat="45.8945" lon="3.06133">
        <ele>397.5</ele>
        <time>1970-01-01T00:20:28.000Z</time>
      </trkpt>
      <trkpt lat="45.8945" lon="3.06129">
        <ele>397.6</ele>
        <time>1970-01-01T00:20:29.000Z</time>
      </trkpt>
      <trkpt lat="45.89449" lon="3.06122">
        <ele>397.7</ele>
        <time>1970-01-01T00:20:30.000Z</time>
      </trkpt>
      <trkpt lat="45.89448" lon="3.06118">
        <ele>397.7</ele>
        <time>1970-01-01T00:20:31.000Z</time>
      </trkpt>
      <trkpt lat="45.89447" lon="3.06113">
        <ele>397.8</ele>
        <time>1970-01-01T00:20:33.000Z</time>
      </trkpt>
      <trkpt lat="45.89447" lon="3.06105">
        <ele>397.8</ele>
        <time>1970-01-01T00:20:34.000Z</time>
      </trkpt>
      <trkpt lat="45.89447" lon="3.06098">
        <ele>397.9</ele>
        <time>1970-01-01T00:20:36.000Z</time>
      </trkpt>
      <trkpt lat="45.89447" lon="3.06094">
        <ele>397.9</ele>
        <time>1970-01-01T00:20:37.000Z</time>
      </trkpt>
      <trkpt lat="45.89448" lon="3.0609">
        <ele>397.9</ele>
        <time>1970-01-01T00:20:38.000Z</time>
      </trkpt>
      <trkpt lat="45.89449" lon="3.06085">
        <ele>397.9</ele>
        <time>1970-01-01T00:20:39.000Z</time>
      </trkpt>
      <trkpt lat="45.89449" lon="3.0608">
        <ele>398</ele>
        <time>1970-01-01T00:20:40.000Z</time>
      </trkpt>
      <trkpt lat="45.8945" lon="3.06073">
        <ele>398</ele>
        <time>1970-01-01T00:20:41.000Z</time>
      </trkpt>
      <trkpt lat="45.89451" lon="3.06067">
        <ele>398.1</ele>
        <time>1970-01-01T00:20:42.000Z</time>
      </trkpt>
      <trkpt lat="45.89452" lon="3.06062">
        <ele>398.2</ele>
        <time>1970-01-01T00:20:43.000Z</time>
      </trkpt>
      <trkpt lat="45.89453" lon="3.06056">
        <ele>398.3</ele>
        <time>1970-01-01T00:20:44.000Z</time>
      </trkpt>
      <trkpt lat="45.89454" lon="3.06051">
        <ele>398.4</ele>
        <time>1970-01-01T00:20:46.000Z</time>
      </trkpt>
      <trkpt lat="45.89455" lon="3.06045">
        <ele>398.5</ele>
        <time>1970-01-01T00:20:47.000Z</time>
      </trkpt>
      <trkpt lat="45.89456" lon="3.06041">
        <ele>398.5</ele>
        <time>1970-01-01T00:20:48.000Z</time>
      </trkpt>
      <trkpt lat="45.89456" lon="3.06036">
        <ele>398.6</ele>
        <time>1970-01-01T00:20:49.000Z</time>
      </trkpt>
      <trkpt lat="45.89458" lon="3.0603">
        <ele>398.7</ele>
        <time>1970-01-01T00:20:50.000Z</time>
      </trkpt>
      <trkpt lat="45.89459" lon="3.06025">
        <ele>398.8</ele>
        <time>1970-01-01T00:20:51.000Z</time>
      </trkpt>
      <trkpt lat="45.89461" lon="3.0602">
        <ele>398.9</ele>
        <time>1970-01-01T00:20:52.000Z</time>
      </trkpt>
      <trkpt lat="45.89462" lon="3.06015">
        <ele>399.1</ele>
        <time>1970-01-01T00:20:53.000Z</time>
      </trkpt>
      <trkpt lat="45.89464" lon="3.0601">
        <ele>399.2</ele>
        <time>1970-01-01T00:20:55.000Z</time>
      </trkpt>
      <trkpt lat="45.89467" lon="3.06006">
        <ele>399.3</ele>
        <time>1970-01-01T00:20:56.000Z</time>
      </trkpt>
      <trkpt lat="45.89468" lon="3.06004">
        <ele>399.4</ele>
        <time>1970-01-01T00:20:57.000Z</time>
      </trkpt>
      <trkpt lat="45.8947" lon="3.05999">
        <ele>399.5</ele>
        <time>1970-01-01T00:20:58.000Z</time>
      </trkpt>
      <trkpt lat="45.89472" lon="3.05995">
        <ele>399.6</ele>
        <time>1970-01-01T00:20:59.000Z</time>
      </trkpt>
      <trkpt lat="45.89473" lon="3.0599">
        <ele>399.7</ele>
        <time>1970-01-01T00:21:00.000Z</time>
      </trkpt>
      <trkpt lat="45.89475" lon="3.05985">
        <ele>399.8</ele>
        <time>1970-01-01T00:21:02.000Z</time>
      </trkpt>
      <trkpt lat="45.89476" lon="3.05982">
        <ele>399.9</ele>
        <time>1970-01-01T00:21:03.000Z</time>
      </trkpt>
      <trkpt lat="45.89477" lon="3.05978">
        <ele>400</ele>
        <time>1970-01-01T00:21:04.000Z</time>
      </trkpt>
      <trkpt lat="45.89479" lon="3.05974">
        <ele>400.1</ele>
        <time>1970-01-01T00:21:05.000Z</time>
      </trkpt>
      <trkpt lat="45.89481" lon="3.0597">
        <ele>400.2</ele>
        <time>1970-01-01T00:21:06.000Z</time>
      </trkpt>
      <trkpt lat="45.89482" lon="3.05965">
        <ele>400.2</ele>
        <time>1970-01-01T00:21:07.000Z</time>
      </trkpt>
      <trkpt lat="45.89484" lon="3.05961">
        <ele>400.3</ele>
        <time>1970-01-01T00:21:08.000Z</time>
      </trkpt>
      <trkpt lat="45.89485" lon="3.05958">
        <ele>400.3</ele>
        <time>1970-01-01T00:21:09.000Z</time>
      </trkpt>
      <trkpt lat="45.89487" lon="3.05954">
        <ele>400.4</ele>
        <time>1970-01-01T00:21:11.000Z</time>
      </trkpt>
      <trkpt lat="45.89488" lon="3.0595">
        <ele>400.4</ele>
        <time>1970-01-01T00:21:12.000Z</time>
      </trkpt>
      <trkpt lat="45.8949" lon="3.05945">
        <ele>400.4</ele>
        <time>1970-01-01T00:21:13.000Z</time>
      </trkpt>
      <trkpt lat="45.89491" lon="3.05944">
        <ele>400.4</ele>
        <time>1970-01-01T00:21:14.000Z</time>
      </trkpt>
      <trkpt lat="45.89492" lon="3.0594">
        <ele>400.5</ele>
        <time>1970-01-01T00:21:15.000Z</time>
      </trkpt>
      <trkpt lat="45.89494" lon="3.05935">
        <ele>400.5</ele>
        <time>1970-01-01T00:21:16.000Z</time>
      </trkpt>
      <trkpt lat="45.89495" lon="3.05931">
        <ele>400.6</ele>
        <time>1970-01-01T00:21:17.000Z</time>
      </trkpt>
      <trkpt lat="45.89496" lon="3.05926">
        <ele>400.7</ele>
        <time>1970-01-01T00:21:18.000Z</time>
      </trkpt>
      <trkpt lat="45.89496" lon="3.0592">
        <ele>400.8</ele>
        <time>1970-01-01T00:21:19.000Z</time>
      </trkpt>
      <trkpt lat="45.89497" lon="3.05913">
        <ele>400.9</ele>
        <time>1970-01-01T00:21:20.000Z</time>
      </trkpt>
      <trkpt lat="45.89498" lon="3.05907">
        <ele>401.1</ele>
        <time>1970-01-01T00:21:22.000Z</time>
      </trkpt>
      <trkpt lat="45.89498" lon="3.05902">
        <ele>401.2</ele>
        <time>1970-01-01T00:21:23.000Z</time>
      </trkpt>
      <trkpt lat="45.89499" lon="3.05897">
        <ele>401.4</ele>
        <time>1970-01-01T00:21:24.000Z</time>
      </trkpt>
      <trkpt lat="45.89499" lon="3.05892">
        <ele>401.6</ele>
        <time>1970-01-01T00:21:25.000Z</time>
      </trkpt>
      <trkpt lat="45.895" lon="3.05887">
        <ele>401.7</ele>
        <time>1970-01-01T00:21:27.000Z</time>
      </trkpt>
      <trkpt lat="45.895" lon="3.05881">
        <ele>401.9</ele>
        <time>1970-01-01T00:21:28.000Z</time>
      </trkpt>
      <trkpt lat="45.89501" lon="3.05877">
        <ele>402</ele>
        <time>1970-01-01T00:21:29.000Z</time>
      </trkpt>
      <trkpt lat="45.89502" lon="3.05872">
        <ele>402.1</ele>
        <time>1970-01-01T00:21:31.000Z</time>
      </trkpt>
      <trkpt lat="45.89503" lon="3.05867">
        <ele>402.2</ele>
        <time>1970-01-01T00:21:32.000Z</time>
      </trkpt>
      <trkpt lat="45.89503" lon="3.05862">
        <ele>402.3</ele>
        <time>1970-01-01T00:21:33.000Z</time>
      </trkpt>
      <trkpt lat="45.89504" lon="3.05858">
        <ele>402.4</ele>
        <time>1970-01-01T00:21:34.000Z</time>
      </trkpt>
      <trkpt lat="45.89505" lon="3.05853">
        <ele>402.4</ele>
        <time>1970-01-01T00:21:36.000Z</time>
      </trkpt>
      <trkpt lat="45.89506" lon="3.05849">
        <ele>402.5</ele>
        <time>1970-01-01T00:21:37.000Z</time>
      </trkpt>
      <trkpt lat="45.89506" lon="3.05845">
        <ele>402.5</ele>
        <time>1970-01-01T00:21:38.000Z</time>
      </trkpt>
      <trkpt lat="45.89506" lon="3.05841">
        <ele>402.5</ele>
        <time>1970-01-01T00:21:39.000Z</time>
      </trkpt>
      <trkpt lat="45.89506" lon="3.05836">
        <ele>402.6</ele>
        <time>1970-01-01T00:21:40.000Z</time>
      </trkpt>
      <trkpt lat="45.89505" lon="3.05831">
        <ele>402.6</ele>
        <time>1970-01-01T00:21:41.000Z</time>
      </trkpt>
      <trkpt lat="45.89504" lon="3.05827">
        <ele>402.7</ele>
        <time>1970-01-01T00:21:42.000Z</time>
      </trkpt>
      <trkpt lat="45.89503" lon="3.05823">
        <ele>402.7</ele>
        <time>1970-01-01T00:21:43.000Z</time>
      </trkpt>
      <trkpt lat="45.89502" lon="3.05818">
        <ele>402.8</ele>
        <time>1970-01-01T00:21:44.000Z</time>
      </trkpt>
      <trkpt lat="45.89501" lon="3.05813">
        <ele>402.8</ele>
        <time>1970-01-01T00:21:46.000Z</time>
      </trkpt>
      <trkpt lat="45.89501" lon="3.05809">
        <ele>402.9</ele>
        <time>1970-01-01T00:21:47.000Z</time>
      </trkpt>
      <trkpt lat="45.89501" lon="3.05805">
        <ele>403</ele>
        <time>1970-01-01T00:21:48.000Z</time>
      </trkpt>
      <trkpt lat="45.89502" lon="3.05798">
        <ele>403.1</ele>
        <time>1970-01-01T00:21:49.000Z</time>
      </trkpt>
      <trkpt lat="45.89503" lon="3.05795">
        <ele>403.1</ele>
        <time>1970-01-01T00:21:50.000Z</time>
      </trkpt>
      <trkpt lat="45.89504" lon="3.0579">
        <ele>403.2</ele>
        <time>1970-01-01T00:21:52.000Z</time>
      </trkpt>
      <trkpt lat="45.89505" lon="3.05787">
        <ele>403.2</ele>
        <time>1970-01-01T00:21:53.000Z</time>
      </trkpt>
      <trkpt lat="45.89506" lon="3.05782">
        <ele>403.3</ele>
        <time>1970-01-01T00:21:54.000Z</time>
      </trkpt>
      <trkpt lat="45.89508" lon="3.05775">
        <ele>403.4</ele>
        <time>1970-01-01T00:21:56.000Z</time>
      </trkpt>
      <trkpt lat="45.89508" lon="3.05771">
        <ele>403.5</ele>
        <time>1970-01-01T00:21:57.000Z</time>
      </trkpt>
      <trkpt lat="45.89509" lon="3.05766">
        <ele>403.5</ele>
        <time>1970-01-01T00:21:58.000Z</time>
      </trkpt>
      <trkpt lat="45.8951" lon="3.05761">
        <ele>403.6</ele>
        <time>1970-01-01T00:21:59.000Z</time>
      </trkpt>
      <trkpt lat="45.89509" lon="3.05757">
        <ele>403.7</ele>
        <time>1970-01-01T00:22:00.000Z</time>
      </trkpt>
      <trkpt lat="45.8951" lon="3.05754">
        <ele>403.7</ele>
        <time>1970-01-01T00:22:01.000Z</time>
      </trkpt>
      <trkpt lat="45.8951" lon="3.05749">
        <ele>403.8</ele>
        <time>1970-01-01T00:22:03.000Z</time>
      </trkpt>
      <trkpt lat="45.8951" lon="3.05744">
        <ele>403.9</ele>
        <time>1970-01-01T00:22:04.000Z</time>
      </trkpt>
      <trkpt lat="45.8951" lon="3.05742">
        <ele>403.9</ele>
        <time>1970-01-01T00:22:05.000Z</time>
      </trkpt>
      <trkpt lat="45.8951" lon="3.05737">
        <ele>404</ele>
        <time>1970-01-01T00:22:06.000Z</time>
      </trkpt>
      <trkpt lat="45.8951" lon="3.05731">
        <ele>404</ele>
        <time>1970-01-01T00:22:08.000Z</time>
      </trkpt>
      <trkpt lat="45.8951" lon="3.05726">
        <ele>404.1</ele>
        <time>1970-01-01T00:22:09.000Z</time>
      </trkpt>
      <trkpt lat="45.89509" lon="3.05721">
        <ele>404.2</ele>
        <time>1970-01-01T00:22:10.000Z</time>
      </trkpt>
      <trkpt lat="45.89508" lon="3.05717">
        <ele>404.3</ele>
        <time>1970-01-01T00:22:11.000Z</time>
      </trkpt>
      <trkpt lat="45.89507" lon="3.05713">
        <ele>404.3</ele>
        <time>1970-01-01T00:22:12.000Z</time>
      </trkpt>
      <trkpt lat="45.89506" lon="3.05709">
        <ele>404.4</ele>
        <time>1970-01-01T00:22:13.000Z</time>
      </trkpt>
      <trkpt lat="45.89506" lon="3.05703">
        <ele>404.5</ele>
        <time>1970-01-01T00:22:14.000Z</time>
      </trkpt>
      <trkpt lat="45.89506" lon="3.057">
        <ele>404.6</ele>
        <time>1970-01-01T00:22:15.000Z</time>
      </trkpt>
      <trkpt lat="45.89506" lon="3.05695">
        <ele>404.7</ele>
        <time>1970-01-01T00:22:17.000Z</time>
      </trkpt>
      <trkpt lat="45.89507" lon="3.05691">
        <ele>404.8</ele>
        <time>1970-01-01T00:22:18.000Z</time>
      </trkpt>
      <trkpt lat="45.89507" lon="3.05684">
        <ele>405</ele>
        <time>1970-01-01T00:22:19.000Z</time>
      </trkpt>
      <trkpt lat="45.89508" lon="3.05679">
        <ele>405.1</ele>
        <time>1970-01-01T00:22:21.000Z</time>
      </trkpt>
      <trkpt lat="45.89507" lon="3.05672">
        <ele>405.4</ele>
        <time>1970-01-01T00:22:22.000Z</time>
      </trkpt>
      <trkpt lat="45.89507" lon="3.05668">
        <ele>405.6</ele>
        <time>1970-01-01T00:22:23.000Z</time>
      </trkpt>
      <trkpt lat="45.89505" lon="3.05663">
        <ele>405.8</ele>
        <time>1970-01-01T00:22:24.000Z</time>
      </trkpt>
      <trkpt lat="45.89502" lon="3.05659">
        <ele>405.8</ele>
        <time>1970-01-01T00:22:26.000Z</time>
      </trkpt>
      <trkpt lat="45.89499" lon="3.05656">
        <ele>405.8</ele>
        <time>1970-01-01T00:22:27.000Z</time>
      </trkpt>
      <trkpt lat="45.89495" lon="3.05653">
        <ele>405.9</ele>
        <time>1970-01-01T00:22:29.000Z</time>
      </trkpt>
      <trkpt lat="45.89493" lon="3.05649">
        <ele>405.9</ele>
        <time>1970-01-01T00:22:30.000Z</time>
      </trkpt>
      <trkpt lat="45.89493" lon="3.05644">
        <ele>406.2</ele>
        <time>1970-01-01T00:22:31.000Z</time>
      </trkpt>
      <trkpt lat="45.89493" lon="3.05639">
        <ele>406.4</ele>
        <time>1970-01-01T00:22:33.000Z</time>
      </trkpt>
      <trkpt lat="45.89494" lon="3.05637">
        <ele>406.5</ele>
        <time>1970-01-01T00:22:34.000Z</time>
      </trkpt>
      <trkpt lat="45.89495" lon="3.05632">
        <ele>406.7</ele>
        <time>1970-01-01T00:22:35.000Z</time>
      </trkpt>
      <trkpt lat="45.89495" lon="3.0563">
        <ele>406.8</ele>
        <time>1970-01-01T00:22:36.000Z</time>
      </trkpt>
      <trkpt lat="45.89496" lon="3.05627">
        <ele>406.9</ele>
        <time>1970-01-01T00:22:37.000Z</time>
      </trkpt>
      <trkpt lat="45.89497" lon="3.05623">
        <ele>407.1</ele>
        <time>1970-01-01T00:22:39.000Z</time>
      </trkpt>
      <trkpt lat="45.89498" lon="3.05617">
        <ele>407.3</ele>
        <time>1970-01-01T00:22:40.000Z</time>
      </trkpt>
      <trkpt lat="45.89499" lon="3.05612">
        <ele>407.5</ele>
        <time>1970-01-01T00:22:41.000Z</time>
      </trkpt>
      <trkpt lat="45.895" lon="3.05607">
        <ele>407.7</ele>
        <time>1970-01-01T00:22:43.000Z</time>
      </trkpt>
      <trkpt lat="45.895" lon="3.05603">
        <ele>407.9</ele>
        <time>1970-01-01T00:22:44.000Z</time>
      </trkpt>
      <trkpt lat="45.89501" lon="3.05597">
        <ele>408.1</ele>
        <time>1970-01-01T00:22:45.000Z</time>
      </trkpt>
      <trkpt lat="45.89501" lon="3.05596">
        <ele>408.1</ele>
        <time>1970-01-01T00:22:46.000Z</time>
      </trkpt>
      <trkpt lat="45.89502" lon="3.0559">
        <ele>408.3</ele>
        <time>1970-01-01T00:22:47.000Z</time>
      </trkpt>
      <trkpt lat="45.89503" lon="3.05588">
        <ele>408.3</ele>
        <time>1970-01-01T00:22:48.000Z</time>
      </trkpt>
      <trkpt lat="45.89504" lon="3.05584">
        <ele>408.5</ele>
        <time>1970-01-01T00:22:49.000Z</time>
      </trkpt>
      <trkpt lat="45.89505" lon="3.0558">
        <ele>408.5</ele>
        <time>1970-01-01T00:22:50.000Z</time>
      </trkpt>
      <trkpt lat="45.89506" lon="3.05577">
        <ele>408.6</ele>
        <time>1970-01-01T00:22:51.000Z</time>
      </trkpt>
      <trkpt lat="45.89509" lon="3.05573">
        <ele>408.7</ele>
        <time>1970-01-01T00:22:53.000Z</time>
      </trkpt>
      <trkpt lat="45.89511" lon="3.05571">
        <ele>408.8</ele>
        <time>1970-01-01T00:22:54.000Z</time>
      </trkpt>
      <trkpt lat="45.89515" lon="3.05568">
        <ele>408.8</ele>
        <time>1970-01-01T00:22:55.000Z</time>
      </trkpt>
      <trkpt lat="45.89518" lon="3.05566">
        <ele>408.9</ele>
        <time>1970-01-01T00:22:56.000Z</time>
      </trkpt>
      <trkpt lat="45.89522" lon="3.05563">
        <ele>409</ele>
        <time>1970-01-01T00:22:57.000Z</time>
      </trkpt>
      <trkpt lat="45.89526" lon="3.0556">
        <ele>409</ele>
        <time>1970-01-01T00:22:58.000Z</time>
      </trkpt>
      <trkpt lat="45.89529" lon="3.05558">
        <ele>409.1</ele>
        <time>1970-01-01T00:23:00.000Z</time>
      </trkpt>
      <trkpt lat="45.89533" lon="3.05556">
        <ele>409.2</ele>
        <time>1970-01-01T00:23:01.000Z</time>
      </trkpt>
      <trkpt lat="45.89537" lon="3.05555">
        <ele>409.3</ele>
        <time>1970-01-01T00:23:02.000Z</time>
      </trkpt>
      <trkpt lat="45.8954" lon="3.05554">
        <ele>409.4</ele>
        <time>1970-01-01T00:23:03.000Z</time>
      </trkpt>
      <trkpt lat="45.89545" lon="3.05552">
        <ele>409.6</ele>
        <time>1970-01-01T00:23:04.000Z</time>
      </trkpt>
      <trkpt lat="45.89548" lon="3.05549">
        <ele>409.7</ele>
        <time>1970-01-01T00:23:05.000Z</time>
      </trkpt>
      <trkpt lat="45.8955" lon="3.05546">
        <ele>409.9</ele>
        <time>1970-01-01T00:23:07.000Z</time>
      </trkpt>
      <trkpt lat="45.89553" lon="3.05543">
        <ele>410</ele>
        <time>1970-01-01T00:23:08.000Z</time>
      </trkpt>
      <trkpt lat="45.89556" lon="3.05541">
        <ele>410.2</ele>
        <time>1970-01-01T00:23:09.000Z</time>
      </trkpt>
      <trkpt lat="45.89558" lon="3.05539">
        <ele>410.3</ele>
        <time>1970-01-01T00:23:10.000Z</time>
      </trkpt>
      <trkpt lat="45.89562" lon="3.05537">
        <ele>410.5</ele>
        <time>1970-01-01T00:23:11.000Z</time>
      </trkpt>
      <trkpt lat="45.89565" lon="3.05534">
        <ele>410.6</ele>
        <time>1970-01-01T00:23:13.000Z</time>
      </trkpt>
      <trkpt lat="45.89567" lon="3.05531">
        <ele>410.7</ele>
        <time>1970-01-01T00:23:14.000Z</time>
      </trkpt>
      <trkpt lat="45.89568" lon="3.05528">
        <ele>410.8</ele>
        <time>1970-01-01T00:23:15.000Z</time>
      </trkpt>
      <trkpt lat="45.89569" lon="3.05523">
        <ele>411</ele>
        <time>1970-01-01T00:23:16.000Z</time>
      </trkpt>
      <trkpt lat="45.89569" lon="3.05521">
        <ele>411</ele>
        <time>1970-01-01T00:23:17.000Z</time>
      </trkpt>
      <trkpt lat="45.89571" lon="3.05517">
        <ele>411.1</ele>
        <time>1970-01-01T00:23:18.000Z</time>
      </trkpt>
      <trkpt lat="45.89572" lon="3.05514">
        <ele>411.2</ele>
        <time>1970-01-01T00:23:19.000Z</time>
      </trkpt>
      <trkpt lat="45.89573" lon="3.05509">
        <ele>411.4</ele>
        <time>1970-01-01T00:23:21.000Z</time>
      </trkpt>
      <trkpt lat="45.89573" lon="3.05506">
        <ele>411.4</ele>
        <time>1970-01-01T00:23:22.000Z</time>
      </trkpt>
      <trkpt lat="45.89574" lon="3.05504">
        <ele>411.5</ele>
        <time>1970-01-01T00:23:23.000Z</time>
      </trkpt>
      <trkpt lat="45.89574" lon="3.05502">
        <ele>411.5</ele>
        <time>1970-01-01T00:23:24.000Z</time>
      </trkpt>
      <trkpt lat="45.89574" lon="3.05501">
        <ele>411.6</ele>
        <time>1970-01-01T00:23:25.000Z</time>
      </trkpt>
      <trkpt lat="45.89575" lon="3.055">
        <ele>411.6</ele>
        <time>1970-01-01T00:23:26.000Z</time>
      </trkpt>
      <trkpt lat="45.89577" lon="3.05495">
        <ele>411.8</ele>
        <time>1970-01-01T00:23:27.000Z</time>
      </trkpt>
      <trkpt lat="45.89577" lon="3.05494">
        <ele>411.8</ele>
        <time>1970-01-01T00:23:28.000Z</time>
      </trkpt>
      <trkpt lat="45.89577" lon="3.05491">
        <ele>411.9</ele>
        <time>1970-01-01T00:23:29.000Z</time>
      </trkpt>
      <trkpt lat="45.89575" lon="3.05487">
        <ele>412.1</ele>
        <time>1970-01-01T00:23:31.000Z</time>
      </trkpt>
      <trkpt lat="45.89573" lon="3.05484">
        <ele>412.2</ele>
        <time>1970-01-01T00:23:32.000Z</time>
      </trkpt>
      <trkpt lat="45.89571" lon="3.05479">
        <ele>412.4</ele>
        <time>1970-01-01T00:23:33.000Z</time>
      </trkpt>
      <trkpt lat="45.89569" lon="3.05475">
        <ele>412.5</ele>
        <time>1970-01-01T00:23:34.000Z</time>
      </trkpt>
      <trkpt lat="45.89568" lon="3.05473">
        <ele>412.6</ele>
        <time>1970-01-01T00:23:35.000Z</time>
      </trkpt>
      <trkpt lat="45.89567" lon="3.05469">
        <ele>412.7</ele>
        <time>1970-01-01T00:23:36.000Z</time>
      </trkpt>
      <trkpt lat="45.89565" lon="3.05463">
        <ele>412.9</ele>
        <time>1970-01-01T00:23:38.000Z</time>
      </trkpt>
      <trkpt lat="45.89565" lon="3.0546">
        <ele>413</ele>
        <time>1970-01-01T00:23:39.000Z</time>
      </trkpt>
      <trkpt lat="45.89563" lon="3.05457">
        <ele>413.2</ele>
        <time>1970-01-01T00:23:41.000Z</time>
      </trkpt>
      <trkpt lat="45.89562" lon="3.05453">
        <ele>413.3</ele>
        <time>1970-01-01T00:23:42.000Z</time>
      </trkpt>
      <trkpt lat="45.89559" lon="3.05448">
        <ele>413.6</ele>
        <time>1970-01-01T00:23:44.000Z</time>
      </trkpt>
      <trkpt lat="45.89558" lon="3.05446">
        <ele>413.7</ele>
        <time>1970-01-01T00:23:45.000Z</time>
      </trkpt>
      <trkpt lat="45.89557" lon="3.05444">
        <ele>413.8</ele>
        <time>1970-01-01T00:23:46.000Z</time>
      </trkpt>
      <trkpt lat="45.89554" lon="3.05438">
        <ele>414.1</ele>
        <time>1970-01-01T00:23:48.000Z</time>
      </trkpt>
      <trkpt lat="45.89553" lon="3.05437">
        <ele>414.2</ele>
        <time>1970-01-01T00:23:49.000Z</time>
      </trkpt>
      <trkpt lat="45.89552" lon="3.05435">
        <ele>414.3</ele>
        <time>1970-01-01T00:23:50.000Z</time>
      </trkpt>
      <trkpt lat="45.89551" lon="3.05431">
        <ele>414.5</ele>
        <time>1970-01-01T00:23:51.000Z</time>
      </trkpt>
      <trkpt lat="45.8955" lon="3.05427">
        <ele>414.7</ele>
        <time>1970-01-01T00:23:52.000Z</time>
      </trkpt>
      <trkpt lat="45.89548" lon="3.05424">
        <ele>414.9</ele>
        <time>1970-01-01T00:23:54.000Z</time>
      </trkpt>
      <trkpt lat="45.89546" lon="3.0542">
        <ele>415.2</ele>
        <time>1970-01-01T00:23:55.000Z</time>
      </trkpt>
      <trkpt lat="45.89545" lon="3.05416">
        <ele>415.5</ele>
        <time>1970-01-01T00:23:57.000Z</time>
      </trkpt>
      <trkpt lat="45.89544" lon="3.05413">
        <ele>415.7</ele>
        <time>1970-01-01T00:23:58.000Z</time>
      </trkpt>
      <trkpt lat="45.89543" lon="3.05409">
        <ele>416</ele>
        <time>1970-01-01T00:24:00.000Z</time>
      </trkpt>
      <trkpt lat="45.89542" lon="3.05405">
        <ele>416.3</ele>
        <time>1970-01-01T00:24:01.000Z</time>
      </trkpt>
      <trkpt lat="45.89542" lon="3.05404">
        <ele>416.4</ele>
        <time>1970-01-01T00:24:02.000Z</time>
      </trkpt>
      <trkpt lat="45.89541" lon="3.05401">
        <ele>416.7</ele>
        <time>1970-01-01T00:24:03.000Z</time>
      </trkpt>
      <trkpt lat="45.89541" lon="3.05399">
        <ele>416.9</ele>
        <time>1970-01-01T00:24:04.000Z</time>
      </trkpt>
      <trkpt lat="45.8954" lon="3.05397">
        <ele>417.1</ele>
        <time>1970-01-01T00:24:05.000Z</time>
      </trkpt>
      <trkpt lat="45.89539" lon="3.05395">
        <ele>417.3</ele>
        <time>1970-01-01T00:24:06.000Z</time>
      </trkpt>
      <trkpt lat="45.89538" lon="3.05393">
        <ele>417.5</ele>
        <time>1970-01-01T00:24:07.000Z</time>
      </trkpt>
      <trkpt lat="45.89537" lon="3.05391">
        <ele>417.6</ele>
        <time>1970-01-01T00:24:08.000Z</time>
      </trkpt>
      <trkpt lat="45.89537" lon="3.05389">
        <ele>417.6</ele>
        <time>1970-01-01T00:24:09.000Z</time>
      </trkpt>
      <trkpt lat="45.89536" lon="3.05387">
        <ele>417.6</ele>
        <time>1970-01-01T00:24:10.000Z</time>
      </trkpt>
      <trkpt lat="45.89534" lon="3.05383">
        <ele>417.7</ele>
        <time>1970-01-01T00:24:11.000Z</time>
      </trkpt>
      <trkpt lat="45.89533" lon="3.05381">
        <ele>417.8</ele>
        <time>1970-01-01T00:24:12.000Z</time>
      </trkpt>
      <trkpt lat="45.89532" lon="3.05377">
        <ele>418.1</ele>
        <time>1970-01-01T00:24:14.000Z</time>
      </trkpt>
      <trkpt lat="45.89531" lon="3.05375">
        <ele>418.3</ele>
        <time>1970-01-01T00:24:15.000Z</time>
      </trkpt>
      <trkpt lat="45.8953" lon="3.05371">
        <ele>418.6</ele>
        <time>1970-01-01T00:24:17.000Z</time>
      </trkpt>
      <trkpt lat="45.89529" lon="3.05368">
        <ele>418.8</ele>
        <time>1970-01-01T00:24:18.000Z</time>
      </trkpt>
      <trkpt lat="45.89529" lon="3.05366">
        <ele>419</ele>
        <time>1970-01-01T00:24:19.000Z</time>
      </trkpt>
      <trkpt lat="45.89528" lon="3.05364">
        <ele>419.1</ele>
        <time>1970-01-01T00:24:20.000Z</time>
      </trkpt>
      <trkpt lat="45.89527" lon="3.05362">
        <ele>419.3</ele>
        <time>1970-01-01T00:24:21.000Z</time>
      </trkpt>
      <trkpt lat="45.89526" lon="3.0536">
        <ele>419.4</ele>
        <time>1970-01-01T00:24:22.000Z</time>
      </trkpt>
      <trkpt lat="45.89526" lon="3.05358">
        <ele>419.6</ele>
        <time>1970-01-01T00:24:23.000Z</time>
      </trkpt>
      <trkpt lat="45.89525" lon="3.05354">
        <ele>419.9</ele>
        <time>1970-01-01T00:24:24.000Z</time>
      </trkpt>
      <trkpt lat="45.89525" lon="3.05353">
        <ele>420</ele>
        <time>1970-01-01T00:24:25.000Z</time>
      </trkpt>
      <trkpt lat="45.89523" lon="3.05349">
        <ele>420.2</ele>
        <time>1970-01-01T00:24:26.000Z</time>
      </trkpt>
      <trkpt lat="45.89523" lon="3.05348">
        <ele>420.3</ele>
        <time>1970-01-01T00:24:27.000Z</time>
      </trkpt>
      <trkpt lat="45.89521" lon="3.05344">
        <ele>420.5</ele>
        <time>1970-01-01T00:24:28.000Z</time>
      </trkpt>
      <trkpt lat="45.89521" lon="3.05343">
        <ele>420.6</ele>
        <time>1970-01-01T00:24:29.000Z</time>
      </trkpt>
      <trkpt lat="45.89519" lon="3.05339">
        <ele>420.9</ele>
        <time>1970-01-01T00:24:30.000Z</time>
      </trkpt>
      <trkpt lat="45.89518" lon="3.05337">
        <ele>420.9</ele>
        <time>1970-01-01T00:24:31.000Z</time>
      </trkpt>
      <trkpt lat="45.89517" lon="3.05333">
        <ele>421.1</ele>
        <time>1970-01-01T00:24:32.000Z</time>
      </trkpt>
      <trkpt lat="45.89516" lon="3.05331">
        <ele>421.2</ele>
        <time>1970-01-01T00:24:33.000Z</time>
      </trkpt>
      <trkpt lat="45.89515" lon="3.05327">
        <ele>421.4</ele>
        <time>1970-01-01T00:24:34.000Z</time>
      </trkpt>
      <trkpt lat="45.89514" lon="3.05325">
        <ele>421.5</ele>
        <time>1970-01-01T00:24:35.000Z</time>
      </trkpt>
      <trkpt lat="45.89512" lon="3.0532">
        <ele>421.8</ele>
        <time>1970-01-01T00:24:37.000Z</time>
      </trkpt>
      <trkpt lat="45.89511" lon="3.05314">
        <ele>422</ele>
        <time>1970-01-01T00:24:38.000Z</time>
      </trkpt>
      <trkpt lat="45.8951" lon="3.05313">
        <ele>422.1</ele>
        <time>1970-01-01T00:24:39.000Z</time>
      </trkpt>
      <trkpt lat="45.89508" lon="3.05308">
        <ele>422.3</ele>
        <time>1970-01-01T00:24:40.000Z</time>
      </trkpt>
      <trkpt lat="45.89507" lon="3.05307">
        <ele>422.4</ele>
        <time>1970-01-01T00:24:41.000Z</time>
      </trkpt>
      <trkpt lat="45.89506" lon="3.05302">
        <ele>422.7</ele>
        <time>1970-01-01T00:24:42.000Z</time>
      </trkpt>
      <trkpt lat="45.89506" lon="3.053">
        <ele>422.8</ele>
        <time>1970-01-01T00:24:43.000Z</time>
      </trkpt>
      <trkpt lat="45.89505" lon="3.05297">
        <ele>423</ele>
        <time>1970-01-01T00:24:44.000Z</time>
      </trkpt>
      <trkpt lat="45.89503" lon="3.05291">
        <ele>423.4</ele>
        <time>1970-01-01T00:24:46.000Z</time>
      </trkpt>
      <trkpt lat="45.89501" lon="3.05286">
        <ele>423.7</ele>
        <time>1970-01-01T00:24:47.000Z</time>
      </trkpt>
      <trkpt lat="45.89501" lon="3.05284">
        <ele>423.8</ele>
        <time>1970-01-01T00:24:48.000Z</time>
      </trkpt>
      <trkpt lat="45.89499" lon="3.05281">
        <ele>424.2</ele>
        <time>1970-01-01T00:24:49.000Z</time>
      </trkpt>
      <trkpt lat="45.89498" lon="3.0528">
        <ele>424.3</ele>
        <time>1970-01-01T00:24:50.000Z</time>
      </trkpt>
      <trkpt lat="45.89496" lon="3.05277">
        <ele>424.6</ele>
        <time>1970-01-01T00:24:51.000Z</time>
      </trkpt>
      <trkpt lat="45.89496" lon="3.05275">
        <ele>424.7</ele>
        <time>1970-01-01T00:24:52.000Z</time>
      </trkpt>
      <trkpt lat="45.89494" lon="3.0527">
        <ele>425.2</ele>
        <time>1970-01-01T00:24:54.000Z</time>
      </trkpt>
      <trkpt lat="45.89493" lon="3.05263">
        <ele>425.7</ele>
        <time>1970-01-01T00:24:56.000Z</time>
      </trkpt>
      <trkpt lat="45.89492" lon="3.05262">
        <ele>425.8</ele>
        <time>1970-01-01T00:24:57.000Z</time>
      </trkpt>
      <trkpt lat="45.89491" lon="3.0526">
        <ele>426</ele>
        <time>1970-01-01T00:24:58.000Z</time>
      </trkpt>
      <trkpt lat="45.8949" lon="3.05255">
        <ele>426.3</ele>
        <time>1970-01-01T00:24:59.000Z</time>
      </trkpt>
      <trkpt lat="45.8949" lon="3.05254">
        <ele>426.4</ele>
        <time>1970-01-01T00:25:00.000Z</time>
      </trkpt>
      <trkpt lat="45.89489" lon="3.0525">
        <ele>426.8</ele>
        <time>1970-01-01T00:25:01.000Z</time>
      </trkpt>
      <trkpt lat="45.89489" lon="3.05248">
        <ele>426.9</ele>
        <time>1970-01-01T00:25:02.000Z</time>
      </trkpt>
      <trkpt lat="45.89487" lon="3.05244">
        <ele>427.1</ele>
        <time>1970-01-01T00:25:03.000Z</time>
      </trkpt>
      <trkpt lat="45.89487" lon="3.05243">
        <ele>427.2</ele>
        <time>1970-01-01T00:25:04.000Z</time>
      </trkpt>
      <trkpt lat="45.89486" lon="3.05239">
        <ele>427.5</ele>
        <time>1970-01-01T00:25:05.000Z</time>
      </trkpt>
      <trkpt lat="45.89486" lon="3.05238">
        <ele>427.6</ele>
        <time>1970-01-01T00:25:06.000Z</time>
      </trkpt>
      <trkpt lat="45.89485" lon="3.05234">
        <ele>427.9</ele>
        <time>1970-01-01T00:25:07.000Z</time>
      </trkpt>
      <trkpt lat="45.89484" lon="3.05232">
        <ele>428</ele>
        <time>1970-01-01T00:25:08.000Z</time>
      </trkpt>
      <trkpt lat="45.89483" lon="3.05228">
        <ele>428.3</ele>
        <time>1970-01-01T00:25:09.000Z</time>
      </trkpt>
      <trkpt lat="45.89483" lon="3.05227">
        <ele>428.4</ele>
        <time>1970-01-01T00:25:10.000Z</time>
      </trkpt>
      <trkpt lat="45.89482" lon="3.05223">
        <ele>428.7</ele>
        <time>1970-01-01T00:25:11.000Z</time>
      </trkpt>
      <trkpt lat="45.89482" lon="3.05221">
        <ele>428.9</ele>
        <time>1970-01-01T00:25:12.000Z</time>
      </trkpt>
      <trkpt lat="45.89481" lon="3.05217">
        <ele>429.2</ele>
        <time>1970-01-01T00:25:13.000Z</time>
      </trkpt>
      <trkpt lat="45.8948" lon="3.05216">
        <ele>429.3</ele>
        <time>1970-01-01T00:25:14.000Z</time>
      </trkpt>
      <trkpt lat="45.8948" lon="3.05211">
        <ele>429.6</ele>
        <time>1970-01-01T00:25:15.000Z</time>
      </trkpt>
      <trkpt lat="45.8948" lon="3.0521">
        <ele>429.7</ele>
        <time>1970-01-01T00:25:16.000Z</time>
      </trkpt>
      <trkpt lat="45.89479" lon="3.05206">
        <ele>430.1</ele>
        <time>1970-01-01T00:25:17.000Z</time>
      </trkpt>
      <trkpt lat="45.89479" lon="3.05204">
        <ele>430.2</ele>
        <time>1970-01-01T00:25:18.000Z</time>
      </trkpt>
      <trkpt lat="45.89479" lon="3.05198">
        <ele>430.6</ele>
        <time>1970-01-01T00:25:20.000Z</time>
      </trkpt>
      <trkpt lat="45.89478" lon="3.05194">
        <ele>431</ele>
        <time>1970-01-01T00:25:21.000Z</time>
      </trkpt>
      <trkpt lat="45.89477" lon="3.05193">
        <ele>431.2</ele>
        <time>1970-01-01T00:25:22.000Z</time>
      </trkpt>
      <trkpt lat="45.89476" lon="3.05187">
        <ele>431.6</ele>
        <time>1970-01-01T00:25:23.000Z</time>
      </trkpt>
      <trkpt lat="45.89476" lon="3.05185">
        <ele>431.9</ele>
        <time>1970-01-01T00:25:24.000Z</time>
      </trkpt>
      <trkpt lat="45.89475" lon="3.05181">
        <ele>432.3</ele>
        <time>1970-01-01T00:25:26.000Z</time>
      </trkpt>
      <trkpt lat="45.89475" lon="3.05179">
        <ele>432.4</ele>
        <time>1970-01-01T00:25:27.000Z</time>
      </trkpt>
      <trkpt lat="45.89474" lon="3.05175">
        <ele>432.8</ele>
        <time>1970-01-01T00:25:28.000Z</time>
      </trkpt>
      <trkpt lat="45.89473" lon="3.05171">
        <ele>433.2</ele>
        <time>1970-01-01T00:25:30.000Z</time>
      </trkpt>
      <trkpt lat="45.89473" lon="3.0517">
        <ele>433.3</ele>
        <time>1970-01-01T00:25:31.000Z</time>
      </trkpt>
      <trkpt lat="45.89472" lon="3.05166">
        <ele>433.8</ele>
        <time>1970-01-01T00:25:33.000Z</time>
      </trkpt>
      <trkpt lat="45.89471" lon="3.05164">
        <ele>433.9</ele>
        <time>1970-01-01T00:25:34.000Z</time>
      </trkpt>
      <trkpt lat="45.89471" lon="3.05162">
        <ele>434.2</ele>
        <time>1970-01-01T00:25:35.000Z</time>
      </trkpt>
      <trkpt lat="45.8947" lon="3.0516">
        <ele>434.4</ele>
        <time>1970-01-01T00:25:36.000Z</time>
      </trkpt>
      <trkpt lat="45.8947" lon="3.05157">
        <ele>434.6</ele>
        <time>1970-01-01T00:25:37.000Z</time>
      </trkpt>
      <trkpt lat="45.89468" lon="3.05153">
        <ele>435</ele>
        <time>1970-01-01T00:25:39.000Z</time>
      </trkpt>
      <trkpt lat="45.89467" lon="3.05151">
        <ele>435.2</ele>
        <time>1970-01-01T00:25:40.000Z</time>
      </trkpt>
      <trkpt lat="45.89466" lon="3.05147">
        <ele>435.6</ele>
        <time>1970-01-01T00:25:42.000Z</time>
      </trkpt>
      <trkpt lat="45.89465" lon="3.05144">
        <ele>436</ele>
        <time>1970-01-01T00:25:43.000Z</time>
      </trkpt>
      <trkpt lat="45.89464" lon="3.05142">
        <ele>436.1</ele>
        <time>1970-01-01T00:25:44.000Z</time>
      </trkpt>
      <trkpt lat="45.89463" lon="3.05139">
        <ele>436.5</ele>
        <time>1970-01-01T00:25:46.000Z</time>
      </trkpt>
      <trkpt lat="45.89461" lon="3.05137">
        <ele>436.7</ele>
        <time>1970-01-01T00:25:47.000Z</time>
      </trkpt>
      <trkpt lat="45.8946" lon="3.05135">
        <ele>436.9</ele>
        <time>1970-01-01T00:25:48.000Z</time>
      </trkpt>
      <trkpt lat="45.89459" lon="3.05133">
        <ele>437.1</ele>
        <time>1970-01-01T00:25:49.000Z</time>
      </trkpt>
      <trkpt lat="45.89458" lon="3.05132">
        <ele>437.3</ele>
        <time>1970-01-01T00:25:50.000Z</time>
      </trkpt>
      <trkpt lat="45.89456" lon="3.0513">
        <ele>437.6</ele>
        <time>1970-01-01T00:25:51.000Z</time>
      </trkpt>
      <trkpt lat="45.89455" lon="3.05129">
        <ele>437.8</ele>
        <time>1970-01-01T00:25:52.000Z</time>
      </trkpt>
      <trkpt lat="45.89453" lon="3.05128">
        <ele>438</ele>
        <time>1970-01-01T00:25:53.000Z</time>
      </trkpt>
      <trkpt lat="45.89451" lon="3.05127">
        <ele>438.2</ele>
        <time>1970-01-01T00:25:54.000Z</time>
      </trkpt>
      <trkpt lat="45.8945" lon="3.05126">
        <ele>438.4</ele>
        <time>1970-01-01T00:25:55.000Z</time>
      </trkpt>
      <trkpt lat="45.89447" lon="3.05125">
        <ele>438.8</ele>
        <time>1970-01-01T00:25:57.000Z</time>
      </trkpt>
      <trkpt lat="45.89446" lon="3.05124">
        <ele>439</ele>
        <time>1970-01-01T00:25:58.000Z</time>
      </trkpt>
      <trkpt lat="45.89444" lon="3.05123">
        <ele>439.3</ele>
        <time>1970-01-01T00:25:59.000Z</time>
      </trkpt>
      <trkpt lat="45.89442" lon="3.05123">
        <ele>439.6</ele>
        <time>1970-01-01T00:26:00.000Z</time>
      </trkpt>
      <trkpt lat="45.89441" lon="3.05122">
        <ele>439.7</ele>
        <time>1970-01-01T00:26:01.000Z</time>
      </trkpt>
      <trkpt lat="45.8944" lon="3.05122">
        <ele>439.8</ele>
        <time>1970-01-01T00:26:02.000Z</time>
      </trkpt>
      <trkpt lat="45.89439" lon="3.05122">
        <ele>440</ele>
        <time>1970-01-01T00:26:03.000Z</time>
      </trkpt>
      <trkpt lat="45.89437" lon="3.05122">
        <ele>440.2</ele>
        <time>1970-01-01T00:26:04.000Z</time>
      </trkpt>
      <trkpt lat="45.89436" lon="3.05122">
        <ele>440.4</ele>
        <time>1970-01-01T00:26:05.000Z</time>
      </trkpt>
      <trkpt lat="45.89433" lon="3.05121">
        <ele>440.8</ele>
        <time>1970-01-01T00:26:07.000Z</time>
      </trkpt>
      <trkpt lat="45.89432" lon="3.05121">
        <ele>441</ele>
        <time>1970-01-01T00:26:08.000Z</time>
      </trkpt>
      <trkpt lat="45.8943" lon="3.05121">
        <ele>441.3</ele>
        <time>1970-01-01T00:26:09.000Z</time>
      </trkpt>
      <trkpt lat="45.89428" lon="3.0512">
        <ele>441.5</ele>
        <time>1970-01-01T00:26:10.000Z</time>
      </trkpt>
      <trkpt lat="45.89427" lon="3.0512">
        <ele>441.6</ele>
        <time>1970-01-01T00:26:11.000Z</time>
      </trkpt>
      <trkpt lat="45.89427" lon="3.0512">
        <ele>441.8</ele>
        <time>1970-01-01T00:26:12.000Z</time>
      </trkpt>
      <trkpt lat="45.89425" lon="3.05119">
        <ele>442</ele>
        <time>1970-01-01T00:26:13.000Z</time>
      </trkpt>
      <trkpt lat="45.89424" lon="3.05118">
        <ele>442.1</ele>
        <time>1970-01-01T00:26:14.000Z</time>
      </trkpt>
      <trkpt lat="45.89423" lon="3.05117">
        <ele>442.3</ele>
        <time>1970-01-01T00:26:15.000Z</time>
      </trkpt>
      <trkpt lat="45.89422" lon="3.05115">
        <ele>442.5</ele>
        <time>1970-01-01T00:26:16.000Z</time>
      </trkpt>
      <trkpt lat="45.89421" lon="3.05114">
        <ele>442.6</ele>
        <time>1970-01-01T00:26:17.000Z</time>
      </trkpt>
      <trkpt lat="45.8942" lon="3.05112">
        <ele>442.8</ele>
        <time>1970-01-01T00:26:18.000Z</time>
      </trkpt>
      <trkpt lat="45.89418" lon="3.05109">
        <ele>443</ele>
        <time>1970-01-01T00:26:19.000Z</time>
      </trkpt>
      <trkpt lat="45.89417" lon="3.05108">
        <ele>443.1</ele>
        <time>1970-01-01T00:26:20.000Z</time>
      </trkpt>
      <trkpt lat="45.89416" lon="3.05106">
        <ele>443.2</ele>
        <time>1970-01-01T00:26:21.000Z</time>
      </trkpt>
      <trkpt lat="45.89413" lon="3.05103">
        <ele>443.5</ele>
        <time>1970-01-01T00:26:23.000Z</time>
      </trkpt>
      <trkpt lat="45.89409" lon="3.05101">
        <ele>443.7</ele>
        <time>1970-01-01T00:26:24.000Z</time>
      </trkpt>
      <trkpt lat="45.89408" lon="3.05101">
        <ele>443.7</ele>
        <time>1970-01-01T00:26:25.000Z</time>
      </trkpt>
      <trkpt lat="45.89402" lon="3.05099">
        <ele>443.8</ele>
        <time>1970-01-01T00:26:27.000Z</time>
      </trkpt>
      <trkpt lat="45.89399" lon="3.05099">
        <ele>443.9</ele>
        <time>1970-01-01T00:26:28.000Z</time>
      </trkpt>
      <trkpt lat="45.89396" lon="3.05098">
        <ele>444</ele>
        <time>1970-01-01T00:26:29.000Z</time>
      </trkpt>
      <trkpt lat="45.89393" lon="3.05097">
        <ele>444</ele>
        <time>1970-01-01T00:26:30.000Z</time>
      </trkpt>
      <trkpt lat="45.8939" lon="3.05096">
        <ele>444.1</ele>
        <time>1970-01-01T00:26:31.000Z</time>
      </trkpt>
      <trkpt lat="45.89387" lon="3.05096">
        <ele>444.2</ele>
        <time>1970-01-01T00:26:32.000Z</time>
      </trkpt>
      <trkpt lat="45.89384" lon="3.05095">
        <ele>444.3</ele>
        <time>1970-01-01T00:26:33.000Z</time>
      </trkpt>
      <trkpt lat="45.89382" lon="3.05094">
        <ele>444.3</ele>
        <time>1970-01-01T00:26:34.000Z</time>
      </trkpt>
      <trkpt lat="45.89379" lon="3.05093">
        <ele>444.4</ele>
        <time>1970-01-01T00:26:35.000Z</time>
      </trkpt>
      <trkpt lat="45.89377" lon="3.05093">
        <ele>444.5</ele>
        <time>1970-01-01T00:26:36.000Z</time>
      </trkpt>
      <trkpt lat="45.89374" lon="3.05091">
        <ele>444.6</ele>
        <time>1970-01-01T00:26:37.000Z</time>
      </trkpt>
      <trkpt lat="45.89368" lon="3.05089">
        <ele>444.8</ele>
        <time>1970-01-01T00:26:39.000Z</time>
      </trkpt>
      <trkpt lat="45.89365" lon="3.05087">
        <ele>444.9</ele>
        <time>1970-01-01T00:26:40.000Z</time>
      </trkpt>
      <trkpt lat="45.89362" lon="3.05086">
        <ele>445</ele>
        <time>1970-01-01T00:26:41.000Z</time>
      </trkpt>
      <trkpt lat="45.89359" lon="3.05083">
        <ele>445.2</ele>
        <time>1970-01-01T00:26:42.000Z</time>
      </trkpt>
      <trkpt lat="45.89357" lon="3.05083">
        <ele>445.2</ele>
        <time>1970-01-01T00:26:43.000Z</time>
      </trkpt>
      <trkpt lat="45.89354" lon="3.05081">
        <ele>445.3</ele>
        <time>1970-01-01T00:26:44.000Z</time>
      </trkpt>
      <trkpt lat="45.89351" lon="3.05081">
        <ele>445.5</ele>
        <time>1970-01-01T00:26:45.000Z</time>
      </trkpt>
      <trkpt lat="45.89348" lon="3.05081">
        <ele>445.6</ele>
        <time>1970-01-01T00:26:46.000Z</time>
      </trkpt>
      <trkpt lat="45.89345" lon="3.0508">
        <ele>445.7</ele>
        <time>1970-01-01T00:26:47.000Z</time>
      </trkpt>
      <trkpt lat="45.89342" lon="3.05078">
        <ele>445.8</ele>
        <time>1970-01-01T00:26:48.000Z</time>
      </trkpt>
      <trkpt lat="45.89339" lon="3.05077">
        <ele>445.9</ele>
        <time>1970-01-01T00:26:49.000Z</time>
      </trkpt>
      <trkpt lat="45.89336" lon="3.05077">
        <ele>446</ele>
        <time>1970-01-01T00:26:50.000Z</time>
      </trkpt>
      <trkpt lat="45.89332" lon="3.05076">
        <ele>446.2</ele>
        <time>1970-01-01T00:26:51.000Z</time>
      </trkpt>
      <trkpt lat="45.89331" lon="3.05075">
        <ele>446.2</ele>
        <time>1970-01-01T00:26:52.000Z</time>
      </trkpt>
      <trkpt lat="45.89327" lon="3.05073">
        <ele>446.3</ele>
        <time>1970-01-01T00:26:53.000Z</time>
      </trkpt>
      <trkpt lat="45.89326" lon="3.05073">
        <ele>446.4</ele>
        <time>1970-01-01T00:26:54.000Z</time>
      </trkpt>
      <trkpt lat="45.89323" lon="3.05072">
        <ele>446.5</ele>
        <time>1970-01-01T00:26:55.000Z</time>
      </trkpt>
      <trkpt lat="45.89319" lon="3.0507">
        <ele>446.6</ele>
        <time>1970-01-01T00:26:56.000Z</time>
      </trkpt>
      <trkpt lat="45.89318" lon="3.05069">
        <ele>446.7</ele>
        <time>1970-01-01T00:26:57.000Z</time>
      </trkpt>
      <trkpt lat="45.89315" lon="3.05067">
        <ele>446.8</ele>
        <time>1970-01-01T00:26:58.000Z</time>
      </trkpt>
      <trkpt lat="45.89311" lon="3.05065">
        <ele>446.9</ele>
        <time>1970-01-01T00:26:59.000Z</time>
      </trkpt>
      <trkpt lat="45.89306" lon="3.05062">
        <ele>447.1</ele>
        <time>1970-01-01T00:27:01.000Z</time>
      </trkpt>
      <trkpt lat="45.89303" lon="3.05061">
        <ele>447.2</ele>
        <time>1970-01-01T00:27:02.000Z</time>
      </trkpt>
      <trkpt lat="45.89298" lon="3.05059">
        <ele>447.3</ele>
        <time>1970-01-01T00:27:04.000Z</time>
      </trkpt>
      <trkpt lat="45.89295" lon="3.05058">
        <ele>447.4</ele>
        <time>1970-01-01T00:27:05.000Z</time>
      </trkpt>
      <trkpt lat="45.89292" lon="3.05056">
        <ele>447.5</ele>
        <time>1970-01-01T00:27:06.000Z</time>
      </trkpt>
      <trkpt lat="45.89291" lon="3.05055">
        <ele>448</ele>
        <time>1970-01-01T00:27:07.000Z</time>
      </trkpt>
      <trkpt lat="45.8929" lon="3.0505">
        <ele>448.2</ele>
        <time>1970-01-01T00:27:08.000Z</time>
      </trkpt>
      <trkpt lat="45.8929" lon="3.05049">
        <ele>448.3</ele>
        <time>1970-01-01T00:27:09.000Z</time>
      </trkpt>
      <trkpt lat="45.89291" lon="3.05046">
        <ele>448.5</ele>
        <time>1970-01-01T00:27:10.000Z</time>
      </trkpt>
      <trkpt lat="45.89291" lon="3.05044">
        <ele>448.6</ele>
        <time>1970-01-01T00:27:11.000Z</time>
      </trkpt>
      <trkpt lat="45.89293" lon="3.05041">
        <ele>448.8</ele>
        <time>1970-01-01T00:27:12.000Z</time>
      </trkpt>
      <trkpt lat="45.89294" lon="3.05041">
        <ele>448.9</ele>
        <time>1970-01-01T00:27:13.000Z</time>
      </trkpt>
      <trkpt lat="45.89297" lon="3.05038">
        <ele>449.2</ele>
        <time>1970-01-01T00:27:15.000Z</time>
      </trkpt>
      <trkpt lat="45.89298" lon="3.05037">
        <ele>449.3</ele>
        <time>1970-01-01T00:27:16.000Z</time>
      </trkpt>
      <trkpt lat="45.893" lon="3.05035">
        <ele>449.5</ele>
        <time>1970-01-01T00:27:17.000Z</time>
      </trkpt>
      <trkpt lat="45.89301" lon="3.05035">
        <ele>449.6</ele>
        <time>1970-01-01T00:27:18.000Z</time>
      </trkpt>
      <trkpt lat="45.89304" lon="3.05032">
        <ele>449.9</ele>
        <time>1970-01-01T00:27:19.000Z</time>
      </trkpt>
      <trkpt lat="45.89304" lon="3.05032">
        <ele>449.9</ele>
        <time>1970-01-01T00:27:20.000Z</time>
      </trkpt>
      <trkpt lat="45.89307" lon="3.05029">
        <ele>450.2</ele>
        <time>1970-01-01T00:27:21.000Z</time>
      </trkpt>
      <trkpt lat="45.89308" lon="3.05028">
        <ele>450.4</ele>
        <time>1970-01-01T00:27:22.000Z</time>
      </trkpt>
      <trkpt lat="45.8931" lon="3.05024">
        <ele>450.6</ele>
        <time>1970-01-01T00:27:23.000Z</time>
      </trkpt>
      <trkpt lat="45.89311" lon="3.05023">
        <ele>450.7</ele>
        <time>1970-01-01T00:27:24.000Z</time>
      </trkpt>
      <trkpt lat="45.89312" lon="3.0502">
        <ele>451</ele>
        <time>1970-01-01T00:27:26.000Z</time>
      </trkpt>
      <trkpt lat="45.89314" lon="3.05018">
        <ele>451.2</ele>
        <time>1970-01-01T00:27:27.000Z</time>
      </trkpt>
      <trkpt lat="45.89317" lon="3.05014">
        <ele>451.4</ele>
        <time>1970-01-01T00:27:29.000Z</time>
      </trkpt>
      <trkpt lat="45.89319" lon="3.05011">
        <ele>451.7</ele>
        <time>1970-01-01T00:27:30.000Z</time>
      </trkpt>
      <trkpt lat="45.8932" lon="3.0501">
        <ele>451.8</ele>
        <time>1970-01-01T00:27:31.000Z</time>
      </trkpt>
      <trkpt lat="45.89322" lon="3.05008">
        <ele>452</ele>
        <time>1970-01-01T00:27:32.000Z</time>
      </trkpt>
      <trkpt lat="45.89325" lon="3.05003">
        <ele>452.4</ele>
        <time>1970-01-01T00:27:34.000Z</time>
      </trkpt>
      <trkpt lat="45.89327" lon="3.05001">
        <ele>452.6</ele>
        <time>1970-01-01T00:27:35.000Z</time>
      </trkpt>
      <trkpt lat="45.89328" lon="3.04999">
        <ele>452.7</ele>
        <time>1970-01-01T00:27:36.000Z</time>
      </trkpt>
      <trkpt lat="45.89331" lon="3.04994">
        <ele>453.1</ele>
        <time>1970-01-01T00:27:38.000Z</time>
      </trkpt>
      <trkpt lat="45.89332" lon="3.04993">
        <ele>453.2</ele>
        <time>1970-01-01T00:27:39.000Z</time>
      </trkpt>
      <trkpt lat="45.89333" lon="3.04991">
        <ele>453.4</ele>
        <time>1970-01-01T00:27:40.000Z</time>
      </trkpt>
      <trkpt lat="45.89335" lon="3.04988">
        <ele>453.7</ele>
        <time>1970-01-01T00:27:41.000Z</time>
      </trkpt>
      <trkpt lat="45.89336" lon="3.04986">
        <ele>453.8</ele>
        <time>1970-01-01T00:27:42.000Z</time>
      </trkpt>
      <trkpt lat="45.89338" lon="3.04982">
        <ele>454.1</ele>
        <time>1970-01-01T00:27:44.000Z</time>
      </trkpt>
      <trkpt lat="45.89338" lon="3.0498">
        <ele>454.3</ele>
        <time>1970-01-01T00:27:45.000Z</time>
      </trkpt>
      <trkpt lat="45.89339" lon="3.04979">
        <ele>454.4</ele>
        <time>1970-01-01T00:27:46.000Z</time>
      </trkpt>
      <trkpt lat="45.8934" lon="3.04975">
        <ele>454.8</ele>
        <time>1970-01-01T00:27:47.000Z</time>
      </trkpt>
      <trkpt lat="45.8934" lon="3.04974">
        <ele>454.9</ele>
        <time>1970-01-01T00:27:48.000Z</time>
      </trkpt>
      <trkpt lat="45.89342" lon="3.0497">
        <ele>455.2</ele>
        <time>1970-01-01T00:27:49.000Z</time>
      </trkpt>
      <trkpt lat="45.89342" lon="3.04969">
        <ele>455.3</ele>
        <time>1970-01-01T00:27:50.000Z</time>
      </trkpt>
      <trkpt lat="45.89343" lon="3.04967">
        <ele>455.6</ele>
        <time>1970-01-01T00:27:51.000Z</time>
      </trkpt>
      <trkpt lat="45.89345" lon="3.04964">
        <ele>455.9</ele>
        <time>1970-01-01T00:27:53.000Z</time>
      </trkpt>
      <trkpt lat="45.89346" lon="3.04962">
        <ele>456.1</ele>
        <time>1970-01-01T00:27:54.000Z</time>
      </trkpt>
      <trkpt lat="45.89347" lon="3.0496">
        <ele>456.3</ele>
        <time>1970-01-01T00:27:55.000Z</time>
      </trkpt>
      <trkpt lat="45.89347" lon="3.04958">
        <ele>456.5</ele>
        <time>1970-01-01T00:27:56.000Z</time>
      </trkpt>
      <trkpt lat="45.89347" lon="3.04956">
        <ele>456.7</ele>
        <time>1970-01-01T00:27:57.000Z</time>
      </trkpt>
      <trkpt lat="45.89347" lon="3.04951">
        <ele>457.2</ele>
        <time>1970-01-01T00:27:58.000Z</time>
      </trkpt>
      <trkpt lat="45.89347" lon="3.04949">
        <ele>457.3</ele>
        <time>1970-01-01T00:27:59.000Z</time>
      </trkpt>
      <trkpt lat="45.89347" lon="3.04947">
        <ele>457.6</ele>
        <time>1970-01-01T00:28:00.000Z</time>
      </trkpt>
      <trkpt lat="45.89347" lon="3.04944">
        <ele>457.9</ele>
        <time>1970-01-01T00:28:02.000Z</time>
      </trkpt>
      <trkpt lat="45.89345" lon="3.04941">
        <ele>458.3</ele>
        <time>1970-01-01T00:28:03.000Z</time>
      </trkpt>
      <trkpt lat="45.89345" lon="3.04939">
        <ele>458.4</ele>
        <time>1970-01-01T00:28:04.000Z</time>
      </trkpt>
      <trkpt lat="45.89344" lon="3.04936">
        <ele>458.8</ele>
        <time>1970-01-01T00:28:05.000Z</time>
      </trkpt>
      <trkpt lat="45.89343" lon="3.04935">
        <ele>459</ele>
        <time>1970-01-01T00:28:06.000Z</time>
      </trkpt>
      <trkpt lat="45.89342" lon="3.04931">
        <ele>459.5</ele>
        <time>1970-01-01T00:28:08.000Z</time>
      </trkpt>
      <trkpt lat="45.89341" lon="3.0493">
        <ele>459.6</ele>
        <time>1970-01-01T00:28:09.000Z</time>
      </trkpt>
      <trkpt lat="45.89341" lon="3.04928">
        <ele>459.8</ele>
        <time>1970-01-01T00:28:10.000Z</time>
      </trkpt>
      <trkpt lat="45.89339" lon="3.04926">
        <ele>460.2</ele>
        <time>1970-01-01T00:28:11.000Z</time>
      </trkpt>
      <trkpt lat="45.89338" lon="3.04924">
        <ele>460.5</ele>
        <time>1970-01-01T00:28:12.000Z</time>
      </trkpt>
      <trkpt lat="45.89337" lon="3.04922">
        <ele>460.9</ele>
        <time>1970-01-01T00:28:14.000Z</time>
      </trkpt>
      <trkpt lat="45.89336" lon="3.0492">
        <ele>461.2</ele>
        <time>1970-01-01T00:28:15.000Z</time>
      </trkpt>
      <trkpt lat="45.89335" lon="3.04918">
        <ele>461.4</ele>
        <time>1970-01-01T00:28:16.000Z</time>
      </trkpt>
      <trkpt lat="45.89335" lon="3.04917">
        <ele>461.6</ele>
        <time>1970-01-01T00:28:17.000Z</time>
      </trkpt>
      <trkpt lat="45.89334" lon="3.04914">
        <ele>462.1</ele>
        <time>1970-01-01T00:28:18.000Z</time>
      </trkpt>
      <trkpt lat="45.89334" lon="3.04912">
        <ele>462.2</ele>
        <time>1970-01-01T00:28:19.000Z</time>
      </trkpt>
      <trkpt lat="45.89333" lon="3.04911">
        <ele>462.4</ele>
        <time>1970-01-01T00:28:20.000Z</time>
      </trkpt>
      <trkpt lat="45.89333" lon="3.04909">
        <ele>462.7</ele>
        <time>1970-01-01T00:28:21.000Z</time>
      </trkpt>
      <trkpt lat="45.89333" lon="3.04905">
        <ele>463.2</ele>
        <time>1970-01-01T00:28:23.000Z</time>
      </trkpt>
      <trkpt lat="45.89332" lon="3.04901">
        <ele>463.8</ele>
        <time>1970-01-01T00:28:25.000Z</time>
      </trkpt>
      <trkpt lat="45.89331" lon="3.04899">
        <ele>463.9</ele>
        <time>1970-01-01T00:28:26.000Z</time>
      </trkpt>
      <trkpt lat="45.8933" lon="3.04895">
        <ele>464.5</ele>
        <time>1970-01-01T00:28:28.000Z</time>
      </trkpt>
      <trkpt lat="45.8933" lon="3.04894">
        <ele>464.6</ele>
        <time>1970-01-01T00:28:29.000Z</time>
      </trkpt>
      <trkpt lat="45.89329" lon="3.04892">
        <ele>464.8</ele>
        <time>1970-01-01T00:28:30.000Z</time>
      </trkpt>
      <trkpt lat="45.89329" lon="3.0489">
        <ele>465</ele>
        <time>1970-01-01T00:28:31.000Z</time>
      </trkpt>
      <trkpt lat="45.89329" lon="3.04887">
        <ele>465.4</ele>
        <time>1970-01-01T00:28:33.000Z</time>
      </trkpt>
      <trkpt lat="45.8933" lon="3.04886">
        <ele>465.5</ele>
        <time>1970-01-01T00:28:34.000Z</time>
      </trkpt>
      <trkpt lat="45.8933" lon="3.04884">
        <ele>465.7</ele>
        <time>1970-01-01T00:28:35.000Z</time>
      </trkpt>
      <trkpt lat="45.89329" lon="3.04881">
        <ele>466</ele>
        <time>1970-01-01T00:28:37.000Z</time>
      </trkpt>
      <trkpt lat="45.89329" lon="3.04876">
        <ele>466.4</ele>
        <time>1970-01-01T00:28:38.000Z</time>
      </trkpt>
      <trkpt lat="45.89329" lon="3.04875">
        <ele>466.5</ele>
        <time>1970-01-01T00:28:39.000Z</time>
      </trkpt>
      <trkpt lat="45.89327" lon="3.04871">
        <ele>466.8</ele>
        <time>1970-01-01T00:28:41.000Z</time>
      </trkpt>
      <trkpt lat="45.89327" lon="3.0487">
        <ele>466.9</ele>
        <time>1970-01-01T00:28:42.000Z</time>
      </trkpt>
      <trkpt lat="45.89327" lon="3.04868">
        <ele>467</ele>
        <time>1970-01-01T00:28:43.000Z</time>
      </trkpt>
      <trkpt lat="45.89326" lon="3.04866">
        <ele>467.1</ele>
        <time>1970-01-01T00:28:44.000Z</time>
      </trkpt>
      <trkpt lat="45.89324" lon="3.04864">
        <ele>467.3</ele>
        <time>1970-01-01T00:28:45.000Z</time>
      </trkpt>
      <trkpt lat="45.89322" lon="3.04863">
        <ele>467.4</ele>
        <time>1970-01-01T00:28:47.000Z</time>
      </trkpt>
      <trkpt lat="45.89318" lon="3.04861">
        <ele>467.6</ele>
        <time>1970-01-01T00:28:48.000Z</time>
      </trkpt>
      <trkpt lat="45.89317" lon="3.0486">
        <ele>467.7</ele>
        <time>1970-01-01T00:28:49.000Z</time>
      </trkpt>
      <trkpt lat="45.89311" lon="3.04858">
        <ele>468</ele>
        <time>1970-01-01T00:28:50.000Z</time>
      </trkpt>
      <trkpt lat="45.89308" lon="3.04855">
        <ele>468.1</ele>
        <time>1970-01-01T00:28:52.000Z</time>
      </trkpt>
      <trkpt lat="45.89307" lon="3.04852">
        <ele>468.2</ele>
        <time>1970-01-01T00:28:53.000Z</time>
      </trkpt>
      <trkpt lat="45.89308" lon="3.04844">
        <ele>469.1</ele>
        <time>1970-01-01T00:28:55.000Z</time>
      </trkpt>
      <trkpt lat="45.89309" lon="3.04842">
        <ele>469.5</ele>
        <time>1970-01-01T00:28:57.000Z</time>
      </trkpt>
      <trkpt lat="45.8931" lon="3.04841">
        <ele>469.6</ele>
        <time>1970-01-01T00:28:58.000Z</time>
      </trkpt>
      <trkpt lat="45.89311" lon="3.04838">
        <ele>470.1</ele>
        <time>1970-01-01T00:28:59.000Z</time>
      </trkpt>
      <trkpt lat="45.89312" lon="3.04836">
        <ele>470.3</ele>
        <time>1970-01-01T00:29:00.000Z</time>
      </trkpt>
      <trkpt lat="45.89313" lon="3.04834">
        <ele>470.6</ele>
        <time>1970-01-01T00:29:02.000Z</time>
      </trkpt>
      <trkpt lat="45.89313" lon="3.04833">
        <ele>470.8</ele>
        <time>1970-01-01T00:29:03.000Z</time>
      </trkpt>
      <trkpt lat="45.89313" lon="3.04831">
        <ele>471</ele>
        <time>1970-01-01T00:29:04.000Z</time>
      </trkpt>
      <trkpt lat="45.89314" lon="3.0483">
        <ele>471.2</ele>
        <time>1970-01-01T00:29:05.000Z</time>
      </trkpt>
      <trkpt lat="45.89314" lon="3.04828">
        <ele>471.5</ele>
        <time>1970-01-01T00:29:06.000Z</time>
      </trkpt>
      <trkpt lat="45.89314" lon="3.04825">
        <ele>471.7</ele>
        <time>1970-01-01T00:29:07.000Z</time>
      </trkpt>
      <trkpt lat="45.89315" lon="3.04823">
        <ele>472</ele>
        <time>1970-01-01T00:29:08.000Z</time>
      </trkpt>
      <trkpt lat="45.89316" lon="3.04821">
        <ele>472.3</ele>
        <time>1970-01-01T00:29:09.000Z</time>
      </trkpt>
      <trkpt lat="45.89316" lon="3.0482">
        <ele>472.5</ele>
        <time>1970-01-01T00:29:10.000Z</time>
      </trkpt>
      <trkpt lat="45.89316" lon="3.04817">
        <ele>472.8</ele>
        <time>1970-01-01T00:29:11.000Z</time>
      </trkpt>
      <trkpt lat="45.89316" lon="3.04813">
        <ele>473.5</ele>
        <time>1970-01-01T00:29:12.000Z</time>
      </trkpt>
      <trkpt lat="45.89317" lon="3.04811">
        <ele>473.8</ele>
        <time>1970-01-01T00:29:13.000Z</time>
      </trkpt>
      <trkpt lat="45.89317" lon="3.04809">
        <ele>474</ele>
        <time>1970-01-01T00:29:15.000Z</time>
      </trkpt>
      <trkpt lat="45.89317" lon="3.04807">
        <ele>474.3</ele>
        <time>1970-01-01T00:29:16.000Z</time>
      </trkpt>
      <trkpt lat="45.89318" lon="3.04804">
        <ele>474.7</ele>
        <time>1970-01-01T00:29:17.000Z</time>
      </trkpt>
      <trkpt lat="45.89319" lon="3.04803">
        <ele>474.9</ele>
        <time>1970-01-01T00:29:18.000Z</time>
      </trkpt>
      <trkpt lat="45.89319" lon="3.04801">
        <ele>475.1</ele>
        <time>1970-01-01T00:29:19.000Z</time>
      </trkpt>
      <trkpt lat="45.89321" lon="3.04798">
        <ele>475.7</ele>
        <time>1970-01-01T00:29:21.000Z</time>
      </trkpt>
      <trkpt lat="45.89321" lon="3.04797">
        <ele>475.9</ele>
        <time>1970-01-01T00:29:22.000Z</time>
      </trkpt>
      <trkpt lat="45.89322" lon="3.04795">
        <ele>476.2</ele>
        <time>1970-01-01T00:29:23.000Z</time>
      </trkpt>
      <trkpt lat="45.89323" lon="3.04793">
        <ele>476.5</ele>
        <time>1970-01-01T00:29:24.000Z</time>
      </trkpt>
      <trkpt lat="45.89323" lon="3.04789">
        <ele>477.1</ele>
        <time>1970-01-01T00:29:25.000Z</time>
      </trkpt>
      <trkpt lat="45.89324" lon="3.04788">
        <ele>477.3</ele>
        <time>1970-01-01T00:29:27.000Z</time>
      </trkpt>
      <trkpt lat="45.89324" lon="3.04787">
        <ele>477.5</ele>
        <time>1970-01-01T00:29:28.000Z</time>
      </trkpt>
      <trkpt lat="45.89324" lon="3.04785">
        <ele>477.7</ele>
        <time>1970-01-01T00:29:29.000Z</time>
      </trkpt>
      <trkpt lat="45.89325" lon="3.04784">
        <ele>477.9</ele>
        <time>1970-01-01T00:29:30.000Z</time>
      </trkpt>
      <trkpt lat="45.89325" lon="3.04781">
        <ele>478.3</ele>
        <time>1970-01-01T00:29:32.000Z</time>
      </trkpt>
      <trkpt lat="45.89325" lon="3.04779">
        <ele>478.6</ele>
        <time>1970-01-01T00:29:33.000Z</time>
      </trkpt>
      <trkpt lat="45.89324" lon="3.04777">
        <ele>478.9</ele>
        <time>1970-01-01T00:29:34.000Z</time>
      </trkpt>
      <trkpt lat="45.89324" lon="3.04774">
        <ele>479.3</ele>
        <time>1970-01-01T00:29:36.000Z</time>
      </trkpt>
      <trkpt lat="45.89324" lon="3.04772">
        <ele>479.5</ele>
        <time>1970-01-01T00:29:37.000Z</time>
      </trkpt>
      <trkpt lat="45.89323" lon="3.0477">
        <ele>479.8</ele>
        <time>1970-01-01T00:29:38.000Z</time>
      </trkpt>
      <trkpt lat="45.89323" lon="3.04768">
        <ele>480.1</ele>
        <time>1970-01-01T00:29:39.000Z</time>
      </trkpt>
      <trkpt lat="45.89322" lon="3.04765">
        <ele>480.5</ele>
        <time>1970-01-01T00:29:41.000Z</time>
      </trkpt>
      <trkpt lat="45.89322" lon="3.04761">
        <ele>480.9</ele>
        <time>1970-01-01T00:29:42.000Z</time>
      </trkpt>
      <trkpt lat="45.89322" lon="3.0476">
        <ele>481.1</ele>
        <time>1970-01-01T00:29:43.000Z</time>
      </trkpt>
      <trkpt lat="45.89322" lon="3.04758">
        <ele>481.3</ele>
        <time>1970-01-01T00:29:44.000Z</time>
      </trkpt>
      <trkpt lat="45.89321" lon="3.04754">
        <ele>481.9</ele>
        <time>1970-01-01T00:29:46.000Z</time>
      </trkpt>
      <trkpt lat="45.89321" lon="3.04752">
        <ele>482.1</ele>
        <time>1970-01-01T00:29:47.000Z</time>
      </trkpt>
      <trkpt lat="45.89321" lon="3.04747">
        <ele>482.7</ele>
        <time>1970-01-01T00:29:49.000Z</time>
      </trkpt>
      <trkpt lat="45.89321" lon="3.04746">
        <ele>482.9</ele>
        <time>1970-01-01T00:29:50.000Z</time>
      </trkpt>
      <trkpt lat="45.8932" lon="3.04743">
        <ele>483.3</ele>
        <time>1970-01-01T00:29:52.000Z</time>
      </trkpt>
      <trkpt lat="45.8932" lon="3.04742">
        <ele>483.4</ele>
        <time>1970-01-01T00:29:53.000Z</time>
      </trkpt>
      <trkpt lat="45.89319" lon="3.0474">
        <ele>483.7</ele>
        <time>1970-01-01T00:29:54.000Z</time>
      </trkpt>
      <trkpt lat="45.89319" lon="3.04738">
        <ele>483.9</ele>
        <time>1970-01-01T00:29:55.000Z</time>
      </trkpt>
      <trkpt lat="45.89318" lon="3.04736">
        <ele>484.2</ele>
        <time>1970-01-01T00:29:56.000Z</time>
      </trkpt>
      <trkpt lat="45.89318" lon="3.04733">
        <ele>484.5</ele>
        <time>1970-01-01T00:29:57.000Z</time>
      </trkpt>
      <trkpt lat="45.89317" lon="3.04728">
        <ele>485.2</ele>
        <time>1970-01-01T00:29:59.000Z</time>
      </trkpt>
      <trkpt lat="45.89316" lon="3.04727">
        <ele>485.4</ele>
        <time>1970-01-01T00:30:00.000Z</time>
      </trkpt>
      <trkpt lat="45.89316" lon="3.04725">
        <ele>485.6</ele>
        <time>1970-01-01T00:30:01.000Z</time>
      </trkpt>
      <trkpt lat="45.89315" lon="3.04724">
        <ele>485.8</ele>
        <time>1970-01-01T00:30:02.000Z</time>
      </trkpt>
      <trkpt lat="45.89314" lon="3.0472">
        <ele>486.3</ele>
        <time>1970-01-01T00:30:04.000Z</time>
      </trkpt>
      <trkpt lat="45.89314" lon="3.04719">
        <ele>486.5</ele>
        <time>1970-01-01T00:30:05.000Z</time>
      </trkpt>
      <trkpt lat="45.89313" lon="3.04715">
        <ele>487</ele>
        <time>1970-01-01T00:30:06.000Z</time>
      </trkpt>
      <trkpt lat="45.89312" lon="3.04713">
        <ele>487.2</ele>
        <time>1970-01-01T00:30:08.000Z</time>
      </trkpt>
      <trkpt lat="45.89312" lon="3.04712">
        <ele>487.4</ele>
        <time>1970-01-01T00:30:09.000Z</time>
      </trkpt>
      <trkpt lat="45.89312" lon="3.04711">
        <ele>487.5</ele>
        <time>1970-01-01T00:30:10.000Z</time>
      </trkpt>
      <trkpt lat="45.89311" lon="3.04709">
        <ele>487.7</ele>
        <time>1970-01-01T00:30:11.000Z</time>
      </trkpt>
      <trkpt lat="45.89311" lon="3.04707">
        <ele>488</ele>
        <time>1970-01-01T00:30:12.000Z</time>
      </trkpt>
      <trkpt lat="45.89311" lon="3.04706">
        <ele>488.1</ele>
        <time>1970-01-01T00:30:13.000Z</time>
      </trkpt>
      <trkpt lat="45.8931" lon="3.04702">
        <ele>488.6</ele>
        <time>1970-01-01T00:30:15.000Z</time>
      </trkpt>
      <trkpt lat="45.89309" lon="3.047">
        <ele>488.8</ele>
        <time>1970-01-01T00:30:16.000Z</time>
      </trkpt>
      <trkpt lat="45.89309" lon="3.04698">
        <ele>489.1</ele>
        <time>1970-01-01T00:30:17.000Z</time>
      </trkpt>
      <trkpt lat="45.89309" lon="3.04696">
        <ele>489.3</ele>
        <time>1970-01-01T00:30:18.000Z</time>
      </trkpt>
      <trkpt lat="45.89309" lon="3.04694">
        <ele>489.5</ele>
        <time>1970-01-01T00:30:19.000Z</time>
      </trkpt>
      <trkpt lat="45.89309" lon="3.04693">
        <ele>489.6</ele>
        <time>1970-01-01T00:30:20.000Z</time>
      </trkpt>
      <trkpt lat="45.89308" lon="3.04691">
        <ele>489.8</ele>
        <time>1970-01-01T00:30:21.000Z</time>
      </trkpt>
      <trkpt lat="45.89307" lon="3.04689">
        <ele>490</ele>
        <time>1970-01-01T00:30:22.000Z</time>
      </trkpt>
      <trkpt lat="45.89307" lon="3.04688">
        <ele>490.1</ele>
        <time>1970-01-01T00:30:23.000Z</time>
      </trkpt>
      <trkpt lat="45.89307" lon="3.04686">
        <ele>490.3</ele>
        <time>1970-01-01T00:30:24.000Z</time>
      </trkpt>
      <trkpt lat="45.89307" lon="3.04683">
        <ele>490.6</ele>
        <time>1970-01-01T00:30:26.000Z</time>
      </trkpt>
      <trkpt lat="45.89306" lon="3.0468">
        <ele>490.9</ele>
        <time>1970-01-01T00:30:27.000Z</time>
      </trkpt>
      <trkpt lat="45.89306" lon="3.04678">
        <ele>491.1</ele>
        <time>1970-01-01T00:30:28.000Z</time>
      </trkpt>
      <trkpt lat="45.89306" lon="3.04677">
        <ele>491.2</ele>
        <time>1970-01-01T00:30:29.000Z</time>
      </trkpt>
      <trkpt lat="45.89305" lon="3.04675">
        <ele>491.4</ele>
        <time>1970-01-01T00:30:30.000Z</time>
      </trkpt>
      <trkpt lat="45.89305" lon="3.04673">
        <ele>491.6</ele>
        <time>1970-01-01T00:30:31.000Z</time>
      </trkpt>
      <trkpt lat="45.89304" lon="3.04671">
        <ele>491.8</ele>
        <time>1970-01-01T00:30:32.000Z</time>
      </trkpt>
      <trkpt lat="45.89304" lon="3.04669">
        <ele>492</ele>
        <time>1970-01-01T00:30:33.000Z</time>
      </trkpt>
      <trkpt lat="45.89303" lon="3.04666">
        <ele>492.3</ele>
        <time>1970-01-01T00:30:34.000Z</time>
      </trkpt>
      <trkpt lat="45.89303" lon="3.04664">
        <ele>492.5</ele>
        <time>1970-01-01T00:30:35.000Z</time>
      </trkpt>
      <trkpt lat="45.89302" lon="3.0466">
        <ele>492.9</ele>
        <time>1970-01-01T00:30:36.000Z</time>
      </trkpt>
      <trkpt lat="45.89302" lon="3.04659">
        <ele>492.9</ele>
        <time>1970-01-01T00:30:37.000Z</time>
      </trkpt>
      <trkpt lat="45.89301" lon="3.04657">
        <ele>492.9</ele>
        <time>1970-01-01T00:30:38.000Z</time>
      </trkpt>
      <trkpt lat="45.89301" lon="3.04654">
        <ele>492.8</ele>
        <time>1970-01-01T00:30:39.000Z</time>
      </trkpt>
      <trkpt lat="45.89301" lon="3.04652">
        <ele>492.8</ele>
        <time>1970-01-01T00:30:41.000Z</time>
      </trkpt>
      <trkpt lat="45.89301" lon="3.0465">
        <ele>492.8</ele>
        <time>1970-01-01T00:30:42.000Z</time>
      </trkpt>
      <trkpt lat="45.89301" lon="3.04649">
        <ele>492.7</ele>
        <time>1970-01-01T00:30:43.000Z</time>
      </trkpt>
      <trkpt lat="45.89301" lon="3.04647">
        <ele>492.7</ele>
        <time>1970-01-01T00:30:44.000Z</time>
      </trkpt>
      <trkpt lat="45.893" lon="3.04646">
        <ele>492.7</ele>
        <time>1970-01-01T00:30:45.000Z</time>
      </trkpt>
      <trkpt lat="45.89299" lon="3.04645">
        <ele>492.6</ele>
        <time>1970-01-01T00:30:47.000Z</time>
      </trkpt>
      <trkpt lat="45.89299" lon="3.04645">
        <ele>492.6</ele>
        <time>1970-01-01T00:30:48.000Z</time>
      </trkpt>
      <trkpt lat="45.89298" lon="3.04644">
        <ele>492.6</ele>
        <time>1970-01-01T00:30:49.000Z</time>
      </trkpt>
      <trkpt lat="45.89296" lon="3.04643">
        <ele>492.5</ele>
        <time>1970-01-01T00:30:50.000Z</time>
      </trkpt>
      <trkpt lat="45.89296" lon="3.04642">
        <ele>492.5</ele>
        <time>1970-01-01T00:30:51.000Z</time>
      </trkpt>
      <trkpt lat="45.89296" lon="3.04642">
        <ele>492.5</ele>
        <time>1970-01-01T00:30:52.000Z</time>
      </trkpt>
      <trkpt lat="45.89296" lon="3.04642">
        <ele>492.5</ele>
        <time>1970-01-01T00:30:53.000Z</time>
      </trkpt>
      <trkpt lat="45.89295" lon="3.04641">
        <ele>492.5</ele>
        <time>1970-01-01T00:30:54.000Z</time>
      </trkpt>
      <trkpt lat="45.89295" lon="3.04641">
        <ele>492.5</ele>
        <time>1970-01-01T00:30:55.000Z</time>
      </trkpt>
      <trkpt lat="45.89295" lon="3.04641">
        <ele>492.5</ele>
        <time>1970-01-01T00:30:56.000Z</time>
      </trkpt>
      <trkpt lat="45.89294" lon="3.04641">
        <ele>492.5</ele>
        <time>1970-01-01T00:30:57.000Z</time>
      </trkpt>
      <trkpt lat="45.89294" lon="3.0464">
        <ele>492.5</ele>
        <time>1970-01-01T00:30:58.000Z</time>
      </trkpt>
      <trkpt lat="45.89294" lon="3.0464">
        <ele>492.5</ele>
        <time>1970-01-01T00:30:59.000Z</time>
      </trkpt>
      <trkpt lat="45.89294" lon="3.0464">
        <ele>492.4</ele>
        <time>1970-01-01T00:31:00.000Z</time>
      </trkpt>
      <trkpt lat="45.89293" lon="3.04639">
        <ele>492.4</ele>
        <time>1970-01-01T00:31:50.000Z</time>
      </trkpt>
      <trkpt lat="45.89293" lon="3.04639">
        <ele>492.4</ele>
        <time>1970-01-01T00:31:51.000Z</time>
      </trkpt>
      <trkpt lat="45.89293" lon="3.04639">
        <ele>492.4</ele>
        <time>1970-01-01T00:31:52.000Z</time>
      </trkpt>
      <trkpt lat="45.89292" lon="3.04638">
        <ele>492.4</ele>
        <time>1970-01-01T00:31:53.000Z</time>
      </trkpt>
      <trkpt lat="45.89292" lon="3.04638">
        <ele>492.4</ele>
        <time>1970-01-01T00:31:54.000Z</time>
      </trkpt>
      <trkpt lat="45.89289" lon="3.04636">
        <ele>492.3</ele>
        <time>1970-01-01T00:31:55.000Z</time>
      </trkpt>
      <trkpt lat="45.89288" lon="3.04635">
        <ele>492.3</ele>
        <time>1970-01-01T00:31:56.000Z</time>
      </trkpt>
      <trkpt lat="45.89286" lon="3.04632">
        <ele>492.2</ele>
        <time>1970-01-01T00:31:57.000Z</time>
      </trkpt>
      <trkpt lat="45.89285" lon="3.04629">
        <ele>492.2</ele>
        <time>1970-01-01T00:31:58.000Z</time>
      </trkpt>
      <trkpt lat="45.89281" lon="3.04624">
        <ele>492.1</ele>
        <time>1970-01-01T00:32:00.000Z</time>
      </trkpt>
      <trkpt lat="45.8928" lon="3.04622">
        <ele>492.1</ele>
        <time>1970-01-01T00:32:01.000Z</time>
      </trkpt>
      <trkpt lat="45.89278" lon="3.0462">
        <ele>492.1</ele>
        <time>1970-01-01T00:32:02.000Z</time>
      </trkpt>
      <trkpt lat="45.89277" lon="3.04618">
        <ele>492</ele>
        <time>1970-01-01T00:32:03.000Z</time>
      </trkpt>
      <trkpt lat="45.89276" lon="3.04614">
        <ele>492</ele>
        <time>1970-01-01T00:32:05.000Z</time>
      </trkpt>
      <trkpt lat="45.89274" lon="3.0461">
        <ele>492.1</ele>
        <time>1970-01-01T00:32:06.000Z</time>
      </trkpt>
      <trkpt lat="45.89273" lon="3.04606">
        <ele>492.1</ele>
        <time>1970-01-01T00:32:07.000Z</time>
      </trkpt>
      <trkpt lat="45.89271" lon="3.046">
        <ele>492.1</ele>
        <time>1970-01-01T00:32:08.000Z</time>
      </trkpt>
      <trkpt lat="45.8927" lon="3.04598">
        <ele>492.2</ele>
        <time>1970-01-01T00:32:09.000Z</time>
      </trkpt>
      <trkpt lat="45.89269" lon="3.04593">
        <ele>492.2</ele>
        <time>1970-01-01T00:32:10.000Z</time>
      </trkpt>
      <trkpt lat="45.89269" lon="3.04589">
        <ele>492.3</ele>
        <time>1970-01-01T00:32:11.000Z</time>
      </trkpt>
      <trkpt lat="45.8927" lon="3.04585">
        <ele>492.4</ele>
        <time>1970-01-01T00:32:12.000Z</time>
      </trkpt>
      <trkpt lat="45.8927" lon="3.04581">
        <ele>492.5</ele>
        <time>1970-01-01T00:32:13.000Z</time>
      </trkpt>
      <trkpt lat="45.89271" lon="3.04576">
        <ele>492.7</ele>
        <time>1970-01-01T00:32:14.000Z</time>
      </trkpt>
      <trkpt lat="45.89272" lon="3.04574">
        <ele>492.7</ele>
        <time>1970-01-01T00:32:15.000Z</time>
      </trkpt>
      <trkpt lat="45.89272" lon="3.0457">
        <ele>492.8</ele>
        <time>1970-01-01T00:32:16.000Z</time>
      </trkpt>
      <trkpt lat="45.89272" lon="3.04569">
        <ele>492.8</ele>
        <time>1970-01-01T00:32:17.000Z</time>
      </trkpt>
      <trkpt lat="45.89272" lon="3.04563">
        <ele>493</ele>
        <time>1970-01-01T00:32:19.000Z</time>
      </trkpt>
      <trkpt lat="45.89272" lon="3.04561">
        <ele>493</ele>
        <time>1970-01-01T00:32:20.000Z</time>
      </trkpt>
      <trkpt lat="45.89271" lon="3.04554">
        <ele>493.1</ele>
        <time>1970-01-01T00:32:21.000Z</time>
      </trkpt>
      <trkpt lat="45.89269" lon="3.0455">
        <ele>493.2</ele>
        <time>1970-01-01T00:32:22.000Z</time>
      </trkpt>
      <trkpt lat="45.89265" lon="3.04547">
        <ele>493.2</ele>
        <time>1970-01-01T00:32:24.000Z</time>
      </trkpt>
      <trkpt lat="45.89261" lon="3.04547">
        <ele>493.2</ele>
        <time>1970-01-01T00:32:25.000Z</time>
      </trkpt>
      <trkpt lat="45.89259" lon="3.0455">
        <ele>493.1</ele>
        <time>1970-01-01T00:32:26.000Z</time>
      </trkpt>
      <trkpt lat="45.89257" lon="3.04554">
        <ele>493</ele>
        <time>1970-01-01T00:32:27.000Z</time>
      </trkpt>
      <trkpt lat="45.89254" lon="3.04558">
        <ele>492.9</ele>
        <time>1970-01-01T00:32:29.000Z</time>
      </trkpt>
      <trkpt lat="45.89252" lon="3.04561">
        <ele>492.8</ele>
        <time>1970-01-01T00:32:30.000Z</time>
      </trkpt>
      <trkpt lat="45.89246" lon="3.04565">
        <ele>492.6</ele>
        <time>1970-01-01T00:32:31.000Z</time>
      </trkpt>
      <trkpt lat="45.89243" lon="3.04579">
        <ele>492.3</ele>
        <time>1970-01-01T00:32:33.000Z</time>
      </trkpt>
      <trkpt lat="45.89241" lon="3.04585">
        <ele>492.1</ele>
        <time>1970-01-01T00:32:34.000Z</time>
      </trkpt>
      <trkpt lat="45.89238" lon="3.04589">
        <ele>492</ele>
        <time>1970-01-01T00:32:35.000Z</time>
      </trkpt>
      <trkpt lat="45.89233" lon="3.04594">
        <ele>491.8</ele>
        <time>1970-01-01T00:32:37.000Z</time>
      </trkpt>
      <trkpt lat="45.89228" lon="3.04598">
        <ele>491.7</ele>
        <time>1970-01-01T00:32:38.000Z</time>
      </trkpt>
      <trkpt lat="45.89225" lon="3.04601">
        <ele>491.6</ele>
        <time>1970-01-01T00:32:39.000Z</time>
      </trkpt>
      <trkpt lat="45.8922" lon="3.04604">
        <ele>491.5</ele>
        <time>1970-01-01T00:32:40.000Z</time>
      </trkpt>
      <trkpt lat="45.89215" lon="3.04607">
        <ele>491.4</ele>
        <time>1970-01-01T00:32:41.000Z</time>
      </trkpt>
      <trkpt lat="45.89212" lon="3.04609">
        <ele>491.4</ele>
        <time>1970-01-01T00:32:42.000Z</time>
      </trkpt>
      <trkpt lat="45.89209" lon="3.04611">
        <ele>491.3</ele>
        <time>1970-01-01T00:32:43.000Z</time>
      </trkpt>
      <trkpt lat="45.89203" lon="3.04613">
        <ele>491.2</ele>
        <time>1970-01-01T00:32:44.000Z</time>
      </trkpt>
      <trkpt lat="45.89197" lon="3.04616">
        <ele>491.1</ele>
        <time>1970-01-01T00:32:45.000Z</time>
      </trkpt>
      <trkpt lat="45.89193" lon="3.04619">
        <ele>491</ele>
        <time>1970-01-01T00:32:46.000Z</time>
      </trkpt>
      <trkpt lat="45.89185" lon="3.04625">
        <ele>490.9</ele>
        <time>1970-01-01T00:32:47.000Z</time>
      </trkpt>
      <trkpt lat="45.89178" lon="3.04632">
        <ele>490.8</ele>
        <time>1970-01-01T00:32:49.000Z</time>
      </trkpt>
      <trkpt lat="45.89174" lon="3.04636">
        <ele>490.8</ele>
        <time>1970-01-01T00:32:50.000Z</time>
      </trkpt>
      <trkpt lat="45.89171" lon="3.04641">
        <ele>490.8</ele>
        <time>1970-01-01T00:32:51.000Z</time>
      </trkpt>
      <trkpt lat="45.89166" lon="3.04646">
        <ele>490.8</ele>
        <time>1970-01-01T00:32:52.000Z</time>
      </trkpt>
      <trkpt lat="45.89163" lon="3.04651">
        <ele>490.9</ele>
        <time>1970-01-01T00:32:54.000Z</time>
      </trkpt>
      <trkpt lat="45.8916" lon="3.04652">
        <ele>491</ele>
        <time>1970-01-01T00:32:55.000Z</time>
      </trkpt>
      <trkpt lat="45.89157" lon="3.04653">
        <ele>491.1</ele>
        <time>1970-01-01T00:32:56.000Z</time>
      </trkpt>
      <trkpt lat="45.8915" lon="3.04654">
        <ele>491.4</ele>
        <time>1970-01-01T00:32:57.000Z</time>
      </trkpt>
      <trkpt lat="45.89145" lon="3.04656">
        <ele>491.7</ele>
        <time>1970-01-01T00:32:58.000Z</time>
      </trkpt>
      <trkpt lat="45.89135" lon="3.04657">
        <ele>492.3</ele>
        <time>1970-01-01T00:33:00.000Z</time>
      </trkpt>
      <trkpt lat="45.89131" lon="3.04657">
        <ele>492.6</ele>
        <time>1970-01-01T00:33:01.000Z</time>
      </trkpt>
      <trkpt lat="45.89126" lon="3.04656">
        <ele>493</ele>
        <time>1970-01-01T00:33:02.000Z</time>
      </trkpt>
      <trkpt lat="45.89121" lon="3.04656">
        <ele>493.3</ele>
        <time>1970-01-01T00:33:03.000Z</time>
      </trkpt>
      <trkpt lat="45.89117" lon="3.04656">
        <ele>493.7</ele>
        <time>1970-01-01T00:33:04.000Z</time>
      </trkpt>
      <trkpt lat="45.89112" lon="3.04657">
        <ele>492.5</ele>
        <time>1970-01-01T00:33:05.000Z</time>
      </trkpt>
      <trkpt lat="45.8911" lon="3.04657">
        <ele>491.4</ele>
        <time>1970-01-01T00:33:07.000Z</time>
      </trkpt>
      <trkpt lat="45.89108" lon="3.04657">
        <ele>489.7</ele>
        <time>1970-01-01T00:33:08.000Z</time>
      </trkpt>
      <trkpt lat="45.89104" lon="3.04657">
        <ele>488.5</ele>
        <time>1970-01-01T00:33:09.000Z</time>
      </trkpt>
      <trkpt lat="45.89099" lon="3.04658">
        <ele>487.4</ele>
        <time>1970-01-01T00:33:10.000Z</time>
      </trkpt>
      <trkpt lat="45.89094" lon="3.0466">
        <ele>485.5</ele>
        <time>1970-01-01T00:33:11.000Z</time>
      </trkpt>
      <trkpt lat="45.89089" lon="3.04665">
        <ele>480</ele>
        <time>1970-01-01T00:33:13.000Z</time>
      </trkpt>
      <trkpt lat="45.89089" lon="3.04669">
        <ele>478.9</ele>
        <time>1970-01-01T00:33:14.000Z</time>
      </trkpt>
      <trkpt lat="45.89089" lon="3.04672">
        <ele>477.7</ele>
        <time>1970-01-01T00:33:15.000Z</time>
      </trkpt>
      <trkpt lat="45.8909" lon="3.04672">
        <ele>477.8</ele>
        <time>1970-01-01T00:33:17.000Z</time>
      </trkpt>
      <trkpt lat="45.8909" lon="3.04673">
        <ele>477.8</ele>
        <time>1970-01-01T00:33:18.000Z</time>
      </trkpt>
      <trkpt lat="45.89091" lon="3.04673">
        <ele>477.8</ele>
        <time>1970-01-01T00:33:19.000Z</time>
      </trkpt>
      <trkpt lat="45.89091" lon="3.04674">
        <ele>477.8</ele>
        <time>1970-01-01T00:33:21.000Z</time>
      </trkpt>
      <trkpt lat="45.89091" lon="3.04674">
        <ele>477.8</ele>
        <time>1970-01-01T00:33:22.000Z</time>
      </trkpt>
      <trkpt lat="45.89091" lon="3.04674">
        <ele>477.8</ele>
        <time>1970-01-01T00:33:23.000Z</time>
      </trkpt>
      <trkpt lat="45.8909" lon="3.04674">
        <ele>477.8</ele>
        <time>1970-01-01T00:33:24.000Z</time>
      </trkpt>
      <trkpt lat="45.89086" lon="3.04673">
        <ele>477.9</ele>
        <time>1970-01-01T00:33:26.000Z</time>
      </trkpt>
      <trkpt lat="45.89083" lon="3.04672">
        <ele>477.9</ele>
        <time>1970-01-01T00:33:27.000Z</time>
      </trkpt>
      <trkpt lat="45.89079" lon="3.0467">
        <ele>477.9</ele>
        <time>1970-01-01T00:33:28.000Z</time>
      </trkpt>
      <trkpt lat="45.8907" lon="3.04669">
        <ele>477.8</ele>
        <time>1970-01-01T00:33:30.000Z</time>
      </trkpt>
      <trkpt lat="45.89066" lon="3.04667">
        <ele>477.8</ele>
        <time>1970-01-01T00:33:31.000Z</time>
      </trkpt>
      <trkpt lat="45.89057" lon="3.04665">
        <ele>477.6</ele>
        <time>1970-01-01T00:33:32.000Z</time>
      </trkpt>
      <trkpt lat="45.89053" lon="3.04664">
        <ele>477.6</ele>
        <time>1970-01-01T00:33:33.000Z</time>
      </trkpt>
      <trkpt lat="45.8905" lon="3.04664">
        <ele>477.5</ele>
        <time>1970-01-01T00:33:34.000Z</time>
      </trkpt>
      <trkpt lat="45.89047" lon="3.04662">
        <ele>477.5</ele>
        <time>1970-01-01T00:33:36.000Z</time>
      </trkpt>
      <trkpt lat="45.89047" lon="3.04662">
        <ele>477.4</ele>
        <time>1970-01-01T00:33:37.000Z</time>
      </trkpt>
      <trkpt lat="45.89046" lon="3.04661">
        <ele>477.4</ele>
        <time>1970-01-01T00:33:38.000Z</time>
      </trkpt>
      <trkpt lat="45.89044" lon="3.04661">
        <ele>477.4</ele>
        <time>1970-01-01T00:33:39.000Z</time>
      </trkpt>
      <trkpt lat="45.8904" lon="3.0466">
        <ele>477.3</ele>
        <time>1970-01-01T00:33:40.000Z</time>
      </trkpt>
      <trkpt lat="45.89034" lon="3.0466">
        <ele>477.1</ele>
        <time>1970-01-01T00:33:42.000Z</time>
      </trkpt>
      <trkpt lat="45.8903" lon="3.04659">
        <ele>476.9</ele>
        <time>1970-01-01T00:33:43.000Z</time>
      </trkpt>
      <trkpt lat="45.89026" lon="3.04658">
        <ele>476.7</ele>
        <time>1970-01-01T00:33:44.000Z</time>
      </trkpt>
      <trkpt lat="45.89021" lon="3.04657">
        <ele>476.3</ele>
        <time>1970-01-01T00:33:45.000Z</time>
      </trkpt>
      <trkpt lat="45.89015" lon="3.04656">
        <ele>475.9</ele>
        <time>1970-01-01T00:33:46.000Z</time>
      </trkpt>
      <trkpt lat="45.89003" lon="3.04655">
        <ele>474.8</ele>
        <time>1970-01-01T00:33:48.000Z</time>
      </trkpt>
      <trkpt lat="45.88997" lon="3.04653">
        <ele>474.4</ele>
        <time>1970-01-01T00:33:49.000Z</time>
      </trkpt>
      <trkpt lat="45.88991" lon="3.0465">
        <ele>473.9</ele>
        <time>1970-01-01T00:33:50.000Z</time>
      </trkpt>
      <trkpt lat="45.88985" lon="3.04648">
        <ele>473.4</ele>
        <time>1970-01-01T00:33:51.000Z</time>
      </trkpt>
      <trkpt lat="45.8898" lon="3.04645">
        <ele>473</ele>
        <time>1970-01-01T00:33:52.000Z</time>
      </trkpt>
      <trkpt lat="45.88975" lon="3.0464">
        <ele>472.6</ele>
        <time>1970-01-01T00:33:53.000Z</time>
      </trkpt>
      <trkpt lat="45.8897" lon="3.04635">
        <ele>472.1</ele>
        <time>1970-01-01T00:33:54.000Z</time>
      </trkpt>
      <trkpt lat="45.88964" lon="3.04632">
        <ele>471.7</ele>
        <time>1970-01-01T00:33:55.000Z</time>
      </trkpt>
      <trkpt lat="45.88958" lon="3.04629">
        <ele>471.2</ele>
        <time>1970-01-01T00:33:56.000Z</time>
      </trkpt>
      <trkpt lat="45.88952" lon="3.04626">
        <ele>470.8</ele>
        <time>1970-01-01T00:33:57.000Z</time>
      </trkpt>
      <trkpt lat="45.88945" lon="3.04622">
        <ele>470.4</ele>
        <time>1970-01-01T00:33:58.000Z</time>
      </trkpt>
      <trkpt lat="45.88939" lon="3.04617">
        <ele>470</ele>
        <time>1970-01-01T00:33:59.000Z</time>
      </trkpt>
      <trkpt lat="45.88932" lon="3.04614">
        <ele>469.6</ele>
        <time>1970-01-01T00:34:00.000Z</time>
      </trkpt>
      <trkpt lat="45.88926" lon="3.04611">
        <ele>469.2</ele>
        <time>1970-01-01T00:34:01.000Z</time>
      </trkpt>
      <trkpt lat="45.88921" lon="3.04608">
        <ele>468.8</ele>
        <time>1970-01-01T00:34:02.000Z</time>
      </trkpt>
      <trkpt lat="45.88915" lon="3.04604">
        <ele>468.3</ele>
        <time>1970-01-01T00:34:03.000Z</time>
      </trkpt>
      <trkpt lat="45.88909" lon="3.046">
        <ele>467.8</ele>
        <time>1970-01-01T00:34:04.000Z</time>
      </trkpt>
      <trkpt lat="45.88903" lon="3.04596">
        <ele>467.4</ele>
        <time>1970-01-01T00:34:05.000Z</time>
      </trkpt>
      <trkpt lat="45.88899" lon="3.04592">
        <ele>467.1</ele>
        <time>1970-01-01T00:34:06.000Z</time>
      </trkpt>
      <trkpt lat="45.88894" lon="3.04588">
        <ele>466.8</ele>
        <time>1970-01-01T00:34:07.000Z</time>
      </trkpt>
      <trkpt lat="45.88887" lon="3.04584">
        <ele>466.4</ele>
        <time>1970-01-01T00:34:08.000Z</time>
      </trkpt>
      <trkpt lat="45.88881" lon="3.04581">
        <ele>466.1</ele>
        <time>1970-01-01T00:34:09.000Z</time>
      </trkpt>
      <trkpt lat="45.88875" lon="3.04577">
        <ele>465.8</ele>
        <time>1970-01-01T00:34:10.000Z</time>
      </trkpt>
      <trkpt lat="45.88869" lon="3.04573">
        <ele>465.6</ele>
        <time>1970-01-01T00:34:11.000Z</time>
      </trkpt>
      <trkpt lat="45.88863" lon="3.0457">
        <ele>465.4</ele>
        <time>1970-01-01T00:34:12.000Z</time>
      </trkpt>
      <trkpt lat="45.88858" lon="3.04567">
        <ele>465.4</ele>
        <time>1970-01-01T00:34:13.000Z</time>
      </trkpt>
      <trkpt lat="45.88854" lon="3.04564">
        <ele>465.5</ele>
        <time>1970-01-01T00:34:14.000Z</time>
      </trkpt>
      <trkpt lat="45.88852" lon="3.0456">
        <ele>465.6</ele>
        <time>1970-01-01T00:34:15.000Z</time>
      </trkpt>
      <trkpt lat="45.88852" lon="3.04556">
        <ele>465.7</ele>
        <time>1970-01-01T00:34:16.000Z</time>
      </trkpt>
      <trkpt lat="45.88851" lon="3.04552">
        <ele>465.9</ele>
        <time>1970-01-01T00:34:17.000Z</time>
      </trkpt>
      <trkpt lat="45.88852" lon="3.04548">
        <ele>466</ele>
        <time>1970-01-01T00:34:18.000Z</time>
      </trkpt>
      <trkpt lat="45.88852" lon="3.04547">
        <ele>466.1</ele>
        <time>1970-01-01T00:34:19.000Z</time>
      </trkpt>
      <trkpt lat="45.88853" lon="3.04545">
        <ele>466.2</ele>
        <time>1970-01-01T00:34:20.000Z</time>
      </trkpt>
      <trkpt lat="45.88853" lon="3.04543">
        <ele>466.3</ele>
        <time>1970-01-01T00:34:21.000Z</time>
      </trkpt>
      <trkpt lat="45.88854" lon="3.0454">
        <ele>466.4</ele>
        <time>1970-01-01T00:34:22.000Z</time>
      </trkpt>
      <trkpt lat="45.88855" lon="3.04538">
        <ele>466.5</ele>
        <time>1970-01-01T00:34:24.000Z</time>
      </trkpt>
      <trkpt lat="45.88855" lon="3.04535">
        <ele>466.7</ele>
        <time>1970-01-01T00:34:25.000Z</time>
      </trkpt>
      <trkpt lat="45.88855" lon="3.04533">
        <ele>466.8</ele>
        <time>1970-01-01T00:34:26.000Z</time>
      </trkpt>
      <trkpt lat="45.88856" lon="3.04529">
        <ele>467.1</ele>
        <time>1970-01-01T00:34:28.000Z</time>
      </trkpt>
      <trkpt lat="45.88857" lon="3.04524">
        <ele>467.4</ele>
        <time>1970-01-01T00:34:29.000Z</time>
      </trkpt>
      <trkpt lat="45.88858" lon="3.04518">
        <ele>467.9</ele>
        <time>1970-01-01T00:34:31.000Z</time>
      </trkpt>
      <trkpt lat="45.88858" lon="3.04516">
        <ele>468</ele>
        <time>1970-01-01T00:34:32.000Z</time>
      </trkpt>
      <trkpt lat="45.88858" lon="3.04514">
        <ele>468.2</ele>
        <time>1970-01-01T00:34:33.000Z</time>
      </trkpt>
      <trkpt lat="45.88857" lon="3.04511">
        <ele>468.4</ele>
        <time>1970-01-01T00:34:34.000Z</time>
      </trkpt>
      <trkpt lat="45.88858" lon="3.04509">
        <ele>468.6</ele>
        <time>1970-01-01T00:34:35.000Z</time>
      </trkpt>
      <trkpt lat="45.88858" lon="3.04505">
        <ele>468.9</ele>
        <time>1970-01-01T00:34:36.000Z</time>
      </trkpt>
      <trkpt lat="45.88858" lon="3.04503">
        <ele>469.1</ele>
        <time>1970-01-01T00:34:37.000Z</time>
      </trkpt>
      <trkpt lat="45.88859" lon="3.04498">
        <ele>469.4</ele>
        <time>1970-01-01T00:34:38.000Z</time>
      </trkpt>
      <trkpt lat="45.88858" lon="3.04496">
        <ele>469.6</ele>
        <time>1970-01-01T00:34:39.000Z</time>
      </trkpt>
      <trkpt lat="45.88857" lon="3.0449">
        <ele>470.1</ele>
        <time>1970-01-01T00:34:41.000Z</time>
      </trkpt>
      <trkpt lat="45.88857" lon="3.04488">
        <ele>470.3</ele>
        <time>1970-01-01T00:34:42.000Z</time>
      </trkpt>
      <trkpt lat="45.88857" lon="3.04485">
        <ele>470.5</ele>
        <time>1970-01-01T00:34:43.000Z</time>
      </trkpt>
      <trkpt lat="45.88856" lon="3.04483">
        <ele>470.7</ele>
        <time>1970-01-01T00:34:44.000Z</time>
      </trkpt>
      <trkpt lat="45.88856" lon="3.04479">
        <ele>470.9</ele>
        <time>1970-01-01T00:34:46.000Z</time>
      </trkpt>
      <trkpt lat="45.88857" lon="3.04474">
        <ele>471.4</ele>
        <time>1970-01-01T00:34:47.000Z</time>
      </trkpt>
      <trkpt lat="45.88857" lon="3.04472">
        <ele>471.5</ele>
        <time>1970-01-01T00:34:48.000Z</time>
      </trkpt>
      <trkpt lat="45.88857" lon="3.04466">
        <ele>472</ele>
        <time>1970-01-01T00:34:50.000Z</time>
      </trkpt>
      <trkpt lat="45.88856" lon="3.04464">
        <ele>472.2</ele>
        <time>1970-01-01T00:34:51.000Z</time>
      </trkpt>
      <trkpt lat="45.88856" lon="3.04462">
        <ele>472.4</ele>
        <time>1970-01-01T00:34:52.000Z</time>
      </trkpt>
      <trkpt lat="45.88856" lon="3.0446">
        <ele>472.6</ele>
        <time>1970-01-01T00:34:53.000Z</time>
      </trkpt>
      <trkpt lat="45.88856" lon="3.04457">
        <ele>472.8</ele>
        <time>1970-01-01T00:34:55.000Z</time>
      </trkpt>
      <trkpt lat="45.88856" lon="3.04454">
        <ele>473</ele>
        <time>1970-01-01T00:34:56.000Z</time>
      </trkpt>
      <trkpt lat="45.88856" lon="3.04451">
        <ele>473.3</ele>
        <time>1970-01-01T00:34:58.000Z</time>
      </trkpt>
      <trkpt lat="45.88856" lon="3.0445">
        <ele>473.4</ele>
        <time>1970-01-01T00:34:59.000Z</time>
      </trkpt>
      <trkpt lat="45.88856" lon="3.04448">
        <ele>473.6</ele>
        <time>1970-01-01T00:35:00.000Z</time>
      </trkpt>
      <trkpt lat="45.88856" lon="3.04446">
        <ele>473.7</ele>
        <time>1970-01-01T00:35:01.000Z</time>
      </trkpt>
      <trkpt lat="45.88855" lon="3.04442">
        <ele>474</ele>
        <time>1970-01-01T00:35:02.000Z</time>
      </trkpt>
      <trkpt lat="45.88855" lon="3.04441">
        <ele>474.1</ele>
        <time>1970-01-01T00:35:03.000Z</time>
      </trkpt>
      <trkpt lat="45.88853" lon="3.04436">
        <ele>474.5</ele>
        <time>1970-01-01T00:35:04.000Z</time>
      </trkpt>
      <trkpt lat="45.88852" lon="3.04433">
        <ele>474.8</ele>
        <time>1970-01-01T00:35:06.000Z</time>
      </trkpt>
      <trkpt lat="45.88852" lon="3.04431">
        <ele>474.9</ele>
        <time>1970-01-01T00:35:07.000Z</time>
      </trkpt>
      <trkpt lat="45.88852" lon="3.04428">
        <ele>475.2</ele>
        <time>1970-01-01T00:35:08.000Z</time>
      </trkpt>
      <trkpt lat="45.88852" lon="3.04426">
        <ele>475.4</ele>
        <time>1970-01-01T00:35:09.000Z</time>
      </trkpt>
      <trkpt lat="45.88852" lon="3.04423">
        <ele>475.6</ele>
        <time>1970-01-01T00:35:11.000Z</time>
      </trkpt>
      <trkpt lat="45.88852" lon="3.04421">
        <ele>475.8</ele>
        <time>1970-01-01T00:35:12.000Z</time>
      </trkpt>
      <trkpt lat="45.88852" lon="3.0442">
        <ele>475.9</ele>
        <time>1970-01-01T00:35:13.000Z</time>
      </trkpt>
      <trkpt lat="45.88852" lon="3.04417">
        <ele>476.1</ele>
        <time>1970-01-01T00:35:15.000Z</time>
      </trkpt>
      <trkpt lat="45.88851" lon="3.04415">
        <ele>476.3</ele>
        <time>1970-01-01T00:35:16.000Z</time>
      </trkpt>
      <trkpt lat="45.88851" lon="3.04413">
        <ele>476.5</ele>
        <time>1970-01-01T00:35:18.000Z</time>
      </trkpt>
      <trkpt lat="45.8885" lon="3.0441">
        <ele>476.8</ele>
        <time>1970-01-01T00:35:19.000Z</time>
      </trkpt>
      <trkpt lat="45.8885" lon="3.04408">
        <ele>477</ele>
        <time>1970-01-01T00:35:20.000Z</time>
      </trkpt>
      <trkpt lat="45.8885" lon="3.04404">
        <ele>477.3</ele>
        <time>1970-01-01T00:35:21.000Z</time>
      </trkpt>
      <trkpt lat="45.8885" lon="3.04402">
        <ele>477.5</ele>
        <time>1970-01-01T00:35:23.000Z</time>
      </trkpt>
      <trkpt lat="45.8885" lon="3.044">
        <ele>477.7</ele>
        <time>1970-01-01T00:35:25.000Z</time>
      </trkpt>
      <trkpt lat="45.8885" lon="3.04398">
        <ele>477.8</ele>
        <time>1970-01-01T00:35:26.000Z</time>
      </trkpt>
      <trkpt lat="45.8885" lon="3.04396">
        <ele>478</ele>
        <time>1970-01-01T00:35:27.000Z</time>
      </trkpt>
      <trkpt lat="45.8885" lon="3.04394">
        <ele>478.2</ele>
        <time>1970-01-01T00:35:28.000Z</time>
      </trkpt>
      <trkpt lat="45.8885" lon="3.04389">
        <ele>478.6</ele>
        <time>1970-01-01T00:35:30.000Z</time>
      </trkpt>
      <trkpt lat="45.8885" lon="3.04388">
        <ele>478.7</ele>
        <time>1970-01-01T00:35:31.000Z</time>
      </trkpt>
      <trkpt lat="45.8885" lon="3.04386">
        <ele>478.8</ele>
        <time>1970-01-01T00:35:32.000Z</time>
      </trkpt>
      <trkpt lat="45.8885" lon="3.04385">
        <ele>479</ele>
        <time>1970-01-01T00:35:33.000Z</time>
      </trkpt>
      <trkpt lat="45.88851" lon="3.04383">
        <ele>479.1</ele>
        <time>1970-01-01T00:35:34.000Z</time>
      </trkpt>
      <trkpt lat="45.88851" lon="3.04381">
        <ele>479.2</ele>
        <time>1970-01-01T00:35:35.000Z</time>
      </trkpt>
      <trkpt lat="45.88852" lon="3.04378">
        <ele>479.4</ele>
        <time>1970-01-01T00:35:36.000Z</time>
      </trkpt>
      <trkpt lat="45.88852" lon="3.04377">
        <ele>479.5</ele>
        <time>1970-01-01T00:35:37.000Z</time>
      </trkpt>
      <trkpt lat="45.88853" lon="3.04376">
        <ele>479.6</ele>
        <time>1970-01-01T00:35:38.000Z</time>
      </trkpt>
      <trkpt lat="45.88854" lon="3.04373">
        <ele>479.8</ele>
        <time>1970-01-01T00:35:40.000Z</time>
      </trkpt>
      <trkpt lat="45.88856" lon="3.0437">
        <ele>480</ele>
        <time>1970-01-01T00:35:41.000Z</time>
      </trkpt>
      <trkpt lat="45.88856" lon="3.04369">
        <ele>480.1</ele>
        <time>1970-01-01T00:35:42.000Z</time>
      </trkpt>
      <trkpt lat="45.88856" lon="3.04368">
        <ele>480.1</ele>
        <time>1970-01-01T00:35:43.000Z</time>
      </trkpt>
      <trkpt lat="45.88857" lon="3.04366">
        <ele>480.3</ele>
        <time>1970-01-01T00:35:44.000Z</time>
      </trkpt>
      <trkpt lat="45.88858" lon="3.04365">
        <ele>480.3</ele>
        <time>1970-01-01T00:35:45.000Z</time>
      </trkpt>
      <trkpt lat="45.88858" lon="3.04364">
        <ele>480.4</ele>
        <time>1970-01-01T00:35:46.000Z</time>
      </trkpt>
      <trkpt lat="45.88858" lon="3.04362">
        <ele>480.5</ele>
        <time>1970-01-01T00:35:47.000Z</time>
      </trkpt>
      <trkpt lat="45.88859" lon="3.0436">
        <ele>480.5</ele>
        <time>1970-01-01T00:35:48.000Z</time>
      </trkpt>
      <trkpt lat="45.88859" lon="3.04359">
        <ele>480.6</ele>
        <time>1970-01-01T00:35:49.000Z</time>
      </trkpt>
      <trkpt lat="45.88859" lon="3.04354">
        <ele>480.7</ele>
        <time>1970-01-01T00:35:50.000Z</time>
      </trkpt>
      <trkpt lat="45.88859" lon="3.04352">
        <ele>480.8</ele>
        <time>1970-01-01T00:35:51.000Z</time>
      </trkpt>
      <trkpt lat="45.88859" lon="3.04348">
        <ele>480.9</ele>
        <time>1970-01-01T00:35:53.000Z</time>
      </trkpt>
      <trkpt lat="45.88858" lon="3.04346">
        <ele>480.9</ele>
        <time>1970-01-01T00:35:54.000Z</time>
      </trkpt>
      <trkpt lat="45.88856" lon="3.04343">
        <ele>480.9</ele>
        <time>1970-01-01T00:35:55.000Z</time>
      </trkpt>
      <trkpt lat="45.88854" lon="3.0434">
        <ele>480.8</ele>
        <time>1970-01-01T00:35:56.000Z</time>
      </trkpt>
      <trkpt lat="45.88848" lon="3.0434">
        <ele>480.7</ele>
        <time>1970-01-01T00:35:58.000Z</time>
      </trkpt>
      <trkpt lat="45.88847" lon="3.04339">
        <ele>480.7</ele>
        <time>1970-01-01T00:35:59.000Z</time>
      </trkpt>
      <trkpt lat="45.88845" lon="3.04338">
        <ele>480.6</ele>
        <time>1970-01-01T00:36:00.000Z</time>
      </trkpt>
      <trkpt lat="45.88842" lon="3.04334">
        <ele>480.5</ele>
        <time>1970-01-01T00:36:01.000Z</time>
      </trkpt>
      <trkpt lat="45.88839" lon="3.04331">
        <ele>480.4</ele>
        <time>1970-01-01T00:36:02.000Z</time>
      </trkpt>
      <trkpt lat="45.88837" lon="3.04327">
        <ele>480.3</ele>
        <time>1970-01-01T00:36:04.000Z</time>
      </trkpt>
      <trkpt lat="45.88835" lon="3.04324">
        <ele>480.2</ele>
        <time>1970-01-01T00:36:05.000Z</time>
      </trkpt>
      <trkpt lat="45.88834" lon="3.04319">
        <ele>480</ele>
        <time>1970-01-01T00:36:06.000Z</time>
      </trkpt>
      <trkpt lat="45.88832" lon="3.04316">
        <ele>479.9</ele>
        <time>1970-01-01T00:36:07.000Z</time>
      </trkpt>
      <trkpt lat="45.8883" lon="3.04314">
        <ele>479.7</ele>
        <time>1970-01-01T00:36:08.000Z</time>
      </trkpt>
      <trkpt lat="45.88825" lon="3.04313">
        <ele>479.4</ele>
        <time>1970-01-01T00:36:10.000Z</time>
      </trkpt>
      <trkpt lat="45.88822" lon="3.04309">
        <ele>479</ele>
        <time>1970-01-01T00:36:11.000Z</time>
      </trkpt>
      <trkpt lat="45.88821" lon="3.04307">
        <ele>478.9</ele>
        <time>1970-01-01T00:36:12.000Z</time>
      </trkpt>
      <trkpt lat="45.88819" lon="3.04303">
        <ele>478.5</ele>
        <time>1970-01-01T00:36:13.000Z</time>
      </trkpt>
      <trkpt lat="45.88816" lon="3.04301">
        <ele>478.2</ele>
        <time>1970-01-01T00:36:14.000Z</time>
      </trkpt>
      <trkpt lat="45.88813" lon="3.04298">
        <ele>477.6</ele>
        <time>1970-01-01T00:36:16.000Z</time>
      </trkpt>
      <trkpt lat="45.88809" lon="3.04296">
        <ele>477</ele>
        <time>1970-01-01T00:36:17.000Z</time>
      </trkpt>
      <trkpt lat="45.88807" lon="3.04295">
        <ele>476.8</ele>
        <time>1970-01-01T00:36:18.000Z</time>
      </trkpt>
      <trkpt lat="45.88806" lon="3.04294">
        <ele>476.4</ele>
        <time>1970-01-01T00:36:19.000Z</time>
      </trkpt>
      <trkpt lat="45.88804" lon="3.04291">
        <ele>476.1</ele>
        <time>1970-01-01T00:36:21.000Z</time>
      </trkpt>
      <trkpt lat="45.88803" lon="3.04292">
        <ele>475.8</ele>
        <time>1970-01-01T00:36:22.000Z</time>
      </trkpt>
      <trkpt lat="45.88803" lon="3.04293">
        <ele>475.7</ele>
        <time>1970-01-01T00:36:23.000Z</time>
      </trkpt>
      <trkpt lat="45.88802" lon="3.04294">
        <ele>475.5</ele>
        <time>1970-01-01T00:36:24.000Z</time>
      </trkpt>
      <trkpt lat="45.88802" lon="3.04295">
        <ele>475.3</ele>
        <time>1970-01-01T00:36:26.000Z</time>
      </trkpt>
      <trkpt lat="45.88801" lon="3.04297">
        <ele>475.2</ele>
        <time>1970-01-01T00:36:27.000Z</time>
      </trkpt>
      <trkpt lat="45.88804" lon="3.04302">
        <ele>474.3</ele>
        <time>1970-01-01T00:36:28.000Z</time>
      </trkpt>
      <trkpt lat="45.88805" lon="3.04304">
        <ele>473.9</ele>
        <time>1970-01-01T00:36:29.000Z</time>
      </trkpt>
      <trkpt lat="45.88807" lon="3.04309">
        <ele>472.9</ele>
        <time>1970-01-01T00:36:30.000Z</time>
      </trkpt>
      <trkpt lat="45.88809" lon="3.04315">
        <ele>472.1</ele>
        <time>1970-01-01T00:36:31.000Z</time>
      </trkpt>
      <trkpt lat="45.88809" lon="3.04319">
        <ele>471.4</ele>
        <time>1970-01-01T00:36:32.000Z</time>
      </trkpt>
      <trkpt lat="45.8881" lon="3.04321">
        <ele>471</ele>
        <time>1970-01-01T00:36:33.000Z</time>
      </trkpt>
      <trkpt lat="45.88811" lon="3.04323">
        <ele>470.6</ele>
        <time>1970-01-01T00:36:34.000Z</time>
      </trkpt>
      <trkpt lat="45.88812" lon="3.04326">
        <ele>470.3</ele>
        <time>1970-01-01T00:36:35.000Z</time>
      </trkpt>
      <trkpt lat="45.88814" lon="3.04329">
        <ele>469.6</ele>
        <time>1970-01-01T00:36:37.000Z</time>
      </trkpt>
      <trkpt lat="45.88814" lon="3.04334">
        <ele>468.8</ele>
        <time>1970-01-01T00:36:38.000Z</time>
      </trkpt>
      <trkpt lat="45.88814" lon="3.04335">
        <ele>468.6</ele>
        <time>1970-01-01T00:36:39.000Z</time>
      </trkpt>
      <trkpt lat="45.88811" lon="3.04333">
        <ele>467.7</ele>
        <time>1970-01-01T00:36:41.000Z</time>
      </trkpt>
      <trkpt lat="45.88809" lon="3.04332">
        <ele>467.4</ele>
        <time>1970-01-01T00:36:42.000Z</time>
      </trkpt>
      <trkpt lat="45.88807" lon="3.0433">
        <ele>466.8</ele>
        <time>1970-01-01T00:36:43.000Z</time>
      </trkpt>
      <trkpt lat="45.88803" lon="3.04325">
        <ele>465.7</ele>
        <time>1970-01-01T00:36:45.000Z</time>
      </trkpt>
      <trkpt lat="45.888" lon="3.04322">
        <ele>465.3</ele>
        <time>1970-01-01T00:36:46.000Z</time>
      </trkpt>
      <trkpt lat="45.88796" lon="3.04315">
        <ele>464.2</ele>
        <time>1970-01-01T00:36:47.000Z</time>
      </trkpt>
      <trkpt lat="45.88793" lon="3.0431">
        <ele>463.5</ele>
        <time>1970-01-01T00:36:48.000Z</time>
      </trkpt>
      <trkpt lat="45.88792" lon="3.04309">
        <ele>463.4</ele>
        <time>1970-01-01T00:36:49.000Z</time>
      </trkpt>
      <trkpt lat="45.8879" lon="3.04309">
        <ele>463.1</ele>
        <time>1970-01-01T00:36:50.000Z</time>
      </trkpt>
      <trkpt lat="45.88786" lon="3.04306">
        <ele>462.5</ele>
        <time>1970-01-01T00:36:51.000Z</time>
      </trkpt>
      <trkpt lat="45.88781" lon="3.04303">
        <ele>461.9</ele>
        <time>1970-01-01T00:36:52.000Z</time>
      </trkpt>
      <trkpt lat="45.88777" lon="3.04301">
        <ele>461.5</ele>
        <time>1970-01-01T00:36:54.000Z</time>
      </trkpt>
      <trkpt lat="45.88773" lon="3.043">
        <ele>461.1</ele>
        <time>1970-01-01T00:36:55.000Z</time>
      </trkpt>
      <trkpt lat="45.88764" lon="3.04298">
        <ele>460.6</ele>
        <time>1970-01-01T00:36:56.000Z</time>
      </trkpt>
      <trkpt lat="45.88762" lon="3.04295">
        <ele>460.7</ele>
        <time>1970-01-01T00:36:57.000Z</time>
      </trkpt>
      <trkpt lat="45.88761" lon="3.04294">
        <ele>460.8</ele>
        <time>1970-01-01T00:36:58.000Z</time>
      </trkpt>
      <trkpt lat="45.88759" lon="3.04287">
        <ele>461.4</ele>
        <time>1970-01-01T00:37:00.000Z</time>
      </trkpt>
      <trkpt lat="45.88757" lon="3.04286">
        <ele>461.5</ele>
        <time>1970-01-01T00:37:01.000Z</time>
      </trkpt>
      <trkpt lat="45.88756" lon="3.04284">
        <ele>461.7</ele>
        <time>1970-01-01T00:37:02.000Z</time>
      </trkpt>
      <trkpt lat="45.88755" lon="3.0428">
        <ele>462.1</ele>
        <time>1970-01-01T00:37:03.000Z</time>
      </trkpt>
      <trkpt lat="45.88755" lon="3.04279">
        <ele>462.2</ele>
        <time>1970-01-01T00:37:04.000Z</time>
      </trkpt>
      <trkpt lat="45.88754" lon="3.04274">
        <ele>462.6</ele>
        <time>1970-01-01T00:37:05.000Z</time>
      </trkpt>
      <trkpt lat="45.88753" lon="3.04273">
        <ele>462.7</ele>
        <time>1970-01-01T00:37:06.000Z</time>
      </trkpt>
      <trkpt lat="45.88753" lon="3.04271">
        <ele>462.8</ele>
        <time>1970-01-01T00:37:08.000Z</time>
      </trkpt>
      <trkpt lat="45.88753" lon="3.04267">
        <ele>463.2</ele>
        <time>1970-01-01T00:37:09.000Z</time>
      </trkpt>
      <trkpt lat="45.88754" lon="3.04264">
        <ele>463.4</ele>
        <time>1970-01-01T00:37:10.000Z</time>
      </trkpt>
      <trkpt lat="45.88754" lon="3.04263">
        <ele>463.5</ele>
        <time>1970-01-01T00:37:11.000Z</time>
      </trkpt>
      <trkpt lat="45.88753" lon="3.0426">
        <ele>463.7</ele>
        <time>1970-01-01T00:37:13.000Z</time>
      </trkpt>
      <trkpt lat="45.88752" lon="3.04259">
        <ele>463.9</ele>
        <time>1970-01-01T00:37:14.000Z</time>
      </trkpt>
      <trkpt lat="45.88751" lon="3.04257">
        <ele>464.1</ele>
        <time>1970-01-01T00:37:15.000Z</time>
      </trkpt>
      <trkpt lat="45.8875" lon="3.04255">
        <ele>464.2</ele>
        <time>1970-01-01T00:37:16.000Z</time>
      </trkpt>
      <trkpt lat="45.88749" lon="3.04252">
        <ele>464.6</ele>
        <time>1970-01-01T00:37:17.000Z</time>
      </trkpt>
      <trkpt lat="45.88748" lon="3.0425">
        <ele>464.7</ele>
        <time>1970-01-01T00:37:18.000Z</time>
      </trkpt>
      <trkpt lat="45.88749" lon="3.04244">
        <ele>465.2</ele>
        <time>1970-01-01T00:37:20.000Z</time>
      </trkpt>
      <trkpt lat="45.88749" lon="3.04242">
        <ele>465.3</ele>
        <time>1970-01-01T00:37:21.000Z</time>
      </trkpt>
      <trkpt lat="45.88749" lon="3.0424">
        <ele>465.5</ele>
        <time>1970-01-01T00:37:22.000Z</time>
      </trkpt>
      <trkpt lat="45.88748" lon="3.04236">
        <ele>465.8</ele>
        <time>1970-01-01T00:37:24.000Z</time>
      </trkpt>
      <trkpt lat="45.88748" lon="3.04235">
        <ele>465.9</ele>
        <time>1970-01-01T00:37:25.000Z</time>
      </trkpt>
      <trkpt lat="45.88748" lon="3.04233">
        <ele>466.1</ele>
        <time>1970-01-01T00:37:26.000Z</time>
      </trkpt>
      <trkpt lat="45.88749" lon="3.0423">
        <ele>466.3</ele>
        <time>1970-01-01T00:37:27.000Z</time>
      </trkpt>
      <trkpt lat="45.8875" lon="3.04227">
        <ele>466.6</ele>
        <time>1970-01-01T00:37:28.000Z</time>
      </trkpt>
      <trkpt lat="45.88754" lon="3.04223">
        <ele>467.1</ele>
        <time>1970-01-01T00:37:30.000Z</time>
      </trkpt>
      <trkpt lat="45.88756" lon="3.0422">
        <ele>467.5</ele>
        <time>1970-01-01T00:37:31.000Z</time>
      </trkpt>
      <trkpt lat="45.88757" lon="3.04216">
        <ele>467.8</ele>
        <time>1970-01-01T00:37:32.000Z</time>
      </trkpt>
      <trkpt lat="45.88757" lon="3.04215">
        <ele>468</ele>
        <time>1970-01-01T00:37:33.000Z</time>
      </trkpt>
      <trkpt lat="45.88757" lon="3.04212">
        <ele>468.2</ele>
        <time>1970-01-01T00:37:35.000Z</time>
      </trkpt>
      <trkpt lat="45.88757" lon="3.0421">
        <ele>468.4</ele>
        <time>1970-01-01T00:37:36.000Z</time>
      </trkpt>
      <trkpt lat="45.88756" lon="3.04208">
        <ele>468.6</ele>
        <time>1970-01-01T00:37:37.000Z</time>
      </trkpt>
      <trkpt lat="45.88755" lon="3.04206">
        <ele>468.8</ele>
        <time>1970-01-01T00:37:38.000Z</time>
      </trkpt>
      <trkpt lat="45.88755" lon="3.04204">
        <ele>469</ele>
        <time>1970-01-01T00:37:39.000Z</time>
      </trkpt>
      <trkpt lat="45.88755" lon="3.04201">
        <ele>469.3</ele>
        <time>1970-01-01T00:37:40.000Z</time>
      </trkpt>
      <trkpt lat="45.88755" lon="3.04199">
        <ele>469.4</ele>
        <time>1970-01-01T00:37:41.000Z</time>
      </trkpt>
      <trkpt lat="45.88755" lon="3.04198">
        <ele>469.6</ele>
        <time>1970-01-01T00:37:42.000Z</time>
      </trkpt>
      <trkpt lat="45.88755" lon="3.04196">
        <ele>469.7</ele>
        <time>1970-01-01T00:37:44.000Z</time>
      </trkpt>
      <trkpt lat="45.88756" lon="3.04194">
        <ele>469.9</ele>
        <time>1970-01-01T00:37:45.000Z</time>
      </trkpt>
      <trkpt lat="45.88756" lon="3.04192">
        <ele>470.2</ele>
        <time>1970-01-01T00:37:46.000Z</time>
      </trkpt>
      <trkpt lat="45.88755" lon="3.04189">
        <ele>470.4</ele>
        <time>1970-01-01T00:37:47.000Z</time>
      </trkpt>
      <trkpt lat="45.88755" lon="3.04187">
        <ele>470.6</ele>
        <time>1970-01-01T00:37:49.000Z</time>
      </trkpt>
      <trkpt lat="45.88755" lon="3.04186">
        <ele>470.7</ele>
        <time>1970-01-01T00:37:50.000Z</time>
      </trkpt>
      <trkpt lat="45.88754" lon="3.04183">
        <ele>471</ele>
        <time>1970-01-01T00:37:51.000Z</time>
      </trkpt>
      <trkpt lat="45.88753" lon="3.0418">
        <ele>471.3</ele>
        <time>1970-01-01T00:37:53.000Z</time>
      </trkpt>
      <trkpt lat="45.88752" lon="3.04176">
        <ele>471.8</ele>
        <time>1970-01-01T00:37:55.000Z</time>
      </trkpt>
      <trkpt lat="45.88751" lon="3.04173">
        <ele>472.1</ele>
        <time>1970-01-01T00:37:56.000Z</time>
      </trkpt>
      <trkpt lat="45.8875" lon="3.04171">
        <ele>472.3</ele>
        <time>1970-01-01T00:37:58.000Z</time>
      </trkpt>
      <trkpt lat="45.8875" lon="3.0417">
        <ele>472.5</ele>
        <time>1970-01-01T00:37:59.000Z</time>
      </trkpt>
      <trkpt lat="45.88749" lon="3.04166">
        <ele>472.8</ele>
        <time>1970-01-01T00:38:01.000Z</time>
      </trkpt>
      <trkpt lat="45.88749" lon="3.04164">
        <ele>472.9</ele>
        <time>1970-01-01T00:38:02.000Z</time>
      </trkpt>
      <trkpt lat="45.88749" lon="3.04163">
        <ele>473.1</ele>
        <time>1970-01-01T00:38:03.000Z</time>
      </trkpt>
      <trkpt lat="45.88749" lon="3.04162">
        <ele>473.2</ele>
        <time>1970-01-01T00:38:04.000Z</time>
      </trkpt>
      <trkpt lat="45.88749" lon="3.04159">
        <ele>473.4</ele>
        <time>1970-01-01T00:38:06.000Z</time>
      </trkpt>
      <trkpt lat="45.88749" lon="3.04158">
        <ele>473.5</ele>
        <time>1970-01-01T00:38:07.000Z</time>
      </trkpt>
      <trkpt lat="45.88749" lon="3.04157">
        <ele>473.6</ele>
        <time>1970-01-01T00:38:08.000Z</time>
      </trkpt>
      <trkpt lat="45.88749" lon="3.04156">
        <ele>473.7</ele>
        <time>1970-01-01T00:38:09.000Z</time>
      </trkpt>
      <trkpt lat="45.88748" lon="3.04155">
        <ele>473.8</ele>
        <time>1970-01-01T00:38:10.000Z</time>
      </trkpt>
      <trkpt lat="45.88747" lon="3.04152">
        <ele>474.1</ele>
        <time>1970-01-01T00:38:12.000Z</time>
      </trkpt>
      <trkpt lat="45.88747" lon="3.0415">
        <ele>474.2</ele>
        <time>1970-01-01T00:38:13.000Z</time>
      </trkpt>
      <trkpt lat="45.88746" lon="3.04148">
        <ele>474.4</ele>
        <time>1970-01-01T00:38:14.000Z</time>
      </trkpt>
      <trkpt lat="45.88746" lon="3.04145">
        <ele>474.7</ele>
        <time>1970-01-01T00:38:16.000Z</time>
      </trkpt>
      <trkpt lat="45.88746" lon="3.04142">
        <ele>474.9</ele>
        <time>1970-01-01T00:38:17.000Z</time>
      </trkpt>
      <trkpt lat="45.88746" lon="3.0414">
        <ele>475</ele>
        <time>1970-01-01T00:38:18.000Z</time>
      </trkpt>
      <trkpt lat="45.88746" lon="3.04139">
        <ele>475.1</ele>
        <time>1970-01-01T00:38:19.000Z</time>
      </trkpt>
      <trkpt lat="45.88745" lon="3.04136">
        <ele>475.4</ele>
        <time>1970-01-01T00:38:21.000Z</time>
      </trkpt>
      <trkpt lat="45.88745" lon="3.04134">
        <ele>475.5</ele>
        <time>1970-01-01T00:38:22.000Z</time>
      </trkpt>
      <trkpt lat="45.88745" lon="3.04133">
        <ele>475.6</ele>
        <time>1970-01-01T00:38:23.000Z</time>
      </trkpt>
      <trkpt lat="45.88745" lon="3.0413">
        <ele>475.8</ele>
        <time>1970-01-01T00:38:24.000Z</time>
      </trkpt>
      <trkpt lat="45.88745" lon="3.04127">
        <ele>476</ele>
        <time>1970-01-01T00:38:26.000Z</time>
      </trkpt>
      <trkpt lat="45.88745" lon="3.04125">
        <ele>476.1</ele>
        <time>1970-01-01T00:38:27.000Z</time>
      </trkpt>
      <trkpt lat="45.88745" lon="3.04124">
        <ele>476.2</ele>
        <time>1970-01-01T00:38:28.000Z</time>
      </trkpt>
      <trkpt lat="45.88744" lon="3.04122">
        <ele>476.3</ele>
        <time>1970-01-01T00:38:29.000Z</time>
      </trkpt>
      <trkpt lat="45.88744" lon="3.04118">
        <ele>476.6</ele>
        <time>1970-01-01T00:38:31.000Z</time>
      </trkpt>
      <trkpt lat="45.88745" lon="3.04116">
        <ele>476.7</ele>
        <time>1970-01-01T00:38:32.000Z</time>
      </trkpt>
      <trkpt lat="45.88745" lon="3.04112">
        <ele>477</ele>
        <time>1970-01-01T00:38:34.000Z</time>
      </trkpt>
      <trkpt lat="45.88746" lon="3.0411">
        <ele>477.2</ele>
        <time>1970-01-01T00:38:35.000Z</time>
      </trkpt>
      <trkpt lat="45.88746" lon="3.04108">
        <ele>477.3</ele>
        <time>1970-01-01T00:38:36.000Z</time>
      </trkpt>
      <trkpt lat="45.88746" lon="3.04106">
        <ele>477.4</ele>
        <time>1970-01-01T00:38:37.000Z</time>
      </trkpt>
      <trkpt lat="45.88746" lon="3.04104">
        <ele>477.5</ele>
        <time>1970-01-01T00:38:39.000Z</time>
      </trkpt>
      <trkpt lat="45.88747" lon="3.04102">
        <ele>477.7</ele>
        <time>1970-01-01T00:38:40.000Z</time>
      </trkpt>
      <trkpt lat="45.88748" lon="3.041">
        <ele>477.8</ele>
        <time>1970-01-01T00:38:41.000Z</time>
      </trkpt>
      <trkpt lat="45.88749" lon="3.04095">
        <ele>478.1</ele>
        <time>1970-01-01T00:38:42.000Z</time>
      </trkpt>
      <trkpt lat="45.88749" lon="3.04094">
        <ele>478.2</ele>
        <time>1970-01-01T00:38:43.000Z</time>
      </trkpt>
      <trkpt lat="45.88749" lon="3.04092">
        <ele>478.3</ele>
        <time>1970-01-01T00:38:44.000Z</time>
      </trkpt>
      <trkpt lat="45.8875" lon="3.04088">
        <ele>478.5</ele>
        <time>1970-01-01T00:38:46.000Z</time>
      </trkpt>
      <trkpt lat="45.8875" lon="3.04086">
        <ele>478.6</ele>
        <time>1970-01-01T00:38:47.000Z</time>
      </trkpt>
      <trkpt lat="45.88751" lon="3.04083">
        <ele>478.9</ele>
        <time>1970-01-01T00:38:49.000Z</time>
      </trkpt>
      <trkpt lat="45.8875" lon="3.04081">
        <ele>479.1</ele>
        <time>1970-01-01T00:38:50.000Z</time>
      </trkpt>
      <trkpt lat="45.88751" lon="3.04078">
        <ele>479.3</ele>
        <time>1970-01-01T00:38:51.000Z</time>
      </trkpt>
      <trkpt lat="45.88751" lon="3.04076">
        <ele>479.5</ele>
        <time>1970-01-01T00:38:52.000Z</time>
      </trkpt>
      <trkpt lat="45.88752" lon="3.04074">
        <ele>479.7</ele>
        <time>1970-01-01T00:38:53.000Z</time>
      </trkpt>
      <trkpt lat="45.88753" lon="3.0407">
        <ele>480.1</ele>
        <time>1970-01-01T00:38:55.000Z</time>
      </trkpt>
      <trkpt lat="45.88753" lon="3.04068">
        <ele>480.3</ele>
        <time>1970-01-01T00:38:56.000Z</time>
      </trkpt>
      <trkpt lat="45.88753" lon="3.04067">
        <ele>480.4</ele>
        <time>1970-01-01T00:38:57.000Z</time>
      </trkpt>
      <trkpt lat="45.88754" lon="3.04066">
        <ele>480.5</ele>
        <time>1970-01-01T00:38:58.000Z</time>
      </trkpt>
      <trkpt lat="45.88755" lon="3.04064">
        <ele>480.7</ele>
        <time>1970-01-01T00:38:59.000Z</time>
      </trkpt>
      <trkpt lat="45.88757" lon="3.04063">
        <ele>481</ele>
        <time>1970-01-01T00:39:00.000Z</time>
      </trkpt>
      <trkpt lat="45.88757" lon="3.04062">
        <ele>481.1</ele>
        <time>1970-01-01T00:39:01.000Z</time>
      </trkpt>
      <trkpt lat="45.88758" lon="3.04061">
        <ele>481.2</ele>
        <time>1970-01-01T00:39:02.000Z</time>
      </trkpt>
      <trkpt lat="45.88759" lon="3.04058">
        <ele>481.5</ele>
        <time>1970-01-01T00:39:03.000Z</time>
      </trkpt>
      <trkpt lat="45.8876" lon="3.04055">
        <ele>481.8</ele>
        <time>1970-01-01T00:39:05.000Z</time>
      </trkpt>
      <trkpt lat="45.8876" lon="3.04053">
        <ele>481.9</ele>
        <time>1970-01-01T00:39:06.000Z</time>
      </trkpt>
      <trkpt lat="45.88761" lon="3.04051">
        <ele>482.1</ele>
        <time>1970-01-01T00:39:07.000Z</time>
      </trkpt>
      <trkpt lat="45.88764" lon="3.0405">
        <ele>482.5</ele>
        <time>1970-01-01T00:39:08.000Z</time>
      </trkpt>
      <trkpt lat="45.88764" lon="3.04049">
        <ele>482.6</ele>
        <time>1970-01-01T00:39:09.000Z</time>
      </trkpt>
      <trkpt lat="45.88766" lon="3.04045">
        <ele>483</ele>
        <time>1970-01-01T00:39:11.000Z</time>
      </trkpt>
      <trkpt lat="45.88766" lon="3.04044">
        <ele>483</ele>
        <time>1970-01-01T00:39:12.000Z</time>
      </trkpt>
      <trkpt lat="45.88767" lon="3.04042">
        <ele>483.3</ele>
        <time>1970-01-01T00:39:13.000Z</time>
      </trkpt>
      <trkpt lat="45.88767" lon="3.0404">
        <ele>483.5</ele>
        <time>1970-01-01T00:39:14.000Z</time>
      </trkpt>
      <trkpt lat="45.88768" lon="3.04037">
        <ele>483.7</ele>
        <time>1970-01-01T00:39:16.000Z</time>
      </trkpt>
      <trkpt lat="45.88769" lon="3.04036">
        <ele>483.9</ele>
        <time>1970-01-01T00:39:17.000Z</time>
      </trkpt>
      <trkpt lat="45.8877" lon="3.04031">
        <ele>484.3</ele>
        <time>1970-01-01T00:39:18.000Z</time>
      </trkpt>
      <trkpt lat="45.8877" lon="3.04029">
        <ele>484.5</ele>
        <time>1970-01-01T00:39:20.000Z</time>
      </trkpt>
      <trkpt lat="45.88771" lon="3.04027">
        <ele>484.7</ele>
        <time>1970-01-01T00:39:21.000Z</time>
      </trkpt>
      <trkpt lat="45.88771" lon="3.04025">
        <ele>484.9</ele>
        <time>1970-01-01T00:39:22.000Z</time>
      </trkpt>
      <trkpt lat="45.88772" lon="3.04023">
        <ele>485.2</ele>
        <time>1970-01-01T00:39:24.000Z</time>
      </trkpt>
      <trkpt lat="45.88772" lon="3.04021">
        <ele>485.4</ele>
        <time>1970-01-01T00:39:25.000Z</time>
      </trkpt>
      <trkpt lat="45.88773" lon="3.04019">
        <ele>485.6</ele>
        <time>1970-01-01T00:39:26.000Z</time>
      </trkpt>
      <trkpt lat="45.88774" lon="3.04017">
        <ele>485.9</ele>
        <time>1970-01-01T00:39:27.000Z</time>
      </trkpt>
      <trkpt lat="45.88775" lon="3.04015">
        <ele>486.2</ele>
        <time>1970-01-01T00:39:28.000Z</time>
      </trkpt>
      <trkpt lat="45.88777" lon="3.04013">
        <ele>486.5</ele>
        <time>1970-01-01T00:39:30.000Z</time>
      </trkpt>
      <trkpt lat="45.88777" lon="3.04012">
        <ele>486.7</ele>
        <time>1970-01-01T00:39:31.000Z</time>
      </trkpt>
      <trkpt lat="45.88778" lon="3.0401">
        <ele>486.8</ele>
        <time>1970-01-01T00:39:32.000Z</time>
      </trkpt>
      <trkpt lat="45.88779" lon="3.04006">
        <ele>487.3</ele>
        <time>1970-01-01T00:39:34.000Z</time>
      </trkpt>
      <trkpt lat="45.88781" lon="3.04003">
        <ele>487.8</ele>
        <time>1970-01-01T00:39:35.000Z</time>
      </trkpt>
      <trkpt lat="45.88782" lon="3.04002">
        <ele>487.9</ele>
        <time>1970-01-01T00:39:36.000Z</time>
      </trkpt>
      <trkpt lat="45.88782" lon="3.04001">
        <ele>488</ele>
        <time>1970-01-01T00:39:37.000Z</time>
      </trkpt>
      <trkpt lat="45.88782" lon="3.03999">
        <ele>488.3</ele>
        <time>1970-01-01T00:39:39.000Z</time>
      </trkpt>
      <trkpt lat="45.88783" lon="3.03997">
        <ele>488.6</ele>
        <time>1970-01-01T00:39:40.000Z</time>
      </trkpt>
      <trkpt lat="45.88783" lon="3.03995">
        <ele>488.8</ele>
        <time>1970-01-01T00:39:41.000Z</time>
      </trkpt>
      <trkpt lat="45.88784" lon="3.03993">
        <ele>489.1</ele>
        <time>1970-01-01T00:39:42.000Z</time>
      </trkpt>
      <trkpt lat="45.88785" lon="3.03991">
        <ele>489.3</ele>
        <time>1970-01-01T00:39:44.000Z</time>
      </trkpt>
      <trkpt lat="45.88785" lon="3.0399">
        <ele>489.5</ele>
        <time>1970-01-01T00:39:45.000Z</time>
      </trkpt>
      <trkpt lat="45.88786" lon="3.03987">
        <ele>489.9</ele>
        <time>1970-01-01T00:39:47.000Z</time>
      </trkpt>
      <trkpt lat="45.88787" lon="3.03985">
        <ele>490.2</ele>
        <time>1970-01-01T00:39:48.000Z</time>
      </trkpt>
      <trkpt lat="45.88788" lon="3.03983">
        <ele>490.5</ele>
        <time>1970-01-01T00:39:49.000Z</time>
      </trkpt>
      <trkpt lat="45.88789" lon="3.03981">
        <ele>490.8</ele>
        <time>1970-01-01T00:39:50.000Z</time>
      </trkpt>
      <trkpt lat="45.88791" lon="3.03979">
        <ele>491.2</ele>
        <time>1970-01-01T00:39:52.000Z</time>
      </trkpt>
      <trkpt lat="45.88792" lon="3.03976">
        <ele>491.6</ele>
        <time>1970-01-01T00:39:53.000Z</time>
      </trkpt>
      <trkpt lat="45.88792" lon="3.03975">
        <ele>491.7</ele>
        <time>1970-01-01T00:39:54.000Z</time>
      </trkpt>
      <trkpt lat="45.88793" lon="3.03974">
        <ele>491.9</ele>
        <time>1970-01-01T00:39:55.000Z</time>
      </trkpt>
      <trkpt lat="45.88794" lon="3.03973">
        <ele>492.1</ele>
        <time>1970-01-01T00:39:56.000Z</time>
      </trkpt>
      <trkpt lat="45.88795" lon="3.03971">
        <ele>492.5</ele>
        <time>1970-01-01T00:39:57.000Z</time>
      </trkpt>
      <trkpt lat="45.88795" lon="3.03969">
        <ele>492.7</ele>
        <time>1970-01-01T00:39:58.000Z</time>
      </trkpt>
      <trkpt lat="45.88796" lon="3.03967">
        <ele>492.9</ele>
        <time>1970-01-01T00:39:59.000Z</time>
      </trkpt>
      <trkpt lat="45.88796" lon="3.03966">
        <ele>493.1</ele>
        <time>1970-01-01T00:40:00.000Z</time>
      </trkpt>
      <trkpt lat="45.88797" lon="3.03964">
        <ele>493.4</ele>
        <time>1970-01-01T00:40:01.000Z</time>
      </trkpt>
      <trkpt lat="45.88797" lon="3.03962">
        <ele>493.7</ele>
        <time>1970-01-01T00:40:02.000Z</time>
      </trkpt>
      <trkpt lat="45.88798" lon="3.03959">
        <ele>494</ele>
        <time>1970-01-01T00:40:03.000Z</time>
      </trkpt>
      <trkpt lat="45.88798" lon="3.03958">
        <ele>494.2</ele>
        <time>1970-01-01T00:40:04.000Z</time>
      </trkpt>
      <trkpt lat="45.88798" lon="3.03957">
        <ele>494.3</ele>
        <time>1970-01-01T00:40:05.000Z</time>
      </trkpt>
      <trkpt lat="45.88799" lon="3.03954">
        <ele>494.7</ele>
        <time>1970-01-01T00:40:06.000Z</time>
      </trkpt>
      <trkpt lat="45.88799" lon="3.03953">
        <ele>494.9</ele>
        <time>1970-01-01T00:40:07.000Z</time>
      </trkpt>
      <trkpt lat="45.888" lon="3.03952">
        <ele>495</ele>
        <time>1970-01-01T00:40:08.000Z</time>
      </trkpt>
      <trkpt lat="45.88801" lon="3.0395">
        <ele>495.3</ele>
        <time>1970-01-01T00:40:09.000Z</time>
      </trkpt>
      <trkpt lat="45.88802" lon="3.03949">
        <ele>495.6</ele>
        <time>1970-01-01T00:40:10.000Z</time>
      </trkpt>
      <trkpt lat="45.88803" lon="3.03947">
        <ele>496</ele>
        <time>1970-01-01T00:40:12.000Z</time>
      </trkpt>
      <trkpt lat="45.88804" lon="3.03946">
        <ele>496.2</ele>
        <time>1970-01-01T00:40:13.000Z</time>
      </trkpt>
      <trkpt lat="45.88807" lon="3.03944">
        <ele>496.8</ele>
        <time>1970-01-01T00:40:15.000Z</time>
      </trkpt>
      <trkpt lat="45.88808" lon="3.03943">
        <ele>496.9</ele>
        <time>1970-01-01T00:40:16.000Z</time>
      </trkpt>
      <trkpt lat="45.8881" lon="3.03941">
        <ele>497.3</ele>
        <time>1970-01-01T00:40:17.000Z</time>
      </trkpt>
      <trkpt lat="45.88812" lon="3.0394">
        <ele>497.7</ele>
        <time>1970-01-01T00:40:19.000Z</time>
      </trkpt>
      <trkpt lat="45.88813" lon="3.03939">
        <ele>497.9</ele>
        <time>1970-01-01T00:40:20.000Z</time>
      </trkpt>
      <trkpt lat="45.88814" lon="3.03938">
        <ele>498.1</ele>
        <time>1970-01-01T00:40:21.000Z</time>
      </trkpt>
      <trkpt lat="45.88815" lon="3.03935">
        <ele>498.5</ele>
        <time>1970-01-01T00:40:22.000Z</time>
      </trkpt>
      <trkpt lat="45.88815" lon="3.03933">
        <ele>499.2</ele>
        <time>1970-01-01T00:40:24.000Z</time>
      </trkpt>
      <trkpt lat="45.88816" lon="3.03932">
        <ele>499.2</ele>
        <time>1970-01-01T00:40:25.000Z</time>
      </trkpt>
      <trkpt lat="45.88816" lon="3.0393">
        <ele>499.1</ele>
        <time>1970-01-01T00:40:26.000Z</time>
      </trkpt>
      <trkpt lat="45.88816" lon="3.03929">
        <ele>499.1</ele>
        <time>1970-01-01T00:40:27.000Z</time>
      </trkpt>
      <trkpt lat="45.88817" lon="3.03928">
        <ele>499</ele>
        <time>1970-01-01T00:40:28.000Z</time>
      </trkpt>
      <trkpt lat="45.88818" lon="3.03927">
        <ele>499</ele>
        <time>1970-01-01T00:40:29.000Z</time>
      </trkpt>
      <trkpt lat="45.88818" lon="3.03926">
        <ele>499</ele>
        <time>1970-01-01T00:40:30.000Z</time>
      </trkpt>
      <trkpt lat="45.8882" lon="3.03923">
        <ele>498.8</ele>
        <time>1970-01-01T00:40:31.000Z</time>
      </trkpt>
      <trkpt lat="45.88821" lon="3.03922">
        <ele>498.8</ele>
        <time>1970-01-01T00:40:32.000Z</time>
      </trkpt>
      <trkpt lat="45.88822" lon="3.0392">
        <ele>498.7</ele>
        <time>1970-01-01T00:40:34.000Z</time>
      </trkpt>
      <trkpt lat="45.88823" lon="3.03919">
        <ele>498.7</ele>
        <time>1970-01-01T00:40:35.000Z</time>
      </trkpt>
      <trkpt lat="45.88825" lon="3.03916">
        <ele>498.6</ele>
        <time>1970-01-01T00:40:37.000Z</time>
      </trkpt>
      <trkpt lat="45.88825" lon="3.03916">
        <ele>498.6</ele>
        <time>1970-01-01T00:40:38.000Z</time>
      </trkpt>
      <trkpt lat="45.88827" lon="3.03913">
        <ele>498.5</ele>
        <time>1970-01-01T00:40:39.000Z</time>
      </trkpt>
      <trkpt lat="45.88827" lon="3.03912">
        <ele>498.4</ele>
        <time>1970-01-01T00:40:40.000Z</time>
      </trkpt>
      <trkpt lat="45.88828" lon="3.03911">
        <ele>498.4</ele>
        <time>1970-01-01T00:40:41.000Z</time>
      </trkpt>
      <trkpt lat="45.88829" lon="3.03909">
        <ele>498.4</ele>
        <time>1970-01-01T00:40:42.000Z</time>
      </trkpt>
      <trkpt lat="45.88829" lon="3.03908">
        <ele>498.4</ele>
        <time>1970-01-01T00:40:43.000Z</time>
      </trkpt>
      <trkpt lat="45.88829" lon="3.03906">
        <ele>498.4</ele>
        <time>1970-01-01T00:40:44.000Z</time>
      </trkpt>
      <trkpt lat="45.88829" lon="3.03904">
        <ele>498.4</ele>
        <time>1970-01-01T00:40:45.000Z</time>
      </trkpt>
      <trkpt lat="45.88828" lon="3.03903">
        <ele>498.4</ele>
        <time>1970-01-01T00:40:46.000Z</time>
      </trkpt>
      <trkpt lat="45.88828" lon="3.03901">
        <ele>498.4</ele>
        <time>1970-01-01T00:40:47.000Z</time>
      </trkpt>
      <trkpt lat="45.88827" lon="3.03899">
        <ele>498.4</ele>
        <time>1970-01-01T00:40:49.000Z</time>
      </trkpt>
      <trkpt lat="45.88826" lon="3.03897">
        <ele>498.4</ele>
        <time>1970-01-01T00:40:50.000Z</time>
      </trkpt>
      <trkpt lat="45.88826" lon="3.03891">
        <ele>498.5</ele>
        <time>1970-01-01T00:40:51.000Z</time>
      </trkpt>
      <trkpt lat="45.88826" lon="3.03889">
        <ele>498.5</ele>
        <time>1970-01-01T00:40:52.000Z</time>
      </trkpt>
      <trkpt lat="45.88825" lon="3.03888">
        <ele>498.5</ele>
        <time>1970-01-01T00:40:53.000Z</time>
      </trkpt>
      <trkpt lat="45.88825" lon="3.03887">
        <ele>498.5</ele>
        <time>1970-01-01T00:40:54.000Z</time>
      </trkpt>
      <trkpt lat="45.88825" lon="3.03887">
        <ele>498.5</ele>
        <time>1970-01-01T00:40:55.000Z</time>
      </trkpt>
      <trkpt lat="45.88825" lon="3.03887">
        <ele>498.5</ele>
        <time>1970-01-01T00:40:56.000Z</time>
      </trkpt>
      <trkpt lat="45.88824" lon="3.03888">
        <ele>498.5</ele>
        <time>1970-01-01T00:40:57.000Z</time>
      </trkpt>
      <trkpt lat="45.88824" lon="3.03888">
        <ele>498.6</ele>
        <time>1970-01-01T00:40:58.000Z</time>
      </trkpt>
      <trkpt lat="45.88823" lon="3.03889">
        <ele>498.6</ele>
        <time>1970-01-01T00:40:59.000Z</time>
      </trkpt>
      <trkpt lat="45.88823" lon="3.03889">
        <ele>498.6</ele>
        <time>1970-01-01T00:41:00.000Z</time>
      </trkpt>
      <trkpt lat="45.88823" lon="3.03889">
        <ele>498.6</ele>
        <time>1970-01-01T00:41:01.000Z</time>
      </trkpt>
      <trkpt lat="45.88823" lon="3.03889">
        <ele>498.6</ele>
        <time>1970-01-01T00:41:02.000Z</time>
      </trkpt>
      <trkpt lat="45.88823" lon="3.03889">
        <ele>498.6</ele>
        <time>1970-01-01T00:41:03.000Z</time>
      </trkpt>
      <trkpt lat="45.88823" lon="3.03889">
        <ele>498.6</ele>
        <time>1970-01-01T00:41:04.000Z</time>
      </trkpt>
      <trkpt lat="45.88823" lon="3.03889">
        <ele>498.6</ele>
        <time>1970-01-01T00:41:05.000Z</time>
      </trkpt>
      <trkpt lat="45.88822" lon="3.03889">
        <ele>498.6</ele>
        <time>1970-01-01T00:41:06.000Z</time>
      </trkpt>
      <trkpt lat="45.8882" lon="3.03888">
        <ele>498.7</ele>
        <time>1970-01-01T00:41:45.000Z</time>
      </trkpt>
      <trkpt lat="45.88819" lon="3.03888">
        <ele>498.7</ele>
        <time>1970-01-01T00:41:46.000Z</time>
      </trkpt>
      <trkpt lat="45.88819" lon="3.03887">
        <ele>498.7</ele>
        <time>1970-01-01T00:41:47.000Z</time>
      </trkpt>
      <trkpt lat="45.88818" lon="3.03887">
        <ele>498.8</ele>
        <time>1970-01-01T00:41:48.000Z</time>
      </trkpt>
      <trkpt lat="45.88818" lon="3.03886">
        <ele>498.8</ele>
        <time>1970-01-01T00:41:49.000Z</time>
      </trkpt>
      <trkpt lat="45.88818" lon="3.03886">
        <ele>498.8</ele>
        <time>1970-01-01T00:41:50.000Z</time>
      </trkpt>
      <trkpt lat="45.88818" lon="3.03886">
        <ele>498.8</ele>
        <time>1970-01-01T00:41:51.000Z</time>
      </trkpt>
      <trkpt lat="45.88818" lon="3.03886">
        <ele>498.8</ele>
        <time>1970-01-01T00:41:52.000Z</time>
      </trkpt>
      <trkpt lat="45.88818" lon="3.03886">
        <ele>498.8</ele>
        <time>1970-01-01T00:41:53.000Z</time>
      </trkpt>
      <trkpt lat="45.88818" lon="3.03886">
        <ele>498.8</ele>
        <time>1970-01-01T00:41:54.000Z</time>
      </trkpt>
      <trkpt lat="45.88818" lon="3.03886">
        <ele>498.8</ele>
        <time>1970-01-01T00:41:55.000Z</time>
      </trkpt>
      <trkpt lat="45.88818" lon="3.03886">
        <ele>498.8</ele>
        <time>1970-01-01T00:41:56.000Z</time>
      </trkpt>
      <trkpt lat="45.88818" lon="3.03886">
        <ele>498.8</ele>
        <time>1970-01-01T00:41:57.000Z</time>
      </trkpt>
      <trkpt lat="45.88818" lon="3.03886">
        <ele>498.9</ele>
        <time>1970-01-01T00:41:58.000Z</time>
      </trkpt>
      <trkpt lat="45.88818" lon="3.03886">
        <ele>498.9</ele>
        <time>1970-01-01T00:41:59.000Z</time>
      </trkpt>
      <trkpt lat="45.88817" lon="3.03884">
        <ele>499</ele>
        <time>1970-01-01T00:43:28.000Z</time>
      </trkpt>
      <trkpt lat="45.88817" lon="3.03884">
        <ele>499</ele>
        <time>1970-01-01T00:43:29.000Z</time>
      </trkpt>
      <trkpt lat="45.88817" lon="3.03882">
        <ele>499</ele>
        <time>1970-01-01T00:43:30.000Z</time>
      </trkpt>
      <trkpt lat="45.88817" lon="3.03882">
        <ele>499.1</ele>
        <time>1970-01-01T00:43:31.000Z</time>
      </trkpt>
      <trkpt lat="45.88816" lon="3.03881">
        <ele>499.1</ele>
        <time>1970-01-01T00:43:32.000Z</time>
      </trkpt>
      <trkpt lat="45.88814" lon="3.03881">
        <ele>499.2</ele>
        <time>1970-01-01T00:43:33.000Z</time>
      </trkpt>
      <trkpt lat="45.88813" lon="3.0388">
        <ele>499.3</ele>
        <time>1970-01-01T00:43:34.000Z</time>
      </trkpt>
      <trkpt lat="45.88811" lon="3.0388">
        <ele>499.4</ele>
        <time>1970-01-01T00:43:35.000Z</time>
      </trkpt>
      <trkpt lat="45.88811" lon="3.03882">
        <ele>499.4</ele>
        <time>1970-01-01T00:43:36.000Z</time>
      </trkpt>
      <trkpt lat="45.88809" lon="3.03884">
        <ele>499.6</ele>
        <time>1970-01-01T00:43:37.000Z</time>
      </trkpt>
      <trkpt lat="45.88804" lon="3.03885">
        <ele>500</ele>
        <time>1970-01-01T00:43:39.000Z</time>
      </trkpt>
      <trkpt lat="45.88802" lon="3.03885">
        <ele>500.1</ele>
        <time>1970-01-01T00:43:40.000Z</time>
      </trkpt>
      <trkpt lat="45.88801" lon="3.03885">
        <ele>500.2</ele>
        <time>1970-01-01T00:43:41.000Z</time>
      </trkpt>
      <trkpt lat="45.88797" lon="3.03886">
        <ele>500.5</ele>
        <time>1970-01-01T00:43:43.000Z</time>
      </trkpt>
      <trkpt lat="45.88796" lon="3.03886">
        <ele>500.6</ele>
        <time>1970-01-01T00:43:44.000Z</time>
      </trkpt>
      <trkpt lat="45.88793" lon="3.03887">
        <ele>500.9</ele>
        <time>1970-01-01T00:43:46.000Z</time>
      </trkpt>
      <trkpt lat="45.88792" lon="3.03887">
        <ele>501</ele>
        <time>1970-01-01T00:43:47.000Z</time>
      </trkpt>
      <trkpt lat="45.88791" lon="3.03888">
        <ele>501.1</ele>
        <time>1970-01-01T00:43:48.000Z</time>
      </trkpt>
      <trkpt lat="45.8879" lon="3.03888">
        <ele>501.2</ele>
        <time>1970-01-01T00:43:49.000Z</time>
      </trkpt>
      <trkpt lat="45.88788" lon="3.0389">
        <ele>501.5</ele>
        <time>1970-01-01T00:43:50.000Z</time>
      </trkpt>
      <trkpt lat="45.88787" lon="3.0389">
        <ele>501.6</ele>
        <time>1970-01-01T00:43:51.000Z</time>
      </trkpt>
      <trkpt lat="45.88785" lon="3.03891">
        <ele>501.8</ele>
        <time>1970-01-01T00:43:52.000Z</time>
      </trkpt>
      <trkpt lat="45.88783" lon="3.03891">
        <ele>502</ele>
        <time>1970-01-01T00:43:54.000Z</time>
      </trkpt>
      <trkpt lat="45.88781" lon="3.03891">
        <ele>502.2</ele>
        <time>1970-01-01T00:43:55.000Z</time>
      </trkpt>
      <trkpt lat="45.88779" lon="3.03893">
        <ele>502.5</ele>
        <time>1970-01-01T00:43:57.000Z</time>
      </trkpt>
      <trkpt lat="45.88778" lon="3.03894">
        <ele>502.6</ele>
        <time>1970-01-01T00:43:58.000Z</time>
      </trkpt>
      <trkpt lat="45.88776" lon="3.03894">
        <ele>502.8</ele>
        <time>1970-01-01T00:43:59.000Z</time>
      </trkpt>
      <trkpt lat="45.88774" lon="3.03894">
        <ele>503</ele>
        <time>1970-01-01T00:44:00.000Z</time>
      </trkpt>
      <trkpt lat="45.88771" lon="3.03894">
        <ele>503.3</ele>
        <time>1970-01-01T00:44:02.000Z</time>
      </trkpt>
      <trkpt lat="45.88771" lon="3.03893">
        <ele>503.4</ele>
        <time>1970-01-01T00:44:03.000Z</time>
      </trkpt>
      <trkpt lat="45.88771" lon="3.03892">
        <ele>503.4</ele>
        <time>1970-01-01T00:44:04.000Z</time>
      </trkpt>
      <trkpt lat="45.88771" lon="3.03892">
        <ele>503.4</ele>
        <time>1970-01-01T00:44:05.000Z</time>
      </trkpt>
      <trkpt lat="45.88771" lon="3.03892">
        <ele>503.4</ele>
        <time>1970-01-01T00:44:06.000Z</time>
      </trkpt>
      <trkpt lat="45.8877" lon="3.03892">
        <ele>503.5</ele>
        <time>1970-01-01T00:44:07.000Z</time>
      </trkpt>
      <trkpt lat="45.88769" lon="3.03891">
        <ele>503.6</ele>
        <time>1970-01-01T00:44:08.000Z</time>
      </trkpt>
      <trkpt lat="45.88769" lon="3.03892">
        <ele>503.6</ele>
        <time>1970-01-01T00:44:09.000Z</time>
      </trkpt>
      <trkpt lat="45.88769" lon="3.03892">
        <ele>503.6</ele>
        <time>1970-01-01T00:44:10.000Z</time>
      </trkpt>
      <trkpt lat="45.88769" lon="3.03892">
        <ele>503.7</ele>
        <time>1970-01-01T00:44:12.000Z</time>
      </trkpt>
      <trkpt lat="45.88768" lon="3.03892">
        <ele>503.8</ele>
        <time>1970-01-01T00:44:13.000Z</time>
      </trkpt>
      <trkpt lat="45.88768" lon="3.03891">
        <ele>503.8</ele>
        <time>1970-01-01T00:44:14.000Z</time>
      </trkpt>
      <trkpt lat="45.88768" lon="3.03891">
        <ele>503.8</ele>
        <time>1970-01-01T00:44:15.000Z</time>
      </trkpt>
      <trkpt lat="45.88767" lon="3.0389">
        <ele>503.9</ele>
        <time>1970-01-01T00:44:17.000Z</time>
      </trkpt>
      <trkpt lat="45.88766" lon="3.03889">
        <ele>504</ele>
        <time>1970-01-01T00:44:18.000Z</time>
      </trkpt>
      <trkpt lat="45.88764" lon="3.03886">
        <ele>504.3</ele>
        <time>1970-01-01T00:44:19.000Z</time>
      </trkpt>
      <trkpt lat="45.88762" lon="3.03883">
        <ele>504.6</ele>
        <time>1970-01-01T00:44:21.000Z</time>
      </trkpt>
      <trkpt lat="45.88761" lon="3.03882">
        <ele>504.7</ele>
        <time>1970-01-01T00:44:22.000Z</time>
      </trkpt>
      <trkpt lat="45.88759" lon="3.03878">
        <ele>505</ele>
        <time>1970-01-01T00:44:23.000Z</time>
      </trkpt>
      <trkpt lat="45.88759" lon="3.03877">
        <ele>505.1</ele>
        <time>1970-01-01T00:44:24.000Z</time>
      </trkpt>
      <trkpt lat="45.88757" lon="3.03875">
        <ele>505.3</ele>
        <time>1970-01-01T00:44:26.000Z</time>
      </trkpt>
      <trkpt lat="45.88755" lon="3.03872">
        <ele>505.5</ele>
        <time>1970-01-01T00:44:28.000Z</time>
      </trkpt>
      <trkpt lat="45.88753" lon="3.03869">
        <ele>505.7</ele>
        <time>1970-01-01T00:44:29.000Z</time>
      </trkpt>
      <trkpt lat="45.88753" lon="3.03868">
        <ele>505.8</ele>
        <time>1970-01-01T00:44:30.000Z</time>
      </trkpt>
      <trkpt lat="45.88752" lon="3.03866">
        <ele>505.9</ele>
        <time>1970-01-01T00:44:31.000Z</time>
      </trkpt>
      <trkpt lat="45.88751" lon="3.03865">
        <ele>506</ele>
        <time>1970-01-01T00:44:32.000Z</time>
      </trkpt>
      <trkpt lat="45.88749" lon="3.03861">
        <ele>506.2</ele>
        <time>1970-01-01T00:44:33.000Z</time>
      </trkpt>
      <trkpt lat="45.88749" lon="3.0386">
        <ele>506.3</ele>
        <time>1970-01-01T00:44:34.000Z</time>
      </trkpt>
      <trkpt lat="45.88749" lon="3.03857">
        <ele>506.5</ele>
        <time>1970-01-01T00:44:35.000Z</time>
      </trkpt>
      <trkpt lat="45.88748" lon="3.03855">
        <ele>506.6</ele>
        <time>1970-01-01T00:44:36.000Z</time>
      </trkpt>
      <trkpt lat="45.88746" lon="3.03851">
        <ele>506.9</ele>
        <time>1970-01-01T00:44:38.000Z</time>
      </trkpt>
      <trkpt lat="45.88746" lon="3.03849">
        <ele>507</ele>
        <time>1970-01-01T00:44:39.000Z</time>
      </trkpt>
      <trkpt lat="45.88745" lon="3.03847">
        <ele>507.1</ele>
        <time>1970-01-01T00:44:41.000Z</time>
      </trkpt>
      <trkpt lat="45.88744" lon="3.03845">
        <ele>507.2</ele>
        <time>1970-01-01T00:44:42.000Z</time>
      </trkpt>
      <trkpt lat="45.88744" lon="3.03843">
        <ele>507.4</ele>
        <time>1970-01-01T00:44:43.000Z</time>
      </trkpt>
      <trkpt lat="45.88743" lon="3.03841">
        <ele>507.5</ele>
        <time>1970-01-01T00:44:44.000Z</time>
      </trkpt>
      <trkpt lat="45.88742" lon="3.03838">
        <ele>507.7</ele>
        <time>1970-01-01T00:44:45.000Z</time>
      </trkpt>
      <trkpt lat="45.8874" lon="3.03833">
        <ele>508</ele>
        <time>1970-01-01T00:44:47.000Z</time>
      </trkpt>
      <trkpt lat="45.88739" lon="3.0383">
        <ele>508.2</ele>
        <time>1970-01-01T00:44:48.000Z</time>
      </trkpt>
      <trkpt lat="45.88738" lon="3.03827">
        <ele>508.4</ele>
        <time>1970-01-01T00:44:50.000Z</time>
      </trkpt>
      <trkpt lat="45.88737" lon="3.03825">
        <ele>508.5</ele>
        <time>1970-01-01T00:44:51.000Z</time>
      </trkpt>
      <trkpt lat="45.88736" lon="3.03823">
        <ele>508.7</ele>
        <time>1970-01-01T00:44:52.000Z</time>
      </trkpt>
      <trkpt lat="45.88735" lon="3.03819">
        <ele>508.9</ele>
        <time>1970-01-01T00:44:53.000Z</time>
      </trkpt>
      <trkpt lat="45.88734" lon="3.03818">
        <ele>509</ele>
        <time>1970-01-01T00:44:54.000Z</time>
      </trkpt>
      <trkpt lat="45.88733" lon="3.03816">
        <ele>509.2</ele>
        <time>1970-01-01T00:44:56.000Z</time>
      </trkpt>
      <trkpt lat="45.88732" lon="3.03814">
        <ele>509.3</ele>
        <time>1970-01-01T00:44:57.000Z</time>
      </trkpt>
      <trkpt lat="45.88731" lon="3.03812">
        <ele>509.5</ele>
        <time>1970-01-01T00:44:58.000Z</time>
      </trkpt>
      <trkpt lat="45.8873" lon="3.03811">
        <ele>509.6</ele>
        <time>1970-01-01T00:44:59.000Z</time>
      </trkpt>
      <trkpt lat="45.88728" lon="3.03807">
        <ele>509.9</ele>
        <time>1970-01-01T00:45:01.000Z</time>
      </trkpt>
      <trkpt lat="45.88728" lon="3.03806">
        <ele>509.9</ele>
        <time>1970-01-01T00:45:02.000Z</time>
      </trkpt>
      <trkpt lat="45.88725" lon="3.03801">
        <ele>510.3</ele>
        <time>1970-01-01T00:45:04.000Z</time>
      </trkpt>
      <trkpt lat="45.88725" lon="3.038">
        <ele>510.4</ele>
        <time>1970-01-01T00:45:05.000Z</time>
      </trkpt>
      <trkpt lat="45.88724" lon="3.03799">
        <ele>510.5</ele>
        <time>1970-01-01T00:45:06.000Z</time>
      </trkpt>
      <trkpt lat="45.88724" lon="3.03798">
        <ele>510.6</ele>
        <time>1970-01-01T00:45:07.000Z</time>
      </trkpt>
      <trkpt lat="45.88723" lon="3.03796">
        <ele>510.8</ele>
        <time>1970-01-01T00:45:08.000Z</time>
      </trkpt>
      <trkpt lat="45.88722" lon="3.03794">
        <ele>511</ele>
        <time>1970-01-01T00:45:10.000Z</time>
      </trkpt>
      <trkpt lat="45.8872" lon="3.03792">
        <ele>511.2</ele>
        <time>1970-01-01T00:45:11.000Z</time>
      </trkpt>
      <trkpt lat="45.88719" lon="3.0379">
        <ele>511.4</ele>
        <time>1970-01-01T00:45:13.000Z</time>
      </trkpt>
      <trkpt lat="45.88718" lon="3.03788">
        <ele>511.6</ele>
        <time>1970-01-01T00:45:14.000Z</time>
      </trkpt>
      <trkpt lat="45.88717" lon="3.03785">
        <ele>511.8</ele>
        <time>1970-01-01T00:45:16.000Z</time>
      </trkpt>
      <trkpt lat="45.88716" lon="3.03784">
        <ele>512</ele>
        <time>1970-01-01T00:45:17.000Z</time>
      </trkpt>
      <trkpt lat="45.88715" lon="3.03782">
        <ele>512.1</ele>
        <time>1970-01-01T00:45:18.000Z</time>
      </trkpt>
      <trkpt lat="45.88714" lon="3.0378">
        <ele>512.3</ele>
        <time>1970-01-01T00:45:19.000Z</time>
      </trkpt>
      <trkpt lat="45.88713" lon="3.03778">
        <ele>512.5</ele>
        <time>1970-01-01T00:45:20.000Z</time>
      </trkpt>
      <trkpt lat="45.88711" lon="3.03775">
        <ele>512.8</ele>
        <time>1970-01-01T00:45:22.000Z</time>
      </trkpt>
      <trkpt lat="45.8871" lon="3.03774">
        <ele>512.9</ele>
        <time>1970-01-01T00:45:23.000Z</time>
      </trkpt>
      <trkpt lat="45.8871" lon="3.03773">
        <ele>513</ele>
        <time>1970-01-01T00:45:24.000Z</time>
      </trkpt>
      <trkpt lat="45.88709" lon="3.03772">
        <ele>513.1</ele>
        <time>1970-01-01T00:45:25.000Z</time>
      </trkpt>
      <trkpt lat="45.88708" lon="3.0377">
        <ele>513.2</ele>
        <time>1970-01-01T00:45:26.000Z</time>
      </trkpt>
      <trkpt lat="45.88707" lon="3.03768">
        <ele>513.4</ele>
        <time>1970-01-01T00:45:27.000Z</time>
      </trkpt>
      <trkpt lat="45.88707" lon="3.03766">
        <ele>513.6</ele>
        <time>1970-01-01T00:45:28.000Z</time>
      </trkpt>
      <trkpt lat="45.88707" lon="3.03764">
        <ele>513.7</ele>
        <time>1970-01-01T00:45:29.000Z</time>
      </trkpt>
      <trkpt lat="45.88706" lon="3.03762">
        <ele>513.9</ele>
        <time>1970-01-01T00:45:31.000Z</time>
      </trkpt>
      <trkpt lat="45.88705" lon="3.0376">
        <ele>514</ele>
        <time>1970-01-01T00:45:32.000Z</time>
      </trkpt>
      <trkpt lat="45.88704" lon="3.03758">
        <ele>514.2</ele>
        <time>1970-01-01T00:45:33.000Z</time>
      </trkpt>
      <trkpt lat="45.88703" lon="3.03755">
        <ele>514.4</ele>
        <time>1970-01-01T00:45:35.000Z</time>
      </trkpt>
      <trkpt lat="45.88702" lon="3.03754">
        <ele>514.6</ele>
        <time>1970-01-01T00:45:36.000Z</time>
      </trkpt>
      <trkpt lat="45.88701" lon="3.03753">
        <ele>514.7</ele>
        <time>1970-01-01T00:45:37.000Z</time>
      </trkpt>
      <trkpt lat="45.887" lon="3.03752">
        <ele>514.8</ele>
        <time>1970-01-01T00:45:38.000Z</time>
      </trkpt>
      <trkpt lat="45.887" lon="3.03751">
        <ele>514.9</ele>
        <time>1970-01-01T00:45:39.000Z</time>
      </trkpt>
      <trkpt lat="45.88699" lon="3.03749">
        <ele>515.1</ele>
        <time>1970-01-01T00:45:40.000Z</time>
      </trkpt>
      <trkpt lat="45.88698" lon="3.03748">
        <ele>515.2</ele>
        <time>1970-01-01T00:45:41.000Z</time>
      </trkpt>
      <trkpt lat="45.88698" lon="3.03747">
        <ele>515.2</ele>
        <time>1970-01-01T00:45:42.000Z</time>
      </trkpt>
      <trkpt lat="45.88697" lon="3.03745">
        <ele>515.4</ele>
        <time>1970-01-01T00:45:43.000Z</time>
      </trkpt>
      <trkpt lat="45.88696" lon="3.03743">
        <ele>515.6</ele>
        <time>1970-01-01T00:45:45.000Z</time>
      </trkpt>
      <trkpt lat="45.88694" lon="3.03741">
        <ele>515.8</ele>
        <time>1970-01-01T00:45:47.000Z</time>
      </trkpt>
      <trkpt lat="45.88691" lon="3.03737">
        <ele>516.2</ele>
        <time>1970-01-01T00:45:49.000Z</time>
      </trkpt>
      <trkpt lat="45.88691" lon="3.03736">
        <ele>516.3</ele>
        <time>1970-01-01T00:45:50.000Z</time>
      </trkpt>
      <trkpt lat="45.8869" lon="3.03735">
        <ele>516.4</ele>
        <time>1970-01-01T00:45:51.000Z</time>
      </trkpt>
      <trkpt lat="45.88689" lon="3.03733">
        <ele>516.6</ele>
        <time>1970-01-01T00:45:52.000Z</time>
      </trkpt>
      <trkpt lat="45.88688" lon="3.03732">
        <ele>516.8</ele>
        <time>1970-01-01T00:45:53.000Z</time>
      </trkpt>
      <trkpt lat="45.88687" lon="3.03731">
        <ele>516.9</ele>
        <time>1970-01-01T00:45:54.000Z</time>
      </trkpt>
      <trkpt lat="45.88685" lon="3.03728">
        <ele>517.2</ele>
        <time>1970-01-01T00:45:55.000Z</time>
      </trkpt>
      <trkpt lat="45.88685" lon="3.03726">
        <ele>517.3</ele>
        <time>1970-01-01T00:45:57.000Z</time>
      </trkpt>
      <trkpt lat="45.88684" lon="3.03725">
        <ele>517.4</ele>
        <time>1970-01-01T00:45:58.000Z</time>
      </trkpt>
      <trkpt lat="45.88683" lon="3.03723">
        <ele>517.6</ele>
        <time>1970-01-01T00:45:59.000Z</time>
      </trkpt>
      <trkpt lat="45.88681" lon="3.03721">
        <ele>517.8</ele>
        <time>1970-01-01T00:46:00.000Z</time>
      </trkpt>
      <trkpt lat="45.88679" lon="3.03718">
        <ele>518.1</ele>
        <time>1970-01-01T00:46:02.000Z</time>
      </trkpt>
      <trkpt lat="45.88678" lon="3.03717">
        <ele>518.3</ele>
        <time>1970-01-01T00:46:03.000Z</time>
      </trkpt>
      <trkpt lat="45.88676" lon="3.03715">
        <ele>518.5</ele>
        <time>1970-01-01T00:46:04.000Z</time>
      </trkpt>
      <trkpt lat="45.88674" lon="3.03713">
        <ele>518.8</ele>
        <time>1970-01-01T00:46:05.000Z</time>
      </trkpt>
      <trkpt lat="45.88673" lon="3.03712">
        <ele>518.9</ele>
        <time>1970-01-01T00:46:06.000Z</time>
      </trkpt>
      <trkpt lat="45.88671" lon="3.03709">
        <ele>519.2</ele>
        <time>1970-01-01T00:46:08.000Z</time>
      </trkpt>
      <trkpt lat="45.8867" lon="3.03708">
        <ele>519.3</ele>
        <time>1970-01-01T00:46:09.000Z</time>
      </trkpt>
      <trkpt lat="45.88668" lon="3.03706">
        <ele>519.5</ele>
        <time>1970-01-01T00:46:10.000Z</time>
      </trkpt>
      <trkpt lat="45.88668" lon="3.03706">
        <ele>519.6</ele>
        <time>1970-01-01T00:46:11.000Z</time>
      </trkpt>
      <trkpt lat="45.88667" lon="3.03705">
        <ele>519.7</ele>
        <time>1970-01-01T00:46:12.000Z</time>
      </trkpt>
      <trkpt lat="45.88666" lon="3.03704">
        <ele>519.8</ele>
        <time>1970-01-01T00:46:13.000Z</time>
      </trkpt>
      <trkpt lat="45.88664" lon="3.03702">
        <ele>520.1</ele>
        <time>1970-01-01T00:46:14.000Z</time>
      </trkpt>
      <trkpt lat="45.88663" lon="3.03701">
        <ele>520.2</ele>
        <time>1970-01-01T00:46:15.000Z</time>
      </trkpt>
      <trkpt lat="45.88662" lon="3.037">
        <ele>520.4</ele>
        <time>1970-01-01T00:46:16.000Z</time>
      </trkpt>
      <trkpt lat="45.88659" lon="3.03698">
        <ele>520.7</ele>
        <time>1970-01-01T00:46:17.000Z</time>
      </trkpt>
      <trkpt lat="45.88658" lon="3.03697">
        <ele>520.9</ele>
        <time>1970-01-01T00:46:18.000Z</time>
      </trkpt>
      <trkpt lat="45.88656" lon="3.03694">
        <ele>521.2</ele>
        <time>1970-01-01T00:46:19.000Z</time>
      </trkpt>
      <trkpt lat="45.88654" lon="3.03693">
        <ele>521.3</ele>
        <time>1970-01-01T00:46:21.000Z</time>
      </trkpt>
      <trkpt lat="45.88653" lon="3.03692">
        <ele>521.5</ele>
        <time>1970-01-01T00:46:22.000Z</time>
      </trkpt>
      <trkpt lat="45.88652" lon="3.03691">
        <ele>521.7</ele>
        <time>1970-01-01T00:46:23.000Z</time>
      </trkpt>
      <trkpt lat="45.88651" lon="3.03689">
        <ele>521.8</ele>
        <time>1970-01-01T00:46:25.000Z</time>
      </trkpt>
      <trkpt lat="45.8865" lon="3.03688">
        <ele>522</ele>
        <time>1970-01-01T00:46:26.000Z</time>
      </trkpt>
      <trkpt lat="45.88647" lon="3.03685">
        <ele>522.4</ele>
        <time>1970-01-01T00:46:28.000Z</time>
      </trkpt>
      <trkpt lat="45.88646" lon="3.03684">
        <ele>522.5</ele>
        <time>1970-01-01T00:46:29.000Z</time>
      </trkpt>
      <trkpt lat="45.88645" lon="3.03683">
        <ele>522.6</ele>
        <time>1970-01-01T00:46:30.000Z</time>
      </trkpt>
      <trkpt lat="45.88645" lon="3.03682">
        <ele>522.7</ele>
        <time>1970-01-01T00:46:31.000Z</time>
      </trkpt>
      <trkpt lat="45.88644" lon="3.03681">
        <ele>522.8</ele>
        <time>1970-01-01T00:46:32.000Z</time>
      </trkpt>
      <trkpt lat="45.88642" lon="3.03679">
        <ele>523.1</ele>
        <time>1970-01-01T00:46:33.000Z</time>
      </trkpt>
      <trkpt lat="45.88642" lon="3.03678">
        <ele>523.2</ele>
        <time>1970-01-01T00:46:34.000Z</time>
      </trkpt>
      <trkpt lat="45.88641" lon="3.03678">
        <ele>523.2</ele>
        <time>1970-01-01T00:46:35.000Z</time>
      </trkpt>
      <trkpt lat="45.88639" lon="3.03677">
        <ele>523.4</ele>
        <time>1970-01-01T00:46:37.000Z</time>
      </trkpt>
      <trkpt lat="45.88638" lon="3.03676">
        <ele>523.6</ele>
        <time>1970-01-01T00:46:38.000Z</time>
      </trkpt>
      <trkpt lat="45.88636" lon="3.03674">
        <ele>523.8</ele>
        <time>1970-01-01T00:46:40.000Z</time>
      </trkpt>
      <trkpt lat="45.88635" lon="3.03673">
        <ele>524</ele>
        <time>1970-01-01T00:46:41.000Z</time>
      </trkpt>
      <trkpt lat="45.88634" lon="3.03671">
        <ele>524.1</ele>
        <time>1970-01-01T00:46:42.000Z</time>
      </trkpt>
      <trkpt lat="45.88633" lon="3.0367">
        <ele>524.3</ele>
        <time>1970-01-01T00:46:43.000Z</time>
      </trkpt>
      <trkpt lat="45.88631" lon="3.03669">
        <ele>524.4</ele>
        <time>1970-01-01T00:46:44.000Z</time>
      </trkpt>
      <trkpt lat="45.8863" lon="3.03667">
        <ele>524.6</ele>
        <time>1970-01-01T00:46:45.000Z</time>
      </trkpt>
      <trkpt lat="45.88628" lon="3.03664">
        <ele>524.8</ele>
        <time>1970-01-01T00:46:46.000Z</time>
      </trkpt>
      <trkpt lat="45.88627" lon="3.03663">
        <ele>524.9</ele>
        <time>1970-01-01T00:46:47.000Z</time>
      </trkpt>
      <trkpt lat="45.88625" lon="3.03661">
        <ele>525.2</ele>
        <time>1970-01-01T00:46:48.000Z</time>
      </trkpt>
      <trkpt lat="45.88623" lon="3.03658">
        <ele>525.4</ele>
        <time>1970-01-01T00:46:49.000Z</time>
      </trkpt>
      <trkpt lat="45.88621" lon="3.03656">
        <ele>525.6</ele>
        <time>1970-01-01T00:46:51.000Z</time>
      </trkpt>
      <trkpt lat="45.88618" lon="3.03653">
        <ele>525.9</ele>
        <time>1970-01-01T00:46:52.000Z</time>
      </trkpt>
      <trkpt lat="45.88616" lon="3.0365">
        <ele>526.1</ele>
        <time>1970-01-01T00:46:54.000Z</time>
      </trkpt>
      <trkpt lat="45.88616" lon="3.03649">
        <ele>526.2</ele>
        <time>1970-01-01T00:46:55.000Z</time>
      </trkpt>
      <trkpt lat="45.88614" lon="3.03645">
        <ele>526.5</ele>
        <time>1970-01-01T00:46:56.000Z</time>
      </trkpt>
      <trkpt lat="45.88613" lon="3.03644">
        <ele>526.6</ele>
        <time>1970-01-01T00:46:57.000Z</time>
      </trkpt>
      <trkpt lat="45.88612" lon="3.0364">
        <ele>526.9</ele>
        <time>1970-01-01T00:46:59.000Z</time>
      </trkpt>
      <trkpt lat="45.88612" lon="3.03639">
        <ele>527</ele>
        <time>1970-01-01T00:47:00.000Z</time>
      </trkpt>
      <trkpt lat="45.88612" lon="3.03638">
        <ele>527.1</ele>
        <time>1970-01-01T00:47:01.000Z</time>
      </trkpt>
      <trkpt lat="45.88611" lon="3.03635">
        <ele>527.3</ele>
        <time>1970-01-01T00:47:02.000Z</time>
      </trkpt>
      <trkpt lat="45.8861" lon="3.03631">
        <ele>527.6</ele>
        <time>1970-01-01T00:47:03.000Z</time>
      </trkpt>
      <trkpt lat="45.88609" lon="3.03629">
        <ele>527.7</ele>
        <time>1970-01-01T00:47:04.000Z</time>
      </trkpt>
      <trkpt lat="45.88607" lon="3.03626">
        <ele>528</ele>
        <time>1970-01-01T00:47:05.000Z</time>
      </trkpt>
      <trkpt lat="45.88606" lon="3.03625">
        <ele>528.1</ele>
        <time>1970-01-01T00:47:06.000Z</time>
      </trkpt>
      <trkpt lat="45.88603" lon="3.03624">
        <ele>528.5</ele>
        <time>1970-01-01T00:47:07.000Z</time>
      </trkpt>
      <trkpt lat="45.88602" lon="3.03623">
        <ele>528.5</ele>
        <time>1970-01-01T00:47:08.000Z</time>
      </trkpt>
      <trkpt lat="45.88601" lon="3.03622">
        <ele>528.7</ele>
        <time>1970-01-01T00:47:09.000Z</time>
      </trkpt>
      <trkpt lat="45.88599" lon="3.03621">
        <ele>528.9</ele>
        <time>1970-01-01T00:47:10.000Z</time>
      </trkpt>
      <trkpt lat="45.88596" lon="3.03619">
        <ele>529.2</ele>
        <time>1970-01-01T00:47:11.000Z</time>
      </trkpt>
      <trkpt lat="45.88596" lon="3.03618">
        <ele>529.3</ele>
        <time>1970-01-01T00:47:12.000Z</time>
      </trkpt>
      <trkpt lat="45.88594" lon="3.03616">
        <ele>529.4</ele>
        <time>1970-01-01T00:47:13.000Z</time>
      </trkpt>
      <trkpt lat="45.88593" lon="3.03615">
        <ele>529.6</ele>
        <time>1970-01-01T00:47:14.000Z</time>
      </trkpt>
      <trkpt lat="45.88592" lon="3.0361">
        <ele>529.9</ele>
        <time>1970-01-01T00:47:15.000Z</time>
      </trkpt>
      <trkpt lat="45.88591" lon="3.03609">
        <ele>530</ele>
        <time>1970-01-01T00:47:16.000Z</time>
      </trkpt>
      <trkpt lat="45.8859" lon="3.03605">
        <ele>530.3</ele>
        <time>1970-01-01T00:47:17.000Z</time>
      </trkpt>
      <trkpt lat="45.88589" lon="3.03603">
        <ele>530.5</ele>
        <time>1970-01-01T00:47:18.000Z</time>
      </trkpt>
      <trkpt lat="45.88586" lon="3.036">
        <ele>530.8</ele>
        <time>1970-01-01T00:47:19.000Z</time>
      </trkpt>
      <trkpt lat="45.88584" lon="3.03597">
        <ele>531.1</ele>
        <time>1970-01-01T00:47:20.000Z</time>
      </trkpt>
      <trkpt lat="45.88583" lon="3.03595">
        <ele>531.3</ele>
        <time>1970-01-01T00:47:22.000Z</time>
      </trkpt>
      <trkpt lat="45.88583" lon="3.03593">
        <ele>531.4</ele>
        <time>1970-01-01T00:47:23.000Z</time>
      </trkpt>
      <trkpt lat="45.88582" lon="3.03591">
        <ele>531.6</ele>
        <time>1970-01-01T00:47:24.000Z</time>
      </trkpt>
      <trkpt lat="45.8858" lon="3.03586">
        <ele>531.9</ele>
        <time>1970-01-01T00:47:25.000Z</time>
      </trkpt>
      <trkpt lat="45.8858" lon="3.03585">
        <ele>532.1</ele>
        <time>1970-01-01T00:47:26.000Z</time>
      </trkpt>
      <trkpt lat="45.88579" lon="3.03582">
        <ele>532.2</ele>
        <time>1970-01-01T00:47:27.000Z</time>
      </trkpt>
      <trkpt lat="45.88578" lon="3.0358">
        <ele>532.4</ele>
        <time>1970-01-01T00:47:28.000Z</time>
      </trkpt>
      <trkpt lat="45.88577" lon="3.03576">
        <ele>532.7</ele>
        <time>1970-01-01T00:47:30.000Z</time>
      </trkpt>
      <trkpt lat="45.88577" lon="3.03575">
        <ele>532.8</ele>
        <time>1970-01-01T00:47:31.000Z</time>
      </trkpt>
      <trkpt lat="45.88576" lon="3.03573">
        <ele>532.9</ele>
        <time>1970-01-01T00:47:32.000Z</time>
      </trkpt>
      <trkpt lat="45.88576" lon="3.03571">
        <ele>533.1</ele>
        <time>1970-01-01T00:47:33.000Z</time>
      </trkpt>
      <trkpt lat="45.88575" lon="3.03567">
        <ele>533.3</ele>
        <time>1970-01-01T00:47:34.000Z</time>
      </trkpt>
      <trkpt lat="45.88575" lon="3.03564">
        <ele>533.5</ele>
        <time>1970-01-01T00:47:36.000Z</time>
      </trkpt>
      <trkpt lat="45.88575" lon="3.0356">
        <ele>533.7</ele>
        <time>1970-01-01T00:47:37.000Z</time>
      </trkpt>
      <trkpt lat="45.88575" lon="3.03559">
        <ele>533.8</ele>
        <time>1970-01-01T00:47:38.000Z</time>
      </trkpt>
      <trkpt lat="45.88574" lon="3.03555">
        <ele>534.1</ele>
        <time>1970-01-01T00:47:39.000Z</time>
      </trkpt>
      <trkpt lat="45.88574" lon="3.03553">
        <ele>534.2</ele>
        <time>1970-01-01T00:47:40.000Z</time>
      </trkpt>
      <trkpt lat="45.88573" lon="3.0355">
        <ele>534.5</ele>
        <time>1970-01-01T00:47:42.000Z</time>
      </trkpt>
      <trkpt lat="45.8857" lon="3.03546">
        <ele>534.9</ele>
        <time>1970-01-01T00:47:44.000Z</time>
      </trkpt>
      <trkpt lat="45.88569" lon="3.03544">
        <ele>535</ele>
        <time>1970-01-01T00:47:45.000Z</time>
      </trkpt>
      <trkpt lat="45.88568" lon="3.03542">
        <ele>535.2</ele>
        <time>1970-01-01T00:47:46.000Z</time>
      </trkpt>
      <trkpt lat="45.88568" lon="3.03537">
        <ele>535.6</ele>
        <time>1970-01-01T00:47:47.000Z</time>
      </trkpt>
      <trkpt lat="45.88568" lon="3.03535">
        <ele>535.7</ele>
        <time>1970-01-01T00:47:48.000Z</time>
      </trkpt>
      <trkpt lat="45.88567" lon="3.03531">
        <ele>536</ele>
        <time>1970-01-01T00:47:50.000Z</time>
      </trkpt>
      <trkpt lat="45.88567" lon="3.0353">
        <ele>536.1</ele>
        <time>1970-01-01T00:47:51.000Z</time>
      </trkpt>
      <trkpt lat="45.88566" lon="3.03526">
        <ele>536.4</ele>
        <time>1970-01-01T00:47:52.000Z</time>
      </trkpt>
      <trkpt lat="45.88565" lon="3.03524">
        <ele>536.6</ele>
        <time>1970-01-01T00:47:54.000Z</time>
      </trkpt>
      <trkpt lat="45.88565" lon="3.03521">
        <ele>536.7</ele>
        <time>1970-01-01T00:47:55.000Z</time>
      </trkpt>
      <trkpt lat="45.88566" lon="3.03519">
        <ele>536.9</ele>
        <time>1970-01-01T00:47:56.000Z</time>
      </trkpt>
      <trkpt lat="45.88567" lon="3.03517">
        <ele>537.1</ele>
        <time>1970-01-01T00:47:57.000Z</time>
      </trkpt>
      <trkpt lat="45.88567" lon="3.03514">
        <ele>537.3</ele>
        <time>1970-01-01T00:47:58.000Z</time>
      </trkpt>
      <trkpt lat="45.88567" lon="3.03512">
        <ele>537.5</ele>
        <time>1970-01-01T00:47:59.000Z</time>
      </trkpt>
      <trkpt lat="45.88567" lon="3.03508">
        <ele>537.7</ele>
        <time>1970-01-01T00:48:00.000Z</time>
      </trkpt>
      <trkpt lat="45.88567" lon="3.03504">
        <ele>538</ele>
        <time>1970-01-01T00:48:01.000Z</time>
      </trkpt>
      <trkpt lat="45.88566" lon="3.03502">
        <ele>538.2</ele>
        <time>1970-01-01T00:48:02.000Z</time>
      </trkpt>
      <trkpt lat="45.88567" lon="3.035">
        <ele>538.4</ele>
        <time>1970-01-01T00:48:04.000Z</time>
      </trkpt>
      <trkpt lat="45.88566" lon="3.03498">
        <ele>538.5</ele>
        <time>1970-01-01T00:48:05.000Z</time>
      </trkpt>
      <trkpt lat="45.88566" lon="3.03495">
        <ele>538.7</ele>
        <time>1970-01-01T00:48:06.000Z</time>
      </trkpt>
      <trkpt lat="45.88565" lon="3.03492">
        <ele>538.9</ele>
        <time>1970-01-01T00:48:08.000Z</time>
      </trkpt>
      <trkpt lat="45.88564" lon="3.03491">
        <ele>539.1</ele>
        <time>1970-01-01T00:48:09.000Z</time>
      </trkpt>
      <trkpt lat="45.88564" lon="3.03488">
        <ele>539.3</ele>
        <time>1970-01-01T00:48:11.000Z</time>
      </trkpt>
      <trkpt lat="45.88563" lon="3.03486">
        <ele>539.5</ele>
        <time>1970-01-01T00:48:12.000Z</time>
      </trkpt>
      <trkpt lat="45.88562" lon="3.03484">
        <ele>539.6</ele>
        <time>1970-01-01T00:48:13.000Z</time>
      </trkpt>
      <trkpt lat="45.88561" lon="3.03483">
        <ele>539.8</ele>
        <time>1970-01-01T00:48:14.000Z</time>
      </trkpt>
      <trkpt lat="45.88561" lon="3.0348">
        <ele>540</ele>
        <time>1970-01-01T00:48:15.000Z</time>
      </trkpt>
      <trkpt lat="45.8856" lon="3.03478">
        <ele>540.2</ele>
        <time>1970-01-01T00:48:16.000Z</time>
      </trkpt>
      <trkpt lat="45.88559" lon="3.03476">
        <ele>540.4</ele>
        <time>1970-01-01T00:48:17.000Z</time>
      </trkpt>
      <trkpt lat="45.88559" lon="3.03474">
        <ele>540.5</ele>
        <time>1970-01-01T00:48:18.000Z</time>
      </trkpt>
      <trkpt lat="45.88559" lon="3.03472">
        <ele>540.7</ele>
        <time>1970-01-01T00:48:19.000Z</time>
      </trkpt>
      <trkpt lat="45.88558" lon="3.0347">
        <ele>540.8</ele>
        <time>1970-01-01T00:48:20.000Z</time>
      </trkpt>
      <trkpt lat="45.88558" lon="3.03468">
        <ele>541</ele>
        <time>1970-01-01T00:48:21.000Z</time>
      </trkpt>
      <trkpt lat="45.88558" lon="3.03465">
        <ele>541.2</ele>
        <time>1970-01-01T00:48:22.000Z</time>
      </trkpt>
      <trkpt lat="45.88558" lon="3.03464">
        <ele>541.3</ele>
        <time>1970-01-01T00:48:23.000Z</time>
      </trkpt>
      <trkpt lat="45.88558" lon="3.03462">
        <ele>541.4</ele>
        <time>1970-01-01T00:48:24.000Z</time>
      </trkpt>
      <trkpt lat="45.88557" lon="3.0346">
        <ele>541.5</ele>
        <time>1970-01-01T00:48:25.000Z</time>
      </trkpt>
      <trkpt lat="45.88557" lon="3.03457">
        <ele>541.8</ele>
        <time>1970-01-01T00:48:26.000Z</time>
      </trkpt>
      <trkpt lat="45.88557" lon="3.03455">
        <ele>542</ele>
        <time>1970-01-01T00:48:28.000Z</time>
      </trkpt>
      <trkpt lat="45.88556" lon="3.03454">
        <ele>542.1</ele>
        <time>1970-01-01T00:48:29.000Z</time>
      </trkpt>
      <trkpt lat="45.88556" lon="3.0345">
        <ele>542.3</ele>
        <time>1970-01-01T00:48:31.000Z</time>
      </trkpt>
      <trkpt lat="45.88556" lon="3.03448">
        <ele>542.4</ele>
        <time>1970-01-01T00:48:32.000Z</time>
      </trkpt>
      <trkpt lat="45.88556" lon="3.03446">
        <ele>542.6</ele>
        <time>1970-01-01T00:48:33.000Z</time>
      </trkpt>
      <trkpt lat="45.88556" lon="3.03445">
        <ele>542.7</ele>
        <time>1970-01-01T00:48:34.000Z</time>
      </trkpt>
      <trkpt lat="45.88556" lon="3.03443">
        <ele>542.8</ele>
        <time>1970-01-01T00:48:35.000Z</time>
      </trkpt>
      <trkpt lat="45.88555" lon="3.03441">
        <ele>543</ele>
        <time>1970-01-01T00:48:36.000Z</time>
      </trkpt>
      <trkpt lat="45.88555" lon="3.03437">
        <ele>543.3</ele>
        <time>1970-01-01T00:48:37.000Z</time>
      </trkpt>
      <trkpt lat="45.88555" lon="3.03435">
        <ele>543.5</ele>
        <time>1970-01-01T00:48:39.000Z</time>
      </trkpt>
      <trkpt lat="45.88555" lon="3.03428">
        <ele>544</ele>
        <time>1970-01-01T00:48:41.000Z</time>
      </trkpt>
      <trkpt lat="45.88555" lon="3.03426">
        <ele>544.2</ele>
        <time>1970-01-01T00:48:42.000Z</time>
      </trkpt>
      <trkpt lat="45.88554" lon="3.03424">
        <ele>544.3</ele>
        <time>1970-01-01T00:48:43.000Z</time>
      </trkpt>
      <trkpt lat="45.88554" lon="3.03421">
        <ele>544.6</ele>
        <time>1970-01-01T00:48:45.000Z</time>
      </trkpt>
      <trkpt lat="45.88554" lon="3.03419">
        <ele>544.7</ele>
        <time>1970-01-01T00:48:46.000Z</time>
      </trkpt>
      <trkpt lat="45.88555" lon="3.03417">
        <ele>544.9</ele>
        <time>1970-01-01T00:48:47.000Z</time>
      </trkpt>
      <trkpt lat="45.88554" lon="3.03414">
        <ele>545.1</ele>
        <time>1970-01-01T00:48:49.000Z</time>
      </trkpt>
      <trkpt lat="45.88554" lon="3.03412">
        <ele>545.3</ele>
        <time>1970-01-01T00:48:50.000Z</time>
      </trkpt>
      <trkpt lat="45.88555" lon="3.03409">
        <ele>545.5</ele>
        <time>1970-01-01T00:48:51.000Z</time>
      </trkpt>
      <trkpt lat="45.88555" lon="3.03407">
        <ele>545.6</ele>
        <time>1970-01-01T00:48:52.000Z</time>
      </trkpt>
      <trkpt lat="45.88555" lon="3.03405">
        <ele>545.8</ele>
        <time>1970-01-01T00:48:53.000Z</time>
      </trkpt>
      <trkpt lat="45.88555" lon="3.03403">
        <ele>546</ele>
        <time>1970-01-01T00:48:55.000Z</time>
      </trkpt>
      <trkpt lat="45.88555" lon="3.034">
        <ele>546.2</ele>
        <time>1970-01-01T00:48:56.000Z</time>
      </trkpt>
      <trkpt lat="45.88555" lon="3.03397">
        <ele>546.5</ele>
        <time>1970-01-01T00:48:57.000Z</time>
      </trkpt>
      <trkpt lat="45.88554" lon="3.03396">
        <ele>546.6</ele>
        <time>1970-01-01T00:48:58.000Z</time>
      </trkpt>
      <trkpt lat="45.88554" lon="3.03394">
        <ele>546.7</ele>
        <time>1970-01-01T00:48:59.000Z</time>
      </trkpt>
      <trkpt lat="45.88552" lon="3.0339">
        <ele>547.1</ele>
        <time>1970-01-01T00:49:01.000Z</time>
      </trkpt>
      <trkpt lat="45.88552" lon="3.03389">
        <ele>547.2</ele>
        <time>1970-01-01T00:49:02.000Z</time>
      </trkpt>
      <trkpt lat="45.88551" lon="3.03387">
        <ele>547.4</ele>
        <time>1970-01-01T00:49:03.000Z</time>
      </trkpt>
      <trkpt lat="45.8855" lon="3.03386">
        <ele>547.5</ele>
        <time>1970-01-01T00:49:04.000Z</time>
      </trkpt>
      <trkpt lat="45.8855" lon="3.03384">
        <ele>547.7</ele>
        <time>1970-01-01T00:49:05.000Z</time>
      </trkpt>
      <trkpt lat="45.88548" lon="3.03381">
        <ele>548</ele>
        <time>1970-01-01T00:49:06.000Z</time>
      </trkpt>
      <trkpt lat="45.88548" lon="3.0338">
        <ele>548.1</ele>
        <time>1970-01-01T00:49:07.000Z</time>
      </trkpt>
      <trkpt lat="45.88545" lon="3.03376">
        <ele>548.5</ele>
        <time>1970-01-01T00:49:09.000Z</time>
      </trkpt>
      <trkpt lat="45.88545" lon="3.03375">
        <ele>548.6</ele>
        <time>1970-01-01T00:49:10.000Z</time>
      </trkpt>
      <trkpt lat="45.88543" lon="3.03372">
        <ele>548.9</ele>
        <time>1970-01-01T00:49:11.000Z</time>
      </trkpt>
      <trkpt lat="45.88543" lon="3.03371">
        <ele>549</ele>
        <time>1970-01-01T00:49:12.000Z</time>
      </trkpt>
      <trkpt lat="45.88542" lon="3.0337">
        <ele>549.1</ele>
        <time>1970-01-01T00:49:13.000Z</time>
      </trkpt>
      <trkpt lat="45.88541" lon="3.03367">
        <ele>549.3</ele>
        <time>1970-01-01T00:49:14.000Z</time>
      </trkpt>
      <trkpt lat="45.88539" lon="3.03363">
        <ele>549.6</ele>
        <time>1970-01-01T00:49:16.000Z</time>
      </trkpt>
      <trkpt lat="45.88538" lon="3.03361">
        <ele>549.8</ele>
        <time>1970-01-01T00:49:17.000Z</time>
      </trkpt>
      <trkpt lat="45.88538" lon="3.0336">
        <ele>549.9</ele>
        <time>1970-01-01T00:49:18.000Z</time>
      </trkpt>
      <trkpt lat="45.88537" lon="3.03357">
        <ele>550.1</ele>
        <time>1970-01-01T00:49:19.000Z</time>
      </trkpt>
      <trkpt lat="45.88536" lon="3.03352">
        <ele>550.4</ele>
        <time>1970-01-01T00:49:21.000Z</time>
      </trkpt>
      <trkpt lat="45.88535" lon="3.03349">
        <ele>550.7</ele>
        <time>1970-01-01T00:49:22.000Z</time>
      </trkpt>
      <trkpt lat="45.88534" lon="3.03348">
        <ele>550.7</ele>
        <time>1970-01-01T00:49:23.000Z</time>
      </trkpt>
      <trkpt lat="45.88534" lon="3.03346">
        <ele>550.8</ele>
        <time>1970-01-01T00:49:24.000Z</time>
      </trkpt>
      <trkpt lat="45.88533" lon="3.03342">
        <ele>551.1</ele>
        <time>1970-01-01T00:49:25.000Z</time>
      </trkpt>
      <trkpt lat="45.88533" lon="3.03341">
        <ele>551.2</ele>
        <time>1970-01-01T00:49:26.000Z</time>
      </trkpt>
      <trkpt lat="45.88532" lon="3.0334">
        <ele>551.3</ele>
        <time>1970-01-01T00:49:27.000Z</time>
      </trkpt>
      <trkpt lat="45.88532" lon="3.03338">
        <ele>551.4</ele>
        <time>1970-01-01T00:49:28.000Z</time>
      </trkpt>
      <trkpt lat="45.88531" lon="3.03336">
        <ele>551.6</ele>
        <time>1970-01-01T00:49:29.000Z</time>
      </trkpt>
      <trkpt lat="45.88531" lon="3.03334">
        <ele>551.7</ele>
        <time>1970-01-01T00:49:30.000Z</time>
      </trkpt>
      <trkpt lat="45.8853" lon="3.03332">
        <ele>552</ele>
        <time>1970-01-01T00:49:31.000Z</time>
      </trkpt>
      <trkpt lat="45.8853" lon="3.0333">
        <ele>552</ele>
        <time>1970-01-01T00:49:32.000Z</time>
      </trkpt>
      <trkpt lat="45.88529" lon="3.03328">
        <ele>552.3</ele>
        <time>1970-01-01T00:49:33.000Z</time>
      </trkpt>
      <trkpt lat="45.88528" lon="3.03324">
        <ele>552.6</ele>
        <time>1970-01-01T00:49:35.000Z</time>
      </trkpt>
      <trkpt lat="45.88527" lon="3.03323">
        <ele>552.7</ele>
        <time>1970-01-01T00:49:36.000Z</time>
      </trkpt>
      <trkpt lat="45.88527" lon="3.0332">
        <ele>552.9</ele>
        <time>1970-01-01T00:49:37.000Z</time>
      </trkpt>
      <trkpt lat="45.88526" lon="3.03318">
        <ele>553</ele>
        <time>1970-01-01T00:49:38.000Z</time>
      </trkpt>
      <trkpt lat="45.88526" lon="3.03317">
        <ele>553.2</ele>
        <time>1970-01-01T00:49:39.000Z</time>
      </trkpt>
      <trkpt lat="45.88525" lon="3.03315">
        <ele>553.4</ele>
        <time>1970-01-01T00:49:40.000Z</time>
      </trkpt>
      <trkpt lat="45.88524" lon="3.03313">
        <ele>553.5</ele>
        <time>1970-01-01T00:49:41.000Z</time>
      </trkpt>
      <trkpt lat="45.88523" lon="3.0331">
        <ele>553.7</ele>
        <time>1970-01-01T00:49:43.000Z</time>
      </trkpt>
      <trkpt lat="45.88523" lon="3.03308">
        <ele>553.9</ele>
        <time>1970-01-01T00:49:44.000Z</time>
      </trkpt>
      <trkpt lat="45.88522" lon="3.03306">
        <ele>554.1</ele>
        <time>1970-01-01T00:49:45.000Z</time>
      </trkpt>
      <trkpt lat="45.88521" lon="3.03305">
        <ele>554.2</ele>
        <time>1970-01-01T00:49:46.000Z</time>
      </trkpt>
      <trkpt lat="45.88521" lon="3.03303">
        <ele>554.3</ele>
        <time>1970-01-01T00:49:47.000Z</time>
      </trkpt>
      <trkpt lat="45.8852" lon="3.03301">
        <ele>554.6</ele>
        <time>1970-01-01T00:49:48.000Z</time>
      </trkpt>
      <trkpt lat="45.88519" lon="3.033">
        <ele>554.7</ele>
        <time>1970-01-01T00:49:49.000Z</time>
      </trkpt>
      <trkpt lat="45.88519" lon="3.03299">
        <ele>554.8</ele>
        <time>1970-01-01T00:49:50.000Z</time>
      </trkpt>
      <trkpt lat="45.88519" lon="3.03296">
        <ele>554.9</ele>
        <time>1970-01-01T00:49:51.000Z</time>
      </trkpt>
      <trkpt lat="45.88519" lon="3.03294">
        <ele>555.1</ele>
        <time>1970-01-01T00:49:52.000Z</time>
      </trkpt>
      <trkpt lat="45.88519" lon="3.03291">
        <ele>555.3</ele>
        <time>1970-01-01T00:49:53.000Z</time>
      </trkpt>
      <trkpt lat="45.88518" lon="3.03288">
        <ele>555.5</ele>
        <time>1970-01-01T00:49:55.000Z</time>
      </trkpt>
      <trkpt lat="45.88518" lon="3.03285">
        <ele>555.7</ele>
        <time>1970-01-01T00:49:56.000Z</time>
      </trkpt>
      <trkpt lat="45.88518" lon="3.03283">
        <ele>555.8</ele>
        <time>1970-01-01T00:49:57.000Z</time>
      </trkpt>
      <trkpt lat="45.88518" lon="3.03281">
        <ele>556</ele>
        <time>1970-01-01T00:49:58.000Z</time>
      </trkpt>
      <trkpt lat="45.88517" lon="3.03279">
        <ele>556.2</ele>
        <time>1970-01-01T00:49:59.000Z</time>
      </trkpt>
      <trkpt lat="45.88516" lon="3.03274">
        <ele>556.5</ele>
        <time>1970-01-01T00:50:00.000Z</time>
      </trkpt>
      <trkpt lat="45.88516" lon="3.03273">
        <ele>556.6</ele>
        <time>1970-01-01T00:50:01.000Z</time>
      </trkpt>
      <trkpt lat="45.88516" lon="3.03271">
        <ele>556.7</ele>
        <time>1970-01-01T00:50:02.000Z</time>
      </trkpt>
      <trkpt lat="45.88515" lon="3.03267">
        <ele>557</ele>
        <time>1970-01-01T00:50:04.000Z</time>
      </trkpt>
      <trkpt lat="45.88514" lon="3.03261">
        <ele>557.4</ele>
        <time>1970-01-01T00:50:06.000Z</time>
      </trkpt>
      <trkpt lat="45.88513" lon="3.03259">
        <ele>557.5</ele>
        <time>1970-01-01T00:50:08.000Z</time>
      </trkpt>
      <trkpt lat="45.88513" lon="3.03257">
        <ele>557.7</ele>
        <time>1970-01-01T00:50:09.000Z</time>
      </trkpt>
      <trkpt lat="45.88511" lon="3.03253">
        <ele>558</ele>
        <time>1970-01-01T00:50:11.000Z</time>
      </trkpt>
      <trkpt lat="45.88511" lon="3.03251">
        <ele>558.1</ele>
        <time>1970-01-01T00:50:12.000Z</time>
      </trkpt>
      <trkpt lat="45.88509" lon="3.03249">
        <ele>558.3</ele>
        <time>1970-01-01T00:50:13.000Z</time>
      </trkpt>
      <trkpt lat="45.88508" lon="3.03248">
        <ele>558.5</ele>
        <time>1970-01-01T00:50:14.000Z</time>
      </trkpt>
      <trkpt lat="45.88505" lon="3.03248">
        <ele>558.7</ele>
        <time>1970-01-01T00:50:16.000Z</time>
      </trkpt>
      <trkpt lat="45.88501" lon="3.0325">
        <ele>559</ele>
        <time>1970-01-01T00:50:17.000Z</time>
      </trkpt>
      <trkpt lat="45.885" lon="3.03251">
        <ele>559.1</ele>
        <time>1970-01-01T00:50:18.000Z</time>
      </trkpt>
      <trkpt lat="45.88497" lon="3.03253">
        <ele>559.3</ele>
        <time>1970-01-01T00:50:20.000Z</time>
      </trkpt>
      <trkpt lat="45.88497" lon="3.03254">
        <ele>559.4</ele>
        <time>1970-01-01T00:50:21.000Z</time>
      </trkpt>
      <trkpt lat="45.88495" lon="3.03257">
        <ele>559.5</ele>
        <time>1970-01-01T00:50:22.000Z</time>
      </trkpt>
      <trkpt lat="45.88493" lon="3.03261">
        <ele>559.6</ele>
        <time>1970-01-01T00:50:23.000Z</time>
      </trkpt>
      <trkpt lat="45.88488" lon="3.03267">
        <ele>559.6</ele>
        <time>1970-01-01T00:50:25.000Z</time>
      </trkpt>
      <trkpt lat="45.88483" lon="3.03273">
        <ele>559.3</ele>
        <time>1970-01-01T00:50:26.000Z</time>
      </trkpt>
      <trkpt lat="45.88479" lon="3.03276">
        <ele>559</ele>
        <time>1970-01-01T00:50:27.000Z</time>
      </trkpt>
      <trkpt lat="45.88475" lon="3.03281">
        <ele>558.6</ele>
        <time>1970-01-01T00:50:29.000Z</time>
      </trkpt>
      <trkpt lat="45.88473" lon="3.03287">
        <ele>558.3</ele>
        <time>1970-01-01T00:50:30.000Z</time>
      </trkpt>
      <trkpt lat="45.88471" lon="3.03289">
        <ele>558.1</ele>
        <time>1970-01-01T00:50:31.000Z</time>
      </trkpt>
      <trkpt lat="45.88474" lon="3.03294">
        <ele>558</ele>
        <time>1970-01-01T00:50:32.000Z</time>
      </trkpt>
      <trkpt lat="45.88477" lon="3.03298">
        <ele>557.8</ele>
        <time>1970-01-01T00:50:33.000Z</time>
      </trkpt>
      <trkpt lat="45.8848" lon="3.03301">
        <ele>557.8</ele>
        <time>1970-01-01T00:50:34.000Z</time>
      </trkpt>
      <trkpt lat="45.88483" lon="3.03306">
        <ele>557.8</ele>
        <time>1970-01-01T00:50:35.000Z</time>
      </trkpt>
      <trkpt lat="45.88484" lon="3.03312">
        <ele>557.9</ele>
        <time>1970-01-01T00:50:37.000Z</time>
      </trkpt>
      <trkpt lat="45.88487" lon="3.03317">
        <ele>558</ele>
        <time>1970-01-01T00:50:38.000Z</time>
      </trkpt>
      <trkpt lat="45.88488" lon="3.03321">
        <ele>558.1</ele>
        <time>1970-01-01T00:50:39.000Z</time>
      </trkpt>
      <trkpt lat="45.88489" lon="3.03325">
        <ele>558.3</ele>
        <time>1970-01-01T00:50:40.000Z</time>
      </trkpt>
      <trkpt lat="45.8849" lon="3.0333">
        <ele>558.4</ele>
        <time>1970-01-01T00:50:41.000Z</time>
      </trkpt>
      <trkpt lat="45.88491" lon="3.03337">
        <ele>558.8</ele>
        <time>1970-01-01T00:50:42.000Z</time>
      </trkpt>
      <trkpt lat="45.88492" lon="3.03344">
        <ele>559.1</ele>
        <time>1970-01-01T00:50:44.000Z</time>
      </trkpt>
      <trkpt lat="45.88492" lon="3.03348">
        <ele>559.4</ele>
        <time>1970-01-01T00:50:45.000Z</time>
      </trkpt>
      <trkpt lat="45.88493" lon="3.03352">
        <ele>559.8</ele>
        <time>1970-01-01T00:50:46.000Z</time>
      </trkpt>
      <trkpt lat="45.88492" lon="3.03358">
        <ele>560.2</ele>
        <time>1970-01-01T00:50:47.000Z</time>
      </trkpt>
      <trkpt lat="45.88492" lon="3.03359">
        <ele>560.3</ele>
        <time>1970-01-01T00:50:48.000Z</time>
      </trkpt>
      <trkpt lat="45.8849" lon="3.03363">
        <ele>560.8</ele>
        <time>1970-01-01T00:50:49.000Z</time>
      </trkpt>
      <trkpt lat="45.88489" lon="3.03365">
        <ele>560.9</ele>
        <time>1970-01-01T00:50:50.000Z</time>
      </trkpt>
      <trkpt lat="45.88489" lon="3.03367">
        <ele>561.2</ele>
        <time>1970-01-01T00:50:51.000Z</time>
      </trkpt>
      <trkpt lat="45.88489" lon="3.03371">
        <ele>561.6</ele>
        <time>1970-01-01T00:50:53.000Z</time>
      </trkpt>
      <trkpt lat="45.88488" lon="3.03373">
        <ele>561.8</ele>
        <time>1970-01-01T00:50:54.000Z</time>
      </trkpt>
      <trkpt lat="45.88487" lon="3.03375">
        <ele>562</ele>
        <time>1970-01-01T00:50:55.000Z</time>
      </trkpt>
      <trkpt lat="45.88487" lon="3.03377">
        <ele>562.3</ele>
        <time>1970-01-01T00:50:56.000Z</time>
      </trkpt>
      <trkpt lat="45.88487" lon="3.0338">
        <ele>562.5</ele>
        <time>1970-01-01T00:50:58.000Z</time>
      </trkpt>
      <trkpt lat="45.88487" lon="3.03382">
        <ele>562.8</ele>
        <time>1970-01-01T00:50:59.000Z</time>
      </trkpt>
      <trkpt lat="45.88488" lon="3.03384">
        <ele>562.9</ele>
        <time>1970-01-01T00:51:00.000Z</time>
      </trkpt>
      <trkpt lat="45.88488" lon="3.03386">
        <ele>563.2</ele>
        <time>1970-01-01T00:51:01.000Z</time>
      </trkpt>
      <trkpt lat="45.88488" lon="3.03388">
        <ele>563.4</ele>
        <time>1970-01-01T00:51:02.000Z</time>
      </trkpt>
      <trkpt lat="45.88488" lon="3.03389">
        <ele>563.5</ele>
        <time>1970-01-01T00:51:03.000Z</time>
      </trkpt>
      <trkpt lat="45.88488" lon="3.03391">
        <ele>563.7</ele>
        <time>1970-01-01T00:51:04.000Z</time>
      </trkpt>
      <trkpt lat="45.88489" lon="3.03393">
        <ele>563.9</ele>
        <time>1970-01-01T00:51:05.000Z</time>
      </trkpt>
      <trkpt lat="45.88489" lon="3.03394">
        <ele>564</ele>
        <time>1970-01-01T00:51:06.000Z</time>
      </trkpt>
      <trkpt lat="45.88489" lon="3.03396">
        <ele>564.2</ele>
        <time>1970-01-01T00:51:07.000Z</time>
      </trkpt>
      <trkpt lat="45.88488" lon="3.03397">
        <ele>564.4</ele>
        <time>1970-01-01T00:51:08.000Z</time>
      </trkpt>
      <trkpt lat="45.88487" lon="3.03401">
        <ele>564.7</ele>
        <time>1970-01-01T00:51:10.000Z</time>
      </trkpt>
      <trkpt lat="45.88487" lon="3.03402">
        <ele>564.9</ele>
        <time>1970-01-01T00:51:11.000Z</time>
      </trkpt>
      <trkpt lat="45.88486" lon="3.03404">
        <ele>565.1</ele>
        <time>1970-01-01T00:51:12.000Z</time>
      </trkpt>
      <trkpt lat="45.88485" lon="3.03408">
        <ele>565.4</ele>
        <time>1970-01-01T00:51:14.000Z</time>
      </trkpt>
      <trkpt lat="45.88484" lon="3.03409">
        <ele>565.6</ele>
        <time>1970-01-01T00:51:15.000Z</time>
      </trkpt>
      <trkpt lat="45.88484" lon="3.03411">
        <ele>565.8</ele>
        <time>1970-01-01T00:51:16.000Z</time>
      </trkpt>
      <trkpt lat="45.88484" lon="3.03413">
        <ele>565.9</ele>
        <time>1970-01-01T00:51:17.000Z</time>
      </trkpt>
      <trkpt lat="45.88484" lon="3.03416">
        <ele>566.2</ele>
        <time>1970-01-01T00:51:18.000Z</time>
      </trkpt>
      <trkpt lat="45.88484" lon="3.03418">
        <ele>566.4</ele>
        <time>1970-01-01T00:51:20.000Z</time>
      </trkpt>
      <trkpt lat="45.88484" lon="3.0342">
        <ele>566.5</ele>
        <time>1970-01-01T00:51:21.000Z</time>
      </trkpt>
      <trkpt lat="45.88484" lon="3.03423">
        <ele>566.8</ele>
        <time>1970-01-01T00:51:22.000Z</time>
      </trkpt>
      <trkpt lat="45.88484" lon="3.03424">
        <ele>566.9</ele>
        <time>1970-01-01T00:51:23.000Z</time>
      </trkpt>
      <trkpt lat="45.88484" lon="3.03425">
        <ele>567</ele>
        <time>1970-01-01T00:51:24.000Z</time>
      </trkpt>
      <trkpt lat="45.88484" lon="3.03427">
        <ele>567.1</ele>
        <time>1970-01-01T00:51:25.000Z</time>
      </trkpt>
      <trkpt lat="45.88484" lon="3.03429">
        <ele>567.3</ele>
        <time>1970-01-01T00:51:26.000Z</time>
      </trkpt>
      <trkpt lat="45.88484" lon="3.03432">
        <ele>567.6</ele>
        <time>1970-01-01T00:51:28.000Z</time>
      </trkpt>
      <trkpt lat="45.88483" lon="3.03434">
        <ele>567.7</ele>
        <time>1970-01-01T00:51:29.000Z</time>
      </trkpt>
      <trkpt lat="45.88483" lon="3.03436">
        <ele>567.9</ele>
        <time>1970-01-01T00:51:30.000Z</time>
      </trkpt>
      <trkpt lat="45.88482" lon="3.03439">
        <ele>568.1</ele>
        <time>1970-01-01T00:51:31.000Z</time>
      </trkpt>
      <trkpt lat="45.88482" lon="3.03441">
        <ele>568.3</ele>
        <time>1970-01-01T00:51:32.000Z</time>
      </trkpt>
      <trkpt lat="45.88482" lon="3.03442">
        <ele>568.4</ele>
        <time>1970-01-01T00:51:33.000Z</time>
      </trkpt>
      <trkpt lat="45.88481" lon="3.03444">
        <ele>568.6</ele>
        <time>1970-01-01T00:51:34.000Z</time>
      </trkpt>
      <trkpt lat="45.8848" lon="3.03447">
        <ele>568.8</ele>
        <time>1970-01-01T00:51:35.000Z</time>
      </trkpt>
      <trkpt lat="45.8848" lon="3.0345">
        <ele>569.1</ele>
        <time>1970-01-01T00:51:36.000Z</time>
      </trkpt>
      <trkpt lat="45.8848" lon="3.03452">
        <ele>569.2</ele>
        <time>1970-01-01T00:51:37.000Z</time>
      </trkpt>
      <trkpt lat="45.88479" lon="3.03453">
        <ele>569.3</ele>
        <time>1970-01-01T00:51:38.000Z</time>
      </trkpt>
      <trkpt lat="45.88479" lon="3.03456">
        <ele>569.5</ele>
        <time>1970-01-01T00:51:39.000Z</time>
      </trkpt>
      <trkpt lat="45.88478" lon="3.03457">
        <ele>569.6</ele>
        <time>1970-01-01T00:51:40.000Z</time>
      </trkpt>
      <trkpt lat="45.88478" lon="3.03459">
        <ele>569.8</ele>
        <time>1970-01-01T00:51:41.000Z</time>
      </trkpt>
      <trkpt lat="45.88477" lon="3.03461">
        <ele>570</ele>
        <time>1970-01-01T00:51:42.000Z</time>
      </trkpt>
      <trkpt lat="45.88477" lon="3.03464">
        <ele>570.2</ele>
        <time>1970-01-01T00:51:44.000Z</time>
      </trkpt>
      <trkpt lat="45.88476" lon="3.03467">
        <ele>570.4</ele>
        <time>1970-01-01T00:51:45.000Z</time>
      </trkpt>
      <trkpt lat="45.88476" lon="3.03469">
        <ele>570.6</ele>
        <time>1970-01-01T00:51:46.000Z</time>
      </trkpt>
      <trkpt lat="45.88477" lon="3.03472">
        <ele>570.8</ele>
        <time>1970-01-01T00:51:47.000Z</time>
      </trkpt>
      <trkpt lat="45.88477" lon="3.03473">
        <ele>570.9</ele>
        <time>1970-01-01T00:51:48.000Z</time>
      </trkpt>
      <trkpt lat="45.88476" lon="3.03478">
        <ele>571.2</ele>
        <time>1970-01-01T00:51:49.000Z</time>
      </trkpt>
      <trkpt lat="45.88476" lon="3.03479">
        <ele>571.3</ele>
        <time>1970-01-01T00:51:50.000Z</time>
      </trkpt>
      <trkpt lat="45.88476" lon="3.03481">
        <ele>571.4</ele>
        <time>1970-01-01T00:51:51.000Z</time>
      </trkpt>
      <trkpt lat="45.88476" lon="3.03484">
        <ele>571.6</ele>
        <time>1970-01-01T00:51:53.000Z</time>
      </trkpt>
      <trkpt lat="45.88476" lon="3.03486">
        <ele>571.8</ele>
        <time>1970-01-01T00:51:54.000Z</time>
      </trkpt>
      <trkpt lat="45.88476" lon="3.03488">
        <ele>571.9</ele>
        <time>1970-01-01T00:51:55.000Z</time>
      </trkpt>
      <trkpt lat="45.88477" lon="3.03493">
        <ele>572.2</ele>
        <time>1970-01-01T00:51:56.000Z</time>
      </trkpt>
      <trkpt lat="45.88478" lon="3.03494">
        <ele>572.3</ele>
        <time>1970-01-01T00:51:57.000Z</time>
      </trkpt>
      <trkpt lat="45.88478" lon="3.035">
        <ele>572.6</ele>
        <time>1970-01-01T00:51:59.000Z</time>
      </trkpt>
      <trkpt lat="45.88478" lon="3.03502">
        <ele>572.7</ele>
        <time>1970-01-01T00:52:00.000Z</time>
      </trkpt>
      <trkpt lat="45.88478" lon="3.03503">
        <ele>572.8</ele>
        <time>1970-01-01T00:52:01.000Z</time>
      </trkpt>
      <trkpt lat="45.88477" lon="3.03506">
        <ele>572.9</ele>
        <time>1970-01-01T00:52:02.000Z</time>
      </trkpt>
      <trkpt lat="45.88476" lon="3.03508">
        <ele>573.1</ele>
        <time>1970-01-01T00:52:03.000Z</time>
      </trkpt>
      <trkpt lat="45.88476" lon="3.03512">
        <ele>573.4</ele>
        <time>1970-01-01T00:52:04.000Z</time>
      </trkpt>
      <trkpt lat="45.88476" lon="3.03513">
        <ele>573.4</ele>
        <time>1970-01-01T00:52:05.000Z</time>
      </trkpt>
      <trkpt lat="45.88475" lon="3.03518">
        <ele>573.7</ele>
        <time>1970-01-01T00:52:06.000Z</time>
      </trkpt>
      <trkpt lat="45.88474" lon="3.0352">
        <ele>573.8</ele>
        <time>1970-01-01T00:52:07.000Z</time>
      </trkpt>
      <trkpt lat="45.88474" lon="3.03526">
        <ele>574.1</ele>
        <time>1970-01-01T00:52:09.000Z</time>
      </trkpt>
      <trkpt lat="45.88474" lon="3.03529">
        <ele>574.2</ele>
        <time>1970-01-01T00:52:10.000Z</time>
      </trkpt>
      <trkpt lat="45.88474" lon="3.03531">
        <ele>574.3</ele>
        <time>1970-01-01T00:52:11.000Z</time>
      </trkpt>
      <trkpt lat="45.88475" lon="3.03535">
        <ele>574.5</ele>
        <time>1970-01-01T00:52:12.000Z</time>
      </trkpt>
      <trkpt lat="45.88475" lon="3.03537">
        <ele>574.7</ele>
        <time>1970-01-01T00:52:13.000Z</time>
      </trkpt>
      <trkpt lat="45.88474" lon="3.03543">
        <ele>575</ele>
        <time>1970-01-01T00:52:15.000Z</time>
      </trkpt>
      <trkpt lat="45.88473" lon="3.03545">
        <ele>575.1</ele>
        <time>1970-01-01T00:52:16.000Z</time>
      </trkpt>
      <trkpt lat="45.88473" lon="3.03548">
        <ele>575.2</ele>
        <time>1970-01-01T00:52:17.000Z</time>
      </trkpt>
      <trkpt lat="45.88472" lon="3.03552">
        <ele>575.4</ele>
        <time>1970-01-01T00:52:18.000Z</time>
      </trkpt>
      <trkpt lat="45.88472" lon="3.03553">
        <ele>575.5</ele>
        <time>1970-01-01T00:52:19.000Z</time>
      </trkpt>
      <trkpt lat="45.88468" lon="3.03559">
        <ele>575.9</ele>
        <time>1970-01-01T00:52:22.000Z</time>
      </trkpt>
      <trkpt lat="45.88467" lon="3.0356">
        <ele>576</ele>
        <time>1970-01-01T00:52:23.000Z</time>
      </trkpt>
      <trkpt lat="45.88466" lon="3.03562">
        <ele>576.1</ele>
        <time>1970-01-01T00:52:24.000Z</time>
      </trkpt>
      <trkpt lat="45.88463" lon="3.03564">
        <ele>576.4</ele>
        <time>1970-01-01T00:52:25.000Z</time>
      </trkpt>
      <trkpt lat="45.88462" lon="3.03564">
        <ele>576.4</ele>
        <time>1970-01-01T00:52:26.000Z</time>
      </trkpt>
      <trkpt lat="45.8846" lon="3.03567">
        <ele>576.7</ele>
        <time>1970-01-01T00:52:27.000Z</time>
      </trkpt>
      <trkpt lat="45.88459" lon="3.03568">
        <ele>576.8</ele>
        <time>1970-01-01T00:52:28.000Z</time>
      </trkpt>
      <trkpt lat="45.88457" lon="3.0357">
        <ele>576.9</ele>
        <time>1970-01-01T00:52:30.000Z</time>
      </trkpt>
      <trkpt lat="45.88456" lon="3.03571">
        <ele>577</ele>
        <time>1970-01-01T00:52:31.000Z</time>
      </trkpt>
      <trkpt lat="45.88454" lon="3.03571">
        <ele>577.1</ele>
        <time>1970-01-01T00:52:32.000Z</time>
      </trkpt>
      <trkpt lat="45.88453" lon="3.03572">
        <ele>577.2</ele>
        <time>1970-01-01T00:52:33.000Z</time>
      </trkpt>
      <trkpt lat="45.88452" lon="3.03573">
        <ele>577.3</ele>
        <time>1970-01-01T00:52:34.000Z</time>
      </trkpt>
      <trkpt lat="45.8845" lon="3.03575">
        <ele>577.4</ele>
        <time>1970-01-01T00:52:35.000Z</time>
      </trkpt>
      <trkpt lat="45.88448" lon="3.03577">
        <ele>577.5</ele>
        <time>1970-01-01T00:52:36.000Z</time>
      </trkpt>
      <trkpt lat="45.88446" lon="3.03578">
        <ele>577.6</ele>
        <time>1970-01-01T00:52:38.000Z</time>
      </trkpt>
      <trkpt lat="45.88445" lon="3.03579">
        <ele>577.7</ele>
        <time>1970-01-01T00:52:39.000Z</time>
      </trkpt>
      <trkpt lat="45.88444" lon="3.03581">
        <ele>577.7</ele>
        <time>1970-01-01T00:52:40.000Z</time>
      </trkpt>
      <trkpt lat="45.88443" lon="3.03583">
        <ele>577.8</ele>
        <time>1970-01-01T00:52:41.000Z</time>
      </trkpt>
      <trkpt lat="45.8844" lon="3.03586">
        <ele>578</ele>
        <time>1970-01-01T00:52:42.000Z</time>
      </trkpt>
      <trkpt lat="45.88438" lon="3.03586">
        <ele>578.1</ele>
        <time>1970-01-01T00:52:43.000Z</time>
      </trkpt>
      <trkpt lat="45.88436" lon="3.03589">
        <ele>578.2</ele>
        <time>1970-01-01T00:52:44.000Z</time>
      </trkpt>
      <trkpt lat="45.88435" lon="3.03591">
        <ele>578.3</ele>
        <time>1970-01-01T00:52:45.000Z</time>
      </trkpt>
      <trkpt lat="45.88434" lon="3.03594">
        <ele>578.3</ele>
        <time>1970-01-01T00:52:46.000Z</time>
      </trkpt>
      <trkpt lat="45.88432" lon="3.03598">
        <ele>578.5</ele>
        <time>1970-01-01T00:52:47.000Z</time>
      </trkpt>
      <trkpt lat="45.8843" lon="3.03604">
        <ele>578.6</ele>
        <time>1970-01-01T00:52:48.000Z</time>
      </trkpt>
      <trkpt lat="45.8843" lon="3.0361">
        <ele>578.7</ele>
        <time>1970-01-01T00:52:49.000Z</time>
      </trkpt>
      <trkpt lat="45.8843" lon="3.03615">
        <ele>578.9</ele>
        <time>1970-01-01T00:52:50.000Z</time>
      </trkpt>
      <trkpt lat="45.8843" lon="3.03616">
        <ele>578.9</ele>
        <time>1970-01-01T00:52:51.000Z</time>
      </trkpt>
      <trkpt lat="45.88432" lon="3.03623">
        <ele>579.1</ele>
        <time>1970-01-01T00:52:53.000Z</time>
      </trkpt>
      <trkpt lat="45.88433" lon="3.03629">
        <ele>579.3</ele>
        <time>1970-01-01T00:52:54.000Z</time>
      </trkpt>
      <trkpt lat="45.88435" lon="3.03633">
        <ele>579.5</ele>
        <time>1970-01-01T00:52:56.000Z</time>
      </trkpt>
      <trkpt lat="45.88435" lon="3.03635">
        <ele>579.5</ele>
        <time>1970-01-01T00:52:57.000Z</time>
      </trkpt>
      <trkpt lat="45.88438" lon="3.0364">
        <ele>579.7</ele>
        <time>1970-01-01T00:52:58.000Z</time>
      </trkpt>
      <trkpt lat="45.88439" lon="3.03642">
        <ele>579.8</ele>
        <time>1970-01-01T00:52:59.000Z</time>
      </trkpt>
      <trkpt lat="45.8844" lon="3.03645">
        <ele>580</ele>
        <time>1970-01-01T00:53:01.000Z</time>
      </trkpt>
      <trkpt lat="45.88441" lon="3.03649">
        <ele>580.1</ele>
        <time>1970-01-01T00:53:02.000Z</time>
      </trkpt>
      <trkpt lat="45.88442" lon="3.03653">
        <ele>580.3</ele>
        <time>1970-01-01T00:53:04.000Z</time>
      </trkpt>
      <trkpt lat="45.88445" lon="3.03657">
        <ele>580.6</ele>
        <time>1970-01-01T00:53:05.000Z</time>
      </trkpt>
      <trkpt lat="45.88445" lon="3.03658">
        <ele>580.6</ele>
        <time>1970-01-01T00:53:06.000Z</time>
      </trkpt>
      <trkpt lat="45.88447" lon="3.03662">
        <ele>580.9</ele>
        <time>1970-01-01T00:53:07.000Z</time>
      </trkpt>
      <trkpt lat="45.88448" lon="3.03663">
        <ele>581</ele>
        <time>1970-01-01T00:53:08.000Z</time>
      </trkpt>
      <trkpt lat="45.8845" lon="3.03667">
        <ele>581.2</ele>
        <time>1970-01-01T00:53:09.000Z</time>
      </trkpt>
      <trkpt lat="45.88451" lon="3.03669">
        <ele>581.3</ele>
        <time>1970-01-01T00:53:10.000Z</time>
      </trkpt>
      <trkpt lat="45.88452" lon="3.03673">
        <ele>581.5</ele>
        <time>1970-01-01T00:53:11.000Z</time>
      </trkpt>
      <trkpt lat="45.88452" lon="3.03674">
        <ele>581.6</ele>
        <time>1970-01-01T00:53:12.000Z</time>
      </trkpt>
      <trkpt lat="45.88454" lon="3.03678">
        <ele>581.8</ele>
        <time>1970-01-01T00:53:14.000Z</time>
      </trkpt>
      <trkpt lat="45.88457" lon="3.03682">
        <ele>582.2</ele>
        <time>1970-01-01T00:53:15.000Z</time>
      </trkpt>
      <trkpt lat="45.88459" lon="3.03685">
        <ele>582.4</ele>
        <time>1970-01-01T00:53:17.000Z</time>
      </trkpt>
      <trkpt lat="45.8846" lon="3.03686">
        <ele>582.5</ele>
        <time>1970-01-01T00:53:18.000Z</time>
      </trkpt>
      <trkpt lat="45.88462" lon="3.0369">
        <ele>582.8</ele>
        <time>1970-01-01T00:53:19.000Z</time>
      </trkpt>
      <trkpt lat="45.88462" lon="3.03691">
        <ele>582.9</ele>
        <time>1970-01-01T00:53:20.000Z</time>
      </trkpt>
      <trkpt lat="45.88464" lon="3.03695">
        <ele>583.1</ele>
        <time>1970-01-01T00:53:21.000Z</time>
      </trkpt>
      <trkpt lat="45.88465" lon="3.03696">
        <ele>583.2</ele>
        <time>1970-01-01T00:53:22.000Z</time>
      </trkpt>
      <trkpt lat="45.88467" lon="3.03699">
        <ele>583.5</ele>
        <time>1970-01-01T00:53:23.000Z</time>
      </trkpt>
      <trkpt lat="45.88469" lon="3.03703">
        <ele>583.8</ele>
        <time>1970-01-01T00:53:24.000Z</time>
      </trkpt>
      <trkpt lat="45.88469" lon="3.03704">
        <ele>584</ele>
        <time>1970-01-01T00:53:25.000Z</time>
      </trkpt>
      <trkpt lat="45.88471" lon="3.03708">
        <ele>584.3</ele>
        <time>1970-01-01T00:53:26.000Z</time>
      </trkpt>
      <trkpt lat="45.88472" lon="3.03709">
        <ele>584.4</ele>
        <time>1970-01-01T00:53:27.000Z</time>
      </trkpt>
      <trkpt lat="45.88473" lon="3.03711">
        <ele>584.5</ele>
        <time>1970-01-01T00:53:28.000Z</time>
      </trkpt>
      <trkpt lat="45.88474" lon="3.03714">
        <ele>584.7</ele>
        <time>1970-01-01T00:53:30.000Z</time>
      </trkpt>
      <trkpt lat="45.88474" lon="3.03716">
        <ele>585</ele>
        <time>1970-01-01T00:53:31.000Z</time>
      </trkpt>
      <trkpt lat="45.88475" lon="3.03717">
        <ele>585.1</ele>
        <time>1970-01-01T00:53:32.000Z</time>
      </trkpt>
      <trkpt lat="45.88475" lon="3.03718">
        <ele>585.2</ele>
        <time>1970-01-01T00:53:33.000Z</time>
      </trkpt>
      <trkpt lat="45.88477" lon="3.03721">
        <ele>585.5</ele>
        <time>1970-01-01T00:53:34.000Z</time>
      </trkpt>
      <trkpt lat="45.88478" lon="3.03725">
        <ele>585.8</ele>
        <time>1970-01-01T00:53:36.000Z</time>
      </trkpt>
      <trkpt lat="45.88479" lon="3.03726">
        <ele>586</ele>
        <time>1970-01-01T00:53:37.000Z</time>
      </trkpt>
      <trkpt lat="45.8848" lon="3.03728">
        <ele>586.2</ele>
        <time>1970-01-01T00:53:38.000Z</time>
      </trkpt>
      <trkpt lat="45.88482" lon="3.03731">
        <ele>586.6</ele>
        <time>1970-01-01T00:53:39.000Z</time>
      </trkpt>
      <trkpt lat="45.88483" lon="3.03732">
        <ele>586.7</ele>
        <time>1970-01-01T00:53:40.000Z</time>
      </trkpt>
      <trkpt lat="45.88485" lon="3.03735">
        <ele>587</ele>
        <time>1970-01-01T00:53:41.000Z</time>
      </trkpt>
      <trkpt lat="45.88485" lon="3.03736">
        <ele>587.2</ele>
        <time>1970-01-01T00:53:42.000Z</time>
      </trkpt>
      <trkpt lat="45.88486" lon="3.03737">
        <ele>587.4</ele>
        <time>1970-01-01T00:53:43.000Z</time>
      </trkpt>
      <trkpt lat="45.88488" lon="3.0374">
        <ele>587.7</ele>
        <time>1970-01-01T00:53:44.000Z</time>
      </trkpt>
      <trkpt lat="45.8849" lon="3.03742">
        <ele>588.1</ele>
        <time>1970-01-01T00:53:46.000Z</time>
      </trkpt>
      <trkpt lat="45.88491" lon="3.03743">
        <ele>588.3</ele>
        <time>1970-01-01T00:53:47.000Z</time>
      </trkpt>
      <trkpt lat="45.88492" lon="3.03745">
        <ele>588.5</ele>
        <time>1970-01-01T00:53:48.000Z</time>
      </trkpt>
      <trkpt lat="45.88493" lon="3.03749">
        <ele>588.9</ele>
        <time>1970-01-01T00:53:50.000Z</time>
      </trkpt>
      <trkpt lat="45.88494" lon="3.03752">
        <ele>589.4</ele>
        <time>1970-01-01T00:53:51.000Z</time>
      </trkpt>
      <trkpt lat="45.88495" lon="3.03754">
        <ele>589.5</ele>
        <time>1970-01-01T00:53:52.000Z</time>
      </trkpt>
      <trkpt lat="45.88497" lon="3.03757">
        <ele>590</ele>
        <time>1970-01-01T00:53:54.000Z</time>
      </trkpt>
      <trkpt lat="45.88497" lon="3.03759">
        <ele>590.2</ele>
        <time>1970-01-01T00:53:55.000Z</time>
      </trkpt>
      <trkpt lat="45.88498" lon="3.03761">
        <ele>590.4</ele>
        <time>1970-01-01T00:53:56.000Z</time>
      </trkpt>
      <trkpt lat="45.88499" lon="3.03763">
        <ele>590.7</ele>
        <time>1970-01-01T00:53:57.000Z</time>
      </trkpt>
      <trkpt lat="45.885" lon="3.03765">
        <ele>590.9</ele>
        <time>1970-01-01T00:53:58.000Z</time>
      </trkpt>
      <trkpt lat="45.88499" lon="3.03769">
        <ele>591.4</ele>
        <time>1970-01-01T00:53:59.000Z</time>
      </trkpt>
      <trkpt lat="45.88499" lon="3.03771">
        <ele>591.6</ele>
        <time>1970-01-01T00:54:00.000Z</time>
      </trkpt>
      <trkpt lat="45.885" lon="3.03776">
        <ele>592</ele>
        <time>1970-01-01T00:54:01.000Z</time>
      </trkpt>
      <trkpt lat="45.885" lon="3.03777">
        <ele>592.2</ele>
        <time>1970-01-01T00:54:02.000Z</time>
      </trkpt>
      <trkpt lat="45.885" lon="3.03781">
        <ele>592.6</ele>
        <time>1970-01-01T00:54:04.000Z</time>
      </trkpt>
      <trkpt lat="45.885" lon="3.03782">
        <ele>592.7</ele>
        <time>1970-01-01T00:54:05.000Z</time>
      </trkpt>
      <trkpt lat="45.88501" lon="3.03783">
        <ele>592.8</ele>
        <time>1970-01-01T00:54:07.000Z</time>
      </trkpt>
      <trkpt lat="45.88501" lon="3.03783">
        <ele>592.8</ele>
        <time>1970-01-01T00:54:08.000Z</time>
      </trkpt>
      <trkpt lat="45.88502" lon="3.03784">
        <ele>592.8</ele>
        <time>1970-01-01T00:54:09.000Z</time>
      </trkpt>
      <trkpt lat="45.88502" lon="3.03785">
        <ele>592.9</ele>
        <time>1970-01-01T00:54:10.000Z</time>
      </trkpt>
      <trkpt lat="45.88503" lon="3.03785">
        <ele>592.9</ele>
        <time>1970-01-01T00:54:11.000Z</time>
      </trkpt>
      <trkpt lat="45.88503" lon="3.03785">
        <ele>592.9</ele>
        <time>1970-01-01T00:54:12.000Z</time>
      </trkpt>
      <trkpt lat="45.88503" lon="3.03785">
        <ele>592.9</ele>
        <time>1970-01-01T00:54:13.000Z</time>
      </trkpt>
      <trkpt lat="45.88504" lon="3.03786">
        <ele>592.9</ele>
        <time>1970-01-01T00:54:14.000Z</time>
      </trkpt>
      <trkpt lat="45.88505" lon="3.03786">
        <ele>592.9</ele>
        <time>1970-01-01T00:54:15.000Z</time>
      </trkpt>
      <trkpt lat="45.88505" lon="3.03785">
        <ele>592.9</ele>
        <time>1970-01-01T00:54:17.000Z</time>
      </trkpt>
      <trkpt lat="45.88505" lon="3.03784">
        <ele>593</ele>
        <time>1970-01-01T00:54:18.000Z</time>
      </trkpt>
      <trkpt lat="45.88505" lon="3.03784">
        <ele>593</ele>
        <time>1970-01-01T00:54:19.000Z</time>
      </trkpt>
      <trkpt lat="45.88505" lon="3.03784">
        <ele>593</ele>
        <time>1970-01-01T00:54:20.000Z</time>
      </trkpt>
      <trkpt lat="45.88505" lon="3.03784">
        <ele>593</ele>
        <time>1970-01-01T00:54:21.000Z</time>
      </trkpt>
      <trkpt lat="45.88505" lon="3.03783">
        <ele>593</ele>
        <time>1970-01-01T00:54:22.000Z</time>
      </trkpt>
      <trkpt lat="45.88505" lon="3.03783">
        <ele>593</ele>
        <time>1970-01-01T00:54:23.000Z</time>
      </trkpt>
      <trkpt lat="45.88505" lon="3.03783">
        <ele>593</ele>
        <time>1970-01-01T00:54:24.000Z</time>
      </trkpt>
      <trkpt lat="45.88505" lon="3.03783">
        <ele>593</ele>
        <time>1970-01-01T00:54:25.000Z</time>
      </trkpt>
      <trkpt lat="45.88504" lon="3.03782">
        <ele>593</ele>
        <time>1970-01-01T00:54:26.000Z</time>
      </trkpt>
      <trkpt lat="45.88502" lon="3.03781">
        <ele>593.1</ele>
        <time>1970-01-01T00:54:27.000Z</time>
      </trkpt>
      <trkpt lat="45.885" lon="3.03779">
        <ele>593.1</ele>
        <time>1970-01-01T00:58:06.000Z</time>
      </trkpt>
      <trkpt lat="45.88498" lon="3.03778">
        <ele>593.2</ele>
        <time>1970-01-01T00:58:07.000Z</time>
      </trkpt>
      <trkpt lat="45.88496" lon="3.03774">
        <ele>593.3</ele>
        <time>1970-01-01T00:58:08.000Z</time>
      </trkpt>
      <trkpt lat="45.88493" lon="3.03771">
        <ele>593.4</ele>
        <time>1970-01-01T00:58:10.000Z</time>
      </trkpt>
      <trkpt lat="45.8849" lon="3.03768">
        <ele>593.6</ele>
        <time>1970-01-01T00:58:11.000Z</time>
      </trkpt>
      <trkpt lat="45.88487" lon="3.03764">
        <ele>593.7</ele>
        <time>1970-01-01T00:58:12.000Z</time>
      </trkpt>
      <trkpt lat="45.88486" lon="3.03763">
        <ele>593.7</ele>
        <time>1970-01-01T00:58:13.000Z</time>
      </trkpt>
      <trkpt lat="45.88484" lon="3.0376">
        <ele>593.7</ele>
        <time>1970-01-01T00:58:14.000Z</time>
      </trkpt>
      <trkpt lat="45.88481" lon="3.03758">
        <ele>593.7</ele>
        <time>1970-01-01T00:58:16.000Z</time>
      </trkpt>
      <trkpt lat="45.88479" lon="3.03755">
        <ele>593.7</ele>
        <time>1970-01-01T00:58:17.000Z</time>
      </trkpt>
      <trkpt lat="45.88475" lon="3.03751">
        <ele>593.6</ele>
        <time>1970-01-01T00:58:18.000Z</time>
      </trkpt>
      <trkpt lat="45.88473" lon="3.0375">
        <ele>593.6</ele>
        <time>1970-01-01T00:58:19.000Z</time>
      </trkpt>
      <trkpt lat="45.8847" lon="3.03746">
        <ele>593.6</ele>
        <time>1970-01-01T00:58:21.000Z</time>
      </trkpt>
      <trkpt lat="45.88468" lon="3.03744">
        <ele>593.6</ele>
        <time>1970-01-01T00:58:22.000Z</time>
      </trkpt>
      <trkpt lat="45.88465" lon="3.0374">
        <ele>593.7</ele>
        <time>1970-01-01T00:58:23.000Z</time>
      </trkpt>
      <trkpt lat="45.88463" lon="3.03737">
        <ele>593.7</ele>
        <time>1970-01-01T00:58:24.000Z</time>
      </trkpt>
      <trkpt lat="45.8846" lon="3.03734">
        <ele>593.7</ele>
        <time>1970-01-01T00:58:25.000Z</time>
      </trkpt>
      <trkpt lat="45.88458" lon="3.03731">
        <ele>593.7</ele>
        <time>1970-01-01T00:58:26.000Z</time>
      </trkpt>
      <trkpt lat="45.88455" lon="3.03728">
        <ele>593.8</ele>
        <time>1970-01-01T00:58:27.000Z</time>
      </trkpt>
      <trkpt lat="45.88452" lon="3.03725">
        <ele>593.8</ele>
        <time>1970-01-01T00:58:29.000Z</time>
      </trkpt>
      <trkpt lat="45.88449" lon="3.0372">
        <ele>593.9</ele>
        <time>1970-01-01T00:58:30.000Z</time>
      </trkpt>
      <trkpt lat="45.88446" lon="3.03717">
        <ele>594</ele>
        <time>1970-01-01T00:58:31.000Z</time>
      </trkpt>
      <trkpt lat="45.88444" lon="3.03713">
        <ele>594.1</ele>
        <time>1970-01-01T00:58:32.000Z</time>
      </trkpt>
      <trkpt lat="45.88442" lon="3.03711">
        <ele>594.1</ele>
        <time>1970-01-01T00:58:33.000Z</time>
      </trkpt>
      <trkpt lat="45.8844" lon="3.03708">
        <ele>594.2</ele>
        <time>1970-01-01T00:58:34.000Z</time>
      </trkpt>
      <trkpt lat="45.88437" lon="3.03704">
        <ele>594.3</ele>
        <time>1970-01-01T00:58:36.000Z</time>
      </trkpt>
      <trkpt lat="45.88435" lon="3.037">
        <ele>594.4</ele>
        <time>1970-01-01T00:58:37.000Z</time>
      </trkpt>
      <trkpt lat="45.88432" lon="3.03697">
        <ele>594.5</ele>
        <time>1970-01-01T00:58:38.000Z</time>
      </trkpt>
      <trkpt lat="45.8843" lon="3.03694">
        <ele>594.6</ele>
        <time>1970-01-01T00:58:39.000Z</time>
      </trkpt>
      <trkpt lat="45.88428" lon="3.0369">
        <ele>594.7</ele>
        <time>1970-01-01T00:58:41.000Z</time>
      </trkpt>
      <trkpt lat="45.88426" lon="3.03687">
        <ele>594.8</ele>
        <time>1970-01-01T00:58:42.000Z</time>
      </trkpt>
      <trkpt lat="45.88424" lon="3.0368">
        <ele>595</ele>
        <time>1970-01-01T00:58:43.000Z</time>
      </trkpt>
      <trkpt lat="45.88421" lon="3.03677">
        <ele>595.1</ele>
        <time>1970-01-01T00:58:45.000Z</time>
      </trkpt>
      <trkpt lat="45.88417" lon="3.03674">
        <ele>595.3</ele>
        <time>1970-01-01T00:58:46.000Z</time>
      </trkpt>
      <trkpt lat="45.88415" lon="3.0367">
        <ele>595.5</ele>
        <time>1970-01-01T00:58:48.000Z</time>
      </trkpt>
      <trkpt lat="45.88412" lon="3.03666">
        <ele>595.7</ele>
        <time>1970-01-01T00:58:49.000Z</time>
      </trkpt>
      <trkpt lat="45.8841" lon="3.03662">
        <ele>595.9</ele>
        <time>1970-01-01T00:58:50.000Z</time>
      </trkpt>
      <trkpt lat="45.88407" lon="3.03657">
        <ele>596.3</ele>
        <time>1970-01-01T00:58:52.000Z</time>
      </trkpt>
      <trkpt lat="45.88406" lon="3.03655">
        <ele>596.4</ele>
        <time>1970-01-01T00:58:53.000Z</time>
      </trkpt>
      <trkpt lat="45.88405" lon="3.03653">
        <ele>596.5</ele>
        <time>1970-01-01T00:58:54.000Z</time>
      </trkpt>
      <trkpt lat="45.88403" lon="3.0365">
        <ele>596.8</ele>
        <time>1970-01-01T00:58:55.000Z</time>
      </trkpt>
      <trkpt lat="45.88403" lon="3.03648">
        <ele>596.9</ele>
        <time>1970-01-01T00:58:56.000Z</time>
      </trkpt>
      <trkpt lat="45.88401" lon="3.03645">
        <ele>597.1</ele>
        <time>1970-01-01T00:58:57.000Z</time>
      </trkpt>
      <trkpt lat="45.88399" lon="3.03642">
        <ele>597.4</ele>
        <time>1970-01-01T00:58:59.000Z</time>
      </trkpt>
      <trkpt lat="45.88398" lon="3.03638">
        <ele>597.8</ele>
        <time>1970-01-01T00:59:00.000Z</time>
      </trkpt>
      <trkpt lat="45.88398" lon="3.03637">
        <ele>597.9</ele>
        <time>1970-01-01T00:59:01.000Z</time>
      </trkpt>
      <trkpt lat="45.88395" lon="3.03633">
        <ele>598.4</ele>
        <time>1970-01-01T00:59:02.000Z</time>
      </trkpt>
      <trkpt lat="45.88395" lon="3.03631">
        <ele>598.5</ele>
        <time>1970-01-01T00:59:03.000Z</time>
      </trkpt>
      <trkpt lat="45.88393" lon="3.0363">
        <ele>598.8</ele>
        <time>1970-01-01T00:59:05.000Z</time>
      </trkpt>
      <trkpt lat="45.88392" lon="3.03628">
        <ele>599</ele>
        <time>1970-01-01T00:59:06.000Z</time>
      </trkpt>
      <trkpt lat="45.8839" lon="3.03626">
        <ele>599.4</ele>
        <time>1970-01-01T00:59:07.000Z</time>
      </trkpt>
      <trkpt lat="45.8839" lon="3.03624">
        <ele>599.5</ele>
        <time>1970-01-01T00:59:08.000Z</time>
      </trkpt>
      <trkpt lat="45.88387" lon="3.03621">
        <ele>600</ele>
        <time>1970-01-01T00:59:10.000Z</time>
      </trkpt>
      <trkpt lat="45.88387" lon="3.0362">
        <ele>600.2</ele>
        <time>1970-01-01T00:59:11.000Z</time>
      </trkpt>
      <trkpt lat="45.88386" lon="3.03618">
        <ele>600.5</ele>
        <time>1970-01-01T00:59:12.000Z</time>
      </trkpt>
      <trkpt lat="45.88384" lon="3.03616">
        <ele>600.9</ele>
        <time>1970-01-01T00:59:14.000Z</time>
      </trkpt>
      <trkpt lat="45.88383" lon="3.03614">
        <ele>601.1</ele>
        <time>1970-01-01T00:59:15.000Z</time>
      </trkpt>
      <trkpt lat="45.88382" lon="3.03613">
        <ele>601.3</ele>
        <time>1970-01-01T00:59:16.000Z</time>
      </trkpt>
      <trkpt lat="45.88381" lon="3.03611">
        <ele>601.6</ele>
        <time>1970-01-01T00:59:17.000Z</time>
      </trkpt>
      <trkpt lat="45.8838" lon="3.0361">
        <ele>601.8</ele>
        <time>1970-01-01T00:59:18.000Z</time>
      </trkpt>
      <trkpt lat="45.8838" lon="3.03608">
        <ele>602.1</ele>
        <time>1970-01-01T00:59:20.000Z</time>
      </trkpt>
      <trkpt lat="45.88379" lon="3.03605">
        <ele>602.4</ele>
        <time>1970-01-01T00:59:21.000Z</time>
      </trkpt>
      <trkpt lat="45.88377" lon="3.03601">
        <ele>603</ele>
        <time>1970-01-01T00:59:23.000Z</time>
      </trkpt>
      <trkpt lat="45.88377" lon="3.036">
        <ele>603.2</ele>
        <time>1970-01-01T00:59:24.000Z</time>
      </trkpt>
      <trkpt lat="45.88376" lon="3.03598">
        <ele>603.5</ele>
        <time>1970-01-01T00:59:26.000Z</time>
      </trkpt>
      <trkpt lat="45.88376" lon="3.03596">
        <ele>603.7</ele>
        <time>1970-01-01T00:59:27.000Z</time>
      </trkpt>
      <trkpt lat="45.88375" lon="3.03594">
        <ele>604</ele>
        <time>1970-01-01T00:59:29.000Z</time>
      </trkpt>
      <trkpt lat="45.88375" lon="3.03593">
        <ele>604.1</ele>
        <time>1970-01-01T00:59:30.000Z</time>
      </trkpt>
      <trkpt lat="45.88375" lon="3.03591">
        <ele>604.3</ele>
        <time>1970-01-01T00:59:31.000Z</time>
      </trkpt>
      <trkpt lat="45.88374" lon="3.03588">
        <ele>604.8</ele>
        <time>1970-01-01T00:59:33.000Z</time>
      </trkpt>
      <trkpt lat="45.88374" lon="3.03586">
        <ele>604.9</ele>
        <time>1970-01-01T00:59:34.000Z</time>
      </trkpt>
      <trkpt lat="45.88374" lon="3.03584">
        <ele>605.1</ele>
        <time>1970-01-01T00:59:35.000Z</time>
      </trkpt>
      <trkpt lat="45.88374" lon="3.03583">
        <ele>605.3</ele>
        <time>1970-01-01T00:59:36.000Z</time>
      </trkpt>
      <trkpt lat="45.88373" lon="3.03582">
        <ele>605.5</ele>
        <time>1970-01-01T00:59:37.000Z</time>
      </trkpt>
      <trkpt lat="45.88374" lon="3.0358">
        <ele>605.7</ele>
        <time>1970-01-01T00:59:38.000Z</time>
      </trkpt>
      <trkpt lat="45.88374" lon="3.03577">
        <ele>606</ele>
        <time>1970-01-01T00:59:40.000Z</time>
      </trkpt>
      <trkpt lat="45.88375" lon="3.03575">
        <ele>606.2</ele>
        <time>1970-01-01T00:59:41.000Z</time>
      </trkpt>
      <trkpt lat="45.88375" lon="3.03574">
        <ele>606.3</ele>
        <time>1970-01-01T00:59:42.000Z</time>
      </trkpt>
      <trkpt lat="45.88375" lon="3.0357">
        <ele>606.8</ele>
        <time>1970-01-01T00:59:44.000Z</time>
      </trkpt>
      <trkpt lat="45.88375" lon="3.03568">
        <ele>607</ele>
        <time>1970-01-01T00:59:45.000Z</time>
      </trkpt>
      <trkpt lat="45.88375" lon="3.03566">
        <ele>607.1</ele>
        <time>1970-01-01T00:59:46.000Z</time>
      </trkpt>
      <trkpt lat="45.88375" lon="3.03565">
        <ele>607.3</ele>
        <time>1970-01-01T00:59:47.000Z</time>
      </trkpt>
      <trkpt lat="45.88376" lon="3.03561">
        <ele>607.7</ele>
        <time>1970-01-01T00:59:49.000Z</time>
      </trkpt>
      <trkpt lat="45.88377" lon="3.0356">
        <ele>607.9</ele>
        <time>1970-01-01T00:59:50.000Z</time>
      </trkpt>
      <trkpt lat="45.88378" lon="3.03559">
        <ele>608</ele>
        <time>1970-01-01T00:59:51.000Z</time>
      </trkpt>
      <trkpt lat="45.88378" lon="3.03558">
        <ele>608.2</ele>
        <time>1970-01-01T00:59:52.000Z</time>
      </trkpt>
      <trkpt lat="45.8838" lon="3.03556">
        <ele>608.4</ele>
        <time>1970-01-01T00:59:53.000Z</time>
      </trkpt>
      <trkpt lat="45.8838" lon="3.03555">
        <ele>608.6</ele>
        <time>1970-01-01T00:59:54.000Z</time>
      </trkpt>
      <trkpt lat="45.88382" lon="3.03553">
        <ele>608.8</ele>
        <time>1970-01-01T00:59:55.000Z</time>
      </trkpt>
      <trkpt lat="45.88382" lon="3.03552">
        <ele>608.9</ele>
        <time>1970-01-01T00:59:56.000Z</time>
      </trkpt>
      <trkpt lat="45.88383" lon="3.03551">
        <ele>609.1</ele>
        <time>1970-01-01T00:59:57.000Z</time>
      </trkpt>
      <trkpt lat="45.88384" lon="3.03549">
        <ele>609.3</ele>
        <time>1970-01-01T00:59:58.000Z</time>
      </trkpt>
      <trkpt lat="45.88385" lon="3.03547">
        <ele>609.4</ele>
        <time>1970-01-01T00:59:59.000Z</time>
      </trkpt>
      <trkpt lat="45.88386" lon="3.03545">
        <ele>609.7</ele>
        <time>1970-01-01T01:00:00.000Z</time>
      </trkpt>
      <trkpt lat="45.88387" lon="3.03544">
        <ele>609.8</ele>
        <time>1970-01-01T01:00:02.000Z</time>
      </trkpt>
      <trkpt lat="45.88387" lon="3.03543">
        <ele>609.9</ele>
        <time>1970-01-01T01:00:03.000Z</time>
      </trkpt>
      <trkpt lat="45.88388" lon="3.03541">
        <ele>610.1</ele>
        <time>1970-01-01T01:00:04.000Z</time>
      </trkpt>
      <trkpt lat="45.88389" lon="3.0354">
        <ele>610.2</ele>
        <time>1970-01-01T01:00:05.000Z</time>
      </trkpt>
      <trkpt lat="45.8839" lon="3.03539">
        <ele>610.4</ele>
        <time>1970-01-01T01:00:06.000Z</time>
      </trkpt>
      <trkpt lat="45.88391" lon="3.03538">
        <ele>610.5</ele>
        <time>1970-01-01T01:00:07.000Z</time>
      </trkpt>
      <trkpt lat="45.88391" lon="3.03537">
        <ele>610.6</ele>
        <time>1970-01-01T01:00:08.000Z</time>
      </trkpt>
      <trkpt lat="45.88394" lon="3.03534">
        <ele>611</ele>
        <time>1970-01-01T01:00:10.000Z</time>
      </trkpt>
      <trkpt lat="45.88394" lon="3.03532">
        <ele>611.1</ele>
        <time>1970-01-01T01:00:11.000Z</time>
      </trkpt>
      <trkpt lat="45.88397" lon="3.0353">
        <ele>611.4</ele>
        <time>1970-01-01T01:00:13.000Z</time>
      </trkpt>
      <trkpt lat="45.88398" lon="3.03529">
        <ele>611.5</ele>
        <time>1970-01-01T01:00:14.000Z</time>
      </trkpt>
      <trkpt lat="45.884" lon="3.03527">
        <ele>611.7</ele>
        <time>1970-01-01T01:00:16.000Z</time>
      </trkpt>
      <trkpt lat="45.884" lon="3.03527">
        <ele>611.8</ele>
        <time>1970-01-01T01:00:17.000Z</time>
      </trkpt>
      <trkpt lat="45.88402" lon="3.03523">
        <ele>612.1</ele>
        <time>1970-01-01T01:00:19.000Z</time>
      </trkpt>
      <trkpt lat="45.88403" lon="3.03521">
        <ele>612.3</ele>
        <time>1970-01-01T01:00:20.000Z</time>
      </trkpt>
      <trkpt lat="45.88404" lon="3.0352">
        <ele>612.4</ele>
        <time>1970-01-01T01:00:21.000Z</time>
      </trkpt>
      <trkpt lat="45.88406" lon="3.03517">
        <ele>612.7</ele>
        <time>1970-01-01T01:00:22.000Z</time>
      </trkpt>
      <trkpt lat="45.88406" lon="3.03516">
        <ele>612.8</ele>
        <time>1970-01-01T01:00:23.000Z</time>
      </trkpt>
      <trkpt lat="45.88407" lon="3.03514">
        <ele>613</ele>
        <time>1970-01-01T01:00:24.000Z</time>
      </trkpt>
      <trkpt lat="45.88409" lon="3.03512">
        <ele>613.2</ele>
        <time>1970-01-01T01:00:25.000Z</time>
      </trkpt>
      <trkpt lat="45.8841" lon="3.03511">
        <ele>613.4</ele>
        <time>1970-01-01T01:00:26.000Z</time>
      </trkpt>
      <trkpt lat="45.88411" lon="3.0351">
        <ele>613.5</ele>
        <time>1970-01-01T01:00:27.000Z</time>
      </trkpt>
      <trkpt lat="45.88411" lon="3.03508">
        <ele>613.6</ele>
        <time>1970-01-01T01:00:28.000Z</time>
      </trkpt>
      <trkpt lat="45.88413" lon="3.03504">
        <ele>613.9</ele>
        <time>1970-01-01T01:00:30.000Z</time>
      </trkpt>
      <trkpt lat="45.88413" lon="3.03501">
        <ele>614.1</ele>
        <time>1970-01-01T01:00:31.000Z</time>
      </trkpt>
      <trkpt lat="45.88413" lon="3.035">
        <ele>614.2</ele>
        <time>1970-01-01T01:00:32.000Z</time>
      </trkpt>
      <trkpt lat="45.88414" lon="3.03499">
        <ele>614.3</ele>
        <time>1970-01-01T01:00:33.000Z</time>
      </trkpt>
      <trkpt lat="45.88414" lon="3.03497">
        <ele>614.4</ele>
        <time>1970-01-01T01:00:34.000Z</time>
      </trkpt>
      <trkpt lat="45.88414" lon="3.03495">
        <ele>614.5</ele>
        <time>1970-01-01T01:00:35.000Z</time>
      </trkpt>
      <trkpt lat="45.88414" lon="3.03491">
        <ele>614.8</ele>
        <time>1970-01-01T01:00:36.000Z</time>
      </trkpt>
      <trkpt lat="45.88413" lon="3.0349">
        <ele>614.9</ele>
        <time>1970-01-01T01:00:37.000Z</time>
      </trkpt>
      <trkpt lat="45.88411" lon="3.03484">
        <ele>615.3</ele>
        <time>1970-01-01T01:00:39.000Z</time>
      </trkpt>
      <trkpt lat="45.8841" lon="3.03482">
        <ele>615.4</ele>
        <time>1970-01-01T01:00:40.000Z</time>
      </trkpt>
      <trkpt lat="45.8841" lon="3.03481">
        <ele>615.5</ele>
        <time>1970-01-01T01:00:41.000Z</time>
      </trkpt>
      <trkpt lat="45.88409" lon="3.03479">
        <ele>615.6</ele>
        <time>1970-01-01T01:00:42.000Z</time>
      </trkpt>
      <trkpt lat="45.88409" lon="3.03476">
        <ele>615.8</ele>
        <time>1970-01-01T01:00:43.000Z</time>
      </trkpt>
      <trkpt lat="45.88409" lon="3.03471">
        <ele>616</ele>
        <time>1970-01-01T01:00:44.000Z</time>
      </trkpt>
      <trkpt lat="45.88409" lon="3.0347">
        <ele>616.1</ele>
        <time>1970-01-01T01:00:45.000Z</time>
      </trkpt>
      <trkpt lat="45.88408" lon="3.03467">
        <ele>616.3</ele>
        <time>1970-01-01T01:00:46.000Z</time>
      </trkpt>
      <trkpt lat="45.88407" lon="3.03463">
        <ele>616.6</ele>
        <time>1970-01-01T01:00:48.000Z</time>
      </trkpt>
      <trkpt lat="45.88406" lon="3.03459">
        <ele>616.9</ele>
        <time>1970-01-01T01:00:49.000Z</time>
      </trkpt>
      <trkpt lat="45.88406" lon="3.03458">
        <ele>616.9</ele>
        <time>1970-01-01T01:00:50.000Z</time>
      </trkpt>
      <trkpt lat="45.88404" lon="3.03454">
        <ele>617.2</ele>
        <time>1970-01-01T01:00:51.000Z</time>
      </trkpt>
      <trkpt lat="45.88404" lon="3.03453">
        <ele>617.3</ele>
        <time>1970-01-01T01:00:52.000Z</time>
      </trkpt>
      <trkpt lat="45.88403" lon="3.03452">
        <ele>617.5</ele>
        <time>1970-01-01T01:00:53.000Z</time>
      </trkpt>
      <trkpt lat="45.88402" lon="3.0345">
        <ele>617.6</ele>
        <time>1970-01-01T01:00:54.000Z</time>
      </trkpt>
      <trkpt lat="45.88401" lon="3.03447">
        <ele>617.8</ele>
        <time>1970-01-01T01:00:55.000Z</time>
      </trkpt>
      <trkpt lat="45.88401" lon="3.03445">
        <ele>618.1</ele>
        <time>1970-01-01T01:00:57.000Z</time>
      </trkpt>
      <trkpt lat="45.88401" lon="3.03443">
        <ele>618.2</ele>
        <time>1970-01-01T01:00:58.000Z</time>
      </trkpt>
      <trkpt lat="45.884" lon="3.03441">
        <ele>618.4</ele>
        <time>1970-01-01T01:00:59.000Z</time>
      </trkpt>
      <trkpt lat="45.884" lon="3.0344">
        <ele>618.5</ele>
        <time>1970-01-01T01:01:00.000Z</time>
      </trkpt>
      <trkpt lat="45.884" lon="3.03438">
        <ele>618.6</ele>
        <time>1970-01-01T01:01:01.000Z</time>
      </trkpt>
      <trkpt lat="45.88399" lon="3.03436">
        <ele>618.8</ele>
        <time>1970-01-01T01:01:02.000Z</time>
      </trkpt>
      <trkpt lat="45.88399" lon="3.03434">
        <ele>619</ele>
        <time>1970-01-01T01:01:03.000Z</time>
      </trkpt>
      <trkpt lat="45.88399" lon="3.03432">
        <ele>619.2</ele>
        <time>1970-01-01T01:01:04.000Z</time>
      </trkpt>
      <trkpt lat="45.88398" lon="3.0343">
        <ele>619.3</ele>
        <time>1970-01-01T01:01:05.000Z</time>
      </trkpt>
      <trkpt lat="45.88398" lon="3.03428">
        <ele>619.5</ele>
        <time>1970-01-01T01:01:06.000Z</time>
      </trkpt>
      <trkpt lat="45.88397" lon="3.03425">
        <ele>619.7</ele>
        <time>1970-01-01T01:01:07.000Z</time>
      </trkpt>
      <trkpt lat="45.88396" lon="3.03423">
        <ele>619.9</ele>
        <time>1970-01-01T01:01:09.000Z</time>
      </trkpt>
      <trkpt lat="45.88396" lon="3.0342">
        <ele>620.2</ele>
        <time>1970-01-01T01:01:10.000Z</time>
      </trkpt>
      <trkpt lat="45.88395" lon="3.03418">
        <ele>620.3</ele>
        <time>1970-01-01T01:01:11.000Z</time>
      </trkpt>
      <trkpt lat="45.88395" lon="3.03416">
        <ele>620.5</ele>
        <time>1970-01-01T01:01:12.000Z</time>
      </trkpt>
      <trkpt lat="45.88394" lon="3.03415">
        <ele>620.6</ele>
        <time>1970-01-01T01:01:13.000Z</time>
      </trkpt>
      <trkpt lat="45.88393" lon="3.03411">
        <ele>620.9</ele>
        <time>1970-01-01T01:01:15.000Z</time>
      </trkpt>
      <trkpt lat="45.88393" lon="3.0341">
        <ele>621</ele>
        <time>1970-01-01T01:01:16.000Z</time>
      </trkpt>
      <trkpt lat="45.88391" lon="3.03406">
        <ele>621.3</ele>
        <time>1970-01-01T01:01:17.000Z</time>
      </trkpt>
      <trkpt lat="45.88391" lon="3.03405">
        <ele>621.4</ele>
        <time>1970-01-01T01:01:18.000Z</time>
      </trkpt>
      <trkpt lat="45.88389" lon="3.03401">
        <ele>621.6</ele>
        <time>1970-01-01T01:01:20.000Z</time>
      </trkpt>
      <trkpt lat="45.88388" lon="3.034">
        <ele>621.7</ele>
        <time>1970-01-01T01:01:21.000Z</time>
      </trkpt>
      <trkpt lat="45.88388" lon="3.03397">
        <ele>621.9</ele>
        <time>1970-01-01T01:01:22.000Z</time>
      </trkpt>
      <trkpt lat="45.88387" lon="3.03396">
        <ele>622</ele>
        <time>1970-01-01T01:01:23.000Z</time>
      </trkpt>
      <trkpt lat="45.88384" lon="3.03392">
        <ele>622.3</ele>
        <time>1970-01-01T01:01:25.000Z</time>
      </trkpt>
      <trkpt lat="45.88383" lon="3.0339">
        <ele>622.5</ele>
        <time>1970-01-01T01:01:26.000Z</time>
      </trkpt>
      <trkpt lat="45.88382" lon="3.03386">
        <ele>622.8</ele>
        <time>1970-01-01T01:01:27.000Z</time>
      </trkpt>
      <trkpt lat="45.88381" lon="3.03385">
        <ele>622.8</ele>
        <time>1970-01-01T01:01:28.000Z</time>
      </trkpt>
      <trkpt lat="45.88379" lon="3.0338">
        <ele>623.2</ele>
        <time>1970-01-01T01:01:30.000Z</time>
      </trkpt>
      <trkpt lat="45.88377" lon="3.03376">
        <ele>623.5</ele>
        <time>1970-01-01T01:01:32.000Z</time>
      </trkpt>
      <trkpt lat="45.88376" lon="3.03374">
        <ele>623.7</ele>
        <time>1970-01-01T01:01:33.000Z</time>
      </trkpt>
      <trkpt lat="45.88375" lon="3.03373">
        <ele>623.8</ele>
        <time>1970-01-01T01:01:34.000Z</time>
      </trkpt>
      <trkpt lat="45.88373" lon="3.0337">
        <ele>624</ele>
        <time>1970-01-01T01:01:35.000Z</time>
      </trkpt>
      <trkpt lat="45.88372" lon="3.03368">
        <ele>624.2</ele>
        <time>1970-01-01T01:01:37.000Z</time>
      </trkpt>
      <trkpt lat="45.8837" lon="3.03365">
        <ele>624.4</ele>
        <time>1970-01-01T01:01:38.000Z</time>
      </trkpt>
      <trkpt lat="45.88369" lon="3.03365">
        <ele>624.5</ele>
        <time>1970-01-01T01:01:39.000Z</time>
      </trkpt>
      <trkpt lat="45.88368" lon="3.03363">
        <ele>624.6</ele>
        <time>1970-01-01T01:01:40.000Z</time>
      </trkpt>
      <trkpt lat="45.88367" lon="3.03361">
        <ele>624.8</ele>
        <time>1970-01-01T01:01:42.000Z</time>
      </trkpt>
      <trkpt lat="45.88366" lon="3.03359">
        <ele>625</ele>
        <time>1970-01-01T01:01:43.000Z</time>
      </trkpt>
      <trkpt lat="45.88365" lon="3.03358">
        <ele>625.1</ele>
        <time>1970-01-01T01:01:44.000Z</time>
      </trkpt>
      <trkpt lat="45.88363" lon="3.03353">
        <ele>625.4</ele>
        <time>1970-01-01T01:01:45.000Z</time>
      </trkpt>
      <trkpt lat="45.88362" lon="3.03352">
        <ele>625.5</ele>
        <time>1970-01-01T01:01:46.000Z</time>
      </trkpt>
      <trkpt lat="45.88361" lon="3.03349">
        <ele>625.7</ele>
        <time>1970-01-01T01:01:48.000Z</time>
      </trkpt>
      <trkpt lat="45.88361" lon="3.03348">
        <ele>625.8</ele>
        <time>1970-01-01T01:01:49.000Z</time>
      </trkpt>
      <trkpt lat="45.8836" lon="3.03347">
        <ele>625.9</ele>
        <time>1970-01-01T01:01:50.000Z</time>
      </trkpt>
      <trkpt lat="45.88358" lon="3.03344">
        <ele>626.2</ele>
        <time>1970-01-01T01:01:51.000Z</time>
      </trkpt>
      <trkpt lat="45.88358" lon="3.03343">
        <ele>626.3</ele>
        <time>1970-01-01T01:01:52.000Z</time>
      </trkpt>
      <trkpt lat="45.88357" lon="3.03342">
        <ele>626.3</ele>
        <time>1970-01-01T01:01:53.000Z</time>
      </trkpt>
      <trkpt lat="45.88357" lon="3.0334">
        <ele>626.5</ele>
        <time>1970-01-01T01:01:54.000Z</time>
      </trkpt>
      <trkpt lat="45.88356" lon="3.03339">
        <ele>626.6</ele>
        <time>1970-01-01T01:01:55.000Z</time>
      </trkpt>
      <trkpt lat="45.88355" lon="3.03338">
        <ele>626.7</ele>
        <time>1970-01-01T01:01:56.000Z</time>
      </trkpt>
      <trkpt lat="45.88353" lon="3.03336">
        <ele>626.9</ele>
        <time>1970-01-01T01:01:57.000Z</time>
      </trkpt>
      <trkpt lat="45.88351" lon="3.03334">
        <ele>627.1</ele>
        <time>1970-01-01T01:01:58.000Z</time>
      </trkpt>
      <trkpt lat="45.88348" lon="3.03331">
        <ele>627.4</ele>
        <time>1970-01-01T01:01:59.000Z</time>
      </trkpt>
      <trkpt lat="45.88348" lon="3.0333">
        <ele>627.5</ele>
        <time>1970-01-01T01:02:00.000Z</time>
      </trkpt>
      <trkpt lat="45.88345" lon="3.03327">
        <ele>627.8</ele>
        <time>1970-01-01T01:02:01.000Z</time>
      </trkpt>
      <trkpt lat="45.88345" lon="3.03326">
        <ele>627.9</ele>
        <time>1970-01-01T01:02:03.000Z</time>
      </trkpt>
      <trkpt lat="45.88344" lon="3.03324">
        <ele>628</ele>
        <time>1970-01-01T01:02:04.000Z</time>
      </trkpt>
      <trkpt lat="45.88343" lon="3.03323">
        <ele>628.1</ele>
        <time>1970-01-01T01:02:05.000Z</time>
      </trkpt>
      <trkpt lat="45.88342" lon="3.03322">
        <ele>628.2</ele>
        <time>1970-01-01T01:02:06.000Z</time>
      </trkpt>
      <trkpt lat="45.88341" lon="3.0332">
        <ele>628.4</ele>
        <time>1970-01-01T01:02:07.000Z</time>
      </trkpt>
      <trkpt lat="45.88339" lon="3.03317">
        <ele>628.6</ele>
        <time>1970-01-01T01:02:08.000Z</time>
      </trkpt>
      <trkpt lat="45.88338" lon="3.03314">
        <ele>628.9</ele>
        <time>1970-01-01T01:02:10.000Z</time>
      </trkpt>
      <trkpt lat="45.88337" lon="3.03313">
        <ele>629</ele>
        <time>1970-01-01T01:02:11.000Z</time>
      </trkpt>
      <trkpt lat="45.88336" lon="3.03311">
        <ele>629.2</ele>
        <time>1970-01-01T01:02:12.000Z</time>
      </trkpt>
      <trkpt lat="45.88335" lon="3.0331">
        <ele>629.2</ele>
        <time>1970-01-01T01:02:13.000Z</time>
      </trkpt>
      <trkpt lat="45.88333" lon="3.03308">
        <ele>629.4</ele>
        <time>1970-01-01T01:02:14.000Z</time>
      </trkpt>
      <trkpt lat="45.88332" lon="3.03306">
        <ele>629.6</ele>
        <time>1970-01-01T01:02:15.000Z</time>
      </trkpt>
      <trkpt lat="45.88332" lon="3.03304">
        <ele>629.7</ele>
        <time>1970-01-01T01:02:16.000Z</time>
      </trkpt>
      <trkpt lat="45.88329" lon="3.033">
        <ele>630</ele>
        <time>1970-01-01T01:02:17.000Z</time>
      </trkpt>
      <trkpt lat="45.88328" lon="3.03299">
        <ele>630.2</ele>
        <time>1970-01-01T01:02:18.000Z</time>
      </trkpt>
      <trkpt lat="45.88326" lon="3.03296">
        <ele>630.4</ele>
        <time>1970-01-01T01:02:19.000Z</time>
      </trkpt>
      <trkpt lat="45.88325" lon="3.03295">
        <ele>630.5</ele>
        <time>1970-01-01T01:02:20.000Z</time>
      </trkpt>
      <trkpt lat="45.88323" lon="3.03292">
        <ele>630.8</ele>
        <time>1970-01-01T01:02:21.000Z</time>
      </trkpt>
      <trkpt lat="45.88322" lon="3.03291">
        <ele>630.9</ele>
        <time>1970-01-01T01:02:22.000Z</time>
      </trkpt>
      <trkpt lat="45.88321" lon="3.03289">
        <ele>631</ele>
        <time>1970-01-01T01:02:23.000Z</time>
      </trkpt>
      <trkpt lat="45.88319" lon="3.03285">
        <ele>631.3</ele>
        <time>1970-01-01T01:02:25.000Z</time>
      </trkpt>
      <trkpt lat="45.88317" lon="3.03282">
        <ele>631.6</ele>
        <time>1970-01-01T01:02:26.000Z</time>
      </trkpt>
      <trkpt lat="45.88316" lon="3.03282">
        <ele>631.7</ele>
        <time>1970-01-01T01:02:27.000Z</time>
      </trkpt>
      <trkpt lat="45.88315" lon="3.03279">
        <ele>631.9</ele>
        <time>1970-01-01T01:02:28.000Z</time>
      </trkpt>
      <trkpt lat="45.88314" lon="3.03278">
        <ele>632</ele>
        <time>1970-01-01T01:02:29.000Z</time>
      </trkpt>
      <trkpt lat="45.88312" lon="3.03275">
        <ele>632.3</ele>
        <time>1970-01-01T01:02:31.000Z</time>
      </trkpt>
      <trkpt lat="45.88312" lon="3.03274">
        <ele>632.4</ele>
        <time>1970-01-01T01:02:32.000Z</time>
      </trkpt>
      <trkpt lat="45.88311" lon="3.03272">
        <ele>632.6</ele>
        <time>1970-01-01T01:02:33.000Z</time>
      </trkpt>
      <trkpt lat="45.88309" lon="3.0327">
        <ele>632.8</ele>
        <time>1970-01-01T01:02:34.000Z</time>
      </trkpt>
      <trkpt lat="45.88307" lon="3.03265">
        <ele>633.2</ele>
        <time>1970-01-01T01:02:37.000Z</time>
      </trkpt>
      <trkpt lat="45.88306" lon="3.03263">
        <ele>633.4</ele>
        <time>1970-01-01T01:02:39.000Z</time>
      </trkpt>
      <trkpt lat="45.88306" lon="3.03262">
        <ele>633.5</ele>
        <time>1970-01-01T01:02:40.000Z</time>
      </trkpt>
      <trkpt lat="45.88304" lon="3.03259">
        <ele>633.8</ele>
        <time>1970-01-01T01:02:41.000Z</time>
      </trkpt>
      <trkpt lat="45.88304" lon="3.03258">
        <ele>633.9</ele>
        <time>1970-01-01T01:02:42.000Z</time>
      </trkpt>
      <trkpt lat="45.88303" lon="3.03256">
        <ele>634.1</ele>
        <time>1970-01-01T01:02:43.000Z</time>
      </trkpt>
      <trkpt lat="45.88302" lon="3.03255">
        <ele>634.3</ele>
        <time>1970-01-01T01:02:44.000Z</time>
      </trkpt>
      <trkpt lat="45.88301" lon="3.03252">
        <ele>634.6</ele>
        <time>1970-01-01T01:02:46.000Z</time>
      </trkpt>
      <trkpt lat="45.88299" lon="3.03248">
        <ele>635</ele>
        <time>1970-01-01T01:02:48.000Z</time>
      </trkpt>
      <trkpt lat="45.88298" lon="3.03247">
        <ele>635.2</ele>
        <time>1970-01-01T01:02:49.000Z</time>
      </trkpt>
      <trkpt lat="45.88298" lon="3.03245">
        <ele>635.3</ele>
        <time>1970-01-01T01:02:50.000Z</time>
      </trkpt>
      <trkpt lat="45.88296" lon="3.03242">
        <ele>635.8</ele>
        <time>1970-01-01T01:02:52.000Z</time>
      </trkpt>
      <trkpt lat="45.88295" lon="3.03241">
        <ele>635.9</ele>
        <time>1970-01-01T01:02:53.000Z</time>
      </trkpt>
      <trkpt lat="45.88294" lon="3.03239">
        <ele>636.1</ele>
        <time>1970-01-01T01:02:54.000Z</time>
      </trkpt>
      <trkpt lat="45.88294" lon="3.03236">
        <ele>636.5</ele>
        <time>1970-01-01T01:02:56.000Z</time>
      </trkpt>
      <trkpt lat="45.88293" lon="3.03233">
        <ele>636.8</ele>
        <time>1970-01-01T01:02:57.000Z</time>
      </trkpt>
      <trkpt lat="45.88293" lon="3.03232">
        <ele>636.9</ele>
        <time>1970-01-01T01:02:58.000Z</time>
      </trkpt>
      <trkpt lat="45.88293" lon="3.03231">
        <ele>637</ele>
        <time>1970-01-01T01:02:59.000Z</time>
      </trkpt>
      <trkpt lat="45.88292" lon="3.03227">
        <ele>637.5</ele>
        <time>1970-01-01T01:03:01.000Z</time>
      </trkpt>
      <trkpt lat="45.88292" lon="3.03225">
        <ele>637.6</ele>
        <time>1970-01-01T01:03:02.000Z</time>
      </trkpt>
      <trkpt lat="45.88291" lon="3.03223">
        <ele>637.9</ele>
        <time>1970-01-01T01:03:03.000Z</time>
      </trkpt>
      <trkpt lat="45.88291" lon="3.03221">
        <ele>638</ele>
        <time>1970-01-01T01:03:04.000Z</time>
      </trkpt>
      <trkpt lat="45.88291" lon="3.0322">
        <ele>638.2</ele>
        <time>1970-01-01T01:03:05.000Z</time>
      </trkpt>
      <trkpt lat="45.8829" lon="3.03219">
        <ele>638.4</ele>
        <time>1970-01-01T01:03:06.000Z</time>
      </trkpt>
      <trkpt lat="45.88289" lon="3.03217">
        <ele>638.6</ele>
        <time>1970-01-01T01:03:07.000Z</time>
      </trkpt>
      <trkpt lat="45.88287" lon="3.03215">
        <ele>638.9</ele>
        <time>1970-01-01T01:03:08.000Z</time>
      </trkpt>
      <trkpt lat="45.88286" lon="3.03213">
        <ele>639.2</ele>
        <time>1970-01-01T01:03:09.000Z</time>
      </trkpt>
      <trkpt lat="45.88285" lon="3.03212">
        <ele>639.4</ele>
        <time>1970-01-01T01:03:10.000Z</time>
      </trkpt>
      <trkpt lat="45.88283" lon="3.03209">
        <ele>639.8</ele>
        <time>1970-01-01T01:03:12.000Z</time>
      </trkpt>
      <trkpt lat="45.88281" lon="3.03208">
        <ele>640.1</ele>
        <time>1970-01-01T01:03:14.000Z</time>
      </trkpt>
      <trkpt lat="45.8828" lon="3.03207">
        <ele>640.2</ele>
        <time>1970-01-01T01:03:15.000Z</time>
      </trkpt>
      <trkpt lat="45.8828" lon="3.03207">
        <ele>640.3</ele>
        <time>1970-01-01T01:03:16.000Z</time>
      </trkpt>
      <trkpt lat="45.88279" lon="3.03205">
        <ele>640.5</ele>
        <time>1970-01-01T01:03:17.000Z</time>
      </trkpt>
      <trkpt lat="45.88278" lon="3.03204">
        <ele>640.6</ele>
        <time>1970-01-01T01:03:18.000Z</time>
      </trkpt>
      <trkpt lat="45.88276" lon="3.03202">
        <ele>640.9</ele>
        <time>1970-01-01T01:03:20.000Z</time>
      </trkpt>
      <trkpt lat="45.88276" lon="3.03201">
        <ele>641</ele>
        <time>1970-01-01T01:03:21.000Z</time>
      </trkpt>
      <trkpt lat="45.88275" lon="3.032">
        <ele>641.2</ele>
        <time>1970-01-01T01:03:22.000Z</time>
      </trkpt>
      <trkpt lat="45.88273" lon="3.03198">
        <ele>641.4</ele>
        <time>1970-01-01T01:03:23.000Z</time>
      </trkpt>
      <trkpt lat="45.88272" lon="3.03197">
        <ele>641.6</ele>
        <time>1970-01-01T01:03:25.000Z</time>
      </trkpt>
      <trkpt lat="45.88272" lon="3.03196">
        <ele>641.7</ele>
        <time>1970-01-01T01:03:26.000Z</time>
      </trkpt>
      <trkpt lat="45.88271" lon="3.03194">
        <ele>641.9</ele>
        <time>1970-01-01T01:03:27.000Z</time>
      </trkpt>
      <trkpt lat="45.8827" lon="3.03193">
        <ele>642</ele>
        <time>1970-01-01T01:03:28.000Z</time>
      </trkpt>
      <trkpt lat="45.88269" lon="3.03191">
        <ele>642.2</ele>
        <time>1970-01-01T01:03:29.000Z</time>
      </trkpt>
      <trkpt lat="45.88267" lon="3.03189">
        <ele>642.5</ele>
        <time>1970-01-01T01:03:31.000Z</time>
      </trkpt>
      <trkpt lat="45.88267" lon="3.03188">
        <ele>642.6</ele>
        <time>1970-01-01T01:03:32.000Z</time>
      </trkpt>
      <trkpt lat="45.88265" lon="3.03187">
        <ele>642.8</ele>
        <time>1970-01-01T01:03:33.000Z</time>
      </trkpt>
      <trkpt lat="45.88263" lon="3.03184">
        <ele>643.1</ele>
        <time>1970-01-01T01:03:35.000Z</time>
      </trkpt>
      <trkpt lat="45.88262" lon="3.03183">
        <ele>643.2</ele>
        <time>1970-01-01T01:03:36.000Z</time>
      </trkpt>
      <trkpt lat="45.88261" lon="3.03181">
        <ele>643.4</ele>
        <time>1970-01-01T01:03:37.000Z</time>
      </trkpt>
      <trkpt lat="45.8826" lon="3.0318">
        <ele>643.6</ele>
        <time>1970-01-01T01:03:38.000Z</time>
      </trkpt>
      <trkpt lat="45.88258" lon="3.03178">
        <ele>643.8</ele>
        <time>1970-01-01T01:03:40.000Z</time>
      </trkpt>
      <trkpt lat="45.88258" lon="3.03176">
        <ele>643.9</ele>
        <time>1970-01-01T01:03:41.000Z</time>
      </trkpt>
      <trkpt lat="45.88257" lon="3.03173">
        <ele>644.1</ele>
        <time>1970-01-01T01:03:42.000Z</time>
      </trkpt>
      <trkpt lat="45.88256" lon="3.0317">
        <ele>644.3</ele>
        <time>1970-01-01T01:03:44.000Z</time>
      </trkpt>
      <trkpt lat="45.88256" lon="3.03169">
        <ele>644.5</ele>
        <time>1970-01-01T01:03:45.000Z</time>
      </trkpt>
      <trkpt lat="45.88255" lon="3.03167">
        <ele>644.6</ele>
        <time>1970-01-01T01:03:46.000Z</time>
      </trkpt>
      <trkpt lat="45.88254" lon="3.03165">
        <ele>644.8</ele>
        <time>1970-01-01T01:03:47.000Z</time>
      </trkpt>
      <trkpt lat="45.88254" lon="3.03163">
        <ele>644.9</ele>
        <time>1970-01-01T01:03:48.000Z</time>
      </trkpt>
      <trkpt lat="45.88253" lon="3.0316">
        <ele>645.1</ele>
        <time>1970-01-01T01:03:50.000Z</time>
      </trkpt>
      <trkpt lat="45.88252" lon="3.03158">
        <ele>645.3</ele>
        <time>1970-01-01T01:03:51.000Z</time>
      </trkpt>
      <trkpt lat="45.88251" lon="3.03156">
        <ele>645.5</ele>
        <time>1970-01-01T01:03:52.000Z</time>
      </trkpt>
      <trkpt lat="45.88251" lon="3.03155">
        <ele>645.6</ele>
        <time>1970-01-01T01:03:53.000Z</time>
      </trkpt>
      <trkpt lat="45.88249" lon="3.03153">
        <ele>645.8</ele>
        <time>1970-01-01T01:03:54.000Z</time>
      </trkpt>
      <trkpt lat="45.88248" lon="3.03152">
        <ele>646</ele>
        <time>1970-01-01T01:03:55.000Z</time>
      </trkpt>
      <trkpt lat="45.88247" lon="3.0315">
        <ele>646.1</ele>
        <time>1970-01-01T01:03:56.000Z</time>
      </trkpt>
      <trkpt lat="45.88246" lon="3.03148">
        <ele>646.3</ele>
        <time>1970-01-01T01:03:58.000Z</time>
      </trkpt>
      <trkpt lat="45.88245" lon="3.03147">
        <ele>646.5</ele>
        <time>1970-01-01T01:03:59.000Z</time>
      </trkpt>
      <trkpt lat="45.88243" lon="3.03144">
        <ele>646.8</ele>
        <time>1970-01-01T01:04:01.000Z</time>
      </trkpt>
      <trkpt lat="45.88242" lon="3.03144">
        <ele>646.9</ele>
        <time>1970-01-01T01:04:02.000Z</time>
      </trkpt>
      <trkpt lat="45.8824" lon="3.03142">
        <ele>647.2</ele>
        <time>1970-01-01T01:04:03.000Z</time>
      </trkpt>
      <trkpt lat="45.88239" lon="3.0314">
        <ele>647.4</ele>
        <time>1970-01-01T01:04:05.000Z</time>
      </trkpt>
      <trkpt lat="45.88238" lon="3.03137">
        <ele>647.7</ele>
        <time>1970-01-01T01:04:06.000Z</time>
      </trkpt>
      <trkpt lat="45.88237" lon="3.03136">
        <ele>647.8</ele>
        <time>1970-01-01T01:04:07.000Z</time>
      </trkpt>
      <trkpt lat="45.88236" lon="3.03134">
        <ele>648</ele>
        <time>1970-01-01T01:04:09.000Z</time>
      </trkpt>
      <trkpt lat="45.88234" lon="3.03132">
        <ele>648.2</ele>
        <time>1970-01-01T01:04:10.000Z</time>
      </trkpt>
      <trkpt lat="45.88234" lon="3.03132">
        <ele>648.3</ele>
        <time>1970-01-01T01:04:11.000Z</time>
      </trkpt>
      <trkpt lat="45.88233" lon="3.03131">
        <ele>648.4</ele>
        <time>1970-01-01T01:04:12.000Z</time>
      </trkpt>
      <trkpt lat="45.88232" lon="3.03129">
        <ele>648.5</ele>
        <time>1970-01-01T01:04:13.000Z</time>
      </trkpt>
      <trkpt lat="45.88231" lon="3.03128">
        <ele>648.7</ele>
        <time>1970-01-01T01:04:14.000Z</time>
      </trkpt>
      <trkpt lat="45.88231" lon="3.03126">
        <ele>648.9</ele>
        <time>1970-01-01T01:04:15.000Z</time>
      </trkpt>
      <trkpt lat="45.8823" lon="3.03124">
        <ele>649</ele>
        <time>1970-01-01T01:04:16.000Z</time>
      </trkpt>
      <trkpt lat="45.88228" lon="3.03123">
        <ele>649.2</ele>
        <time>1970-01-01T01:04:17.000Z</time>
      </trkpt>
      <trkpt lat="45.88227" lon="3.03121">
        <ele>649.4</ele>
        <time>1970-01-01T01:04:19.000Z</time>
      </trkpt>
      <trkpt lat="45.88226" lon="3.03119">
        <ele>649.6</ele>
        <time>1970-01-01T01:04:20.000Z</time>
      </trkpt>
      <trkpt lat="45.88224" lon="3.03117">
        <ele>649.8</ele>
        <time>1970-01-01T01:04:21.000Z</time>
      </trkpt>
      <trkpt lat="45.88224" lon="3.03117">
        <ele>649.9</ele>
        <time>1970-01-01T01:04:22.000Z</time>
      </trkpt>
      <trkpt lat="45.88223" lon="3.03116">
        <ele>650.1</ele>
        <time>1970-01-01T01:04:23.000Z</time>
      </trkpt>
      <trkpt lat="45.8822" lon="3.03113">
        <ele>650.4</ele>
        <time>1970-01-01T01:04:25.000Z</time>
      </trkpt>
      <trkpt lat="45.8822" lon="3.03112">
        <ele>650.5</ele>
        <time>1970-01-01T01:04:26.000Z</time>
      </trkpt>
      <trkpt lat="45.88218" lon="3.0311">
        <ele>650.8</ele>
        <time>1970-01-01T01:04:27.000Z</time>
      </trkpt>
      <trkpt lat="45.88218" lon="3.03109">
        <ele>650.9</ele>
        <time>1970-01-01T01:04:28.000Z</time>
      </trkpt>
      <trkpt lat="45.88217" lon="3.03108">
        <ele>651</ele>
        <time>1970-01-01T01:04:29.000Z</time>
      </trkpt>
      <trkpt lat="45.88215" lon="3.03105">
        <ele>651.2</ele>
        <time>1970-01-01T01:04:30.000Z</time>
      </trkpt>
      <trkpt lat="45.88215" lon="3.03105">
        <ele>651.3</ele>
        <time>1970-01-01T01:04:31.000Z</time>
      </trkpt>
      <trkpt lat="45.88214" lon="3.03104">
        <ele>651.4</ele>
        <time>1970-01-01T01:04:32.000Z</time>
      </trkpt>
      <trkpt lat="45.88212" lon="3.03103">
        <ele>651.6</ele>
        <time>1970-01-01T01:04:34.000Z</time>
      </trkpt>
      <trkpt lat="45.88211" lon="3.03102">
        <ele>651.8</ele>
        <time>1970-01-01T01:04:35.000Z</time>
      </trkpt>
      <trkpt lat="45.8821" lon="3.03101">
        <ele>652</ele>
        <time>1970-01-01T01:04:36.000Z</time>
      </trkpt>
      <trkpt lat="45.88209" lon="3.03099">
        <ele>652.2</ele>
        <time>1970-01-01T01:04:37.000Z</time>
      </trkpt>
      <trkpt lat="45.88208" lon="3.03098">
        <ele>652.4</ele>
        <time>1970-01-01T01:04:38.000Z</time>
      </trkpt>
      <trkpt lat="45.88207" lon="3.03096">
        <ele>652.5</ele>
        <time>1970-01-01T01:04:39.000Z</time>
      </trkpt>
      <trkpt lat="45.88206" lon="3.03094">
        <ele>652.7</ele>
        <time>1970-01-01T01:04:40.000Z</time>
      </trkpt>
      <trkpt lat="45.88206" lon="3.03092">
        <ele>652.9</ele>
        <time>1970-01-01T01:04:41.000Z</time>
      </trkpt>
      <trkpt lat="45.88204" lon="3.03091">
        <ele>653.1</ele>
        <time>1970-01-01T01:04:42.000Z</time>
      </trkpt>
      <trkpt lat="45.88203" lon="3.0309">
        <ele>653.3</ele>
        <time>1970-01-01T01:04:43.000Z</time>
      </trkpt>
      <trkpt lat="45.88201" lon="3.03086">
        <ele>653.7</ele>
        <time>1970-01-01T01:04:45.000Z</time>
      </trkpt>
      <trkpt lat="45.882" lon="3.03085">
        <ele>653.8</ele>
        <time>1970-01-01T01:04:46.000Z</time>
      </trkpt>
      <trkpt lat="45.88199" lon="3.03084">
        <ele>653.9</ele>
        <time>1970-01-01T01:04:47.000Z</time>
      </trkpt>
      <trkpt lat="45.88198" lon="3.03082">
        <ele>654.1</ele>
        <time>1970-01-01T01:04:48.000Z</time>
      </trkpt>
      <trkpt lat="45.88197" lon="3.0308">
        <ele>654.3</ele>
        <time>1970-01-01T01:04:49.000Z</time>
      </trkpt>
      <trkpt lat="45.88196" lon="3.03079">
        <ele>654.5</ele>
        <time>1970-01-01T01:04:50.000Z</time>
      </trkpt>
      <trkpt lat="45.88194" lon="3.03076">
        <ele>654.8</ele>
        <time>1970-01-01T01:04:51.000Z</time>
      </trkpt>
      <trkpt lat="45.88194" lon="3.03075">
        <ele>655</ele>
        <time>1970-01-01T01:04:53.000Z</time>
      </trkpt>
      <trkpt lat="45.88193" lon="3.03074">
        <ele>655.2</ele>
        <time>1970-01-01T01:04:54.000Z</time>
      </trkpt>
      <trkpt lat="45.88191" lon="3.0307">
        <ele>655.5</ele>
        <time>1970-01-01T01:04:56.000Z</time>
      </trkpt>
      <trkpt lat="45.88191" lon="3.03069">
        <ele>655.6</ele>
        <time>1970-01-01T01:04:57.000Z</time>
      </trkpt>
      <trkpt lat="45.88189" lon="3.03068">
        <ele>655.9</ele>
        <time>1970-01-01T01:04:59.000Z</time>
      </trkpt>
      <trkpt lat="45.88189" lon="3.03066">
        <ele>656</ele>
        <time>1970-01-01T01:05:00.000Z</time>
      </trkpt>
      <trkpt lat="45.88188" lon="3.03064">
        <ele>656.2</ele>
        <time>1970-01-01T01:05:01.000Z</time>
      </trkpt>
      <trkpt lat="45.88187" lon="3.03063">
        <ele>656.4</ele>
        <time>1970-01-01T01:05:02.000Z</time>
      </trkpt>
      <trkpt lat="45.88186" lon="3.03061">
        <ele>656.7</ele>
        <time>1970-01-01T01:05:04.000Z</time>
      </trkpt>
      <trkpt lat="45.88184" lon="3.03057">
        <ele>657</ele>
        <time>1970-01-01T01:05:05.000Z</time>
      </trkpt>
      <trkpt lat="45.88184" lon="3.03056">
        <ele>657.2</ele>
        <time>1970-01-01T01:05:07.000Z</time>
      </trkpt>
      <trkpt lat="45.88183" lon="3.03055">
        <ele>657.3</ele>
        <time>1970-01-01T01:05:08.000Z</time>
      </trkpt>
      <trkpt lat="45.88182" lon="3.03054">
        <ele>657.5</ele>
        <time>1970-01-01T01:05:09.000Z</time>
      </trkpt>
      <trkpt lat="45.88181" lon="3.03051">
        <ele>657.9</ele>
        <time>1970-01-01T01:05:11.000Z</time>
      </trkpt>
      <trkpt lat="45.88181" lon="3.03049">
        <ele>658</ele>
        <time>1970-01-01T01:05:12.000Z</time>
      </trkpt>
      <trkpt lat="45.88179" lon="3.03046">
        <ele>658.4</ele>
        <time>1970-01-01T01:05:13.000Z</time>
      </trkpt>
      <trkpt lat="45.88178" lon="3.03045">
        <ele>658.6</ele>
        <time>1970-01-01T01:05:15.000Z</time>
      </trkpt>
      <trkpt lat="45.88177" lon="3.03044">
        <ele>658.7</ele>
        <time>1970-01-01T01:05:16.000Z</time>
      </trkpt>
      <trkpt lat="45.88176" lon="3.03043">
        <ele>658.9</ele>
        <time>1970-01-01T01:05:17.000Z</time>
      </trkpt>
      <trkpt lat="45.88175" lon="3.03042">
        <ele>659</ele>
        <time>1970-01-01T01:05:18.000Z</time>
      </trkpt>
      <trkpt lat="45.88174" lon="3.03039">
        <ele>659.4</ele>
        <time>1970-01-01T01:05:19.000Z</time>
      </trkpt>
      <trkpt lat="45.88173" lon="3.03038">
        <ele>659.6</ele>
        <time>1970-01-01T01:05:20.000Z</time>
      </trkpt>
      <trkpt lat="45.88172" lon="3.03036">
        <ele>659.7</ele>
        <time>1970-01-01T01:05:22.000Z</time>
      </trkpt>
      <trkpt lat="45.88171" lon="3.03035">
        <ele>659.9</ele>
        <time>1970-01-01T01:05:23.000Z</time>
      </trkpt>
      <trkpt lat="45.88171" lon="3.03034">
        <ele>660</ele>
        <time>1970-01-01T01:05:24.000Z</time>
      </trkpt>
      <trkpt lat="45.8817" lon="3.03032">
        <ele>660.2</ele>
        <time>1970-01-01T01:05:25.000Z</time>
      </trkpt>
      <trkpt lat="45.88169" lon="3.0303">
        <ele>660.5</ele>
        <time>1970-01-01T01:05:26.000Z</time>
      </trkpt>
      <trkpt lat="45.88168" lon="3.03028">
        <ele>660.7</ele>
        <time>1970-01-01T01:05:27.000Z</time>
      </trkpt>
      <trkpt lat="45.88167" lon="3.03026">
        <ele>660.9</ele>
        <time>1970-01-01T01:05:28.000Z</time>
      </trkpt>
      <trkpt lat="45.88166" lon="3.03025">
        <ele>661.1</ele>
        <time>1970-01-01T01:05:29.000Z</time>
      </trkpt>
      <trkpt lat="45.88165" lon="3.03023">
        <ele>661.3</ele>
        <time>1970-01-01T01:05:30.000Z</time>
      </trkpt>
      <trkpt lat="45.88164" lon="3.0302">
        <ele>661.6</ele>
        <time>1970-01-01T01:05:32.000Z</time>
      </trkpt>
      <trkpt lat="45.88163" lon="3.03017">
        <ele>662</ele>
        <time>1970-01-01T01:05:34.000Z</time>
      </trkpt>
      <trkpt lat="45.88162" lon="3.03016">
        <ele>662.1</ele>
        <time>1970-01-01T01:05:35.000Z</time>
      </trkpt>
      <trkpt lat="45.88161" lon="3.03014">
        <ele>662.3</ele>
        <time>1970-01-01T01:05:36.000Z</time>
      </trkpt>
      <trkpt lat="45.8816" lon="3.03013">
        <ele>662.4</ele>
        <time>1970-01-01T01:05:37.000Z</time>
      </trkpt>
      <trkpt lat="45.88159" lon="3.0301">
        <ele>662.7</ele>
        <time>1970-01-01T01:05:38.000Z</time>
      </trkpt>
      <trkpt lat="45.88159" lon="3.03009">
        <ele>662.8</ele>
        <time>1970-01-01T01:05:39.000Z</time>
      </trkpt>
      <trkpt lat="45.88159" lon="3.03008">
        <ele>663</ele>
        <time>1970-01-01T01:05:40.000Z</time>
      </trkpt>
      <trkpt lat="45.88158" lon="3.03005">
        <ele>663.3</ele>
        <time>1970-01-01T01:05:42.000Z</time>
      </trkpt>
      <trkpt lat="45.88157" lon="3.03003">
        <ele>663.4</ele>
        <time>1970-01-01T01:05:43.000Z</time>
      </trkpt>
      <trkpt lat="45.88156" lon="3.03">
        <ele>663.7</ele>
        <time>1970-01-01T01:05:44.000Z</time>
      </trkpt>
      <trkpt lat="45.88156" lon="3.02999">
        <ele>663.9</ele>
        <time>1970-01-01T01:05:45.000Z</time>
      </trkpt>
      <trkpt lat="45.88156" lon="3.02998">
        <ele>664</ele>
        <time>1970-01-01T01:05:46.000Z</time>
      </trkpt>
      <trkpt lat="45.88154" lon="3.02994">
        <ele>664.5</ele>
        <time>1970-01-01T01:05:48.000Z</time>
      </trkpt>
      <trkpt lat="45.88154" lon="3.02993">
        <ele>664.6</ele>
        <time>1970-01-01T01:05:49.000Z</time>
      </trkpt>
      <trkpt lat="45.88153" lon="3.0299">
        <ele>664.9</ele>
        <time>1970-01-01T01:05:50.000Z</time>
      </trkpt>
      <trkpt lat="45.88152" lon="3.02989">
        <ele>665</ele>
        <time>1970-01-01T01:05:51.000Z</time>
      </trkpt>
      <trkpt lat="45.88152" lon="3.02987">
        <ele>665.2</ele>
        <time>1970-01-01T01:05:52.000Z</time>
      </trkpt>
      <trkpt lat="45.88151" lon="3.02986">
        <ele>665.4</ele>
        <time>1970-01-01T01:05:53.000Z</time>
      </trkpt>
      <trkpt lat="45.8815" lon="3.02984">
        <ele>665.6</ele>
        <time>1970-01-01T01:05:54.000Z</time>
      </trkpt>
      <trkpt lat="45.88149" lon="3.02982">
        <ele>665.8</ele>
        <time>1970-01-01T01:05:55.000Z</time>
      </trkpt>
      <trkpt lat="45.88148" lon="3.02978">
        <ele>666.2</ele>
        <time>1970-01-01T01:05:57.000Z</time>
      </trkpt>
      <trkpt lat="45.88148" lon="3.02977">
        <ele>666.4</ele>
        <time>1970-01-01T01:05:58.000Z</time>
      </trkpt>
      <trkpt lat="45.88147" lon="3.02975">
        <ele>666.6</ele>
        <time>1970-01-01T01:05:59.000Z</time>
      </trkpt>
      <trkpt lat="45.88146" lon="3.02974">
        <ele>666.7</ele>
        <time>1970-01-01T01:06:00.000Z</time>
      </trkpt>
      <trkpt lat="45.88146" lon="3.02972">
        <ele>667</ele>
        <time>1970-01-01T01:06:01.000Z</time>
      </trkpt>
      <trkpt lat="45.88145" lon="3.0297">
        <ele>667.2</ele>
        <time>1970-01-01T01:06:02.000Z</time>
      </trkpt>
      <trkpt lat="45.88144" lon="3.02967">
        <ele>667.5</ele>
        <time>1970-01-01T01:06:04.000Z</time>
      </trkpt>
      <trkpt lat="45.88144" lon="3.02965">
        <ele>667.7</ele>
        <time>1970-01-01T01:06:05.000Z</time>
      </trkpt>
      <trkpt lat="45.88143" lon="3.02962">
        <ele>668.1</ele>
        <time>1970-01-01T01:06:07.000Z</time>
      </trkpt>
      <trkpt lat="45.88142" lon="3.02961">
        <ele>668.2</ele>
        <time>1970-01-01T01:06:08.000Z</time>
      </trkpt>
      <trkpt lat="45.88141" lon="3.02959">
        <ele>668.6</ele>
        <time>1970-01-01T01:06:09.000Z</time>
      </trkpt>
      <trkpt lat="45.8814" lon="3.02957">
        <ele>668.8</ele>
        <time>1970-01-01T01:06:11.000Z</time>
      </trkpt>
      <trkpt lat="45.8814" lon="3.02955">
        <ele>669</ele>
        <time>1970-01-01T01:06:12.000Z</time>
      </trkpt>
      <trkpt lat="45.88139" lon="3.02953">
        <ele>669.2</ele>
        <time>1970-01-01T01:06:13.000Z</time>
      </trkpt>
      <trkpt lat="45.88138" lon="3.02951">
        <ele>669.6</ele>
        <time>1970-01-01T01:06:15.000Z</time>
      </trkpt>
      <trkpt lat="45.88138" lon="3.02949">
        <ele>669.7</ele>
        <time>1970-01-01T01:06:16.000Z</time>
      </trkpt>
      <trkpt lat="45.88138" lon="3.02947">
        <ele>669.9</ele>
        <time>1970-01-01T01:06:17.000Z</time>
      </trkpt>
      <trkpt lat="45.88137" lon="3.02945">
        <ele>670</ele>
        <time>1970-01-01T01:06:18.000Z</time>
      </trkpt>
      <trkpt lat="45.88137" lon="3.02941">
        <ele>670.3</ele>
        <time>1970-01-01T01:06:19.000Z</time>
      </trkpt>
      <trkpt lat="45.88137" lon="3.0294">
        <ele>670.4</ele>
        <time>1970-01-01T01:06:21.000Z</time>
      </trkpt>
      <trkpt lat="45.88137" lon="3.02938">
        <ele>670.5</ele>
        <time>1970-01-01T01:06:22.000Z</time>
      </trkpt>
      <trkpt lat="45.88137" lon="3.02937">
        <ele>670.6</ele>
        <time>1970-01-01T01:06:23.000Z</time>
      </trkpt>
      <trkpt lat="45.88137" lon="3.02935">
        <ele>670.7</ele>
        <time>1970-01-01T01:06:24.000Z</time>
      </trkpt>
      <trkpt lat="45.88137" lon="3.02933">
        <ele>670.8</ele>
        <time>1970-01-01T01:06:25.000Z</time>
      </trkpt>
      <trkpt lat="45.88137" lon="3.02931">
        <ele>670.9</ele>
        <time>1970-01-01T01:06:26.000Z</time>
      </trkpt>
      <trkpt lat="45.88137" lon="3.0293">
        <ele>671</ele>
        <time>1970-01-01T01:06:27.000Z</time>
      </trkpt>
      <trkpt lat="45.88137" lon="3.02929">
        <ele>671.1</ele>
        <time>1970-01-01T01:06:28.000Z</time>
      </trkpt>
      <trkpt lat="45.88136" lon="3.02926">
        <ele>671.3</ele>
        <time>1970-01-01T01:06:30.000Z</time>
      </trkpt>
      <trkpt lat="45.88136" lon="3.02924">
        <ele>671.4</ele>
        <time>1970-01-01T01:06:31.000Z</time>
      </trkpt>
      <trkpt lat="45.88136" lon="3.02922">
        <ele>671.6</ele>
        <time>1970-01-01T01:06:32.000Z</time>
      </trkpt>
      <trkpt lat="45.88135" lon="3.02919">
        <ele>671.8</ele>
        <time>1970-01-01T01:06:34.000Z</time>
      </trkpt>
      <trkpt lat="45.88135" lon="3.02917">
        <ele>671.9</ele>
        <time>1970-01-01T01:06:35.000Z</time>
      </trkpt>
      <trkpt lat="45.88134" lon="3.02915">
        <ele>672.1</ele>
        <time>1970-01-01T01:06:36.000Z</time>
      </trkpt>
      <trkpt lat="45.88134" lon="3.02914">
        <ele>672.2</ele>
        <time>1970-01-01T01:06:37.000Z</time>
      </trkpt>
      <trkpt lat="45.88133" lon="3.02912">
        <ele>672.3</ele>
        <time>1970-01-01T01:06:38.000Z</time>
      </trkpt>
      <trkpt lat="45.88133" lon="3.02909">
        <ele>672.6</ele>
        <time>1970-01-01T01:06:39.000Z</time>
      </trkpt>
      <trkpt lat="45.88132" lon="3.02907">
        <ele>672.7</ele>
        <time>1970-01-01T01:06:40.000Z</time>
      </trkpt>
      <trkpt lat="45.88132" lon="3.02905">
        <ele>672.8</ele>
        <time>1970-01-01T01:06:41.000Z</time>
      </trkpt>
      <trkpt lat="45.88131" lon="3.02905">
        <ele>672.9</ele>
        <time>1970-01-01T01:06:42.000Z</time>
      </trkpt>
      <trkpt lat="45.88131" lon="3.02903">
        <ele>673</ele>
        <time>1970-01-01T01:06:43.000Z</time>
      </trkpt>
      <trkpt lat="45.88131" lon="3.02901">
        <ele>673.1</ele>
        <time>1970-01-01T01:06:44.000Z</time>
      </trkpt>
      <trkpt lat="45.88131" lon="3.02899">
        <ele>673.3</ele>
        <time>1970-01-01T01:06:46.000Z</time>
      </trkpt>
      <trkpt lat="45.8813" lon="3.02896">
        <ele>673.6</ele>
        <time>1970-01-01T01:06:48.000Z</time>
      </trkpt>
      <trkpt lat="45.8813" lon="3.02894">
        <ele>673.7</ele>
        <time>1970-01-01T01:06:49.000Z</time>
      </trkpt>
      <trkpt lat="45.8813" lon="3.02892">
        <ele>673.9</ele>
        <time>1970-01-01T01:06:50.000Z</time>
      </trkpt>
      <trkpt lat="45.8813" lon="3.02891">
        <ele>674</ele>
        <time>1970-01-01T01:06:51.000Z</time>
      </trkpt>
      <trkpt lat="45.88129" lon="3.02888">
        <ele>674.3</ele>
        <time>1970-01-01T01:06:52.000Z</time>
      </trkpt>
      <trkpt lat="45.88129" lon="3.02887">
        <ele>674.3</ele>
        <time>1970-01-01T01:06:53.000Z</time>
      </trkpt>
      <trkpt lat="45.88128" lon="3.02886">
        <ele>674.4</ele>
        <time>1970-01-01T01:06:54.000Z</time>
      </trkpt>
      <trkpt lat="45.88128" lon="3.02882">
        <ele>674.7</ele>
        <time>1970-01-01T01:06:55.000Z</time>
      </trkpt>
      <trkpt lat="45.88128" lon="3.02881">
        <ele>674.8</ele>
        <time>1970-01-01T01:06:56.000Z</time>
      </trkpt>
      <trkpt lat="45.88127" lon="3.02879">
        <ele>675</ele>
        <time>1970-01-01T01:06:57.000Z</time>
      </trkpt>
      <trkpt lat="45.88127" lon="3.02876">
        <ele>675.3</ele>
        <time>1970-01-01T01:06:59.000Z</time>
      </trkpt>
      <trkpt lat="45.88126" lon="3.02874">
        <ele>675.4</ele>
        <time>1970-01-01T01:07:00.000Z</time>
      </trkpt>
      <trkpt lat="45.88126" lon="3.02873">
        <ele>675.5</ele>
        <time>1970-01-01T01:07:01.000Z</time>
      </trkpt>
      <trkpt lat="45.88126" lon="3.0287">
        <ele>675.8</ele>
        <time>1970-01-01T01:07:02.000Z</time>
      </trkpt>
      <trkpt lat="45.88125" lon="3.02868">
        <ele>675.9</ele>
        <time>1970-01-01T01:07:04.000Z</time>
      </trkpt>
      <trkpt lat="45.88125" lon="3.02867">
        <ele>676</ele>
        <time>1970-01-01T01:07:05.000Z</time>
      </trkpt>
      <trkpt lat="45.88125" lon="3.02865">
        <ele>676.1</ele>
        <time>1970-01-01T01:07:06.000Z</time>
      </trkpt>
      <trkpt lat="45.88125" lon="3.02864">
        <ele>676.3</ele>
        <time>1970-01-01T01:07:07.000Z</time>
      </trkpt>
      <trkpt lat="45.88124" lon="3.02861">
        <ele>676.5</ele>
        <time>1970-01-01T01:07:08.000Z</time>
      </trkpt>
      <trkpt lat="45.88124" lon="3.02859">
        <ele>676.7</ele>
        <time>1970-01-01T01:07:09.000Z</time>
      </trkpt>
      <trkpt lat="45.88123" lon="3.02858">
        <ele>676.8</ele>
        <time>1970-01-01T01:07:10.000Z</time>
      </trkpt>
      <trkpt lat="45.88123" lon="3.02857">
        <ele>676.9</ele>
        <time>1970-01-01T01:07:11.000Z</time>
      </trkpt>
      <trkpt lat="45.88122" lon="3.02854">
        <ele>677.2</ele>
        <time>1970-01-01T01:07:12.000Z</time>
      </trkpt>
      <trkpt lat="45.88122" lon="3.02852">
        <ele>677.4</ele>
        <time>1970-01-01T01:07:13.000Z</time>
      </trkpt>
      <trkpt lat="45.88122" lon="3.0285">
        <ele>677.6</ele>
        <time>1970-01-01T01:07:14.000Z</time>
      </trkpt>
      <trkpt lat="45.88121" lon="3.02848">
        <ele>677.7</ele>
        <time>1970-01-01T01:07:15.000Z</time>
      </trkpt>
      <trkpt lat="45.88122" lon="3.02846">
        <ele>677.9</ele>
        <time>1970-01-01T01:07:16.000Z</time>
      </trkpt>
      <trkpt lat="45.88122" lon="3.02844">
        <ele>678.1</ele>
        <time>1970-01-01T01:07:17.000Z</time>
      </trkpt>
      <trkpt lat="45.88121" lon="3.02841">
        <ele>678.4</ele>
        <time>1970-01-01T01:07:18.000Z</time>
      </trkpt>
      <trkpt lat="45.88121" lon="3.02839">
        <ele>678.6</ele>
        <time>1970-01-01T01:07:20.000Z</time>
      </trkpt>
      <trkpt lat="45.8812" lon="3.02837">
        <ele>678.8</ele>
        <time>1970-01-01T01:07:21.000Z</time>
      </trkpt>
      <trkpt lat="45.8812" lon="3.02835">
        <ele>679</ele>
        <time>1970-01-01T01:07:22.000Z</time>
      </trkpt>
      <trkpt lat="45.8812" lon="3.02833">
        <ele>679.2</ele>
        <time>1970-01-01T01:07:23.000Z</time>
      </trkpt>
      <trkpt lat="45.88119" lon="3.02829">
        <ele>679.5</ele>
        <time>1970-01-01T01:07:24.000Z</time>
      </trkpt>
      <trkpt lat="45.88119" lon="3.02827">
        <ele>679.7</ele>
        <time>1970-01-01T01:07:25.000Z</time>
      </trkpt>
      <trkpt lat="45.88119" lon="3.02826">
        <ele>679.8</ele>
        <time>1970-01-01T01:07:26.000Z</time>
      </trkpt>
      <trkpt lat="45.88118" lon="3.02824">
        <ele>680</ele>
        <time>1970-01-01T01:07:27.000Z</time>
      </trkpt>
      <trkpt lat="45.88118" lon="3.02821">
        <ele>680.3</ele>
        <time>1970-01-01T01:07:29.000Z</time>
      </trkpt>
      <trkpt lat="45.88118" lon="3.02819">
        <ele>680.5</ele>
        <time>1970-01-01T01:07:30.000Z</time>
      </trkpt>
      <trkpt lat="45.88118" lon="3.02817">
        <ele>680.7</ele>
        <time>1970-01-01T01:07:31.000Z</time>
      </trkpt>
      <trkpt lat="45.88117" lon="3.02816">
        <ele>680.8</ele>
        <time>1970-01-01T01:07:32.000Z</time>
      </trkpt>
      <trkpt lat="45.88117" lon="3.02813">
        <ele>681.1</ele>
        <time>1970-01-01T01:07:33.000Z</time>
      </trkpt>
      <trkpt lat="45.88117" lon="3.02811">
        <ele>681.3</ele>
        <time>1970-01-01T01:07:34.000Z</time>
      </trkpt>
      <trkpt lat="45.88117" lon="3.02808">
        <ele>681.6</ele>
        <time>1970-01-01T01:07:36.000Z</time>
      </trkpt>
      <trkpt lat="45.88117" lon="3.02806">
        <ele>681.8</ele>
        <time>1970-01-01T01:07:37.000Z</time>
      </trkpt>
      <trkpt lat="45.88117" lon="3.02805">
        <ele>681.9</ele>
        <time>1970-01-01T01:07:38.000Z</time>
      </trkpt>
      <trkpt lat="45.88117" lon="3.02803">
        <ele>682</ele>
        <time>1970-01-01T01:07:39.000Z</time>
      </trkpt>
      <trkpt lat="45.88118" lon="3.02802">
        <ele>682.2</ele>
        <time>1970-01-01T01:07:40.000Z</time>
      </trkpt>
      <trkpt lat="45.88119" lon="3.02799">
        <ele>682.6</ele>
        <time>1970-01-01T01:07:41.000Z</time>
      </trkpt>
      <trkpt lat="45.88119" lon="3.02798">
        <ele>682.7</ele>
        <time>1970-01-01T01:07:42.000Z</time>
      </trkpt>
      <trkpt lat="45.8812" lon="3.02797">
        <ele>682.9</ele>
        <time>1970-01-01T01:07:43.000Z</time>
      </trkpt>
      <trkpt lat="45.8812" lon="3.02794">
        <ele>683.2</ele>
        <time>1970-01-01T01:07:45.000Z</time>
      </trkpt>
      <trkpt lat="45.88121" lon="3.02793">
        <ele>683.3</ele>
        <time>1970-01-01T01:07:46.000Z</time>
      </trkpt>
      <trkpt lat="45.88122" lon="3.02792">
        <ele>683.5</ele>
        <time>1970-01-01T01:07:47.000Z</time>
      </trkpt>
      <trkpt lat="45.88123" lon="3.02791">
        <ele>683.8</ele>
        <time>1970-01-01T01:07:48.000Z</time>
      </trkpt>
      <trkpt lat="45.88124" lon="3.0279">
        <ele>684</ele>
        <time>1970-01-01T01:07:49.000Z</time>
      </trkpt>
      <trkpt lat="45.88126" lon="3.02788">
        <ele>684.3</ele>
        <time>1970-01-01T01:07:50.000Z</time>
      </trkpt>
      <trkpt lat="45.88127" lon="3.02787">
        <ele>684.5</ele>
        <time>1970-01-01T01:07:52.000Z</time>
      </trkpt>
      <trkpt lat="45.88128" lon="3.02786">
        <ele>684.8</ele>
        <time>1970-01-01T01:07:53.000Z</time>
      </trkpt>
      <trkpt lat="45.8813" lon="3.02784">
        <ele>685.1</ele>
        <time>1970-01-01T01:07:54.000Z</time>
      </trkpt>
      <trkpt lat="45.8813" lon="3.02784">
        <ele>685.2</ele>
        <time>1970-01-01T01:07:55.000Z</time>
      </trkpt>
      <trkpt lat="45.88131" lon="3.02783">
        <ele>685.4</ele>
        <time>1970-01-01T01:07:56.000Z</time>
      </trkpt>
      <trkpt lat="45.88133" lon="3.02781">
        <ele>685.7</ele>
        <time>1970-01-01T01:07:57.000Z</time>
      </trkpt>
      <trkpt lat="45.88134" lon="3.02781">
        <ele>685.9</ele>
        <time>1970-01-01T01:07:58.000Z</time>
      </trkpt>
      <trkpt lat="45.88135" lon="3.02779">
        <ele>686.2</ele>
        <time>1970-01-01T01:08:00.000Z</time>
      </trkpt>
      <trkpt lat="45.88136" lon="3.02778">
        <ele>686.4</ele>
        <time>1970-01-01T01:08:01.000Z</time>
      </trkpt>
      <trkpt lat="45.88138" lon="3.02778">
        <ele>686.6</ele>
        <time>1970-01-01T01:08:02.000Z</time>
      </trkpt>
      <trkpt lat="45.88139" lon="3.02777">
        <ele>686.9</ele>
        <time>1970-01-01T01:08:03.000Z</time>
      </trkpt>
      <trkpt lat="45.88141" lon="3.02776">
        <ele>687.1</ele>
        <time>1970-01-01T01:08:04.000Z</time>
      </trkpt>
      <trkpt lat="45.88143" lon="3.02775">
        <ele>687.5</ele>
        <time>1970-01-01T01:08:06.000Z</time>
      </trkpt>
      <trkpt lat="45.88144" lon="3.02776">
        <ele>687.7</ele>
        <time>1970-01-01T01:08:07.000Z</time>
      </trkpt>
      <trkpt lat="45.88146" lon="3.02776">
        <ele>688</ele>
        <time>1970-01-01T01:08:08.000Z</time>
      </trkpt>
      <trkpt lat="45.88147" lon="3.02776">
        <ele>688.2</ele>
        <time>1970-01-01T01:08:09.000Z</time>
      </trkpt>
      <trkpt lat="45.88149" lon="3.02776">
        <ele>688.4</ele>
        <time>1970-01-01T01:08:10.000Z</time>
      </trkpt>
      <trkpt lat="45.8815" lon="3.02775">
        <ele>688.6</ele>
        <time>1970-01-01T01:08:12.000Z</time>
      </trkpt>
      <trkpt lat="45.88151" lon="3.02775">
        <ele>688.7</ele>
        <time>1970-01-01T01:08:13.000Z</time>
      </trkpt>
      <trkpt lat="45.88151" lon="3.02775">
        <ele>688.8</ele>
        <time>1970-01-01T01:08:14.000Z</time>
      </trkpt>
      <trkpt lat="45.88152" lon="3.02775">
        <ele>688.9</ele>
        <time>1970-01-01T01:08:16.000Z</time>
      </trkpt>
      <trkpt lat="45.88153" lon="3.02774">
        <ele>688.9</ele>
        <time>1970-01-01T01:08:17.000Z</time>
      </trkpt>
      <trkpt lat="45.88154" lon="3.02774">
        <ele>689.1</ele>
        <time>1970-01-01T01:08:19.000Z</time>
      </trkpt>
      <trkpt lat="45.88155" lon="3.02774">
        <ele>689.2</ele>
        <time>1970-01-01T01:08:20.000Z</time>
      </trkpt>
      <trkpt lat="45.88156" lon="3.02774">
        <ele>689.4</ele>
        <time>1970-01-01T01:08:21.000Z</time>
      </trkpt>
      <trkpt lat="45.88157" lon="3.02774">
        <ele>689.5</ele>
        <time>1970-01-01T01:08:22.000Z</time>
      </trkpt>
      <trkpt lat="45.88158" lon="3.02775">
        <ele>689.7</ele>
        <time>1970-01-01T01:08:24.000Z</time>
      </trkpt>
      <trkpt lat="45.88158" lon="3.02776">
        <ele>689.7</ele>
        <time>1970-01-01T01:08:25.000Z</time>
      </trkpt>
      <trkpt lat="45.88159" lon="3.02776">
        <ele>689.8</ele>
        <time>1970-01-01T01:08:26.000Z</time>
      </trkpt>
      <trkpt lat="45.88159" lon="3.02776">
        <ele>689.9</ele>
        <time>1970-01-01T01:08:27.000Z</time>
      </trkpt>
      <trkpt lat="45.8816" lon="3.02777">
        <ele>689.9</ele>
        <time>1970-01-01T01:08:28.000Z</time>
      </trkpt>
      <trkpt lat="45.8816" lon="3.02777">
        <ele>690</ele>
        <time>1970-01-01T01:08:29.000Z</time>
      </trkpt>
      <trkpt lat="45.88161" lon="3.02777">
        <ele>690.1</ele>
        <time>1970-01-01T01:08:30.000Z</time>
      </trkpt>
      <trkpt lat="45.88162" lon="3.02777">
        <ele>690.2</ele>
        <time>1970-01-01T01:08:31.000Z</time>
      </trkpt>
      <trkpt lat="45.88162" lon="3.02777">
        <ele>690.3</ele>
        <time>1970-01-01T01:08:32.000Z</time>
      </trkpt>
      <trkpt lat="45.88163" lon="3.02777">
        <ele>690.4</ele>
        <time>1970-01-01T01:08:33.000Z</time>
      </trkpt>
      <trkpt lat="45.88164" lon="3.02778">
        <ele>690.5</ele>
        <time>1970-01-01T01:08:34.000Z</time>
      </trkpt>
      <trkpt lat="45.88165" lon="3.02778">
        <ele>690.6</ele>
        <time>1970-01-01T01:08:35.000Z</time>
      </trkpt>
      <trkpt lat="45.88165" lon="3.02778">
        <ele>690.7</ele>
        <time>1970-01-01T01:08:36.000Z</time>
      </trkpt>
      <trkpt lat="45.88166" lon="3.02778">
        <ele>690.8</ele>
        <time>1970-01-01T01:08:37.000Z</time>
      </trkpt>
      <trkpt lat="45.88167" lon="3.02778">
        <ele>690.8</ele>
        <time>1970-01-01T01:08:38.000Z</time>
      </trkpt>
      <trkpt lat="45.88168" lon="3.02777">
        <ele>691</ele>
        <time>1970-01-01T01:08:40.000Z</time>
      </trkpt>
      <trkpt lat="45.88169" lon="3.02777">
        <ele>691.1</ele>
        <time>1970-01-01T01:08:41.000Z</time>
      </trkpt>
      <trkpt lat="45.8817" lon="3.02777">
        <ele>691.2</ele>
        <time>1970-01-01T01:08:42.000Z</time>
      </trkpt>
      <trkpt lat="45.88171" lon="3.02777">
        <ele>691.3</ele>
        <time>1970-01-01T01:08:44.000Z</time>
      </trkpt>
      <trkpt lat="45.88171" lon="3.02777">
        <ele>691.3</ele>
        <time>1970-01-01T01:08:46.000Z</time>
      </trkpt>
      <trkpt lat="45.88172" lon="3.02776">
        <ele>691.4</ele>
        <time>1970-01-01T01:08:47.000Z</time>
      </trkpt>
      <trkpt lat="45.88172" lon="3.02776">
        <ele>691.5</ele>
        <time>1970-01-01T01:08:48.000Z</time>
      </trkpt>
      <trkpt lat="45.88173" lon="3.02776">
        <ele>691.5</ele>
        <time>1970-01-01T01:08:49.000Z</time>
      </trkpt>
      <trkpt lat="45.88174" lon="3.02776">
        <ele>691.6</ele>
        <time>1970-01-01T01:08:50.000Z</time>
      </trkpt>
      <trkpt lat="45.88174" lon="3.02776">
        <ele>691.7</ele>
        <time>1970-01-01T01:08:51.000Z</time>
      </trkpt>
      <trkpt lat="45.88175" lon="3.02776">
        <ele>691.7</ele>
        <time>1970-01-01T01:08:52.000Z</time>
      </trkpt>
      <trkpt lat="45.88175" lon="3.02775">
        <ele>691.8</ele>
        <time>1970-01-01T01:08:53.000Z</time>
      </trkpt>
      <trkpt lat="45.88176" lon="3.02775">
        <ele>691.9</ele>
        <time>1970-01-01T01:08:54.000Z</time>
      </trkpt>
      <trkpt lat="45.88177" lon="3.02775">
        <ele>691.9</ele>
        <time>1970-01-01T01:08:55.000Z</time>
      </trkpt>
      <trkpt lat="45.88177" lon="3.02775">
        <ele>692</ele>
        <time>1970-01-01T01:08:56.000Z</time>
      </trkpt>
      <trkpt lat="45.88178" lon="3.02775">
        <ele>692.1</ele>
        <time>1970-01-01T01:08:57.000Z</time>
      </trkpt>
      <trkpt lat="45.88178" lon="3.02775">
        <ele>692.2</ele>
        <time>1970-01-01T01:08:58.000Z</time>
      </trkpt>
      <trkpt lat="45.88179" lon="3.02774">
        <ele>692.2</ele>
        <time>1970-01-01T01:09:12.000Z</time>
      </trkpt>
      <trkpt lat="45.8818" lon="3.02774">
        <ele>692.3</ele>
        <time>1970-01-01T01:09:13.000Z</time>
      </trkpt>
      <trkpt lat="45.8818" lon="3.02774">
        <ele>692.3</ele>
        <time>1970-01-01T01:09:14.000Z</time>
      </trkpt>
      <trkpt lat="45.88182" lon="3.02773">
        <ele>692.5</ele>
        <time>1970-01-01T01:09:16.000Z</time>
      </trkpt>
      <trkpt lat="45.88183" lon="3.02772">
        <ele>692.7</ele>
        <time>1970-01-01T01:09:17.000Z</time>
      </trkpt>
      <trkpt lat="45.88183" lon="3.02771">
        <ele>692.8</ele>
        <time>1970-01-01T01:09:18.000Z</time>
      </trkpt>
      <trkpt lat="45.88184" lon="3.02771">
        <ele>692.8</ele>
        <time>1970-01-01T01:09:19.000Z</time>
      </trkpt>
      <trkpt lat="45.88184" lon="3.02771">
        <ele>692.9</ele>
        <time>1970-01-01T01:09:20.000Z</time>
      </trkpt>
      <trkpt lat="45.88185" lon="3.02771">
        <ele>692.9</ele>
        <time>1970-01-01T01:09:21.000Z</time>
      </trkpt>
      <trkpt lat="45.88185" lon="3.02771">
        <ele>693</ele>
        <time>1970-01-01T01:09:22.000Z</time>
      </trkpt>
      <trkpt lat="45.88186" lon="3.02771">
        <ele>693.1</ele>
        <time>1970-01-01T01:09:24.000Z</time>
      </trkpt>
      <trkpt lat="45.88186" lon="3.02771">
        <ele>693.1</ele>
        <time>1970-01-01T01:09:25.000Z</time>
      </trkpt>
      <trkpt lat="45.88186" lon="3.02771">
        <ele>693.1</ele>
        <time>1970-01-01T01:09:26.000Z</time>
      </trkpt>
      <trkpt lat="45.88186" lon="3.02771">
        <ele>693.1</ele>
        <time>1970-01-01T01:09:27.000Z</time>
      </trkpt>
      <trkpt lat="45.88186" lon="3.02771">
        <ele>693.1</ele>
        <time>1970-01-01T01:09:28.000Z</time>
      </trkpt>
      <trkpt lat="45.88186" lon="3.02771">
        <ele>693.2</ele>
        <time>1970-01-01T01:09:29.000Z</time>
      </trkpt>
      <trkpt lat="45.88186" lon="3.02771">
        <ele>693.2</ele>
        <time>1970-01-01T01:09:30.000Z</time>
      </trkpt>
      <trkpt lat="45.88186" lon="3.02771">
        <ele>693.2</ele>
        <time>1970-01-01T01:09:32.000Z</time>
      </trkpt>
      <trkpt lat="45.88186" lon="3.02771">
        <ele>693.2</ele>
        <time>1970-01-01T01:09:33.000Z</time>
      </trkpt>
      <trkpt lat="45.88187" lon="3.0277">
        <ele>693.3</ele>
        <time>1970-01-01T01:09:34.000Z</time>
      </trkpt>
      <trkpt lat="45.88187" lon="3.0277">
        <ele>693.3</ele>
        <time>1970-01-01T01:09:35.000Z</time>
      </trkpt>
      <trkpt lat="45.88188" lon="3.0277">
        <ele>693.4</ele>
        <time>1970-01-01T01:09:36.000Z</time>
      </trkpt>
      <trkpt lat="45.88188" lon="3.0277">
        <ele>693.5</ele>
        <time>1970-01-01T01:09:37.000Z</time>
      </trkpt>
      <trkpt lat="45.8819" lon="3.02769">
        <ele>693.7</ele>
        <time>1970-01-01T01:09:38.000Z</time>
      </trkpt>
      <trkpt lat="45.88191" lon="3.02769">
        <ele>693.8</ele>
        <time>1970-01-01T01:09:39.000Z</time>
      </trkpt>
      <trkpt lat="45.88192" lon="3.02768">
        <ele>693.9</ele>
        <time>1970-01-01T01:09:40.000Z</time>
      </trkpt>
      <trkpt lat="45.88194" lon="3.02767">
        <ele>694.1</ele>
        <time>1970-01-01T01:09:41.000Z</time>
      </trkpt>
      <trkpt lat="45.88195" lon="3.02767">
        <ele>694.3</ele>
        <time>1970-01-01T01:09:43.000Z</time>
      </trkpt>
      <trkpt lat="45.88196" lon="3.02767">
        <ele>694.4</ele>
        <time>1970-01-01T01:09:44.000Z</time>
      </trkpt>
      <trkpt lat="45.88198" lon="3.02767">
        <ele>694.6</ele>
        <time>1970-01-01T01:09:45.000Z</time>
      </trkpt>
      <trkpt lat="45.88199" lon="3.02767">
        <ele>694.7</ele>
        <time>1970-01-01T01:09:47.000Z</time>
      </trkpt>
      <trkpt lat="45.882" lon="3.02766">
        <ele>694.8</ele>
        <time>1970-01-01T01:09:48.000Z</time>
      </trkpt>
      <trkpt lat="45.88201" lon="3.02766">
        <ele>695</ele>
        <time>1970-01-01T01:09:49.000Z</time>
      </trkpt>
      <trkpt lat="45.88202" lon="3.02766">
        <ele>695.1</ele>
        <time>1970-01-01T01:09:50.000Z</time>
      </trkpt>
      <trkpt lat="45.88203" lon="3.02766">
        <ele>695.3</ele>
        <time>1970-01-01T01:09:51.000Z</time>
      </trkpt>
      <trkpt lat="45.88204" lon="3.02765">
        <ele>695.4</ele>
        <time>1970-01-01T01:09:52.000Z</time>
      </trkpt>
      <trkpt lat="45.88205" lon="3.02765">
        <ele>695.6</ele>
        <time>1970-01-01T01:09:53.000Z</time>
      </trkpt>
      <trkpt lat="45.88207" lon="3.02764">
        <ele>695.7</ele>
        <time>1970-01-01T01:09:54.000Z</time>
      </trkpt>
      <trkpt lat="45.88208" lon="3.02764">
        <ele>695.9</ele>
        <time>1970-01-01T01:09:55.000Z</time>
      </trkpt>
      <trkpt lat="45.88209" lon="3.02764">
        <ele>696</ele>
        <time>1970-01-01T01:09:56.000Z</time>
      </trkpt>
      <trkpt lat="45.88209" lon="3.02764">
        <ele>696.1</ele>
        <time>1970-01-01T01:09:57.000Z</time>
      </trkpt>
      <trkpt lat="45.88211" lon="3.02763">
        <ele>696.4</ele>
        <time>1970-01-01T01:09:59.000Z</time>
      </trkpt>
      <trkpt lat="45.88212" lon="3.02763">
        <ele>696.5</ele>
        <time>1970-01-01T01:10:00.000Z</time>
      </trkpt>
      <trkpt lat="45.88214" lon="3.02763">
        <ele>696.8</ele>
        <time>1970-01-01T01:10:01.000Z</time>
      </trkpt>
      <trkpt lat="45.88215" lon="3.02763">
        <ele>696.9</ele>
        <time>1970-01-01T01:10:02.000Z</time>
      </trkpt>
      <trkpt lat="45.88217" lon="3.02762">
        <ele>697.3</ele>
        <time>1970-01-01T01:10:04.000Z</time>
      </trkpt>
      <trkpt lat="45.88219" lon="3.02762">
        <ele>697.5</ele>
        <time>1970-01-01T01:10:05.000Z</time>
      </trkpt>
      <trkpt lat="45.8822" lon="3.02762">
        <ele>697.6</ele>
        <time>1970-01-01T01:10:06.000Z</time>
      </trkpt>
      <trkpt lat="45.88221" lon="3.02762">
        <ele>697.8</ele>
        <time>1970-01-01T01:10:08.000Z</time>
      </trkpt>
      <trkpt lat="45.88223" lon="3.02762">
        <ele>698.1</ele>
        <time>1970-01-01T01:10:10.000Z</time>
      </trkpt>
      <trkpt lat="45.88224" lon="3.02761">
        <ele>698.3</ele>
        <time>1970-01-01T01:10:11.000Z</time>
      </trkpt>
      <trkpt lat="45.88225" lon="3.02761">
        <ele>698.4</ele>
        <time>1970-01-01T01:10:12.000Z</time>
      </trkpt>
      <trkpt lat="45.88226" lon="3.02761">
        <ele>698.5</ele>
        <time>1970-01-01T01:10:13.000Z</time>
      </trkpt>
      <trkpt lat="45.88226" lon="3.02761">
        <ele>698.7</ele>
        <time>1970-01-01T01:10:14.000Z</time>
      </trkpt>
      <trkpt lat="45.88227" lon="3.02761">
        <ele>698.8</ele>
        <time>1970-01-01T01:10:15.000Z</time>
      </trkpt>
      <trkpt lat="45.88228" lon="3.02761">
        <ele>698.9</ele>
        <time>1970-01-01T01:10:16.000Z</time>
      </trkpt>
      <trkpt lat="45.8823" lon="3.02761">
        <ele>699.2</ele>
        <time>1970-01-01T01:10:18.000Z</time>
      </trkpt>
      <trkpt lat="45.88231" lon="3.02761">
        <ele>699.4</ele>
        <time>1970-01-01T01:10:19.000Z</time>
      </trkpt>
      <trkpt lat="45.88232" lon="3.02761">
        <ele>699.5</ele>
        <time>1970-01-01T01:10:20.000Z</time>
      </trkpt>
      <trkpt lat="45.88233" lon="3.02761">
        <ele>699.7</ele>
        <time>1970-01-01T01:10:21.000Z</time>
      </trkpt>
      <trkpt lat="45.88234" lon="3.02761">
        <ele>699.8</ele>
        <time>1970-01-01T01:10:22.000Z</time>
      </trkpt>
      <trkpt lat="45.88235" lon="3.02762">
        <ele>700</ele>
        <time>1970-01-01T01:10:23.000Z</time>
      </trkpt>
      <trkpt lat="45.88237" lon="3.02763">
        <ele>700.4</ele>
        <time>1970-01-01T01:10:25.000Z</time>
      </trkpt>
      <trkpt lat="45.88238" lon="3.02764">
        <ele>700.6</ele>
        <time>1970-01-01T01:10:27.000Z</time>
      </trkpt>
      <trkpt lat="45.8824" lon="3.02764">
        <ele>700.9</ele>
        <time>1970-01-01T01:10:29.000Z</time>
      </trkpt>
      <trkpt lat="45.88241" lon="3.02764">
        <ele>701.1</ele>
        <time>1970-01-01T01:10:30.000Z</time>
      </trkpt>
      <trkpt lat="45.88242" lon="3.02764">
        <ele>701.2</ele>
        <time>1970-01-01T01:10:31.000Z</time>
      </trkpt>
      <trkpt lat="45.88243" lon="3.02764">
        <ele>701.4</ele>
        <time>1970-01-01T01:10:33.000Z</time>
      </trkpt>
      <trkpt lat="45.88245" lon="3.02764">
        <ele>701.6</ele>
        <time>1970-01-01T01:10:34.000Z</time>
      </trkpt>
      <trkpt lat="45.88246" lon="3.02764">
        <ele>701.7</ele>
        <time>1970-01-01T01:10:35.000Z</time>
      </trkpt>
      <trkpt lat="45.88247" lon="3.02765">
        <ele>701.9</ele>
        <time>1970-01-01T01:10:37.000Z</time>
      </trkpt>
      <trkpt lat="45.88247" lon="3.02765">
        <ele>702</ele>
        <time>1970-01-01T01:10:38.000Z</time>
      </trkpt>
      <trkpt lat="45.88248" lon="3.02765">
        <ele>702</ele>
        <time>1970-01-01T01:10:39.000Z</time>
      </trkpt>
      <trkpt lat="45.88248" lon="3.02765">
        <ele>702.1</ele>
        <time>1970-01-01T01:10:40.000Z</time>
      </trkpt>
      <trkpt lat="45.88249" lon="3.02764">
        <ele>702.2</ele>
        <time>1970-01-01T01:10:41.000Z</time>
      </trkpt>
      <trkpt lat="45.8825" lon="3.02764">
        <ele>702.4</ele>
        <time>1970-01-01T01:10:42.000Z</time>
      </trkpt>
      <trkpt lat="45.88252" lon="3.02761">
        <ele>702.7</ele>
        <time>1970-01-01T01:10:43.000Z</time>
      </trkpt>
      <trkpt lat="45.88253" lon="3.0276">
        <ele>702.9</ele>
        <time>1970-01-01T01:10:44.000Z</time>
      </trkpt>
      <trkpt lat="45.88255" lon="3.0276">
        <ele>703.1</ele>
        <time>1970-01-01T01:10:45.000Z</time>
      </trkpt>
      <trkpt lat="45.88257" lon="3.0276">
        <ele>703.4</ele>
        <time>1970-01-01T01:10:47.000Z</time>
      </trkpt>
      <trkpt lat="45.88258" lon="3.0276">
        <ele>703.6</ele>
        <time>1970-01-01T01:10:48.000Z</time>
      </trkpt>
      <trkpt lat="45.8826" lon="3.0276">
        <ele>703.8</ele>
        <time>1970-01-01T01:10:49.000Z</time>
      </trkpt>
      <trkpt lat="45.8826" lon="3.0276">
        <ele>703.8</ele>
        <time>1970-01-01T01:10:50.000Z</time>
      </trkpt>
      <trkpt lat="45.8826" lon="3.0276">
        <ele>703.9</ele>
        <time>1970-01-01T01:10:51.000Z</time>
      </trkpt>
      <trkpt lat="45.8826" lon="3.0276">
        <ele>703.9</ele>
        <time>1970-01-01T01:10:52.000Z</time>
      </trkpt>
      <trkpt lat="45.8826" lon="3.0276">
        <ele>703.9</ele>
        <time>1970-01-01T01:10:53.000Z</time>
      </trkpt>
      <trkpt lat="45.88259" lon="3.0276">
        <ele>704</ele>
        <time>1970-01-01T01:10:55.000Z</time>
      </trkpt>
      <trkpt lat="45.88259" lon="3.0276">
        <ele>704</ele>
        <time>1970-01-01T01:10:56.000Z</time>
      </trkpt>
      <trkpt lat="45.88259" lon="3.0276">
        <ele>704</ele>
        <time>1970-01-01T01:10:57.000Z</time>
      </trkpt>
      <trkpt lat="45.8826" lon="3.0276">
        <ele>704</ele>
        <time>1970-01-01T01:10:58.000Z</time>
      </trkpt>
      <trkpt lat="45.8826" lon="3.02759">
        <ele>704.1</ele>
        <time>1970-01-01T01:11:00.000Z</time>
      </trkpt>
      <trkpt lat="45.88261" lon="3.02759">
        <ele>704.2</ele>
        <time>1970-01-01T01:11:01.000Z</time>
      </trkpt>
      <trkpt lat="45.88262" lon="3.02759">
        <ele>704.3</ele>
        <time>1970-01-01T01:11:02.000Z</time>
      </trkpt>
      <trkpt lat="45.88263" lon="3.02759">
        <ele>704.4</ele>
        <time>1970-01-01T01:11:03.000Z</time>
      </trkpt>
      <trkpt lat="45.88265" lon="3.02759">
        <ele>704.7</ele>
        <time>1970-01-01T01:11:04.000Z</time>
      </trkpt>
      <trkpt lat="45.88267" lon="3.02759">
        <ele>704.9</ele>
        <time>1970-01-01T01:11:06.000Z</time>
      </trkpt>
      <trkpt lat="45.88269" lon="3.02759">
        <ele>705.2</ele>
        <time>1970-01-01T01:11:07.000Z</time>
      </trkpt>
      <trkpt lat="45.8827" lon="3.02759">
        <ele>705.4</ele>
        <time>1970-01-01T01:11:08.000Z</time>
      </trkpt>
      <trkpt lat="45.88271" lon="3.02759">
        <ele>705.5</ele>
        <time>1970-01-01T01:11:09.000Z</time>
      </trkpt>
      <trkpt lat="45.88273" lon="3.02758">
        <ele>705.8</ele>
        <time>1970-01-01T01:11:11.000Z</time>
      </trkpt>
      <trkpt lat="45.88274" lon="3.02758">
        <ele>705.9</ele>
        <time>1970-01-01T01:11:12.000Z</time>
      </trkpt>
      <trkpt lat="45.88275" lon="3.02758">
        <ele>706</ele>
        <time>1970-01-01T01:11:13.000Z</time>
      </trkpt>
      <trkpt lat="45.88276" lon="3.02758">
        <ele>706.2</ele>
        <time>1970-01-01T01:11:14.000Z</time>
      </trkpt>
      <trkpt lat="45.88277" lon="3.02758">
        <ele>706.4</ele>
        <time>1970-01-01T01:11:15.000Z</time>
      </trkpt>
      <trkpt lat="45.88279" lon="3.02758">
        <ele>706.5</ele>
        <time>1970-01-01T01:11:16.000Z</time>
      </trkpt>
      <trkpt lat="45.8828" lon="3.02758">
        <ele>706.8</ele>
        <time>1970-01-01T01:11:17.000Z</time>
      </trkpt>
      <trkpt lat="45.88281" lon="3.02757">
        <ele>707</ele>
        <time>1970-01-01T01:11:19.000Z</time>
      </trkpt>
      <trkpt lat="45.88282" lon="3.02756">
        <ele>707.1</ele>
        <time>1970-01-01T01:11:20.000Z</time>
      </trkpt>
      <trkpt lat="45.88283" lon="3.02756">
        <ele>707.2</ele>
        <time>1970-01-01T01:11:21.000Z</time>
      </trkpt>
      <trkpt lat="45.88283" lon="3.02756">
        <ele>707.3</ele>
        <time>1970-01-01T01:11:23.000Z</time>
      </trkpt>
      <trkpt lat="45.88284" lon="3.02756">
        <ele>707.5</ele>
        <time>1970-01-01T01:11:24.000Z</time>
      </trkpt>
      <trkpt lat="45.88285" lon="3.02755">
        <ele>707.5</ele>
        <time>1970-01-01T01:11:25.000Z</time>
      </trkpt>
      <trkpt lat="45.88286" lon="3.02755">
        <ele>707.7</ele>
        <time>1970-01-01T01:11:26.000Z</time>
      </trkpt>
      <trkpt lat="45.88287" lon="3.02754">
        <ele>707.9</ele>
        <time>1970-01-01T01:11:27.000Z</time>
      </trkpt>
      <trkpt lat="45.88288" lon="3.02754">
        <ele>708</ele>
        <time>1970-01-01T01:11:28.000Z</time>
      </trkpt>
      <trkpt lat="45.8829" lon="3.02753">
        <ele>708.4</ele>
        <time>1970-01-01T01:11:29.000Z</time>
      </trkpt>
      <trkpt lat="45.88291" lon="3.02753">
        <ele>708.6</ele>
        <time>1970-01-01T01:11:31.000Z</time>
      </trkpt>
      <trkpt lat="45.88292" lon="3.02752">
        <ele>708.7</ele>
        <time>1970-01-01T01:11:32.000Z</time>
      </trkpt>
      <trkpt lat="45.88293" lon="3.02752">
        <ele>708.9</ele>
        <time>1970-01-01T01:11:33.000Z</time>
      </trkpt>
      <trkpt lat="45.88294" lon="3.02751">
        <ele>709.1</ele>
        <time>1970-01-01T01:11:34.000Z</time>
      </trkpt>
      <trkpt lat="45.88295" lon="3.02751">
        <ele>709.2</ele>
        <time>1970-01-01T01:11:35.000Z</time>
      </trkpt>
      <trkpt lat="45.88296" lon="3.0275">
        <ele>709.4</ele>
        <time>1970-01-01T01:11:37.000Z</time>
      </trkpt>
      <trkpt lat="45.88297" lon="3.0275">
        <ele>709.6</ele>
        <time>1970-01-01T01:11:38.000Z</time>
      </trkpt>
      <trkpt lat="45.88299" lon="3.02749">
        <ele>709.9</ele>
        <time>1970-01-01T01:11:39.000Z</time>
      </trkpt>
      <trkpt lat="45.883" lon="3.02748">
        <ele>710.1</ele>
        <time>1970-01-01T01:11:40.000Z</time>
      </trkpt>
      <trkpt lat="45.88301" lon="3.02747">
        <ele>710.3</ele>
        <time>1970-01-01T01:11:42.000Z</time>
      </trkpt>
      <trkpt lat="45.88302" lon="3.02746">
        <ele>710.5</ele>
        <time>1970-01-01T01:11:44.000Z</time>
      </trkpt>
      <trkpt lat="45.88303" lon="3.02745">
        <ele>710.7</ele>
        <time>1970-01-01T01:11:45.000Z</time>
      </trkpt>
      <trkpt lat="45.88304" lon="3.02743">
        <ele>710.9</ele>
        <time>1970-01-01T01:11:46.000Z</time>
      </trkpt>
      <trkpt lat="45.88305" lon="3.02742">
        <ele>711</ele>
        <time>1970-01-01T01:11:47.000Z</time>
      </trkpt>
      <trkpt lat="45.88305" lon="3.02741">
        <ele>711.1</ele>
        <time>1970-01-01T01:11:48.000Z</time>
      </trkpt>
      <trkpt lat="45.88306" lon="3.0274">
        <ele>711.3</ele>
        <time>1970-01-01T01:11:50.000Z</time>
      </trkpt>
      <trkpt lat="45.88306" lon="3.02739">
        <ele>711.4</ele>
        <time>1970-01-01T01:11:51.000Z</time>
      </trkpt>
      <trkpt lat="45.88307" lon="3.02739">
        <ele>711.5</ele>
        <time>1970-01-01T01:11:52.000Z</time>
      </trkpt>
      <trkpt lat="45.88307" lon="3.02739">
        <ele>711.5</ele>
        <time>1970-01-01T01:11:53.000Z</time>
      </trkpt>
      <trkpt lat="45.88306" lon="3.0274">
        <ele>711.6</ele>
        <time>1970-01-01T01:11:54.000Z</time>
      </trkpt>
      <trkpt lat="45.88307" lon="3.02739">
        <ele>711.6</ele>
        <time>1970-01-01T01:11:55.000Z</time>
      </trkpt>
      <trkpt lat="45.88307" lon="3.02738">
        <ele>711.8</ele>
        <time>1970-01-01T01:11:57.000Z</time>
      </trkpt>
      <trkpt lat="45.88308" lon="3.02738">
        <ele>711.8</ele>
        <time>1970-01-01T01:11:58.000Z</time>
      </trkpt>
      <trkpt lat="45.88308" lon="3.02737">
        <ele>712</ele>
        <time>1970-01-01T01:11:59.000Z</time>
      </trkpt>
      <trkpt lat="45.88308" lon="3.02736">
        <ele>712.1</ele>
        <time>1970-01-01T01:12:00.000Z</time>
      </trkpt>
      <trkpt lat="45.88309" lon="3.02734">
        <ele>712.3</ele>
        <time>1970-01-01T01:12:01.000Z</time>
      </trkpt>
      <trkpt lat="45.88309" lon="3.02732">
        <ele>712.5</ele>
        <time>1970-01-01T01:12:02.000Z</time>
      </trkpt>
      <trkpt lat="45.8831" lon="3.02729">
        <ele>712.7</ele>
        <time>1970-01-01T01:12:04.000Z</time>
      </trkpt>
      <trkpt lat="45.8831" lon="3.02727">
        <ele>713</ele>
        <time>1970-01-01T01:12:05.000Z</time>
      </trkpt>
      <trkpt lat="45.8831" lon="3.02726">
        <ele>713.1</ele>
        <time>1970-01-01T01:12:06.000Z</time>
      </trkpt>
      <trkpt lat="45.8831" lon="3.02724">
        <ele>713.3</ele>
        <time>1970-01-01T01:12:07.000Z</time>
      </trkpt>
      <trkpt lat="45.8831" lon="3.02722">
        <ele>713.5</ele>
        <time>1970-01-01T01:12:08.000Z</time>
      </trkpt>
      <trkpt lat="45.8831" lon="3.02721">
        <ele>713.6</ele>
        <time>1970-01-01T01:12:09.000Z</time>
      </trkpt>
      <trkpt lat="45.88309" lon="3.02719">
        <ele>713.8</ele>
        <time>1970-01-01T01:12:10.000Z</time>
      </trkpt>
      <trkpt lat="45.88309" lon="3.02718">
        <ele>713.9</ele>
        <time>1970-01-01T01:12:11.000Z</time>
      </trkpt>
      <trkpt lat="45.88308" lon="3.02716">
        <ele>714.1</ele>
        <time>1970-01-01T01:12:12.000Z</time>
      </trkpt>
      <trkpt lat="45.88307" lon="3.02715">
        <ele>714.2</ele>
        <time>1970-01-01T01:12:13.000Z</time>
      </trkpt>
      <trkpt lat="45.88307" lon="3.02714">
        <ele>714.4</ele>
        <time>1970-01-01T01:12:14.000Z</time>
      </trkpt>
      <trkpt lat="45.88306" lon="3.02712">
        <ele>714.6</ele>
        <time>1970-01-01T01:12:15.000Z</time>
      </trkpt>
      <trkpt lat="45.88305" lon="3.0271">
        <ele>714.8</ele>
        <time>1970-01-01T01:12:16.000Z</time>
      </trkpt>
      <trkpt lat="45.88304" lon="3.02709">
        <ele>715</ele>
        <time>1970-01-01T01:12:18.000Z</time>
      </trkpt>
      <trkpt lat="45.88304" lon="3.02708">
        <ele>715.1</ele>
        <time>1970-01-01T01:12:19.000Z</time>
      </trkpt>
      <trkpt lat="45.88303" lon="3.02707">
        <ele>715.2</ele>
        <time>1970-01-01T01:12:20.000Z</time>
      </trkpt>
      <trkpt lat="45.88303" lon="3.02707">
        <ele>715.2</ele>
        <time>1970-01-01T01:12:22.000Z</time>
      </trkpt>
      <trkpt lat="45.88303" lon="3.02707">
        <ele>715.3</ele>
        <time>1970-01-01T01:12:23.000Z</time>
      </trkpt>
      <trkpt lat="45.88304" lon="3.02707">
        <ele>715.3</ele>
        <time>1970-01-01T01:12:24.000Z</time>
      </trkpt>
      <trkpt lat="45.88304" lon="3.02707">
        <ele>715.4</ele>
        <time>1970-01-01T01:12:25.000Z</time>
      </trkpt>
      <trkpt lat="45.88304" lon="3.02707">
        <ele>715.4</ele>
        <time>1970-01-01T01:12:26.000Z</time>
      </trkpt>
      <trkpt lat="45.88304" lon="3.02707">
        <ele>715.4</ele>
        <time>1970-01-01T01:12:27.000Z</time>
      </trkpt>
      <trkpt lat="45.88304" lon="3.02707">
        <ele>715.4</ele>
        <time>1970-01-01T01:12:28.000Z</time>
      </trkpt>
      <trkpt lat="45.88304" lon="3.02706">
        <ele>715.4</ele>
        <time>1970-01-01T01:12:29.000Z</time>
      </trkpt>
      <trkpt lat="45.88304" lon="3.02706">
        <ele>715.5</ele>
        <time>1970-01-01T01:12:30.000Z</time>
      </trkpt>
      <trkpt lat="45.88302" lon="3.02704">
        <ele>715.8</ele>
        <time>1970-01-01T01:12:33.000Z</time>
      </trkpt>
      <trkpt lat="45.88302" lon="3.02703">
        <ele>715.9</ele>
        <time>1970-01-01T01:12:34.000Z</time>
      </trkpt>
      <trkpt lat="45.88301" lon="3.02702">
        <ele>716</ele>
        <time>1970-01-01T01:12:35.000Z</time>
      </trkpt>
      <trkpt lat="45.88301" lon="3.02702">
        <ele>716</ele>
        <time>1970-01-01T01:12:36.000Z</time>
      </trkpt>
      <trkpt lat="45.88301" lon="3.02702">
        <ele>716</ele>
        <time>1970-01-01T01:12:37.000Z</time>
      </trkpt>
      <trkpt lat="45.88301" lon="3.02702">
        <ele>716</ele>
        <time>1970-01-01T01:12:38.000Z</time>
      </trkpt>
      <trkpt lat="45.88301" lon="3.02702">
        <ele>716</ele>
        <time>1970-01-01T01:12:39.000Z</time>
      </trkpt>
      <trkpt lat="45.88301" lon="3.02702">
        <ele>716.1</ele>
        <time>1970-01-01T01:12:40.000Z</time>
      </trkpt>
      <trkpt lat="45.883" lon="3.02701">
        <ele>716.2</ele>
        <time>1970-01-01T01:12:41.000Z</time>
      </trkpt>
      <trkpt lat="45.88299" lon="3.02699">
        <ele>716.4</ele>
        <time>1970-01-01T01:12:42.000Z</time>
      </trkpt>
      <trkpt lat="45.88297" lon="3.02697">
        <ele>716.7</ele>
        <time>1970-01-01T01:12:43.000Z</time>
      </trkpt>
      <trkpt lat="45.88295" lon="3.02695">
        <ele>717.3</ele>
        <time>1970-01-01T01:12:45.000Z</time>
      </trkpt>
      <trkpt lat="45.88294" lon="3.02695">
        <ele>717.4</ele>
        <time>1970-01-01T01:12:46.000Z</time>
      </trkpt>
      <trkpt lat="45.88292" lon="3.02693">
        <ele>717.7</ele>
        <time>1970-01-01T01:12:47.000Z</time>
      </trkpt>
      <trkpt lat="45.88291" lon="3.02692">
        <ele>717.9</ele>
        <time>1970-01-01T01:12:48.000Z</time>
      </trkpt>
      <trkpt lat="45.88288" lon="3.0269">
        <ele>718.3</ele>
        <time>1970-01-01T01:12:50.000Z</time>
      </trkpt>
      <trkpt lat="45.88287" lon="3.0269">
        <ele>718.4</ele>
        <time>1970-01-01T01:12:51.000Z</time>
      </trkpt>
      <trkpt lat="45.88287" lon="3.02688">
        <ele>718.5</ele>
        <time>1970-01-01T01:12:52.000Z</time>
      </trkpt>
      <trkpt lat="45.88286" lon="3.02687">
        <ele>718.7</ele>
        <time>1970-01-01T01:12:53.000Z</time>
      </trkpt>
      <trkpt lat="45.88285" lon="3.02685">
        <ele>718.9</ele>
        <time>1970-01-01T01:12:54.000Z</time>
      </trkpt>
      <trkpt lat="45.88284" lon="3.02683">
        <ele>719.1</ele>
        <time>1970-01-01T01:12:55.000Z</time>
      </trkpt>
      <trkpt lat="45.88282" lon="3.0268">
        <ele>719.4</ele>
        <time>1970-01-01T01:12:56.000Z</time>
      </trkpt>
      <trkpt lat="45.88281" lon="3.02678">
        <ele>719.7</ele>
        <time>1970-01-01T01:12:58.000Z</time>
      </trkpt>
      <trkpt lat="45.8828" lon="3.02677">
        <ele>719.8</ele>
        <time>1970-01-01T01:12:59.000Z</time>
      </trkpt>
      <trkpt lat="45.88279" lon="3.02675">
        <ele>720</ele>
        <time>1970-01-01T01:13:00.000Z</time>
      </trkpt>
      <trkpt lat="45.88278" lon="3.02673">
        <ele>720.2</ele>
        <time>1970-01-01T01:13:01.000Z</time>
      </trkpt>
      <trkpt lat="45.88276" lon="3.02671">
        <ele>720.5</ele>
        <time>1970-01-01T01:13:02.000Z</time>
      </trkpt>
      <trkpt lat="45.88276" lon="3.0267">
        <ele>720.6</ele>
        <time>1970-01-01T01:13:03.000Z</time>
      </trkpt>
      <trkpt lat="45.88275" lon="3.0267">
        <ele>720.7</ele>
        <time>1970-01-01T01:13:04.000Z</time>
      </trkpt>
      <trkpt lat="45.88273" lon="3.02666">
        <ele>721.2</ele>
        <time>1970-01-01T01:13:05.000Z</time>
      </trkpt>
      <trkpt lat="45.88272" lon="3.02665">
        <ele>721.3</ele>
        <time>1970-01-01T01:13:06.000Z</time>
      </trkpt>
      <trkpt lat="45.88271" lon="3.02664">
        <ele>721.5</ele>
        <time>1970-01-01T01:13:08.000Z</time>
      </trkpt>
      <trkpt lat="45.8827" lon="3.02662">
        <ele>721.7</ele>
        <time>1970-01-01T01:13:09.000Z</time>
      </trkpt>
      <trkpt lat="45.88268" lon="3.02661">
        <ele>722</ele>
        <time>1970-01-01T01:13:10.000Z</time>
      </trkpt>
      <trkpt lat="45.88267" lon="3.02659">
        <ele>722.2</ele>
        <time>1970-01-01T01:13:11.000Z</time>
      </trkpt>
      <trkpt lat="45.88266" lon="3.02657">
        <ele>722.4</ele>
        <time>1970-01-01T01:13:12.000Z</time>
      </trkpt>
      <trkpt lat="45.88265" lon="3.02656">
        <ele>722.6</ele>
        <time>1970-01-01T01:13:14.000Z</time>
      </trkpt>
      <trkpt lat="45.88264" lon="3.02653">
        <ele>722.9</ele>
        <time>1970-01-01T01:13:15.000Z</time>
      </trkpt>
      <trkpt lat="45.88263" lon="3.02652">
        <ele>723.1</ele>
        <time>1970-01-01T01:13:16.000Z</time>
      </trkpt>
      <trkpt lat="45.88263" lon="3.0265">
        <ele>723.2</ele>
        <time>1970-01-01T01:13:18.000Z</time>
      </trkpt>
      <trkpt lat="45.88261" lon="3.02648">
        <ele>723.5</ele>
        <time>1970-01-01T01:13:19.000Z</time>
      </trkpt>
      <trkpt lat="45.88261" lon="3.02646">
        <ele>723.8</ele>
        <time>1970-01-01T01:13:20.000Z</time>
      </trkpt>
      <trkpt lat="45.8826" lon="3.02644">
        <ele>724</ele>
        <time>1970-01-01T01:13:21.000Z</time>
      </trkpt>
      <trkpt lat="45.88259" lon="3.02641">
        <ele>724.3</ele>
        <time>1970-01-01T01:13:23.000Z</time>
      </trkpt>
      <trkpt lat="45.88258" lon="3.02639">
        <ele>724.6</ele>
        <time>1970-01-01T01:13:25.000Z</time>
      </trkpt>
      <trkpt lat="45.88257" lon="3.02637">
        <ele>724.8</ele>
        <time>1970-01-01T01:13:26.000Z</time>
      </trkpt>
      <trkpt lat="45.88257" lon="3.02635">
        <ele>725</ele>
        <time>1970-01-01T01:13:27.000Z</time>
      </trkpt>
      <trkpt lat="45.88256" lon="3.02634">
        <ele>725.1</ele>
        <time>1970-01-01T01:13:29.000Z</time>
      </trkpt>
      <trkpt lat="45.88255" lon="3.02633">
        <ele>725.3</ele>
        <time>1970-01-01T01:13:30.000Z</time>
      </trkpt>
      <trkpt lat="45.88255" lon="3.02632">
        <ele>725.4</ele>
        <time>1970-01-01T01:13:31.000Z</time>
      </trkpt>
      <trkpt lat="45.88255" lon="3.02631">
        <ele>725.5</ele>
        <time>1970-01-01T01:13:32.000Z</time>
      </trkpt>
      <trkpt lat="45.88254" lon="3.0263">
        <ele>725.6</ele>
        <time>1970-01-01T01:13:33.000Z</time>
      </trkpt>
      <trkpt lat="45.88252" lon="3.02628">
        <ele>725.9</ele>
        <time>1970-01-01T01:13:35.000Z</time>
      </trkpt>
      <trkpt lat="45.88252" lon="3.02627">
        <ele>726.1</ele>
        <time>1970-01-01T01:13:36.000Z</time>
      </trkpt>
      <trkpt lat="45.88251" lon="3.02627">
        <ele>726.2</ele>
        <time>1970-01-01T01:13:37.000Z</time>
      </trkpt>
      <trkpt lat="45.8825" lon="3.02626">
        <ele>726.3</ele>
        <time>1970-01-01T01:13:38.000Z</time>
      </trkpt>
      <trkpt lat="45.88249" lon="3.02624">
        <ele>726.5</ele>
        <time>1970-01-01T01:13:39.000Z</time>
      </trkpt>
      <trkpt lat="45.88249" lon="3.02623">
        <ele>726.7</ele>
        <time>1970-01-01T01:13:40.000Z</time>
      </trkpt>
      <trkpt lat="45.88248" lon="3.02622">
        <ele>726.8</ele>
        <time>1970-01-01T01:13:41.000Z</time>
      </trkpt>
      <trkpt lat="45.88247" lon="3.02621">
        <ele>726.9</ele>
        <time>1970-01-01T01:13:42.000Z</time>
      </trkpt>
      <trkpt lat="45.88246" lon="3.0262">
        <ele>727.1</ele>
        <time>1970-01-01T01:13:43.000Z</time>
      </trkpt>
      <trkpt lat="45.88245" lon="3.0262">
        <ele>727.2</ele>
        <time>1970-01-01T01:13:44.000Z</time>
      </trkpt>
      <trkpt lat="45.88244" lon="3.02617">
        <ele>727.5</ele>
        <time>1970-01-01T01:13:46.000Z</time>
      </trkpt>
      <trkpt lat="45.88244" lon="3.02615">
        <ele>727.6</ele>
        <time>1970-01-01T01:13:47.000Z</time>
      </trkpt>
      <trkpt lat="45.88243" lon="3.02614">
        <ele>727.8</ele>
        <time>1970-01-01T01:13:48.000Z</time>
      </trkpt>
      <trkpt lat="45.88243" lon="3.02613">
        <ele>727.9</ele>
        <time>1970-01-01T01:13:49.000Z</time>
      </trkpt>
      <trkpt lat="45.88242" lon="3.02611">
        <ele>728.1</ele>
        <time>1970-01-01T01:13:50.000Z</time>
      </trkpt>
      <trkpt lat="45.88242" lon="3.0261">
        <ele>728.2</ele>
        <time>1970-01-01T01:13:51.000Z</time>
      </trkpt>
      <trkpt lat="45.88241" lon="3.02608">
        <ele>728.4</ele>
        <time>1970-01-01T01:13:52.000Z</time>
      </trkpt>
      <trkpt lat="45.88241" lon="3.02607">
        <ele>728.5</ele>
        <time>1970-01-01T01:13:53.000Z</time>
      </trkpt>
      <trkpt lat="45.88241" lon="3.02605">
        <ele>728.6</ele>
        <time>1970-01-01T01:13:54.000Z</time>
      </trkpt>
      <trkpt lat="45.8824" lon="3.02603">
        <ele>728.8</ele>
        <time>1970-01-01T01:13:55.000Z</time>
      </trkpt>
      <trkpt lat="45.88238" lon="3.02599">
        <ele>729.2</ele>
        <time>1970-01-01T01:13:57.000Z</time>
      </trkpt>
      <trkpt lat="45.88238" lon="3.02598">
        <ele>729.3</ele>
        <time>1970-01-01T01:13:58.000Z</time>
      </trkpt>
      <trkpt lat="45.88237" lon="3.02597">
        <ele>729.5</ele>
        <time>1970-01-01T01:13:59.000Z</time>
      </trkpt>
      <trkpt lat="45.88236" lon="3.02595">
        <ele>729.7</ele>
        <time>1970-01-01T01:14:00.000Z</time>
      </trkpt>
      <trkpt lat="45.88235" lon="3.02592">
        <ele>729.9</ele>
        <time>1970-01-01T01:14:02.000Z</time>
      </trkpt>
      <trkpt lat="45.88234" lon="3.02591">
        <ele>730</ele>
        <time>1970-01-01T01:14:03.000Z</time>
      </trkpt>
      <trkpt lat="45.88234" lon="3.0259">
        <ele>730.1</ele>
        <time>1970-01-01T01:14:04.000Z</time>
      </trkpt>
      <trkpt lat="45.88233" lon="3.02588">
        <ele>730.4</ele>
        <time>1970-01-01T01:14:05.000Z</time>
      </trkpt>
      <trkpt lat="45.88232" lon="3.02586">
        <ele>730.5</ele>
        <time>1970-01-01T01:14:06.000Z</time>
      </trkpt>
      <trkpt lat="45.88232" lon="3.02585">
        <ele>730.6</ele>
        <time>1970-01-01T01:14:07.000Z</time>
      </trkpt>
      <trkpt lat="45.8823" lon="3.02582">
        <ele>731</ele>
        <time>1970-01-01T01:14:09.000Z</time>
      </trkpt>
      <trkpt lat="45.8823" lon="3.02581">
        <ele>731.1</ele>
        <time>1970-01-01T01:14:10.000Z</time>
      </trkpt>
      <trkpt lat="45.8823" lon="3.02579">
        <ele>731.2</ele>
        <time>1970-01-01T01:14:11.000Z</time>
      </trkpt>
      <trkpt lat="45.88229" lon="3.02578">
        <ele>731.3</ele>
        <time>1970-01-01T01:14:12.000Z</time>
      </trkpt>
      <trkpt lat="45.88229" lon="3.02576">
        <ele>731.5</ele>
        <time>1970-01-01T01:14:14.000Z</time>
      </trkpt>
      <trkpt lat="45.88228" lon="3.02573">
        <ele>731.7</ele>
        <time>1970-01-01T01:14:15.000Z</time>
      </trkpt>
      <trkpt lat="45.88228" lon="3.02572">
        <ele>731.8</ele>
        <time>1970-01-01T01:14:16.000Z</time>
      </trkpt>
      <trkpt lat="45.88227" lon="3.02569">
        <ele>732.1</ele>
        <time>1970-01-01T01:14:18.000Z</time>
      </trkpt>
      <trkpt lat="45.88227" lon="3.02567">
        <ele>732.2</ele>
        <time>1970-01-01T01:14:19.000Z</time>
      </trkpt>
      <trkpt lat="45.88227" lon="3.02566">
        <ele>732.3</ele>
        <time>1970-01-01T01:14:20.000Z</time>
      </trkpt>
      <trkpt lat="45.88227" lon="3.02565">
        <ele>732.4</ele>
        <time>1970-01-01T01:14:21.000Z</time>
      </trkpt>
      <trkpt lat="45.88228" lon="3.02563">
        <ele>732.5</ele>
        <time>1970-01-01T01:14:22.000Z</time>
      </trkpt>
      <trkpt lat="45.88228" lon="3.02561">
        <ele>732.6</ele>
        <time>1970-01-01T01:14:23.000Z</time>
      </trkpt>
      <trkpt lat="45.88228" lon="3.0256">
        <ele>732.7</ele>
        <time>1970-01-01T01:14:24.000Z</time>
      </trkpt>
      <trkpt lat="45.88229" lon="3.02558">
        <ele>732.9</ele>
        <time>1970-01-01T01:14:25.000Z</time>
      </trkpt>
      <trkpt lat="45.88229" lon="3.02556">
        <ele>732.9</ele>
        <time>1970-01-01T01:14:26.000Z</time>
      </trkpt>
      <trkpt lat="45.8823" lon="3.02555">
        <ele>733</ele>
        <time>1970-01-01T01:14:27.000Z</time>
      </trkpt>
      <trkpt lat="45.88231" lon="3.02554">
        <ele>733.2</ele>
        <time>1970-01-01T01:14:28.000Z</time>
      </trkpt>
      <trkpt lat="45.88231" lon="3.02552">
        <ele>733.3</ele>
        <time>1970-01-01T01:14:29.000Z</time>
      </trkpt>
      <trkpt lat="45.88232" lon="3.02549">
        <ele>733.4</ele>
        <time>1970-01-01T01:14:30.000Z</time>
      </trkpt>
      <trkpt lat="45.88234" lon="3.02548">
        <ele>733.5</ele>
        <time>1970-01-01T01:14:31.000Z</time>
      </trkpt>
      <trkpt lat="45.88234" lon="3.02546">
        <ele>733.6</ele>
        <time>1970-01-01T01:14:33.000Z</time>
      </trkpt>
      <trkpt lat="45.88235" lon="3.02545">
        <ele>733.7</ele>
        <time>1970-01-01T01:14:34.000Z</time>
      </trkpt>
      <trkpt lat="45.88237" lon="3.02544">
        <ele>733.8</ele>
        <time>1970-01-01T01:14:35.000Z</time>
      </trkpt>
      <trkpt lat="45.88238" lon="3.02541">
        <ele>733.9</ele>
        <time>1970-01-01T01:14:36.000Z</time>
      </trkpt>
      <trkpt lat="45.88239" lon="3.0254">
        <ele>733.9</ele>
        <time>1970-01-01T01:14:37.000Z</time>
      </trkpt>
      <trkpt lat="45.8824" lon="3.02539">
        <ele>734</ele>
        <time>1970-01-01T01:14:38.000Z</time>
      </trkpt>
      <trkpt lat="45.88242" lon="3.02536">
        <ele>734.1</ele>
        <time>1970-01-01T01:14:40.000Z</time>
      </trkpt>
      <trkpt lat="45.88243" lon="3.02535">
        <ele>734.1</ele>
        <time>1970-01-01T01:14:41.000Z</time>
      </trkpt>
      <trkpt lat="45.88244" lon="3.02533">
        <ele>734.1</ele>
        <time>1970-01-01T01:14:42.000Z</time>
      </trkpt>
      <trkpt lat="45.88245" lon="3.02532">
        <ele>734.2</ele>
        <time>1970-01-01T01:14:43.000Z</time>
      </trkpt>
      <trkpt lat="45.88247" lon="3.0253">
        <ele>734.2</ele>
        <time>1970-01-01T01:14:44.000Z</time>
      </trkpt>
      <trkpt lat="45.88248" lon="3.02528">
        <ele>734.2</ele>
        <time>1970-01-01T01:14:46.000Z</time>
      </trkpt>
      <trkpt lat="45.88249" lon="3.02525">
        <ele>734.1</ele>
        <time>1970-01-01T01:14:47.000Z</time>
      </trkpt>
      <trkpt lat="45.88251" lon="3.02524">
        <ele>734.1</ele>
        <time>1970-01-01T01:14:48.000Z</time>
      </trkpt>
      <trkpt lat="45.88254" lon="3.02519">
        <ele>734</ele>
        <time>1970-01-01T01:14:50.000Z</time>
      </trkpt>
      <trkpt lat="45.88255" lon="3.02517">
        <ele>733.9</ele>
        <time>1970-01-01T01:14:51.000Z</time>
      </trkpt>
      <trkpt lat="45.88256" lon="3.02515">
        <ele>733.9</ele>
        <time>1970-01-01T01:14:52.000Z</time>
      </trkpt>
      <trkpt lat="45.88259" lon="3.0251">
        <ele>733.7</ele>
        <time>1970-01-01T01:14:54.000Z</time>
      </trkpt>
      <trkpt lat="45.88261" lon="3.02507">
        <ele>733.6</ele>
        <time>1970-01-01T01:14:55.000Z</time>
      </trkpt>
      <trkpt lat="45.88262" lon="3.02503">
        <ele>733.4</ele>
        <time>1970-01-01T01:14:56.000Z</time>
      </trkpt>
      <trkpt lat="45.88264" lon="3.02498">
        <ele>733.3</ele>
        <time>1970-01-01T01:14:57.000Z</time>
      </trkpt>
      <trkpt lat="45.88268" lon="3.02489">
        <ele>733</ele>
        <time>1970-01-01T01:14:58.000Z</time>
      </trkpt>
      <trkpt lat="45.88271" lon="3.02482">
        <ele>732.7</ele>
        <time>1970-01-01T01:14:59.000Z</time>
      </trkpt>
      <trkpt lat="45.88274" lon="3.02475">
        <ele>732.6</ele>
        <time>1970-01-01T01:15:00.000Z</time>
      </trkpt>
      <trkpt lat="45.88277" lon="3.02468">
        <ele>732.4</ele>
        <time>1970-01-01T01:15:01.000Z</time>
      </trkpt>
      <trkpt lat="45.8828" lon="3.02462">
        <ele>732.3</ele>
        <time>1970-01-01T01:15:02.000Z</time>
      </trkpt>
      <trkpt lat="45.88283" lon="3.02456">
        <ele>732.3</ele>
        <time>1970-01-01T01:15:03.000Z</time>
      </trkpt>
      <trkpt lat="45.88286" lon="3.02451">
        <ele>732.2</ele>
        <time>1970-01-01T01:15:04.000Z</time>
      </trkpt>
      <trkpt lat="45.8829" lon="3.02447">
        <ele>732.2</ele>
        <time>1970-01-01T01:15:05.000Z</time>
      </trkpt>
      <trkpt lat="45.88294" lon="3.02443">
        <ele>732.2</ele>
        <time>1970-01-01T01:15:06.000Z</time>
      </trkpt>
      <trkpt lat="45.88298" lon="3.0244">
        <ele>732.2</ele>
        <time>1970-01-01T01:15:07.000Z</time>
      </trkpt>
      <trkpt lat="45.88302" lon="3.02438">
        <ele>732.3</ele>
        <time>1970-01-01T01:15:08.000Z</time>
      </trkpt>
      <trkpt lat="45.88304" lon="3.02437">
        <ele>732.3</ele>
        <time>1970-01-01T01:15:09.000Z</time>
      </trkpt>
      <trkpt lat="45.88308" lon="3.02434">
        <ele>732.4</ele>
        <time>1970-01-01T01:15:10.000Z</time>
      </trkpt>
      <trkpt lat="45.88311" lon="3.02432">
        <ele>732.5</ele>
        <time>1970-01-01T01:15:11.000Z</time>
      </trkpt>
      <trkpt lat="45.88315" lon="3.02429">
        <ele>732.6</ele>
        <time>1970-01-01T01:15:12.000Z</time>
      </trkpt>
      <trkpt lat="45.88318" lon="3.02427">
        <ele>732.7</ele>
        <time>1970-01-01T01:15:13.000Z</time>
      </trkpt>
      <trkpt lat="45.88323" lon="3.02424">
        <ele>732.9</ele>
        <time>1970-01-01T01:15:14.000Z</time>
      </trkpt>
      <trkpt lat="45.88326" lon="3.02422">
        <ele>733</ele>
        <time>1970-01-01T01:15:16.000Z</time>
      </trkpt>
      <trkpt lat="45.8833" lon="3.0242">
        <ele>733.1</ele>
        <time>1970-01-01T01:15:17.000Z</time>
      </trkpt>
      <trkpt lat="45.88332" lon="3.02418">
        <ele>733.2</ele>
        <time>1970-01-01T01:15:18.000Z</time>
      </trkpt>
      <trkpt lat="45.88335" lon="3.02417">
        <ele>733.3</ele>
        <time>1970-01-01T01:15:19.000Z</time>
      </trkpt>
      <trkpt lat="45.88338" lon="3.02416">
        <ele>733.4</ele>
        <time>1970-01-01T01:15:20.000Z</time>
      </trkpt>
      <trkpt lat="45.88341" lon="3.02415">
        <ele>733.5</ele>
        <time>1970-01-01T01:15:21.000Z</time>
      </trkpt>
      <trkpt lat="45.88344" lon="3.02414">
        <ele>733.6</ele>
        <time>1970-01-01T01:15:22.000Z</time>
      </trkpt>
      <trkpt lat="45.88347" lon="3.02413">
        <ele>733.7</ele>
        <time>1970-01-01T01:15:23.000Z</time>
      </trkpt>
      <trkpt lat="45.8835" lon="3.02411">
        <ele>733.9</ele>
        <time>1970-01-01T01:15:24.000Z</time>
      </trkpt>
      <trkpt lat="45.88355" lon="3.02409">
        <ele>734.1</ele>
        <time>1970-01-01T01:15:25.000Z</time>
      </trkpt>
      <trkpt lat="45.8836" lon="3.02407">
        <ele>734.4</ele>
        <time>1970-01-01T01:15:27.000Z</time>
      </trkpt>
      <trkpt lat="45.88364" lon="3.02405">
        <ele>734.6</ele>
        <time>1970-01-01T01:15:29.000Z</time>
      </trkpt>
      <trkpt lat="45.88365" lon="3.02405">
        <ele>734.7</ele>
        <time>1970-01-01T01:15:30.000Z</time>
      </trkpt>
      <trkpt lat="45.88366" lon="3.02404">
        <ele>734.8</ele>
        <time>1970-01-01T01:15:31.000Z</time>
      </trkpt>
      <trkpt lat="45.8837" lon="3.02403">
        <ele>735.1</ele>
        <time>1970-01-01T01:15:32.000Z</time>
      </trkpt>
      <trkpt lat="45.88371" lon="3.02402">
        <ele>735.2</ele>
        <time>1970-01-01T01:15:33.000Z</time>
      </trkpt>
      <trkpt lat="45.88373" lon="3.02401">
        <ele>735.4</ele>
        <time>1970-01-01T01:15:34.000Z</time>
      </trkpt>
      <trkpt lat="45.88375" lon="3.02401">
        <ele>735.5</ele>
        <time>1970-01-01T01:15:36.000Z</time>
      </trkpt>
      <trkpt lat="45.88379" lon="3.02401">
        <ele>735.8</ele>
        <time>1970-01-01T01:15:37.000Z</time>
      </trkpt>
      <trkpt lat="45.8838" lon="3.02401">
        <ele>736</ele>
        <time>1970-01-01T01:15:38.000Z</time>
      </trkpt>
      <trkpt lat="45.88383" lon="3.02401">
        <ele>736.3</ele>
        <time>1970-01-01T01:15:40.000Z</time>
      </trkpt>
      <trkpt lat="45.88384" lon="3.024">
        <ele>736.4</ele>
        <time>1970-01-01T01:15:41.000Z</time>
      </trkpt>
      <trkpt lat="45.88387" lon="3.02399">
        <ele>736.7</ele>
        <time>1970-01-01T01:15:42.000Z</time>
      </trkpt>
      <trkpt lat="45.8839" lon="3.02398">
        <ele>737</ele>
        <time>1970-01-01T01:15:44.000Z</time>
      </trkpt>
      <trkpt lat="45.88391" lon="3.02397">
        <ele>737.1</ele>
        <time>1970-01-01T01:15:45.000Z</time>
      </trkpt>
      <trkpt lat="45.88393" lon="3.02397">
        <ele>737.4</ele>
        <time>1970-01-01T01:15:46.000Z</time>
      </trkpt>
      <trkpt lat="45.88394" lon="3.02396">
        <ele>737.5</ele>
        <time>1970-01-01T01:15:47.000Z</time>
      </trkpt>
      <trkpt lat="45.88397" lon="3.02395">
        <ele>737.8</ele>
        <time>1970-01-01T01:15:48.000Z</time>
      </trkpt>
      <trkpt lat="45.88398" lon="3.02395">
        <ele>737.9</ele>
        <time>1970-01-01T01:15:49.000Z</time>
      </trkpt>
      <trkpt lat="45.88401" lon="3.02392">
        <ele>738.3</ele>
        <time>1970-01-01T01:15:50.000Z</time>
      </trkpt>
      <trkpt lat="45.88402" lon="3.02391">
        <ele>738.4</ele>
        <time>1970-01-01T01:15:51.000Z</time>
      </trkpt>
      <trkpt lat="45.88405" lon="3.02389">
        <ele>738.7</ele>
        <time>1970-01-01T01:15:52.000Z</time>
      </trkpt>
      <trkpt lat="45.88406" lon="3.02388">
        <ele>738.8</ele>
        <time>1970-01-01T01:15:53.000Z</time>
      </trkpt>
      <trkpt lat="45.88408" lon="3.02385">
        <ele>739.1</ele>
        <time>1970-01-01T01:15:54.000Z</time>
      </trkpt>
      <trkpt lat="45.88409" lon="3.02384">
        <ele>739.1</ele>
        <time>1970-01-01T01:15:55.000Z</time>
      </trkpt>
      <trkpt lat="45.88411" lon="3.02381">
        <ele>739.4</ele>
        <time>1970-01-01T01:15:56.000Z</time>
      </trkpt>
      <trkpt lat="45.88411" lon="3.02379">
        <ele>739.4</ele>
        <time>1970-01-01T01:15:57.000Z</time>
      </trkpt>
      <trkpt lat="45.88414" lon="3.02377">
        <ele>739.4</ele>
        <time>1970-01-01T01:15:58.000Z</time>
      </trkpt>
      <trkpt lat="45.88415" lon="3.02376">
        <ele>739.5</ele>
        <time>1970-01-01T01:15:59.000Z</time>
      </trkpt>
      <trkpt lat="45.88417" lon="3.02373">
        <ele>739.5</ele>
        <time>1970-01-01T01:16:00.000Z</time>
      </trkpt>
      <trkpt lat="45.88418" lon="3.02372">
        <ele>739.5</ele>
        <time>1970-01-01T01:16:01.000Z</time>
      </trkpt>
      <trkpt lat="45.8842" lon="3.02371">
        <ele>739.6</ele>
        <time>1970-01-01T01:16:02.000Z</time>
      </trkpt>
      <trkpt lat="45.88423" lon="3.02369">
        <ele>739.6</ele>
        <time>1970-01-01T01:16:03.000Z</time>
      </trkpt>
      <trkpt lat="45.88425" lon="3.02368">
        <ele>739.6</ele>
        <time>1970-01-01T01:16:04.000Z</time>
      </trkpt>
      <trkpt lat="45.88431" lon="3.02367">
        <ele>739.7</ele>
        <time>1970-01-01T01:16:06.000Z</time>
      </trkpt>
      <trkpt lat="45.88434" lon="3.02367">
        <ele>739.8</ele>
        <time>1970-01-01T01:16:07.000Z</time>
      </trkpt>
      <trkpt lat="45.88439" lon="3.02367">
        <ele>739.9</ele>
        <time>1970-01-01T01:16:08.000Z</time>
      </trkpt>
      <trkpt lat="45.88444" lon="3.02368">
        <ele>740</ele>
        <time>1970-01-01T01:16:10.000Z</time>
      </trkpt>
      <trkpt lat="45.88448" lon="3.02369">
        <ele>740.1</ele>
        <time>1970-01-01T01:16:11.000Z</time>
      </trkpt>
      <trkpt lat="45.88454" lon="3.02369">
        <ele>740.3</ele>
        <time>1970-01-01T01:16:12.000Z</time>
      </trkpt>
      <trkpt lat="45.88459" lon="3.02369">
        <ele>740.5</ele>
        <time>1970-01-01T01:16:14.000Z</time>
      </trkpt>
      <trkpt lat="45.88462" lon="3.02369">
        <ele>740.6</ele>
        <time>1970-01-01T01:16:15.000Z</time>
      </trkpt>
      <trkpt lat="45.88465" lon="3.02369">
        <ele>740.7</ele>
        <time>1970-01-01T01:16:16.000Z</time>
      </trkpt>
      <trkpt lat="45.88469" lon="3.02368">
        <ele>740.8</ele>
        <time>1970-01-01T01:16:17.000Z</time>
      </trkpt>
      <trkpt lat="45.88472" lon="3.02368">
        <ele>740.9</ele>
        <time>1970-01-01T01:16:18.000Z</time>
      </trkpt>
      <trkpt lat="45.88475" lon="3.02367">
        <ele>741</ele>
        <time>1970-01-01T01:16:19.000Z</time>
      </trkpt>
      <trkpt lat="45.88479" lon="3.02367">
        <ele>741</ele>
        <time>1970-01-01T01:16:20.000Z</time>
      </trkpt>
      <trkpt lat="45.88482" lon="3.02367">
        <ele>741.1</ele>
        <time>1970-01-01T01:16:22.000Z</time>
      </trkpt>
      <trkpt lat="45.88485" lon="3.02368">
        <ele>741.1</ele>
        <time>1970-01-01T01:16:23.000Z</time>
      </trkpt>
      <trkpt lat="45.88489" lon="3.02367">
        <ele>741.1</ele>
        <time>1970-01-01T01:16:24.000Z</time>
      </trkpt>
      <trkpt lat="45.88491" lon="3.02367">
        <ele>741.1</ele>
        <time>1970-01-01T01:16:25.000Z</time>
      </trkpt>
      <trkpt lat="45.88493" lon="3.02366">
        <ele>741.1</ele>
        <time>1970-01-01T01:16:26.000Z</time>
      </trkpt>
      <trkpt lat="45.88496" lon="3.02366">
        <ele>741.1</ele>
        <time>1970-01-01T01:16:27.000Z</time>
      </trkpt>
      <trkpt lat="45.885" lon="3.02365">
        <ele>741.1</ele>
        <time>1970-01-01T01:16:28.000Z</time>
      </trkpt>
      <trkpt lat="45.88501" lon="3.02364">
        <ele>741.1</ele>
        <time>1970-01-01T01:16:29.000Z</time>
      </trkpt>
      <trkpt lat="45.88505" lon="3.02362">
        <ele>741.1</ele>
        <time>1970-01-01T01:16:30.000Z</time>
      </trkpt>
      <trkpt lat="45.88509" lon="3.02361">
        <ele>741.1</ele>
        <time>1970-01-01T01:16:31.000Z</time>
      </trkpt>
      <trkpt lat="45.88513" lon="3.02359">
        <ele>741.1</ele>
        <time>1970-01-01T01:16:32.000Z</time>
      </trkpt>
      <trkpt lat="45.88517" lon="3.02359">
        <ele>741.1</ele>
        <time>1970-01-01T01:16:33.000Z</time>
      </trkpt>
      <trkpt lat="45.8852" lon="3.02359">
        <ele>741.2</ele>
        <time>1970-01-01T01:16:34.000Z</time>
      </trkpt>
      <trkpt lat="45.88525" lon="3.02359">
        <ele>741.2</ele>
        <time>1970-01-01T01:16:36.000Z</time>
      </trkpt>
      <trkpt lat="45.88529" lon="3.02358">
        <ele>741.3</ele>
        <time>1970-01-01T01:16:37.000Z</time>
      </trkpt>
      <trkpt lat="45.88533" lon="3.0236">
        <ele>741.4</ele>
        <time>1970-01-01T01:16:38.000Z</time>
      </trkpt>
      <trkpt lat="45.88537" lon="3.02361">
        <ele>741.5</ele>
        <time>1970-01-01T01:16:39.000Z</time>
      </trkpt>
      <trkpt lat="45.88542" lon="3.02362">
        <ele>741.6</ele>
        <time>1970-01-01T01:16:40.000Z</time>
      </trkpt>
      <trkpt lat="45.88547" lon="3.02364">
        <ele>741.9</ele>
        <time>1970-01-01T01:16:42.000Z</time>
      </trkpt>
      <trkpt lat="45.8855" lon="3.02362">
        <ele>742</ele>
        <time>1970-01-01T01:16:43.000Z</time>
      </trkpt>
      <trkpt lat="45.88554" lon="3.02362">
        <ele>742.2</ele>
        <time>1970-01-01T01:16:44.000Z</time>
      </trkpt>
      <trkpt lat="45.88557" lon="3.02362">
        <ele>742.4</ele>
        <time>1970-01-01T01:16:45.000Z</time>
      </trkpt>
      <trkpt lat="45.8856" lon="3.02362">
        <ele>742.6</ele>
        <time>1970-01-01T01:16:46.000Z</time>
      </trkpt>
      <trkpt lat="45.88565" lon="3.0236">
        <ele>742.9</ele>
        <time>1970-01-01T01:16:48.000Z</time>
      </trkpt>
      <trkpt lat="45.88568" lon="3.02361">
        <ele>743.1</ele>
        <time>1970-01-01T01:16:49.000Z</time>
      </trkpt>
      <trkpt lat="45.88569" lon="3.02361">
        <ele>743.1</ele>
        <time>1970-01-01T01:16:50.000Z</time>
      </trkpt>
      <trkpt lat="45.88571" lon="3.02361">
        <ele>743.2</ele>
        <time>1970-01-01T01:16:51.000Z</time>
      </trkpt>
      <trkpt lat="45.88573" lon="3.02362">
        <ele>743.2</ele>
        <time>1970-01-01T01:16:52.000Z</time>
      </trkpt>
      <trkpt lat="45.88574" lon="3.02365">
        <ele>743.2</ele>
        <time>1970-01-01T01:16:53.000Z</time>
      </trkpt>
      <trkpt lat="45.88575" lon="3.02368">
        <ele>743.2</ele>
        <time>1970-01-01T01:16:55.000Z</time>
      </trkpt>
      <trkpt lat="45.88576" lon="3.02373">
        <ele>743.2</ele>
        <time>1970-01-01T01:16:56.000Z</time>
      </trkpt>
      <trkpt lat="45.88576" lon="3.02374">
        <ele>743.2</ele>
        <time>1970-01-01T01:16:57.000Z</time>
      </trkpt>
      <trkpt lat="45.88578" lon="3.02379">
        <ele>743.2</ele>
        <time>1970-01-01T01:16:58.000Z</time>
      </trkpt>
      <trkpt lat="45.88579" lon="3.02381">
        <ele>743.2</ele>
        <time>1970-01-01T01:16:59.000Z</time>
      </trkpt>
      <trkpt lat="45.88581" lon="3.02385">
        <ele>743.1</ele>
        <time>1970-01-01T01:17:00.000Z</time>
      </trkpt>
      <trkpt lat="45.88583" lon="3.02391">
        <ele>743</ele>
        <time>1970-01-01T01:17:02.000Z</time>
      </trkpt>
      <trkpt lat="45.88585" lon="3.02394">
        <ele>742.9</ele>
        <time>1970-01-01T01:17:03.000Z</time>
      </trkpt>
      <trkpt lat="45.88587" lon="3.02398">
        <ele>742.7</ele>
        <time>1970-01-01T01:17:04.000Z</time>
      </trkpt>
      <trkpt lat="45.8859" lon="3.02406">
        <ele>742.5</ele>
        <time>1970-01-01T01:17:05.000Z</time>
      </trkpt>
      <trkpt lat="45.88592" lon="3.02412">
        <ele>742.3</ele>
        <time>1970-01-01T01:17:06.000Z</time>
      </trkpt>
      <trkpt lat="45.88595" lon="3.02418">
        <ele>742.1</ele>
        <time>1970-01-01T01:17:07.000Z</time>
      </trkpt>
      <trkpt lat="45.88597" lon="3.02425">
        <ele>741.9</ele>
        <time>1970-01-01T01:17:08.000Z</time>
      </trkpt>
      <trkpt lat="45.88599" lon="3.02432">
        <ele>741.6</ele>
        <time>1970-01-01T01:17:09.000Z</time>
      </trkpt>
      <trkpt lat="45.88601" lon="3.02439">
        <ele>741.5</ele>
        <time>1970-01-01T01:17:10.000Z</time>
      </trkpt>
      <trkpt lat="45.88603" lon="3.02446">
        <ele>741.3</ele>
        <time>1970-01-01T01:17:11.000Z</time>
      </trkpt>
      <trkpt lat="45.88605" lon="3.02453">
        <ele>741.1</ele>
        <time>1970-01-01T01:17:12.000Z</time>
      </trkpt>
      <trkpt lat="45.88607" lon="3.02461">
        <ele>741</ele>
        <time>1970-01-01T01:17:13.000Z</time>
      </trkpt>
      <trkpt lat="45.8861" lon="3.02468">
        <ele>740.9</ele>
        <time>1970-01-01T01:17:14.000Z</time>
      </trkpt>
      <trkpt lat="45.88613" lon="3.02475">
        <ele>740.9</ele>
        <time>1970-01-01T01:17:15.000Z</time>
      </trkpt>
      <trkpt lat="45.88615" lon="3.02482">
        <ele>740.9</ele>
        <time>1970-01-01T01:17:16.000Z</time>
      </trkpt>
      <trkpt lat="45.88618" lon="3.02488">
        <ele>740.8</ele>
        <time>1970-01-01T01:17:17.000Z</time>
      </trkpt>
      <trkpt lat="45.88621" lon="3.02494">
        <ele>740.7</ele>
        <time>1970-01-01T01:17:18.000Z</time>
      </trkpt>
      <trkpt lat="45.88625" lon="3.02498">
        <ele>740.6</ele>
        <time>1970-01-01T01:17:19.000Z</time>
      </trkpt>
      <trkpt lat="45.88629" lon="3.02501">
        <ele>740.5</ele>
        <time>1970-01-01T01:17:20.000Z</time>
      </trkpt>
      <trkpt lat="45.88632" lon="3.02503">
        <ele>740.4</ele>
        <time>1970-01-01T01:17:21.000Z</time>
      </trkpt>
      <trkpt lat="45.88636" lon="3.02506">
        <ele>740.2</ele>
        <time>1970-01-01T01:17:22.000Z</time>
      </trkpt>
      <trkpt lat="45.8864" lon="3.02508">
        <ele>740.1</ele>
        <time>1970-01-01T01:17:23.000Z</time>
      </trkpt>
      <trkpt lat="45.88643" lon="3.02511">
        <ele>740</ele>
        <time>1970-01-01T01:17:24.000Z</time>
      </trkpt>
      <trkpt lat="45.88646" lon="3.02514">
        <ele>739.8</ele>
        <time>1970-01-01T01:17:25.000Z</time>
      </trkpt>
      <trkpt lat="45.8865" lon="3.02516">
        <ele>739.6</ele>
        <time>1970-01-01T01:17:26.000Z</time>
      </trkpt>
      <trkpt lat="45.88656" lon="3.02516">
        <ele>739.4</ele>
        <time>1970-01-01T01:17:27.000Z</time>
      </trkpt>
      <trkpt lat="45.88657" lon="3.02518">
        <ele>739.3</ele>
        <time>1970-01-01T01:17:28.000Z</time>
      </trkpt>
      <trkpt lat="45.88665" lon="3.02525">
        <ele>738.8</ele>
        <time>1970-01-01T01:17:30.000Z</time>
      </trkpt>
      <trkpt lat="45.88669" lon="3.02525">
        <ele>738.1</ele>
        <time>1970-01-01T01:17:31.000Z</time>
      </trkpt>
      <trkpt lat="45.88673" lon="3.02521">
        <ele>737.5</ele>
        <time>1970-01-01T01:17:32.000Z</time>
      </trkpt>
      <trkpt lat="45.88677" lon="3.02516">
        <ele>736.8</ele>
        <time>1970-01-01T01:17:33.000Z</time>
      </trkpt>
      <trkpt lat="45.88681" lon="3.02508">
        <ele>736</ele>
        <time>1970-01-01T01:17:34.000Z</time>
      </trkpt>
      <trkpt lat="45.88684" lon="3.025">
        <ele>735.2</ele>
        <time>1970-01-01T01:17:35.000Z</time>
      </trkpt>
      <trkpt lat="45.88689" lon="3.02491">
        <ele>734.5</ele>
        <time>1970-01-01T01:17:36.000Z</time>
      </trkpt>
      <trkpt lat="45.88694" lon="3.02484">
        <ele>733.9</ele>
        <time>1970-01-01T01:17:37.000Z</time>
      </trkpt>
      <trkpt lat="45.887" lon="3.02475">
        <ele>733.4</ele>
        <time>1970-01-01T01:17:38.000Z</time>
      </trkpt>
      <trkpt lat="45.88706" lon="3.02466">
        <ele>733.1</ele>
        <time>1970-01-01T01:17:39.000Z</time>
      </trkpt>
      <trkpt lat="45.8871" lon="3.02457">
        <ele>732.8</ele>
        <time>1970-01-01T01:17:40.000Z</time>
      </trkpt>
      <trkpt lat="45.88716" lon="3.02448">
        <ele>732.7</ele>
        <time>1970-01-01T01:17:41.000Z</time>
      </trkpt>
      <trkpt lat="45.88721" lon="3.0244">
        <ele>732.8</ele>
        <time>1970-01-01T01:17:42.000Z</time>
      </trkpt>
      <trkpt lat="45.88726" lon="3.02432">
        <ele>733</ele>
        <time>1970-01-01T01:17:43.000Z</time>
      </trkpt>
      <trkpt lat="45.88731" lon="3.02424">
        <ele>733.3</ele>
        <time>1970-01-01T01:17:44.000Z</time>
      </trkpt>
      <trkpt lat="45.88736" lon="3.02417">
        <ele>733.5</ele>
        <time>1970-01-01T01:17:45.000Z</time>
      </trkpt>
      <trkpt lat="45.88741" lon="3.02412">
        <ele>733.7</ele>
        <time>1970-01-01T01:17:46.000Z</time>
      </trkpt>
      <trkpt lat="45.88745" lon="3.02406">
        <ele>733.9</ele>
        <time>1970-01-01T01:17:47.000Z</time>
      </trkpt>
      <trkpt lat="45.88749" lon="3.02401">
        <ele>733.9</ele>
        <time>1970-01-01T01:17:48.000Z</time>
      </trkpt>
      <trkpt lat="45.88753" lon="3.02396">
        <ele>733.8</ele>
        <time>1970-01-01T01:17:49.000Z</time>
      </trkpt>
      <trkpt lat="45.88757" lon="3.02392">
        <ele>733.7</ele>
        <time>1970-01-01T01:17:50.000Z</time>
      </trkpt>
      <trkpt lat="45.88762" lon="3.02387">
        <ele>733.4</ele>
        <time>1970-01-01T01:17:51.000Z</time>
      </trkpt>
      <trkpt lat="45.88766" lon="3.02382">
        <ele>733.1</ele>
        <time>1970-01-01T01:17:52.000Z</time>
      </trkpt>
      <trkpt lat="45.88771" lon="3.02376">
        <ele>732.7</ele>
        <time>1970-01-01T01:17:53.000Z</time>
      </trkpt>
      <trkpt lat="45.88775" lon="3.02369">
        <ele>732.3</ele>
        <time>1970-01-01T01:17:54.000Z</time>
      </trkpt>
      <trkpt lat="45.8878" lon="3.02362">
        <ele>731.9</ele>
        <time>1970-01-01T01:17:55.000Z</time>
      </trkpt>
      <trkpt lat="45.88786" lon="3.02355">
        <ele>731.6</ele>
        <time>1970-01-01T01:17:56.000Z</time>
      </trkpt>
      <trkpt lat="45.88791" lon="3.02349">
        <ele>731.3</ele>
        <time>1970-01-01T01:17:57.000Z</time>
      </trkpt>
      <trkpt lat="45.88796" lon="3.02347">
        <ele>731</ele>
        <time>1970-01-01T01:17:58.000Z</time>
      </trkpt>
      <trkpt lat="45.88802" lon="3.02348">
        <ele>730.7</ele>
        <time>1970-01-01T01:17:59.000Z</time>
      </trkpt>
      <trkpt lat="45.88808" lon="3.02351">
        <ele>730.4</ele>
        <time>1970-01-01T01:18:00.000Z</time>
      </trkpt>
      <trkpt lat="45.88813" lon="3.02356">
        <ele>729.9</ele>
        <time>1970-01-01T01:18:01.000Z</time>
      </trkpt>
      <trkpt lat="45.88817" lon="3.02363">
        <ele>729.3</ele>
        <time>1970-01-01T01:18:02.000Z</time>
      </trkpt>
      <trkpt lat="45.8882" lon="3.02373">
        <ele>728.6</ele>
        <time>1970-01-01T01:18:03.000Z</time>
      </trkpt>
      <trkpt lat="45.88824" lon="3.0238">
        <ele>728</ele>
        <time>1970-01-01T01:18:04.000Z</time>
      </trkpt>
      <trkpt lat="45.88829" lon="3.02388">
        <ele>727.3</ele>
        <time>1970-01-01T01:18:05.000Z</time>
      </trkpt>
      <trkpt lat="45.88833" lon="3.02395">
        <ele>726.6</ele>
        <time>1970-01-01T01:18:06.000Z</time>
      </trkpt>
      <trkpt lat="45.88837" lon="3.02403">
        <ele>725.9</ele>
        <time>1970-01-01T01:18:07.000Z</time>
      </trkpt>
      <trkpt lat="45.88841" lon="3.02409">
        <ele>725.3</ele>
        <time>1970-01-01T01:18:08.000Z</time>
      </trkpt>
      <trkpt lat="45.88847" lon="3.02413">
        <ele>724.7</ele>
        <time>1970-01-01T01:18:09.000Z</time>
      </trkpt>
      <trkpt lat="45.88854" lon="3.02414">
        <ele>724.2</ele>
        <time>1970-01-01T01:18:10.000Z</time>
      </trkpt>
      <trkpt lat="45.88861" lon="3.02414">
        <ele>723.6</ele>
        <time>1970-01-01T01:18:11.000Z</time>
      </trkpt>
      <trkpt lat="45.88868" lon="3.02416">
        <ele>723.1</ele>
        <time>1970-01-01T01:18:12.000Z</time>
      </trkpt>
      <trkpt lat="45.88874" lon="3.02417">
        <ele>722.6</ele>
        <time>1970-01-01T01:18:13.000Z</time>
      </trkpt>
      <trkpt lat="45.8888" lon="3.02418">
        <ele>722.1</ele>
        <time>1970-01-01T01:18:14.000Z</time>
      </trkpt>
      <trkpt lat="45.88885" lon="3.02417">
        <ele>721.6</ele>
        <time>1970-01-01T01:18:15.000Z</time>
      </trkpt>
      <trkpt lat="45.8889" lon="3.02416">
        <ele>721</ele>
        <time>1970-01-01T01:18:16.000Z</time>
      </trkpt>
      <trkpt lat="45.88896" lon="3.02415">
        <ele>720.2</ele>
        <time>1970-01-01T01:18:17.000Z</time>
      </trkpt>
      <trkpt lat="45.88903" lon="3.02415">
        <ele>719.4</ele>
        <time>1970-01-01T01:18:18.000Z</time>
      </trkpt>
      <trkpt lat="45.88909" lon="3.02414">
        <ele>718.7</ele>
        <time>1970-01-01T01:18:19.000Z</time>
      </trkpt>
      <trkpt lat="45.88915" lon="3.02411">
        <ele>717.9</ele>
        <time>1970-01-01T01:18:20.000Z</time>
      </trkpt>
      <trkpt lat="45.8892" lon="3.02407">
        <ele>717.1</ele>
        <time>1970-01-01T01:18:21.000Z</time>
      </trkpt>
      <trkpt lat="45.88925" lon="3.02401">
        <ele>716.4</ele>
        <time>1970-01-01T01:18:22.000Z</time>
      </trkpt>
      <trkpt lat="45.88929" lon="3.02396">
        <ele>715.7</ele>
        <time>1970-01-01T01:18:23.000Z</time>
      </trkpt>
      <trkpt lat="45.88934" lon="3.0239">
        <ele>714.9</ele>
        <time>1970-01-01T01:18:24.000Z</time>
      </trkpt>
      <trkpt lat="45.88938" lon="3.02383">
        <ele>714.1</ele>
        <time>1970-01-01T01:18:25.000Z</time>
      </trkpt>
      <trkpt lat="45.88941" lon="3.02377">
        <ele>713.3</ele>
        <time>1970-01-01T01:18:26.000Z</time>
      </trkpt>
      <trkpt lat="45.88945" lon="3.02369">
        <ele>712.4</ele>
        <time>1970-01-01T01:18:27.000Z</time>
      </trkpt>
      <trkpt lat="45.8895" lon="3.02362">
        <ele>711.9</ele>
        <time>1970-01-01T01:18:28.000Z</time>
      </trkpt>
      <trkpt lat="45.88955" lon="3.02356">
        <ele>711.3</ele>
        <time>1970-01-01T01:18:29.000Z</time>
      </trkpt>
      <trkpt lat="45.88959" lon="3.0235">
        <ele>710.6</ele>
        <time>1970-01-01T01:18:30.000Z</time>
      </trkpt>
      <trkpt lat="45.88962" lon="3.02343">
        <ele>709.9</ele>
        <time>1970-01-01T01:18:31.000Z</time>
      </trkpt>
      <trkpt lat="45.88963" lon="3.02336">
        <ele>709.3</ele>
        <time>1970-01-01T01:18:32.000Z</time>
      </trkpt>
      <trkpt lat="45.88965" lon="3.0233">
        <ele>708.8</ele>
        <time>1970-01-01T01:18:33.000Z</time>
      </trkpt>
      <trkpt lat="45.88967" lon="3.02325">
        <ele>708.1</ele>
        <time>1970-01-01T01:18:34.000Z</time>
      </trkpt>
      <trkpt lat="45.88968" lon="3.02323">
        <ele>707.9</ele>
        <time>1970-01-01T01:18:35.000Z</time>
      </trkpt>
      <trkpt lat="45.88971" lon="3.02318">
        <ele>707.3</ele>
        <time>1970-01-01T01:18:36.000Z</time>
      </trkpt>
      <trkpt lat="45.88973" lon="3.02315">
        <ele>706.8</ele>
        <time>1970-01-01T01:18:37.000Z</time>
      </trkpt>
      <trkpt lat="45.88977" lon="3.02314">
        <ele>706.3</ele>
        <time>1970-01-01T01:18:38.000Z</time>
      </trkpt>
      <trkpt lat="45.88982" lon="3.02316">
        <ele>705.5</ele>
        <time>1970-01-01T01:18:39.000Z</time>
      </trkpt>
      <trkpt lat="45.88985" lon="3.02322">
        <ele>704.8</ele>
        <time>1970-01-01T01:18:40.000Z</time>
      </trkpt>
      <trkpt lat="45.88987" lon="3.02329">
        <ele>704</ele>
        <time>1970-01-01T01:18:41.000Z</time>
      </trkpt>
      <trkpt lat="45.8899" lon="3.02339">
        <ele>703</ele>
        <time>1970-01-01T01:18:42.000Z</time>
      </trkpt>
      <trkpt lat="45.88994" lon="3.02347">
        <ele>702</ele>
        <time>1970-01-01T01:18:43.000Z</time>
      </trkpt>
      <trkpt lat="45.88999" lon="3.02354">
        <ele>701</ele>
        <time>1970-01-01T01:18:44.000Z</time>
      </trkpt>
      <trkpt lat="45.89006" lon="3.02361">
        <ele>700</ele>
        <time>1970-01-01T01:18:45.000Z</time>
      </trkpt>
      <trkpt lat="45.89012" lon="3.02368">
        <ele>698.9</ele>
        <time>1970-01-01T01:18:46.000Z</time>
      </trkpt>
      <trkpt lat="45.89017" lon="3.02376">
        <ele>697.9</ele>
        <time>1970-01-01T01:18:47.000Z</time>
      </trkpt>
      <trkpt lat="45.89022" lon="3.02385">
        <ele>696.9</ele>
        <time>1970-01-01T01:18:48.000Z</time>
      </trkpt>
      <trkpt lat="45.89027" lon="3.02395">
        <ele>695.9</ele>
        <time>1970-01-01T01:18:49.000Z</time>
      </trkpt>
      <trkpt lat="45.89031" lon="3.02403">
        <ele>695.1</ele>
        <time>1970-01-01T01:18:50.000Z</time>
      </trkpt>
      <trkpt lat="45.89035" lon="3.02411">
        <ele>694.2</ele>
        <time>1970-01-01T01:18:51.000Z</time>
      </trkpt>
      <trkpt lat="45.89039" lon="3.0242">
        <ele>693.3</ele>
        <time>1970-01-01T01:18:52.000Z</time>
      </trkpt>
      <trkpt lat="45.89042" lon="3.02428">
        <ele>692.4</ele>
        <time>1970-01-01T01:18:53.000Z</time>
      </trkpt>
      <trkpt lat="45.89047" lon="3.02438">
        <ele>691.5</ele>
        <time>1970-01-01T01:18:54.000Z</time>
      </trkpt>
      <trkpt lat="45.89052" lon="3.02446">
        <ele>690.6</ele>
        <time>1970-01-01T01:18:55.000Z</time>
      </trkpt>
      <trkpt lat="45.89057" lon="3.02454">
        <ele>689.8</ele>
        <time>1970-01-01T01:18:56.000Z</time>
      </trkpt>
      <trkpt lat="45.89062" lon="3.02461">
        <ele>689.2</ele>
        <time>1970-01-01T01:18:57.000Z</time>
      </trkpt>
      <trkpt lat="45.89068" lon="3.02468">
        <ele>688.6</ele>
        <time>1970-01-01T01:18:58.000Z</time>
      </trkpt>
      <trkpt lat="45.89073" lon="3.02476">
        <ele>688.1</ele>
        <time>1970-01-01T01:18:59.000Z</time>
      </trkpt>
      <trkpt lat="45.89078" lon="3.02485">
        <ele>687.7</ele>
        <time>1970-01-01T01:19:00.000Z</time>
      </trkpt>
      <trkpt lat="45.89083" lon="3.02492">
        <ele>687.4</ele>
        <time>1970-01-01T01:19:01.000Z</time>
      </trkpt>
      <trkpt lat="45.89087" lon="3.02501">
        <ele>687.1</ele>
        <time>1970-01-01T01:19:02.000Z</time>
      </trkpt>
      <trkpt lat="45.89091" lon="3.0251">
        <ele>686.8</ele>
        <time>1970-01-01T01:19:03.000Z</time>
      </trkpt>
      <trkpt lat="45.89093" lon="3.0252">
        <ele>686.6</ele>
        <time>1970-01-01T01:19:04.000Z</time>
      </trkpt>
      <trkpt lat="45.89095" lon="3.0253">
        <ele>686.4</ele>
        <time>1970-01-01T01:19:05.000Z</time>
      </trkpt>
      <trkpt lat="45.89098" lon="3.0254">
        <ele>686.3</ele>
        <time>1970-01-01T01:19:06.000Z</time>
      </trkpt>
      <trkpt lat="45.891" lon="3.0255">
        <ele>686.2</ele>
        <time>1970-01-01T01:19:07.000Z</time>
      </trkpt>
      <trkpt lat="45.89102" lon="3.0256">
        <ele>686.1</ele>
        <time>1970-01-01T01:19:08.000Z</time>
      </trkpt>
      <trkpt lat="45.89105" lon="3.0257">
        <ele>686.1</ele>
        <time>1970-01-01T01:19:09.000Z</time>
      </trkpt>
      <trkpt lat="45.89106" lon="3.02579">
        <ele>686</ele>
        <time>1970-01-01T01:19:10.000Z</time>
      </trkpt>
      <trkpt lat="45.89109" lon="3.02587">
        <ele>686</ele>
        <time>1970-01-01T01:19:11.000Z</time>
      </trkpt>
      <trkpt lat="45.89111" lon="3.02596">
        <ele>686</ele>
        <time>1970-01-01T01:19:12.000Z</time>
      </trkpt>
      <trkpt lat="45.89113" lon="3.02603">
        <ele>686</ele>
        <time>1970-01-01T01:19:13.000Z</time>
      </trkpt>
      <trkpt lat="45.89116" lon="3.0261">
        <ele>686</ele>
        <time>1970-01-01T01:19:14.000Z</time>
      </trkpt>
      <trkpt lat="45.89118" lon="3.02617">
        <ele>686</ele>
        <time>1970-01-01T01:19:15.000Z</time>
      </trkpt>
      <trkpt lat="45.89121" lon="3.02624">
        <ele>686.1</ele>
        <time>1970-01-01T01:19:16.000Z</time>
      </trkpt>
      <trkpt lat="45.89123" lon="3.02632">
        <ele>686.1</ele>
        <time>1970-01-01T01:19:17.000Z</time>
      </trkpt>
      <trkpt lat="45.89126" lon="3.02639">
        <ele>686.2</ele>
        <time>1970-01-01T01:19:18.000Z</time>
      </trkpt>
      <trkpt lat="45.89129" lon="3.02646">
        <ele>686.3</ele>
        <time>1970-01-01T01:19:19.000Z</time>
      </trkpt>
      <trkpt lat="45.89132" lon="3.02652">
        <ele>686.4</ele>
        <time>1970-01-01T01:19:20.000Z</time>
      </trkpt>
      <trkpt lat="45.89135" lon="3.02658">
        <ele>686.5</ele>
        <time>1970-01-01T01:19:21.000Z</time>
      </trkpt>
      <trkpt lat="45.89138" lon="3.02664">
        <ele>686.6</ele>
        <time>1970-01-01T01:19:22.000Z</time>
      </trkpt>
      <trkpt lat="45.8914" lon="3.02671">
        <ele>686.6</ele>
        <time>1970-01-01T01:19:23.000Z</time>
      </trkpt>
      <trkpt lat="45.8914" lon="3.02678">
        <ele>686.6</ele>
        <time>1970-01-01T01:19:24.000Z</time>
      </trkpt>
      <trkpt lat="45.8914" lon="3.02685">
        <ele>686.5</ele>
        <time>1970-01-01T01:19:25.000Z</time>
      </trkpt>
      <trkpt lat="45.89139" lon="3.02692">
        <ele>686.3</ele>
        <time>1970-01-01T01:19:26.000Z</time>
      </trkpt>
      <trkpt lat="45.89139" lon="3.02701">
        <ele>686.1</ele>
        <time>1970-01-01T01:19:27.000Z</time>
      </trkpt>
      <trkpt lat="45.89138" lon="3.02709">
        <ele>685.8</ele>
        <time>1970-01-01T01:19:28.000Z</time>
      </trkpt>
      <trkpt lat="45.89137" lon="3.02717">
        <ele>685.5</ele>
        <time>1970-01-01T01:19:29.000Z</time>
      </trkpt>
      <trkpt lat="45.89135" lon="3.02724">
        <ele>685.1</ele>
        <time>1970-01-01T01:19:30.000Z</time>
      </trkpt>
      <trkpt lat="45.89134" lon="3.02731">
        <ele>684.7</ele>
        <time>1970-01-01T01:19:31.000Z</time>
      </trkpt>
      <trkpt lat="45.89132" lon="3.02739">
        <ele>684.2</ele>
        <time>1970-01-01T01:19:32.000Z</time>
      </trkpt>
      <trkpt lat="45.89132" lon="3.02749">
        <ele>683.7</ele>
        <time>1970-01-01T01:19:33.000Z</time>
      </trkpt>
      <trkpt lat="45.89133" lon="3.02758">
        <ele>683.2</ele>
        <time>1970-01-01T01:19:34.000Z</time>
      </trkpt>
      <trkpt lat="45.89134" lon="3.02766">
        <ele>682.8</ele>
        <time>1970-01-01T01:19:35.000Z</time>
      </trkpt>
      <trkpt lat="45.89138" lon="3.02773">
        <ele>682.4</ele>
        <time>1970-01-01T01:19:36.000Z</time>
      </trkpt>
      <trkpt lat="45.89143" lon="3.02778">
        <ele>682</ele>
        <time>1970-01-01T01:19:37.000Z</time>
      </trkpt>
      <trkpt lat="45.89149" lon="3.02782">
        <ele>681.7</ele>
        <time>1970-01-01T01:19:38.000Z</time>
      </trkpt>
      <trkpt lat="45.89154" lon="3.02786">
        <ele>681.4</ele>
        <time>1970-01-01T01:19:39.000Z</time>
      </trkpt>
      <trkpt lat="45.8916" lon="3.02789">
        <ele>681</ele>
        <time>1970-01-01T01:19:40.000Z</time>
      </trkpt>
      <trkpt lat="45.89166" lon="3.02792">
        <ele>680.7</ele>
        <time>1970-01-01T01:19:41.000Z</time>
      </trkpt>
      <trkpt lat="45.89172" lon="3.02797">
        <ele>680.3</ele>
        <time>1970-01-01T01:19:42.000Z</time>
      </trkpt>
      <trkpt lat="45.89177" lon="3.02802">
        <ele>680</ele>
        <time>1970-01-01T01:19:43.000Z</time>
      </trkpt>
      <trkpt lat="45.89181" lon="3.02809">
        <ele>679.6</ele>
        <time>1970-01-01T01:19:44.000Z</time>
      </trkpt>
      <trkpt lat="45.89183" lon="3.02818">
        <ele>679.3</ele>
        <time>1970-01-01T01:19:45.000Z</time>
      </trkpt>
      <trkpt lat="45.89186" lon="3.02827">
        <ele>678.9</ele>
        <time>1970-01-01T01:19:46.000Z</time>
      </trkpt>
      <trkpt lat="45.89189" lon="3.02835">
        <ele>678.6</ele>
        <time>1970-01-01T01:19:47.000Z</time>
      </trkpt>
      <trkpt lat="45.89193" lon="3.02843">
        <ele>678.3</ele>
        <time>1970-01-01T01:19:48.000Z</time>
      </trkpt>
      <trkpt lat="45.89197" lon="3.0285">
        <ele>678</ele>
        <time>1970-01-01T01:19:49.000Z</time>
      </trkpt>
      <trkpt lat="45.89201" lon="3.02857">
        <ele>677.8</ele>
        <time>1970-01-01T01:19:50.000Z</time>
      </trkpt>
      <trkpt lat="45.89206" lon="3.02864">
        <ele>677.5</ele>
        <time>1970-01-01T01:19:51.000Z</time>
      </trkpt>
      <trkpt lat="45.89212" lon="3.0287">
        <ele>677.1</ele>
        <time>1970-01-01T01:19:52.000Z</time>
      </trkpt>
      <trkpt lat="45.89217" lon="3.02875">
        <ele>676.7</ele>
        <time>1970-01-01T01:19:53.000Z</time>
      </trkpt>
      <trkpt lat="45.89221" lon="3.02879">
        <ele>676.2</ele>
        <time>1970-01-01T01:19:54.000Z</time>
      </trkpt>
      <trkpt lat="45.89226" lon="3.02883">
        <ele>675.7</ele>
        <time>1970-01-01T01:19:55.000Z</time>
      </trkpt>
      <trkpt lat="45.89232" lon="3.02887">
        <ele>675.2</ele>
        <time>1970-01-01T01:19:56.000Z</time>
      </trkpt>
      <trkpt lat="45.89236" lon="3.02892">
        <ele>674.5</ele>
        <time>1970-01-01T01:19:57.000Z</time>
      </trkpt>
      <trkpt lat="45.89241" lon="3.02899">
        <ele>673.9</ele>
        <time>1970-01-01T01:19:58.000Z</time>
      </trkpt>
      <trkpt lat="45.89245" lon="3.02906">
        <ele>673.1</ele>
        <time>1970-01-01T01:19:59.000Z</time>
      </trkpt>
      <trkpt lat="45.8925" lon="3.02912">
        <ele>672.4</ele>
        <time>1970-01-01T01:20:00.000Z</time>
      </trkpt>
      <trkpt lat="45.89255" lon="3.02917">
        <ele>671.8</ele>
        <time>1970-01-01T01:20:01.000Z</time>
      </trkpt>
      <trkpt lat="45.89259" lon="3.02923">
        <ele>671.1</ele>
        <time>1970-01-01T01:20:02.000Z</time>
      </trkpt>
      <trkpt lat="45.89263" lon="3.02929">
        <ele>670.6</ele>
        <time>1970-01-01T01:20:03.000Z</time>
      </trkpt>
      <trkpt lat="45.89267" lon="3.02935">
        <ele>670</ele>
        <time>1970-01-01T01:20:04.000Z</time>
      </trkpt>
      <trkpt lat="45.89271" lon="3.02939">
        <ele>669.6</ele>
        <time>1970-01-01T01:20:05.000Z</time>
      </trkpt>
      <trkpt lat="45.89274" lon="3.02943">
        <ele>669.2</ele>
        <time>1970-01-01T01:20:06.000Z</time>
      </trkpt>
      <trkpt lat="45.89278" lon="3.02947">
        <ele>668.8</ele>
        <time>1970-01-01T01:20:07.000Z</time>
      </trkpt>
      <trkpt lat="45.89281" lon="3.02951">
        <ele>668.3</ele>
        <time>1970-01-01T01:20:08.000Z</time>
      </trkpt>
      <trkpt lat="45.89286" lon="3.02956">
        <ele>667.8</ele>
        <time>1970-01-01T01:20:09.000Z</time>
      </trkpt>
      <trkpt lat="45.8929" lon="3.02961">
        <ele>667.4</ele>
        <time>1970-01-01T01:20:10.000Z</time>
      </trkpt>
      <trkpt lat="45.89293" lon="3.02968">
        <ele>666.8</ele>
        <time>1970-01-01T01:20:11.000Z</time>
      </trkpt>
      <trkpt lat="45.89297" lon="3.02975">
        <ele>666.4</ele>
        <time>1970-01-01T01:20:12.000Z</time>
      </trkpt>
      <trkpt lat="45.89301" lon="3.0298">
        <ele>666.1</ele>
        <time>1970-01-01T01:20:13.000Z</time>
      </trkpt>
      <trkpt lat="45.89306" lon="3.02985">
        <ele>665.8</ele>
        <time>1970-01-01T01:20:14.000Z</time>
      </trkpt>
      <trkpt lat="45.89311" lon="3.02991">
        <ele>665.4</ele>
        <time>1970-01-01T01:20:15.000Z</time>
      </trkpt>
      <trkpt lat="45.89316" lon="3.02995">
        <ele>665.1</ele>
        <time>1970-01-01T01:20:16.000Z</time>
      </trkpt>
      <trkpt lat="45.8932" lon="3.02999">
        <ele>664.8</ele>
        <time>1970-01-01T01:20:17.000Z</time>
      </trkpt>
      <trkpt lat="45.89324" lon="3.03004">
        <ele>664.6</ele>
        <time>1970-01-01T01:20:18.000Z</time>
      </trkpt>
      <trkpt lat="45.89327" lon="3.03011">
        <ele>664.4</ele>
        <time>1970-01-01T01:20:19.000Z</time>
      </trkpt>
      <trkpt lat="45.8933" lon="3.03018">
        <ele>664.1</ele>
        <time>1970-01-01T01:20:20.000Z</time>
      </trkpt>
      <trkpt lat="45.89333" lon="3.03024">
        <ele>663.9</ele>
        <time>1970-01-01T01:20:21.000Z</time>
      </trkpt>
      <trkpt lat="45.89337" lon="3.03031">
        <ele>663.7</ele>
        <time>1970-01-01T01:20:22.000Z</time>
      </trkpt>
      <trkpt lat="45.8934" lon="3.03038">
        <ele>663.5</ele>
        <time>1970-01-01T01:20:23.000Z</time>
      </trkpt>
      <trkpt lat="45.89342" lon="3.03046">
        <ele>663.3</ele>
        <time>1970-01-01T01:20:24.000Z</time>
      </trkpt>
      <trkpt lat="45.89345" lon="3.03053">
        <ele>663.1</ele>
        <time>1970-01-01T01:20:25.000Z</time>
      </trkpt>
      <trkpt lat="45.89347" lon="3.03061">
        <ele>663</ele>
        <time>1970-01-01T01:20:26.000Z</time>
      </trkpt>
      <trkpt lat="45.89349" lon="3.03069">
        <ele>662.8</ele>
        <time>1970-01-01T01:20:27.000Z</time>
      </trkpt>
      <trkpt lat="45.89351" lon="3.03077">
        <ele>662.6</ele>
        <time>1970-01-01T01:20:28.000Z</time>
      </trkpt>
      <trkpt lat="45.89353" lon="3.03086">
        <ele>662.5</ele>
        <time>1970-01-01T01:20:29.000Z</time>
      </trkpt>
      <trkpt lat="45.89354" lon="3.03094">
        <ele>662.3</ele>
        <time>1970-01-01T01:20:30.000Z</time>
      </trkpt>
      <trkpt lat="45.89356" lon="3.03103">
        <ele>662.1</ele>
        <time>1970-01-01T01:20:31.000Z</time>
      </trkpt>
      <trkpt lat="45.89357" lon="3.03112">
        <ele>662</ele>
        <time>1970-01-01T01:20:32.000Z</time>
      </trkpt>
      <trkpt lat="45.89357" lon="3.03121">
        <ele>661.9</ele>
        <time>1970-01-01T01:20:33.000Z</time>
      </trkpt>
      <trkpt lat="45.89358" lon="3.03129">
        <ele>661.8</ele>
        <time>1970-01-01T01:20:34.000Z</time>
      </trkpt>
      <trkpt lat="45.89359" lon="3.03138">
        <ele>661.7</ele>
        <time>1970-01-01T01:20:35.000Z</time>
      </trkpt>
      <trkpt lat="45.89361" lon="3.03146">
        <ele>661.6</ele>
        <time>1970-01-01T01:20:36.000Z</time>
      </trkpt>
      <trkpt lat="45.89362" lon="3.03154">
        <ele>661.5</ele>
        <time>1970-01-01T01:20:37.000Z</time>
      </trkpt>
      <trkpt lat="45.89364" lon="3.03162">
        <ele>661.4</ele>
        <time>1970-01-01T01:20:38.000Z</time>
      </trkpt>
      <trkpt lat="45.89367" lon="3.03169">
        <ele>661.3</ele>
        <time>1970-01-01T01:20:39.000Z</time>
      </trkpt>
      <trkpt lat="45.8937" lon="3.03176">
        <ele>661.3</ele>
        <time>1970-01-01T01:20:40.000Z</time>
      </trkpt>
      <trkpt lat="45.89372" lon="3.03184">
        <ele>661.2</ele>
        <time>1970-01-01T01:20:41.000Z</time>
      </trkpt>
      <trkpt lat="45.89374" lon="3.0319">
        <ele>661.2</ele>
        <time>1970-01-01T01:20:42.000Z</time>
      </trkpt>
      <trkpt lat="45.89377" lon="3.03194">
        <ele>661.1</ele>
        <time>1970-01-01T01:20:43.000Z</time>
      </trkpt>
      <trkpt lat="45.8938" lon="3.03196">
        <ele>661.1</ele>
        <time>1970-01-01T01:20:44.000Z</time>
      </trkpt>
      <trkpt lat="45.89381" lon="3.03195">
        <ele>661</ele>
        <time>1970-01-01T01:20:45.000Z</time>
      </trkpt>
      <trkpt lat="45.89382" lon="3.03194">
        <ele>661</ele>
        <time>1970-01-01T01:20:46.000Z</time>
      </trkpt>
      <trkpt lat="45.89382" lon="3.03191">
        <ele>661</ele>
        <time>1970-01-01T01:20:47.000Z</time>
      </trkpt>
      <trkpt lat="45.89383" lon="3.03189">
        <ele>661</ele>
        <time>1970-01-01T01:20:48.000Z</time>
      </trkpt>
      <trkpt lat="45.89382" lon="3.03187">
        <ele>661</ele>
        <time>1970-01-01T01:20:49.000Z</time>
      </trkpt>
      <trkpt lat="45.89383" lon="3.03185">
        <ele>661</ele>
        <time>1970-01-01T01:20:50.000Z</time>
      </trkpt>
      <trkpt lat="45.89383" lon="3.03184">
        <ele>661</ele>
        <time>1970-01-01T01:20:51.000Z</time>
      </trkpt>
      <trkpt lat="45.89383" lon="3.03184">
        <ele>661</ele>
        <time>1970-01-01T01:20:52.000Z</time>
      </trkpt>
      <trkpt lat="45.89383" lon="3.03183">
        <ele>661</ele>
        <time>1970-01-01T01:20:53.000Z</time>
      </trkpt>
      <trkpt lat="45.89383" lon="3.03182">
        <ele>661</ele>
        <time>1970-01-01T01:20:54.000Z</time>
      </trkpt>
      <trkpt lat="45.89384" lon="3.03182">
        <ele>661</ele>
        <time>1970-01-01T01:20:56.000Z</time>
      </trkpt>
      <trkpt lat="45.89384" lon="3.03181">
        <ele>661</ele>
        <time>1970-01-01T01:20:57.000Z</time>
      </trkpt>
      <trkpt lat="45.89384" lon="3.0318">
        <ele>661</ele>
        <time>1970-01-01T01:20:59.000Z</time>
      </trkpt>
      <trkpt lat="45.89384" lon="3.0318">
        <ele>661</ele>
        <time>1970-01-01T01:21:00.000Z</time>
      </trkpt>
      <trkpt lat="45.89385" lon="3.03176">
        <ele>661.1</ele>
        <time>1970-01-01T01:21:01.000Z</time>
      </trkpt>
      <trkpt lat="45.89386" lon="3.03171">
        <ele>661.1</ele>
        <time>1970-01-01T01:21:02.000Z</time>
      </trkpt>
      <trkpt lat="45.89387" lon="3.03167">
        <ele>661.2</ele>
        <time>1970-01-01T01:21:03.000Z</time>
      </trkpt>
      <trkpt lat="45.89387" lon="3.03166">
        <ele>661.2</ele>
        <time>1970-01-01T01:21:04.000Z</time>
      </trkpt>
      <trkpt lat="45.89387" lon="3.03166">
        <ele>661.2</ele>
        <time>1970-01-01T01:21:05.000Z</time>
      </trkpt>
      <trkpt lat="45.89387" lon="3.03167">
        <ele>661.2</ele>
        <time>1970-01-01T01:21:06.000Z</time>
      </trkpt>
      <trkpt lat="45.89387" lon="3.03167">
        <ele>661.2</ele>
        <time>1970-01-01T01:21:07.000Z</time>
      </trkpt>
      <trkpt lat="45.89387" lon="3.03167">
        <ele>661.2</ele>
        <time>1970-01-01T01:21:08.000Z</time>
      </trkpt>
      <trkpt lat="45.89387" lon="3.03167">
        <ele>661.2</ele>
        <time>1970-01-01T01:21:09.000Z</time>
      </trkpt>
      <trkpt lat="45.89387" lon="3.03167">
        <ele>661.2</ele>
        <time>1970-01-01T01:21:10.000Z</time>
      </trkpt>
      <trkpt lat="45.89387" lon="3.03167">
        <ele>661.2</ele>
        <time>1970-01-01T01:21:11.000Z</time>
      </trkpt>
      <trkpt lat="45.89387" lon="3.03167">
        <ele>661.2</ele>
        <time>1970-01-01T01:21:13.000Z</time>
      </trkpt>
      <trkpt lat="45.89387" lon="3.03167">
        <ele>661.2</ele>
        <time>1970-01-01T01:21:14.000Z</time>
      </trkpt>
      <trkpt lat="45.89387" lon="3.03166">
        <ele>661.2</ele>
        <time>1970-01-01T01:21:15.000Z</time>
      </trkpt>
      <trkpt lat="45.89387" lon="3.03162">
        <ele>661.3</ele>
        <time>1970-01-01T01:21:16.000Z</time>
      </trkpt>
      <trkpt lat="45.89389" lon="3.03152">
        <ele>661.4</ele>
        <time>1970-01-01T01:21:18.000Z</time>
      </trkpt>
      <trkpt lat="45.89391" lon="3.03147">
        <ele>661.5</ele>
        <time>1970-01-01T01:21:19.000Z</time>
      </trkpt>
      <trkpt lat="45.89393" lon="3.0314">
        <ele>661.6</ele>
        <time>1970-01-01T01:21:21.000Z</time>
      </trkpt>
      <trkpt lat="45.89394" lon="3.03136">
        <ele>661.7</ele>
        <time>1970-01-01T01:21:22.000Z</time>
      </trkpt>
      <trkpt lat="45.89395" lon="3.0313">
        <ele>661.8</ele>
        <time>1970-01-01T01:21:23.000Z</time>
      </trkpt>
      <trkpt lat="45.89395" lon="3.03128">
        <ele>661.8</ele>
        <time>1970-01-01T01:21:24.000Z</time>
      </trkpt>
      <trkpt lat="45.89396" lon="3.03123">
        <ele>661.9</ele>
        <time>1970-01-01T01:21:25.000Z</time>
      </trkpt>
      <trkpt lat="45.89397" lon="3.03118">
        <ele>662</ele>
        <time>1970-01-01T01:21:26.000Z</time>
      </trkpt>
      <trkpt lat="45.89398" lon="3.03113">
        <ele>662.1</ele>
        <time>1970-01-01T01:21:27.000Z</time>
      </trkpt>
      <trkpt lat="45.89399" lon="3.03106">
        <ele>662.2</ele>
        <time>1970-01-01T01:21:28.000Z</time>
      </trkpt>
      <trkpt lat="45.89399" lon="3.03101">
        <ele>662.3</ele>
        <time>1970-01-01T01:21:30.000Z</time>
      </trkpt>
      <trkpt lat="45.894" lon="3.03097">
        <ele>662.3</ele>
        <time>1970-01-01T01:21:31.000Z</time>
      </trkpt>
      <trkpt lat="45.89401" lon="3.03093">
        <ele>662.4</ele>
        <time>1970-01-01T01:21:32.000Z</time>
      </trkpt>
      <trkpt lat="45.89402" lon="3.03087">
        <ele>662.5</ele>
        <time>1970-01-01T01:21:33.000Z</time>
      </trkpt>
      <trkpt lat="45.89403" lon="3.03085">
        <ele>662.6</ele>
        <time>1970-01-01T01:21:34.000Z</time>
      </trkpt>
      <trkpt lat="45.89405" lon="3.03081">
        <ele>662.7</ele>
        <time>1970-01-01T01:21:35.000Z</time>
      </trkpt>
      <trkpt lat="45.89406" lon="3.03077">
        <ele>662.8</ele>
        <time>1970-01-01T01:21:36.000Z</time>
      </trkpt>
      <trkpt lat="45.89407" lon="3.03072">
        <ele>662.9</ele>
        <time>1970-01-01T01:21:37.000Z</time>
      </trkpt>
      <trkpt lat="45.8941" lon="3.03067">
        <ele>663</ele>
        <time>1970-01-01T01:21:38.000Z</time>
      </trkpt>
      <trkpt lat="45.89413" lon="3.03063">
        <ele>663.1</ele>
        <time>1970-01-01T01:21:40.000Z</time>
      </trkpt>
      <trkpt lat="45.89415" lon="3.03059">
        <ele>663.2</ele>
        <time>1970-01-01T01:21:41.000Z</time>
      </trkpt>
      <trkpt lat="45.89417" lon="3.03055">
        <ele>663.4</ele>
        <time>1970-01-01T01:21:42.000Z</time>
      </trkpt>
      <trkpt lat="45.89419" lon="3.0305">
        <ele>663.5</ele>
        <time>1970-01-01T01:21:43.000Z</time>
      </trkpt>
      <trkpt lat="45.89421" lon="3.03046">
        <ele>663.6</ele>
        <time>1970-01-01T01:21:44.000Z</time>
      </trkpt>
      <trkpt lat="45.89423" lon="3.03042">
        <ele>663.8</ele>
        <time>1970-01-01T01:21:45.000Z</time>
      </trkpt>
      <trkpt lat="45.89426" lon="3.03037">
        <ele>664</ele>
        <time>1970-01-01T01:21:46.000Z</time>
      </trkpt>
      <trkpt lat="45.89427" lon="3.03034">
        <ele>664.1</ele>
        <time>1970-01-01T01:21:47.000Z</time>
      </trkpt>
      <trkpt lat="45.89431" lon="3.03028">
        <ele>664.4</ele>
        <time>1970-01-01T01:21:49.000Z</time>
      </trkpt>
      <trkpt lat="45.89432" lon="3.03026">
        <ele>664.5</ele>
        <time>1970-01-01T01:21:50.000Z</time>
      </trkpt>
      <trkpt lat="45.89433" lon="3.03024">
        <ele>664.6</ele>
        <time>1970-01-01T01:21:51.000Z</time>
      </trkpt>
      <trkpt lat="45.89436" lon="3.03021">
        <ele>664.8</ele>
        <time>1970-01-01T01:21:52.000Z</time>
      </trkpt>
      <trkpt lat="45.89438" lon="3.03018">
        <ele>665</ele>
        <time>1970-01-01T01:21:53.000Z</time>
      </trkpt>
      <trkpt lat="45.89441" lon="3.03014">
        <ele>665.2</ele>
        <time>1970-01-01T01:21:54.000Z</time>
      </trkpt>
      <trkpt lat="45.89442" lon="3.03013">
        <ele>665.3</ele>
        <time>1970-01-01T01:21:55.000Z</time>
      </trkpt>
      <trkpt lat="45.89443" lon="3.03009">
        <ele>665.5</ele>
        <time>1970-01-01T01:21:56.000Z</time>
      </trkpt>
      <trkpt lat="45.89445" lon="3.03006">
        <ele>665.7</ele>
        <time>1970-01-01T01:21:57.000Z</time>
      </trkpt>
      <trkpt lat="45.89447" lon="3.03003">
        <ele>665.8</ele>
        <time>1970-01-01T01:21:58.000Z</time>
      </trkpt>
      <trkpt lat="45.89449" lon="3.02999">
        <ele>666.1</ele>
        <time>1970-01-01T01:22:00.000Z</time>
      </trkpt>
      <trkpt lat="45.8945" lon="3.02994">
        <ele>666.3</ele>
        <time>1970-01-01T01:22:01.000Z</time>
      </trkpt>
      <trkpt lat="45.8945" lon="3.02993">
        <ele>666.4</ele>
        <time>1970-01-01T01:22:02.000Z</time>
      </trkpt>
      <trkpt lat="45.89451" lon="3.02988">
        <ele>666.6</ele>
        <time>1970-01-01T01:22:03.000Z</time>
      </trkpt>
      <trkpt lat="45.89452" lon="3.02987">
        <ele>666.7</ele>
        <time>1970-01-01T01:22:04.000Z</time>
      </trkpt>
      <trkpt lat="45.89453" lon="3.02982">
        <ele>666.9</ele>
        <time>1970-01-01T01:22:05.000Z</time>
      </trkpt>
      <trkpt lat="45.89453" lon="3.0298">
        <ele>667</ele>
        <time>1970-01-01T01:22:06.000Z</time>
      </trkpt>
      <trkpt lat="45.89454" lon="3.02976">
        <ele>667.2</ele>
        <time>1970-01-01T01:22:07.000Z</time>
      </trkpt>
      <trkpt lat="45.89455" lon="3.0297">
        <ele>667.4</ele>
        <time>1970-01-01T01:22:09.000Z</time>
      </trkpt>
      <trkpt lat="45.89456" lon="3.02968">
        <ele>667.5</ele>
        <time>1970-01-01T01:22:10.000Z</time>
      </trkpt>
      <trkpt lat="45.89457" lon="3.02964">
        <ele>667.7</ele>
        <time>1970-01-01T01:22:11.000Z</time>
      </trkpt>
      <trkpt lat="45.89458" lon="3.02959">
        <ele>667.9</ele>
        <time>1970-01-01T01:22:12.000Z</time>
      </trkpt>
      <trkpt lat="45.89459" lon="3.02957">
        <ele>668</ele>
        <time>1970-01-01T01:22:13.000Z</time>
      </trkpt>
      <trkpt lat="45.89459" lon="3.02954">
        <ele>668.2</ele>
        <time>1970-01-01T01:22:14.000Z</time>
      </trkpt>
      <trkpt lat="45.89459" lon="3.02949">
        <ele>668.4</ele>
        <time>1970-01-01T01:22:16.000Z</time>
      </trkpt>
      <trkpt lat="45.8946" lon="3.02942">
        <ele>668.7</ele>
        <time>1970-01-01T01:22:18.000Z</time>
      </trkpt>
      <trkpt lat="45.89461" lon="3.02938">
        <ele>668.9</ele>
        <time>1970-01-01T01:22:19.000Z</time>
      </trkpt>
      <trkpt lat="45.89461" lon="3.02937">
        <ele>669</ele>
        <time>1970-01-01T01:22:20.000Z</time>
      </trkpt>
      <trkpt lat="45.89463" lon="3.02932">
        <ele>669.3</ele>
        <time>1970-01-01T01:22:21.000Z</time>
      </trkpt>
      <trkpt lat="45.89463" lon="3.0293">
        <ele>669.4</ele>
        <time>1970-01-01T01:22:22.000Z</time>
      </trkpt>
      <trkpt lat="45.89464" lon="3.02926">
        <ele>669.6</ele>
        <time>1970-01-01T01:22:23.000Z</time>
      </trkpt>
      <trkpt lat="45.89464" lon="3.02925">
        <ele>669.7</ele>
        <time>1970-01-01T01:22:24.000Z</time>
      </trkpt>
      <trkpt lat="45.89466" lon="3.02919">
        <ele>670.1</ele>
        <time>1970-01-01T01:22:26.000Z</time>
      </trkpt>
      <trkpt lat="45.89467" lon="3.02917">
        <ele>670.2</ele>
        <time>1970-01-01T01:22:27.000Z</time>
      </trkpt>
      <trkpt lat="45.89467" lon="3.02915">
        <ele>670.3</ele>
        <time>1970-01-01T01:22:28.000Z</time>
      </trkpt>
      <trkpt lat="45.89468" lon="3.02912">
        <ele>670.5</ele>
        <time>1970-01-01T01:22:29.000Z</time>
      </trkpt>
      <trkpt lat="45.89468" lon="3.0291">
        <ele>670.6</ele>
        <time>1970-01-01T01:22:30.000Z</time>
      </trkpt>
      <trkpt lat="45.89469" lon="3.02908">
        <ele>670.7</ele>
        <time>1970-01-01T01:22:31.000Z</time>
      </trkpt>
      <trkpt lat="45.89469" lon="3.02906">
        <ele>670.8</ele>
        <time>1970-01-01T01:22:32.000Z</time>
      </trkpt>
      <trkpt lat="45.8947" lon="3.02904">
        <ele>670.9</ele>
        <time>1970-01-01T01:22:33.000Z</time>
      </trkpt>
      <trkpt lat="45.8947" lon="3.02902">
        <ele>671</ele>
        <time>1970-01-01T01:22:35.000Z</time>
      </trkpt>
      <trkpt lat="45.89471" lon="3.02899">
        <ele>671.2</ele>
        <time>1970-01-01T01:22:36.000Z</time>
      </trkpt>
      <trkpt lat="45.89471" lon="3.02895">
        <ele>671.4</ele>
        <time>1970-01-01T01:22:37.000Z</time>
      </trkpt>
      <trkpt lat="45.89471" lon="3.02893">
        <ele>671.4</ele>
        <time>1970-01-01T01:22:38.000Z</time>
      </trkpt>
      <trkpt lat="45.89471" lon="3.02891">
        <ele>671.5</ele>
        <time>1970-01-01T01:22:39.000Z</time>
      </trkpt>
      <trkpt lat="45.89472" lon="3.02889">
        <ele>671.6</ele>
        <time>1970-01-01T01:22:40.000Z</time>
      </trkpt>
      <trkpt lat="45.89472" lon="3.02886">
        <ele>671.8</ele>
        <time>1970-01-01T01:22:42.000Z</time>
      </trkpt>
      <trkpt lat="45.89473" lon="3.02881">
        <ele>672.1</ele>
        <time>1970-01-01T01:22:43.000Z</time>
      </trkpt>
      <trkpt lat="45.89473" lon="3.02879">
        <ele>672.1</ele>
        <time>1970-01-01T01:22:44.000Z</time>
      </trkpt>
      <trkpt lat="45.89474" lon="3.02874">
        <ele>672.4</ele>
        <time>1970-01-01T01:22:45.000Z</time>
      </trkpt>
      <trkpt lat="45.89475" lon="3.02872">
        <ele>672.5</ele>
        <time>1970-01-01T01:22:46.000Z</time>
      </trkpt>
      <trkpt lat="45.89475" lon="3.02867">
        <ele>672.7</ele>
        <time>1970-01-01T01:22:47.000Z</time>
      </trkpt>
      <trkpt lat="45.89475" lon="3.02866">
        <ele>672.8</ele>
        <time>1970-01-01T01:22:48.000Z</time>
      </trkpt>
      <trkpt lat="45.89476" lon="3.02864">
        <ele>672.9</ele>
        <time>1970-01-01T01:22:49.000Z</time>
      </trkpt>
      <trkpt lat="45.89476" lon="3.02861">
        <ele>673</ele>
        <time>1970-01-01T01:22:50.000Z</time>
      </trkpt>
      <trkpt lat="45.89476" lon="3.02859">
        <ele>673.1</ele>
        <time>1970-01-01T01:22:51.000Z</time>
      </trkpt>
      <trkpt lat="45.89476" lon="3.02854">
        <ele>673.4</ele>
        <time>1970-01-01T01:22:53.000Z</time>
      </trkpt>
      <trkpt lat="45.89477" lon="3.02851">
        <ele>673.6</ele>
        <time>1970-01-01T01:22:54.000Z</time>
      </trkpt>
      <trkpt lat="45.89478" lon="3.0285">
        <ele>673.6</ele>
        <time>1970-01-01T01:22:55.000Z</time>
      </trkpt>
      <trkpt lat="45.89479" lon="3.02846">
        <ele>673.9</ele>
        <time>1970-01-01T01:22:56.000Z</time>
      </trkpt>
      <trkpt lat="45.89481" lon="3.02842">
        <ele>674.1</ele>
        <time>1970-01-01T01:22:58.000Z</time>
      </trkpt>
      <trkpt lat="45.89481" lon="3.02841">
        <ele>674.2</ele>
        <time>1970-01-01T01:22:59.000Z</time>
      </trkpt>
      <trkpt lat="45.89482" lon="3.02838">
        <ele>674.4</ele>
        <time>1970-01-01T01:23:00.000Z</time>
      </trkpt>
      <trkpt lat="45.89482" lon="3.02836">
        <ele>674.5</ele>
        <time>1970-01-01T01:23:01.000Z</time>
      </trkpt>
      <trkpt lat="45.89483" lon="3.02833">
        <ele>674.7</ele>
        <time>1970-01-01T01:23:03.000Z</time>
      </trkpt>
      <trkpt lat="45.89485" lon="3.02829">
        <ele>674.9</ele>
        <time>1970-01-01T01:23:04.000Z</time>
      </trkpt>
      <trkpt lat="45.89485" lon="3.02828">
        <ele>675</ele>
        <time>1970-01-01T01:23:05.000Z</time>
      </trkpt>
      <trkpt lat="45.89486" lon="3.02826">
        <ele>675.1</ele>
        <time>1970-01-01T01:23:06.000Z</time>
      </trkpt>
      <trkpt lat="45.89488" lon="3.02822">
        <ele>675.4</ele>
        <time>1970-01-01T01:23:08.000Z</time>
      </trkpt>
      <trkpt lat="45.89489" lon="3.02819">
        <ele>675.5</ele>
        <time>1970-01-01T01:23:10.000Z</time>
      </trkpt>
      <trkpt lat="45.8949" lon="3.02815">
        <ele>675.7</ele>
        <time>1970-01-01T01:23:11.000Z</time>
      </trkpt>
      <trkpt lat="45.89491" lon="3.02813">
        <ele>675.8</ele>
        <time>1970-01-01T01:23:12.000Z</time>
      </trkpt>
      <trkpt lat="45.89491" lon="3.02812">
        <ele>675.9</ele>
        <time>1970-01-01T01:23:13.000Z</time>
      </trkpt>
      <trkpt lat="45.89493" lon="3.02809">
        <ele>676</ele>
        <time>1970-01-01T01:23:14.000Z</time>
      </trkpt>
      <trkpt lat="45.89494" lon="3.02805">
        <ele>676.2</ele>
        <time>1970-01-01T01:23:15.000Z</time>
      </trkpt>
      <trkpt lat="45.89495" lon="3.02804">
        <ele>676.3</ele>
        <time>1970-01-01T01:23:16.000Z</time>
      </trkpt>
      <trkpt lat="45.89495" lon="3.02802">
        <ele>676.4</ele>
        <time>1970-01-01T01:23:17.000Z</time>
      </trkpt>
      <trkpt lat="45.89497" lon="3.02797">
        <ele>676.6</ele>
        <time>1970-01-01T01:23:19.000Z</time>
      </trkpt>
      <trkpt lat="45.89499" lon="3.02793">
        <ele>676.8</ele>
        <time>1970-01-01T01:23:20.000Z</time>
      </trkpt>
      <trkpt lat="45.895" lon="3.02792">
        <ele>676.9</ele>
        <time>1970-01-01T01:23:21.000Z</time>
      </trkpt>
      <trkpt lat="45.89503" lon="3.02789">
        <ele>677</ele>
        <time>1970-01-01T01:23:22.000Z</time>
      </trkpt>
      <trkpt lat="45.89504" lon="3.02787">
        <ele>677.1</ele>
        <time>1970-01-01T01:23:23.000Z</time>
      </trkpt>
      <trkpt lat="45.89506" lon="3.02784">
        <ele>677.3</ele>
        <time>1970-01-01T01:23:25.000Z</time>
      </trkpt>
      <trkpt lat="45.89507" lon="3.02783">
        <ele>677.3</ele>
        <time>1970-01-01T01:23:26.000Z</time>
      </trkpt>
      <trkpt lat="45.89509" lon="3.02779">
        <ele>677.5</ele>
        <time>1970-01-01T01:23:27.000Z</time>
      </trkpt>
      <trkpt lat="45.8951" lon="3.02778">
        <ele>677.5</ele>
        <time>1970-01-01T01:23:28.000Z</time>
      </trkpt>
      <trkpt lat="45.89512" lon="3.02776">
        <ele>677.7</ele>
        <time>1970-01-01T01:23:29.000Z</time>
      </trkpt>
      <trkpt lat="45.89513" lon="3.02774">
        <ele>677.7</ele>
        <time>1970-01-01T01:23:30.000Z</time>
      </trkpt>
      <trkpt lat="45.89514" lon="3.02771">
        <ele>677.9</ele>
        <time>1970-01-01T01:23:31.000Z</time>
      </trkpt>
      <trkpt lat="45.89516" lon="3.02768">
        <ele>678</ele>
        <time>1970-01-01T01:23:33.000Z</time>
      </trkpt>
      <trkpt lat="45.89518" lon="3.02764">
        <ele>678.2</ele>
        <time>1970-01-01T01:23:34.000Z</time>
      </trkpt>
      <trkpt lat="45.8952" lon="3.02762">
        <ele>678.3</ele>
        <time>1970-01-01T01:23:35.000Z</time>
      </trkpt>
      <trkpt lat="45.89522" lon="3.02758">
        <ele>678.5</ele>
        <time>1970-01-01T01:23:36.000Z</time>
      </trkpt>
      <trkpt lat="45.89524" lon="3.02756">
        <ele>678.6</ele>
        <time>1970-01-01T01:23:37.000Z</time>
      </trkpt>
      <trkpt lat="45.89526" lon="3.02753">
        <ele>678.8</ele>
        <time>1970-01-01T01:23:38.000Z</time>
      </trkpt>
      <trkpt lat="45.89527" lon="3.02752">
        <ele>678.9</ele>
        <time>1970-01-01T01:23:39.000Z</time>
      </trkpt>
      <trkpt lat="45.8953" lon="3.02749">
        <ele>679.2</ele>
        <time>1970-01-01T01:23:40.000Z</time>
      </trkpt>
      <trkpt lat="45.89531" lon="3.02748">
        <ele>679.2</ele>
        <time>1970-01-01T01:23:41.000Z</time>
      </trkpt>
      <trkpt lat="45.89533" lon="3.02744">
        <ele>679.4</ele>
        <time>1970-01-01T01:23:42.000Z</time>
      </trkpt>
      <trkpt lat="45.89534" lon="3.02743">
        <ele>679.5</ele>
        <time>1970-01-01T01:23:43.000Z</time>
      </trkpt>
      <trkpt lat="45.89535" lon="3.02742">
        <ele>679.7</ele>
        <time>1970-01-01T01:23:44.000Z</time>
      </trkpt>
      <trkpt lat="45.89537" lon="3.02739">
        <ele>679.9</ele>
        <time>1970-01-01T01:23:46.000Z</time>
      </trkpt>
      <trkpt lat="45.89538" lon="3.02738">
        <ele>680</ele>
        <time>1970-01-01T01:23:47.000Z</time>
      </trkpt>
      <trkpt lat="45.89539" lon="3.02737">
        <ele>680.1</ele>
        <time>1970-01-01T01:23:48.000Z</time>
      </trkpt>
      <trkpt lat="45.89543" lon="3.02733">
        <ele>680.5</ele>
        <time>1970-01-01T01:23:50.000Z</time>
      </trkpt>
      <trkpt lat="45.89544" lon="3.02732">
        <ele>680.6</ele>
        <time>1970-01-01T01:23:52.000Z</time>
      </trkpt>
      <trkpt lat="45.89545" lon="3.02731">
        <ele>680.7</ele>
        <time>1970-01-01T01:23:53.000Z</time>
      </trkpt>
      <trkpt lat="45.89546" lon="3.0273">
        <ele>680.8</ele>
        <time>1970-01-01T01:23:54.000Z</time>
      </trkpt>
      <trkpt lat="45.89548" lon="3.02729">
        <ele>681</ele>
        <time>1970-01-01T01:23:55.000Z</time>
      </trkpt>
      <trkpt lat="45.8955" lon="3.02729">
        <ele>681.1</ele>
        <time>1970-01-01T01:23:57.000Z</time>
      </trkpt>
      <trkpt lat="45.89551" lon="3.02728">
        <ele>681.2</ele>
        <time>1970-01-01T01:23:58.000Z</time>
      </trkpt>
      <trkpt lat="45.89552" lon="3.02728">
        <ele>681.3</ele>
        <time>1970-01-01T01:23:59.000Z</time>
      </trkpt>
      <trkpt lat="45.89556" lon="3.02727">
        <ele>681.7</ele>
        <time>1970-01-01T01:24:00.000Z</time>
      </trkpt>
      <trkpt lat="45.89558" lon="3.02727">
        <ele>681.8</ele>
        <time>1970-01-01T01:24:01.000Z</time>
      </trkpt>
      <trkpt lat="45.89561" lon="3.02727">
        <ele>682.1</ele>
        <time>1970-01-01T01:24:02.000Z</time>
      </trkpt>
      <trkpt lat="45.89562" lon="3.02727">
        <ele>682.2</ele>
        <time>1970-01-01T01:24:03.000Z</time>
      </trkpt>
      <trkpt lat="45.89565" lon="3.02727">
        <ele>682.5</ele>
        <time>1970-01-01T01:24:05.000Z</time>
      </trkpt>
      <trkpt lat="45.89566" lon="3.02727">
        <ele>682.6</ele>
        <time>1970-01-01T01:24:06.000Z</time>
      </trkpt>
      <trkpt lat="45.89568" lon="3.02727">
        <ele>682.9</ele>
        <time>1970-01-01T01:24:07.000Z</time>
      </trkpt>
      <trkpt lat="45.8957" lon="3.02727">
        <ele>683.1</ele>
        <time>1970-01-01T01:24:09.000Z</time>
      </trkpt>
      <trkpt lat="45.89572" lon="3.02728">
        <ele>683.3</ele>
        <time>1970-01-01T01:24:10.000Z</time>
      </trkpt>
      <trkpt lat="45.89575" lon="3.02728">
        <ele>683.6</ele>
        <time>1970-01-01T01:24:12.000Z</time>
      </trkpt>
      <trkpt lat="45.89578" lon="3.02727">
        <ele>684</ele>
        <time>1970-01-01T01:24:13.000Z</time>
      </trkpt>
      <trkpt lat="45.89579" lon="3.02726">
        <ele>684.1</ele>
        <time>1970-01-01T01:24:14.000Z</time>
      </trkpt>
      <trkpt lat="45.89582" lon="3.02723">
        <ele>684.5</ele>
        <time>1970-01-01T01:24:15.000Z</time>
      </trkpt>
      <trkpt lat="45.89584" lon="3.02721">
        <ele>685.8</ele>
        <time>1970-01-01T01:24:16.000Z</time>
      </trkpt>
      <trkpt lat="45.89585" lon="3.02719">
        <ele>685.8</ele>
        <time>1970-01-01T01:24:18.000Z</time>
      </trkpt>
      <trkpt lat="45.89586" lon="3.02717">
        <ele>685.8</ele>
        <time>1970-01-01T01:24:19.000Z</time>
      </trkpt>
      <trkpt lat="45.89586" lon="3.02712">
        <ele>685.8</ele>
        <time>1970-01-01T01:24:21.000Z</time>
      </trkpt>
      <trkpt lat="45.89586" lon="3.02712">
        <ele>685.8</ele>
        <time>1970-01-01T01:24:22.000Z</time>
      </trkpt>
      <trkpt lat="45.89585" lon="3.02709">
        <ele>685.8</ele>
        <time>1970-01-01T01:24:23.000Z</time>
      </trkpt>
      <trkpt lat="45.89585" lon="3.02708">
        <ele>686</ele>
        <time>1970-01-01T01:24:24.000Z</time>
      </trkpt>
      <trkpt lat="45.89584" lon="3.02705">
        <ele>686.2</ele>
        <time>1970-01-01T01:24:25.000Z</time>
      </trkpt>
      <trkpt lat="45.89584" lon="3.02704">
        <ele>686.3</ele>
        <time>1970-01-01T01:24:26.000Z</time>
      </trkpt>
      <trkpt lat="45.89584" lon="3.02703">
        <ele>686.3</ele>
        <time>1970-01-01T01:24:27.000Z</time>
      </trkpt>
      <trkpt lat="45.89583" lon="3.02701">
        <ele>686.5</ele>
        <time>1970-01-01T01:24:28.000Z</time>
      </trkpt>
      <trkpt lat="45.89582" lon="3.02699">
        <ele>686.6</ele>
        <time>1970-01-01T01:24:29.000Z</time>
      </trkpt>
      <trkpt lat="45.89581" lon="3.02698">
        <ele>686.8</ele>
        <time>1970-01-01T01:24:30.000Z</time>
      </trkpt>
      <trkpt lat="45.8958" lon="3.02695">
        <ele>687</ele>
        <time>1970-01-01T01:24:31.000Z</time>
      </trkpt>
      <trkpt lat="45.89579" lon="3.02693">
        <ele>687.2</ele>
        <time>1970-01-01T01:24:33.000Z</time>
      </trkpt>
      <trkpt lat="45.89578" lon="3.02692">
        <ele>687.3</ele>
        <time>1970-01-01T01:24:34.000Z</time>
      </trkpt>
      <trkpt lat="45.89578" lon="3.02691">
        <ele>687.4</ele>
        <time>1970-01-01T01:24:35.000Z</time>
      </trkpt>
      <trkpt lat="45.89577" lon="3.0269">
        <ele>687.6</ele>
        <time>1970-01-01T01:24:36.000Z</time>
      </trkpt>
      <trkpt lat="45.89575" lon="3.02688">
        <ele>687.7</ele>
        <time>1970-01-01T01:24:37.000Z</time>
      </trkpt>
      <trkpt lat="45.89575" lon="3.02687">
        <ele>687.9</ele>
        <time>1970-01-01T01:24:38.000Z</time>
      </trkpt>
      <trkpt lat="45.89574" lon="3.02685">
        <ele>688.1</ele>
        <time>1970-01-01T01:24:39.000Z</time>
      </trkpt>
      <trkpt lat="45.89572" lon="3.02683">
        <ele>688.3</ele>
        <time>1970-01-01T01:24:41.000Z</time>
      </trkpt>
      <trkpt lat="45.89572" lon="3.02682">
        <ele>688.4</ele>
        <time>1970-01-01T01:24:42.000Z</time>
      </trkpt>
      <trkpt lat="45.89571" lon="3.02681">
        <ele>688.5</ele>
        <time>1970-01-01T01:24:43.000Z</time>
      </trkpt>
      <trkpt lat="45.8957" lon="3.02679">
        <ele>688.7</ele>
        <time>1970-01-01T01:24:44.000Z</time>
      </trkpt>
      <trkpt lat="45.89569" lon="3.02677">
        <ele>688.8</ele>
        <time>1970-01-01T01:24:45.000Z</time>
      </trkpt>
      <trkpt lat="45.89569" lon="3.02676">
        <ele>688.9</ele>
        <time>1970-01-01T01:24:46.000Z</time>
      </trkpt>
      <trkpt lat="45.89567" lon="3.02675">
        <ele>689.1</ele>
        <time>1970-01-01T01:24:48.000Z</time>
      </trkpt>
      <trkpt lat="45.89566" lon="3.02673">
        <ele>689.3</ele>
        <time>1970-01-01T01:24:49.000Z</time>
      </trkpt>
      <trkpt lat="45.89565" lon="3.02671">
        <ele>689.4</ele>
        <time>1970-01-01T01:24:51.000Z</time>
      </trkpt>
      <trkpt lat="45.89564" lon="3.0267">
        <ele>689.6</ele>
        <time>1970-01-01T01:24:52.000Z</time>
      </trkpt>
      <trkpt lat="45.89562" lon="3.02667">
        <ele>689.8</ele>
        <time>1970-01-01T01:24:53.000Z</time>
      </trkpt>
      <trkpt lat="45.89561" lon="3.02666">
        <ele>689.9</ele>
        <time>1970-01-01T01:24:55.000Z</time>
      </trkpt>
      <trkpt lat="45.8956" lon="3.02664">
        <ele>690</ele>
        <time>1970-01-01T01:24:56.000Z</time>
      </trkpt>
      <trkpt lat="45.89559" lon="3.02663">
        <ele>690.1</ele>
        <time>1970-01-01T01:24:57.000Z</time>
      </trkpt>
      <trkpt lat="45.89558" lon="3.02661">
        <ele>690.1</ele>
        <time>1970-01-01T01:24:58.000Z</time>
      </trkpt>
      <trkpt lat="45.89556" lon="3.02659">
        <ele>690.3</ele>
        <time>1970-01-01T01:24:59.000Z</time>
      </trkpt>
      <trkpt lat="45.89555" lon="3.02658">
        <ele>690.3</ele>
        <time>1970-01-01T01:25:00.000Z</time>
      </trkpt>
      <trkpt lat="45.89553" lon="3.02654">
        <ele>690.4</ele>
        <time>1970-01-01T01:25:02.000Z</time>
      </trkpt>
      <trkpt lat="45.8955" lon="3.02651">
        <ele>690.5</ele>
        <time>1970-01-01T01:25:03.000Z</time>
      </trkpt>
      <trkpt lat="45.89548" lon="3.02648">
        <ele>690.5</ele>
        <time>1970-01-01T01:25:04.000Z</time>
      </trkpt>
      <trkpt lat="45.89546" lon="3.02645">
        <ele>690.5</ele>
        <time>1970-01-01T01:25:05.000Z</time>
      </trkpt>
      <trkpt lat="45.89544" lon="3.02641">
        <ele>690.4</ele>
        <time>1970-01-01T01:25:06.000Z</time>
      </trkpt>
      <trkpt lat="45.89543" lon="3.02636">
        <ele>690.3</ele>
        <time>1970-01-01T01:25:07.000Z</time>
      </trkpt>
      <trkpt lat="45.89542" lon="3.0263">
        <ele>690.2</ele>
        <time>1970-01-01T01:25:09.000Z</time>
      </trkpt>
      <trkpt lat="45.89541" lon="3.02624">
        <ele>690.1</ele>
        <time>1970-01-01T01:25:10.000Z</time>
      </trkpt>
      <trkpt lat="45.89541" lon="3.02622">
        <ele>690</ele>
        <time>1970-01-01T01:25:11.000Z</time>
      </trkpt>
      <trkpt lat="45.89541" lon="3.02616">
        <ele>689.9</ele>
        <time>1970-01-01T01:25:12.000Z</time>
      </trkpt>
      <trkpt lat="45.89539" lon="3.02609">
        <ele>689.7</ele>
        <time>1970-01-01T01:25:13.000Z</time>
      </trkpt>
      <trkpt lat="45.89538" lon="3.02604">
        <ele>689.6</ele>
        <time>1970-01-01T01:25:14.000Z</time>
      </trkpt>
      <trkpt lat="45.89538" lon="3.02598">
        <ele>689.5</ele>
        <time>1970-01-01T01:25:15.000Z</time>
      </trkpt>
      <trkpt lat="45.89538" lon="3.02593">
        <ele>689.4</ele>
        <time>1970-01-01T01:25:16.000Z</time>
      </trkpt>
      <trkpt lat="45.89536" lon="3.02587">
        <ele>689.3</ele>
        <time>1970-01-01T01:25:17.000Z</time>
      </trkpt>
      <trkpt lat="45.89534" lon="3.02581">
        <ele>689.3</ele>
        <time>1970-01-01T01:25:18.000Z</time>
      </trkpt>
      <trkpt lat="45.89533" lon="3.02576">
        <ele>689.3</ele>
        <time>1970-01-01T01:25:19.000Z</time>
      </trkpt>
      <trkpt lat="45.89532" lon="3.02571">
        <ele>689.3</ele>
        <time>1970-01-01T01:25:20.000Z</time>
      </trkpt>
      <trkpt lat="45.89532" lon="3.02565">
        <ele>689.4</ele>
        <time>1970-01-01T01:25:21.000Z</time>
      </trkpt>
      <trkpt lat="45.89533" lon="3.0256">
        <ele>689.4</ele>
        <time>1970-01-01T01:25:22.000Z</time>
      </trkpt>
      <trkpt lat="45.89534" lon="3.02555">
        <ele>689.6</ele>
        <time>1970-01-01T01:25:23.000Z</time>
      </trkpt>
      <trkpt lat="45.89535" lon="3.02547">
        <ele>689.8</ele>
        <time>1970-01-01T01:25:24.000Z</time>
      </trkpt>
      <trkpt lat="45.89536" lon="3.0254">
        <ele>690.1</ele>
        <time>1970-01-01T01:25:26.000Z</time>
      </trkpt>
      <trkpt lat="45.89538" lon="3.02535">
        <ele>690.4</ele>
        <time>1970-01-01T01:25:27.000Z</time>
      </trkpt>
      <trkpt lat="45.8954" lon="3.0253">
        <ele>690.7</ele>
        <time>1970-01-01T01:25:28.000Z</time>
      </trkpt>
      <trkpt lat="45.89541" lon="3.02529">
        <ele>690.8</ele>
        <time>1970-01-01T01:25:29.000Z</time>
      </trkpt>
      <trkpt lat="45.89543" lon="3.02525">
        <ele>691.1</ele>
        <time>1970-01-01T01:25:30.000Z</time>
      </trkpt>
      <trkpt lat="45.89544" lon="3.02521">
        <ele>691.4</ele>
        <time>1970-01-01T01:25:31.000Z</time>
      </trkpt>
      <trkpt lat="45.89546" lon="3.02514">
        <ele>691.9</ele>
        <time>1970-01-01T01:25:33.000Z</time>
      </trkpt>
      <trkpt lat="45.89547" lon="3.02509">
        <ele>692.2</ele>
        <time>1970-01-01T01:25:34.000Z</time>
      </trkpt>
      <trkpt lat="45.89548" lon="3.02504">
        <ele>692.5</ele>
        <time>1970-01-01T01:25:35.000Z</time>
      </trkpt>
      <trkpt lat="45.89548" lon="3.02503">
        <ele>692.6</ele>
        <time>1970-01-01T01:25:36.000Z</time>
      </trkpt>
      <trkpt lat="45.89549" lon="3.02498">
        <ele>692.9</ele>
        <time>1970-01-01T01:25:37.000Z</time>
      </trkpt>
      <trkpt lat="45.8955" lon="3.02496">
        <ele>693</ele>
        <time>1970-01-01T01:25:38.000Z</time>
      </trkpt>
      <trkpt lat="45.89551" lon="3.02491">
        <ele>693.2</ele>
        <time>1970-01-01T01:25:39.000Z</time>
      </trkpt>
      <trkpt lat="45.89551" lon="3.02489">
        <ele>693.3</ele>
        <time>1970-01-01T01:25:40.000Z</time>
      </trkpt>
      <trkpt lat="45.89551" lon="3.02484">
        <ele>693.5</ele>
        <time>1970-01-01T01:25:41.000Z</time>
      </trkpt>
      <trkpt lat="45.89551" lon="3.02482">
        <ele>693.6</ele>
        <time>1970-01-01T01:25:42.000Z</time>
      </trkpt>
      <trkpt lat="45.89552" lon="3.02478">
        <ele>693.7</ele>
        <time>1970-01-01T01:25:43.000Z</time>
      </trkpt>
      <trkpt lat="45.89552" lon="3.02473">
        <ele>693.9</ele>
        <time>1970-01-01T01:25:44.000Z</time>
      </trkpt>
      <trkpt lat="45.89552" lon="3.02466">
        <ele>694</ele>
        <time>1970-01-01T01:25:45.000Z</time>
      </trkpt>
      <trkpt lat="45.89551" lon="3.02461">
        <ele>694.2</ele>
        <time>1970-01-01T01:25:47.000Z</time>
      </trkpt>
      <trkpt lat="45.8955" lon="3.02457">
        <ele>694.3</ele>
        <time>1970-01-01T01:25:48.000Z</time>
      </trkpt>
      <trkpt lat="45.89549" lon="3.02452">
        <ele>694.4</ele>
        <time>1970-01-01T01:25:49.000Z</time>
      </trkpt>
      <trkpt lat="45.89549" lon="3.0245">
        <ele>694.5</ele>
        <time>1970-01-01T01:25:50.000Z</time>
      </trkpt>
      <trkpt lat="45.89548" lon="3.02445">
        <ele>694.6</ele>
        <time>1970-01-01T01:25:51.000Z</time>
      </trkpt>
      <trkpt lat="45.89548" lon="3.0244">
        <ele>694.8</ele>
        <time>1970-01-01T01:25:52.000Z</time>
      </trkpt>
      <trkpt lat="45.89547" lon="3.02433">
        <ele>694.9</ele>
        <time>1970-01-01T01:25:53.000Z</time>
      </trkpt>
      <trkpt lat="45.89546" lon="3.02428">
        <ele>695.1</ele>
        <time>1970-01-01T01:25:55.000Z</time>
      </trkpt>
      <trkpt lat="45.89545" lon="3.02422">
        <ele>695.3</ele>
        <time>1970-01-01T01:25:56.000Z</time>
      </trkpt>
      <trkpt lat="45.89546" lon="3.02414">
        <ele>695.6</ele>
        <time>1970-01-01T01:25:57.000Z</time>
      </trkpt>
      <trkpt lat="45.89546" lon="3.02409">
        <ele>695.7</ele>
        <time>1970-01-01T01:25:58.000Z</time>
      </trkpt>
      <trkpt lat="45.89547" lon="3.02404">
        <ele>696</ele>
        <time>1970-01-01T01:26:00.000Z</time>
      </trkpt>
      <trkpt lat="45.89547" lon="3.02398">
        <ele>696.2</ele>
        <time>1970-01-01T01:26:01.000Z</time>
      </trkpt>
      <trkpt lat="45.89547" lon="3.02396">
        <ele>696.3</ele>
        <time>1970-01-01T01:26:02.000Z</time>
      </trkpt>
      <trkpt lat="45.89546" lon="3.02392">
        <ele>696.5</ele>
        <time>1970-01-01T01:26:03.000Z</time>
      </trkpt>
      <trkpt lat="45.89545" lon="3.02387">
        <ele>696.8</ele>
        <time>1970-01-01T01:26:04.000Z</time>
      </trkpt>
      <trkpt lat="45.89545" lon="3.02385">
        <ele>696.9</ele>
        <time>1970-01-01T01:26:05.000Z</time>
      </trkpt>
      <trkpt lat="45.89545" lon="3.0238">
        <ele>697.1</ele>
        <time>1970-01-01T01:26:06.000Z</time>
      </trkpt>
      <trkpt lat="45.89545" lon="3.02375">
        <ele>697.3</ele>
        <time>1970-01-01T01:26:08.000Z</time>
      </trkpt>
      <trkpt lat="45.89544" lon="3.02373">
        <ele>697.4</ele>
        <time>1970-01-01T01:26:09.000Z</time>
      </trkpt>
      <trkpt lat="45.89543" lon="3.0237">
        <ele>697.6</ele>
        <time>1970-01-01T01:26:10.000Z</time>
      </trkpt>
      <trkpt lat="45.89542" lon="3.02366">
        <ele>697.7</ele>
        <time>1970-01-01T01:26:11.000Z</time>
      </trkpt>
      <trkpt lat="45.89541" lon="3.02362">
        <ele>697.9</ele>
        <time>1970-01-01T01:26:12.000Z</time>
      </trkpt>
      <trkpt lat="45.89542" lon="3.02357">
        <ele>698.1</ele>
        <time>1970-01-01T01:26:13.000Z</time>
      </trkpt>
      <trkpt lat="45.89541" lon="3.02353">
        <ele>698.2</ele>
        <time>1970-01-01T01:26:14.000Z</time>
      </trkpt>
      <trkpt lat="45.89541" lon="3.02349">
        <ele>698.4</ele>
        <time>1970-01-01T01:26:15.000Z</time>
      </trkpt>
      <trkpt lat="45.89541" lon="3.02346">
        <ele>698.4</ele>
        <time>1970-01-01T01:26:16.000Z</time>
      </trkpt>
      <trkpt lat="45.8954" lon="3.02342">
        <ele>698.5</ele>
        <time>1970-01-01T01:26:18.000Z</time>
      </trkpt>
      <trkpt lat="45.89539" lon="3.02336">
        <ele>698.6</ele>
        <time>1970-01-01T01:26:19.000Z</time>
      </trkpt>
      <trkpt lat="45.89539" lon="3.02335">
        <ele>698.6</ele>
        <time>1970-01-01T01:26:20.000Z</time>
      </trkpt>
      <trkpt lat="45.89539" lon="3.0233">
        <ele>698.7</ele>
        <time>1970-01-01T01:26:21.000Z</time>
      </trkpt>
      <trkpt lat="45.89539" lon="3.02326">
        <ele>698.8</ele>
        <time>1970-01-01T01:26:22.000Z</time>
      </trkpt>
      <trkpt lat="45.89539" lon="3.02319">
        <ele>698.9</ele>
        <time>1970-01-01T01:26:23.000Z</time>
      </trkpt>
      <trkpt lat="45.89539" lon="3.02315">
        <ele>698.9</ele>
        <time>1970-01-01T01:26:24.000Z</time>
      </trkpt>
      <trkpt lat="45.8954" lon="3.02311">
        <ele>698.9</ele>
        <time>1970-01-01T01:26:25.000Z</time>
      </trkpt>
      <trkpt lat="45.89542" lon="3.02306">
        <ele>699</ele>
        <time>1970-01-01T01:26:27.000Z</time>
      </trkpt>
      <trkpt lat="45.89544" lon="3.02301">
        <ele>699.1</ele>
        <time>1970-01-01T01:26:29.000Z</time>
      </trkpt>
      <trkpt lat="45.89544" lon="3.02296">
        <ele>699.1</ele>
        <time>1970-01-01T01:26:30.000Z</time>
      </trkpt>
      <trkpt lat="45.89545" lon="3.02288">
        <ele>699.3</ele>
        <time>1970-01-01T01:26:31.000Z</time>
      </trkpt>
      <trkpt lat="45.89547" lon="3.02284">
        <ele>699.4</ele>
        <time>1970-01-01T01:26:32.000Z</time>
      </trkpt>
      <trkpt lat="45.8955" lon="3.02279">
        <ele>699.5</ele>
        <time>1970-01-01T01:26:34.000Z</time>
      </trkpt>
      <trkpt lat="45.8955" lon="3.02277">
        <ele>699.6</ele>
        <time>1970-01-01T01:26:35.000Z</time>
      </trkpt>
      <trkpt lat="45.89551" lon="3.02275">
        <ele>699.6</ele>
        <time>1970-01-01T01:26:36.000Z</time>
      </trkpt>
      <trkpt lat="45.89553" lon="3.02268">
        <ele>699.8</ele>
        <time>1970-01-01T01:26:37.000Z</time>
      </trkpt>
      <trkpt lat="45.89554" lon="3.02264">
        <ele>699.9</ele>
        <time>1970-01-01T01:26:38.000Z</time>
      </trkpt>
      <trkpt lat="45.89555" lon="3.0226">
        <ele>700.1</ele>
        <time>1970-01-01T01:26:39.000Z</time>
      </trkpt>
      <trkpt lat="45.89556" lon="3.02254">
        <ele>700.2</ele>
        <time>1970-01-01T01:26:41.000Z</time>
      </trkpt>
      <trkpt lat="45.89558" lon="3.0225">
        <ele>700.4</ele>
        <time>1970-01-01T01:26:42.000Z</time>
      </trkpt>
      <trkpt lat="45.8956" lon="3.02247">
        <ele>700.6</ele>
        <time>1970-01-01T01:26:43.000Z</time>
      </trkpt>
      <trkpt lat="45.89562" lon="3.02243">
        <ele>700.9</ele>
        <time>1970-01-01T01:26:44.000Z</time>
      </trkpt>
      <trkpt lat="45.89563" lon="3.02241">
        <ele>701</ele>
        <time>1970-01-01T01:26:45.000Z</time>
      </trkpt>
      <trkpt lat="45.89566" lon="3.02236">
        <ele>701.3</ele>
        <time>1970-01-01T01:26:46.000Z</time>
      </trkpt>
      <trkpt lat="45.89567" lon="3.02235">
        <ele>701.4</ele>
        <time>1970-01-01T01:26:47.000Z</time>
      </trkpt>
      <trkpt lat="45.89569" lon="3.02232">
        <ele>701.7</ele>
        <time>1970-01-01T01:26:48.000Z</time>
      </trkpt>
      <trkpt lat="45.8957" lon="3.0223">
        <ele>701.8</ele>
        <time>1970-01-01T01:26:49.000Z</time>
      </trkpt>
      <trkpt lat="45.89573" lon="3.02228">
        <ele>702.2</ele>
        <time>1970-01-01T01:26:50.000Z</time>
      </trkpt>
      <trkpt lat="45.89574" lon="3.02227">
        <ele>702.3</ele>
        <time>1970-01-01T01:26:51.000Z</time>
      </trkpt>
      <trkpt lat="45.89577" lon="3.02225">
        <ele>702.6</ele>
        <time>1970-01-01T01:26:53.000Z</time>
      </trkpt>
      <trkpt lat="45.89578" lon="3.02224">
        <ele>702.7</ele>
        <time>1970-01-01T01:26:54.000Z</time>
      </trkpt>
      <trkpt lat="45.89581" lon="3.02223">
        <ele>703</ele>
        <time>1970-01-01T01:26:55.000Z</time>
      </trkpt>
      <trkpt lat="45.89582" lon="3.02223">
        <ele>703.1</ele>
        <time>1970-01-01T01:26:56.000Z</time>
      </trkpt>
      <trkpt lat="45.89585" lon="3.02224">
        <ele>703.5</ele>
        <time>1970-01-01T01:26:58.000Z</time>
      </trkpt>
      <trkpt lat="45.89587" lon="3.02224">
        <ele>703.6</ele>
        <time>1970-01-01T01:26:59.000Z</time>
      </trkpt>
      <trkpt lat="45.8959" lon="3.02224">
        <ele>703.9</ele>
        <time>1970-01-01T01:27:00.000Z</time>
      </trkpt>
      <trkpt lat="45.89593" lon="3.02224">
        <ele>704.1</ele>
        <time>1970-01-01T01:27:01.000Z</time>
      </trkpt>
      <trkpt lat="45.89597" lon="3.02225">
        <ele>704.5</ele>
        <time>1970-01-01T01:27:03.000Z</time>
      </trkpt>
      <trkpt lat="45.89598" lon="3.02226">
        <ele>704.6</ele>
        <time>1970-01-01T01:27:04.000Z</time>
      </trkpt>
      <trkpt lat="45.89599" lon="3.02227">
        <ele>704.7</ele>
        <time>1970-01-01T01:27:05.000Z</time>
      </trkpt>
      <trkpt lat="45.89601" lon="3.02227">
        <ele>704.8</ele>
        <time>1970-01-01T01:27:06.000Z</time>
      </trkpt>
      <trkpt lat="45.89602" lon="3.02228">
        <ele>704.9</ele>
        <time>1970-01-01T01:27:07.000Z</time>
      </trkpt>
      <trkpt lat="45.89606" lon="3.02228">
        <ele>705.1</ele>
        <time>1970-01-01T01:27:09.000Z</time>
      </trkpt>
      <trkpt lat="45.89607" lon="3.02228">
        <ele>705.1</ele>
        <time>1970-01-01T01:27:10.000Z</time>
      </trkpt>
      <trkpt lat="45.89611" lon="3.02229">
        <ele>705.3</ele>
        <time>1970-01-01T01:27:11.000Z</time>
      </trkpt>
      <trkpt lat="45.89612" lon="3.0223">
        <ele>705.4</ele>
        <time>1970-01-01T01:27:12.000Z</time>
      </trkpt>
      <trkpt lat="45.89615" lon="3.0223">
        <ele>705.6</ele>
        <time>1970-01-01T01:27:13.000Z</time>
      </trkpt>
      <trkpt lat="45.89617" lon="3.0223">
        <ele>705.7</ele>
        <time>1970-01-01T01:27:14.000Z</time>
      </trkpt>
      <trkpt lat="45.8962" lon="3.0223">
        <ele>705.8</ele>
        <time>1970-01-01T01:27:15.000Z</time>
      </trkpt>
      <trkpt lat="45.89623" lon="3.0223">
        <ele>706</ele>
        <time>1970-01-01T01:27:16.000Z</time>
      </trkpt>
      <trkpt lat="45.89628" lon="3.02231">
        <ele>706.1</ele>
        <time>1970-01-01T01:27:18.000Z</time>
      </trkpt>
      <trkpt lat="45.89631" lon="3.02231">
        <ele>706.2</ele>
        <time>1970-01-01T01:27:20.000Z</time>
      </trkpt>
      <trkpt lat="45.89634" lon="3.0223">
        <ele>706.3</ele>
        <time>1970-01-01T01:27:21.000Z</time>
      </trkpt>
      <trkpt lat="45.89636" lon="3.0223">
        <ele>706.3</ele>
        <time>1970-01-01T01:27:22.000Z</time>
      </trkpt>
      <trkpt lat="45.89639" lon="3.02229">
        <ele>706.4</ele>
        <time>1970-01-01T01:27:23.000Z</time>
      </trkpt>
      <trkpt lat="45.89641" lon="3.02229">
        <ele>706.4</ele>
        <time>1970-01-01T01:27:24.000Z</time>
      </trkpt>
      <trkpt lat="45.89644" lon="3.02228">
        <ele>706.4</ele>
        <time>1970-01-01T01:27:25.000Z</time>
      </trkpt>
      <trkpt lat="45.89645" lon="3.02227">
        <ele>706.4</ele>
        <time>1970-01-01T01:27:26.000Z</time>
      </trkpt>
      <trkpt lat="45.89648" lon="3.02224">
        <ele>706.4</ele>
        <time>1970-01-01T01:27:28.000Z</time>
      </trkpt>
      <trkpt lat="45.89651" lon="3.02221">
        <ele>706.4</ele>
        <time>1970-01-01T01:27:29.000Z</time>
      </trkpt>
      <trkpt lat="45.89653" lon="3.02215">
        <ele>706.3</ele>
        <time>1970-01-01T01:27:30.000Z</time>
      </trkpt>
      <trkpt lat="45.89654" lon="3.02212">
        <ele>706.2</ele>
        <time>1970-01-01T01:27:31.000Z</time>
      </trkpt>
      <trkpt lat="45.89655" lon="3.02205">
        <ele>706</ele>
        <time>1970-01-01T01:27:32.000Z</time>
      </trkpt>
      <trkpt lat="45.89656" lon="3.022">
        <ele>705.9</ele>
        <time>1970-01-01T01:27:33.000Z</time>
      </trkpt>
      <trkpt lat="45.89657" lon="3.02195">
        <ele>705.8</ele>
        <time>1970-01-01T01:27:35.000Z</time>
      </trkpt>
      <trkpt lat="45.89658" lon="3.02189">
        <ele>705.6</ele>
        <time>1970-01-01T01:27:36.000Z</time>
      </trkpt>
      <trkpt lat="45.89658" lon="3.02183">
        <ele>705.4</ele>
        <time>1970-01-01T01:27:37.000Z</time>
      </trkpt>
      <trkpt lat="45.89657" lon="3.02176">
        <ele>705.2</ele>
        <time>1970-01-01T01:27:38.000Z</time>
      </trkpt>
      <trkpt lat="45.89657" lon="3.0217">
        <ele>704.9</ele>
        <time>1970-01-01T01:27:39.000Z</time>
      </trkpt>
      <trkpt lat="45.89656" lon="3.02163">
        <ele>704.7</ele>
        <time>1970-01-01T01:27:40.000Z</time>
      </trkpt>
      <trkpt lat="45.89656" lon="3.02157">
        <ele>704.5</ele>
        <time>1970-01-01T01:27:41.000Z</time>
      </trkpt>
      <trkpt lat="45.89657" lon="3.02152">
        <ele>704.4</ele>
        <time>1970-01-01T01:27:42.000Z</time>
      </trkpt>
      <trkpt lat="45.89655" lon="3.02144">
        <ele>704.1</ele>
        <time>1970-01-01T01:27:44.000Z</time>
      </trkpt>
      <trkpt lat="45.89654" lon="3.02139">
        <ele>703.9</ele>
        <time>1970-01-01T01:27:45.000Z</time>
      </trkpt>
      <trkpt lat="45.89653" lon="3.02134">
        <ele>703.7</ele>
        <time>1970-01-01T01:27:46.000Z</time>
      </trkpt>
      <trkpt lat="45.89652" lon="3.02128">
        <ele>703.4</ele>
        <time>1970-01-01T01:27:47.000Z</time>
      </trkpt>
      <trkpt lat="45.89651" lon="3.02127">
        <ele>703.3</ele>
        <time>1970-01-01T01:27:48.000Z</time>
      </trkpt>
      <trkpt lat="45.89653" lon="3.02121">
        <ele>702.8</ele>
        <time>1970-01-01T01:27:50.000Z</time>
      </trkpt>
      <trkpt lat="45.89654" lon="3.0212">
        <ele>702.7</ele>
        <time>1970-01-01T01:27:51.000Z</time>
      </trkpt>
      <trkpt lat="45.89654" lon="3.02119">
        <ele>702.5</ele>
        <time>1970-01-01T01:27:52.000Z</time>
      </trkpt>
      <trkpt lat="45.89656" lon="3.02117">
        <ele>702.3</ele>
        <time>1970-01-01T01:27:53.000Z</time>
      </trkpt>
      <trkpt lat="45.89656" lon="3.02115">
        <ele>702.2</ele>
        <time>1970-01-01T01:27:55.000Z</time>
      </trkpt>
      <trkpt lat="45.89656" lon="3.02114">
        <ele>702.1</ele>
        <time>1970-01-01T01:27:56.000Z</time>
      </trkpt>
      <trkpt lat="45.89656" lon="3.02114">
        <ele>702.1</ele>
        <time>1970-01-01T01:27:57.000Z</time>
      </trkpt>
      <trkpt lat="45.89656" lon="3.02115">
        <ele>702</ele>
        <time>1970-01-01T01:27:58.000Z</time>
      </trkpt>
      <trkpt lat="45.89656" lon="3.02115">
        <ele>702</ele>
        <time>1970-01-01T01:27:59.000Z</time>
      </trkpt>
      <trkpt lat="45.89656" lon="3.02115">
        <ele>701.9</ele>
        <time>1970-01-01T01:28:00.000Z</time>
      </trkpt>
      <trkpt lat="45.89656" lon="3.02116">
        <ele>701.9</ele>
        <time>1970-01-01T01:28:01.000Z</time>
      </trkpt>
      <trkpt lat="45.89656" lon="3.02116">
        <ele>701.9</ele>
        <time>1970-01-01T01:28:02.000Z</time>
      </trkpt>
      <trkpt lat="45.89656" lon="3.02116">
        <ele>701.9</ele>
        <time>1970-01-01T01:28:03.000Z</time>
      </trkpt>
      <trkpt lat="45.89656" lon="3.02115">
        <ele>701.9</ele>
        <time>1970-01-01T01:28:04.000Z</time>
      </trkpt>
      <trkpt lat="45.89656" lon="3.02115">
        <ele>701.9</ele>
        <time>1970-01-01T01:28:05.000Z</time>
      </trkpt>
      <trkpt lat="45.89656" lon="3.02115">
        <ele>701.9</ele>
        <time>1970-01-01T01:28:06.000Z</time>
      </trkpt>
      <trkpt lat="45.89657" lon="3.02109">
        <ele>701.4</ele>
        <time>1970-01-01T01:28:24.000Z</time>
      </trkpt>
      <trkpt lat="45.89659" lon="3.02099">
        <ele>700.7</ele>
        <time>1970-01-01T01:28:26.000Z</time>
      </trkpt>
      <trkpt lat="45.89666" lon="3.02087">
        <ele>699.9</ele>
        <time>1970-01-01T01:28:27.000Z</time>
      </trkpt>
      <trkpt lat="45.8967" lon="3.02079">
        <ele>699.5</ele>
        <time>1970-01-01T01:28:28.000Z</time>
      </trkpt>
      <trkpt lat="45.89673" lon="3.02069">
        <ele>699.3</ele>
        <time>1970-01-01T01:28:29.000Z</time>
      </trkpt>
      <trkpt lat="45.89674" lon="3.0206">
        <ele>699.1</ele>
        <time>1970-01-01T01:28:30.000Z</time>
      </trkpt>
      <trkpt lat="45.89675" lon="3.0205">
        <ele>699</ele>
        <time>1970-01-01T01:28:31.000Z</time>
      </trkpt>
      <trkpt lat="45.89676" lon="3.02041">
        <ele>698.9</ele>
        <time>1970-01-01T01:28:32.000Z</time>
      </trkpt>
      <trkpt lat="45.89679" lon="3.02035">
        <ele>698.8</ele>
        <time>1970-01-01T01:28:33.000Z</time>
      </trkpt>
      <trkpt lat="45.89685" lon="3.02031">
        <ele>698.7</ele>
        <time>1970-01-01T01:28:34.000Z</time>
      </trkpt>
      <trkpt lat="45.89691" lon="3.0203">
        <ele>698.6</ele>
        <time>1970-01-01T01:28:35.000Z</time>
      </trkpt>
      <trkpt lat="45.89696" lon="3.02032">
        <ele>698.5</ele>
        <time>1970-01-01T01:28:36.000Z</time>
      </trkpt>
      <trkpt lat="45.89702" lon="3.02035">
        <ele>698.4</ele>
        <time>1970-01-01T01:28:37.000Z</time>
      </trkpt>
      <trkpt lat="45.89707" lon="3.02037">
        <ele>698.3</ele>
        <time>1970-01-01T01:28:38.000Z</time>
      </trkpt>
      <trkpt lat="45.89712" lon="3.02041">
        <ele>698.1</ele>
        <time>1970-01-01T01:28:39.000Z</time>
      </trkpt>
      <trkpt lat="45.89717" lon="3.02044">
        <ele>698</ele>
        <time>1970-01-01T01:28:40.000Z</time>
      </trkpt>
      <trkpt lat="45.89722" lon="3.02047">
        <ele>697.9</ele>
        <time>1970-01-01T01:28:41.000Z</time>
      </trkpt>
      <trkpt lat="45.89727" lon="3.02049">
        <ele>697.7</ele>
        <time>1970-01-01T01:28:42.000Z</time>
      </trkpt>
      <trkpt lat="45.89732" lon="3.02051">
        <ele>697.6</ele>
        <time>1970-01-01T01:28:43.000Z</time>
      </trkpt>
      <trkpt lat="45.89737" lon="3.02052">
        <ele>697.5</ele>
        <time>1970-01-01T01:28:44.000Z</time>
      </trkpt>
      <trkpt lat="45.89742" lon="3.02053">
        <ele>697.4</ele>
        <time>1970-01-01T01:28:45.000Z</time>
      </trkpt>
      <trkpt lat="45.89747" lon="3.02054">
        <ele>697.3</ele>
        <time>1970-01-01T01:28:46.000Z</time>
      </trkpt>
      <trkpt lat="45.89753" lon="3.02055">
        <ele>697.2</ele>
        <time>1970-01-01T01:28:47.000Z</time>
      </trkpt>
      <trkpt lat="45.89759" lon="3.02055">
        <ele>697.1</ele>
        <time>1970-01-01T01:28:48.000Z</time>
      </trkpt>
      <trkpt lat="45.89764" lon="3.02055">
        <ele>697</ele>
        <time>1970-01-01T01:28:49.000Z</time>
      </trkpt>
      <trkpt lat="45.8977" lon="3.02054">
        <ele>697</ele>
        <time>1970-01-01T01:28:50.000Z</time>
      </trkpt>
      <trkpt lat="45.89776" lon="3.02053">
        <ele>696.9</ele>
        <time>1970-01-01T01:28:51.000Z</time>
      </trkpt>
      <trkpt lat="45.89782" lon="3.02054">
        <ele>696.9</ele>
        <time>1970-01-01T01:28:52.000Z</time>
      </trkpt>
      <trkpt lat="45.89788" lon="3.02054">
        <ele>696.9</ele>
        <time>1970-01-01T01:28:53.000Z</time>
      </trkpt>
      <trkpt lat="45.89794" lon="3.02055">
        <ele>697</ele>
        <time>1970-01-01T01:28:54.000Z</time>
      </trkpt>
      <trkpt lat="45.89799" lon="3.02055">
        <ele>697</ele>
        <time>1970-01-01T01:28:55.000Z</time>
      </trkpt>
      <trkpt lat="45.89805" lon="3.02056">
        <ele>697.1</ele>
        <time>1970-01-01T01:28:56.000Z</time>
      </trkpt>
      <trkpt lat="45.8981" lon="3.02058">
        <ele>697.1</ele>
        <time>1970-01-01T01:28:57.000Z</time>
      </trkpt>
      <trkpt lat="45.89816" lon="3.02058">
        <ele>697.2</ele>
        <time>1970-01-01T01:28:58.000Z</time>
      </trkpt>
      <trkpt lat="45.89821" lon="3.02058">
        <ele>697.3</ele>
        <time>1970-01-01T01:28:59.000Z</time>
      </trkpt>
      <trkpt lat="45.89826" lon="3.02058">
        <ele>697.4</ele>
        <time>1970-01-01T01:29:00.000Z</time>
      </trkpt>
      <trkpt lat="45.89832" lon="3.0206">
        <ele>697.4</ele>
        <time>1970-01-01T01:29:01.000Z</time>
      </trkpt>
      <trkpt lat="45.89837" lon="3.0206">
        <ele>697.5</ele>
        <time>1970-01-01T01:29:02.000Z</time>
      </trkpt>
      <trkpt lat="45.89842" lon="3.02062">
        <ele>697.5</ele>
        <time>1970-01-01T01:29:03.000Z</time>
      </trkpt>
      <trkpt lat="45.89847" lon="3.02065">
        <ele>697.6</ele>
        <time>1970-01-01T01:29:04.000Z</time>
      </trkpt>
      <trkpt lat="45.89851" lon="3.02067">
        <ele>697.6</ele>
        <time>1970-01-01T01:29:05.000Z</time>
      </trkpt>
      <trkpt lat="45.89857" lon="3.02069">
        <ele>697.6</ele>
        <time>1970-01-01T01:29:06.000Z</time>
      </trkpt>
      <trkpt lat="45.89862" lon="3.0207">
        <ele>697.6</ele>
        <time>1970-01-01T01:29:07.000Z</time>
      </trkpt>
      <trkpt lat="45.89867" lon="3.0207">
        <ele>697.4</ele>
        <time>1970-01-01T01:29:08.000Z</time>
      </trkpt>
      <trkpt lat="45.89871" lon="3.02068">
        <ele>697.2</ele>
        <time>1970-01-01T01:29:09.000Z</time>
      </trkpt>
      <trkpt lat="45.89876" lon="3.02064">
        <ele>697</ele>
        <time>1970-01-01T01:29:10.000Z</time>
      </trkpt>
      <trkpt lat="45.8988" lon="3.02059">
        <ele>696.6</ele>
        <time>1970-01-01T01:29:11.000Z</time>
      </trkpt>
      <trkpt lat="45.89882" lon="3.02052">
        <ele>696.2</ele>
        <time>1970-01-01T01:29:12.000Z</time>
      </trkpt>
      <trkpt lat="45.89885" lon="3.02043">
        <ele>695.8</ele>
        <time>1970-01-01T01:29:13.000Z</time>
      </trkpt>
      <trkpt lat="45.89888" lon="3.02035">
        <ele>695.3</ele>
        <time>1970-01-01T01:29:14.000Z</time>
      </trkpt>
      <trkpt lat="45.8989" lon="3.02026">
        <ele>694.9</ele>
        <time>1970-01-01T01:29:15.000Z</time>
      </trkpt>
      <trkpt lat="45.89892" lon="3.02018">
        <ele>694.4</ele>
        <time>1970-01-01T01:29:16.000Z</time>
      </trkpt>
      <trkpt lat="45.89893" lon="3.02009">
        <ele>693.8</ele>
        <time>1970-01-01T01:29:17.000Z</time>
      </trkpt>
      <trkpt lat="45.89894" lon="3.02001">
        <ele>693.3</ele>
        <time>1970-01-01T01:29:18.000Z</time>
      </trkpt>
      <trkpt lat="45.89894" lon="3.01991">
        <ele>692.6</ele>
        <time>1970-01-01T01:29:19.000Z</time>
      </trkpt>
      <trkpt lat="45.89895" lon="3.0198">
        <ele>691.9</ele>
        <time>1970-01-01T01:29:20.000Z</time>
      </trkpt>
      <trkpt lat="45.89895" lon="3.01968">
        <ele>691.2</ele>
        <time>1970-01-01T01:29:21.000Z</time>
      </trkpt>
      <trkpt lat="45.89896" lon="3.01955">
        <ele>690.6</ele>
        <time>1970-01-01T01:29:22.000Z</time>
      </trkpt>
      <trkpt lat="45.89896" lon="3.01943">
        <ele>689.9</ele>
        <time>1970-01-01T01:29:23.000Z</time>
      </trkpt>
      <trkpt lat="45.89897" lon="3.01931">
        <ele>689.3</ele>
        <time>1970-01-01T01:29:24.000Z</time>
      </trkpt>
      <trkpt lat="45.89897" lon="3.01919">
        <ele>688.7</ele>
        <time>1970-01-01T01:29:25.000Z</time>
      </trkpt>
      <trkpt lat="45.89897" lon="3.01909">
        <ele>688.2</ele>
        <time>1970-01-01T01:29:26.000Z</time>
      </trkpt>
      <trkpt lat="45.89898" lon="3.01898">
        <ele>687.7</ele>
        <time>1970-01-01T01:29:27.000Z</time>
      </trkpt>
      <trkpt lat="45.89898" lon="3.01888">
        <ele>687.2</ele>
        <time>1970-01-01T01:29:28.000Z</time>
      </trkpt>
      <trkpt lat="45.89898" lon="3.01879">
        <ele>686.7</ele>
        <time>1970-01-01T01:29:29.000Z</time>
      </trkpt>
      <trkpt lat="45.89899" lon="3.0187">
        <ele>686.3</ele>
        <time>1970-01-01T01:29:30.000Z</time>
      </trkpt>
      <trkpt lat="45.89899" lon="3.01861">
        <ele>685.8</ele>
        <time>1970-01-01T01:29:31.000Z</time>
      </trkpt>
      <trkpt lat="45.89902" lon="3.01853">
        <ele>685.4</ele>
        <time>1970-01-01T01:29:32.000Z</time>
      </trkpt>
      <trkpt lat="45.89906" lon="3.01848">
        <ele>685</ele>
        <time>1970-01-01T01:29:33.000Z</time>
      </trkpt>
      <trkpt lat="45.8991" lon="3.01843">
        <ele>684.6</ele>
        <time>1970-01-01T01:29:34.000Z</time>
      </trkpt>
      <trkpt lat="45.89917" lon="3.0184">
        <ele>684.3</ele>
        <time>1970-01-01T01:29:35.000Z</time>
      </trkpt>
      <trkpt lat="45.89923" lon="3.01837">
        <ele>684.1</ele>
        <time>1970-01-01T01:29:36.000Z</time>
      </trkpt>
      <trkpt lat="45.89929" lon="3.01834">
        <ele>684.1</ele>
        <time>1970-01-01T01:29:37.000Z</time>
      </trkpt>
      <trkpt lat="45.89936" lon="3.01831">
        <ele>684.3</ele>
        <time>1970-01-01T01:29:38.000Z</time>
      </trkpt>
      <trkpt lat="45.89943" lon="3.01828">
        <ele>684.7</ele>
        <time>1970-01-01T01:29:39.000Z</time>
      </trkpt>
      <trkpt lat="45.89949" lon="3.01825">
        <ele>685.2</ele>
        <time>1970-01-01T01:29:40.000Z</time>
      </trkpt>
      <trkpt lat="45.89955" lon="3.01823">
        <ele>685.6</ele>
        <time>1970-01-01T01:29:41.000Z</time>
      </trkpt>
      <trkpt lat="45.89959" lon="3.01821">
        <ele>686</ele>
        <time>1970-01-01T01:29:42.000Z</time>
      </trkpt>
      <trkpt lat="45.89964" lon="3.01819">
        <ele>686.5</ele>
        <time>1970-01-01T01:29:43.000Z</time>
      </trkpt>
      <trkpt lat="45.89969" lon="3.01819">
        <ele>686.9</ele>
        <time>1970-01-01T01:29:44.000Z</time>
      </trkpt>
      <trkpt lat="45.89972" lon="3.0182">
        <ele>687.2</ele>
        <time>1970-01-01T01:29:45.000Z</time>
      </trkpt>
      <trkpt lat="45.89977" lon="3.0182">
        <ele>687.6</ele>
        <time>1970-01-01T01:29:46.000Z</time>
      </trkpt>
      <trkpt lat="45.89979" lon="3.01819">
        <ele>687.9</ele>
        <time>1970-01-01T01:29:47.000Z</time>
      </trkpt>
      <trkpt lat="45.89983" lon="3.01819">
        <ele>688.3</ele>
        <time>1970-01-01T01:29:48.000Z</time>
      </trkpt>
      <trkpt lat="45.89986" lon="3.01818">
        <ele>688.6</ele>
        <time>1970-01-01T01:29:49.000Z</time>
      </trkpt>
      <trkpt lat="45.89988" lon="3.01818">
        <ele>688.8</ele>
        <time>1970-01-01T01:29:50.000Z</time>
      </trkpt>
      <trkpt lat="45.8999" lon="3.01816">
        <ele>689.1</ele>
        <time>1970-01-01T01:29:51.000Z</time>
      </trkpt>
      <trkpt lat="45.89993" lon="3.01812">
        <ele>689.5</ele>
        <time>1970-01-01T01:29:52.000Z</time>
      </trkpt>
      <trkpt lat="45.89994" lon="3.01811">
        <ele>689.7</ele>
        <time>1970-01-01T01:29:53.000Z</time>
      </trkpt>
      <trkpt lat="45.89996" lon="3.01805">
        <ele>690.1</ele>
        <time>1970-01-01T01:29:55.000Z</time>
      </trkpt>
      <trkpt lat="45.89998" lon="3.01802">
        <ele>690.5</ele>
        <time>1970-01-01T01:29:56.000Z</time>
      </trkpt>
      <trkpt lat="45.90001" lon="3.018">
        <ele>690.8</ele>
        <time>1970-01-01T01:29:57.000Z</time>
      </trkpt>
      <trkpt lat="45.90004" lon="3.01798">
        <ele>691.1</ele>
        <time>1970-01-01T01:29:58.000Z</time>
      </trkpt>
      <trkpt lat="45.90007" lon="3.01794">
        <ele>691.5</ele>
        <time>1970-01-01T01:30:00.000Z</time>
      </trkpt>
      <trkpt lat="45.9001" lon="3.01791">
        <ele>691.9</ele>
        <time>1970-01-01T01:30:02.000Z</time>
      </trkpt>
      <trkpt lat="45.90013" lon="3.01789">
        <ele>692.1</ele>
        <time>1970-01-01T01:30:03.000Z</time>
      </trkpt>
      <trkpt lat="45.90014" lon="3.01789">
        <ele>692.2</ele>
        <time>1970-01-01T01:30:04.000Z</time>
      </trkpt>
      <trkpt lat="45.90016" lon="3.01786">
        <ele>692.4</ele>
        <time>1970-01-01T01:30:05.000Z</time>
      </trkpt>
      <trkpt lat="45.90017" lon="3.01784">
        <ele>692.6</ele>
        <time>1970-01-01T01:30:06.000Z</time>
      </trkpt>
      <trkpt lat="45.90019" lon="3.01781">
        <ele>692.7</ele>
        <time>1970-01-01T01:30:08.000Z</time>
      </trkpt>
      <trkpt lat="45.90022" lon="3.01779">
        <ele>692.7</ele>
        <time>1970-01-01T01:30:09.000Z</time>
      </trkpt>
      <trkpt lat="45.90023" lon="3.01778">
        <ele>692.7</ele>
        <time>1970-01-01T01:30:10.000Z</time>
      </trkpt>
      <trkpt lat="45.90026" lon="3.01774">
        <ele>692.8</ele>
        <time>1970-01-01T01:30:11.000Z</time>
      </trkpt>
      <trkpt lat="45.90027" lon="3.01773">
        <ele>692.9</ele>
        <time>1970-01-01T01:30:12.000Z</time>
      </trkpt>
      <trkpt lat="45.90029" lon="3.01769">
        <ele>693.2</ele>
        <time>1970-01-01T01:30:13.000Z</time>
      </trkpt>
      <trkpt lat="45.9003" lon="3.01768">
        <ele>693.3</ele>
        <time>1970-01-01T01:30:14.000Z</time>
      </trkpt>
      <trkpt lat="45.90033" lon="3.01763">
        <ele>693.6</ele>
        <time>1970-01-01T01:30:15.000Z</time>
      </trkpt>
      <trkpt lat="45.90033" lon="3.01761">
        <ele>693.7</ele>
        <time>1970-01-01T01:30:16.000Z</time>
      </trkpt>
      <trkpt lat="45.90035" lon="3.01756">
        <ele>694</ele>
        <time>1970-01-01T01:30:17.000Z</time>
      </trkpt>
      <trkpt lat="45.90035" lon="3.01752">
        <ele>694.2</ele>
        <time>1970-01-01T01:30:18.000Z</time>
      </trkpt>
      <trkpt lat="45.90037" lon="3.01748">
        <ele>694.4</ele>
        <time>1970-01-01T01:30:20.000Z</time>
      </trkpt>
      <trkpt lat="45.90037" lon="3.01746">
        <ele>694.5</ele>
        <time>1970-01-01T01:30:21.000Z</time>
      </trkpt>
      <trkpt lat="45.90038" lon="3.01742">
        <ele>694.7</ele>
        <time>1970-01-01T01:30:22.000Z</time>
      </trkpt>
      <trkpt lat="45.90039" lon="3.01741">
        <ele>694.8</ele>
        <time>1970-01-01T01:30:23.000Z</time>
      </trkpt>
      <trkpt lat="45.90039" lon="3.01737">
        <ele>695</ele>
        <time>1970-01-01T01:30:24.000Z</time>
      </trkpt>
      <trkpt lat="45.90039" lon="3.01735">
        <ele>695</ele>
        <time>1970-01-01T01:30:25.000Z</time>
      </trkpt>
      <trkpt lat="45.90041" lon="3.01729">
        <ele>695.3</ele>
        <time>1970-01-01T01:30:27.000Z</time>
      </trkpt>
      <trkpt lat="45.90043" lon="3.01725">
        <ele>695.6</ele>
        <time>1970-01-01T01:30:28.000Z</time>
      </trkpt>
      <trkpt lat="45.90043" lon="3.01724">
        <ele>695.6</ele>
        <time>1970-01-01T01:30:29.000Z</time>
      </trkpt>
      <trkpt lat="45.90044" lon="3.01722">
        <ele>695.8</ele>
        <time>1970-01-01T01:30:30.000Z</time>
      </trkpt>
      <trkpt lat="45.90045" lon="3.0172">
        <ele>695.9</ele>
        <time>1970-01-01T01:30:31.000Z</time>
      </trkpt>
      <trkpt lat="45.90046" lon="3.01716">
        <ele>696.1</ele>
        <time>1970-01-01T01:30:32.000Z</time>
      </trkpt>
      <trkpt lat="45.90046" lon="3.01714">
        <ele>696.2</ele>
        <time>1970-01-01T01:30:33.000Z</time>
      </trkpt>
      <trkpt lat="45.90048" lon="3.01711">
        <ele>696.4</ele>
        <time>1970-01-01T01:30:34.000Z</time>
      </trkpt>
      <trkpt lat="45.90048" lon="3.0171">
        <ele>696.5</ele>
        <time>1970-01-01T01:30:35.000Z</time>
      </trkpt>
      <trkpt lat="45.90048" lon="3.01707">
        <ele>696.6</ele>
        <time>1970-01-01T01:30:36.000Z</time>
      </trkpt>
      <trkpt lat="45.90049" lon="3.01705">
        <ele>696.8</ele>
        <time>1970-01-01T01:30:37.000Z</time>
      </trkpt>
      <trkpt lat="45.90051" lon="3.01701">
        <ele>697</ele>
        <time>1970-01-01T01:30:38.000Z</time>
      </trkpt>
      <trkpt lat="45.90052" lon="3.017">
        <ele>697.1</ele>
        <time>1970-01-01T01:30:39.000Z</time>
      </trkpt>
      <trkpt lat="45.90054" lon="3.01696">
        <ele>697.3</ele>
        <time>1970-01-01T01:30:40.000Z</time>
      </trkpt>
      <trkpt lat="45.90055" lon="3.01695">
        <ele>697.4</ele>
        <time>1970-01-01T01:30:41.000Z</time>
      </trkpt>
      <trkpt lat="45.90056" lon="3.01691">
        <ele>697.6</ele>
        <time>1970-01-01T01:30:42.000Z</time>
      </trkpt>
      <trkpt lat="45.90056" lon="3.0169">
        <ele>697.7</ele>
        <time>1970-01-01T01:30:43.000Z</time>
      </trkpt>
      <trkpt lat="45.90057" lon="3.01686">
        <ele>697.9</ele>
        <time>1970-01-01T01:30:44.000Z</time>
      </trkpt>
      <trkpt lat="45.90057" lon="3.01685">
        <ele>698</ele>
        <time>1970-01-01T01:30:45.000Z</time>
      </trkpt>
      <trkpt lat="45.90059" lon="3.0168">
        <ele>698.2</ele>
        <time>1970-01-01T01:30:46.000Z</time>
      </trkpt>
      <trkpt lat="45.90059" lon="3.01679">
        <ele>698.3</ele>
        <time>1970-01-01T01:30:47.000Z</time>
      </trkpt>
      <trkpt lat="45.90061" lon="3.01676">
        <ele>698.5</ele>
        <time>1970-01-01T01:30:48.000Z</time>
      </trkpt>
      <trkpt lat="45.90061" lon="3.01675">
        <ele>698.6</ele>
        <time>1970-01-01T01:30:49.000Z</time>
      </trkpt>
      <trkpt lat="45.90063" lon="3.01671">
        <ele>698.8</ele>
        <time>1970-01-01T01:30:50.000Z</time>
      </trkpt>
      <trkpt lat="45.90064" lon="3.01665">
        <ele>699.2</ele>
        <time>1970-01-01T01:30:52.000Z</time>
      </trkpt>
      <trkpt lat="45.90064" lon="3.01663">
        <ele>699.3</ele>
        <time>1970-01-01T01:30:53.000Z</time>
      </trkpt>
      <trkpt lat="45.90065" lon="3.01661">
        <ele>699.4</ele>
        <time>1970-01-01T01:30:54.000Z</time>
      </trkpt>
      <trkpt lat="45.90065" lon="3.01656">
        <ele>699.6</ele>
        <time>1970-01-01T01:30:55.000Z</time>
      </trkpt>
      <trkpt lat="45.90066" lon="3.01655">
        <ele>699.7</ele>
        <time>1970-01-01T01:30:56.000Z</time>
      </trkpt>
      <trkpt lat="45.90065" lon="3.01652">
        <ele>699.9</ele>
        <time>1970-01-01T01:30:57.000Z</time>
      </trkpt>
      <trkpt lat="45.90065" lon="3.01647">
        <ele>700.2</ele>
        <time>1970-01-01T01:30:59.000Z</time>
      </trkpt>
      <trkpt lat="45.90065" lon="3.01643">
        <ele>700.5</ele>
        <time>1970-01-01T01:31:00.000Z</time>
      </trkpt>
      <trkpt lat="45.90064" lon="3.01641">
        <ele>700.6</ele>
        <time>1970-01-01T01:31:01.000Z</time>
      </trkpt>
      <trkpt lat="45.90064" lon="3.01636">
        <ele>700.8</ele>
        <time>1970-01-01T01:31:02.000Z</time>
      </trkpt>
      <trkpt lat="45.90065" lon="3.01635">
        <ele>700.9</ele>
        <time>1970-01-01T01:31:03.000Z</time>
      </trkpt>
      <trkpt lat="45.90065" lon="3.01631">
        <ele>701.2</ele>
        <time>1970-01-01T01:31:04.000Z</time>
      </trkpt>
      <trkpt lat="45.90065" lon="3.0163">
        <ele>701.3</ele>
        <time>1970-01-01T01:31:05.000Z</time>
      </trkpt>
      <trkpt lat="45.90066" lon="3.01627">
        <ele>701.4</ele>
        <time>1970-01-01T01:31:06.000Z</time>
      </trkpt>
      <trkpt lat="45.90065" lon="3.01625">
        <ele>701.6</ele>
        <time>1970-01-01T01:31:07.000Z</time>
      </trkpt>
      <trkpt lat="45.90065" lon="3.0162">
        <ele>701.9</ele>
        <time>1970-01-01T01:31:08.000Z</time>
      </trkpt>
      <trkpt lat="45.90065" lon="3.01619">
        <ele>702</ele>
        <time>1970-01-01T01:31:09.000Z</time>
      </trkpt>
      <trkpt lat="45.90065" lon="3.01616">
        <ele>702.2</ele>
        <time>1970-01-01T01:31:10.000Z</time>
      </trkpt>
      <trkpt lat="45.90065" lon="3.01612">
        <ele>702.5</ele>
        <time>1970-01-01T01:31:12.000Z</time>
      </trkpt>
      <trkpt lat="45.90065" lon="3.01609">
        <ele>702.7</ele>
        <time>1970-01-01T01:31:13.000Z</time>
      </trkpt>
      <trkpt lat="45.90064" lon="3.01605">
        <ele>702.9</ele>
        <time>1970-01-01T01:31:15.000Z</time>
      </trkpt>
      <trkpt lat="45.90064" lon="3.01603">
        <ele>703.1</ele>
        <time>1970-01-01T01:31:16.000Z</time>
      </trkpt>
      <trkpt lat="45.90064" lon="3.016">
        <ele>703.3</ele>
        <time>1970-01-01T01:31:17.000Z</time>
      </trkpt>
      <trkpt lat="45.90064" lon="3.01596">
        <ele>703.6</ele>
        <time>1970-01-01T01:31:19.000Z</time>
      </trkpt>
      <trkpt lat="45.90064" lon="3.01592">
        <ele>703.9</ele>
        <time>1970-01-01T01:31:21.000Z</time>
      </trkpt>
      <trkpt lat="45.90064" lon="3.0159">
        <ele>704</ele>
        <time>1970-01-01T01:31:22.000Z</time>
      </trkpt>
      <trkpt lat="45.90065" lon="3.01588">
        <ele>704.2</ele>
        <time>1970-01-01T01:31:23.000Z</time>
      </trkpt>
      <trkpt lat="45.90065" lon="3.01585">
        <ele>704.3</ele>
        <time>1970-01-01T01:31:24.000Z</time>
      </trkpt>
      <trkpt lat="45.90065" lon="3.01583">
        <ele>704.5</ele>
        <time>1970-01-01T01:31:25.000Z</time>
      </trkpt>
      <trkpt lat="45.90065" lon="3.01581">
        <ele>704.7</ele>
        <time>1970-01-01T01:31:26.000Z</time>
      </trkpt>
      <trkpt lat="45.90064" lon="3.01578">
        <ele>704.9</ele>
        <time>1970-01-01T01:31:27.000Z</time>
      </trkpt>
      <trkpt lat="45.90063" lon="3.01574">
        <ele>705.2</ele>
        <time>1970-01-01T01:31:28.000Z</time>
      </trkpt>
      <trkpt lat="45.90063" lon="3.01573">
        <ele>705.3</ele>
        <time>1970-01-01T01:31:29.000Z</time>
      </trkpt>
      <trkpt lat="45.90063" lon="3.01567">
        <ele>705.7</ele>
        <time>1970-01-01T01:31:31.000Z</time>
      </trkpt>
      <trkpt lat="45.90062" lon="3.01565">
        <ele>705.7</ele>
        <time>1970-01-01T01:31:32.000Z</time>
      </trkpt>
      <trkpt lat="45.90062" lon="3.01563">
        <ele>705.8</ele>
        <time>1970-01-01T01:31:33.000Z</time>
      </trkpt>
      <trkpt lat="45.90062" lon="3.01559">
        <ele>705.9</ele>
        <time>1970-01-01T01:31:34.000Z</time>
      </trkpt>
      <trkpt lat="45.90062" lon="3.01558">
        <ele>705.9</ele>
        <time>1970-01-01T01:31:35.000Z</time>
      </trkpt>
      <trkpt lat="45.90062" lon="3.01554">
        <ele>706</ele>
        <time>1970-01-01T01:31:36.000Z</time>
      </trkpt>
      <trkpt lat="45.90062" lon="3.01553">
        <ele>706.1</ele>
        <time>1970-01-01T01:31:37.000Z</time>
      </trkpt>
      <trkpt lat="45.90063" lon="3.0155">
        <ele>706.1</ele>
        <time>1970-01-01T01:31:38.000Z</time>
      </trkpt>
      <trkpt lat="45.90063" lon="3.01545">
        <ele>706.3</ele>
        <time>1970-01-01T01:31:40.000Z</time>
      </trkpt>
      <trkpt lat="45.90062" lon="3.01542">
        <ele>706.4</ele>
        <time>1970-01-01T01:31:41.000Z</time>
      </trkpt>
      <trkpt lat="45.90061" lon="3.01539">
        <ele>706.5</ele>
        <time>1970-01-01T01:31:43.000Z</time>
      </trkpt>
      <trkpt lat="45.9006" lon="3.01538">
        <ele>706.5</ele>
        <time>1970-01-01T01:31:44.000Z</time>
      </trkpt>
      <trkpt lat="45.90059" lon="3.01536">
        <ele>706.6</ele>
        <time>1970-01-01T01:31:45.000Z</time>
      </trkpt>
      <trkpt lat="45.90054" lon="3.01535">
        <ele>706.8</ele>
        <time>1970-01-01T01:31:47.000Z</time>
      </trkpt>
      <trkpt lat="45.90053" lon="3.01535">
        <ele>706.8</ele>
        <time>1970-01-01T01:31:48.000Z</time>
      </trkpt>
      <trkpt lat="45.90052" lon="3.01535">
        <ele>706.9</ele>
        <time>1970-01-01T01:31:49.000Z</time>
      </trkpt>
      <trkpt lat="45.9005" lon="3.01535">
        <ele>706.9</ele>
        <time>1970-01-01T01:31:51.000Z</time>
      </trkpt>
      <trkpt lat="45.90049" lon="3.01535">
        <ele>707</ele>
        <time>1970-01-01T01:31:52.000Z</time>
      </trkpt>
      <trkpt lat="45.90049" lon="3.01535">
        <ele>707</ele>
        <time>1970-01-01T01:31:53.000Z</time>
      </trkpt>
      <trkpt lat="45.90049" lon="3.01535">
        <ele>707</ele>
        <time>1970-01-01T01:31:54.000Z</time>
      </trkpt>
      <trkpt lat="45.90049" lon="3.01535">
        <ele>707</ele>
        <time>1970-01-01T01:31:55.000Z</time>
      </trkpt>
      <trkpt lat="45.90047" lon="3.01536">
        <ele>707</ele>
        <time>1970-01-01T01:31:57.000Z</time>
      </trkpt>
      <trkpt lat="45.90045" lon="3.01536">
        <ele>707.1</ele>
        <time>1970-01-01T01:31:58.000Z</time>
      </trkpt>
      <trkpt lat="45.90044" lon="3.01536">
        <ele>707.2</ele>
        <time>1970-01-01T01:31:59.000Z</time>
      </trkpt>
      <trkpt lat="45.90043" lon="3.01535">
        <ele>707.2</ele>
        <time>1970-01-01T01:32:00.000Z</time>
      </trkpt>
      <trkpt lat="45.90042" lon="3.01534">
        <ele>707.2</ele>
        <time>1970-01-01T01:32:01.000Z</time>
      </trkpt>
      <trkpt lat="45.90042" lon="3.01534">
        <ele>707.3</ele>
        <time>1970-01-01T01:32:03.000Z</time>
      </trkpt>
      <trkpt lat="45.90042" lon="3.01534">
        <ele>707.3</ele>
        <time>1970-01-01T01:32:05.000Z</time>
      </trkpt>
      <trkpt lat="45.90042" lon="3.01534">
        <ele>707.3</ele>
        <time>1970-01-01T01:32:06.000Z</time>
      </trkpt>
      <trkpt lat="45.90042" lon="3.01534">
        <ele>707.3</ele>
        <time>1970-01-01T01:32:07.000Z</time>
      </trkpt>
      <trkpt lat="45.90042" lon="3.01534">
        <ele>707.3</ele>
        <time>1970-01-01T01:32:08.000Z</time>
      </trkpt>
      <trkpt lat="45.90042" lon="3.01534">
        <ele>707.3</ele>
        <time>1970-01-01T01:32:09.000Z</time>
      </trkpt>
      <trkpt lat="45.90042" lon="3.01534">
        <ele>707.3</ele>
        <time>1970-01-01T01:32:10.000Z</time>
      </trkpt>
      <trkpt lat="45.90042" lon="3.01534">
        <ele>707.3</ele>
        <time>1970-01-01T01:32:11.000Z</time>
      </trkpt>
      <trkpt lat="45.90042" lon="3.01534">
        <ele>707.3</ele>
        <time>1970-01-01T01:32:12.000Z</time>
      </trkpt>
      <trkpt lat="45.90042" lon="3.01534">
        <ele>707.3</ele>
        <time>1970-01-01T01:32:13.000Z</time>
      </trkpt>
      <trkpt lat="45.90049" lon="3.01532">
        <ele>707.6</ele>
        <time>1970-01-01T01:45:10.000Z</time>
      </trkpt>
      <trkpt lat="45.90049" lon="3.01532">
        <ele>707.6</ele>
        <time>1970-01-01T01:45:11.000Z</time>
      </trkpt>
      <trkpt lat="45.9005" lon="3.01532">
        <ele>707.7</ele>
        <time>1970-01-01T01:45:12.000Z</time>
      </trkpt>
      <trkpt lat="45.90051" lon="3.01533">
        <ele>707.7</ele>
        <time>1970-01-01T01:45:13.000Z</time>
      </trkpt>
      <trkpt lat="45.90051" lon="3.01534">
        <ele>707.7</ele>
        <time>1970-01-01T01:45:14.000Z</time>
      </trkpt>
      <trkpt lat="45.90052" lon="3.01534">
        <ele>707.7</ele>
        <time>1970-01-01T01:45:15.000Z</time>
      </trkpt>
      <trkpt lat="45.90053" lon="3.01535">
        <ele>707.8</ele>
        <time>1970-01-01T01:45:16.000Z</time>
      </trkpt>
      <trkpt lat="45.90054" lon="3.01538">
        <ele>707.9</ele>
        <time>1970-01-01T01:45:18.000Z</time>
      </trkpt>
      <trkpt lat="45.90055" lon="3.01539">
        <ele>707.9</ele>
        <time>1970-01-01T01:45:19.000Z</time>
      </trkpt>
      <trkpt lat="45.90055" lon="3.01539">
        <ele>707.9</ele>
        <time>1970-01-01T01:45:20.000Z</time>
      </trkpt>
      <trkpt lat="45.90055" lon="3.01539">
        <ele>707.9</ele>
        <time>1970-01-01T01:45:21.000Z</time>
      </trkpt>
      <trkpt lat="45.90055" lon="3.01538">
        <ele>707.9</ele>
        <time>1970-01-01T01:45:22.000Z</time>
      </trkpt>
      <trkpt lat="45.90056" lon="3.01538">
        <ele>707.9</ele>
        <time>1970-01-01T01:45:23.000Z</time>
      </trkpt>
      <trkpt lat="45.90056" lon="3.01538">
        <ele>707.9</ele>
        <time>1970-01-01T01:45:24.000Z</time>
      </trkpt>
      <trkpt lat="45.90056" lon="3.01538">
        <ele>707.9</ele>
        <time>1970-01-01T01:45:25.000Z</time>
      </trkpt>
      <trkpt lat="45.90056" lon="3.01538">
        <ele>707.9</ele>
        <time>1970-01-01T01:45:26.000Z</time>
      </trkpt>
      <trkpt lat="45.90056" lon="3.01538">
        <ele>708</ele>
        <time>1970-01-01T01:45:27.000Z</time>
      </trkpt>
      <trkpt lat="45.90056" lon="3.01537">
        <ele>708</ele>
        <time>1970-01-01T01:45:28.000Z</time>
      </trkpt>
      <trkpt lat="45.90057" lon="3.01537">
        <ele>708</ele>
        <time>1970-01-01T01:45:29.000Z</time>
      </trkpt>
      <trkpt lat="45.90057" lon="3.01537">
        <ele>708</ele>
        <time>1970-01-01T01:45:30.000Z</time>
      </trkpt>
      <trkpt lat="45.90057" lon="3.01537">
        <ele>708</ele>
        <time>1970-01-01T01:46:30.000Z</time>
      </trkpt>
      <trkpt lat="45.90057" lon="3.01537">
        <ele>708</ele>
        <time>1970-01-01T01:46:31.000Z</time>
      </trkpt>
      <trkpt lat="45.90057" lon="3.01537">
        <ele>708</ele>
        <time>1970-01-01T01:46:32.000Z</time>
      </trkpt>
      <trkpt lat="45.90057" lon="3.01536">
        <ele>708</ele>
        <time>1970-01-01T01:46:33.000Z</time>
      </trkpt>
      <trkpt lat="45.90058" lon="3.01536">
        <ele>708</ele>
        <time>1970-01-01T01:46:34.000Z</time>
      </trkpt>
      <trkpt lat="45.90058" lon="3.01536">
        <ele>708</ele>
        <time>1970-01-01T01:46:35.000Z</time>
      </trkpt>
      <trkpt lat="45.90058" lon="3.01536">
        <ele>708</ele>
        <time>1970-01-01T01:46:36.000Z</time>
      </trkpt>
      <trkpt lat="45.90058" lon="3.01536">
        <ele>708</ele>
        <time>1970-01-01T01:46:37.000Z</time>
      </trkpt>
      <trkpt lat="45.90058" lon="3.01536">
        <ele>708</ele>
        <time>1970-01-01T01:46:39.000Z</time>
      </trkpt>
      <trkpt lat="45.90059" lon="3.01535">
        <ele>708</ele>
        <time>1970-01-01T01:46:40.000Z</time>
      </trkpt>
      <trkpt lat="45.90059" lon="3.01535">
        <ele>708.1</ele>
        <time>1970-01-01T01:46:41.000Z</time>
      </trkpt>
      <trkpt lat="45.90061" lon="3.01531">
        <ele>708.2</ele>
        <time>1970-01-01T01:46:43.000Z</time>
      </trkpt>
      <trkpt lat="45.90062" lon="3.01527">
        <ele>708.3</ele>
        <time>1970-01-01T01:46:45.000Z</time>
      </trkpt>
      <trkpt lat="45.90064" lon="3.01524">
        <ele>708.4</ele>
        <time>1970-01-01T01:46:46.000Z</time>
      </trkpt>
      <trkpt lat="45.90065" lon="3.01519">
        <ele>708.6</ele>
        <time>1970-01-01T01:46:48.000Z</time>
      </trkpt>
      <trkpt lat="45.90067" lon="3.01515">
        <ele>708.8</ele>
        <time>1970-01-01T01:46:49.000Z</time>
      </trkpt>
      <trkpt lat="45.90069" lon="3.0151">
        <ele>709</ele>
        <time>1970-01-01T01:46:50.000Z</time>
      </trkpt>
      <trkpt lat="45.9007" lon="3.01509">
        <ele>709</ele>
        <time>1970-01-01T01:46:51.000Z</time>
      </trkpt>
      <trkpt lat="45.90071" lon="3.01504">
        <ele>709.2</ele>
        <time>1970-01-01T01:46:53.000Z</time>
      </trkpt>
      <trkpt lat="45.90072" lon="3.01502">
        <ele>709.3</ele>
        <time>1970-01-01T01:46:54.000Z</time>
      </trkpt>
      <trkpt lat="45.90073" lon="3.01497">
        <ele>709.5</ele>
        <time>1970-01-01T01:46:55.000Z</time>
      </trkpt>
      <trkpt lat="45.90074" lon="3.01496">
        <ele>709.5</ele>
        <time>1970-01-01T01:46:56.000Z</time>
      </trkpt>
      <trkpt lat="45.90075" lon="3.01492">
        <ele>709.6</ele>
        <time>1970-01-01T01:46:57.000Z</time>
      </trkpt>
      <trkpt lat="45.90077" lon="3.01488">
        <ele>709.7</ele>
        <time>1970-01-01T01:46:58.000Z</time>
      </trkpt>
      <trkpt lat="45.90077" lon="3.01487">
        <ele>709.8</ele>
        <time>1970-01-01T01:46:59.000Z</time>
      </trkpt>
      <trkpt lat="45.90078" lon="3.01482">
        <ele>709.9</ele>
        <time>1970-01-01T01:47:01.000Z</time>
      </trkpt>
      <trkpt lat="45.90079" lon="3.01479">
        <ele>710</ele>
        <time>1970-01-01T01:47:02.000Z</time>
      </trkpt>
      <trkpt lat="45.90081" lon="3.01475">
        <ele>710.1</ele>
        <time>1970-01-01T01:47:03.000Z</time>
      </trkpt>
      <trkpt lat="45.90081" lon="3.01471">
        <ele>710.1</ele>
        <time>1970-01-01T01:47:04.000Z</time>
      </trkpt>
      <trkpt lat="45.90081" lon="3.01464">
        <ele>710.2</ele>
        <time>1970-01-01T01:47:05.000Z</time>
      </trkpt>
      <trkpt lat="45.90082" lon="3.01459">
        <ele>710.3</ele>
        <time>1970-01-01T01:47:06.000Z</time>
      </trkpt>
      <trkpt lat="45.90083" lon="3.01451">
        <ele>710.3</ele>
        <time>1970-01-01T01:47:08.000Z</time>
      </trkpt>
      <trkpt lat="45.90083" lon="3.01446">
        <ele>710.4</ele>
        <time>1970-01-01T01:47:09.000Z</time>
      </trkpt>
      <trkpt lat="45.90083" lon="3.01441">
        <ele>710.4</ele>
        <time>1970-01-01T01:47:10.000Z</time>
      </trkpt>
      <trkpt lat="45.90084" lon="3.01433">
        <ele>710.4</ele>
        <time>1970-01-01T01:47:12.000Z</time>
      </trkpt>
      <trkpt lat="45.90085" lon="3.01428">
        <ele>710.4</ele>
        <time>1970-01-01T01:47:13.000Z</time>
      </trkpt>
      <trkpt lat="45.90087" lon="3.01423">
        <ele>710.5</ele>
        <time>1970-01-01T01:47:14.000Z</time>
      </trkpt>
      <trkpt lat="45.90087" lon="3.01418">
        <ele>710.5</ele>
        <time>1970-01-01T01:47:15.000Z</time>
      </trkpt>
      <trkpt lat="45.90088" lon="3.01411">
        <ele>710.6</ele>
        <time>1970-01-01T01:47:16.000Z</time>
      </trkpt>
      <trkpt lat="45.90087" lon="3.01404">
        <ele>710.7</ele>
        <time>1970-01-01T01:47:18.000Z</time>
      </trkpt>
      <trkpt lat="45.90086" lon="3.01399">
        <ele>710.8</ele>
        <time>1970-01-01T01:47:19.000Z</time>
      </trkpt>
      <trkpt lat="45.90085" lon="3.01396">
        <ele>710.8</ele>
        <time>1970-01-01T01:47:20.000Z</time>
      </trkpt>
      <trkpt lat="45.90084" lon="3.01392">
        <ele>710.9</ele>
        <time>1970-01-01T01:47:21.000Z</time>
      </trkpt>
      <trkpt lat="45.90082" lon="3.01384">
        <ele>711</ele>
        <time>1970-01-01T01:47:23.000Z</time>
      </trkpt>
      <trkpt lat="45.9008" lon="3.0138">
        <ele>711.1</ele>
        <time>1970-01-01T01:47:24.000Z</time>
      </trkpt>
      <trkpt lat="45.90078" lon="3.01374">
        <ele>711.3</ele>
        <time>1970-01-01T01:47:25.000Z</time>
      </trkpt>
      <trkpt lat="45.90076" lon="3.01368">
        <ele>711.5</ele>
        <time>1970-01-01T01:47:27.000Z</time>
      </trkpt>
      <trkpt lat="45.90075" lon="3.01364">
        <ele>711.6</ele>
        <time>1970-01-01T01:47:28.000Z</time>
      </trkpt>
      <trkpt lat="45.90073" lon="3.01359">
        <ele>711.7</ele>
        <time>1970-01-01T01:47:29.000Z</time>
      </trkpt>
      <trkpt lat="45.90072" lon="3.01355">
        <ele>711.8</ele>
        <time>1970-01-01T01:47:30.000Z</time>
      </trkpt>
      <trkpt lat="45.90069" lon="3.01349">
        <ele>712</ele>
        <time>1970-01-01T01:47:31.000Z</time>
      </trkpt>
      <trkpt lat="45.90068" lon="3.01345">
        <ele>712.2</ele>
        <time>1970-01-01T01:47:32.000Z</time>
      </trkpt>
      <trkpt lat="45.90065" lon="3.0134">
        <ele>712.4</ele>
        <time>1970-01-01T01:47:34.000Z</time>
      </trkpt>
      <trkpt lat="45.90064" lon="3.01337">
        <ele>712.6</ele>
        <time>1970-01-01T01:47:35.000Z</time>
      </trkpt>
      <trkpt lat="45.90061" lon="3.01331">
        <ele>712.9</ele>
        <time>1970-01-01T01:47:36.000Z</time>
      </trkpt>
      <trkpt lat="45.90059" lon="3.01326">
        <ele>713.1</ele>
        <time>1970-01-01T01:47:37.000Z</time>
      </trkpt>
      <trkpt lat="45.90057" lon="3.01322">
        <ele>713.4</ele>
        <time>1970-01-01T01:47:39.000Z</time>
      </trkpt>
      <trkpt lat="45.90056" lon="3.01317">
        <ele>713.6</ele>
        <time>1970-01-01T01:47:40.000Z</time>
      </trkpt>
      <trkpt lat="45.90055" lon="3.01312">
        <ele>713.9</ele>
        <time>1970-01-01T01:47:41.000Z</time>
      </trkpt>
      <trkpt lat="45.90054" lon="3.01308">
        <ele>714.2</ele>
        <time>1970-01-01T01:47:43.000Z</time>
      </trkpt>
      <trkpt lat="45.90053" lon="3.01305">
        <ele>714.3</ele>
        <time>1970-01-01T01:47:44.000Z</time>
      </trkpt>
      <trkpt lat="45.90052" lon="3.01298">
        <ele>714.7</ele>
        <time>1970-01-01T01:47:46.000Z</time>
      </trkpt>
      <trkpt lat="45.90051" lon="3.01294">
        <ele>714.9</ele>
        <time>1970-01-01T01:47:47.000Z</time>
      </trkpt>
      <trkpt lat="45.90051" lon="3.01293">
        <ele>715</ele>
        <time>1970-01-01T01:47:48.000Z</time>
      </trkpt>
      <trkpt lat="45.90051" lon="3.01289">
        <ele>715.2</ele>
        <time>1970-01-01T01:47:49.000Z</time>
      </trkpt>
      <trkpt lat="45.9005" lon="3.01285">
        <ele>715.4</ele>
        <time>1970-01-01T01:47:50.000Z</time>
      </trkpt>
      <trkpt lat="45.9005" lon="3.01278">
        <ele>715.7</ele>
        <time>1970-01-01T01:47:52.000Z</time>
      </trkpt>
      <trkpt lat="45.90049" lon="3.01272">
        <ele>716</ele>
        <time>1970-01-01T01:47:53.000Z</time>
      </trkpt>
      <trkpt lat="45.90049" lon="3.0127">
        <ele>716.1</ele>
        <time>1970-01-01T01:47:54.000Z</time>
      </trkpt>
      <trkpt lat="45.90048" lon="3.01265">
        <ele>716.3</ele>
        <time>1970-01-01T01:47:55.000Z</time>
      </trkpt>
      <trkpt lat="45.90048" lon="3.01263">
        <ele>716.4</ele>
        <time>1970-01-01T01:47:56.000Z</time>
      </trkpt>
      <trkpt lat="45.90047" lon="3.01257">
        <ele>716.6</ele>
        <time>1970-01-01T01:47:57.000Z</time>
      </trkpt>
      <trkpt lat="45.90047" lon="3.01256">
        <ele>716.7</ele>
        <time>1970-01-01T01:47:58.000Z</time>
      </trkpt>
      <trkpt lat="45.90045" lon="3.01251">
        <ele>716.8</ele>
        <time>1970-01-01T01:47:59.000Z</time>
      </trkpt>
      <trkpt lat="45.90045" lon="3.0125">
        <ele>716.9</ele>
        <time>1970-01-01T01:48:00.000Z</time>
      </trkpt>
      <trkpt lat="45.90043" lon="3.01245">
        <ele>717.1</ele>
        <time>1970-01-01T01:48:01.000Z</time>
      </trkpt>
      <trkpt lat="45.90043" lon="3.01243">
        <ele>717.2</ele>
        <time>1970-01-01T01:48:02.000Z</time>
      </trkpt>
      <trkpt lat="45.90042" lon="3.01239">
        <ele>717.3</ele>
        <time>1970-01-01T01:48:03.000Z</time>
      </trkpt>
      <trkpt lat="45.90042" lon="3.01237">
        <ele>717.4</ele>
        <time>1970-01-01T01:48:04.000Z</time>
      </trkpt>
      <trkpt lat="45.90041" lon="3.01233">
        <ele>717.5</ele>
        <time>1970-01-01T01:48:05.000Z</time>
      </trkpt>
      <trkpt lat="45.9004" lon="3.01231">
        <ele>717.6</ele>
        <time>1970-01-01T01:48:06.000Z</time>
      </trkpt>
      <trkpt lat="45.90039" lon="3.01228">
        <ele>717.7</ele>
        <time>1970-01-01T01:48:07.000Z</time>
      </trkpt>
      <trkpt lat="45.90036" lon="3.01224">
        <ele>717.8</ele>
        <time>1970-01-01T01:48:09.000Z</time>
      </trkpt>
      <trkpt lat="45.90033" lon="3.01221">
        <ele>717.9</ele>
        <time>1970-01-01T01:48:10.000Z</time>
      </trkpt>
      <trkpt lat="45.90032" lon="3.01221">
        <ele>717.9</ele>
        <time>1970-01-01T01:48:11.000Z</time>
      </trkpt>
      <trkpt lat="45.90028" lon="3.01223">
        <ele>717.9</ele>
        <time>1970-01-01T01:48:13.000Z</time>
      </trkpt>
      <trkpt lat="45.90026" lon="3.01226">
        <ele>717.9</ele>
        <time>1970-01-01T01:48:14.000Z</time>
      </trkpt>
      <trkpt lat="45.90024" lon="3.01229">
        <ele>717.9</ele>
        <time>1970-01-01T01:48:15.000Z</time>
      </trkpt>
      <trkpt lat="45.90022" lon="3.01232">
        <ele>718</ele>
        <time>1970-01-01T01:48:16.000Z</time>
      </trkpt>
      <trkpt lat="45.9002" lon="3.01235">
        <ele>718</ele>
        <time>1970-01-01T01:48:17.000Z</time>
      </trkpt>
      <trkpt lat="45.90018" lon="3.01238">
        <ele>718.1</ele>
        <time>1970-01-01T01:48:18.000Z</time>
      </trkpt>
      <trkpt lat="45.90016" lon="3.01241">
        <ele>718.1</ele>
        <time>1970-01-01T01:48:19.000Z</time>
      </trkpt>
      <trkpt lat="45.90014" lon="3.01246">
        <ele>718.2</ele>
        <time>1970-01-01T01:48:20.000Z</time>
      </trkpt>
      <trkpt lat="45.90013" lon="3.0125">
        <ele>718.3</ele>
        <time>1970-01-01T01:48:21.000Z</time>
      </trkpt>
      <trkpt lat="45.90011" lon="3.01255">
        <ele>718.5</ele>
        <time>1970-01-01T01:48:23.000Z</time>
      </trkpt>
      <trkpt lat="45.9001" lon="3.01259">
        <ele>718.6</ele>
        <time>1970-01-01T01:48:24.000Z</time>
      </trkpt>
      <trkpt lat="45.90007" lon="3.01263">
        <ele>718.7</ele>
        <time>1970-01-01T01:48:25.000Z</time>
      </trkpt>
      <trkpt lat="45.90005" lon="3.01267">
        <ele>718.9</ele>
        <time>1970-01-01T01:48:26.000Z</time>
      </trkpt>
      <trkpt lat="45.90003" lon="3.0127">
        <ele>719</ele>
        <time>1970-01-01T01:48:28.000Z</time>
      </trkpt>
      <trkpt lat="45.90001" lon="3.01273">
        <ele>719.1</ele>
        <time>1970-01-01T01:48:29.000Z</time>
      </trkpt>
      <trkpt lat="45.89998" lon="3.01274">
        <ele>719.3</ele>
        <time>1970-01-01T01:48:30.000Z</time>
      </trkpt>
      <trkpt lat="45.89996" lon="3.01275">
        <ele>719.4</ele>
        <time>1970-01-01T01:48:31.000Z</time>
      </trkpt>
      <trkpt lat="45.89992" lon="3.01277">
        <ele>719.6</ele>
        <time>1970-01-01T01:48:32.000Z</time>
      </trkpt>
      <trkpt lat="45.8999" lon="3.01278">
        <ele>719.7</ele>
        <time>1970-01-01T01:48:33.000Z</time>
      </trkpt>
      <trkpt lat="45.89988" lon="3.01279">
        <ele>719.8</ele>
        <time>1970-01-01T01:48:34.000Z</time>
      </trkpt>
      <trkpt lat="45.89985" lon="3.01281">
        <ele>720</ele>
        <time>1970-01-01T01:48:36.000Z</time>
      </trkpt>
      <trkpt lat="45.89982" lon="3.01283">
        <ele>720.1</ele>
        <time>1970-01-01T01:48:37.000Z</time>
      </trkpt>
      <trkpt lat="45.89979" lon="3.01285">
        <ele>720.3</ele>
        <time>1970-01-01T01:48:38.000Z</time>
      </trkpt>
      <trkpt lat="45.89977" lon="3.01286">
        <ele>720.4</ele>
        <time>1970-01-01T01:48:39.000Z</time>
      </trkpt>
      <trkpt lat="45.89973" lon="3.01287">
        <ele>720.6</ele>
        <time>1970-01-01T01:48:40.000Z</time>
      </trkpt>
      <trkpt lat="45.89972" lon="3.01287">
        <ele>720.7</ele>
        <time>1970-01-01T01:48:41.000Z</time>
      </trkpt>
      <trkpt lat="45.8997" lon="3.01289">
        <ele>720.8</ele>
        <time>1970-01-01T01:48:42.000Z</time>
      </trkpt>
      <trkpt lat="45.89967" lon="3.0129">
        <ele>720.9</ele>
        <time>1970-01-01T01:48:44.000Z</time>
      </trkpt>
      <trkpt lat="45.89964" lon="3.01291">
        <ele>721.1</ele>
        <time>1970-01-01T01:48:45.000Z</time>
      </trkpt>
      <trkpt lat="45.89959" lon="3.01294">
        <ele>721.3</ele>
        <time>1970-01-01T01:48:47.000Z</time>
      </trkpt>
      <trkpt lat="45.89955" lon="3.01298">
        <ele>721.5</ele>
        <time>1970-01-01T01:48:49.000Z</time>
      </trkpt>
      <trkpt lat="45.89952" lon="3.013">
        <ele>721.6</ele>
        <time>1970-01-01T01:48:50.000Z</time>
      </trkpt>
      <trkpt lat="45.89951" lon="3.01301">
        <ele>721.7</ele>
        <time>1970-01-01T01:48:51.000Z</time>
      </trkpt>
      <trkpt lat="45.89948" lon="3.01303">
        <ele>721.8</ele>
        <time>1970-01-01T01:48:52.000Z</time>
      </trkpt>
      <trkpt lat="45.89946" lon="3.01306">
        <ele>721.8</ele>
        <time>1970-01-01T01:48:53.000Z</time>
      </trkpt>
      <trkpt lat="45.89943" lon="3.01309">
        <ele>721.9</ele>
        <time>1970-01-01T01:48:54.000Z</time>
      </trkpt>
      <trkpt lat="45.89941" lon="3.01312">
        <ele>722</ele>
        <time>1970-01-01T01:48:56.000Z</time>
      </trkpt>
      <trkpt lat="45.89938" lon="3.01315">
        <ele>722.1</ele>
        <time>1970-01-01T01:48:57.000Z</time>
      </trkpt>
      <trkpt lat="45.89936" lon="3.01319">
        <ele>722.1</ele>
        <time>1970-01-01T01:48:58.000Z</time>
      </trkpt>
      <trkpt lat="45.89935" lon="3.0132">
        <ele>722.2</ele>
        <time>1970-01-01T01:48:59.000Z</time>
      </trkpt>
      <trkpt lat="45.89933" lon="3.01322">
        <ele>722.2</ele>
        <time>1970-01-01T01:49:00.000Z</time>
      </trkpt>
      <trkpt lat="45.89931" lon="3.01324">
        <ele>722.2</ele>
        <time>1970-01-01T01:49:01.000Z</time>
      </trkpt>
      <trkpt lat="45.89927" lon="3.01328">
        <ele>722.2</ele>
        <time>1970-01-01T01:49:03.000Z</time>
      </trkpt>
      <trkpt lat="45.89924" lon="3.01333">
        <ele>722.2</ele>
        <time>1970-01-01T01:49:05.000Z</time>
      </trkpt>
      <trkpt lat="45.89922" lon="3.01337">
        <ele>722.2</ele>
        <time>1970-01-01T01:49:06.000Z</time>
      </trkpt>
      <trkpt lat="45.8992" lon="3.0134">
        <ele>722.1</ele>
        <time>1970-01-01T01:49:07.000Z</time>
      </trkpt>
      <trkpt lat="45.89917" lon="3.01344">
        <ele>722</ele>
        <time>1970-01-01T01:49:08.000Z</time>
      </trkpt>
      <trkpt lat="45.89916" lon="3.01348">
        <ele>721.8</ele>
        <time>1970-01-01T01:49:09.000Z</time>
      </trkpt>
      <trkpt lat="45.89914" lon="3.01353">
        <ele>721.7</ele>
        <time>1970-01-01T01:49:10.000Z</time>
      </trkpt>
      <trkpt lat="45.89912" lon="3.01359">
        <ele>721.4</ele>
        <time>1970-01-01T01:49:12.000Z</time>
      </trkpt>
      <trkpt lat="45.8991" lon="3.01364">
        <ele>721.2</ele>
        <time>1970-01-01T01:49:13.000Z</time>
      </trkpt>
      <trkpt lat="45.89908" lon="3.01369">
        <ele>721</ele>
        <time>1970-01-01T01:49:14.000Z</time>
      </trkpt>
      <trkpt lat="45.89906" lon="3.01376">
        <ele>720.7</ele>
        <time>1970-01-01T01:49:15.000Z</time>
      </trkpt>
      <trkpt lat="45.89904" lon="3.01381">
        <ele>720.5</ele>
        <time>1970-01-01T01:49:16.000Z</time>
      </trkpt>
      <trkpt lat="45.89901" lon="3.01387">
        <ele>720.2</ele>
        <time>1970-01-01T01:49:17.000Z</time>
      </trkpt>
      <trkpt lat="45.89899" lon="3.01394">
        <ele>719.9</ele>
        <time>1970-01-01T01:49:18.000Z</time>
      </trkpt>
      <trkpt lat="45.89897" lon="3.014">
        <ele>719.6</ele>
        <time>1970-01-01T01:49:19.000Z</time>
      </trkpt>
      <trkpt lat="45.89894" lon="3.01408">
        <ele>719.3</ele>
        <time>1970-01-01T01:49:20.000Z</time>
      </trkpt>
      <trkpt lat="45.89892" lon="3.01415">
        <ele>718.9</ele>
        <time>1970-01-01T01:49:21.000Z</time>
      </trkpt>
      <trkpt lat="45.8989" lon="3.01423">
        <ele>718.6</ele>
        <time>1970-01-01T01:49:22.000Z</time>
      </trkpt>
      <trkpt lat="45.89888" lon="3.0143">
        <ele>718.2</ele>
        <time>1970-01-01T01:49:23.000Z</time>
      </trkpt>
      <trkpt lat="45.89885" lon="3.01437">
        <ele>717.9</ele>
        <time>1970-01-01T01:49:24.000Z</time>
      </trkpt>
      <trkpt lat="45.89882" lon="3.01444">
        <ele>717.6</ele>
        <time>1970-01-01T01:49:25.000Z</time>
      </trkpt>
      <trkpt lat="45.89877" lon="3.01451">
        <ele>717.3</ele>
        <time>1970-01-01T01:49:26.000Z</time>
      </trkpt>
      <trkpt lat="45.89873" lon="3.01458">
        <ele>716.9</ele>
        <time>1970-01-01T01:49:27.000Z</time>
      </trkpt>
      <trkpt lat="45.89868" lon="3.01464">
        <ele>716.6</ele>
        <time>1970-01-01T01:49:28.000Z</time>
      </trkpt>
      <trkpt lat="45.89863" lon="3.0147">
        <ele>716.3</ele>
        <time>1970-01-01T01:49:29.000Z</time>
      </trkpt>
      <trkpt lat="45.89858" lon="3.01475">
        <ele>716.2</ele>
        <time>1970-01-01T01:49:30.000Z</time>
      </trkpt>
      <trkpt lat="45.89852" lon="3.01478">
        <ele>716</ele>
        <time>1970-01-01T01:49:31.000Z</time>
      </trkpt>
      <trkpt lat="45.89846" lon="3.0148">
        <ele>715.7</ele>
        <time>1970-01-01T01:49:32.000Z</time>
      </trkpt>
      <trkpt lat="45.89839" lon="3.01482">
        <ele>715.5</ele>
        <time>1970-01-01T01:49:33.000Z</time>
      </trkpt>
      <trkpt lat="45.89833" lon="3.01484">
        <ele>715.3</ele>
        <time>1970-01-01T01:49:34.000Z</time>
      </trkpt>
      <trkpt lat="45.89827" lon="3.01487">
        <ele>715.1</ele>
        <time>1970-01-01T01:49:35.000Z</time>
      </trkpt>
      <trkpt lat="45.89822" lon="3.0149">
        <ele>714.9</ele>
        <time>1970-01-01T01:49:36.000Z</time>
      </trkpt>
      <trkpt lat="45.89816" lon="3.01494">
        <ele>714.7</ele>
        <time>1970-01-01T01:49:37.000Z</time>
      </trkpt>
      <trkpt lat="45.8981" lon="3.01498">
        <ele>714.5</ele>
        <time>1970-01-01T01:49:38.000Z</time>
      </trkpt>
      <trkpt lat="45.89805" lon="3.01504">
        <ele>714.4</ele>
        <time>1970-01-01T01:49:39.000Z</time>
      </trkpt>
      <trkpt lat="45.89801" lon="3.0151">
        <ele>714.3</ele>
        <time>1970-01-01T01:49:40.000Z</time>
      </trkpt>
      <trkpt lat="45.89797" lon="3.01517">
        <ele>714.3</ele>
        <time>1970-01-01T01:49:41.000Z</time>
      </trkpt>
      <trkpt lat="45.89794" lon="3.01524">
        <ele>714.4</ele>
        <time>1970-01-01T01:49:42.000Z</time>
      </trkpt>
      <trkpt lat="45.89791" lon="3.01532">
        <ele>714.5</ele>
        <time>1970-01-01T01:49:43.000Z</time>
      </trkpt>
      <trkpt lat="45.89788" lon="3.01539">
        <ele>714.7</ele>
        <time>1970-01-01T01:49:44.000Z</time>
      </trkpt>
      <trkpt lat="45.89785" lon="3.01545">
        <ele>714.8</ele>
        <time>1970-01-01T01:49:45.000Z</time>
      </trkpt>
      <trkpt lat="45.89782" lon="3.01551">
        <ele>715</ele>
        <time>1970-01-01T01:49:46.000Z</time>
      </trkpt>
      <trkpt lat="45.8978" lon="3.01557">
        <ele>715.2</ele>
        <time>1970-01-01T01:49:47.000Z</time>
      </trkpt>
      <trkpt lat="45.89777" lon="3.01563">
        <ele>715.4</ele>
        <time>1970-01-01T01:49:48.000Z</time>
      </trkpt>
      <trkpt lat="45.89775" lon="3.01569">
        <ele>715.5</ele>
        <time>1970-01-01T01:49:49.000Z</time>
      </trkpt>
      <trkpt lat="45.89772" lon="3.01574">
        <ele>715.6</ele>
        <time>1970-01-01T01:49:50.000Z</time>
      </trkpt>
      <trkpt lat="45.8977" lon="3.01579">
        <ele>715.7</ele>
        <time>1970-01-01T01:49:51.000Z</time>
      </trkpt>
      <trkpt lat="45.89768" lon="3.01582">
        <ele>715.8</ele>
        <time>1970-01-01T01:49:52.000Z</time>
      </trkpt>
      <trkpt lat="45.89763" lon="3.01587">
        <ele>715.9</ele>
        <time>1970-01-01T01:49:53.000Z</time>
      </trkpt>
      <trkpt lat="45.8976" lon="3.0159">
        <ele>715.9</ele>
        <time>1970-01-01T01:49:54.000Z</time>
      </trkpt>
      <trkpt lat="45.89757" lon="3.01594">
        <ele>716</ele>
        <time>1970-01-01T01:49:55.000Z</time>
      </trkpt>
      <trkpt lat="45.89755" lon="3.01597">
        <ele>716</ele>
        <time>1970-01-01T01:49:56.000Z</time>
      </trkpt>
      <trkpt lat="45.89752" lon="3.01601">
        <ele>716.1</ele>
        <time>1970-01-01T01:49:57.000Z</time>
      </trkpt>
      <trkpt lat="45.89748" lon="3.01605">
        <ele>716.1</ele>
        <time>1970-01-01T01:49:58.000Z</time>
      </trkpt>
      <trkpt lat="45.89746" lon="3.01607">
        <ele>716.1</ele>
        <time>1970-01-01T01:49:59.000Z</time>
      </trkpt>
      <trkpt lat="45.89742" lon="3.01613">
        <ele>716.1</ele>
        <time>1970-01-01T01:50:01.000Z</time>
      </trkpt>
      <trkpt lat="45.89739" lon="3.01617">
        <ele>716.1</ele>
        <time>1970-01-01T01:50:02.000Z</time>
      </trkpt>
      <trkpt lat="45.89736" lon="3.01619">
        <ele>716.1</ele>
        <time>1970-01-01T01:50:03.000Z</time>
      </trkpt>
      <trkpt lat="45.89731" lon="3.01624">
        <ele>716</ele>
        <time>1970-01-01T01:50:04.000Z</time>
      </trkpt>
      <trkpt lat="45.89725" lon="3.01631">
        <ele>715.9</ele>
        <time>1970-01-01T01:50:06.000Z</time>
      </trkpt>
      <trkpt lat="45.89722" lon="3.01635">
        <ele>715.8</ele>
        <time>1970-01-01T01:50:07.000Z</time>
      </trkpt>
      <trkpt lat="45.89719" lon="3.01641">
        <ele>715.8</ele>
        <time>1970-01-01T01:50:08.000Z</time>
      </trkpt>
      <trkpt lat="45.89715" lon="3.01645">
        <ele>715.7</ele>
        <time>1970-01-01T01:50:09.000Z</time>
      </trkpt>
      <trkpt lat="45.89711" lon="3.01651">
        <ele>715.7</ele>
        <time>1970-01-01T01:50:10.000Z</time>
      </trkpt>
      <trkpt lat="45.89705" lon="3.01662">
        <ele>715.8</ele>
        <time>1970-01-01T01:50:13.000Z</time>
      </trkpt>
      <trkpt lat="45.89703" lon="3.01666">
        <ele>715.9</ele>
        <time>1970-01-01T01:50:14.000Z</time>
      </trkpt>
      <trkpt lat="45.89701" lon="3.01671">
        <ele>716</ele>
        <time>1970-01-01T01:50:15.000Z</time>
      </trkpt>
      <trkpt lat="45.89699" lon="3.01678">
        <ele>716.2</ele>
        <time>1970-01-01T01:50:16.000Z</time>
      </trkpt>
      <trkpt lat="45.89697" lon="3.01683">
        <ele>716.4</ele>
        <time>1970-01-01T01:50:17.000Z</time>
      </trkpt>
      <trkpt lat="45.89695" lon="3.01688">
        <ele>716.6</ele>
        <time>1970-01-01T01:50:18.000Z</time>
      </trkpt>
      <trkpt lat="45.89693" lon="3.01693">
        <ele>716.8</ele>
        <time>1970-01-01T01:50:19.000Z</time>
      </trkpt>
      <trkpt lat="45.89691" lon="3.01697">
        <ele>717</ele>
        <time>1970-01-01T01:50:21.000Z</time>
      </trkpt>
      <trkpt lat="45.89689" lon="3.017">
        <ele>717.1</ele>
        <time>1970-01-01T01:50:22.000Z</time>
      </trkpt>
      <trkpt lat="45.89688" lon="3.01704">
        <ele>717.3</ele>
        <time>1970-01-01T01:50:23.000Z</time>
      </trkpt>
      <trkpt lat="45.89686" lon="3.01707">
        <ele>717.4</ele>
        <time>1970-01-01T01:50:24.000Z</time>
      </trkpt>
      <trkpt lat="45.89683" lon="3.01711">
        <ele>717.6</ele>
        <time>1970-01-01T01:50:25.000Z</time>
      </trkpt>
      <trkpt lat="45.89682" lon="3.01713">
        <ele>717.7</ele>
        <time>1970-01-01T01:50:26.000Z</time>
      </trkpt>
      <trkpt lat="45.89679" lon="3.01716">
        <ele>717.8</ele>
        <time>1970-01-01T01:50:27.000Z</time>
      </trkpt>
      <trkpt lat="45.89676" lon="3.0172">
        <ele>717.9</ele>
        <time>1970-01-01T01:50:28.000Z</time>
      </trkpt>
      <trkpt lat="45.89673" lon="3.01723">
        <ele>718</ele>
        <time>1970-01-01T01:50:29.000Z</time>
      </trkpt>
      <trkpt lat="45.8967" lon="3.01727">
        <ele>718.1</ele>
        <time>1970-01-01T01:50:31.000Z</time>
      </trkpt>
      <trkpt lat="45.89667" lon="3.0173">
        <ele>718.1</ele>
        <time>1970-01-01T01:50:32.000Z</time>
      </trkpt>
      <trkpt lat="45.89664" lon="3.01733">
        <ele>718.2</ele>
        <time>1970-01-01T01:50:33.000Z</time>
      </trkpt>
      <trkpt lat="45.8966" lon="3.01736">
        <ele>718.2</ele>
        <time>1970-01-01T01:50:34.000Z</time>
      </trkpt>
      <trkpt lat="45.89657" lon="3.01738">
        <ele>718.2</ele>
        <time>1970-01-01T01:50:35.000Z</time>
      </trkpt>
      <trkpt lat="45.89653" lon="3.0174">
        <ele>718.3</ele>
        <time>1970-01-01T01:50:37.000Z</time>
      </trkpt>
      <trkpt lat="45.89647" lon="3.01743">
        <ele>718.3</ele>
        <time>1970-01-01T01:50:39.000Z</time>
      </trkpt>
      <trkpt lat="45.89643" lon="3.01743">
        <ele>718.3</ele>
        <time>1970-01-01T01:50:40.000Z</time>
      </trkpt>
      <trkpt lat="45.8964" lon="3.01744">
        <ele>718.3</ele>
        <time>1970-01-01T01:50:41.000Z</time>
      </trkpt>
      <trkpt lat="45.89636" lon="3.01745">
        <ele>718.2</ele>
        <time>1970-01-01T01:50:42.000Z</time>
      </trkpt>
      <trkpt lat="45.89633" lon="3.01746">
        <ele>718.2</ele>
        <time>1970-01-01T01:50:43.000Z</time>
      </trkpt>
      <trkpt lat="45.89629" lon="3.01748">
        <ele>718.2</ele>
        <time>1970-01-01T01:50:45.000Z</time>
      </trkpt>
      <trkpt lat="45.89624" lon="3.01748">
        <ele>718.1</ele>
        <time>1970-01-01T01:50:46.000Z</time>
      </trkpt>
      <trkpt lat="45.8962" lon="3.01749">
        <ele>718.1</ele>
        <time>1970-01-01T01:50:47.000Z</time>
      </trkpt>
      <trkpt lat="45.89612" lon="3.0175">
        <ele>717.9</ele>
        <time>1970-01-01T01:50:49.000Z</time>
      </trkpt>
      <trkpt lat="45.89608" lon="3.01751">
        <ele>717.9</ele>
        <time>1970-01-01T01:50:51.000Z</time>
      </trkpt>
      <trkpt lat="45.89605" lon="3.01751">
        <ele>717.8</ele>
        <time>1970-01-01T01:50:52.000Z</time>
      </trkpt>
      <trkpt lat="45.896" lon="3.01751">
        <ele>717.8</ele>
        <time>1970-01-01T01:50:53.000Z</time>
      </trkpt>
      <trkpt lat="45.89597" lon="3.01752">
        <ele>717.8</ele>
        <time>1970-01-01T01:50:54.000Z</time>
      </trkpt>
      <trkpt lat="45.89592" lon="3.01752">
        <ele>717.8</ele>
        <time>1970-01-01T01:50:55.000Z</time>
      </trkpt>
      <trkpt lat="45.89588" lon="3.01753">
        <ele>717.8</ele>
        <time>1970-01-01T01:50:56.000Z</time>
      </trkpt>
      <trkpt lat="45.89584" lon="3.01753">
        <ele>717.8</ele>
        <time>1970-01-01T01:50:57.000Z</time>
      </trkpt>
      <trkpt lat="45.89581" lon="3.01754">
        <ele>717.8</ele>
        <time>1970-01-01T01:50:58.000Z</time>
      </trkpt>
      <trkpt lat="45.89577" lon="3.01754">
        <ele>717.8</ele>
        <time>1970-01-01T01:51:00.000Z</time>
      </trkpt>
      <trkpt lat="45.89572" lon="3.01753">
        <ele>717.8</ele>
        <time>1970-01-01T01:51:01.000Z</time>
      </trkpt>
      <trkpt lat="45.8957" lon="3.01752">
        <ele>717.8</ele>
        <time>1970-01-01T01:51:02.000Z</time>
      </trkpt>
      <trkpt lat="45.89564" lon="3.01751">
        <ele>717.8</ele>
        <time>1970-01-01T01:51:03.000Z</time>
      </trkpt>
      <trkpt lat="45.8956" lon="3.0175">
        <ele>717.9</ele>
        <time>1970-01-01T01:51:04.000Z</time>
      </trkpt>
      <trkpt lat="45.89555" lon="3.01749">
        <ele>717.9</ele>
        <time>1970-01-01T01:51:06.000Z</time>
      </trkpt>
      <trkpt lat="45.8955" lon="3.01748">
        <ele>718</ele>
        <time>1970-01-01T01:51:07.000Z</time>
      </trkpt>
      <trkpt lat="45.89544" lon="3.01746">
        <ele>718.1</ele>
        <time>1970-01-01T01:51:08.000Z</time>
      </trkpt>
      <trkpt lat="45.89539" lon="3.01745">
        <ele>718.2</ele>
        <time>1970-01-01T01:51:10.000Z</time>
      </trkpt>
      <trkpt lat="45.89534" lon="3.01744">
        <ele>718.2</ele>
        <time>1970-01-01T01:51:11.000Z</time>
      </trkpt>
      <trkpt lat="45.8953" lon="3.01743">
        <ele>718.3</ele>
        <time>1970-01-01T01:51:12.000Z</time>
      </trkpt>
      <trkpt lat="45.89526" lon="3.01743">
        <ele>718.4</ele>
        <time>1970-01-01T01:51:14.000Z</time>
      </trkpt>
      <trkpt lat="45.89523" lon="3.01743">
        <ele>718.5</ele>
        <time>1970-01-01T01:51:15.000Z</time>
      </trkpt>
      <trkpt lat="45.89517" lon="3.0174">
        <ele>718.6</ele>
        <time>1970-01-01T01:51:17.000Z</time>
      </trkpt>
      <trkpt lat="45.89512" lon="3.0174">
        <ele>718.8</ele>
        <time>1970-01-01T01:51:18.000Z</time>
      </trkpt>
      <trkpt lat="45.89509" lon="3.0174">
        <ele>718.8</ele>
        <time>1970-01-01T01:51:19.000Z</time>
      </trkpt>
      <trkpt lat="45.89505" lon="3.0174">
        <ele>718.9</ele>
        <time>1970-01-01T01:51:20.000Z</time>
      </trkpt>
      <trkpt lat="45.89501" lon="3.01741">
        <ele>719.1</ele>
        <time>1970-01-01T01:51:21.000Z</time>
      </trkpt>
      <trkpt lat="45.89498" lon="3.01742">
        <ele>719.2</ele>
        <time>1970-01-01T01:51:22.000Z</time>
      </trkpt>
      <trkpt lat="45.89494" lon="3.01744">
        <ele>719.3</ele>
        <time>1970-01-01T01:51:23.000Z</time>
      </trkpt>
      <trkpt lat="45.8949" lon="3.01746">
        <ele>719.4</ele>
        <time>1970-01-01T01:51:24.000Z</time>
      </trkpt>
      <trkpt lat="45.89487" lon="3.01747">
        <ele>719.6</ele>
        <time>1970-01-01T01:51:25.000Z</time>
      </trkpt>
      <trkpt lat="45.89483" lon="3.01749">
        <ele>719.7</ele>
        <time>1970-01-01T01:51:26.000Z</time>
      </trkpt>
      <trkpt lat="45.89479" lon="3.01751">
        <ele>719.9</ele>
        <time>1970-01-01T01:51:27.000Z</time>
      </trkpt>
      <trkpt lat="45.89476" lon="3.01753">
        <ele>720.1</ele>
        <time>1970-01-01T01:51:29.000Z</time>
      </trkpt>
      <trkpt lat="45.89473" lon="3.01755">
        <ele>720.2</ele>
        <time>1970-01-01T01:51:30.000Z</time>
      </trkpt>
      <trkpt lat="45.8947" lon="3.01757">
        <ele>720.4</ele>
        <time>1970-01-01T01:51:31.000Z</time>
      </trkpt>
      <trkpt lat="45.89468" lon="3.01759">
        <ele>720.5</ele>
        <time>1970-01-01T01:51:32.000Z</time>
      </trkpt>
      <trkpt lat="45.89465" lon="3.0176">
        <ele>720.7</ele>
        <time>1970-01-01T01:51:33.000Z</time>
      </trkpt>
      <trkpt lat="45.89461" lon="3.01762">
        <ele>720.9</ele>
        <time>1970-01-01T01:51:34.000Z</time>
      </trkpt>
      <trkpt lat="45.8946" lon="3.01763">
        <ele>721</ele>
        <time>1970-01-01T01:51:35.000Z</time>
      </trkpt>
      <trkpt lat="45.89457" lon="3.01764">
        <ele>721.2</ele>
        <time>1970-01-01T01:51:36.000Z</time>
      </trkpt>
      <trkpt lat="45.89454" lon="3.01765">
        <ele>721.3</ele>
        <time>1970-01-01T01:51:37.000Z</time>
      </trkpt>
      <trkpt lat="45.8945" lon="3.01766">
        <ele>721.6</ele>
        <time>1970-01-01T01:51:38.000Z</time>
      </trkpt>
      <trkpt lat="45.89448" lon="3.01767">
        <ele>721.8</ele>
        <time>1970-01-01T01:51:39.000Z</time>
      </trkpt>
      <trkpt lat="45.89445" lon="3.01768">
        <ele>721.9</ele>
        <time>1970-01-01T01:51:40.000Z</time>
      </trkpt>
      <trkpt lat="45.89443" lon="3.01769">
        <ele>722.1</ele>
        <time>1970-01-01T01:51:42.000Z</time>
      </trkpt>
      <trkpt lat="45.8944" lon="3.0177">
        <ele>722.3</ele>
        <time>1970-01-01T01:51:43.000Z</time>
      </trkpt>
      <trkpt lat="45.89439" lon="3.01771">
        <ele>722.4</ele>
        <time>1970-01-01T01:51:44.000Z</time>
      </trkpt>
      <trkpt lat="45.89436" lon="3.01771">
        <ele>722.6</ele>
        <time>1970-01-01T01:51:45.000Z</time>
      </trkpt>
      <trkpt lat="45.89432" lon="3.01772">
        <ele>722.8</ele>
        <time>1970-01-01T01:51:46.000Z</time>
      </trkpt>
      <trkpt lat="45.89428" lon="3.01772">
        <ele>723.1</ele>
        <time>1970-01-01T01:51:48.000Z</time>
      </trkpt>
      <trkpt lat="45.89426" lon="3.01772">
        <ele>723.3</ele>
        <time>1970-01-01T01:51:49.000Z</time>
      </trkpt>
      <trkpt lat="45.89422" lon="3.01773">
        <ele>723.6</ele>
        <time>1970-01-01T01:51:50.000Z</time>
      </trkpt>
      <trkpt lat="45.89418" lon="3.01773">
        <ele>723.9</ele>
        <time>1970-01-01T01:51:52.000Z</time>
      </trkpt>
      <trkpt lat="45.89416" lon="3.01773">
        <ele>724.1</ele>
        <time>1970-01-01T01:51:53.000Z</time>
      </trkpt>
      <trkpt lat="45.89412" lon="3.01773">
        <ele>724.4</ele>
        <time>1970-01-01T01:51:54.000Z</time>
      </trkpt>
      <trkpt lat="45.8941" lon="3.01773">
        <ele>724.5</ele>
        <time>1970-01-01T01:51:55.000Z</time>
      </trkpt>
      <trkpt lat="45.89407" lon="3.01774">
        <ele>724.8</ele>
        <time>1970-01-01T01:51:56.000Z</time>
      </trkpt>
      <trkpt lat="45.89406" lon="3.01774">
        <ele>724.9</ele>
        <time>1970-01-01T01:51:57.000Z</time>
      </trkpt>
      <trkpt lat="45.89402" lon="3.01775">
        <ele>725.2</ele>
        <time>1970-01-01T01:51:58.000Z</time>
      </trkpt>
      <trkpt lat="45.89401" lon="3.01775">
        <ele>725.3</ele>
        <time>1970-01-01T01:51:59.000Z</time>
      </trkpt>
      <trkpt lat="45.89398" lon="3.01775">
        <ele>725.5</ele>
        <time>1970-01-01T01:52:00.000Z</time>
      </trkpt>
      <trkpt lat="45.89394" lon="3.01776">
        <ele>725.9</ele>
        <time>1970-01-01T01:52:01.000Z</time>
      </trkpt>
      <trkpt lat="45.89392" lon="3.01776">
        <ele>726</ele>
        <time>1970-01-01T01:52:02.000Z</time>
      </trkpt>
      <trkpt lat="45.89388" lon="3.01777">
        <ele>726.4</ele>
        <time>1970-01-01T01:52:04.000Z</time>
      </trkpt>
      <trkpt lat="45.89387" lon="3.01778">
        <ele>726.5</ele>
        <time>1970-01-01T01:52:05.000Z</time>
      </trkpt>
      <trkpt lat="45.89385" lon="3.0178">
        <ele>726.8</ele>
        <time>1970-01-01T01:52:06.000Z</time>
      </trkpt>
      <trkpt lat="45.89384" lon="3.01781">
        <ele>726.9</ele>
        <time>1970-01-01T01:52:07.000Z</time>
      </trkpt>
      <trkpt lat="45.89381" lon="3.01784">
        <ele>727.2</ele>
        <time>1970-01-01T01:52:08.000Z</time>
      </trkpt>
      <trkpt lat="45.89378" lon="3.01787">
        <ele>727.6</ele>
        <time>1970-01-01T01:52:10.000Z</time>
      </trkpt>
      <trkpt lat="45.89377" lon="3.01788">
        <ele>727.8</ele>
        <time>1970-01-01T01:52:11.000Z</time>
      </trkpt>
      <trkpt lat="45.89374" lon="3.01792">
        <ele>728.1</ele>
        <time>1970-01-01T01:52:13.000Z</time>
      </trkpt>
      <trkpt lat="45.89373" lon="3.01793">
        <ele>728.2</ele>
        <time>1970-01-01T01:52:14.000Z</time>
      </trkpt>
      <trkpt lat="45.89371" lon="3.01795">
        <ele>728.6</ele>
        <time>1970-01-01T01:52:15.000Z</time>
      </trkpt>
      <trkpt lat="45.89369" lon="3.01797">
        <ele>728.7</ele>
        <time>1970-01-01T01:52:16.000Z</time>
      </trkpt>
      <trkpt lat="45.89368" lon="3.01798">
        <ele>728.9</ele>
        <time>1970-01-01T01:52:17.000Z</time>
      </trkpt>
      <trkpt lat="45.89365" lon="3.01799">
        <ele>729.2</ele>
        <time>1970-01-01T01:52:19.000Z</time>
      </trkpt>
      <trkpt lat="45.89364" lon="3.01801">
        <ele>729.4</ele>
        <time>1970-01-01T01:52:20.000Z</time>
      </trkpt>
      <trkpt lat="45.89362" lon="3.01802">
        <ele>729.5</ele>
        <time>1970-01-01T01:52:21.000Z</time>
      </trkpt>
      <trkpt lat="45.89361" lon="3.01803">
        <ele>729.7</ele>
        <time>1970-01-01T01:52:22.000Z</time>
      </trkpt>
      <trkpt lat="45.89359" lon="3.01803">
        <ele>729.9</ele>
        <time>1970-01-01T01:52:23.000Z</time>
      </trkpt>
      <trkpt lat="45.89358" lon="3.01803">
        <ele>730</ele>
        <time>1970-01-01T01:52:24.000Z</time>
      </trkpt>
      <trkpt lat="45.89356" lon="3.01803">
        <ele>730.2</ele>
        <time>1970-01-01T01:52:25.000Z</time>
      </trkpt>
      <trkpt lat="45.89353" lon="3.01804">
        <ele>730.5</ele>
        <time>1970-01-01T01:52:26.000Z</time>
      </trkpt>
      <trkpt lat="45.89352" lon="3.01804">
        <ele>730.6</ele>
        <time>1970-01-01T01:52:27.000Z</time>
      </trkpt>
      <trkpt lat="45.8935" lon="3.01804">
        <ele>730.8</ele>
        <time>1970-01-01T01:52:28.000Z</time>
      </trkpt>
      <trkpt lat="45.89348" lon="3.01804">
        <ele>731</ele>
        <time>1970-01-01T01:52:30.000Z</time>
      </trkpt>
      <trkpt lat="45.89345" lon="3.01803">
        <ele>731.4</ele>
        <time>1970-01-01T01:52:31.000Z</time>
      </trkpt>
      <trkpt lat="45.89342" lon="3.01803">
        <ele>731.7</ele>
        <time>1970-01-01T01:52:33.000Z</time>
      </trkpt>
      <trkpt lat="45.89341" lon="3.01803">
        <ele>731.8</ele>
        <time>1970-01-01T01:52:34.000Z</time>
      </trkpt>
      <trkpt lat="45.8934" lon="3.01804">
        <ele>732</ele>
        <time>1970-01-01T01:52:35.000Z</time>
      </trkpt>
      <trkpt lat="45.89338" lon="3.01803">
        <ele>732.2</ele>
        <time>1970-01-01T01:52:36.000Z</time>
      </trkpt>
      <trkpt lat="45.89336" lon="3.01803">
        <ele>732.5</ele>
        <time>1970-01-01T01:52:37.000Z</time>
      </trkpt>
      <trkpt lat="45.89335" lon="3.01802">
        <ele>732.7</ele>
        <time>1970-01-01T01:52:38.000Z</time>
      </trkpt>
      <trkpt lat="45.89332" lon="3.01802">
        <ele>733.1</ele>
        <time>1970-01-01T01:52:39.000Z</time>
      </trkpt>
      <trkpt lat="45.89331" lon="3.01802">
        <ele>733.3</ele>
        <time>1970-01-01T01:52:40.000Z</time>
      </trkpt>
      <trkpt lat="45.89328" lon="3.01802">
        <ele>733.7</ele>
        <time>1970-01-01T01:52:42.000Z</time>
      </trkpt>
      <trkpt lat="45.89327" lon="3.01802">
        <ele>733.9</ele>
        <time>1970-01-01T01:52:43.000Z</time>
      </trkpt>
      <trkpt lat="45.89326" lon="3.01802">
        <ele>734.1</ele>
        <time>1970-01-01T01:52:44.000Z</time>
      </trkpt>
      <trkpt lat="45.89324" lon="3.01803">
        <ele>734.3</ele>
        <time>1970-01-01T01:52:45.000Z</time>
      </trkpt>
      <trkpt lat="45.89321" lon="3.01805">
        <ele>734.9</ele>
        <time>1970-01-01T01:52:47.000Z</time>
      </trkpt>
      <trkpt lat="45.89319" lon="3.01805">
        <ele>735.2</ele>
        <time>1970-01-01T01:52:48.000Z</time>
      </trkpt>
      <trkpt lat="45.89317" lon="3.01806">
        <ele>735.5</ele>
        <time>1970-01-01T01:52:49.000Z</time>
      </trkpt>
      <trkpt lat="45.89316" lon="3.01806">
        <ele>735.7</ele>
        <time>1970-01-01T01:52:51.000Z</time>
      </trkpt>
      <trkpt lat="45.89315" lon="3.01807">
        <ele>735.9</ele>
        <time>1970-01-01T01:52:52.000Z</time>
      </trkpt>
      <trkpt lat="45.89314" lon="3.01808">
        <ele>736.1</ele>
        <time>1970-01-01T01:52:53.000Z</time>
      </trkpt>
      <trkpt lat="45.89312" lon="3.01809">
        <ele>736.4</ele>
        <time>1970-01-01T01:52:54.000Z</time>
      </trkpt>
      <trkpt lat="45.89311" lon="3.01811">
        <ele>736.6</ele>
        <time>1970-01-01T01:52:55.000Z</time>
      </trkpt>
      <trkpt lat="45.8931" lon="3.01812">
        <ele>736.8</ele>
        <time>1970-01-01T01:52:56.000Z</time>
      </trkpt>
      <trkpt lat="45.89309" lon="3.01813">
        <ele>737</ele>
        <time>1970-01-01T01:52:57.000Z</time>
      </trkpt>
      <trkpt lat="45.89308" lon="3.01815">
        <ele>737.2</ele>
        <time>1970-01-01T01:52:58.000Z</time>
      </trkpt>
      <trkpt lat="45.89305" lon="3.01817">
        <ele>737.7</ele>
        <time>1970-01-01T01:53:00.000Z</time>
      </trkpt>
      <trkpt lat="45.89305" lon="3.01818">
        <ele>737.8</ele>
        <time>1970-01-01T01:53:01.000Z</time>
      </trkpt>
      <trkpt lat="45.89303" lon="3.01821">
        <ele>738.2</ele>
        <time>1970-01-01T01:53:02.000Z</time>
      </trkpt>
      <trkpt lat="45.89302" lon="3.01822">
        <ele>738.3</ele>
        <time>1970-01-01T01:53:03.000Z</time>
      </trkpt>
      <trkpt lat="45.89301" lon="3.01826">
        <ele>738.7</ele>
        <time>1970-01-01T01:53:04.000Z</time>
      </trkpt>
      <trkpt lat="45.893" lon="3.01828">
        <ele>738.8</ele>
        <time>1970-01-01T01:53:06.000Z</time>
      </trkpt>
      <trkpt lat="45.89299" lon="3.01829">
        <ele>739</ele>
        <time>1970-01-01T01:53:07.000Z</time>
      </trkpt>
      <trkpt lat="45.89298" lon="3.01831">
        <ele>739.1</ele>
        <time>1970-01-01T01:53:08.000Z</time>
      </trkpt>
      <trkpt lat="45.89297" lon="3.01832">
        <ele>739.3</ele>
        <time>1970-01-01T01:53:10.000Z</time>
      </trkpt>
      <trkpt lat="45.89295" lon="3.01833">
        <ele>739.5</ele>
        <time>1970-01-01T01:53:11.000Z</time>
      </trkpt>
      <trkpt lat="45.89293" lon="3.01835">
        <ele>739.7</ele>
        <time>1970-01-01T01:53:12.000Z</time>
      </trkpt>
      <trkpt lat="45.89292" lon="3.01836">
        <ele>739.8</ele>
        <time>1970-01-01T01:53:13.000Z</time>
      </trkpt>
      <trkpt lat="45.8929" lon="3.01839">
        <ele>740</ele>
        <time>1970-01-01T01:53:14.000Z</time>
      </trkpt>
      <trkpt lat="45.89289" lon="3.0184">
        <ele>740.1</ele>
        <time>1970-01-01T01:53:15.000Z</time>
      </trkpt>
      <trkpt lat="45.89288" lon="3.01842">
        <ele>740.2</ele>
        <time>1970-01-01T01:53:17.000Z</time>
      </trkpt>
      <trkpt lat="45.89287" lon="3.01843">
        <ele>740.3</ele>
        <time>1970-01-01T01:53:18.000Z</time>
      </trkpt>
      <trkpt lat="45.89286" lon="3.01845">
        <ele>740.4</ele>
        <time>1970-01-01T01:53:19.000Z</time>
      </trkpt>
      <trkpt lat="45.89284" lon="3.01846">
        <ele>740.5</ele>
        <time>1970-01-01T01:53:20.000Z</time>
      </trkpt>
      <trkpt lat="45.89281" lon="3.0185">
        <ele>740.7</ele>
        <time>1970-01-01T01:53:21.000Z</time>
      </trkpt>
      <trkpt lat="45.8928" lon="3.01851">
        <ele>740.7</ele>
        <time>1970-01-01T01:53:22.000Z</time>
      </trkpt>
      <trkpt lat="45.89277" lon="3.01856">
        <ele>740.9</ele>
        <time>1970-01-01T01:53:23.000Z</time>
      </trkpt>
      <trkpt lat="45.89276" lon="3.01858">
        <ele>740.9</ele>
        <time>1970-01-01T01:53:24.000Z</time>
      </trkpt>
      <trkpt lat="45.89275" lon="3.01861">
        <ele>741</ele>
        <time>1970-01-01T01:53:26.000Z</time>
      </trkpt>
      <trkpt lat="45.89273" lon="3.01864">
        <ele>741.1</ele>
        <time>1970-01-01T01:53:27.000Z</time>
      </trkpt>
      <trkpt lat="45.89271" lon="3.01869">
        <ele>741.2</ele>
        <time>1970-01-01T01:53:28.000Z</time>
      </trkpt>
      <trkpt lat="45.8927" lon="3.0187">
        <ele>741.2</ele>
        <time>1970-01-01T01:53:29.000Z</time>
      </trkpt>
      <trkpt lat="45.89268" lon="3.01874">
        <ele>741.2</ele>
        <time>1970-01-01T01:53:30.000Z</time>
      </trkpt>
      <trkpt lat="45.89266" lon="3.01877">
        <ele>741.3</ele>
        <time>1970-01-01T01:53:31.000Z</time>
      </trkpt>
      <trkpt lat="45.89264" lon="3.01879">
        <ele>741.3</ele>
        <time>1970-01-01T01:53:32.000Z</time>
      </trkpt>
      <trkpt lat="45.89261" lon="3.01882">
        <ele>741.4</ele>
        <time>1970-01-01T01:53:33.000Z</time>
      </trkpt>
      <trkpt lat="45.89259" lon="3.01884">
        <ele>741.4</ele>
        <time>1970-01-01T01:53:34.000Z</time>
      </trkpt>
      <trkpt lat="45.89256" lon="3.01887">
        <ele>741.5</ele>
        <time>1970-01-01T01:53:35.000Z</time>
      </trkpt>
      <trkpt lat="45.89253" lon="3.0189">
        <ele>741.5</ele>
        <time>1970-01-01T01:53:36.000Z</time>
      </trkpt>
      <trkpt lat="45.89251" lon="3.01893">
        <ele>741.6</ele>
        <time>1970-01-01T01:53:37.000Z</time>
      </trkpt>
      <trkpt lat="45.89248" lon="3.01897">
        <ele>741.6</ele>
        <time>1970-01-01T01:53:38.000Z</time>
      </trkpt>
      <trkpt lat="45.89246" lon="3.01901">
        <ele>741.6</ele>
        <time>1970-01-01T01:53:39.000Z</time>
      </trkpt>
      <trkpt lat="45.89244" lon="3.01906">
        <ele>741.6</ele>
        <time>1970-01-01T01:53:41.000Z</time>
      </trkpt>
      <trkpt lat="45.8924" lon="3.01909">
        <ele>741.6</ele>
        <time>1970-01-01T01:53:42.000Z</time>
      </trkpt>
      <trkpt lat="45.89237" lon="3.01912">
        <ele>741.6</ele>
        <time>1970-01-01T01:53:43.000Z</time>
      </trkpt>
      <trkpt lat="45.89233" lon="3.01916">
        <ele>741.6</ele>
        <time>1970-01-01T01:53:44.000Z</time>
      </trkpt>
      <trkpt lat="45.8923" lon="3.01918">
        <ele>741.6</ele>
        <time>1970-01-01T01:53:45.000Z</time>
      </trkpt>
      <trkpt lat="45.89226" lon="3.01921">
        <ele>741.6</ele>
        <time>1970-01-01T01:53:46.000Z</time>
      </trkpt>
      <trkpt lat="45.89223" lon="3.01923">
        <ele>741.6</ele>
        <time>1970-01-01T01:53:47.000Z</time>
      </trkpt>
      <trkpt lat="45.89219" lon="3.01925">
        <ele>741.6</ele>
        <time>1970-01-01T01:53:49.000Z</time>
      </trkpt>
      <trkpt lat="45.89213" lon="3.01926">
        <ele>741.6</ele>
        <time>1970-01-01T01:53:50.000Z</time>
      </trkpt>
      <trkpt lat="45.89207" lon="3.01928">
        <ele>741.6</ele>
        <time>1970-01-01T01:53:52.000Z</time>
      </trkpt>
      <trkpt lat="45.89202" lon="3.01928">
        <ele>741.6</ele>
        <time>1970-01-01T01:53:53.000Z</time>
      </trkpt>
      <trkpt lat="45.89197" lon="3.01927">
        <ele>741.6</ele>
        <time>1970-01-01T01:53:54.000Z</time>
      </trkpt>
      <trkpt lat="45.89191" lon="3.01926">
        <ele>741.7</ele>
        <time>1970-01-01T01:53:55.000Z</time>
      </trkpt>
      <trkpt lat="45.89187" lon="3.01924">
        <ele>741.8</ele>
        <time>1970-01-01T01:53:56.000Z</time>
      </trkpt>
      <trkpt lat="45.89183" lon="3.01919">
        <ele>741.9</ele>
        <time>1970-01-01T01:53:57.000Z</time>
      </trkpt>
      <trkpt lat="45.8918" lon="3.01913">
        <ele>742</ele>
        <time>1970-01-01T01:53:59.000Z</time>
      </trkpt>
      <trkpt lat="45.89178" lon="3.01906">
        <ele>742.2</ele>
        <time>1970-01-01T01:54:00.000Z</time>
      </trkpt>
      <trkpt lat="45.89178" lon="3.019">
        <ele>742.3</ele>
        <time>1970-01-01T01:54:01.000Z</time>
      </trkpt>
      <trkpt lat="45.89178" lon="3.01893">
        <ele>742.5</ele>
        <time>1970-01-01T01:54:02.000Z</time>
      </trkpt>
      <trkpt lat="45.89178" lon="3.01887">
        <ele>742.6</ele>
        <time>1970-01-01T01:54:03.000Z</time>
      </trkpt>
      <trkpt lat="45.89177" lon="3.01881">
        <ele>742.8</ele>
        <time>1970-01-01T01:54:04.000Z</time>
      </trkpt>
      <trkpt lat="45.89178" lon="3.01874">
        <ele>742.9</ele>
        <time>1970-01-01T01:54:05.000Z</time>
      </trkpt>
      <trkpt lat="45.89178" lon="3.01869">
        <ele>743.1</ele>
        <time>1970-01-01T01:54:06.000Z</time>
      </trkpt>
      <trkpt lat="45.89178" lon="3.01863">
        <ele>743.2</ele>
        <time>1970-01-01T01:54:07.000Z</time>
      </trkpt>
      <trkpt lat="45.89178" lon="3.01853">
        <ele>743.4</ele>
        <time>1970-01-01T01:54:08.000Z</time>
      </trkpt>
      <trkpt lat="45.89179" lon="3.01846">
        <ele>743.5</ele>
        <time>1970-01-01T01:54:09.000Z</time>
      </trkpt>
      <trkpt lat="45.89179" lon="3.0184">
        <ele>743.6</ele>
        <time>1970-01-01T01:54:11.000Z</time>
      </trkpt>
      <trkpt lat="45.8918" lon="3.01835">
        <ele>743.7</ele>
        <time>1970-01-01T01:54:12.000Z</time>
      </trkpt>
      <trkpt lat="45.89181" lon="3.01829">
        <ele>743.8</ele>
        <time>1970-01-01T01:54:13.000Z</time>
      </trkpt>
      <trkpt lat="45.89181" lon="3.01824">
        <ele>743.9</ele>
        <time>1970-01-01T01:54:14.000Z</time>
      </trkpt>
      <trkpt lat="45.89181" lon="3.01818">
        <ele>744</ele>
        <time>1970-01-01T01:54:15.000Z</time>
      </trkpt>
      <trkpt lat="45.89181" lon="3.01814">
        <ele>744</ele>
        <time>1970-01-01T01:54:16.000Z</time>
      </trkpt>
      <trkpt lat="45.89182" lon="3.01809">
        <ele>744.1</ele>
        <time>1970-01-01T01:54:17.000Z</time>
      </trkpt>
      <trkpt lat="45.89183" lon="3.01804">
        <ele>744.2</ele>
        <time>1970-01-01T01:54:18.000Z</time>
      </trkpt>
      <trkpt lat="45.89184" lon="3.018">
        <ele>744.3</ele>
        <time>1970-01-01T01:54:19.000Z</time>
      </trkpt>
      <trkpt lat="45.89185" lon="3.01795">
        <ele>744.3</ele>
        <time>1970-01-01T01:54:20.000Z</time>
      </trkpt>
      <trkpt lat="45.89185" lon="3.01791">
        <ele>744.4</ele>
        <time>1970-01-01T01:54:21.000Z</time>
      </trkpt>
      <trkpt lat="45.89186" lon="3.01784">
        <ele>744.4</ele>
        <time>1970-01-01T01:54:22.000Z</time>
      </trkpt>
      <trkpt lat="45.89186" lon="3.01778">
        <ele>744.4</ele>
        <time>1970-01-01T01:54:23.000Z</time>
      </trkpt>
      <trkpt lat="45.89186" lon="3.01772">
        <ele>744.5</ele>
        <time>1970-01-01T01:54:24.000Z</time>
      </trkpt>
      <trkpt lat="45.89185" lon="3.01766">
        <ele>744.5</ele>
        <time>1970-01-01T01:54:26.000Z</time>
      </trkpt>
      <trkpt lat="45.89185" lon="3.0176">
        <ele>744.5</ele>
        <time>1970-01-01T01:54:27.000Z</time>
      </trkpt>
      <trkpt lat="45.89184" lon="3.01748">
        <ele>744.6</ele>
        <time>1970-01-01T01:54:29.000Z</time>
      </trkpt>
      <trkpt lat="45.89183" lon="3.01742">
        <ele>744.6</ele>
        <time>1970-01-01T01:54:30.000Z</time>
      </trkpt>
      <trkpt lat="45.89182" lon="3.01736">
        <ele>744.5</ele>
        <time>1970-01-01T01:54:31.000Z</time>
      </trkpt>
      <trkpt lat="45.89181" lon="3.01731">
        <ele>744.5</ele>
        <time>1970-01-01T01:54:32.000Z</time>
      </trkpt>
      <trkpt lat="45.8918" lon="3.01725">
        <ele>744.5</ele>
        <time>1970-01-01T01:54:33.000Z</time>
      </trkpt>
      <trkpt lat="45.89179" lon="3.01719">
        <ele>744.4</ele>
        <time>1970-01-01T01:54:34.000Z</time>
      </trkpt>
      <trkpt lat="45.89178" lon="3.01713">
        <ele>744.3</ele>
        <time>1970-01-01T01:54:36.000Z</time>
      </trkpt>
      <trkpt lat="45.89177" lon="3.01707">
        <ele>744.3</ele>
        <time>1970-01-01T01:54:37.000Z</time>
      </trkpt>
      <trkpt lat="45.89176" lon="3.01701">
        <ele>744.3</ele>
        <time>1970-01-01T01:54:38.000Z</time>
      </trkpt>
      <trkpt lat="45.89175" lon="3.01696">
        <ele>744.2</ele>
        <time>1970-01-01T01:54:39.000Z</time>
      </trkpt>
      <trkpt lat="45.89173" lon="3.0169">
        <ele>744.2</ele>
        <time>1970-01-01T01:54:40.000Z</time>
      </trkpt>
      <trkpt lat="45.89171" lon="3.01684">
        <ele>744.2</ele>
        <time>1970-01-01T01:54:41.000Z</time>
      </trkpt>
      <trkpt lat="45.8917" lon="3.01677">
        <ele>744.3</ele>
        <time>1970-01-01T01:54:42.000Z</time>
      </trkpt>
      <trkpt lat="45.89169" lon="3.01671">
        <ele>744.3</ele>
        <time>1970-01-01T01:54:43.000Z</time>
      </trkpt>
      <trkpt lat="45.89168" lon="3.01665">
        <ele>744.4</ele>
        <time>1970-01-01T01:54:44.000Z</time>
      </trkpt>
      <trkpt lat="45.89168" lon="3.01662">
        <ele>744.4</ele>
        <time>1970-01-01T01:54:45.000Z</time>
      </trkpt>
      <trkpt lat="45.89166" lon="3.01657">
        <ele>744.5</ele>
        <time>1970-01-01T01:54:46.000Z</time>
      </trkpt>
      <trkpt lat="45.89164" lon="3.01651">
        <ele>744.5</ele>
        <time>1970-01-01T01:54:47.000Z</time>
      </trkpt>
      <trkpt lat="45.89162" lon="3.01644">
        <ele>744.6</ele>
        <time>1970-01-01T01:54:48.000Z</time>
      </trkpt>
      <trkpt lat="45.89162" lon="3.01639">
        <ele>744.7</ele>
        <time>1970-01-01T01:54:49.000Z</time>
      </trkpt>
      <trkpt lat="45.89161" lon="3.01633">
        <ele>744.8</ele>
        <time>1970-01-01T01:54:50.000Z</time>
      </trkpt>
      <trkpt lat="45.89159" lon="3.01625">
        <ele>745</ele>
        <time>1970-01-01T01:54:51.000Z</time>
      </trkpt>
      <trkpt lat="45.89158" lon="3.01618">
        <ele>745.1</ele>
        <time>1970-01-01T01:54:52.000Z</time>
      </trkpt>
      <trkpt lat="45.89157" lon="3.01613">
        <ele>745.2</ele>
        <time>1970-01-01T01:54:53.000Z</time>
      </trkpt>
      <trkpt lat="45.89156" lon="3.01607">
        <ele>745.4</ele>
        <time>1970-01-01T01:54:55.000Z</time>
      </trkpt>
      <trkpt lat="45.89155" lon="3.01602">
        <ele>745.5</ele>
        <time>1970-01-01T01:54:56.000Z</time>
      </trkpt>
      <trkpt lat="45.89154" lon="3.01597">
        <ele>745.7</ele>
        <time>1970-01-01T01:54:57.000Z</time>
      </trkpt>
      <trkpt lat="45.89153" lon="3.0159">
        <ele>745.9</ele>
        <time>1970-01-01T01:54:58.000Z</time>
      </trkpt>
      <trkpt lat="45.89153" lon="3.01584">
        <ele>746.1</ele>
        <time>1970-01-01T01:54:59.000Z</time>
      </trkpt>
      <trkpt lat="45.89152" lon="3.01579">
        <ele>746.3</ele>
        <time>1970-01-01T01:55:00.000Z</time>
      </trkpt>
      <trkpt lat="45.89151" lon="3.01574">
        <ele>746.5</ele>
        <time>1970-01-01T01:55:01.000Z</time>
      </trkpt>
      <trkpt lat="45.89151" lon="3.01569">
        <ele>746.6</ele>
        <time>1970-01-01T01:55:03.000Z</time>
      </trkpt>
      <trkpt lat="45.8915" lon="3.01565">
        <ele>746.8</ele>
        <time>1970-01-01T01:55:04.000Z</time>
      </trkpt>
      <trkpt lat="45.8915" lon="3.0156">
        <ele>747</ele>
        <time>1970-01-01T01:55:05.000Z</time>
      </trkpt>
      <trkpt lat="45.89148" lon="3.01551">
        <ele>747.4</ele>
        <time>1970-01-01T01:55:07.000Z</time>
      </trkpt>
      <trkpt lat="45.89148" lon="3.01547">
        <ele>747.7</ele>
        <time>1970-01-01T01:55:08.000Z</time>
      </trkpt>
      <trkpt lat="45.89148" lon="3.01542">
        <ele>747.9</ele>
        <time>1970-01-01T01:55:09.000Z</time>
      </trkpt>
      <trkpt lat="45.89147" lon="3.01537">
        <ele>748.2</ele>
        <time>1970-01-01T01:55:10.000Z</time>
      </trkpt>
      <trkpt lat="45.89147" lon="3.01535">
        <ele>748.3</ele>
        <time>1970-01-01T01:55:11.000Z</time>
      </trkpt>
      <trkpt lat="45.89147" lon="3.01532">
        <ele>748.5</ele>
        <time>1970-01-01T01:55:12.000Z</time>
      </trkpt>
      <trkpt lat="45.89147" lon="3.01524">
        <ele>749</ele>
        <time>1970-01-01T01:55:14.000Z</time>
      </trkpt>
      <trkpt lat="45.89147" lon="3.0152">
        <ele>749.2</ele>
        <time>1970-01-01T01:55:15.000Z</time>
      </trkpt>
      <trkpt lat="45.89147" lon="3.01515">
        <ele>749.5</ele>
        <time>1970-01-01T01:55:16.000Z</time>
      </trkpt>
      <trkpt lat="45.89147" lon="3.01511">
        <ele>749.7</ele>
        <time>1970-01-01T01:55:17.000Z</time>
      </trkpt>
      <trkpt lat="45.89147" lon="3.01505">
        <ele>750</ele>
        <time>1970-01-01T01:55:19.000Z</time>
      </trkpt>
      <trkpt lat="45.89146" lon="3.01501">
        <ele>750.3</ele>
        <time>1970-01-01T01:55:20.000Z</time>
      </trkpt>
      <trkpt lat="45.89146" lon="3.01499">
        <ele>750.3</ele>
        <time>1970-01-01T01:55:21.000Z</time>
      </trkpt>
      <trkpt lat="45.89147" lon="3.01493">
        <ele>750.6</ele>
        <time>1970-01-01T01:55:22.000Z</time>
      </trkpt>
      <trkpt lat="45.89147" lon="3.01491">
        <ele>750.6</ele>
        <time>1970-01-01T01:55:23.000Z</time>
      </trkpt>
      <trkpt lat="45.89146" lon="3.01487">
        <ele>750.8</ele>
        <time>1970-01-01T01:55:24.000Z</time>
      </trkpt>
      <trkpt lat="45.89145" lon="3.01482">
        <ele>751</ele>
        <time>1970-01-01T01:55:25.000Z</time>
      </trkpt>
      <trkpt lat="45.89145" lon="3.01481">
        <ele>751</ele>
        <time>1970-01-01T01:55:26.000Z</time>
      </trkpt>
      <trkpt lat="45.89144" lon="3.01477">
        <ele>751.2</ele>
        <time>1970-01-01T01:55:27.000Z</time>
      </trkpt>
      <trkpt lat="45.89142" lon="3.01471">
        <ele>751.3</ele>
        <time>1970-01-01T01:55:28.000Z</time>
      </trkpt>
      <trkpt lat="45.89141" lon="3.0147">
        <ele>751.4</ele>
        <time>1970-01-01T01:55:29.000Z</time>
      </trkpt>
      <trkpt lat="45.89139" lon="3.01465">
        <ele>751.5</ele>
        <time>1970-01-01T01:55:30.000Z</time>
      </trkpt>
      <trkpt lat="45.89139" lon="3.01463">
        <ele>751.6</ele>
        <time>1970-01-01T01:55:31.000Z</time>
      </trkpt>
      <trkpt lat="45.89137" lon="3.01459">
        <ele>751.7</ele>
        <time>1970-01-01T01:55:32.000Z</time>
      </trkpt>
      <trkpt lat="45.89136" lon="3.01456">
        <ele>751.8</ele>
        <time>1970-01-01T01:55:33.000Z</time>
      </trkpt>
      <trkpt lat="45.89135" lon="3.01452">
        <ele>751.8</ele>
        <time>1970-01-01T01:55:35.000Z</time>
      </trkpt>
      <trkpt lat="45.89134" lon="3.01448">
        <ele>751.9</ele>
        <time>1970-01-01T01:55:36.000Z</time>
      </trkpt>
      <trkpt lat="45.89131" lon="3.01443">
        <ele>751.9</ele>
        <time>1970-01-01T01:55:37.000Z</time>
      </trkpt>
      <trkpt lat="45.89131" lon="3.01442">
        <ele>752</ele>
        <time>1970-01-01T01:55:38.000Z</time>
      </trkpt>
      <trkpt lat="45.89129" lon="3.01438">
        <ele>752</ele>
        <time>1970-01-01T01:55:39.000Z</time>
      </trkpt>
      <trkpt lat="45.89128" lon="3.01432">
        <ele>752</ele>
        <time>1970-01-01T01:55:40.000Z</time>
      </trkpt>
      <trkpt lat="45.89127" lon="3.0143">
        <ele>752</ele>
        <time>1970-01-01T01:55:41.000Z</time>
      </trkpt>
      <trkpt lat="45.89125" lon="3.01424">
        <ele>751.9</ele>
        <time>1970-01-01T01:55:43.000Z</time>
      </trkpt>
      <trkpt lat="45.89124" lon="3.01422">
        <ele>751.8</ele>
        <time>1970-01-01T01:55:44.000Z</time>
      </trkpt>
      <trkpt lat="45.89123" lon="3.0142">
        <ele>751.8</ele>
        <time>1970-01-01T01:55:45.000Z</time>
      </trkpt>
      <trkpt lat="45.89121" lon="3.01415">
        <ele>751.7</ele>
        <time>1970-01-01T01:55:46.000Z</time>
      </trkpt>
      <trkpt lat="45.89119" lon="3.0141">
        <ele>751.5</ele>
        <time>1970-01-01T01:55:47.000Z</time>
      </trkpt>
      <trkpt lat="45.89117" lon="3.01406">
        <ele>751.3</ele>
        <time>1970-01-01T01:55:48.000Z</time>
      </trkpt>
      <trkpt lat="45.89115" lon="3.01399">
        <ele>751.1</ele>
        <time>1970-01-01T01:55:50.000Z</time>
      </trkpt>
      <trkpt lat="45.89114" lon="3.01394">
        <ele>750.9</ele>
        <time>1970-01-01T01:55:51.000Z</time>
      </trkpt>
      <trkpt lat="45.89114" lon="3.01388">
        <ele>750.8</ele>
        <time>1970-01-01T01:55:52.000Z</time>
      </trkpt>
      <trkpt lat="45.89116" lon="3.01382">
        <ele>750.8</ele>
        <time>1970-01-01T01:55:53.000Z</time>
      </trkpt>
      <trkpt lat="45.8912" lon="3.01377">
        <ele>750.8</ele>
        <time>1970-01-01T01:55:54.000Z</time>
      </trkpt>
      <trkpt lat="45.89124" lon="3.01374">
        <ele>750.8</ele>
        <time>1970-01-01T01:55:55.000Z</time>
      </trkpt>
      <trkpt lat="45.89129" lon="3.01369">
        <ele>750.9</ele>
        <time>1970-01-01T01:55:57.000Z</time>
      </trkpt>
      <trkpt lat="45.89132" lon="3.01366">
        <ele>751</ele>
        <time>1970-01-01T01:55:58.000Z</time>
      </trkpt>
      <trkpt lat="45.89135" lon="3.01362">
        <ele>751.2</ele>
        <time>1970-01-01T01:55:59.000Z</time>
      </trkpt>
      <trkpt lat="45.89138" lon="3.01359">
        <ele>751.4</ele>
        <time>1970-01-01T01:56:00.000Z</time>
      </trkpt>
      <trkpt lat="45.89142" lon="3.01356">
        <ele>751.5</ele>
        <time>1970-01-01T01:56:02.000Z</time>
      </trkpt>
      <trkpt lat="45.89144" lon="3.01354">
        <ele>751.7</ele>
        <time>1970-01-01T01:56:03.000Z</time>
      </trkpt>
      <trkpt lat="45.89146" lon="3.01351">
        <ele>751.8</ele>
        <time>1970-01-01T01:56:04.000Z</time>
      </trkpt>
      <trkpt lat="45.89149" lon="3.01347">
        <ele>751.9</ele>
        <time>1970-01-01T01:56:05.000Z</time>
      </trkpt>
      <trkpt lat="45.89151" lon="3.01344">
        <ele>752.1</ele>
        <time>1970-01-01T01:56:06.000Z</time>
      </trkpt>
      <trkpt lat="45.89153" lon="3.01341">
        <ele>752.2</ele>
        <time>1970-01-01T01:56:07.000Z</time>
      </trkpt>
      <trkpt lat="45.89156" lon="3.01338">
        <ele>752.4</ele>
        <time>1970-01-01T01:56:08.000Z</time>
      </trkpt>
      <trkpt lat="45.8916" lon="3.01334">
        <ele>752.6</ele>
        <time>1970-01-01T01:56:10.000Z</time>
      </trkpt>
      <trkpt lat="45.89162" lon="3.01331">
        <ele>752.8</ele>
        <time>1970-01-01T01:56:11.000Z</time>
      </trkpt>
      <trkpt lat="45.89165" lon="3.01328">
        <ele>753</ele>
        <time>1970-01-01T01:56:12.000Z</time>
      </trkpt>
      <trkpt lat="45.89168" lon="3.01325">
        <ele>753.2</ele>
        <time>1970-01-01T01:56:13.000Z</time>
      </trkpt>
      <trkpt lat="45.89169" lon="3.01324">
        <ele>753.2</ele>
        <time>1970-01-01T01:56:14.000Z</time>
      </trkpt>
      <trkpt lat="45.89172" lon="3.01321">
        <ele>753.4</ele>
        <time>1970-01-01T01:56:15.000Z</time>
      </trkpt>
      <trkpt lat="45.89173" lon="3.0132">
        <ele>753.5</ele>
        <time>1970-01-01T01:56:16.000Z</time>
      </trkpt>
      <trkpt lat="45.89175" lon="3.01317">
        <ele>753.6</ele>
        <time>1970-01-01T01:56:17.000Z</time>
      </trkpt>
      <trkpt lat="45.89176" lon="3.01316">
        <ele>753.6</ele>
        <time>1970-01-01T01:56:18.000Z</time>
      </trkpt>
      <trkpt lat="45.89179" lon="3.01313">
        <ele>753.8</ele>
        <time>1970-01-01T01:56:19.000Z</time>
      </trkpt>
      <trkpt lat="45.8918" lon="3.01312">
        <ele>753.9</ele>
        <time>1970-01-01T01:56:20.000Z</time>
      </trkpt>
      <trkpt lat="45.89183" lon="3.01309">
        <ele>754</ele>
        <time>1970-01-01T01:56:21.000Z</time>
      </trkpt>
      <trkpt lat="45.89184" lon="3.01308">
        <ele>754</ele>
        <time>1970-01-01T01:56:22.000Z</time>
      </trkpt>
      <trkpt lat="45.89187" lon="3.01304">
        <ele>754.2</ele>
        <time>1970-01-01T01:56:23.000Z</time>
      </trkpt>
      <trkpt lat="45.89188" lon="3.01303">
        <ele>754.2</ele>
        <time>1970-01-01T01:56:24.000Z</time>
      </trkpt>
      <trkpt lat="45.89191" lon="3.013">
        <ele>754.3</ele>
        <time>1970-01-01T01:56:26.000Z</time>
      </trkpt>
      <trkpt lat="45.89193" lon="3.01297">
        <ele>754.4</ele>
        <time>1970-01-01T01:56:27.000Z</time>
      </trkpt>
      <trkpt lat="45.89195" lon="3.01294">
        <ele>754.5</ele>
        <time>1970-01-01T01:56:28.000Z</time>
      </trkpt>
      <trkpt lat="45.89197" lon="3.0129">
        <ele>754.5</ele>
        <time>1970-01-01T01:56:30.000Z</time>
      </trkpt>
      <trkpt lat="45.89199" lon="3.01286">
        <ele>754.5</ele>
        <time>1970-01-01T01:56:31.000Z</time>
      </trkpt>
      <trkpt lat="45.89202" lon="3.01284">
        <ele>754.5</ele>
        <time>1970-01-01T01:56:32.000Z</time>
      </trkpt>
      <trkpt lat="45.89205" lon="3.01278">
        <ele>754.4</ele>
        <time>1970-01-01T01:56:34.000Z</time>
      </trkpt>
      <trkpt lat="45.89206" lon="3.01275">
        <ele>754.4</ele>
        <time>1970-01-01T01:56:35.000Z</time>
      </trkpt>
      <trkpt lat="45.89207" lon="3.01273">
        <ele>754.3</ele>
        <time>1970-01-01T01:56:36.000Z</time>
      </trkpt>
      <trkpt lat="45.8921" lon="3.01265">
        <ele>754.1</ele>
        <time>1970-01-01T01:56:38.000Z</time>
      </trkpt>
      <trkpt lat="45.89213" lon="3.01258">
        <ele>754</ele>
        <time>1970-01-01T01:56:39.000Z</time>
      </trkpt>
      <trkpt lat="45.89217" lon="3.01247">
        <ele>753.7</ele>
        <time>1970-01-01T01:56:41.000Z</time>
      </trkpt>
      <trkpt lat="45.8922" lon="3.01241">
        <ele>753.6</ele>
        <time>1970-01-01T01:56:42.000Z</time>
      </trkpt>
      <trkpt lat="45.89222" lon="3.01235">
        <ele>753.5</ele>
        <time>1970-01-01T01:56:43.000Z</time>
      </trkpt>
      <trkpt lat="45.89225" lon="3.01228">
        <ele>753.4</ele>
        <time>1970-01-01T01:56:44.000Z</time>
      </trkpt>
      <trkpt lat="45.89227" lon="3.01221">
        <ele>753.3</ele>
        <time>1970-01-01T01:56:45.000Z</time>
      </trkpt>
      <trkpt lat="45.8923" lon="3.01215">
        <ele>753.3</ele>
        <time>1970-01-01T01:56:46.000Z</time>
      </trkpt>
      <trkpt lat="45.89234" lon="3.01209">
        <ele>753.2</ele>
        <time>1970-01-01T01:56:47.000Z</time>
      </trkpt>
      <trkpt lat="45.89237" lon="3.01204">
        <ele>753.2</ele>
        <time>1970-01-01T01:56:48.000Z</time>
      </trkpt>
      <trkpt lat="45.8924" lon="3.01198">
        <ele>753.1</ele>
        <time>1970-01-01T01:56:49.000Z</time>
      </trkpt>
      <trkpt lat="45.89244" lon="3.01193">
        <ele>753.1</ele>
        <time>1970-01-01T01:56:50.000Z</time>
      </trkpt>
      <trkpt lat="45.89248" lon="3.01188">
        <ele>753.1</ele>
        <time>1970-01-01T01:56:51.000Z</time>
      </trkpt>
      <trkpt lat="45.89251" lon="3.01183">
        <ele>753.1</ele>
        <time>1970-01-01T01:56:52.000Z</time>
      </trkpt>
      <trkpt lat="45.89254" lon="3.01178">
        <ele>753.2</ele>
        <time>1970-01-01T01:56:53.000Z</time>
      </trkpt>
      <trkpt lat="45.89257" lon="3.01173">
        <ele>753.2</ele>
        <time>1970-01-01T01:56:54.000Z</time>
      </trkpt>
      <trkpt lat="45.89261" lon="3.01168">
        <ele>753.2</ele>
        <time>1970-01-01T01:56:55.000Z</time>
      </trkpt>
      <trkpt lat="45.89263" lon="3.01162">
        <ele>753.2</ele>
        <time>1970-01-01T01:56:56.000Z</time>
      </trkpt>
      <trkpt lat="45.89266" lon="3.01157">
        <ele>753.3</ele>
        <time>1970-01-01T01:56:57.000Z</time>
      </trkpt>
      <trkpt lat="45.8927" lon="3.01153">
        <ele>753.3</ele>
        <time>1970-01-01T01:56:58.000Z</time>
      </trkpt>
      <trkpt lat="45.89272" lon="3.01148">
        <ele>753.4</ele>
        <time>1970-01-01T01:56:59.000Z</time>
      </trkpt>
      <trkpt lat="45.89276" lon="3.01142">
        <ele>753.4</ele>
        <time>1970-01-01T01:57:00.000Z</time>
      </trkpt>
      <trkpt lat="45.89279" lon="3.01137">
        <ele>753.5</ele>
        <time>1970-01-01T01:57:01.000Z</time>
      </trkpt>
      <trkpt lat="45.89282" lon="3.01132">
        <ele>753.5</ele>
        <time>1970-01-01T01:57:02.000Z</time>
      </trkpt>
      <trkpt lat="45.89285" lon="3.01126">
        <ele>753.6</ele>
        <time>1970-01-01T01:57:03.000Z</time>
      </trkpt>
      <trkpt lat="45.89287" lon="3.0112">
        <ele>753.7</ele>
        <time>1970-01-01T01:57:04.000Z</time>
      </trkpt>
      <trkpt lat="45.8929" lon="3.01114">
        <ele>753.7</ele>
        <time>1970-01-01T01:57:05.000Z</time>
      </trkpt>
      <trkpt lat="45.89292" lon="3.01109">
        <ele>753.8</ele>
        <time>1970-01-01T01:57:06.000Z</time>
      </trkpt>
      <trkpt lat="45.89294" lon="3.01103">
        <ele>753.9</ele>
        <time>1970-01-01T01:57:07.000Z</time>
      </trkpt>
      <trkpt lat="45.89297" lon="3.01098">
        <ele>753.9</ele>
        <time>1970-01-01T01:57:08.000Z</time>
      </trkpt>
      <trkpt lat="45.89298" lon="3.01092">
        <ele>754</ele>
        <time>1970-01-01T01:57:09.000Z</time>
      </trkpt>
      <trkpt lat="45.89301" lon="3.01087">
        <ele>754.1</ele>
        <time>1970-01-01T01:57:10.000Z</time>
      </trkpt>
      <trkpt lat="45.89303" lon="3.01083">
        <ele>754.2</ele>
        <time>1970-01-01T01:57:11.000Z</time>
      </trkpt>
      <trkpt lat="45.89306" lon="3.01076">
        <ele>754.3</ele>
        <time>1970-01-01T01:57:12.000Z</time>
      </trkpt>
      <trkpt lat="45.89309" lon="3.01071">
        <ele>754.3</ele>
        <time>1970-01-01T01:57:13.000Z</time>
      </trkpt>
      <trkpt lat="45.89311" lon="3.01066">
        <ele>754.4</ele>
        <time>1970-01-01T01:57:14.000Z</time>
      </trkpt>
      <trkpt lat="45.89313" lon="3.0106">
        <ele>754.5</ele>
        <time>1970-01-01T01:57:15.000Z</time>
      </trkpt>
      <trkpt lat="45.89315" lon="3.01054">
        <ele>754.6</ele>
        <time>1970-01-01T01:57:16.000Z</time>
      </trkpt>
      <trkpt lat="45.89319" lon="3.01048">
        <ele>754.7</ele>
        <time>1970-01-01T01:57:18.000Z</time>
      </trkpt>
      <trkpt lat="45.89322" lon="3.01044">
        <ele>754.8</ele>
        <time>1970-01-01T01:57:19.000Z</time>
      </trkpt>
      <trkpt lat="45.89324" lon="3.0104">
        <ele>754.9</ele>
        <time>1970-01-01T01:57:20.000Z</time>
      </trkpt>
      <trkpt lat="45.89327" lon="3.01037">
        <ele>755</ele>
        <time>1970-01-01T01:57:21.000Z</time>
      </trkpt>
      <trkpt lat="45.8933" lon="3.01032">
        <ele>755.1</ele>
        <time>1970-01-01T01:57:22.000Z</time>
      </trkpt>
      <trkpt lat="45.89331" lon="3.01026">
        <ele>755.3</ele>
        <time>1970-01-01T01:57:23.000Z</time>
      </trkpt>
      <trkpt lat="45.89332" lon="3.0102">
        <ele>755.4</ele>
        <time>1970-01-01T01:57:24.000Z</time>
      </trkpt>
      <trkpt lat="45.89335" lon="3.01013">
        <ele>755.6</ele>
        <time>1970-01-01T01:57:25.000Z</time>
      </trkpt>
      <trkpt lat="45.89337" lon="3.01009">
        <ele>755.8</ele>
        <time>1970-01-01T01:57:26.000Z</time>
      </trkpt>
      <trkpt lat="45.89339" lon="3.01004">
        <ele>755.9</ele>
        <time>1970-01-01T01:57:27.000Z</time>
      </trkpt>
      <trkpt lat="45.89342" lon="3.00996">
        <ele>756.2</ele>
        <time>1970-01-01T01:57:29.000Z</time>
      </trkpt>
      <trkpt lat="45.89344" lon="3.00991">
        <ele>756.4</ele>
        <time>1970-01-01T01:57:31.000Z</time>
      </trkpt>
      <trkpt lat="45.89345" lon="3.00986">
        <ele>756.6</ele>
        <time>1970-01-01T01:57:32.000Z</time>
      </trkpt>
      <trkpt lat="45.89347" lon="3.00983">
        <ele>756.7</ele>
        <time>1970-01-01T01:57:33.000Z</time>
      </trkpt>
      <trkpt lat="45.89348" lon="3.00979">
        <ele>756.8</ele>
        <time>1970-01-01T01:57:34.000Z</time>
      </trkpt>
      <trkpt lat="45.8935" lon="3.00974">
        <ele>757</ele>
        <time>1970-01-01T01:57:35.000Z</time>
      </trkpt>
      <trkpt lat="45.89353" lon="3.00969">
        <ele>757.2</ele>
        <time>1970-01-01T01:57:37.000Z</time>
      </trkpt>
      <trkpt lat="45.89355" lon="3.00965">
        <ele>757.4</ele>
        <time>1970-01-01T01:57:38.000Z</time>
      </trkpt>
      <trkpt lat="45.89357" lon="3.0096">
        <ele>757.6</ele>
        <time>1970-01-01T01:57:39.000Z</time>
      </trkpt>
      <trkpt lat="45.89359" lon="3.00955">
        <ele>757.7</ele>
        <time>1970-01-01T01:57:40.000Z</time>
      </trkpt>
      <trkpt lat="45.89362" lon="3.00951">
        <ele>757.9</ele>
        <time>1970-01-01T01:57:42.000Z</time>
      </trkpt>
      <trkpt lat="45.89364" lon="3.00946">
        <ele>758.1</ele>
        <time>1970-01-01T01:57:43.000Z</time>
      </trkpt>
      <trkpt lat="45.89367" lon="3.0094">
        <ele>758.3</ele>
        <time>1970-01-01T01:57:45.000Z</time>
      </trkpt>
      <trkpt lat="45.89369" lon="3.00937">
        <ele>758.4</ele>
        <time>1970-01-01T01:57:46.000Z</time>
      </trkpt>
      <trkpt lat="45.89371" lon="3.00933">
        <ele>758.6</ele>
        <time>1970-01-01T01:57:47.000Z</time>
      </trkpt>
      <trkpt lat="45.89373" lon="3.00929">
        <ele>758.7</ele>
        <time>1970-01-01T01:57:48.000Z</time>
      </trkpt>
      <trkpt lat="45.89376" lon="3.00926">
        <ele>758.9</ele>
        <time>1970-01-01T01:57:49.000Z</time>
      </trkpt>
      <trkpt lat="45.89378" lon="3.00923">
        <ele>759</ele>
        <time>1970-01-01T01:57:50.000Z</time>
      </trkpt>
      <trkpt lat="45.8938" lon="3.00919">
        <ele>759.1</ele>
        <time>1970-01-01T01:57:52.000Z</time>
      </trkpt>
      <trkpt lat="45.89382" lon="3.00916">
        <ele>759.2</ele>
        <time>1970-01-01T01:57:53.000Z</time>
      </trkpt>
      <trkpt lat="45.89384" lon="3.00913">
        <ele>759.3</ele>
        <time>1970-01-01T01:57:54.000Z</time>
      </trkpt>
      <trkpt lat="45.89386" lon="3.0091">
        <ele>759.4</ele>
        <time>1970-01-01T01:57:55.000Z</time>
      </trkpt>
      <trkpt lat="45.89387" lon="3.00906">
        <ele>759.5</ele>
        <time>1970-01-01T01:57:56.000Z</time>
      </trkpt>
      <trkpt lat="45.89389" lon="3.00902">
        <ele>759.7</ele>
        <time>1970-01-01T01:57:57.000Z</time>
      </trkpt>
      <trkpt lat="45.89392" lon="3.00898">
        <ele>759.8</ele>
        <time>1970-01-01T01:57:58.000Z</time>
      </trkpt>
      <trkpt lat="45.89395" lon="3.00893">
        <ele>759.9</ele>
        <time>1970-01-01T01:58:00.000Z</time>
      </trkpt>
      <trkpt lat="45.89396" lon="3.0089">
        <ele>760</ele>
        <time>1970-01-01T01:58:01.000Z</time>
      </trkpt>
      <trkpt lat="45.89398" lon="3.00886">
        <ele>760.1</ele>
        <time>1970-01-01T01:58:02.000Z</time>
      </trkpt>
      <trkpt lat="45.894" lon="3.00882">
        <ele>760.2</ele>
        <time>1970-01-01T01:58:03.000Z</time>
      </trkpt>
      <trkpt lat="45.89401" lon="3.00878">
        <ele>760.3</ele>
        <time>1970-01-01T01:58:04.000Z</time>
      </trkpt>
      <trkpt lat="45.89404" lon="3.00873">
        <ele>760.5</ele>
        <time>1970-01-01T01:58:05.000Z</time>
      </trkpt>
      <trkpt lat="45.89406" lon="3.00868">
        <ele>760.6</ele>
        <time>1970-01-01T01:58:06.000Z</time>
      </trkpt>
      <trkpt lat="45.89408" lon="3.00863">
        <ele>760.8</ele>
        <time>1970-01-01T01:58:08.000Z</time>
      </trkpt>
      <trkpt lat="45.89409" lon="3.00858">
        <ele>761</ele>
        <time>1970-01-01T01:58:09.000Z</time>
      </trkpt>
      <trkpt lat="45.89412" lon="3.00852">
        <ele>761.2</ele>
        <time>1970-01-01T01:58:11.000Z</time>
      </trkpt>
      <trkpt lat="45.89415" lon="3.00848">
        <ele>761.4</ele>
        <time>1970-01-01T01:58:12.000Z</time>
      </trkpt>
      <trkpt lat="45.89416" lon="3.00846">
        <ele>761.5</ele>
        <time>1970-01-01T01:58:13.000Z</time>
      </trkpt>
      <trkpt lat="45.89418" lon="3.00843">
        <ele>761.6</ele>
        <time>1970-01-01T01:58:14.000Z</time>
      </trkpt>
      <trkpt lat="45.89421" lon="3.00839">
        <ele>761.9</ele>
        <time>1970-01-01T01:58:16.000Z</time>
      </trkpt>
      <trkpt lat="45.89424" lon="3.00835">
        <ele>762.1</ele>
        <time>1970-01-01T01:58:17.000Z</time>
      </trkpt>
      <trkpt lat="45.89425" lon="3.00834">
        <ele>762.1</ele>
        <time>1970-01-01T01:58:18.000Z</time>
      </trkpt>
      <trkpt lat="45.89428" lon="3.00831">
        <ele>762.4</ele>
        <time>1970-01-01T01:58:19.000Z</time>
      </trkpt>
      <trkpt lat="45.89429" lon="3.0083">
        <ele>762.4</ele>
        <time>1970-01-01T01:58:20.000Z</time>
      </trkpt>
      <trkpt lat="45.89432" lon="3.00827">
        <ele>762.6</ele>
        <time>1970-01-01T01:58:21.000Z</time>
      </trkpt>
      <trkpt lat="45.89436" lon="3.00823">
        <ele>762.8</ele>
        <time>1970-01-01T01:58:23.000Z</time>
      </trkpt>
      <trkpt lat="45.89438" lon="3.00819">
        <ele>763</ele>
        <time>1970-01-01T01:58:24.000Z</time>
      </trkpt>
      <trkpt lat="45.89439" lon="3.00818">
        <ele>763.1</ele>
        <time>1970-01-01T01:58:25.000Z</time>
      </trkpt>
      <trkpt lat="45.89442" lon="3.00813">
        <ele>763.3</ele>
        <time>1970-01-01T01:58:27.000Z</time>
      </trkpt>
      <trkpt lat="45.89444" lon="3.00809">
        <ele>763.5</ele>
        <time>1970-01-01T01:58:28.000Z</time>
      </trkpt>
      <trkpt lat="45.89445" lon="3.00806">
        <ele>763.6</ele>
        <time>1970-01-01T01:58:29.000Z</time>
      </trkpt>
      <trkpt lat="45.89448" lon="3.00804">
        <ele>763.8</ele>
        <time>1970-01-01T01:58:30.000Z</time>
      </trkpt>
      <trkpt lat="45.89449" lon="3.00799">
        <ele>763.9</ele>
        <time>1970-01-01T01:58:31.000Z</time>
      </trkpt>
      <trkpt lat="45.89452" lon="3.00795">
        <ele>764.1</ele>
        <time>1970-01-01T01:58:33.000Z</time>
      </trkpt>
      <trkpt lat="45.89454" lon="3.00792">
        <ele>764.3</ele>
        <time>1970-01-01T01:58:34.000Z</time>
      </trkpt>
      <trkpt lat="45.89455" lon="3.00788">
        <ele>764.4</ele>
        <time>1970-01-01T01:58:35.000Z</time>
      </trkpt>
      <trkpt lat="45.89458" lon="3.00784">
        <ele>764.6</ele>
        <time>1970-01-01T01:58:36.000Z</time>
      </trkpt>
      <trkpt lat="45.89459" lon="3.00783">
        <ele>764.7</ele>
        <time>1970-01-01T01:58:37.000Z</time>
      </trkpt>
      <trkpt lat="45.89462" lon="3.00779">
        <ele>764.8</ele>
        <time>1970-01-01T01:58:38.000Z</time>
      </trkpt>
      <trkpt lat="45.89464" lon="3.00776">
        <ele>764.9</ele>
        <time>1970-01-01T01:58:39.000Z</time>
      </trkpt>
      <trkpt lat="45.89466" lon="3.00773">
        <ele>765.1</ele>
        <time>1970-01-01T01:58:40.000Z</time>
      </trkpt>
      <trkpt lat="45.89472" lon="3.00766">
        <ele>765.4</ele>
        <time>1970-01-01T01:58:42.000Z</time>
      </trkpt>
      <trkpt lat="45.89474" lon="3.00763">
        <ele>765.5</ele>
        <time>1970-01-01T01:58:44.000Z</time>
      </trkpt>
      <trkpt lat="45.89477" lon="3.00759">
        <ele>765.7</ele>
        <time>1970-01-01T01:58:45.000Z</time>
      </trkpt>
      <trkpt lat="45.89478" lon="3.00757">
        <ele>765.8</ele>
        <time>1970-01-01T01:58:46.000Z</time>
      </trkpt>
      <trkpt lat="45.89481" lon="3.00753">
        <ele>766</ele>
        <time>1970-01-01T01:58:48.000Z</time>
      </trkpt>
      <trkpt lat="45.89483" lon="3.0075">
        <ele>766.1</ele>
        <time>1970-01-01T01:58:49.000Z</time>
      </trkpt>
      <trkpt lat="45.89486" lon="3.00747">
        <ele>766.2</ele>
        <time>1970-01-01T01:58:50.000Z</time>
      </trkpt>
      <trkpt lat="45.89489" lon="3.00744">
        <ele>766.3</ele>
        <time>1970-01-01T01:58:51.000Z</time>
      </trkpt>
      <trkpt lat="45.89492" lon="3.0074">
        <ele>766.5</ele>
        <time>1970-01-01T01:58:53.000Z</time>
      </trkpt>
      <trkpt lat="45.89494" lon="3.00738">
        <ele>766.6</ele>
        <time>1970-01-01T01:58:54.000Z</time>
      </trkpt>
      <trkpt lat="45.89497" lon="3.00733">
        <ele>766.7</ele>
        <time>1970-01-01T01:58:55.000Z</time>
      </trkpt>
      <trkpt lat="45.895" lon="3.00731">
        <ele>766.9</ele>
        <time>1970-01-01T01:58:56.000Z</time>
      </trkpt>
      <trkpt lat="45.89502" lon="3.00727">
        <ele>767</ele>
        <time>1970-01-01T01:58:57.000Z</time>
      </trkpt>
      <trkpt lat="45.89506" lon="3.00722">
        <ele>767.2</ele>
        <time>1970-01-01T01:58:59.000Z</time>
      </trkpt>
      <trkpt lat="45.89507" lon="3.00721">
        <ele>767.2</ele>
        <time>1970-01-01T01:59:00.000Z</time>
      </trkpt>
      <trkpt lat="45.89508" lon="3.0072">
        <ele>767.3</ele>
        <time>1970-01-01T01:59:01.000Z</time>
      </trkpt>
      <trkpt lat="45.89512" lon="3.00717">
        <ele>767.5</ele>
        <time>1970-01-01T01:59:02.000Z</time>
      </trkpt>
      <trkpt lat="45.89516" lon="3.00714">
        <ele>767.7</ele>
        <time>1970-01-01T01:59:04.000Z</time>
      </trkpt>
      <trkpt lat="45.89519" lon="3.0071">
        <ele>767.8</ele>
        <time>1970-01-01T01:59:05.000Z</time>
      </trkpt>
      <trkpt lat="45.8952" lon="3.00709">
        <ele>767.9</ele>
        <time>1970-01-01T01:59:06.000Z</time>
      </trkpt>
      <trkpt lat="45.89523" lon="3.00707">
        <ele>768.1</ele>
        <time>1970-01-01T01:59:07.000Z</time>
      </trkpt>
      <trkpt lat="45.89525" lon="3.00706">
        <ele>768.2</ele>
        <time>1970-01-01T01:59:08.000Z</time>
      </trkpt>
      <trkpt lat="45.89528" lon="3.00704">
        <ele>768.3</ele>
        <time>1970-01-01T01:59:09.000Z</time>
      </trkpt>
      <trkpt lat="45.89531" lon="3.00702">
        <ele>768.5</ele>
        <time>1970-01-01T01:59:11.000Z</time>
      </trkpt>
      <trkpt lat="45.89533" lon="3.00699">
        <ele>768.7</ele>
        <time>1970-01-01T01:59:12.000Z</time>
      </trkpt>
      <trkpt lat="45.89536" lon="3.00697">
        <ele>768.9</ele>
        <time>1970-01-01T01:59:13.000Z</time>
      </trkpt>
      <trkpt lat="45.89537" lon="3.00696">
        <ele>769</ele>
        <time>1970-01-01T01:59:14.000Z</time>
      </trkpt>
      <trkpt lat="45.89541" lon="3.00693">
        <ele>769.2</ele>
        <time>1970-01-01T01:59:16.000Z</time>
      </trkpt>
      <trkpt lat="45.89545" lon="3.0069">
        <ele>769.5</ele>
        <time>1970-01-01T01:59:18.000Z</time>
      </trkpt>
      <trkpt lat="45.89549" lon="3.00688">
        <ele>769.7</ele>
        <time>1970-01-01T01:59:19.000Z</time>
      </trkpt>
      <trkpt lat="45.8955" lon="3.00687">
        <ele>769.8</ele>
        <time>1970-01-01T01:59:20.000Z</time>
      </trkpt>
      <trkpt lat="45.89552" lon="3.00686">
        <ele>769.9</ele>
        <time>1970-01-01T01:59:21.000Z</time>
      </trkpt>
      <trkpt lat="45.89555" lon="3.00684">
        <ele>770.1</ele>
        <time>1970-01-01T01:59:23.000Z</time>
      </trkpt>
      <trkpt lat="45.89558" lon="3.00682">
        <ele>770.3</ele>
        <time>1970-01-01T01:59:24.000Z</time>
      </trkpt>
      <trkpt lat="45.89559" lon="3.00681">
        <ele>770.3</ele>
        <time>1970-01-01T01:59:25.000Z</time>
      </trkpt>
      <trkpt lat="45.89562" lon="3.00679">
        <ele>770.5</ele>
        <time>1970-01-01T01:59:26.000Z</time>
      </trkpt>
      <trkpt lat="45.89565" lon="3.00677">
        <ele>770.7</ele>
        <time>1970-01-01T01:59:27.000Z</time>
      </trkpt>
      <trkpt lat="45.89568" lon="3.00674">
        <ele>770.9</ele>
        <time>1970-01-01T01:59:29.000Z</time>
      </trkpt>
      <trkpt lat="45.89569" lon="3.00673">
        <ele>770.9</ele>
        <time>1970-01-01T01:59:30.000Z</time>
      </trkpt>
      <trkpt lat="45.89572" lon="3.0067">
        <ele>771.1</ele>
        <time>1970-01-01T01:59:31.000Z</time>
      </trkpt>
      <trkpt lat="45.89573" lon="3.00669">
        <ele>771.2</ele>
        <time>1970-01-01T01:59:32.000Z</time>
      </trkpt>
      <trkpt lat="45.89577" lon="3.00668">
        <ele>771.4</ele>
        <time>1970-01-01T01:59:34.000Z</time>
      </trkpt>
      <trkpt lat="45.89579" lon="3.00666">
        <ele>771.5</ele>
        <time>1970-01-01T01:59:35.000Z</time>
      </trkpt>
      <trkpt lat="45.89582" lon="3.00663">
        <ele>771.7</ele>
        <time>1970-01-01T01:59:36.000Z</time>
      </trkpt>
      <trkpt lat="45.89583" lon="3.00662">
        <ele>771.8</ele>
        <time>1970-01-01T01:59:37.000Z</time>
      </trkpt>
      <trkpt lat="45.89586" lon="3.0066">
        <ele>771.9</ele>
        <time>1970-01-01T01:59:38.000Z</time>
      </trkpt>
      <trkpt lat="45.89588" lon="3.00657">
        <ele>772.1</ele>
        <time>1970-01-01T01:59:39.000Z</time>
      </trkpt>
      <trkpt lat="45.89592" lon="3.00653">
        <ele>772.3</ele>
        <time>1970-01-01T01:59:41.000Z</time>
      </trkpt>
      <trkpt lat="45.89593" lon="3.00651">
        <ele>772.4</ele>
        <time>1970-01-01T01:59:42.000Z</time>
      </trkpt>
      <trkpt lat="45.89594" lon="3.0065">
        <ele>772.4</ele>
        <time>1970-01-01T01:59:43.000Z</time>
      </trkpt>
      <trkpt lat="45.89596" lon="3.00647">
        <ele>772.6</ele>
        <time>1970-01-01T01:59:44.000Z</time>
      </trkpt>
      <trkpt lat="45.89597" lon="3.00645">
        <ele>772.6</ele>
        <time>1970-01-01T01:59:45.000Z</time>
      </trkpt>
      <trkpt lat="45.89599" lon="3.00641">
        <ele>772.8</ele>
        <time>1970-01-01T01:59:46.000Z</time>
      </trkpt>
      <trkpt lat="45.896" lon="3.00639">
        <ele>772.9</ele>
        <time>1970-01-01T01:59:47.000Z</time>
      </trkpt>
      <trkpt lat="45.89602" lon="3.00634">
        <ele>773.1</ele>
        <time>1970-01-01T01:59:48.000Z</time>
      </trkpt>
      <trkpt lat="45.89602" lon="3.00632">
        <ele>773.2</ele>
        <time>1970-01-01T01:59:49.000Z</time>
      </trkpt>
      <trkpt lat="45.89603" lon="3.00627">
        <ele>773.3</ele>
        <time>1970-01-01T01:59:51.000Z</time>
      </trkpt>
      <trkpt lat="45.89604" lon="3.00623">
        <ele>773.5</ele>
        <time>1970-01-01T01:59:52.000Z</time>
      </trkpt>
      <trkpt lat="45.89605" lon="3.00621">
        <ele>773.6</ele>
        <time>1970-01-01T01:59:53.000Z</time>
      </trkpt>
      <trkpt lat="45.89606" lon="3.00617">
        <ele>773.7</ele>
        <time>1970-01-01T01:59:54.000Z</time>
      </trkpt>
      <trkpt lat="45.89607" lon="3.00616">
        <ele>773.8</ele>
        <time>1970-01-01T01:59:55.000Z</time>
      </trkpt>
      <trkpt lat="45.89609" lon="3.00611">
        <ele>773.9</ele>
        <time>1970-01-01T01:59:56.000Z</time>
      </trkpt>
      <trkpt lat="45.8961" lon="3.00607">
        <ele>774.1</ele>
        <time>1970-01-01T01:59:58.000Z</time>
      </trkpt>
      <trkpt lat="45.89612" lon="3.00604">
        <ele>774.2</ele>
        <time>1970-01-01T01:59:59.000Z</time>
      </trkpt>
      <trkpt lat="45.89614" lon="3.00599">
        <ele>774.4</ele>
        <time>1970-01-01T02:00:01.000Z</time>
      </trkpt>
      <trkpt lat="45.89615" lon="3.00595">
        <ele>774.5</ele>
        <time>1970-01-01T02:00:02.000Z</time>
      </trkpt>
      <trkpt lat="45.89616" lon="3.00593">
        <ele>774.6</ele>
        <time>1970-01-01T02:00:03.000Z</time>
      </trkpt>
      <trkpt lat="45.89618" lon="3.00588">
        <ele>774.8</ele>
        <time>1970-01-01T02:00:04.000Z</time>
      </trkpt>
      <trkpt lat="45.89619" lon="3.00586">
        <ele>774.8</ele>
        <time>1970-01-01T02:00:05.000Z</time>
      </trkpt>
      <trkpt lat="45.89621" lon="3.00582">
        <ele>775</ele>
        <time>1970-01-01T02:00:07.000Z</time>
      </trkpt>
      <trkpt lat="45.89623" lon="3.00577">
        <ele>775.2</ele>
        <time>1970-01-01T02:00:08.000Z</time>
      </trkpt>
      <trkpt lat="45.89624" lon="3.00575">
        <ele>775.2</ele>
        <time>1970-01-01T02:00:09.000Z</time>
      </trkpt>
      <trkpt lat="45.89626" lon="3.00571">
        <ele>775.4</ele>
        <time>1970-01-01T02:00:10.000Z</time>
      </trkpt>
      <trkpt lat="45.89626" lon="3.00569">
        <ele>775.4</ele>
        <time>1970-01-01T02:00:11.000Z</time>
      </trkpt>
      <trkpt lat="45.89628" lon="3.00565">
        <ele>775.6</ele>
        <time>1970-01-01T02:00:13.000Z</time>
      </trkpt>
      <trkpt lat="45.89629" lon="3.00563">
        <ele>775.6</ele>
        <time>1970-01-01T02:00:14.000Z</time>
      </trkpt>
      <trkpt lat="45.89631" lon="3.00559">
        <ele>775.8</ele>
        <time>1970-01-01T02:00:15.000Z</time>
      </trkpt>
      <trkpt lat="45.89631" lon="3.00558">
        <ele>775.8</ele>
        <time>1970-01-01T02:00:16.000Z</time>
      </trkpt>
      <trkpt lat="45.89633" lon="3.00555">
        <ele>775.9</ele>
        <time>1970-01-01T02:00:17.000Z</time>
      </trkpt>
      <trkpt lat="45.89635" lon="3.00552">
        <ele>776</ele>
        <time>1970-01-01T02:00:18.000Z</time>
      </trkpt>
      <trkpt lat="45.89635" lon="3.0055">
        <ele>776.1</ele>
        <time>1970-01-01T02:00:19.000Z</time>
      </trkpt>
      <trkpt lat="45.89637" lon="3.00546">
        <ele>776.2</ele>
        <time>1970-01-01T02:00:20.000Z</time>
      </trkpt>
      <trkpt lat="45.89637" lon="3.00544">
        <ele>776.2</ele>
        <time>1970-01-01T02:00:21.000Z</time>
      </trkpt>
      <trkpt lat="45.89638" lon="3.00541">
        <ele>776.3</ele>
        <time>1970-01-01T02:00:22.000Z</time>
      </trkpt>
      <trkpt lat="45.89639" lon="3.00536">
        <ele>776.4</ele>
        <time>1970-01-01T02:00:23.000Z</time>
      </trkpt>
      <trkpt lat="45.89639" lon="3.00533">
        <ele>776.4</ele>
        <time>1970-01-01T02:00:24.000Z</time>
      </trkpt>
      <trkpt lat="45.89638" lon="3.00528">
        <ele>776.4</ele>
        <time>1970-01-01T02:00:25.000Z</time>
      </trkpt>
      <trkpt lat="45.89637" lon="3.00527">
        <ele>776.4</ele>
        <time>1970-01-01T02:00:26.000Z</time>
      </trkpt>
      <trkpt lat="45.89636" lon="3.00524">
        <ele>776.3</ele>
        <time>1970-01-01T02:00:27.000Z</time>
      </trkpt>
      <trkpt lat="45.89633" lon="3.0052">
        <ele>776.2</ele>
        <time>1970-01-01T02:00:29.000Z</time>
      </trkpt>
      <trkpt lat="45.8963" lon="3.00516">
        <ele>776</ele>
        <time>1970-01-01T02:00:30.000Z</time>
      </trkpt>
      <trkpt lat="45.89627" lon="3.00512">
        <ele>775.9</ele>
        <time>1970-01-01T02:00:31.000Z</time>
      </trkpt>
      <trkpt lat="45.89622" lon="3.00508">
        <ele>775.8</ele>
        <time>1970-01-01T02:00:33.000Z</time>
      </trkpt>
      <trkpt lat="45.89619" lon="3.00504">
        <ele>775.7</ele>
        <time>1970-01-01T02:00:34.000Z</time>
      </trkpt>
      <trkpt lat="45.89616" lon="3.005">
        <ele>775.6</ele>
        <time>1970-01-01T02:00:35.000Z</time>
      </trkpt>
      <trkpt lat="45.89611" lon="3.00495">
        <ele>775.5</ele>
        <time>1970-01-01T02:00:36.000Z</time>
      </trkpt>
      <trkpt lat="45.89607" lon="3.00492">
        <ele>775.4</ele>
        <time>1970-01-01T02:00:38.000Z</time>
      </trkpt>
      <trkpt lat="45.89604" lon="3.00489">
        <ele>775.4</ele>
        <time>1970-01-01T02:00:39.000Z</time>
      </trkpt>
      <trkpt lat="45.89601" lon="3.00484">
        <ele>775.3</ele>
        <time>1970-01-01T02:00:40.000Z</time>
      </trkpt>
      <trkpt lat="45.89595" lon="3.00478">
        <ele>775.1</ele>
        <time>1970-01-01T02:00:41.000Z</time>
      </trkpt>
      <trkpt lat="45.89592" lon="3.00475">
        <ele>775</ele>
        <time>1970-01-01T02:00:42.000Z</time>
      </trkpt>
      <trkpt lat="45.89588" lon="3.00471">
        <ele>774.8</ele>
        <time>1970-01-01T02:00:44.000Z</time>
      </trkpt>
      <trkpt lat="45.89585" lon="3.00468">
        <ele>774.7</ele>
        <time>1970-01-01T02:00:45.000Z</time>
      </trkpt>
      <trkpt lat="45.89582" lon="3.00467">
        <ele>774.5</ele>
        <time>1970-01-01T02:00:46.000Z</time>
      </trkpt>
      <trkpt lat="45.89578" lon="3.00464">
        <ele>774.3</ele>
        <time>1970-01-01T02:00:47.000Z</time>
      </trkpt>
      <trkpt lat="45.89573" lon="3.00459">
        <ele>774</ele>
        <time>1970-01-01T02:00:49.000Z</time>
      </trkpt>
      <trkpt lat="45.8957" lon="3.00457">
        <ele>773.8</ele>
        <time>1970-01-01T02:00:50.000Z</time>
      </trkpt>
      <trkpt lat="45.89564" lon="3.00452">
        <ele>773.5</ele>
        <time>1970-01-01T02:00:51.000Z</time>
      </trkpt>
      <trkpt lat="45.8956" lon="3.00448">
        <ele>773.2</ele>
        <time>1970-01-01T02:00:52.000Z</time>
      </trkpt>
      <trkpt lat="45.89556" lon="3.00443">
        <ele>773</ele>
        <time>1970-01-01T02:00:53.000Z</time>
      </trkpt>
      <trkpt lat="45.89551" lon="3.00438">
        <ele>772.7</ele>
        <time>1970-01-01T02:00:54.000Z</time>
      </trkpt>
      <trkpt lat="45.89546" lon="3.00433">
        <ele>772.5</ele>
        <time>1970-01-01T02:00:55.000Z</time>
      </trkpt>
      <trkpt lat="45.89541" lon="3.00428">
        <ele>772.3</ele>
        <time>1970-01-01T02:00:56.000Z</time>
      </trkpt>
      <trkpt lat="45.89536" lon="3.00423">
        <ele>772.1</ele>
        <time>1970-01-01T02:00:57.000Z</time>
      </trkpt>
      <trkpt lat="45.89532" lon="3.00417">
        <ele>772</ele>
        <time>1970-01-01T02:00:58.000Z</time>
      </trkpt>
      <trkpt lat="45.89528" lon="3.00411">
        <ele>771.9</ele>
        <time>1970-01-01T02:00:59.000Z</time>
      </trkpt>
      <trkpt lat="45.89523" lon="3.00406">
        <ele>771.7</ele>
        <time>1970-01-01T02:01:00.000Z</time>
      </trkpt>
      <trkpt lat="45.89517" lon="3.00402">
        <ele>771.7</ele>
        <time>1970-01-01T02:01:01.000Z</time>
      </trkpt>
      <trkpt lat="45.89512" lon="3.00399">
        <ele>771.7</ele>
        <time>1970-01-01T02:01:02.000Z</time>
      </trkpt>
      <trkpt lat="45.89507" lon="3.00396">
        <ele>771.6</ele>
        <time>1970-01-01T02:01:03.000Z</time>
      </trkpt>
      <trkpt lat="45.89502" lon="3.00393">
        <ele>771.6</ele>
        <time>1970-01-01T02:01:04.000Z</time>
      </trkpt>
      <trkpt lat="45.89497" lon="3.00391">
        <ele>771.5</ele>
        <time>1970-01-01T02:01:05.000Z</time>
      </trkpt>
      <trkpt lat="45.89493" lon="3.0039">
        <ele>771.4</ele>
        <time>1970-01-01T02:01:06.000Z</time>
      </trkpt>
      <trkpt lat="45.89488" lon="3.00388">
        <ele>771.2</ele>
        <time>1970-01-01T02:01:07.000Z</time>
      </trkpt>
      <trkpt lat="45.89484" lon="3.00387">
        <ele>770.9</ele>
        <time>1970-01-01T02:01:08.000Z</time>
      </trkpt>
      <trkpt lat="45.89481" lon="3.00386">
        <ele>770.8</ele>
        <time>1970-01-01T02:01:09.000Z</time>
      </trkpt>
      <trkpt lat="45.89475" lon="3.00385">
        <ele>770.4</ele>
        <time>1970-01-01T02:01:10.000Z</time>
      </trkpt>
      <trkpt lat="45.8947" lon="3.00384">
        <ele>769.9</ele>
        <time>1970-01-01T02:01:11.000Z</time>
      </trkpt>
      <trkpt lat="45.89465" lon="3.00383">
        <ele>769.5</ele>
        <time>1970-01-01T02:01:12.000Z</time>
      </trkpt>
      <trkpt lat="45.8946" lon="3.00381">
        <ele>769</ele>
        <time>1970-01-01T02:01:13.000Z</time>
      </trkpt>
      <trkpt lat="45.89454" lon="3.00379">
        <ele>768.5</ele>
        <time>1970-01-01T02:01:14.000Z</time>
      </trkpt>
      <trkpt lat="45.89447" lon="3.00377">
        <ele>768</ele>
        <time>1970-01-01T02:01:15.000Z</time>
      </trkpt>
      <trkpt lat="45.89441" lon="3.00374">
        <ele>767.6</ele>
        <time>1970-01-01T02:01:16.000Z</time>
      </trkpt>
      <trkpt lat="45.89434" lon="3.00373">
        <ele>767.2</ele>
        <time>1970-01-01T02:01:17.000Z</time>
      </trkpt>
      <trkpt lat="45.89427" lon="3.00374">
        <ele>766.8</ele>
        <time>1970-01-01T02:01:18.000Z</time>
      </trkpt>
      <trkpt lat="45.8942" lon="3.00376">
        <ele>766.5</ele>
        <time>1970-01-01T02:01:19.000Z</time>
      </trkpt>
      <trkpt lat="45.89413" lon="3.00379">
        <ele>766.2</ele>
        <time>1970-01-01T02:01:20.000Z</time>
      </trkpt>
      <trkpt lat="45.89406" lon="3.00382">
        <ele>765.9</ele>
        <time>1970-01-01T02:01:21.000Z</time>
      </trkpt>
      <trkpt lat="45.894" lon="3.00385">
        <ele>765.7</ele>
        <time>1970-01-01T02:01:22.000Z</time>
      </trkpt>
      <trkpt lat="45.89393" lon="3.00387">
        <ele>765.5</ele>
        <time>1970-01-01T02:01:23.000Z</time>
      </trkpt>
      <trkpt lat="45.89386" lon="3.00389">
        <ele>765.4</ele>
        <time>1970-01-01T02:01:24.000Z</time>
      </trkpt>
      <trkpt lat="45.8938" lon="3.00391">
        <ele>765.2</ele>
        <time>1970-01-01T02:01:25.000Z</time>
      </trkpt>
      <trkpt lat="45.89373" lon="3.00393">
        <ele>765</ele>
        <time>1970-01-01T02:01:26.000Z</time>
      </trkpt>
      <trkpt lat="45.89366" lon="3.00395">
        <ele>764.7</ele>
        <time>1970-01-01T02:01:27.000Z</time>
      </trkpt>
      <trkpt lat="45.89359" lon="3.00397">
        <ele>764.5</ele>
        <time>1970-01-01T02:01:28.000Z</time>
      </trkpt>
      <trkpt lat="45.89352" lon="3.00399">
        <ele>764.3</ele>
        <time>1970-01-01T02:01:29.000Z</time>
      </trkpt>
      <trkpt lat="45.89346" lon="3.00401">
        <ele>764.1</ele>
        <time>1970-01-01T02:01:30.000Z</time>
      </trkpt>
      <trkpt lat="45.89339" lon="3.00403">
        <ele>763.8</ele>
        <time>1970-01-01T02:01:31.000Z</time>
      </trkpt>
      <trkpt lat="45.89332" lon="3.00405">
        <ele>763.6</ele>
        <time>1970-01-01T02:01:32.000Z</time>
      </trkpt>
      <trkpt lat="45.89325" lon="3.00406">
        <ele>763.3</ele>
        <time>1970-01-01T02:01:33.000Z</time>
      </trkpt>
      <trkpt lat="45.89318" lon="3.00406">
        <ele>763</ele>
        <time>1970-01-01T02:01:34.000Z</time>
      </trkpt>
      <trkpt lat="45.89311" lon="3.00407">
        <ele>762.7</ele>
        <time>1970-01-01T02:01:35.000Z</time>
      </trkpt>
      <trkpt lat="45.89303" lon="3.00407">
        <ele>762.3</ele>
        <time>1970-01-01T02:01:36.000Z</time>
      </trkpt>
      <trkpt lat="45.89296" lon="3.00406">
        <ele>762</ele>
        <time>1970-01-01T02:01:37.000Z</time>
      </trkpt>
      <trkpt lat="45.89289" lon="3.00405">
        <ele>761.7</ele>
        <time>1970-01-01T02:01:38.000Z</time>
      </trkpt>
      <trkpt lat="45.89283" lon="3.00404">
        <ele>761.4</ele>
        <time>1970-01-01T02:01:39.000Z</time>
      </trkpt>
      <trkpt lat="45.89276" lon="3.00404">
        <ele>761</ele>
        <time>1970-01-01T02:01:40.000Z</time>
      </trkpt>
      <trkpt lat="45.8927" lon="3.00404">
        <ele>760.6</ele>
        <time>1970-01-01T02:01:41.000Z</time>
      </trkpt>
      <trkpt lat="45.89263" lon="3.00404">
        <ele>760.2</ele>
        <time>1970-01-01T02:01:42.000Z</time>
      </trkpt>
      <trkpt lat="45.89256" lon="3.00404">
        <ele>759.8</ele>
        <time>1970-01-01T02:01:43.000Z</time>
      </trkpt>
      <trkpt lat="45.89249" lon="3.00402">
        <ele>759.4</ele>
        <time>1970-01-01T02:01:44.000Z</time>
      </trkpt>
      <trkpt lat="45.89242" lon="3.004">
        <ele>758.9</ele>
        <time>1970-01-01T02:01:45.000Z</time>
      </trkpt>
      <trkpt lat="45.89235" lon="3.00397">
        <ele>758.4</ele>
        <time>1970-01-01T02:01:46.000Z</time>
      </trkpt>
      <trkpt lat="45.89227" lon="3.00395">
        <ele>757.8</ele>
        <time>1970-01-01T02:01:47.000Z</time>
      </trkpt>
      <trkpt lat="45.8922" lon="3.00391">
        <ele>757.2</ele>
        <time>1970-01-01T02:01:48.000Z</time>
      </trkpt>
      <trkpt lat="45.89213" lon="3.00387">
        <ele>756.7</ele>
        <time>1970-01-01T02:01:49.000Z</time>
      </trkpt>
      <trkpt lat="45.89207" lon="3.00383">
        <ele>756.2</ele>
        <time>1970-01-01T02:01:50.000Z</time>
      </trkpt>
      <trkpt lat="45.892" lon="3.00381">
        <ele>755.7</ele>
        <time>1970-01-01T02:01:51.000Z</time>
      </trkpt>
      <trkpt lat="45.89194" lon="3.0038">
        <ele>755.2</ele>
        <time>1970-01-01T02:01:52.000Z</time>
      </trkpt>
      <trkpt lat="45.89187" lon="3.00379">
        <ele>754.6</ele>
        <time>1970-01-01T02:01:53.000Z</time>
      </trkpt>
      <trkpt lat="45.8918" lon="3.00378">
        <ele>753.9</ele>
        <time>1970-01-01T02:01:54.000Z</time>
      </trkpt>
      <trkpt lat="45.89173" lon="3.00379">
        <ele>753.1</ele>
        <time>1970-01-01T02:01:55.000Z</time>
      </trkpt>
      <trkpt lat="45.89166" lon="3.0038">
        <ele>752.4</ele>
        <time>1970-01-01T02:01:56.000Z</time>
      </trkpt>
      <trkpt lat="45.89158" lon="3.00382">
        <ele>751.6</ele>
        <time>1970-01-01T02:01:57.000Z</time>
      </trkpt>
      <trkpt lat="45.89151" lon="3.00383">
        <ele>750.9</ele>
        <time>1970-01-01T02:01:58.000Z</time>
      </trkpt>
      <trkpt lat="45.89143" lon="3.00383">
        <ele>750.3</ele>
        <time>1970-01-01T02:01:59.000Z</time>
      </trkpt>
      <trkpt lat="45.89135" lon="3.00384">
        <ele>749.8</ele>
        <time>1970-01-01T02:02:00.000Z</time>
      </trkpt>
      <trkpt lat="45.89127" lon="3.00384">
        <ele>749.2</ele>
        <time>1970-01-01T02:02:01.000Z</time>
      </trkpt>
      <trkpt lat="45.89119" lon="3.00383">
        <ele>748.5</ele>
        <time>1970-01-01T02:02:02.000Z</time>
      </trkpt>
      <trkpt lat="45.89111" lon="3.00383">
        <ele>747.8</ele>
        <time>1970-01-01T02:02:03.000Z</time>
      </trkpt>
      <trkpt lat="45.89103" lon="3.00383">
        <ele>747.1</ele>
        <time>1970-01-01T02:02:04.000Z</time>
      </trkpt>
      <trkpt lat="45.89096" lon="3.00383">
        <ele>746.5</ele>
        <time>1970-01-01T02:02:05.000Z</time>
      </trkpt>
      <trkpt lat="45.89089" lon="3.00381">
        <ele>745.9</ele>
        <time>1970-01-01T02:02:06.000Z</time>
      </trkpt>
      <trkpt lat="45.89081" lon="3.0038">
        <ele>745.6</ele>
        <time>1970-01-01T02:02:07.000Z</time>
      </trkpt>
      <trkpt lat="45.89073" lon="3.00377">
        <ele>745.3</ele>
        <time>1970-01-01T02:02:08.000Z</time>
      </trkpt>
      <trkpt lat="45.89066" lon="3.00374">
        <ele>745.2</ele>
        <time>1970-01-01T02:02:09.000Z</time>
      </trkpt>
      <trkpt lat="45.89059" lon="3.00371">
        <ele>745.2</ele>
        <time>1970-01-01T02:02:10.000Z</time>
      </trkpt>
      <trkpt lat="45.89052" lon="3.00366">
        <ele>745.2</ele>
        <time>1970-01-01T02:02:11.000Z</time>
      </trkpt>
      <trkpt lat="45.89046" lon="3.00363">
        <ele>745.4</ele>
        <time>1970-01-01T02:02:12.000Z</time>
      </trkpt>
      <trkpt lat="45.8904" lon="3.0036">
        <ele>745.5</ele>
        <time>1970-01-01T02:02:13.000Z</time>
      </trkpt>
      <trkpt lat="45.89034" lon="3.00358">
        <ele>745.7</ele>
        <time>1970-01-01T02:02:14.000Z</time>
      </trkpt>
      <trkpt lat="45.89028" lon="3.00356">
        <ele>746.1</ele>
        <time>1970-01-01T02:02:15.000Z</time>
      </trkpt>
      <trkpt lat="45.89022" lon="3.00356">
        <ele>746.6</ele>
        <time>1970-01-01T02:02:16.000Z</time>
      </trkpt>
      <trkpt lat="45.89018" lon="3.00358">
        <ele>747.1</ele>
        <time>1970-01-01T02:02:17.000Z</time>
      </trkpt>
      <trkpt lat="45.89013" lon="3.00361">
        <ele>747.6</ele>
        <time>1970-01-01T02:02:18.000Z</time>
      </trkpt>
      <trkpt lat="45.89011" lon="3.00362">
        <ele>747.8</ele>
        <time>1970-01-01T02:02:19.000Z</time>
      </trkpt>
      <trkpt lat="45.89007" lon="3.00362">
        <ele>748.2</ele>
        <time>1970-01-01T02:02:20.000Z</time>
      </trkpt>
      <trkpt lat="45.89004" lon="3.00364">
        <ele>748.6</ele>
        <time>1970-01-01T02:02:21.000Z</time>
      </trkpt>
      <trkpt lat="45.89001" lon="3.00366">
        <ele>748.8</ele>
        <time>1970-01-01T02:02:22.000Z</time>
      </trkpt>
      <trkpt lat="45.88997" lon="3.00367">
        <ele>749.2</ele>
        <time>1970-01-01T02:02:23.000Z</time>
      </trkpt>
      <trkpt lat="45.88995" lon="3.00367">
        <ele>749.3</ele>
        <time>1970-01-01T02:02:24.000Z</time>
      </trkpt>
      <trkpt lat="45.88993" lon="3.00366">
        <ele>749.5</ele>
        <time>1970-01-01T02:02:25.000Z</time>
      </trkpt>
      <trkpt lat="45.88989" lon="3.00368">
        <ele>749.8</ele>
        <time>1970-01-01T02:02:26.000Z</time>
      </trkpt>
      <trkpt lat="45.88986" lon="3.0037">
        <ele>750.1</ele>
        <time>1970-01-01T02:02:27.000Z</time>
      </trkpt>
      <trkpt lat="45.88983" lon="3.00372">
        <ele>750.3</ele>
        <time>1970-01-01T02:02:28.000Z</time>
      </trkpt>
      <trkpt lat="45.8898" lon="3.00373">
        <ele>750.5</ele>
        <time>1970-01-01T02:02:30.000Z</time>
      </trkpt>
      <trkpt lat="45.88977" lon="3.00375">
        <ele>750.8</ele>
        <time>1970-01-01T02:02:31.000Z</time>
      </trkpt>
      <trkpt lat="45.88974" lon="3.00376">
        <ele>751</ele>
        <time>1970-01-01T02:02:32.000Z</time>
      </trkpt>
      <trkpt lat="45.88969" lon="3.00377">
        <ele>751.4</ele>
        <time>1970-01-01T02:02:33.000Z</time>
      </trkpt>
      <trkpt lat="45.88966" lon="3.00379">
        <ele>751.6</ele>
        <time>1970-01-01T02:02:34.000Z</time>
      </trkpt>
      <trkpt lat="45.88963" lon="3.0038">
        <ele>751.9</ele>
        <time>1970-01-01T02:02:36.000Z</time>
      </trkpt>
      <trkpt lat="45.88959" lon="3.00381">
        <ele>752.2</ele>
        <time>1970-01-01T02:02:37.000Z</time>
      </trkpt>
      <trkpt lat="45.88958" lon="3.00381">
        <ele>752.3</ele>
        <time>1970-01-01T02:02:38.000Z</time>
      </trkpt>
      <trkpt lat="45.88954" lon="3.00382">
        <ele>752.7</ele>
        <time>1970-01-01T02:02:39.000Z</time>
      </trkpt>
      <trkpt lat="45.88953" lon="3.00382">
        <ele>752.8</ele>
        <time>1970-01-01T02:02:40.000Z</time>
      </trkpt>
      <trkpt lat="45.8895" lon="3.00382">
        <ele>753.1</ele>
        <time>1970-01-01T02:02:41.000Z</time>
      </trkpt>
      <trkpt lat="45.88947" lon="3.00383">
        <ele>753.4</ele>
        <time>1970-01-01T02:02:42.000Z</time>
      </trkpt>
      <trkpt lat="45.88945" lon="3.00383">
        <ele>753.6</ele>
        <time>1970-01-01T02:02:43.000Z</time>
      </trkpt>
      <trkpt lat="45.88941" lon="3.00383">
        <ele>754</ele>
        <time>1970-01-01T02:02:45.000Z</time>
      </trkpt>
      <trkpt lat="45.88938" lon="3.00383">
        <ele>754.4</ele>
        <time>1970-01-01T02:02:47.000Z</time>
      </trkpt>
      <trkpt lat="45.88937" lon="3.00383">
        <ele>754.5</ele>
        <time>1970-01-01T02:02:48.000Z</time>
      </trkpt>
      <trkpt lat="45.88935" lon="3.00383">
        <ele>754.7</ele>
        <time>1970-01-01T02:02:49.000Z</time>
      </trkpt>
      <trkpt lat="45.88934" lon="3.00383">
        <ele>754.8</ele>
        <time>1970-01-01T02:02:50.000Z</time>
      </trkpt>
      <trkpt lat="45.88931" lon="3.00384">
        <ele>755.1</ele>
        <time>1970-01-01T02:02:51.000Z</time>
      </trkpt>
      <trkpt lat="45.8893" lon="3.00384">
        <ele>755.2</ele>
        <time>1970-01-01T02:02:52.000Z</time>
      </trkpt>
      <trkpt lat="45.88929" lon="3.00384">
        <ele>755.4</ele>
        <time>1970-01-01T02:02:53.000Z</time>
      </trkpt>
      <trkpt lat="45.88928" lon="3.00384">
        <ele>755.6</ele>
        <time>1970-01-01T02:02:54.000Z</time>
      </trkpt>
      <trkpt lat="45.88926" lon="3.00384">
        <ele>755.8</ele>
        <time>1970-01-01T02:02:55.000Z</time>
      </trkpt>
      <trkpt lat="45.88924" lon="3.00384">
        <ele>755.9</ele>
        <time>1970-01-01T02:02:56.000Z</time>
      </trkpt>
      <trkpt lat="45.88923" lon="3.00384">
        <ele>756.1</ele>
        <time>1970-01-01T02:02:57.000Z</time>
      </trkpt>
      <trkpt lat="45.88922" lon="3.00384">
        <ele>756.3</ele>
        <time>1970-01-01T02:02:58.000Z</time>
      </trkpt>
      <trkpt lat="45.8892" lon="3.00383">
        <ele>756.5</ele>
        <time>1970-01-01T02:02:59.000Z</time>
      </trkpt>
      <trkpt lat="45.88918" lon="3.00383">
        <ele>756.7</ele>
        <time>1970-01-01T02:03:00.000Z</time>
      </trkpt>
      <trkpt lat="45.88917" lon="3.00382">
        <ele>756.8</ele>
        <time>1970-01-01T02:03:01.000Z</time>
      </trkpt>
      <trkpt lat="45.88915" lon="3.00382">
        <ele>756.9</ele>
        <time>1970-01-01T02:03:02.000Z</time>
      </trkpt>
      <trkpt lat="45.88913" lon="3.00382">
        <ele>757.2</ele>
        <time>1970-01-01T02:03:03.000Z</time>
      </trkpt>
      <trkpt lat="45.88912" lon="3.00382">
        <ele>757.3</ele>
        <time>1970-01-01T02:03:04.000Z</time>
      </trkpt>
      <trkpt lat="45.88911" lon="3.00381">
        <ele>757.4</ele>
        <time>1970-01-01T02:03:05.000Z</time>
      </trkpt>
      <trkpt lat="45.88909" lon="3.00381">
        <ele>757.6</ele>
        <time>1970-01-01T02:03:06.000Z</time>
      </trkpt>
      <trkpt lat="45.88908" lon="3.00381">
        <ele>757.7</ele>
        <time>1970-01-01T02:03:07.000Z</time>
      </trkpt>
      <trkpt lat="45.88907" lon="3.0038">
        <ele>757.9</ele>
        <time>1970-01-01T02:03:08.000Z</time>
      </trkpt>
      <trkpt lat="45.88905" lon="3.0038">
        <ele>758</ele>
        <time>1970-01-01T02:03:09.000Z</time>
      </trkpt>
      <trkpt lat="45.88903" lon="3.00379">
        <ele>758.2</ele>
        <time>1970-01-01T02:03:10.000Z</time>
      </trkpt>
      <trkpt lat="45.88902" lon="3.00379">
        <ele>758.4</ele>
        <time>1970-01-01T02:03:11.000Z</time>
      </trkpt>
      <trkpt lat="45.889" lon="3.00379">
        <ele>758.5</ele>
        <time>1970-01-01T02:03:12.000Z</time>
      </trkpt>
      <trkpt lat="45.88899" lon="3.00379">
        <ele>758.7</ele>
        <time>1970-01-01T02:03:13.000Z</time>
      </trkpt>
      <trkpt lat="45.88897" lon="3.00378">
        <ele>758.9</ele>
        <time>1970-01-01T02:03:14.000Z</time>
      </trkpt>
      <trkpt lat="45.88895" lon="3.00378">
        <ele>759.1</ele>
        <time>1970-01-01T02:03:15.000Z</time>
      </trkpt>
      <trkpt lat="45.88893" lon="3.00377">
        <ele>759.3</ele>
        <time>1970-01-01T02:03:16.000Z</time>
      </trkpt>
      <trkpt lat="45.88892" lon="3.00377">
        <ele>759.5</ele>
        <time>1970-01-01T02:03:17.000Z</time>
      </trkpt>
      <trkpt lat="45.88891" lon="3.00376">
        <ele>759.6</ele>
        <time>1970-01-01T02:03:18.000Z</time>
      </trkpt>
      <trkpt lat="45.88889" lon="3.00376">
        <ele>759.9</ele>
        <time>1970-01-01T02:03:19.000Z</time>
      </trkpt>
      <trkpt lat="45.88888" lon="3.00375">
        <ele>760</ele>
        <time>1970-01-01T02:03:20.000Z</time>
      </trkpt>
      <trkpt lat="45.88887" lon="3.00375">
        <ele>760.1</ele>
        <time>1970-01-01T02:03:21.000Z</time>
      </trkpt>
      <trkpt lat="45.88886" lon="3.00375">
        <ele>760.3</ele>
        <time>1970-01-01T02:03:22.000Z</time>
      </trkpt>
      <trkpt lat="45.88884" lon="3.00375">
        <ele>760.4</ele>
        <time>1970-01-01T02:03:23.000Z</time>
      </trkpt>
      <trkpt lat="45.88883" lon="3.00374">
        <ele>760.6</ele>
        <time>1970-01-01T02:03:24.000Z</time>
      </trkpt>
      <trkpt lat="45.88881" lon="3.00374">
        <ele>760.8</ele>
        <time>1970-01-01T02:03:25.000Z</time>
      </trkpt>
      <trkpt lat="45.88879" lon="3.00373">
        <ele>761.1</ele>
        <time>1970-01-01T02:03:26.000Z</time>
      </trkpt>
      <trkpt lat="45.88878" lon="3.00373">
        <ele>761.2</ele>
        <time>1970-01-01T02:03:27.000Z</time>
      </trkpt>
      <trkpt lat="45.88877" lon="3.00372">
        <ele>761.4</ele>
        <time>1970-01-01T02:03:28.000Z</time>
      </trkpt>
      <trkpt lat="45.88876" lon="3.00372">
        <ele>761.6</ele>
        <time>1970-01-01T02:03:29.000Z</time>
      </trkpt>
      <trkpt lat="45.88874" lon="3.00371">
        <ele>761.8</ele>
        <time>1970-01-01T02:03:31.000Z</time>
      </trkpt>
      <trkpt lat="45.88873" lon="3.00371">
        <ele>762</ele>
        <time>1970-01-01T02:03:32.000Z</time>
      </trkpt>
      <trkpt lat="45.88871" lon="3.00371">
        <ele>762.1</ele>
        <time>1970-01-01T02:03:33.000Z</time>
      </trkpt>
      <trkpt lat="45.8887" lon="3.0037">
        <ele>762.3</ele>
        <time>1970-01-01T02:03:34.000Z</time>
      </trkpt>
      <trkpt lat="45.88869" lon="3.00369">
        <ele>762.4</ele>
        <time>1970-01-01T02:03:35.000Z</time>
      </trkpt>
      <trkpt lat="45.88868" lon="3.00369">
        <ele>762.6</ele>
        <time>1970-01-01T02:03:36.000Z</time>
      </trkpt>
      <trkpt lat="45.88867" lon="3.00368">
        <ele>762.7</ele>
        <time>1970-01-01T02:03:37.000Z</time>
      </trkpt>
      <trkpt lat="45.88866" lon="3.00368">
        <ele>762.9</ele>
        <time>1970-01-01T02:03:38.000Z</time>
      </trkpt>
      <trkpt lat="45.88864" lon="3.00368">
        <ele>763.2</ele>
        <time>1970-01-01T02:03:40.000Z</time>
      </trkpt>
      <trkpt lat="45.88863" lon="3.00368">
        <ele>763.3</ele>
        <time>1970-01-01T02:03:41.000Z</time>
      </trkpt>
      <trkpt lat="45.88862" lon="3.00367">
        <ele>763.5</ele>
        <time>1970-01-01T02:03:42.000Z</time>
      </trkpt>
      <trkpt lat="45.88861" lon="3.00366">
        <ele>763.7</ele>
        <time>1970-01-01T02:03:43.000Z</time>
      </trkpt>
      <trkpt lat="45.88859" lon="3.00366">
        <ele>763.8</ele>
        <time>1970-01-01T02:03:44.000Z</time>
      </trkpt>
      <trkpt lat="45.88858" lon="3.00365">
        <ele>764</ele>
        <time>1970-01-01T02:03:45.000Z</time>
      </trkpt>
      <trkpt lat="45.88858" lon="3.00365">
        <ele>764.1</ele>
        <time>1970-01-01T02:03:46.000Z</time>
      </trkpt>
      <trkpt lat="45.88856" lon="3.00363">
        <ele>764.4</ele>
        <time>1970-01-01T02:03:47.000Z</time>
      </trkpt>
      <trkpt lat="45.88855" lon="3.00363">
        <ele>764.5</ele>
        <time>1970-01-01T02:03:48.000Z</time>
      </trkpt>
      <trkpt lat="45.88854" lon="3.00362">
        <ele>764.6</ele>
        <time>1970-01-01T02:03:49.000Z</time>
      </trkpt>
      <trkpt lat="45.88853" lon="3.00361">
        <ele>764.8</ele>
        <time>1970-01-01T02:03:50.000Z</time>
      </trkpt>
      <trkpt lat="45.88852" lon="3.0036">
        <ele>764.9</ele>
        <time>1970-01-01T02:03:51.000Z</time>
      </trkpt>
      <trkpt lat="45.88851" lon="3.0036">
        <ele>765</ele>
        <time>1970-01-01T02:03:52.000Z</time>
      </trkpt>
      <trkpt lat="45.88851" lon="3.00359">
        <ele>765.2</ele>
        <time>1970-01-01T02:03:53.000Z</time>
      </trkpt>
      <trkpt lat="45.88849" lon="3.00357">
        <ele>765.4</ele>
        <time>1970-01-01T02:03:54.000Z</time>
      </trkpt>
      <trkpt lat="45.88848" lon="3.00357">
        <ele>765.5</ele>
        <time>1970-01-01T02:03:55.000Z</time>
      </trkpt>
      <trkpt lat="45.88848" lon="3.00356">
        <ele>765.6</ele>
        <time>1970-01-01T02:03:56.000Z</time>
      </trkpt>
      <trkpt lat="45.88847" lon="3.00355">
        <ele>765.8</ele>
        <time>1970-01-01T02:03:57.000Z</time>
      </trkpt>
      <trkpt lat="45.88845" lon="3.00354">
        <ele>765.9</ele>
        <time>1970-01-01T02:03:58.000Z</time>
      </trkpt>
      <trkpt lat="45.88844" lon="3.00354">
        <ele>766.1</ele>
        <time>1970-01-01T02:03:59.000Z</time>
      </trkpt>
      <trkpt lat="45.88843" lon="3.00352">
        <ele>766.3</ele>
        <time>1970-01-01T02:04:01.000Z</time>
      </trkpt>
      <trkpt lat="45.88841" lon="3.00351">
        <ele>766.5</ele>
        <time>1970-01-01T02:04:02.000Z</time>
      </trkpt>
      <trkpt lat="45.8884" lon="3.00351">
        <ele>766.6</ele>
        <time>1970-01-01T02:04:03.000Z</time>
      </trkpt>
      <trkpt lat="45.88839" lon="3.00351">
        <ele>766.6</ele>
        <time>1970-01-01T02:04:04.000Z</time>
      </trkpt>
      <trkpt lat="45.88839" lon="3.0035">
        <ele>766.7</ele>
        <time>1970-01-01T02:04:05.000Z</time>
      </trkpt>
      <trkpt lat="45.88837" lon="3.00349">
        <ele>766.9</ele>
        <time>1970-01-01T02:04:06.000Z</time>
      </trkpt>
      <trkpt lat="45.88836" lon="3.00348">
        <ele>767</ele>
        <time>1970-01-01T02:04:07.000Z</time>
      </trkpt>
      <trkpt lat="45.88834" lon="3.00347">
        <ele>767.2</ele>
        <time>1970-01-01T02:04:09.000Z</time>
      </trkpt>
      <trkpt lat="45.88833" lon="3.00346">
        <ele>767.3</ele>
        <time>1970-01-01T02:04:10.000Z</time>
      </trkpt>
      <trkpt lat="45.88832" lon="3.00347">
        <ele>767.4</ele>
        <time>1970-01-01T02:04:11.000Z</time>
      </trkpt>
      <trkpt lat="45.8883" lon="3.00347">
        <ele>767.5</ele>
        <time>1970-01-01T02:04:12.000Z</time>
      </trkpt>
      <trkpt lat="45.88829" lon="3.00346">
        <ele>767.6</ele>
        <time>1970-01-01T02:04:13.000Z</time>
      </trkpt>
      <trkpt lat="45.88828" lon="3.00346">
        <ele>767.7</ele>
        <time>1970-01-01T02:04:14.000Z</time>
      </trkpt>
      <trkpt lat="45.88827" lon="3.00347">
        <ele>767.7</ele>
        <time>1970-01-01T02:04:15.000Z</time>
      </trkpt>
      <trkpt lat="45.88825" lon="3.00348">
        <ele>767.8</ele>
        <time>1970-01-01T02:04:16.000Z</time>
      </trkpt>
      <trkpt lat="45.88824" lon="3.00347">
        <ele>767.9</ele>
        <time>1970-01-01T02:04:17.000Z</time>
      </trkpt>
      <trkpt lat="45.88823" lon="3.00346">
        <ele>767.9</ele>
        <time>1970-01-01T02:04:18.000Z</time>
      </trkpt>
      <trkpt lat="45.88822" lon="3.00345">
        <ele>767.9</ele>
        <time>1970-01-01T02:04:19.000Z</time>
      </trkpt>
      <trkpt lat="45.88821" lon="3.00343">
        <ele>767.9</ele>
        <time>1970-01-01T02:04:20.000Z</time>
      </trkpt>
      <trkpt lat="45.88821" lon="3.00341">
        <ele>767.9</ele>
        <time>1970-01-01T02:04:21.000Z</time>
      </trkpt>
      <trkpt lat="45.8882" lon="3.00339">
        <ele>767.9</ele>
        <time>1970-01-01T02:04:22.000Z</time>
      </trkpt>
      <trkpt lat="45.88817" lon="3.00338">
        <ele>767.9</ele>
        <time>1970-01-01T02:04:24.000Z</time>
      </trkpt>
      <trkpt lat="45.88817" lon="3.00336">
        <ele>767.9</ele>
        <time>1970-01-01T02:04:25.000Z</time>
      </trkpt>
      <trkpt lat="45.88815" lon="3.00335">
        <ele>767.9</ele>
        <time>1970-01-01T02:04:26.000Z</time>
      </trkpt>
      <trkpt lat="45.88813" lon="3.00337">
        <ele>767.8</ele>
        <time>1970-01-01T02:04:27.000Z</time>
      </trkpt>
      <trkpt lat="45.88812" lon="3.00339">
        <ele>767.8</ele>
        <time>1970-01-01T02:04:29.000Z</time>
      </trkpt>
      <trkpt lat="45.88813" lon="3.00341">
        <ele>767.8</ele>
        <time>1970-01-01T02:04:30.000Z</time>
      </trkpt>
      <trkpt lat="45.88815" lon="3.00343">
        <ele>767.8</ele>
        <time>1970-01-01T02:04:31.000Z</time>
      </trkpt>
      <trkpt lat="45.88817" lon="3.00343">
        <ele>767.8</ele>
        <time>1970-01-01T02:04:33.000Z</time>
      </trkpt>
      <trkpt lat="45.88818" lon="3.00342">
        <ele>767.8</ele>
        <time>1970-01-01T02:04:34.000Z</time>
      </trkpt>
      <trkpt lat="45.88818" lon="3.00342">
        <ele>767.8</ele>
        <time>1970-01-01T02:04:35.000Z</time>
      </trkpt>
      <trkpt lat="45.88818" lon="3.00341">
        <ele>767.8</ele>
        <time>1970-01-01T02:04:36.000Z</time>
      </trkpt>
      <trkpt lat="45.88818" lon="3.0034">
        <ele>767.8</ele>
        <time>1970-01-01T02:04:37.000Z</time>
      </trkpt>
      <trkpt lat="45.88818" lon="3.0034">
        <ele>767.8</ele>
        <time>1970-01-01T02:04:38.000Z</time>
      </trkpt>
      <trkpt lat="45.88818" lon="3.00339">
        <ele>767.8</ele>
        <time>1970-01-01T02:04:39.000Z</time>
      </trkpt>
      <trkpt lat="45.88818" lon="3.00338">
        <ele>767.8</ele>
        <time>1970-01-01T02:04:40.000Z</time>
      </trkpt>
      <trkpt lat="45.88818" lon="3.00338">
        <ele>767.8</ele>
        <time>1970-01-01T02:04:41.000Z</time>
      </trkpt>
      <trkpt lat="45.88818" lon="3.00337">
        <ele>767.8</ele>
        <time>1970-01-01T02:04:42.000Z</time>
      </trkpt>
      <trkpt lat="45.88818" lon="3.00336">
        <ele>767.8</ele>
        <time>1970-01-01T02:04:43.000Z</time>
      </trkpt>
      <trkpt lat="45.88818" lon="3.00336">
        <ele>767.8</ele>
        <time>1970-01-01T02:04:44.000Z</time>
      </trkpt>
      <trkpt lat="45.88818" lon="3.00335">
        <ele>767.8</ele>
        <time>1970-01-01T02:04:45.000Z</time>
      </trkpt>
      <trkpt lat="45.88818" lon="3.00334">
        <ele>767.9</ele>
        <time>1970-01-01T02:05:39.000Z</time>
      </trkpt>
      <trkpt lat="45.88818" lon="3.00334">
        <ele>767.9</ele>
        <time>1970-01-01T02:05:40.000Z</time>
      </trkpt>
      <trkpt lat="45.88818" lon="3.00333">
        <ele>767.9</ele>
        <time>1970-01-01T02:05:41.000Z</time>
      </trkpt>
      <trkpt lat="45.88818" lon="3.00332">
        <ele>767.9</ele>
        <time>1970-01-01T02:05:42.000Z</time>
      </trkpt>
      <trkpt lat="45.88817" lon="3.00331">
        <ele>767.9</ele>
        <time>1970-01-01T02:05:43.000Z</time>
      </trkpt>
      <trkpt lat="45.88816" lon="3.00328">
        <ele>767.9</ele>
        <time>1970-01-01T02:05:44.000Z</time>
      </trkpt>
      <trkpt lat="45.88817" lon="3.00329">
        <ele>767.9</ele>
        <time>1970-01-01T02:05:45.000Z</time>
      </trkpt>
      <trkpt lat="45.88815" lon="3.00323">
        <ele>768</ele>
        <time>1970-01-01T02:05:46.000Z</time>
      </trkpt>
      <trkpt lat="45.88814" lon="3.0032">
        <ele>768.1</ele>
        <time>1970-01-01T02:05:48.000Z</time>
      </trkpt>
      <trkpt lat="45.88812" lon="3.00316">
        <ele>768.2</ele>
        <time>1970-01-01T02:05:49.000Z</time>
      </trkpt>
      <trkpt lat="45.88811" lon="3.00312">
        <ele>768.3</ele>
        <time>1970-01-01T02:05:50.000Z</time>
      </trkpt>
      <trkpt lat="45.88809" lon="3.00308">
        <ele>768.4</ele>
        <time>1970-01-01T02:05:51.000Z</time>
      </trkpt>
      <trkpt lat="45.88808" lon="3.00303">
        <ele>768.6</ele>
        <time>1970-01-01T02:05:52.000Z</time>
      </trkpt>
      <trkpt lat="45.88806" lon="3.00299">
        <ele>768.8</ele>
        <time>1970-01-01T02:05:54.000Z</time>
      </trkpt>
      <trkpt lat="45.88805" lon="3.00294">
        <ele>769</ele>
        <time>1970-01-01T02:05:55.000Z</time>
      </trkpt>
      <trkpt lat="45.88804" lon="3.00291">
        <ele>769.1</ele>
        <time>1970-01-01T02:05:56.000Z</time>
      </trkpt>
      <trkpt lat="45.88802" lon="3.00286">
        <ele>769.3</ele>
        <time>1970-01-01T02:05:58.000Z</time>
      </trkpt>
      <trkpt lat="45.88801" lon="3.00282">
        <ele>769.5</ele>
        <time>1970-01-01T02:05:59.000Z</time>
      </trkpt>
      <trkpt lat="45.888" lon="3.0028">
        <ele>769.6</ele>
        <time>1970-01-01T02:06:00.000Z</time>
      </trkpt>
      <trkpt lat="45.88799" lon="3.00276">
        <ele>769.8</ele>
        <time>1970-01-01T02:06:01.000Z</time>
      </trkpt>
      <trkpt lat="45.88798" lon="3.00275">
        <ele>769.9</ele>
        <time>1970-01-01T02:06:02.000Z</time>
      </trkpt>
      <trkpt lat="45.88797" lon="3.0027">
        <ele>770.1</ele>
        <time>1970-01-01T02:06:03.000Z</time>
      </trkpt>
      <trkpt lat="45.88797" lon="3.00268">
        <ele>770.2</ele>
        <time>1970-01-01T02:06:04.000Z</time>
      </trkpt>
      <trkpt lat="45.88796" lon="3.00264">
        <ele>770.5</ele>
        <time>1970-01-01T02:06:05.000Z</time>
      </trkpt>
      <trkpt lat="45.88794" lon="3.0026">
        <ele>770.7</ele>
        <time>1970-01-01T02:06:06.000Z</time>
      </trkpt>
      <trkpt lat="45.88793" lon="3.00254">
        <ele>771</ele>
        <time>1970-01-01T02:06:08.000Z</time>
      </trkpt>
      <trkpt lat="45.88792" lon="3.00252">
        <ele>771.1</ele>
        <time>1970-01-01T02:06:09.000Z</time>
      </trkpt>
      <trkpt lat="45.88792" lon="3.00251">
        <ele>771.2</ele>
        <time>1970-01-01T02:06:10.000Z</time>
      </trkpt>
      <trkpt lat="45.88791" lon="3.00247">
        <ele>771.5</ele>
        <time>1970-01-01T02:06:11.000Z</time>
      </trkpt>
      <trkpt lat="45.88789" lon="3.00243">
        <ele>771.7</ele>
        <time>1970-01-01T02:06:12.000Z</time>
      </trkpt>
      <trkpt lat="45.88788" lon="3.00238">
        <ele>772.1</ele>
        <time>1970-01-01T02:06:14.000Z</time>
      </trkpt>
      <trkpt lat="45.88786" lon="3.00234">
        <ele>772.4</ele>
        <time>1970-01-01T02:06:15.000Z</time>
      </trkpt>
      <trkpt lat="45.88786" lon="3.00233">
        <ele>772.5</ele>
        <time>1970-01-01T02:06:16.000Z</time>
      </trkpt>
      <trkpt lat="45.88784" lon="3.00229">
        <ele>772.7</ele>
        <time>1970-01-01T02:06:17.000Z</time>
      </trkpt>
      <trkpt lat="45.88782" lon="3.00224">
        <ele>773.2</ele>
        <time>1970-01-01T02:06:18.000Z</time>
      </trkpt>
      <trkpt lat="45.88782" lon="3.00223">
        <ele>773.3</ele>
        <time>1970-01-01T02:06:19.000Z</time>
      </trkpt>
      <trkpt lat="45.88781" lon="3.0022">
        <ele>773.5</ele>
        <time>1970-01-01T02:06:20.000Z</time>
      </trkpt>
      <trkpt lat="45.88779" lon="3.00216">
        <ele>773.8</ele>
        <time>1970-01-01T02:06:22.000Z</time>
      </trkpt>
      <trkpt lat="45.88779" lon="3.00214">
        <ele>774</ele>
        <time>1970-01-01T02:06:23.000Z</time>
      </trkpt>
      <trkpt lat="45.88778" lon="3.00212">
        <ele>774.2</ele>
        <time>1970-01-01T02:06:24.000Z</time>
      </trkpt>
      <trkpt lat="45.88776" lon="3.00208">
        <ele>774.6</ele>
        <time>1970-01-01T02:06:25.000Z</time>
      </trkpt>
      <trkpt lat="45.88776" lon="3.00206">
        <ele>774.7</ele>
        <time>1970-01-01T02:06:26.000Z</time>
      </trkpt>
      <trkpt lat="45.88775" lon="3.00201">
        <ele>775.1</ele>
        <time>1970-01-01T02:06:27.000Z</time>
      </trkpt>
      <trkpt lat="45.88774" lon="3.002">
        <ele>775.3</ele>
        <time>1970-01-01T02:06:28.000Z</time>
      </trkpt>
      <trkpt lat="45.88773" lon="3.00197">
        <ele>775.5</ele>
        <time>1970-01-01T02:06:29.000Z</time>
      </trkpt>
      <trkpt lat="45.88772" lon="3.00193">
        <ele>775.8</ele>
        <time>1970-01-01T02:06:31.000Z</time>
      </trkpt>
      <trkpt lat="45.8877" lon="3.0019">
        <ele>776.2</ele>
        <time>1970-01-01T02:06:32.000Z</time>
      </trkpt>
      <trkpt lat="45.8877" lon="3.00189">
        <ele>776.3</ele>
        <time>1970-01-01T02:06:33.000Z</time>
      </trkpt>
      <trkpt lat="45.88769" lon="3.00187">
        <ele>776.5</ele>
        <time>1970-01-01T02:06:34.000Z</time>
      </trkpt>
      <trkpt lat="45.88768" lon="3.00185">
        <ele>776.6</ele>
        <time>1970-01-01T02:06:35.000Z</time>
      </trkpt>
      <trkpt lat="45.88767" lon="3.00181">
        <ele>777</ele>
        <time>1970-01-01T02:06:36.000Z</time>
      </trkpt>
      <trkpt lat="45.88766" lon="3.0018">
        <ele>777.1</ele>
        <time>1970-01-01T02:06:37.000Z</time>
      </trkpt>
      <trkpt lat="45.88764" lon="3.00175">
        <ele>777.6</ele>
        <time>1970-01-01T02:06:39.000Z</time>
      </trkpt>
      <trkpt lat="45.88764" lon="3.00173">
        <ele>777.8</ele>
        <time>1970-01-01T02:06:40.000Z</time>
      </trkpt>
      <trkpt lat="45.88763" lon="3.00172">
        <ele>777.9</ele>
        <time>1970-01-01T02:06:41.000Z</time>
      </trkpt>
      <trkpt lat="45.88762" lon="3.00168">
        <ele>778.3</ele>
        <time>1970-01-01T02:06:42.000Z</time>
      </trkpt>
      <trkpt lat="45.88762" lon="3.00166">
        <ele>778.4</ele>
        <time>1970-01-01T02:06:43.000Z</time>
      </trkpt>
      <trkpt lat="45.88762" lon="3.00164">
        <ele>778.6</ele>
        <time>1970-01-01T02:06:44.000Z</time>
      </trkpt>
      <trkpt lat="45.88761" lon="3.00162">
        <ele>778.8</ele>
        <time>1970-01-01T02:06:45.000Z</time>
      </trkpt>
      <trkpt lat="45.8876" lon="3.0016">
        <ele>779</ele>
        <time>1970-01-01T02:06:46.000Z</time>
      </trkpt>
      <trkpt lat="45.88759" lon="3.00158">
        <ele>779.2</ele>
        <time>1970-01-01T02:06:47.000Z</time>
      </trkpt>
      <trkpt lat="45.88759" lon="3.00154">
        <ele>779.5</ele>
        <time>1970-01-01T02:06:48.000Z</time>
      </trkpt>
      <trkpt lat="45.88759" lon="3.00153">
        <ele>779.6</ele>
        <time>1970-01-01T02:06:49.000Z</time>
      </trkpt>
      <trkpt lat="45.88757" lon="3.0015">
        <ele>779.8</ele>
        <time>1970-01-01T02:06:50.000Z</time>
      </trkpt>
      <trkpt lat="45.88756" lon="3.00147">
        <ele>780.1</ele>
        <time>1970-01-01T02:06:52.000Z</time>
      </trkpt>
      <trkpt lat="45.88755" lon="3.00143">
        <ele>780.4</ele>
        <time>1970-01-01T02:06:53.000Z</time>
      </trkpt>
      <trkpt lat="45.88754" lon="3.00141">
        <ele>780.5</ele>
        <time>1970-01-01T02:06:54.000Z</time>
      </trkpt>
      <trkpt lat="45.88752" lon="3.00138">
        <ele>780.7</ele>
        <time>1970-01-01T02:06:56.000Z</time>
      </trkpt>
      <trkpt lat="45.88752" lon="3.00137">
        <ele>780.8</ele>
        <time>1970-01-01T02:06:57.000Z</time>
      </trkpt>
      <trkpt lat="45.8875" lon="3.00135">
        <ele>781</ele>
        <time>1970-01-01T02:06:58.000Z</time>
      </trkpt>
      <trkpt lat="45.88749" lon="3.00134">
        <ele>781.1</ele>
        <time>1970-01-01T02:06:59.000Z</time>
      </trkpt>
      <trkpt lat="45.88748" lon="3.00132">
        <ele>781.2</ele>
        <time>1970-01-01T02:07:00.000Z</time>
      </trkpt>
      <trkpt lat="45.88748" lon="3.0013">
        <ele>781.3</ele>
        <time>1970-01-01T02:07:02.000Z</time>
      </trkpt>
      <trkpt lat="45.88747" lon="3.00128">
        <ele>781.4</ele>
        <time>1970-01-01T02:07:03.000Z</time>
      </trkpt>
      <trkpt lat="45.88747" lon="3.00126">
        <ele>781.6</ele>
        <time>1970-01-01T02:07:04.000Z</time>
      </trkpt>
      <trkpt lat="45.88746" lon="3.00123">
        <ele>781.7</ele>
        <time>1970-01-01T02:07:05.000Z</time>
      </trkpt>
      <trkpt lat="45.88745" lon="3.00122">
        <ele>781.8</ele>
        <time>1970-01-01T02:07:06.000Z</time>
      </trkpt>
      <trkpt lat="45.88743" lon="3.00119">
        <ele>782</ele>
        <time>1970-01-01T02:07:07.000Z</time>
      </trkpt>
      <trkpt lat="45.88743" lon="3.00118">
        <ele>782</ele>
        <time>1970-01-01T02:07:08.000Z</time>
      </trkpt>
      <trkpt lat="45.88741" lon="3.00114">
        <ele>782.3</ele>
        <time>1970-01-01T02:07:10.000Z</time>
      </trkpt>
      <trkpt lat="45.8874" lon="3.00113">
        <ele>782.3</ele>
        <time>1970-01-01T02:07:11.000Z</time>
      </trkpt>
      <trkpt lat="45.88739" lon="3.00111">
        <ele>782.5</ele>
        <time>1970-01-01T02:07:12.000Z</time>
      </trkpt>
      <trkpt lat="45.88739" lon="3.00108">
        <ele>782.6</ele>
        <time>1970-01-01T02:07:13.000Z</time>
      </trkpt>
      <trkpt lat="45.88738" lon="3.00107">
        <ele>782.7</ele>
        <time>1970-01-01T02:07:15.000Z</time>
      </trkpt>
      <trkpt lat="45.88737" lon="3.00105">
        <ele>782.8</ele>
        <time>1970-01-01T02:07:16.000Z</time>
      </trkpt>
      <trkpt lat="45.88736" lon="3.00104">
        <ele>782.9</ele>
        <time>1970-01-01T02:07:17.000Z</time>
      </trkpt>
      <trkpt lat="45.88735" lon="3.00101">
        <ele>783</ele>
        <time>1970-01-01T02:07:18.000Z</time>
      </trkpt>
      <trkpt lat="45.88733" lon="3.00098">
        <ele>783.2</ele>
        <time>1970-01-01T02:07:19.000Z</time>
      </trkpt>
      <trkpt lat="45.88732" lon="3.00096">
        <ele>783.3</ele>
        <time>1970-01-01T02:07:21.000Z</time>
      </trkpt>
      <trkpt lat="45.88731" lon="3.00095">
        <ele>783.4</ele>
        <time>1970-01-01T02:07:22.000Z</time>
      </trkpt>
      <trkpt lat="45.88731" lon="3.00093">
        <ele>783.5</ele>
        <time>1970-01-01T02:07:23.000Z</time>
      </trkpt>
      <trkpt lat="45.88729" lon="3.0009">
        <ele>783.7</ele>
        <time>1970-01-01T02:07:25.000Z</time>
      </trkpt>
      <trkpt lat="45.88728" lon="3.00088">
        <ele>783.8</ele>
        <time>1970-01-01T02:07:26.000Z</time>
      </trkpt>
      <trkpt lat="45.88727" lon="3.00087">
        <ele>783.9</ele>
        <time>1970-01-01T02:07:27.000Z</time>
      </trkpt>
      <trkpt lat="45.88726" lon="3.00084">
        <ele>784.1</ele>
        <time>1970-01-01T02:07:28.000Z</time>
      </trkpt>
      <trkpt lat="45.88724" lon="3.00081">
        <ele>784.2</ele>
        <time>1970-01-01T02:07:30.000Z</time>
      </trkpt>
      <trkpt lat="45.88723" lon="3.0008">
        <ele>784.3</ele>
        <time>1970-01-01T02:07:31.000Z</time>
      </trkpt>
      <trkpt lat="45.88722" lon="3.00077">
        <ele>784.5</ele>
        <time>1970-01-01T02:07:32.000Z</time>
      </trkpt>
      <trkpt lat="45.88721" lon="3.00073">
        <ele>784.7</ele>
        <time>1970-01-01T02:07:33.000Z</time>
      </trkpt>
      <trkpt lat="45.88721" lon="3.00072">
        <ele>784.7</ele>
        <time>1970-01-01T02:07:34.000Z</time>
      </trkpt>
      <trkpt lat="45.8872" lon="3.0007">
        <ele>784.8</ele>
        <time>1970-01-01T02:07:36.000Z</time>
      </trkpt>
      <trkpt lat="45.88719" lon="3.00068">
        <ele>784.9</ele>
        <time>1970-01-01T02:07:37.000Z</time>
      </trkpt>
      <trkpt lat="45.88718" lon="3.00066">
        <ele>785</ele>
        <time>1970-01-01T02:07:38.000Z</time>
      </trkpt>
      <trkpt lat="45.88717" lon="3.00064">
        <ele>785.1</ele>
        <time>1970-01-01T02:07:39.000Z</time>
      </trkpt>
      <trkpt lat="45.88717" lon="3.00062">
        <ele>785.2</ele>
        <time>1970-01-01T02:07:40.000Z</time>
      </trkpt>
      <trkpt lat="45.88716" lon="3.00059">
        <ele>785.3</ele>
        <time>1970-01-01T02:07:41.000Z</time>
      </trkpt>
      <trkpt lat="45.88715" lon="3.00057">
        <ele>785.4</ele>
        <time>1970-01-01T02:07:42.000Z</time>
      </trkpt>
      <trkpt lat="45.88714" lon="3.00055">
        <ele>785.5</ele>
        <time>1970-01-01T02:07:43.000Z</time>
      </trkpt>
      <trkpt lat="45.88713" lon="3.00051">
        <ele>785.7</ele>
        <time>1970-01-01T02:07:44.000Z</time>
      </trkpt>
      <trkpt lat="45.88712" lon="3.0005">
        <ele>785.7</ele>
        <time>1970-01-01T02:07:45.000Z</time>
      </trkpt>
      <trkpt lat="45.88711" lon="3.00047">
        <ele>785.9</ele>
        <time>1970-01-01T02:07:46.000Z</time>
      </trkpt>
      <trkpt lat="45.88711" lon="3.00045">
        <ele>785.9</ele>
        <time>1970-01-01T02:07:47.000Z</time>
      </trkpt>
      <trkpt lat="45.88709" lon="3.0004">
        <ele>786.1</ele>
        <time>1970-01-01T02:07:49.000Z</time>
      </trkpt>
      <trkpt lat="45.88708" lon="3.00039">
        <ele>786.2</ele>
        <time>1970-01-01T02:07:51.000Z</time>
      </trkpt>
      <trkpt lat="45.88707" lon="3.00037">
        <ele>786.2</ele>
        <time>1970-01-01T02:07:52.000Z</time>
      </trkpt>
      <trkpt lat="45.88706" lon="3.00033">
        <ele>786.4</ele>
        <time>1970-01-01T02:07:53.000Z</time>
      </trkpt>
      <trkpt lat="45.88705" lon="3.00031">
        <ele>786.4</ele>
        <time>1970-01-01T02:07:54.000Z</time>
      </trkpt>
      <trkpt lat="45.88704" lon="3.00027">
        <ele>786.6</ele>
        <time>1970-01-01T02:07:56.000Z</time>
      </trkpt>
      <trkpt lat="45.88704" lon="3.00026">
        <ele>786.6</ele>
        <time>1970-01-01T02:07:57.000Z</time>
      </trkpt>
      <trkpt lat="45.88703" lon="3.00023">
        <ele>786.7</ele>
        <time>1970-01-01T02:07:58.000Z</time>
      </trkpt>
      <trkpt lat="45.88701" lon="3.0002">
        <ele>786.8</ele>
        <time>1970-01-01T02:08:00.000Z</time>
      </trkpt>
      <trkpt lat="45.88699" lon="3.00016">
        <ele>787</ele>
        <time>1970-01-01T02:08:01.000Z</time>
      </trkpt>
      <trkpt lat="45.88698" lon="3.00014">
        <ele>787</ele>
        <time>1970-01-01T02:08:02.000Z</time>
      </trkpt>
      <trkpt lat="45.88696" lon="3.00011">
        <ele>787.2</ele>
        <time>1970-01-01T02:08:03.000Z</time>
      </trkpt>
      <trkpt lat="45.88694" lon="3.00008">
        <ele>787.3</ele>
        <time>1970-01-01T02:08:04.000Z</time>
      </trkpt>
      <trkpt lat="45.88692" lon="3.00004">
        <ele>787.5</ele>
        <time>1970-01-01T02:08:06.000Z</time>
      </trkpt>
      <trkpt lat="45.88691" lon="3.00003">
        <ele>787.6</ele>
        <time>1970-01-01T02:08:07.000Z</time>
      </trkpt>
      <trkpt lat="45.88689" lon="2.99999">
        <ele>787.8</ele>
        <time>1970-01-01T02:08:08.000Z</time>
      </trkpt>
      <trkpt lat="45.88688" lon="2.99997">
        <ele>787.9</ele>
        <time>1970-01-01T02:08:09.000Z</time>
      </trkpt>
      <trkpt lat="45.88686" lon="2.99993">
        <ele>788.2</ele>
        <time>1970-01-01T02:08:10.000Z</time>
      </trkpt>
      <trkpt lat="45.88685" lon="2.99991">
        <ele>788.3</ele>
        <time>1970-01-01T02:08:11.000Z</time>
      </trkpt>
      <trkpt lat="45.88683" lon="2.99988">
        <ele>788.4</ele>
        <time>1970-01-01T02:08:12.000Z</time>
      </trkpt>
      <trkpt lat="45.88681" lon="2.99986">
        <ele>788.6</ele>
        <time>1970-01-01T02:08:14.000Z</time>
      </trkpt>
      <trkpt lat="45.88679" lon="2.99982">
        <ele>788.9</ele>
        <time>1970-01-01T02:08:15.000Z</time>
      </trkpt>
      <trkpt lat="45.88679" lon="2.99981">
        <ele>788.9</ele>
        <time>1970-01-01T02:08:16.000Z</time>
      </trkpt>
      <trkpt lat="45.88677" lon="2.99979">
        <ele>789.1</ele>
        <time>1970-01-01T02:08:17.000Z</time>
      </trkpt>
      <trkpt lat="45.88673" lon="2.99974">
        <ele>789.5</ele>
        <time>1970-01-01T02:08:19.000Z</time>
      </trkpt>
      <trkpt lat="45.88672" lon="2.99972">
        <ele>789.6</ele>
        <time>1970-01-01T02:08:20.000Z</time>
      </trkpt>
      <trkpt lat="45.88671" lon="2.9997">
        <ele>789.8</ele>
        <time>1970-01-01T02:08:21.000Z</time>
      </trkpt>
      <trkpt lat="45.88669" lon="2.99967">
        <ele>790</ele>
        <time>1970-01-01T02:08:22.000Z</time>
      </trkpt>
      <trkpt lat="45.88668" lon="2.99966">
        <ele>790</ele>
        <time>1970-01-01T02:08:23.000Z</time>
      </trkpt>
      <trkpt lat="45.88667" lon="2.99965">
        <ele>790.1</ele>
        <time>1970-01-01T02:08:25.000Z</time>
      </trkpt>
      <trkpt lat="45.88666" lon="2.99963">
        <ele>790.3</ele>
        <time>1970-01-01T02:08:26.000Z</time>
      </trkpt>
      <trkpt lat="45.88665" lon="2.99961">
        <ele>790.4</ele>
        <time>1970-01-01T02:08:27.000Z</time>
      </trkpt>
      <trkpt lat="45.88664" lon="2.99959">
        <ele>790.5</ele>
        <time>1970-01-01T02:08:28.000Z</time>
      </trkpt>
      <trkpt lat="45.88663" lon="2.99956">
        <ele>790.7</ele>
        <time>1970-01-01T02:08:29.000Z</time>
      </trkpt>
      <trkpt lat="45.88662" lon="2.99952">
        <ele>790.9</ele>
        <time>1970-01-01T02:08:31.000Z</time>
      </trkpt>
      <trkpt lat="45.88661" lon="2.99949">
        <ele>791</ele>
        <time>1970-01-01T02:08:32.000Z</time>
      </trkpt>
      <trkpt lat="45.8866" lon="2.99947">
        <ele>791.2</ele>
        <time>1970-01-01T02:08:34.000Z</time>
      </trkpt>
      <trkpt lat="45.88658" lon="2.99945">
        <ele>791.3</ele>
        <time>1970-01-01T02:08:35.000Z</time>
      </trkpt>
      <trkpt lat="45.88657" lon="2.99942">
        <ele>791.4</ele>
        <time>1970-01-01T02:08:37.000Z</time>
      </trkpt>
      <trkpt lat="45.88656" lon="2.9994">
        <ele>791.5</ele>
        <time>1970-01-01T02:08:38.000Z</time>
      </trkpt>
      <trkpt lat="45.88655" lon="2.99938">
        <ele>791.6</ele>
        <time>1970-01-01T02:08:39.000Z</time>
      </trkpt>
      <trkpt lat="45.88654" lon="2.99935">
        <ele>791.8</ele>
        <time>1970-01-01T02:08:40.000Z</time>
      </trkpt>
      <trkpt lat="45.88652" lon="2.99932">
        <ele>791.9</ele>
        <time>1970-01-01T02:08:42.000Z</time>
      </trkpt>
      <trkpt lat="45.88651" lon="2.99929">
        <ele>792.1</ele>
        <time>1970-01-01T02:08:43.000Z</time>
      </trkpt>
      <trkpt lat="45.8865" lon="2.99927">
        <ele>792.2</ele>
        <time>1970-01-01T02:08:44.000Z</time>
      </trkpt>
      <trkpt lat="45.8865" lon="2.99925">
        <ele>792.2</ele>
        <time>1970-01-01T02:08:45.000Z</time>
      </trkpt>
      <trkpt lat="45.88647" lon="2.9992">
        <ele>792.5</ele>
        <time>1970-01-01T02:08:47.000Z</time>
      </trkpt>
      <trkpt lat="45.88647" lon="2.99918">
        <ele>792.5</ele>
        <time>1970-01-01T02:08:48.000Z</time>
      </trkpt>
      <trkpt lat="45.88646" lon="2.99916">
        <ele>792.6</ele>
        <time>1970-01-01T02:08:49.000Z</time>
      </trkpt>
      <trkpt lat="45.88645" lon="2.99913">
        <ele>792.7</ele>
        <time>1970-01-01T02:08:50.000Z</time>
      </trkpt>
      <trkpt lat="45.88643" lon="2.9991">
        <ele>792.8</ele>
        <time>1970-01-01T02:08:52.000Z</time>
      </trkpt>
      <trkpt lat="45.88642" lon="2.99907">
        <ele>792.9</ele>
        <time>1970-01-01T02:08:53.000Z</time>
      </trkpt>
      <trkpt lat="45.88641" lon="2.99905">
        <ele>793</ele>
        <time>1970-01-01T02:08:54.000Z</time>
      </trkpt>
      <trkpt lat="45.8864" lon="2.999">
        <ele>793.1</ele>
        <time>1970-01-01T02:08:56.000Z</time>
      </trkpt>
      <trkpt lat="45.88639" lon="2.99899">
        <ele>793.2</ele>
        <time>1970-01-01T02:08:57.000Z</time>
      </trkpt>
      <trkpt lat="45.88638" lon="2.99895">
        <ele>793.3</ele>
        <time>1970-01-01T02:08:58.000Z</time>
      </trkpt>
      <trkpt lat="45.88638" lon="2.99894">
        <ele>793.3</ele>
        <time>1970-01-01T02:08:59.000Z</time>
      </trkpt>
      <trkpt lat="45.88635" lon="2.9989">
        <ele>793.4</ele>
        <time>1970-01-01T02:09:00.000Z</time>
      </trkpt>
      <trkpt lat="45.88635" lon="2.99888">
        <ele>793.5</ele>
        <time>1970-01-01T02:09:01.000Z</time>
      </trkpt>
      <trkpt lat="45.88633" lon="2.99885">
        <ele>793.6</ele>
        <time>1970-01-01T02:09:02.000Z</time>
      </trkpt>
      <trkpt lat="45.88632" lon="2.9988">
        <ele>793.7</ele>
        <time>1970-01-01T02:09:03.000Z</time>
      </trkpt>
      <trkpt lat="45.8863" lon="2.99877">
        <ele>793.8</ele>
        <time>1970-01-01T02:09:04.000Z</time>
      </trkpt>
      <trkpt lat="45.88628" lon="2.99873">
        <ele>793.9</ele>
        <time>1970-01-01T02:09:06.000Z</time>
      </trkpt>
      <trkpt lat="45.88626" lon="2.99868">
        <ele>794.1</ele>
        <time>1970-01-01T02:09:07.000Z</time>
      </trkpt>
      <trkpt lat="45.88625" lon="2.99864">
        <ele>794.2</ele>
        <time>1970-01-01T02:09:08.000Z</time>
      </trkpt>
      <trkpt lat="45.88622" lon="2.99859">
        <ele>794.3</ele>
        <time>1970-01-01T02:09:10.000Z</time>
      </trkpt>
      <trkpt lat="45.8862" lon="2.99854">
        <ele>794.5</ele>
        <time>1970-01-01T02:09:11.000Z</time>
      </trkpt>
      <trkpt lat="45.88619" lon="2.99852">
        <ele>794.5</ele>
        <time>1970-01-01T02:09:12.000Z</time>
      </trkpt>
      <trkpt lat="45.88618" lon="2.99847">
        <ele>794.7</ele>
        <time>1970-01-01T02:09:14.000Z</time>
      </trkpt>
      <trkpt lat="45.88617" lon="2.99845">
        <ele>794.7</ele>
        <time>1970-01-01T02:09:15.000Z</time>
      </trkpt>
      <trkpt lat="45.88616" lon="2.9984">
        <ele>794.8</ele>
        <time>1970-01-01T02:09:16.000Z</time>
      </trkpt>
      <trkpt lat="45.88615" lon="2.99837">
        <ele>794.9</ele>
        <time>1970-01-01T02:09:17.000Z</time>
      </trkpt>
      <trkpt lat="45.88613" lon="2.99831">
        <ele>795</ele>
        <time>1970-01-01T02:09:19.000Z</time>
      </trkpt>
      <trkpt lat="45.88613" lon="2.99829">
        <ele>795</ele>
        <time>1970-01-01T02:09:20.000Z</time>
      </trkpt>
      <trkpt lat="45.88612" lon="2.99826">
        <ele>795.1</ele>
        <time>1970-01-01T02:09:21.000Z</time>
      </trkpt>
      <trkpt lat="45.8861" lon="2.99822">
        <ele>795.1</ele>
        <time>1970-01-01T02:09:22.000Z</time>
      </trkpt>
      <trkpt lat="45.88608" lon="2.99819">
        <ele>795.2</ele>
        <time>1970-01-01T02:09:23.000Z</time>
      </trkpt>
      <trkpt lat="45.88606" lon="2.99814">
        <ele>795.3</ele>
        <time>1970-01-01T02:09:25.000Z</time>
      </trkpt>
      <trkpt lat="45.88604" lon="2.9981">
        <ele>795.3</ele>
        <time>1970-01-01T02:09:26.000Z</time>
      </trkpt>
      <trkpt lat="45.88603" lon="2.99809">
        <ele>795.3</ele>
        <time>1970-01-01T02:09:27.000Z</time>
      </trkpt>
      <trkpt lat="45.88601" lon="2.99804">
        <ele>795.4</ele>
        <time>1970-01-01T02:09:28.000Z</time>
      </trkpt>
      <trkpt lat="45.88601" lon="2.99803">
        <ele>795.4</ele>
        <time>1970-01-01T02:09:29.000Z</time>
      </trkpt>
      <trkpt lat="45.88598" lon="2.99799">
        <ele>795.5</ele>
        <time>1970-01-01T02:09:30.000Z</time>
      </trkpt>
      <trkpt lat="45.88598" lon="2.99798">
        <ele>795.5</ele>
        <time>1970-01-01T02:09:31.000Z</time>
      </trkpt>
      <trkpt lat="45.88597" lon="2.99794">
        <ele>795.5</ele>
        <time>1970-01-01T02:09:32.000Z</time>
      </trkpt>
      <trkpt lat="45.88595" lon="2.9979">
        <ele>795.5</ele>
        <time>1970-01-01T02:09:33.000Z</time>
      </trkpt>
      <trkpt lat="45.88594" lon="2.99785">
        <ele>795.6</ele>
        <time>1970-01-01T02:09:34.000Z</time>
      </trkpt>
      <trkpt lat="45.88593" lon="2.99784">
        <ele>795.6</ele>
        <time>1970-01-01T02:09:35.000Z</time>
      </trkpt>
      <trkpt lat="45.88591" lon="2.99779">
        <ele>795.7</ele>
        <time>1970-01-01T02:09:36.000Z</time>
      </trkpt>
      <trkpt lat="45.88589" lon="2.99775">
        <ele>795.7</ele>
        <time>1970-01-01T02:09:37.000Z</time>
      </trkpt>
      <trkpt lat="45.88587" lon="2.9977">
        <ele>795.7</ele>
        <time>1970-01-01T02:09:38.000Z</time>
      </trkpt>
      <trkpt lat="45.88586" lon="2.99767">
        <ele>795.8</ele>
        <time>1970-01-01T02:09:39.000Z</time>
      </trkpt>
      <trkpt lat="45.88584" lon="2.99763">
        <ele>795.8</ele>
        <time>1970-01-01T02:09:41.000Z</time>
      </trkpt>
      <trkpt lat="45.88582" lon="2.99759">
        <ele>795.9</ele>
        <time>1970-01-01T02:09:42.000Z</time>
      </trkpt>
      <trkpt lat="45.88581" lon="2.99749">
        <ele>795.9</ele>
        <time>1970-01-01T02:09:44.000Z</time>
      </trkpt>
      <trkpt lat="45.8858" lon="2.99744">
        <ele>796</ele>
        <time>1970-01-01T02:09:45.000Z</time>
      </trkpt>
      <trkpt lat="45.88579" lon="2.99739">
        <ele>796</ele>
        <time>1970-01-01T02:09:46.000Z</time>
      </trkpt>
      <trkpt lat="45.88578" lon="2.99733">
        <ele>796.1</ele>
        <time>1970-01-01T02:09:47.000Z</time>
      </trkpt>
      <trkpt lat="45.88577" lon="2.99729">
        <ele>796.1</ele>
        <time>1970-01-01T02:09:48.000Z</time>
      </trkpt>
      <trkpt lat="45.88577" lon="2.99722">
        <ele>796.2</ele>
        <time>1970-01-01T02:09:50.000Z</time>
      </trkpt>
      <trkpt lat="45.88576" lon="2.99715">
        <ele>796.2</ele>
        <time>1970-01-01T02:09:51.000Z</time>
      </trkpt>
      <trkpt lat="45.88574" lon="2.99708">
        <ele>796.3</ele>
        <time>1970-01-01T02:09:53.000Z</time>
      </trkpt>
      <trkpt lat="45.88572" lon="2.99704">
        <ele>796.3</ele>
        <time>1970-01-01T02:09:54.000Z</time>
      </trkpt>
      <trkpt lat="45.8857" lon="2.997">
        <ele>796.3</ele>
        <time>1970-01-01T02:09:55.000Z</time>
      </trkpt>
      <trkpt lat="45.88569" lon="2.99694">
        <ele>796.3</ele>
        <time>1970-01-01T02:09:56.000Z</time>
      </trkpt>
      <trkpt lat="45.88567" lon="2.99689">
        <ele>796.3</ele>
        <time>1970-01-01T02:09:57.000Z</time>
      </trkpt>
      <trkpt lat="45.88564" lon="2.99684">
        <ele>796.2</ele>
        <time>1970-01-01T02:09:58.000Z</time>
      </trkpt>
      <trkpt lat="45.88562" lon="2.99681">
        <ele>796.2</ele>
        <time>1970-01-01T02:09:59.000Z</time>
      </trkpt>
      <trkpt lat="45.88561" lon="2.99675">
        <ele>796.1</ele>
        <time>1970-01-01T02:10:01.000Z</time>
      </trkpt>
      <trkpt lat="45.8856" lon="2.99668">
        <ele>796</ele>
        <time>1970-01-01T02:10:02.000Z</time>
      </trkpt>
      <trkpt lat="45.88558" lon="2.99664">
        <ele>795.9</ele>
        <time>1970-01-01T02:10:03.000Z</time>
      </trkpt>
      <trkpt lat="45.88555" lon="2.99657">
        <ele>795.7</ele>
        <time>1970-01-01T02:10:05.000Z</time>
      </trkpt>
      <trkpt lat="45.88554" lon="2.99655">
        <ele>795.6</ele>
        <time>1970-01-01T02:10:06.000Z</time>
      </trkpt>
      <trkpt lat="45.88553" lon="2.99653">
        <ele>795.5</ele>
        <time>1970-01-01T02:10:07.000Z</time>
      </trkpt>
      <trkpt lat="45.88551" lon="2.99649">
        <ele>795.4</ele>
        <time>1970-01-01T02:10:08.000Z</time>
      </trkpt>
      <trkpt lat="45.88548" lon="2.99646">
        <ele>795.2</ele>
        <time>1970-01-01T02:10:09.000Z</time>
      </trkpt>
      <trkpt lat="45.88543" lon="2.99638">
        <ele>794.9</ele>
        <time>1970-01-01T02:10:11.000Z</time>
      </trkpt>
      <trkpt lat="45.88541" lon="2.99633">
        <ele>794.6</ele>
        <time>1970-01-01T02:10:12.000Z</time>
      </trkpt>
      <trkpt lat="45.88539" lon="2.99629">
        <ele>794.5</ele>
        <time>1970-01-01T02:10:13.000Z</time>
      </trkpt>
      <trkpt lat="45.88537" lon="2.99624">
        <ele>794.3</ele>
        <time>1970-01-01T02:10:14.000Z</time>
      </trkpt>
      <trkpt lat="45.88535" lon="2.99619">
        <ele>794</ele>
        <time>1970-01-01T02:10:15.000Z</time>
      </trkpt>
      <trkpt lat="45.88533" lon="2.99615">
        <ele>793.9</ele>
        <time>1970-01-01T02:10:16.000Z</time>
      </trkpt>
      <trkpt lat="45.8853" lon="2.99611">
        <ele>793.6</ele>
        <time>1970-01-01T02:10:17.000Z</time>
      </trkpt>
      <trkpt lat="45.88528" lon="2.99607">
        <ele>793.4</ele>
        <time>1970-01-01T02:10:18.000Z</time>
      </trkpt>
      <trkpt lat="45.88525" lon="2.99603">
        <ele>793.1</ele>
        <time>1970-01-01T02:10:19.000Z</time>
      </trkpt>
      <trkpt lat="45.88522" lon="2.99599">
        <ele>792.9</ele>
        <time>1970-01-01T02:10:20.000Z</time>
      </trkpt>
      <trkpt lat="45.88518" lon="2.9959">
        <ele>792.3</ele>
        <time>1970-01-01T02:10:21.000Z</time>
      </trkpt>
      <trkpt lat="45.88515" lon="2.99582">
        <ele>791.7</ele>
        <time>1970-01-01T02:10:23.000Z</time>
      </trkpt>
      <trkpt lat="45.88512" lon="2.99575">
        <ele>791.3</ele>
        <time>1970-01-01T02:10:24.000Z</time>
      </trkpt>
      <trkpt lat="45.88509" lon="2.99569">
        <ele>790.8</ele>
        <time>1970-01-01T02:10:25.000Z</time>
      </trkpt>
      <trkpt lat="45.88505" lon="2.99562">
        <ele>790.3</ele>
        <time>1970-01-01T02:10:26.000Z</time>
      </trkpt>
      <trkpt lat="45.88501" lon="2.99555">
        <ele>789.8</ele>
        <time>1970-01-01T02:10:27.000Z</time>
      </trkpt>
      <trkpt lat="45.88496" lon="2.99549">
        <ele>789.3</ele>
        <time>1970-01-01T02:10:28.000Z</time>
      </trkpt>
      <trkpt lat="45.88491" lon="2.99542">
        <ele>788.8</ele>
        <time>1970-01-01T02:10:29.000Z</time>
      </trkpt>
      <trkpt lat="45.88486" lon="2.99535">
        <ele>788.3</ele>
        <time>1970-01-01T02:10:30.000Z</time>
      </trkpt>
      <trkpt lat="45.88481" lon="2.99528">
        <ele>787.9</ele>
        <time>1970-01-01T02:10:31.000Z</time>
      </trkpt>
      <trkpt lat="45.88476" lon="2.99521">
        <ele>787.5</ele>
        <time>1970-01-01T02:10:32.000Z</time>
      </trkpt>
      <trkpt lat="45.88472" lon="2.99514">
        <ele>787.1</ele>
        <time>1970-01-01T02:10:33.000Z</time>
      </trkpt>
      <trkpt lat="45.88467" lon="2.99508">
        <ele>786.7</ele>
        <time>1970-01-01T02:10:34.000Z</time>
      </trkpt>
      <trkpt lat="45.88463" lon="2.99501">
        <ele>786.3</ele>
        <time>1970-01-01T02:10:35.000Z</time>
      </trkpt>
      <trkpt lat="45.88458" lon="2.99493">
        <ele>785.8</ele>
        <time>1970-01-01T02:10:36.000Z</time>
      </trkpt>
      <trkpt lat="45.88454" lon="2.99486">
        <ele>785.3</ele>
        <time>1970-01-01T02:10:37.000Z</time>
      </trkpt>
      <trkpt lat="45.88449" lon="2.99479">
        <ele>784.9</ele>
        <time>1970-01-01T02:10:38.000Z</time>
      </trkpt>
      <trkpt lat="45.88444" lon="2.99472">
        <ele>784.4</ele>
        <time>1970-01-01T02:10:39.000Z</time>
      </trkpt>
      <trkpt lat="45.8844" lon="2.99465">
        <ele>783.9</ele>
        <time>1970-01-01T02:10:40.000Z</time>
      </trkpt>
      <trkpt lat="45.88435" lon="2.99459">
        <ele>783.3</ele>
        <time>1970-01-01T02:10:41.000Z</time>
      </trkpt>
      <trkpt lat="45.88431" lon="2.99452">
        <ele>782.6</ele>
        <time>1970-01-01T02:10:42.000Z</time>
      </trkpt>
      <trkpt lat="45.88426" lon="2.99445">
        <ele>781.9</ele>
        <time>1970-01-01T02:10:43.000Z</time>
      </trkpt>
      <trkpt lat="45.88421" lon="2.99438">
        <ele>781.2</ele>
        <time>1970-01-01T02:10:44.000Z</time>
      </trkpt>
      <trkpt lat="45.88417" lon="2.99432">
        <ele>780.5</ele>
        <time>1970-01-01T02:10:45.000Z</time>
      </trkpt>
      <trkpt lat="45.88413" lon="2.99424">
        <ele>779.8</ele>
        <time>1970-01-01T02:10:46.000Z</time>
      </trkpt>
      <trkpt lat="45.88409" lon="2.99417">
        <ele>779.3</ele>
        <time>1970-01-01T02:10:47.000Z</time>
      </trkpt>
      <trkpt lat="45.88406" lon="2.99409">
        <ele>778.7</ele>
        <time>1970-01-01T02:10:48.000Z</time>
      </trkpt>
      <trkpt lat="45.88404" lon="2.99401">
        <ele>778.2</ele>
        <time>1970-01-01T02:10:49.000Z</time>
      </trkpt>
      <trkpt lat="45.88402" lon="2.99394">
        <ele>777.7</ele>
        <time>1970-01-01T02:10:50.000Z</time>
      </trkpt>
      <trkpt lat="45.884" lon="2.99386">
        <ele>777.1</ele>
        <time>1970-01-01T02:10:51.000Z</time>
      </trkpt>
      <trkpt lat="45.88398" lon="2.99377">
        <ele>776.4</ele>
        <time>1970-01-01T02:10:52.000Z</time>
      </trkpt>
      <trkpt lat="45.88396" lon="2.99368">
        <ele>775.6</ele>
        <time>1970-01-01T02:10:53.000Z</time>
      </trkpt>
      <trkpt lat="45.88394" lon="2.99359">
        <ele>774.8</ele>
        <time>1970-01-01T02:10:54.000Z</time>
      </trkpt>
      <trkpt lat="45.88393" lon="2.99349">
        <ele>774</ele>
        <time>1970-01-01T02:10:55.000Z</time>
      </trkpt>
      <trkpt lat="45.88391" lon="2.99337">
        <ele>773</ele>
        <time>1970-01-01T02:10:56.000Z</time>
      </trkpt>
      <trkpt lat="45.88389" lon="2.99325">
        <ele>772</ele>
        <time>1970-01-01T02:10:57.000Z</time>
      </trkpt>
      <trkpt lat="45.88387" lon="2.99315">
        <ele>771.2</ele>
        <time>1970-01-01T02:10:58.000Z</time>
      </trkpt>
      <trkpt lat="45.88384" lon="2.99304">
        <ele>770.4</ele>
        <time>1970-01-01T02:10:59.000Z</time>
      </trkpt>
      <trkpt lat="45.88381" lon="2.99293">
        <ele>769.6</ele>
        <time>1970-01-01T02:11:00.000Z</time>
      </trkpt>
      <trkpt lat="45.88378" lon="2.99283">
        <ele>768.9</ele>
        <time>1970-01-01T02:11:01.000Z</time>
      </trkpt>
      <trkpt lat="45.88375" lon="2.99274">
        <ele>768.3</ele>
        <time>1970-01-01T02:11:02.000Z</time>
      </trkpt>
      <trkpt lat="45.88371" lon="2.99266">
        <ele>767.7</ele>
        <time>1970-01-01T02:11:03.000Z</time>
      </trkpt>
      <trkpt lat="45.88366" lon="2.99258">
        <ele>767</ele>
        <time>1970-01-01T02:11:04.000Z</time>
      </trkpt>
      <trkpt lat="45.88362" lon="2.9925">
        <ele>766.2</ele>
        <time>1970-01-01T02:11:05.000Z</time>
      </trkpt>
      <trkpt lat="45.88357" lon="2.99242">
        <ele>765.4</ele>
        <time>1970-01-01T02:11:06.000Z</time>
      </trkpt>
      <trkpt lat="45.88352" lon="2.99235">
        <ele>764.7</ele>
        <time>1970-01-01T02:11:07.000Z</time>
      </trkpt>
      <trkpt lat="45.88347" lon="2.99229">
        <ele>764.1</ele>
        <time>1970-01-01T02:11:08.000Z</time>
      </trkpt>
      <trkpt lat="45.88342" lon="2.99222">
        <ele>763.4</ele>
        <time>1970-01-01T02:11:09.000Z</time>
      </trkpt>
      <trkpt lat="45.88337" lon="2.99214">
        <ele>762.8</ele>
        <time>1970-01-01T02:11:10.000Z</time>
      </trkpt>
      <trkpt lat="45.88333" lon="2.99205">
        <ele>762.3</ele>
        <time>1970-01-01T02:11:11.000Z</time>
      </trkpt>
      <trkpt lat="45.8833" lon="2.99196">
        <ele>761.8</ele>
        <time>1970-01-01T02:11:12.000Z</time>
      </trkpt>
      <trkpt lat="45.88327" lon="2.99187">
        <ele>761.4</ele>
        <time>1970-01-01T02:11:13.000Z</time>
      </trkpt>
      <trkpt lat="45.88323" lon="2.99179">
        <ele>761</ele>
        <time>1970-01-01T02:11:14.000Z</time>
      </trkpt>
      <trkpt lat="45.88317" lon="2.99172">
        <ele>760.6</ele>
        <time>1970-01-01T02:11:15.000Z</time>
      </trkpt>
      <trkpt lat="45.88311" lon="2.99167">
        <ele>760.3</ele>
        <time>1970-01-01T02:11:16.000Z</time>
      </trkpt>
      <trkpt lat="45.88304" lon="2.99163">
        <ele>760</ele>
        <time>1970-01-01T02:11:17.000Z</time>
      </trkpt>
      <trkpt lat="45.88297" lon="2.99159">
        <ele>759.8</ele>
        <time>1970-01-01T02:11:18.000Z</time>
      </trkpt>
      <trkpt lat="45.88291" lon="2.99154">
        <ele>759.7</ele>
        <time>1970-01-01T02:11:19.000Z</time>
      </trkpt>
      <trkpt lat="45.88284" lon="2.99149">
        <ele>759.7</ele>
        <time>1970-01-01T02:11:20.000Z</time>
      </trkpt>
      <trkpt lat="45.88277" lon="2.99146">
        <ele>759.8</ele>
        <time>1970-01-01T02:11:21.000Z</time>
      </trkpt>
      <trkpt lat="45.8827" lon="2.99145">
        <ele>760</ele>
        <time>1970-01-01T02:11:22.000Z</time>
      </trkpt>
      <trkpt lat="45.88264" lon="2.99145">
        <ele>760.3</ele>
        <time>1970-01-01T02:11:23.000Z</time>
      </trkpt>
      <trkpt lat="45.88258" lon="2.99147">
        <ele>760.7</ele>
        <time>1970-01-01T02:11:24.000Z</time>
      </trkpt>
      <trkpt lat="45.88254" lon="2.9915">
        <ele>761.2</ele>
        <time>1970-01-01T02:11:25.000Z</time>
      </trkpt>
      <trkpt lat="45.88249" lon="2.99152">
        <ele>761.6</ele>
        <time>1970-01-01T02:11:26.000Z</time>
      </trkpt>
      <trkpt lat="45.88245" lon="2.99154">
        <ele>762</ele>
        <time>1970-01-01T02:11:27.000Z</time>
      </trkpt>
      <trkpt lat="45.88243" lon="2.99155">
        <ele>762.3</ele>
        <time>1970-01-01T02:11:28.000Z</time>
      </trkpt>
      <trkpt lat="45.8824" lon="2.99157">
        <ele>762.6</ele>
        <time>1970-01-01T02:11:29.000Z</time>
      </trkpt>
      <trkpt lat="45.88238" lon="2.9916">
        <ele>762.9</ele>
        <time>1970-01-01T02:11:30.000Z</time>
      </trkpt>
      <trkpt lat="45.88234" lon="2.99163">
        <ele>763.3</ele>
        <time>1970-01-01T02:11:31.000Z</time>
      </trkpt>
      <trkpt lat="45.88233" lon="2.99164">
        <ele>763.4</ele>
        <time>1970-01-01T02:11:32.000Z</time>
      </trkpt>
      <trkpt lat="45.8823" lon="2.99165">
        <ele>763.6</ele>
        <time>1970-01-01T02:11:33.000Z</time>
      </trkpt>
      <trkpt lat="45.88229" lon="2.99166">
        <ele>763.7</ele>
        <time>1970-01-01T02:11:34.000Z</time>
      </trkpt>
      <trkpt lat="45.88225" lon="2.99166">
        <ele>763.8</ele>
        <time>1970-01-01T02:11:35.000Z</time>
      </trkpt>
      <trkpt lat="45.88225" lon="2.99167">
        <ele>763.9</ele>
        <time>1970-01-01T02:11:36.000Z</time>
      </trkpt>
      <trkpt lat="45.88223" lon="2.99167">
        <ele>763.9</ele>
        <time>1970-01-01T02:11:37.000Z</time>
      </trkpt>
      <trkpt lat="45.88222" lon="2.99169">
        <ele>764</ele>
        <time>1970-01-01T02:11:38.000Z</time>
      </trkpt>
      <trkpt lat="45.88221" lon="2.99172">
        <ele>764.1</ele>
        <time>1970-01-01T02:11:39.000Z</time>
      </trkpt>
      <trkpt lat="45.88221" lon="2.99174">
        <ele>764</ele>
        <time>1970-01-01T02:11:40.000Z</time>
      </trkpt>
      <trkpt lat="45.8822" lon="2.99177">
        <ele>763.9</ele>
        <time>1970-01-01T02:11:41.000Z</time>
      </trkpt>
      <trkpt lat="45.88219" lon="2.99179">
        <ele>763.9</ele>
        <time>1970-01-01T02:11:42.000Z</time>
      </trkpt>
      <trkpt lat="45.88219" lon="2.9918">
        <ele>763.8</ele>
        <time>1970-01-01T02:11:43.000Z</time>
      </trkpt>
      <trkpt lat="45.88218" lon="2.99182">
        <ele>763.8</ele>
        <time>1970-01-01T02:11:44.000Z</time>
      </trkpt>
      <trkpt lat="45.88217" lon="2.99183">
        <ele>763.7</ele>
        <time>1970-01-01T02:11:45.000Z</time>
      </trkpt>
      <trkpt lat="45.88217" lon="2.99183">
        <ele>763.7</ele>
        <time>1970-01-01T02:11:46.000Z</time>
      </trkpt>
      <trkpt lat="45.88217" lon="2.99183">
        <ele>763.7</ele>
        <time>1970-01-01T02:11:47.000Z</time>
      </trkpt>
      <trkpt lat="45.88217" lon="2.99184">
        <ele>763.7</ele>
        <time>1970-01-01T02:11:48.000Z</time>
      </trkpt>
      <trkpt lat="45.88217" lon="2.99185">
        <ele>763.7</ele>
        <time>1970-01-01T02:11:49.000Z</time>
      </trkpt>
      <trkpt lat="45.88217" lon="2.99186">
        <ele>763.6</ele>
        <time>1970-01-01T02:11:50.000Z</time>
      </trkpt>
      <trkpt lat="45.88216" lon="2.99187">
        <ele>763.6</ele>
        <time>1970-01-01T02:11:51.000Z</time>
      </trkpt>
      <trkpt lat="45.88216" lon="2.99188">
        <ele>763.5</ele>
        <time>1970-01-01T02:11:52.000Z</time>
      </trkpt>
      <trkpt lat="45.88216" lon="2.99189">
        <ele>763.5</ele>
        <time>1970-01-01T02:11:53.000Z</time>
      </trkpt>
      <trkpt lat="45.88215" lon="2.9919">
        <ele>763.5</ele>
        <time>1970-01-01T02:11:54.000Z</time>
      </trkpt>
      <trkpt lat="45.88215" lon="2.99191">
        <ele>763.4</ele>
        <time>1970-01-01T02:11:55.000Z</time>
      </trkpt>
      <trkpt lat="45.88215" lon="2.99192">
        <ele>763.4</ele>
        <time>1970-01-01T02:11:56.000Z</time>
      </trkpt>
      <trkpt lat="45.88214" lon="2.99193">
        <ele>763.3</ele>
        <time>1970-01-01T02:11:57.000Z</time>
      </trkpt>
      <trkpt lat="45.88214" lon="2.99194">
        <ele>763.3</ele>
        <time>1970-01-01T02:12:19.000Z</time>
      </trkpt>
      <trkpt lat="45.88214" lon="2.99195">
        <ele>763.2</ele>
        <time>1970-01-01T02:12:20.000Z</time>
      </trkpt>
      <trkpt lat="45.88213" lon="2.99196">
        <ele>763.2</ele>
        <time>1970-01-01T02:12:21.000Z</time>
      </trkpt>
      <trkpt lat="45.88212" lon="2.992">
        <ele>763</ele>
        <time>1970-01-01T02:12:22.000Z</time>
      </trkpt>
      <trkpt lat="45.88208" lon="2.99208">
        <ele>762.5</ele>
        <time>1970-01-01T02:12:23.000Z</time>
      </trkpt>
      <trkpt lat="45.88205" lon="2.99215">
        <ele>762.1</ele>
        <time>1970-01-01T02:12:25.000Z</time>
      </trkpt>
      <trkpt lat="45.88202" lon="2.99222">
        <ele>761.6</ele>
        <time>1970-01-01T02:12:26.000Z</time>
      </trkpt>
      <trkpt lat="45.88199" lon="2.99229">
        <ele>761.2</ele>
        <time>1970-01-01T02:12:27.000Z</time>
      </trkpt>
      <trkpt lat="45.88196" lon="2.99235">
        <ele>760.8</ele>
        <time>1970-01-01T02:12:28.000Z</time>
      </trkpt>
      <trkpt lat="45.88192" lon="2.99241">
        <ele>760.4</ele>
        <time>1970-01-01T02:12:29.000Z</time>
      </trkpt>
      <trkpt lat="45.88188" lon="2.99247">
        <ele>759.9</ele>
        <time>1970-01-01T02:12:30.000Z</time>
      </trkpt>
      <trkpt lat="45.88182" lon="2.99252">
        <ele>759.6</ele>
        <time>1970-01-01T02:12:31.000Z</time>
      </trkpt>
      <trkpt lat="45.88175" lon="2.99256">
        <ele>759.2</ele>
        <time>1970-01-01T02:12:32.000Z</time>
      </trkpt>
      <trkpt lat="45.88169" lon="2.9926">
        <ele>759</ele>
        <time>1970-01-01T02:12:33.000Z</time>
      </trkpt>
      <trkpt lat="45.88162" lon="2.99265">
        <ele>758.8</ele>
        <time>1970-01-01T02:12:34.000Z</time>
      </trkpt>
      <trkpt lat="45.88156" lon="2.9927">
        <ele>758.6</ele>
        <time>1970-01-01T02:12:35.000Z</time>
      </trkpt>
      <trkpt lat="45.8815" lon="2.99275">
        <ele>758.5</ele>
        <time>1970-01-01T02:12:36.000Z</time>
      </trkpt>
      <trkpt lat="45.88146" lon="2.9928">
        <ele>758.4</ele>
        <time>1970-01-01T02:12:37.000Z</time>
      </trkpt>
      <trkpt lat="45.88142" lon="2.99285">
        <ele>758.2</ele>
        <time>1970-01-01T02:12:38.000Z</time>
      </trkpt>
      <trkpt lat="45.88138" lon="2.99291">
        <ele>758</ele>
        <time>1970-01-01T02:12:39.000Z</time>
      </trkpt>
      <trkpt lat="45.88134" lon="2.99298">
        <ele>757.7</ele>
        <time>1970-01-01T02:12:40.000Z</time>
      </trkpt>
      <trkpt lat="45.88131" lon="2.99305">
        <ele>757.3</ele>
        <time>1970-01-01T02:12:41.000Z</time>
      </trkpt>
      <trkpt lat="45.88128" lon="2.99312">
        <ele>757</ele>
        <time>1970-01-01T02:12:42.000Z</time>
      </trkpt>
      <trkpt lat="45.88126" lon="2.99321">
        <ele>756.6</ele>
        <time>1970-01-01T02:12:43.000Z</time>
      </trkpt>
      <trkpt lat="45.88124" lon="2.99332">
        <ele>756.3</ele>
        <time>1970-01-01T02:12:44.000Z</time>
      </trkpt>
      <trkpt lat="45.88122" lon="2.99342">
        <ele>756.1</ele>
        <time>1970-01-01T02:12:45.000Z</time>
      </trkpt>
      <trkpt lat="45.88119" lon="2.99352">
        <ele>756.1</ele>
        <time>1970-01-01T02:12:46.000Z</time>
      </trkpt>
      <trkpt lat="45.88116" lon="2.99361">
        <ele>756.1</ele>
        <time>1970-01-01T02:12:47.000Z</time>
      </trkpt>
      <trkpt lat="45.88113" lon="2.99368">
        <ele>756.1</ele>
        <time>1970-01-01T02:12:48.000Z</time>
      </trkpt>
      <trkpt lat="45.8811" lon="2.99375">
        <ele>756.1</ele>
        <time>1970-01-01T02:12:49.000Z</time>
      </trkpt>
      <trkpt lat="45.88108" lon="2.99382">
        <ele>756</ele>
        <time>1970-01-01T02:12:50.000Z</time>
      </trkpt>
      <trkpt lat="45.88106" lon="2.99389">
        <ele>755.9</ele>
        <time>1970-01-01T02:12:51.000Z</time>
      </trkpt>
      <trkpt lat="45.88105" lon="2.99396">
        <ele>755.7</ele>
        <time>1970-01-01T02:12:52.000Z</time>
      </trkpt>
      <trkpt lat="45.88104" lon="2.99404">
        <ele>755.5</ele>
        <time>1970-01-01T02:12:53.000Z</time>
      </trkpt>
      <trkpt lat="45.88103" lon="2.99411">
        <ele>755.3</ele>
        <time>1970-01-01T02:12:54.000Z</time>
      </trkpt>
      <trkpt lat="45.88102" lon="2.99418">
        <ele>755.1</ele>
        <time>1970-01-01T02:12:55.000Z</time>
      </trkpt>
      <trkpt lat="45.881" lon="2.99423">
        <ele>754.9</ele>
        <time>1970-01-01T02:12:56.000Z</time>
      </trkpt>
      <trkpt lat="45.88097" lon="2.99427">
        <ele>754.7</ele>
        <time>1970-01-01T02:12:57.000Z</time>
      </trkpt>
      <trkpt lat="45.88092" lon="2.99427">
        <ele>754.5</ele>
        <time>1970-01-01T02:12:58.000Z</time>
      </trkpt>
      <trkpt lat="45.88087" lon="2.99424">
        <ele>754.4</ele>
        <time>1970-01-01T02:12:59.000Z</time>
      </trkpt>
      <trkpt lat="45.88082" lon="2.9942">
        <ele>754.3</ele>
        <time>1970-01-01T02:13:00.000Z</time>
      </trkpt>
      <trkpt lat="45.88077" lon="2.99417">
        <ele>754.3</ele>
        <time>1970-01-01T02:13:01.000Z</time>
      </trkpt>
      <trkpt lat="45.88072" lon="2.99413">
        <ele>754.4</ele>
        <time>1970-01-01T02:13:02.000Z</time>
      </trkpt>
      <trkpt lat="45.88067" lon="2.9941">
        <ele>754.5</ele>
        <time>1970-01-01T02:13:03.000Z</time>
      </trkpt>
      <trkpt lat="45.88063" lon="2.99407">
        <ele>754.7</ele>
        <time>1970-01-01T02:13:04.000Z</time>
      </trkpt>
      <trkpt lat="45.88059" lon="2.99404">
        <ele>754.9</ele>
        <time>1970-01-01T02:13:05.000Z</time>
      </trkpt>
      <trkpt lat="45.88055" lon="2.99402">
        <ele>755.1</ele>
        <time>1970-01-01T02:13:06.000Z</time>
      </trkpt>
      <trkpt lat="45.8805" lon="2.994">
        <ele>755.4</ele>
        <time>1970-01-01T02:13:07.000Z</time>
      </trkpt>
      <trkpt lat="45.88043" lon="2.99397">
        <ele>755.9</ele>
        <time>1970-01-01T02:13:09.000Z</time>
      </trkpt>
      <trkpt lat="45.88039" lon="2.99394">
        <ele>756.1</ele>
        <time>1970-01-01T02:13:10.000Z</time>
      </trkpt>
      <trkpt lat="45.88036" lon="2.99392">
        <ele>756.3</ele>
        <time>1970-01-01T02:13:11.000Z</time>
      </trkpt>
      <trkpt lat="45.88031" lon="2.9939">
        <ele>756.6</ele>
        <time>1970-01-01T02:13:12.000Z</time>
      </trkpt>
      <trkpt lat="45.88029" lon="2.99388">
        <ele>756.7</ele>
        <time>1970-01-01T02:13:13.000Z</time>
      </trkpt>
      <trkpt lat="45.88025" lon="2.99385">
        <ele>757</ele>
        <time>1970-01-01T02:13:15.000Z</time>
      </trkpt>
      <trkpt lat="45.88022" lon="2.99383">
        <ele>757.2</ele>
        <time>1970-01-01T02:13:16.000Z</time>
      </trkpt>
      <trkpt lat="45.88017" lon="2.9938">
        <ele>757.6</ele>
        <time>1970-01-01T02:13:18.000Z</time>
      </trkpt>
      <trkpt lat="45.88014" lon="2.99378">
        <ele>757.8</ele>
        <time>1970-01-01T02:13:19.000Z</time>
      </trkpt>
      <trkpt lat="45.88011" lon="2.99376">
        <ele>758</ele>
        <time>1970-01-01T02:13:20.000Z</time>
      </trkpt>
      <trkpt lat="45.88008" lon="2.99375">
        <ele>758.1</ele>
        <time>1970-01-01T02:13:21.000Z</time>
      </trkpt>
      <trkpt lat="45.88005" lon="2.99374">
        <ele>758.3</ele>
        <time>1970-01-01T02:13:22.000Z</time>
      </trkpt>
      <trkpt lat="45.88" lon="2.99374">
        <ele>758.6</ele>
        <time>1970-01-01T02:13:23.000Z</time>
      </trkpt>
      <trkpt lat="45.87997" lon="2.99375">
        <ele>758.8</ele>
        <time>1970-01-01T02:13:24.000Z</time>
      </trkpt>
      <trkpt lat="45.87993" lon="2.99375">
        <ele>759</ele>
        <time>1970-01-01T02:13:25.000Z</time>
      </trkpt>
      <trkpt lat="45.87989" lon="2.99376">
        <ele>759.2</ele>
        <time>1970-01-01T02:13:27.000Z</time>
      </trkpt>
      <trkpt lat="45.87986" lon="2.99376">
        <ele>759.3</ele>
        <time>1970-01-01T02:13:28.000Z</time>
      </trkpt>
      <trkpt lat="45.87983" lon="2.99376">
        <ele>759.4</ele>
        <time>1970-01-01T02:13:29.000Z</time>
      </trkpt>
      <trkpt lat="45.87978" lon="2.99377">
        <ele>759.6</ele>
        <time>1970-01-01T02:13:31.000Z</time>
      </trkpt>
      <trkpt lat="45.87974" lon="2.99378">
        <ele>759.7</ele>
        <time>1970-01-01T02:13:32.000Z</time>
      </trkpt>
      <trkpt lat="45.87972" lon="2.99378">
        <ele>759.7</ele>
        <time>1970-01-01T02:13:33.000Z</time>
      </trkpt>
      <trkpt lat="45.87969" lon="2.99378">
        <ele>759.7</ele>
        <time>1970-01-01T02:13:34.000Z</time>
      </trkpt>
      <trkpt lat="45.87968" lon="2.99378">
        <ele>759.7</ele>
        <time>1970-01-01T02:13:35.000Z</time>
      </trkpt>
      <trkpt lat="45.87965" lon="2.99378">
        <ele>759.7</ele>
        <time>1970-01-01T02:13:36.000Z</time>
      </trkpt>
      <trkpt lat="45.87961" lon="2.99378">
        <ele>759.7</ele>
        <time>1970-01-01T02:13:37.000Z</time>
      </trkpt>
      <trkpt lat="45.8796" lon="2.99379">
        <ele>759.7</ele>
        <time>1970-01-01T02:13:38.000Z</time>
      </trkpt>
      <trkpt lat="45.87956" lon="2.99379">
        <ele>759.6</ele>
        <time>1970-01-01T02:13:39.000Z</time>
      </trkpt>
      <trkpt lat="45.87954" lon="2.9938">
        <ele>759.6</ele>
        <time>1970-01-01T02:13:40.000Z</time>
      </trkpt>
      <trkpt lat="45.87951" lon="2.99379">
        <ele>759.5</ele>
        <time>1970-01-01T02:13:41.000Z</time>
      </trkpt>
      <trkpt lat="45.87948" lon="2.99379">
        <ele>759.5</ele>
        <time>1970-01-01T02:13:42.000Z</time>
      </trkpt>
      <trkpt lat="45.87945" lon="2.9938">
        <ele>759.5</ele>
        <time>1970-01-01T02:13:43.000Z</time>
      </trkpt>
      <trkpt lat="45.87942" lon="2.9938">
        <ele>759.4</ele>
        <time>1970-01-01T02:13:44.000Z</time>
      </trkpt>
      <trkpt lat="45.87939" lon="2.9938">
        <ele>759.3</ele>
        <time>1970-01-01T02:13:45.000Z</time>
      </trkpt>
      <trkpt lat="45.87935" lon="2.9938">
        <ele>759.3</ele>
        <time>1970-01-01T02:13:46.000Z</time>
      </trkpt>
      <trkpt lat="45.87932" lon="2.99378">
        <ele>759.3</ele>
        <time>1970-01-01T02:13:47.000Z</time>
      </trkpt>
      <trkpt lat="45.8793" lon="2.99378">
        <ele>759.2</ele>
        <time>1970-01-01T02:13:48.000Z</time>
      </trkpt>
      <trkpt lat="45.87926" lon="2.99378">
        <ele>759.2</ele>
        <time>1970-01-01T02:13:49.000Z</time>
      </trkpt>
      <trkpt lat="45.87925" lon="2.99378">
        <ele>759.2</ele>
        <time>1970-01-01T02:13:50.000Z</time>
      </trkpt>
      <trkpt lat="45.87924" lon="2.99379">
        <ele>759.3</ele>
        <time>1970-01-01T02:13:51.000Z</time>
      </trkpt>
      <trkpt lat="45.87922" lon="2.99379">
        <ele>759.4</ele>
        <time>1970-01-01T02:13:52.000Z</time>
      </trkpt>
      <trkpt lat="45.87918" lon="2.99378">
        <ele>759.5</ele>
        <time>1970-01-01T02:13:53.000Z</time>
      </trkpt>
      <trkpt lat="45.87917" lon="2.99378">
        <ele>759.6</ele>
        <time>1970-01-01T02:13:54.000Z</time>
      </trkpt>
      <trkpt lat="45.87914" lon="2.99376">
        <ele>759.7</ele>
        <time>1970-01-01T02:13:55.000Z</time>
      </trkpt>
      <trkpt lat="45.87909" lon="2.99371">
        <ele>759.9</ele>
        <time>1970-01-01T02:13:56.000Z</time>
      </trkpt>
      <trkpt lat="45.87905" lon="2.99367">
        <ele>760.1</ele>
        <time>1970-01-01T02:13:58.000Z</time>
      </trkpt>
      <trkpt lat="45.87902" lon="2.99365">
        <ele>760.3</ele>
        <time>1970-01-01T02:13:59.000Z</time>
      </trkpt>
      <trkpt lat="45.87898" lon="2.99361">
        <ele>760.4</ele>
        <time>1970-01-01T02:14:00.000Z</time>
      </trkpt>
      <trkpt lat="45.87895" lon="2.99359">
        <ele>760.6</ele>
        <time>1970-01-01T02:14:01.000Z</time>
      </trkpt>
      <trkpt lat="45.87891" lon="2.99356">
        <ele>760.7</ele>
        <time>1970-01-01T02:14:02.000Z</time>
      </trkpt>
      <trkpt lat="45.87888" lon="2.99353">
        <ele>760.7</ele>
        <time>1970-01-01T02:14:04.000Z</time>
      </trkpt>
      <trkpt lat="45.87884" lon="2.99349">
        <ele>760.8</ele>
        <time>1970-01-01T02:14:05.000Z</time>
      </trkpt>
      <trkpt lat="45.87879" lon="2.99344">
        <ele>760.9</ele>
        <time>1970-01-01T02:14:07.000Z</time>
      </trkpt>
      <trkpt lat="45.87876" lon="2.9934">
        <ele>760.9</ele>
        <time>1970-01-01T02:14:08.000Z</time>
      </trkpt>
      <trkpt lat="45.87873" lon="2.99337">
        <ele>761</ele>
        <time>1970-01-01T02:14:09.000Z</time>
      </trkpt>
      <trkpt lat="45.87871" lon="2.99334">
        <ele>761</ele>
        <time>1970-01-01T02:14:10.000Z</time>
      </trkpt>
      <trkpt lat="45.87868" lon="2.99328">
        <ele>761.1</ele>
        <time>1970-01-01T02:14:11.000Z</time>
      </trkpt>
      <trkpt lat="45.87864" lon="2.99323">
        <ele>761.1</ele>
        <time>1970-01-01T02:14:12.000Z</time>
      </trkpt>
      <trkpt lat="45.8786" lon="2.99318">
        <ele>761.2</ele>
        <time>1970-01-01T02:14:14.000Z</time>
      </trkpt>
      <trkpt lat="45.87858" lon="2.99314">
        <ele>761.2</ele>
        <time>1970-01-01T02:14:15.000Z</time>
      </trkpt>
      <trkpt lat="45.87855" lon="2.9931">
        <ele>761.2</ele>
        <time>1970-01-01T02:14:16.000Z</time>
      </trkpt>
      <trkpt lat="45.87852" lon="2.99306">
        <ele>761.3</ele>
        <time>1970-01-01T02:14:17.000Z</time>
      </trkpt>
      <trkpt lat="45.8785" lon="2.99302">
        <ele>761.3</ele>
        <time>1970-01-01T02:14:18.000Z</time>
      </trkpt>
      <trkpt lat="45.87847" lon="2.99298">
        <ele>761.3</ele>
        <time>1970-01-01T02:14:19.000Z</time>
      </trkpt>
      <trkpt lat="45.87845" lon="2.99292">
        <ele>761.3</ele>
        <time>1970-01-01T02:14:20.000Z</time>
      </trkpt>
      <trkpt lat="45.87843" lon="2.99287">
        <ele>761.2</ele>
        <time>1970-01-01T02:14:21.000Z</time>
      </trkpt>
      <trkpt lat="45.87841" lon="2.99283">
        <ele>761.2</ele>
        <time>1970-01-01T02:14:22.000Z</time>
      </trkpt>
      <trkpt lat="45.87838" lon="2.99278">
        <ele>761.2</ele>
        <time>1970-01-01T02:14:23.000Z</time>
      </trkpt>
      <trkpt lat="45.87835" lon="2.99272">
        <ele>761.2</ele>
        <time>1970-01-01T02:14:24.000Z</time>
      </trkpt>
      <trkpt lat="45.87833" lon="2.99267">
        <ele>761.2</ele>
        <time>1970-01-01T02:14:25.000Z</time>
      </trkpt>
      <trkpt lat="45.87831" lon="2.99262">
        <ele>761.2</ele>
        <time>1970-01-01T02:14:26.000Z</time>
      </trkpt>
      <trkpt lat="45.87828" lon="2.99257">
        <ele>761.2</ele>
        <time>1970-01-01T02:14:27.000Z</time>
      </trkpt>
      <trkpt lat="45.87825" lon="2.99252">
        <ele>761.2</ele>
        <time>1970-01-01T02:14:28.000Z</time>
      </trkpt>
      <trkpt lat="45.87821" lon="2.99247">
        <ele>761.2</ele>
        <time>1970-01-01T02:14:29.000Z</time>
      </trkpt>
      <trkpt lat="45.87818" lon="2.99241">
        <ele>761.1</ele>
        <time>1970-01-01T02:14:30.000Z</time>
      </trkpt>
      <trkpt lat="45.87814" lon="2.99235">
        <ele>761.1</ele>
        <time>1970-01-01T02:14:32.000Z</time>
      </trkpt>
      <trkpt lat="45.87811" lon="2.9923">
        <ele>761.1</ele>
        <time>1970-01-01T02:14:33.000Z</time>
      </trkpt>
      <trkpt lat="45.8781" lon="2.99225">
        <ele>761.1</ele>
        <time>1970-01-01T02:14:34.000Z</time>
      </trkpt>
      <trkpt lat="45.87807" lon="2.9922">
        <ele>761.1</ele>
        <time>1970-01-01T02:14:35.000Z</time>
      </trkpt>
      <trkpt lat="45.87803" lon="2.99214">
        <ele>761.1</ele>
        <time>1970-01-01T02:14:36.000Z</time>
      </trkpt>
      <trkpt lat="45.878" lon="2.99207">
        <ele>761</ele>
        <time>1970-01-01T02:14:37.000Z</time>
      </trkpt>
      <trkpt lat="45.87798" lon="2.99202">
        <ele>761</ele>
        <time>1970-01-01T02:14:38.000Z</time>
      </trkpt>
      <trkpt lat="45.87795" lon="2.99197">
        <ele>761</ele>
        <time>1970-01-01T02:14:39.000Z</time>
      </trkpt>
      <trkpt lat="45.87792" lon="2.99194">
        <ele>761</ele>
        <time>1970-01-01T02:14:40.000Z</time>
      </trkpt>
      <trkpt lat="45.87788" lon="2.99189">
        <ele>761</ele>
        <time>1970-01-01T02:14:42.000Z</time>
      </trkpt>
      <trkpt lat="45.87786" lon="2.99182">
        <ele>761</ele>
        <time>1970-01-01T02:14:43.000Z</time>
      </trkpt>
      <trkpt lat="45.87782" lon="2.99178">
        <ele>761.1</ele>
        <time>1970-01-01T02:14:44.000Z</time>
      </trkpt>
      <trkpt lat="45.87778" lon="2.99171">
        <ele>761.1</ele>
        <time>1970-01-01T02:14:45.000Z</time>
      </trkpt>
      <trkpt lat="45.87774" lon="2.99166">
        <ele>761.1</ele>
        <time>1970-01-01T02:14:47.000Z</time>
      </trkpt>
      <trkpt lat="45.87772" lon="2.99161">
        <ele>761.1</ele>
        <time>1970-01-01T02:14:48.000Z</time>
      </trkpt>
      <trkpt lat="45.87768" lon="2.99155">
        <ele>761.2</ele>
        <time>1970-01-01T02:14:49.000Z</time>
      </trkpt>
      <trkpt lat="45.87765" lon="2.99147">
        <ele>761.2</ele>
        <time>1970-01-01T02:14:51.000Z</time>
      </trkpt>
      <trkpt lat="45.8776" lon="2.9914">
        <ele>761.2</ele>
        <time>1970-01-01T02:14:52.000Z</time>
      </trkpt>
      <trkpt lat="45.87756" lon="2.99135">
        <ele>761.3</ele>
        <time>1970-01-01T02:14:53.000Z</time>
      </trkpt>
      <trkpt lat="45.87752" lon="2.99128">
        <ele>761.3</ele>
        <time>1970-01-01T02:14:55.000Z</time>
      </trkpt>
      <trkpt lat="45.87749" lon="2.99121">
        <ele>761.4</ele>
        <time>1970-01-01T02:14:56.000Z</time>
      </trkpt>
      <trkpt lat="45.87746" lon="2.99116">
        <ele>761.4</ele>
        <time>1970-01-01T02:14:57.000Z</time>
      </trkpt>
      <trkpt lat="45.87744" lon="2.99111">
        <ele>761.5</ele>
        <time>1970-01-01T02:14:58.000Z</time>
      </trkpt>
      <trkpt lat="45.87741" lon="2.99106">
        <ele>761.5</ele>
        <time>1970-01-01T02:14:59.000Z</time>
      </trkpt>
      <trkpt lat="45.87738" lon="2.991">
        <ele>761.5</ele>
        <time>1970-01-01T02:15:00.000Z</time>
      </trkpt>
      <trkpt lat="45.87736" lon="2.99095">
        <ele>761.6</ele>
        <time>1970-01-01T02:15:01.000Z</time>
      </trkpt>
      <trkpt lat="45.87733" lon="2.99091">
        <ele>761.6</ele>
        <time>1970-01-01T02:15:02.000Z</time>
      </trkpt>
      <trkpt lat="45.87729" lon="2.9908">
        <ele>761.7</ele>
        <time>1970-01-01T02:15:04.000Z</time>
      </trkpt>
      <trkpt lat="45.87727" lon="2.99076">
        <ele>761.7</ele>
        <time>1970-01-01T02:15:05.000Z</time>
      </trkpt>
      <trkpt lat="45.87723" lon="2.99068">
        <ele>761.7</ele>
        <time>1970-01-01T02:15:06.000Z</time>
      </trkpt>
      <trkpt lat="45.87721" lon="2.99062">
        <ele>761.8</ele>
        <time>1970-01-01T02:15:07.000Z</time>
      </trkpt>
      <trkpt lat="45.87719" lon="2.99056">
        <ele>761.8</ele>
        <time>1970-01-01T02:15:08.000Z</time>
      </trkpt>
      <trkpt lat="45.87716" lon="2.9905">
        <ele>761.8</ele>
        <time>1970-01-01T02:15:09.000Z</time>
      </trkpt>
      <trkpt lat="45.87714" lon="2.99044">
        <ele>761.9</ele>
        <time>1970-01-01T02:15:10.000Z</time>
      </trkpt>
      <trkpt lat="45.87711" lon="2.99038">
        <ele>761.9</ele>
        <time>1970-01-01T02:15:11.000Z</time>
      </trkpt>
      <trkpt lat="45.87709" lon="2.99033">
        <ele>762</ele>
        <time>1970-01-01T02:15:12.000Z</time>
      </trkpt>
      <trkpt lat="45.87705" lon="2.99028">
        <ele>762</ele>
        <time>1970-01-01T02:15:13.000Z</time>
      </trkpt>
      <trkpt lat="45.87703" lon="2.99021">
        <ele>762.1</ele>
        <time>1970-01-01T02:15:14.000Z</time>
      </trkpt>
      <trkpt lat="45.877" lon="2.99011">
        <ele>762.1</ele>
        <time>1970-01-01T02:15:16.000Z</time>
      </trkpt>
      <trkpt lat="45.87698" lon="2.99005">
        <ele>762.2</ele>
        <time>1970-01-01T02:15:17.000Z</time>
      </trkpt>
      <trkpt lat="45.87695" lon="2.99002">
        <ele>762.2</ele>
        <time>1970-01-01T02:15:18.000Z</time>
      </trkpt>
      <trkpt lat="45.87691" lon="2.99003">
        <ele>762.3</ele>
        <time>1970-01-01T02:15:19.000Z</time>
      </trkpt>
      <trkpt lat="45.87688" lon="2.99008">
        <ele>762.1</ele>
        <time>1970-01-01T02:15:20.000Z</time>
      </trkpt>
      <trkpt lat="45.87686" lon="2.99015">
        <ele>762</ele>
        <time>1970-01-01T02:15:21.000Z</time>
      </trkpt>
      <trkpt lat="45.87686" lon="2.99021">
        <ele>762</ele>
        <time>1970-01-01T02:15:22.000Z</time>
      </trkpt>
      <trkpt lat="45.87684" lon="2.99026">
        <ele>761.9</ele>
        <time>1970-01-01T02:15:23.000Z</time>
      </trkpt>
      <trkpt lat="45.87681" lon="2.99036">
        <ele>761.8</ele>
        <time>1970-01-01T02:15:24.000Z</time>
      </trkpt>
      <trkpt lat="45.8768" lon="2.99042">
        <ele>761.8</ele>
        <time>1970-01-01T02:15:25.000Z</time>
      </trkpt>
      <trkpt lat="45.87678" lon="2.99049">
        <ele>761.7</ele>
        <time>1970-01-01T02:15:26.000Z</time>
      </trkpt>
      <trkpt lat="45.87676" lon="2.99055">
        <ele>761.7</ele>
        <time>1970-01-01T02:15:27.000Z</time>
      </trkpt>
      <trkpt lat="45.87675" lon="2.99062">
        <ele>761.6</ele>
        <time>1970-01-01T02:15:28.000Z</time>
      </trkpt>
      <trkpt lat="45.87673" lon="2.99068">
        <ele>761.6</ele>
        <time>1970-01-01T02:15:29.000Z</time>
      </trkpt>
      <trkpt lat="45.87672" lon="2.99074">
        <ele>761.6</ele>
        <time>1970-01-01T02:15:30.000Z</time>
      </trkpt>
      <trkpt lat="45.8767" lon="2.9908">
        <ele>761.6</ele>
        <time>1970-01-01T02:15:31.000Z</time>
      </trkpt>
      <trkpt lat="45.87668" lon="2.99087">
        <ele>761.6</ele>
        <time>1970-01-01T02:15:32.000Z</time>
      </trkpt>
      <trkpt lat="45.87667" lon="2.99093">
        <ele>761.6</ele>
        <time>1970-01-01T02:15:33.000Z</time>
      </trkpt>
      <trkpt lat="45.87665" lon="2.99099">
        <ele>761.6</ele>
        <time>1970-01-01T02:15:34.000Z</time>
      </trkpt>
      <trkpt lat="45.87664" lon="2.99106">
        <ele>761.6</ele>
        <time>1970-01-01T02:15:35.000Z</time>
      </trkpt>
      <trkpt lat="45.87662" lon="2.99112">
        <ele>761.6</ele>
        <time>1970-01-01T02:15:36.000Z</time>
      </trkpt>
      <trkpt lat="45.87661" lon="2.99119">
        <ele>761.6</ele>
        <time>1970-01-01T02:15:37.000Z</time>
      </trkpt>
      <trkpt lat="45.8766" lon="2.99125">
        <ele>761.7</ele>
        <time>1970-01-01T02:15:38.000Z</time>
      </trkpt>
      <trkpt lat="45.87659" lon="2.9913">
        <ele>761.7</ele>
        <time>1970-01-01T02:15:39.000Z</time>
      </trkpt>
      <trkpt lat="45.87658" lon="2.99135">
        <ele>761.7</ele>
        <time>1970-01-01T02:15:40.000Z</time>
      </trkpt>
      <trkpt lat="45.87656" lon="2.99138">
        <ele>761.7</ele>
        <time>1970-01-01T02:15:41.000Z</time>
      </trkpt>
      <trkpt lat="45.87656" lon="2.99139">
        <ele>761.8</ele>
        <time>1970-01-01T02:15:42.000Z</time>
      </trkpt>
      <trkpt lat="45.87656" lon="2.99141">
        <ele>761.8</ele>
        <time>1970-01-01T02:15:43.000Z</time>
      </trkpt>
      <trkpt lat="45.87657" lon="2.99143">
        <ele>761.9</ele>
        <time>1970-01-01T02:15:44.000Z</time>
      </trkpt>
      <trkpt lat="45.87658" lon="2.99143">
        <ele>761.9</ele>
        <time>1970-01-01T02:15:45.000Z</time>
      </trkpt>
      <trkpt lat="45.87658" lon="2.99143">
        <ele>761.9</ele>
        <time>1970-01-01T02:15:46.000Z</time>
      </trkpt>
      <trkpt lat="45.87659" lon="2.99143">
        <ele>761.9</ele>
        <time>1970-01-01T02:15:47.000Z</time>
      </trkpt>
      <trkpt lat="45.87659" lon="2.99142">
        <ele>762</ele>
        <time>1970-01-01T02:15:48.000Z</time>
      </trkpt>
      <trkpt lat="45.8766" lon="2.99142">
        <ele>762</ele>
        <time>1970-01-01T02:15:49.000Z</time>
      </trkpt>
      <trkpt lat="45.87661" lon="2.9914">
        <ele>762.1</ele>
        <time>1970-01-01T02:15:50.000Z</time>
      </trkpt>
      <trkpt lat="45.8766" lon="2.99137">
        <ele>762.2</ele>
        <time>1970-01-01T02:15:51.000Z</time>
      </trkpt>
      <trkpt lat="45.87656" lon="2.99134">
        <ele>762.3</ele>
        <time>1970-01-01T02:15:52.000Z</time>
      </trkpt>
      <trkpt lat="45.87653" lon="2.9913">
        <ele>762.5</ele>
        <time>1970-01-01T02:15:53.000Z</time>
      </trkpt>
      <trkpt lat="45.87651" lon="2.99129">
        <ele>762.6</ele>
        <time>1970-01-01T02:15:54.000Z</time>
      </trkpt>
      <trkpt lat="45.87648" lon="2.99126">
        <ele>762.7</ele>
        <time>1970-01-01T02:15:55.000Z</time>
      </trkpt>
      <trkpt lat="45.87646" lon="2.99123">
        <ele>762.9</ele>
        <time>1970-01-01T02:15:56.000Z</time>
      </trkpt>
      <trkpt lat="45.87645" lon="2.99121">
        <ele>763</ele>
        <time>1970-01-01T02:15:57.000Z</time>
      </trkpt>
      <trkpt lat="45.87643" lon="2.99116">
        <ele>763.2</ele>
        <time>1970-01-01T02:15:59.000Z</time>
      </trkpt>
      <trkpt lat="45.87641" lon="2.99113">
        <ele>763.5</ele>
        <time>1970-01-01T02:16:00.000Z</time>
      </trkpt>
      <trkpt lat="45.87638" lon="2.9911">
        <ele>763.7</ele>
        <time>1970-01-01T02:16:01.000Z</time>
      </trkpt>
      <trkpt lat="45.87635" lon="2.99106">
        <ele>764</ele>
        <time>1970-01-01T02:16:02.000Z</time>
      </trkpt>
      <trkpt lat="45.87634" lon="2.99105">
        <ele>764.2</ele>
        <time>1970-01-01T02:16:03.000Z</time>
      </trkpt>
      <trkpt lat="45.87632" lon="2.99103">
        <ele>764.4</ele>
        <time>1970-01-01T02:16:04.000Z</time>
      </trkpt>
      <trkpt lat="45.8763" lon="2.99101">
        <ele>764.6</ele>
        <time>1970-01-01T02:16:06.000Z</time>
      </trkpt>
      <trkpt lat="45.87628" lon="2.99098">
        <ele>764.9</ele>
        <time>1970-01-01T02:16:07.000Z</time>
      </trkpt>
      <trkpt lat="45.87628" lon="2.99097">
        <ele>765</ele>
        <time>1970-01-01T02:16:08.000Z</time>
      </trkpt>
      <trkpt lat="45.87625" lon="2.99094">
        <ele>765.3</ele>
        <time>1970-01-01T02:16:09.000Z</time>
      </trkpt>
      <trkpt lat="45.87625" lon="2.99094">
        <ele>765.4</ele>
        <time>1970-01-01T02:16:10.000Z</time>
      </trkpt>
      <trkpt lat="45.87623" lon="2.99091">
        <ele>765.7</ele>
        <time>1970-01-01T02:16:11.000Z</time>
      </trkpt>
      <trkpt lat="45.87622" lon="2.99089">
        <ele>765.9</ele>
        <time>1970-01-01T02:16:13.000Z</time>
      </trkpt>
      <trkpt lat="45.87621" lon="2.99087">
        <ele>766</ele>
        <time>1970-01-01T02:16:14.000Z</time>
      </trkpt>
      <trkpt lat="45.8762" lon="2.99086">
        <ele>766.2</ele>
        <time>1970-01-01T02:16:15.000Z</time>
      </trkpt>
      <trkpt lat="45.87619" lon="2.99085">
        <ele>766.3</ele>
        <time>1970-01-01T02:16:16.000Z</time>
      </trkpt>
      <trkpt lat="45.87618" lon="2.99082">
        <ele>766.6</ele>
        <time>1970-01-01T02:16:17.000Z</time>
      </trkpt>
      <trkpt lat="45.87617" lon="2.9908">
        <ele>766.7</ele>
        <time>1970-01-01T02:16:19.000Z</time>
      </trkpt>
      <trkpt lat="45.87615" lon="2.99078">
        <ele>767</ele>
        <time>1970-01-01T02:16:21.000Z</time>
      </trkpt>
      <trkpt lat="45.87614" lon="2.99077">
        <ele>767.2</ele>
        <time>1970-01-01T02:16:22.000Z</time>
      </trkpt>
      <trkpt lat="45.87613" lon="2.99075">
        <ele>767.4</ele>
        <time>1970-01-01T02:16:23.000Z</time>
      </trkpt>
      <trkpt lat="45.87612" lon="2.99073">
        <ele>767.5</ele>
        <time>1970-01-01T02:16:24.000Z</time>
      </trkpt>
      <trkpt lat="45.8761" lon="2.99073">
        <ele>767.7</ele>
        <time>1970-01-01T02:16:25.000Z</time>
      </trkpt>
      <trkpt lat="45.87608" lon="2.9907">
        <ele>767.9</ele>
        <time>1970-01-01T02:16:27.000Z</time>
      </trkpt>
      <trkpt lat="45.87607" lon="2.99069">
        <ele>768.1</ele>
        <time>1970-01-01T02:16:28.000Z</time>
      </trkpt>
      <trkpt lat="45.87606" lon="2.99065">
        <ele>768.3</ele>
        <time>1970-01-01T02:16:29.000Z</time>
      </trkpt>
      <trkpt lat="45.87606" lon="2.99064">
        <ele>768.4</ele>
        <time>1970-01-01T02:16:30.000Z</time>
      </trkpt>
      <trkpt lat="45.87605" lon="2.99059">
        <ele>768.7</ele>
        <time>1970-01-01T02:16:32.000Z</time>
      </trkpt>
      <trkpt lat="45.87604" lon="2.99058">
        <ele>768.8</ele>
        <time>1970-01-01T02:16:33.000Z</time>
      </trkpt>
      <trkpt lat="45.87604" lon="2.99053">
        <ele>769</ele>
        <time>1970-01-01T02:16:35.000Z</time>
      </trkpt>
      <trkpt lat="45.87603" lon="2.99052">
        <ele>769.1</ele>
        <time>1970-01-01T02:16:36.000Z</time>
      </trkpt>
      <trkpt lat="45.87603" lon="2.99048">
        <ele>769.3</ele>
        <time>1970-01-01T02:16:38.000Z</time>
      </trkpt>
      <trkpt lat="45.87602" lon="2.99046">
        <ele>769.3</ele>
        <time>1970-01-01T02:16:39.000Z</time>
      </trkpt>
      <trkpt lat="45.87602" lon="2.99045">
        <ele>769.4</ele>
        <time>1970-01-01T02:16:40.000Z</time>
      </trkpt>
      <trkpt lat="45.876" lon="2.99041">
        <ele>769.6</ele>
        <time>1970-01-01T02:16:41.000Z</time>
      </trkpt>
      <trkpt lat="45.87598" lon="2.99037">
        <ele>769.7</ele>
        <time>1970-01-01T02:16:43.000Z</time>
      </trkpt>
      <trkpt lat="45.87597" lon="2.99036">
        <ele>769.8</ele>
        <time>1970-01-01T02:16:44.000Z</time>
      </trkpt>
      <trkpt lat="45.87595" lon="2.99033">
        <ele>769.9</ele>
        <time>1970-01-01T02:16:45.000Z</time>
      </trkpt>
      <trkpt lat="45.87594" lon="2.99032">
        <ele>770</ele>
        <time>1970-01-01T02:16:46.000Z</time>
      </trkpt>
      <trkpt lat="45.87592" lon="2.99028">
        <ele>770.1</ele>
        <time>1970-01-01T02:16:47.000Z</time>
      </trkpt>
      <trkpt lat="45.87592" lon="2.99027">
        <ele>770.2</ele>
        <time>1970-01-01T02:16:48.000Z</time>
      </trkpt>
      <trkpt lat="45.87591" lon="2.99025">
        <ele>770.2</ele>
        <time>1970-01-01T02:16:49.000Z</time>
      </trkpt>
      <trkpt lat="45.8759" lon="2.99023">
        <ele>770.3</ele>
        <time>1970-01-01T02:16:50.000Z</time>
      </trkpt>
      <trkpt lat="45.87587" lon="2.99019">
        <ele>770.4</ele>
        <time>1970-01-01T02:16:51.000Z</time>
      </trkpt>
      <trkpt lat="45.87585" lon="2.99015">
        <ele>770.6</ele>
        <time>1970-01-01T02:16:53.000Z</time>
      </trkpt>
      <trkpt lat="45.87584" lon="2.99011">
        <ele>770.7</ele>
        <time>1970-01-01T02:16:54.000Z</time>
      </trkpt>
      <trkpt lat="45.87583" lon="2.99006">
        <ele>770.8</ele>
        <time>1970-01-01T02:16:55.000Z</time>
      </trkpt>
      <trkpt lat="45.87582" lon="2.99004">
        <ele>770.9</ele>
        <time>1970-01-01T02:16:56.000Z</time>
      </trkpt>
      <trkpt lat="45.8758" lon="2.99">
        <ele>771</ele>
        <time>1970-01-01T02:16:58.000Z</time>
      </trkpt>
      <trkpt lat="45.87579" lon="2.98999">
        <ele>771</ele>
        <time>1970-01-01T02:16:59.000Z</time>
      </trkpt>
      <trkpt lat="45.87577" lon="2.98995">
        <ele>771.1</ele>
        <time>1970-01-01T02:17:00.000Z</time>
      </trkpt>
      <trkpt lat="45.87576" lon="2.98994">
        <ele>771.2</ele>
        <time>1970-01-01T02:17:01.000Z</time>
      </trkpt>
      <trkpt lat="45.87574" lon="2.98991">
        <ele>771.3</ele>
        <time>1970-01-01T02:17:02.000Z</time>
      </trkpt>
      <trkpt lat="45.87572" lon="2.98988">
        <ele>771.4</ele>
        <time>1970-01-01T02:17:03.000Z</time>
      </trkpt>
      <trkpt lat="45.87568" lon="2.98986">
        <ele>771.5</ele>
        <time>1970-01-01T02:17:04.000Z</time>
      </trkpt>
      <trkpt lat="45.87565" lon="2.98985">
        <ele>771.6</ele>
        <time>1970-01-01T02:17:06.000Z</time>
      </trkpt>
      <trkpt lat="45.87562" lon="2.98983">
        <ele>771.7</ele>
        <time>1970-01-01T02:17:07.000Z</time>
      </trkpt>
      <trkpt lat="45.87558" lon="2.9898">
        <ele>771.8</ele>
        <time>1970-01-01T02:17:08.000Z</time>
      </trkpt>
      <trkpt lat="45.87557" lon="2.98979">
        <ele>771.9</ele>
        <time>1970-01-01T02:17:09.000Z</time>
      </trkpt>
      <trkpt lat="45.87554" lon="2.98978">
        <ele>772</ele>
        <time>1970-01-01T02:17:10.000Z</time>
      </trkpt>
      <trkpt lat="45.87552" lon="2.98977">
        <ele>772</ele>
        <time>1970-01-01T02:17:11.000Z</time>
      </trkpt>
      <trkpt lat="45.8755" lon="2.98975">
        <ele>772.1</ele>
        <time>1970-01-01T02:17:12.000Z</time>
      </trkpt>
      <trkpt lat="45.87548" lon="2.98971">
        <ele>772.2</ele>
        <time>1970-01-01T02:17:13.000Z</time>
      </trkpt>
      <trkpt lat="45.87547" lon="2.98969">
        <ele>772.3</ele>
        <time>1970-01-01T02:17:14.000Z</time>
      </trkpt>
      <trkpt lat="45.87546" lon="2.98967">
        <ele>772.3</ele>
        <time>1970-01-01T02:17:15.000Z</time>
      </trkpt>
      <trkpt lat="45.87545" lon="2.98965">
        <ele>772.4</ele>
        <time>1970-01-01T02:17:16.000Z</time>
      </trkpt>
      <trkpt lat="45.87543" lon="2.98961">
        <ele>772.4</ele>
        <time>1970-01-01T02:17:18.000Z</time>
      </trkpt>
      <trkpt lat="45.87543" lon="2.9896">
        <ele>772.4</ele>
        <time>1970-01-01T02:17:19.000Z</time>
      </trkpt>
      <trkpt lat="45.87541" lon="2.98956">
        <ele>772.5</ele>
        <time>1970-01-01T02:17:20.000Z</time>
      </trkpt>
      <trkpt lat="45.8754" lon="2.98955">
        <ele>772.5</ele>
        <time>1970-01-01T02:17:21.000Z</time>
      </trkpt>
      <trkpt lat="45.87538" lon="2.98952">
        <ele>772.5</ele>
        <time>1970-01-01T02:17:22.000Z</time>
      </trkpt>
      <trkpt lat="45.87535" lon="2.98948">
        <ele>772.5</ele>
        <time>1970-01-01T02:17:23.000Z</time>
      </trkpt>
      <trkpt lat="45.87531" lon="2.98945">
        <ele>772.6</ele>
        <time>1970-01-01T02:17:24.000Z</time>
      </trkpt>
      <trkpt lat="45.87528" lon="2.98943">
        <ele>772.6</ele>
        <time>1970-01-01T02:17:25.000Z</time>
      </trkpt>
      <trkpt lat="45.87523" lon="2.9894">
        <ele>772.6</ele>
        <time>1970-01-01T02:17:27.000Z</time>
      </trkpt>
      <trkpt lat="45.87518" lon="2.98938">
        <ele>772.6</ele>
        <time>1970-01-01T02:17:28.000Z</time>
      </trkpt>
      <trkpt lat="45.87514" lon="2.98937">
        <ele>772.6</ele>
        <time>1970-01-01T02:17:29.000Z</time>
      </trkpt>
      <trkpt lat="45.8751" lon="2.98937">
        <ele>772.6</ele>
        <time>1970-01-01T02:17:31.000Z</time>
      </trkpt>
      <trkpt lat="45.87506" lon="2.98937">
        <ele>772.6</ele>
        <time>1970-01-01T02:17:32.000Z</time>
      </trkpt>
      <trkpt lat="45.87504" lon="2.98938">
        <ele>772.6</ele>
        <time>1970-01-01T02:17:33.000Z</time>
      </trkpt>
      <trkpt lat="45.87498" lon="2.98942">
        <ele>772.5</ele>
        <time>1970-01-01T02:17:34.000Z</time>
      </trkpt>
      <trkpt lat="45.87495" lon="2.98946">
        <ele>772.5</ele>
        <time>1970-01-01T02:17:35.000Z</time>
      </trkpt>
      <trkpt lat="45.87491" lon="2.9895">
        <ele>772.5</ele>
        <time>1970-01-01T02:17:36.000Z</time>
      </trkpt>
      <trkpt lat="45.87486" lon="2.98952">
        <ele>772.5</ele>
        <time>1970-01-01T02:17:38.000Z</time>
      </trkpt>
      <trkpt lat="45.87479" lon="2.98955">
        <ele>772.5</ele>
        <time>1970-01-01T02:17:40.000Z</time>
      </trkpt>
      <trkpt lat="45.87475" lon="2.98956">
        <ele>772.5</ele>
        <time>1970-01-01T02:17:41.000Z</time>
      </trkpt>
      <trkpt lat="45.87469" lon="2.98958">
        <ele>772.6</ele>
        <time>1970-01-01T02:17:43.000Z</time>
      </trkpt>
      <trkpt lat="45.87465" lon="2.9896">
        <ele>772.7</ele>
        <time>1970-01-01T02:17:44.000Z</time>
      </trkpt>
      <trkpt lat="45.8746" lon="2.98962">
        <ele>772.8</ele>
        <time>1970-01-01T02:17:45.000Z</time>
      </trkpt>
      <trkpt lat="45.87455" lon="2.98965">
        <ele>773</ele>
        <time>1970-01-01T02:17:46.000Z</time>
      </trkpt>
      <trkpt lat="45.87452" lon="2.98967">
        <ele>773.3</ele>
        <time>1970-01-01T02:17:47.000Z</time>
      </trkpt>
      <trkpt lat="45.87448" lon="2.98969">
        <ele>773.6</ele>
        <time>1970-01-01T02:17:49.000Z</time>
      </trkpt>
      <trkpt lat="45.87444" lon="2.9897">
        <ele>773.9</ele>
        <time>1970-01-01T02:17:50.000Z</time>
      </trkpt>
      <trkpt lat="45.87443" lon="2.9897">
        <ele>773.9</ele>
        <time>1970-01-01T02:17:51.000Z</time>
      </trkpt>
      <trkpt lat="45.87439" lon="2.98971">
        <ele>774.1</ele>
        <time>1970-01-01T02:17:52.000Z</time>
      </trkpt>
      <trkpt lat="45.87438" lon="2.98972">
        <ele>774.2</ele>
        <time>1970-01-01T02:17:53.000Z</time>
      </trkpt>
      <trkpt lat="45.87436" lon="2.98973">
        <ele>774.4</ele>
        <time>1970-01-01T02:17:54.000Z</time>
      </trkpt>
      <trkpt lat="45.87434" lon="2.98974">
        <ele>774.4</ele>
        <time>1970-01-01T02:17:55.000Z</time>
      </trkpt>
      <trkpt lat="45.87432" lon="2.98976">
        <ele>774.6</ele>
        <time>1970-01-01T02:17:56.000Z</time>
      </trkpt>
      <trkpt lat="45.87428" lon="2.98978">
        <ele>774.8</ele>
        <time>1970-01-01T02:17:57.000Z</time>
      </trkpt>
      <trkpt lat="45.87427" lon="2.98979">
        <ele>774.8</ele>
        <time>1970-01-01T02:17:58.000Z</time>
      </trkpt>
      <trkpt lat="45.87422" lon="2.98983">
        <ele>775</ele>
        <time>1970-01-01T02:18:00.000Z</time>
      </trkpt>
      <trkpt lat="45.87421" lon="2.98985">
        <ele>775.1</ele>
        <time>1970-01-01T02:18:01.000Z</time>
      </trkpt>
      <trkpt lat="45.8742" lon="2.98986">
        <ele>775.1</ele>
        <time>1970-01-01T02:18:02.000Z</time>
      </trkpt>
      <trkpt lat="45.87417" lon="2.9899">
        <ele>775.2</ele>
        <time>1970-01-01T02:18:03.000Z</time>
      </trkpt>
      <trkpt lat="45.87415" lon="2.98995">
        <ele>775.3</ele>
        <time>1970-01-01T02:18:04.000Z</time>
      </trkpt>
      <trkpt lat="45.87412" lon="2.98998">
        <ele>775.4</ele>
        <time>1970-01-01T02:18:05.000Z</time>
      </trkpt>
      <trkpt lat="45.87411" lon="2.99002">
        <ele>775.4</ele>
        <time>1970-01-01T02:18:07.000Z</time>
      </trkpt>
      <trkpt lat="45.87409" lon="2.99006">
        <ele>775.5</ele>
        <time>1970-01-01T02:18:08.000Z</time>
      </trkpt>
      <trkpt lat="45.87408" lon="2.99011">
        <ele>775.5</ele>
        <time>1970-01-01T02:18:09.000Z</time>
      </trkpt>
      <trkpt lat="45.87406" lon="2.99017">
        <ele>775.6</ele>
        <time>1970-01-01T02:18:11.000Z</time>
      </trkpt>
      <trkpt lat="45.87406" lon="2.99021">
        <ele>775.6</ele>
        <time>1970-01-01T02:18:12.000Z</time>
      </trkpt>
      <trkpt lat="45.87404" lon="2.99027">
        <ele>775.6</ele>
        <time>1970-01-01T02:18:13.000Z</time>
      </trkpt>
      <trkpt lat="45.87403" lon="2.99032">
        <ele>775.7</ele>
        <time>1970-01-01T02:18:14.000Z</time>
      </trkpt>
      <trkpt lat="45.87401" lon="2.9904">
        <ele>775.7</ele>
        <time>1970-01-01T02:18:16.000Z</time>
      </trkpt>
      <trkpt lat="45.87398" lon="2.99047">
        <ele>775.7</ele>
        <time>1970-01-01T02:18:17.000Z</time>
      </trkpt>
      <trkpt lat="45.87397" lon="2.99053">
        <ele>775.8</ele>
        <time>1970-01-01T02:18:18.000Z</time>
      </trkpt>
      <trkpt lat="45.87395" lon="2.99059">
        <ele>775.8</ele>
        <time>1970-01-01T02:18:19.000Z</time>
      </trkpt>
      <trkpt lat="45.87394" lon="2.99066">
        <ele>775.9</ele>
        <time>1970-01-01T02:18:21.000Z</time>
      </trkpt>
      <trkpt lat="45.87392" lon="2.99071">
        <ele>775.9</ele>
        <time>1970-01-01T02:18:22.000Z</time>
      </trkpt>
      <trkpt lat="45.87391" lon="2.99077">
        <ele>775.9</ele>
        <time>1970-01-01T02:18:23.000Z</time>
      </trkpt>
      <trkpt lat="45.8739" lon="2.99083">
        <ele>775.9</ele>
        <time>1970-01-01T02:18:24.000Z</time>
      </trkpt>
      <trkpt lat="45.87389" lon="2.99089">
        <ele>775.9</ele>
        <time>1970-01-01T02:18:26.000Z</time>
      </trkpt>
      <trkpt lat="45.87387" lon="2.99095">
        <ele>775.9</ele>
        <time>1970-01-01T02:18:27.000Z</time>
      </trkpt>
      <trkpt lat="45.87386" lon="2.99101">
        <ele>775.9</ele>
        <time>1970-01-01T02:18:28.000Z</time>
      </trkpt>
      <trkpt lat="45.87384" lon="2.99106">
        <ele>776</ele>
        <time>1970-01-01T02:18:29.000Z</time>
      </trkpt>
      <trkpt lat="45.87382" lon="2.99112">
        <ele>776</ele>
        <time>1970-01-01T02:18:31.000Z</time>
      </trkpt>
      <trkpt lat="45.87381" lon="2.99117">
        <ele>776</ele>
        <time>1970-01-01T02:18:32.000Z</time>
      </trkpt>
      <trkpt lat="45.8738" lon="2.99121">
        <ele>776</ele>
        <time>1970-01-01T02:18:33.000Z</time>
      </trkpt>
      <trkpt lat="45.87379" lon="2.99126">
        <ele>776</ele>
        <time>1970-01-01T02:18:34.000Z</time>
      </trkpt>
      <trkpt lat="45.87377" lon="2.99131">
        <ele>776</ele>
        <time>1970-01-01T02:18:35.000Z</time>
      </trkpt>
      <trkpt lat="45.87375" lon="2.99136">
        <ele>776</ele>
        <time>1970-01-01T02:18:36.000Z</time>
      </trkpt>
      <trkpt lat="45.87374" lon="2.99141">
        <ele>776</ele>
        <time>1970-01-01T02:18:37.000Z</time>
      </trkpt>
      <trkpt lat="45.87372" lon="2.99145">
        <ele>776</ele>
        <time>1970-01-01T02:18:38.000Z</time>
      </trkpt>
      <trkpt lat="45.87371" lon="2.99149">
        <ele>776</ele>
        <time>1970-01-01T02:18:39.000Z</time>
      </trkpt>
      <trkpt lat="45.87369" lon="2.99155">
        <ele>776</ele>
        <time>1970-01-01T02:18:40.000Z</time>
      </trkpt>
      <trkpt lat="45.87367" lon="2.99159">
        <ele>775.9</ele>
        <time>1970-01-01T02:18:41.000Z</time>
      </trkpt>
      <trkpt lat="45.87365" lon="2.99164">
        <ele>775.8</ele>
        <time>1970-01-01T02:18:42.000Z</time>
      </trkpt>
      <trkpt lat="45.87363" lon="2.9917">
        <ele>775.7</ele>
        <time>1970-01-01T02:18:43.000Z</time>
      </trkpt>
      <trkpt lat="45.87359" lon="2.99177">
        <ele>775.5</ele>
        <time>1970-01-01T02:18:45.000Z</time>
      </trkpt>
      <trkpt lat="45.87358" lon="2.99183">
        <ele>775.4</ele>
        <time>1970-01-01T02:18:46.000Z</time>
      </trkpt>
      <trkpt lat="45.87357" lon="2.99192">
        <ele>775.1</ele>
        <time>1970-01-01T02:18:47.000Z</time>
      </trkpt>
      <trkpt lat="45.87355" lon="2.992">
        <ele>774.9</ele>
        <time>1970-01-01T02:18:49.000Z</time>
      </trkpt>
      <trkpt lat="45.87354" lon="2.99206">
        <ele>774.7</ele>
        <time>1970-01-01T02:18:50.000Z</time>
      </trkpt>
      <trkpt lat="45.87353" lon="2.99215">
        <ele>774.4</ele>
        <time>1970-01-01T02:18:51.000Z</time>
      </trkpt>
      <trkpt lat="45.87351" lon="2.99222">
        <ele>774.1</ele>
        <time>1970-01-01T02:18:52.000Z</time>
      </trkpt>
      <trkpt lat="45.87348" lon="2.9923">
        <ele>773.9</ele>
        <time>1970-01-01T02:18:53.000Z</time>
      </trkpt>
      <trkpt lat="45.87345" lon="2.99239">
        <ele>773.6</ele>
        <time>1970-01-01T02:18:54.000Z</time>
      </trkpt>
      <trkpt lat="45.87341" lon="2.99248">
        <ele>773.5</ele>
        <time>1970-01-01T02:18:55.000Z</time>
      </trkpt>
      <trkpt lat="45.87338" lon="2.99257">
        <ele>773.4</ele>
        <time>1970-01-01T02:18:56.000Z</time>
      </trkpt>
      <trkpt lat="45.87333" lon="2.99266">
        <ele>773.5</ele>
        <time>1970-01-01T02:18:57.000Z</time>
      </trkpt>
      <trkpt lat="45.87329" lon="2.99273">
        <ele>773.7</ele>
        <time>1970-01-01T02:18:58.000Z</time>
      </trkpt>
      <trkpt lat="45.87325" lon="2.99279">
        <ele>773.9</ele>
        <time>1970-01-01T02:18:59.000Z</time>
      </trkpt>
      <trkpt lat="45.87321" lon="2.99284">
        <ele>774.1</ele>
        <time>1970-01-01T02:19:00.000Z</time>
      </trkpt>
      <trkpt lat="45.87317" lon="2.99288">
        <ele>774.3</ele>
        <time>1970-01-01T02:19:01.000Z</time>
      </trkpt>
      <trkpt lat="45.87313" lon="2.99291">
        <ele>774.4</ele>
        <time>1970-01-01T02:19:02.000Z</time>
      </trkpt>
      <trkpt lat="45.8731" lon="2.99295">
        <ele>774.6</ele>
        <time>1970-01-01T02:19:03.000Z</time>
      </trkpt>
      <trkpt lat="45.87308" lon="2.99301">
        <ele>774.7</ele>
        <time>1970-01-01T02:19:05.000Z</time>
      </trkpt>
      <trkpt lat="45.87306" lon="2.99305">
        <ele>774.7</ele>
        <time>1970-01-01T02:19:06.000Z</time>
      </trkpt>
      <trkpt lat="45.87304" lon="2.99309">
        <ele>774.5</ele>
        <time>1970-01-01T02:19:07.000Z</time>
      </trkpt>
      <trkpt lat="45.87303" lon="2.99316">
        <ele>774.4</ele>
        <time>1970-01-01T02:19:08.000Z</time>
      </trkpt>
      <trkpt lat="45.87303" lon="2.99322">
        <ele>774.2</ele>
        <time>1970-01-01T02:19:10.000Z</time>
      </trkpt>
      <trkpt lat="45.87302" lon="2.99328">
        <ele>774.1</ele>
        <time>1970-01-01T02:19:11.000Z</time>
      </trkpt>
      <trkpt lat="45.87302" lon="2.99333">
        <ele>773.9</ele>
        <time>1970-01-01T02:19:12.000Z</time>
      </trkpt>
      <trkpt lat="45.87302" lon="2.9934">
        <ele>773.6</ele>
        <time>1970-01-01T02:19:13.000Z</time>
      </trkpt>
      <trkpt lat="45.87302" lon="2.99346">
        <ele>773.4</ele>
        <time>1970-01-01T02:19:14.000Z</time>
      </trkpt>
      <trkpt lat="45.87302" lon="2.99354">
        <ele>773</ele>
        <time>1970-01-01T02:19:15.000Z</time>
      </trkpt>
      <trkpt lat="45.87302" lon="2.99361">
        <ele>772.8</ele>
        <time>1970-01-01T02:19:16.000Z</time>
      </trkpt>
      <trkpt lat="45.87301" lon="2.99369">
        <ele>772.4</ele>
        <time>1970-01-01T02:19:18.000Z</time>
      </trkpt>
      <trkpt lat="45.87301" lon="2.99372">
        <ele>772.3</ele>
        <time>1970-01-01T02:19:20.000Z</time>
      </trkpt>
      <trkpt lat="45.87301" lon="2.99371">
        <ele>772.2</ele>
        <time>1970-01-01T02:19:21.000Z</time>
      </trkpt>
      <trkpt lat="45.87302" lon="2.99371">
        <ele>772.2</ele>
        <time>1970-01-01T02:19:22.000Z</time>
      </trkpt>
      <trkpt lat="45.87302" lon="2.99371">
        <ele>772.1</ele>
        <time>1970-01-01T02:19:23.000Z</time>
      </trkpt>
      <trkpt lat="45.87302" lon="2.99371">
        <ele>772.1</ele>
        <time>1970-01-01T02:19:24.000Z</time>
      </trkpt>
      <trkpt lat="45.87302" lon="2.99371">
        <ele>772.1</ele>
        <time>1970-01-01T02:19:25.000Z</time>
      </trkpt>
      <trkpt lat="45.87302" lon="2.99371">
        <ele>772.1</ele>
        <time>1970-01-01T02:19:26.000Z</time>
      </trkpt>
      <trkpt lat="45.87302" lon="2.99371">
        <ele>772.1</ele>
        <time>1970-01-01T02:19:27.000Z</time>
      </trkpt>
      <trkpt lat="45.87302" lon="2.99372">
        <ele>772.1</ele>
        <time>1970-01-01T02:19:29.000Z</time>
      </trkpt>
      <trkpt lat="45.87302" lon="2.99373">
        <ele>772</ele>
        <time>1970-01-01T02:19:30.000Z</time>
      </trkpt>
      <trkpt lat="45.87302" lon="2.99377">
        <ele>771.8</ele>
        <time>1970-01-01T02:19:31.000Z</time>
      </trkpt>
      <trkpt lat="45.87302" lon="2.9938">
        <ele>771.7</ele>
        <time>1970-01-01T02:19:32.000Z</time>
      </trkpt>
      <trkpt lat="45.87302" lon="2.99385">
        <ele>771.4</ele>
        <time>1970-01-01T02:19:33.000Z</time>
      </trkpt>
      <trkpt lat="45.87302" lon="2.99395">
        <ele>770.9</ele>
        <time>1970-01-01T02:19:34.000Z</time>
      </trkpt>
      <trkpt lat="45.87302" lon="2.99402">
        <ele>770.5</ele>
        <time>1970-01-01T02:19:35.000Z</time>
      </trkpt>
      <trkpt lat="45.87301" lon="2.99409">
        <ele>770.1</ele>
        <time>1970-01-01T02:19:36.000Z</time>
      </trkpt>
      <trkpt lat="45.873" lon="2.99416">
        <ele>769.8</ele>
        <time>1970-01-01T02:19:37.000Z</time>
      </trkpt>
      <trkpt lat="45.87299" lon="2.99423">
        <ele>769.4</ele>
        <time>1970-01-01T02:19:38.000Z</time>
      </trkpt>
      <trkpt lat="45.87297" lon="2.99429">
        <ele>769.1</ele>
        <time>1970-01-01T02:19:39.000Z</time>
      </trkpt>
      <trkpt lat="45.87294" lon="2.99436">
        <ele>768.7</ele>
        <time>1970-01-01T02:19:40.000Z</time>
      </trkpt>
      <trkpt lat="45.8729" lon="2.99443">
        <ele>768.3</ele>
        <time>1970-01-01T02:19:41.000Z</time>
      </trkpt>
      <trkpt lat="45.87286" lon="2.99449">
        <ele>767.9</ele>
        <time>1970-01-01T02:19:42.000Z</time>
      </trkpt>
      <trkpt lat="45.87281" lon="2.99455">
        <ele>767.5</ele>
        <time>1970-01-01T02:19:43.000Z</time>
      </trkpt>
      <trkpt lat="45.87276" lon="2.99461">
        <ele>767.1</ele>
        <time>1970-01-01T02:19:44.000Z</time>
      </trkpt>
      <trkpt lat="45.87271" lon="2.99467">
        <ele>766.8</ele>
        <time>1970-01-01T02:19:45.000Z</time>
      </trkpt>
      <trkpt lat="45.87267" lon="2.99472">
        <ele>766.6</ele>
        <time>1970-01-01T02:19:46.000Z</time>
      </trkpt>
      <trkpt lat="45.87264" lon="2.99478">
        <ele>766.3</ele>
        <time>1970-01-01T02:19:47.000Z</time>
      </trkpt>
      <trkpt lat="45.87261" lon="2.99484">
        <ele>766.1</ele>
        <time>1970-01-01T02:19:48.000Z</time>
      </trkpt>
      <trkpt lat="45.8726" lon="2.99491">
        <ele>765.9</ele>
        <time>1970-01-01T02:19:49.000Z</time>
      </trkpt>
      <trkpt lat="45.87258" lon="2.99494">
        <ele>765.8</ele>
        <time>1970-01-01T02:19:50.000Z</time>
      </trkpt>
      <trkpt lat="45.87257" lon="2.99498">
        <ele>765.7</ele>
        <time>1970-01-01T02:19:51.000Z</time>
      </trkpt>
      <trkpt lat="45.87254" lon="2.99504">
        <ele>765.4</ele>
        <time>1970-01-01T02:19:52.000Z</time>
      </trkpt>
      <trkpt lat="45.87251" lon="2.99508">
        <ele>765.3</ele>
        <time>1970-01-01T02:19:53.000Z</time>
      </trkpt>
      <trkpt lat="45.87248" lon="2.99511">
        <ele>765.1</ele>
        <time>1970-01-01T02:19:54.000Z</time>
      </trkpt>
      <trkpt lat="45.87244" lon="2.99515">
        <ele>765.1</ele>
        <time>1970-01-01T02:19:55.000Z</time>
      </trkpt>
      <trkpt lat="45.8724" lon="2.99518">
        <ele>765</ele>
        <time>1970-01-01T02:19:56.000Z</time>
      </trkpt>
      <trkpt lat="45.87238" lon="2.9952">
        <ele>764.9</ele>
        <time>1970-01-01T02:19:57.000Z</time>
      </trkpt>
      <trkpt lat="45.87231" lon="2.99523">
        <ele>764.8</ele>
        <time>1970-01-01T02:19:58.000Z</time>
      </trkpt>
      <trkpt lat="45.87225" lon="2.99524">
        <ele>764.7</ele>
        <time>1970-01-01T02:19:59.000Z</time>
      </trkpt>
      <trkpt lat="45.87221" lon="2.99525">
        <ele>764.5</ele>
        <time>1970-01-01T02:20:00.000Z</time>
      </trkpt>
      <trkpt lat="45.87215" lon="2.99527">
        <ele>764.3</ele>
        <time>1970-01-01T02:20:02.000Z</time>
      </trkpt>
      <trkpt lat="45.87211" lon="2.99529">
        <ele>764.2</ele>
        <time>1970-01-01T02:20:03.000Z</time>
      </trkpt>
      <trkpt lat="45.87206" lon="2.9953">
        <ele>763.9</ele>
        <time>1970-01-01T02:20:04.000Z</time>
      </trkpt>
      <trkpt lat="45.872" lon="2.99534">
        <ele>763.6</ele>
        <time>1970-01-01T02:20:06.000Z</time>
      </trkpt>
      <trkpt lat="45.87201" lon="2.99539">
        <ele>763.3</ele>
        <time>1970-01-01T02:20:08.000Z</time>
      </trkpt>
      <trkpt lat="45.87202" lon="2.9954">
        <ele>763.3</ele>
        <time>1970-01-01T02:20:09.000Z</time>
      </trkpt>
      <trkpt lat="45.87205" lon="2.99542">
        <ele>763.1</ele>
        <time>1970-01-01T02:20:10.000Z</time>
      </trkpt>
      <trkpt lat="45.87207" lon="2.99542">
        <ele>763</ele>
        <time>1970-01-01T02:20:11.000Z</time>
      </trkpt>
      <trkpt lat="45.8721" lon="2.99542">
        <ele>762.9</ele>
        <time>1970-01-01T02:20:12.000Z</time>
      </trkpt>
      <trkpt lat="45.87213" lon="2.99543">
        <ele>762.7</ele>
        <time>1970-01-01T02:20:13.000Z</time>
      </trkpt>
      <trkpt lat="45.87216" lon="2.99542">
        <ele>762.5</ele>
        <time>1970-01-01T02:20:14.000Z</time>
      </trkpt>
      <trkpt lat="45.87218" lon="2.99541">
        <ele>762.3</ele>
        <time>1970-01-01T02:20:16.000Z</time>
      </trkpt>
      <trkpt lat="45.87219" lon="2.99541">
        <ele>762.2</ele>
        <time>1970-01-01T02:20:17.000Z</time>
      </trkpt>
      <trkpt lat="45.87219" lon="2.99541">
        <ele>762.2</ele>
        <time>1970-01-01T02:20:18.000Z</time>
      </trkpt>
      <trkpt lat="45.87219" lon="2.99541">
        <ele>762.2</ele>
        <time>1970-01-01T02:20:19.000Z</time>
      </trkpt>
      <trkpt lat="45.87219" lon="2.99541">
        <ele>762.2</ele>
        <time>1970-01-01T02:20:20.000Z</time>
      </trkpt>
      <trkpt lat="45.87219" lon="2.99541">
        <ele>762.2</ele>
        <time>1970-01-01T02:20:21.000Z</time>
      </trkpt>
      <trkpt lat="45.87219" lon="2.99541">
        <ele>762.1</ele>
        <time>1970-01-01T02:20:22.000Z</time>
      </trkpt>
      <trkpt lat="45.87219" lon="2.99541">
        <ele>762.1</ele>
        <time>1970-01-01T02:20:23.000Z</time>
      </trkpt>
      <trkpt lat="45.8722" lon="2.99541">
        <ele>762</ele>
        <time>1970-01-01T02:20:24.000Z</time>
      </trkpt>
      <trkpt lat="45.87222" lon="2.99542">
        <ele>761.9</ele>
        <time>1970-01-01T02:20:25.000Z</time>
      </trkpt>
      <trkpt lat="45.87225" lon="2.99546">
        <ele>761.6</ele>
        <time>1970-01-01T02:20:26.000Z</time>
      </trkpt>
      <trkpt lat="45.87227" lon="2.99548">
        <ele>761.4</ele>
        <time>1970-01-01T02:20:27.000Z</time>
      </trkpt>
      <trkpt lat="45.87228" lon="2.99553">
        <ele>761</ele>
        <time>1970-01-01T02:20:28.000Z</time>
      </trkpt>
      <trkpt lat="45.8723" lon="2.99559">
        <ele>760.7</ele>
        <time>1970-01-01T02:20:29.000Z</time>
      </trkpt>
      <trkpt lat="45.87234" lon="2.99571">
        <ele>759.9</ele>
        <time>1970-01-01T02:20:31.000Z</time>
      </trkpt>
      <trkpt lat="45.87236" lon="2.99577">
        <ele>759.6</ele>
        <time>1970-01-01T02:20:32.000Z</time>
      </trkpt>
      <trkpt lat="45.87236" lon="2.99585">
        <ele>759.2</ele>
        <time>1970-01-01T02:20:33.000Z</time>
      </trkpt>
      <trkpt lat="45.87238" lon="2.99592">
        <ele>758.9</ele>
        <time>1970-01-01T02:20:34.000Z</time>
      </trkpt>
      <trkpt lat="45.8724" lon="2.99599">
        <ele>758.7</ele>
        <time>1970-01-01T02:20:35.000Z</time>
      </trkpt>
      <trkpt lat="45.87242" lon="2.99605">
        <ele>758.5</ele>
        <time>1970-01-01T02:20:36.000Z</time>
      </trkpt>
      <trkpt lat="45.87241" lon="2.99612">
        <ele>758.2</ele>
        <time>1970-01-01T02:20:37.000Z</time>
      </trkpt>
      <trkpt lat="45.87241" lon="2.99621">
        <ele>757.9</ele>
        <time>1970-01-01T02:20:38.000Z</time>
      </trkpt>
      <trkpt lat="45.87241" lon="2.99628">
        <ele>757.7</ele>
        <time>1970-01-01T02:20:39.000Z</time>
      </trkpt>
      <trkpt lat="45.87246" lon="2.9963">
        <ele>757.4</ele>
        <time>1970-01-01T02:20:40.000Z</time>
      </trkpt>
      <trkpt lat="45.87253" lon="2.99643">
        <ele>756.7</ele>
        <time>1970-01-01T02:20:42.000Z</time>
      </trkpt>
      <trkpt lat="45.87256" lon="2.99648">
        <ele>756.4</ele>
        <time>1970-01-01T02:20:43.000Z</time>
      </trkpt>
      <trkpt lat="45.87259" lon="2.99649">
        <ele>756.1</ele>
        <time>1970-01-01T02:20:44.000Z</time>
      </trkpt>
      <trkpt lat="45.87261" lon="2.99652">
        <ele>756</ele>
        <time>1970-01-01T02:20:45.000Z</time>
      </trkpt>
      <trkpt lat="45.87262" lon="2.99659">
        <ele>755.6</ele>
        <time>1970-01-01T02:20:46.000Z</time>
      </trkpt>
      <trkpt lat="45.87263" lon="2.99665">
        <ele>755.3</ele>
        <time>1970-01-01T02:20:48.000Z</time>
      </trkpt>
      <trkpt lat="45.8726" lon="2.99674">
        <ele>754.9</ele>
        <time>1970-01-01T02:20:49.000Z</time>
      </trkpt>
      <trkpt lat="45.87259" lon="2.9968">
        <ele>754.6</ele>
        <time>1970-01-01T02:20:50.000Z</time>
      </trkpt>
      <trkpt lat="45.8726" lon="2.99684">
        <ele>754.4</ele>
        <time>1970-01-01T02:20:51.000Z</time>
      </trkpt>
      <trkpt lat="45.87262" lon="2.99693">
        <ele>754.2</ele>
        <time>1970-01-01T02:20:52.000Z</time>
      </trkpt>
      <trkpt lat="45.87263" lon="2.99702">
        <ele>753.9</ele>
        <time>1970-01-01T02:20:53.000Z</time>
      </trkpt>
      <trkpt lat="45.87263" lon="2.9971">
        <ele>753.7</ele>
        <time>1970-01-01T02:20:54.000Z</time>
      </trkpt>
      <trkpt lat="45.87262" lon="2.99716">
        <ele>753.5</ele>
        <time>1970-01-01T02:20:55.000Z</time>
      </trkpt>
      <trkpt lat="45.8726" lon="2.99719">
        <ele>753.4</ele>
        <time>1970-01-01T02:20:56.000Z</time>
      </trkpt>
      <trkpt lat="45.87257" lon="2.99722">
        <ele>753.2</ele>
        <time>1970-01-01T02:20:57.000Z</time>
      </trkpt>
      <trkpt lat="45.87254" lon="2.99725">
        <ele>753</ele>
        <time>1970-01-01T02:20:58.000Z</time>
      </trkpt>
      <trkpt lat="45.87248" lon="2.99728">
        <ele>752.5</ele>
        <time>1970-01-01T02:21:00.000Z</time>
      </trkpt>
      <trkpt lat="45.87245" lon="2.99729">
        <ele>752.3</ele>
        <time>1970-01-01T02:21:01.000Z</time>
      </trkpt>
      <trkpt lat="45.87242" lon="2.9973">
        <ele>752.1</ele>
        <time>1970-01-01T02:21:02.000Z</time>
      </trkpt>
      <trkpt lat="45.87238" lon="2.99732">
        <ele>751.8</ele>
        <time>1970-01-01T02:21:03.000Z</time>
      </trkpt>
      <trkpt lat="45.87235" lon="2.99737">
        <ele>751.5</ele>
        <time>1970-01-01T02:21:04.000Z</time>
      </trkpt>
      <trkpt lat="45.87232" lon="2.99743">
        <ele>751.2</ele>
        <time>1970-01-01T02:21:05.000Z</time>
      </trkpt>
      <trkpt lat="45.87231" lon="2.99751">
        <ele>750.9</ele>
        <time>1970-01-01T02:21:06.000Z</time>
      </trkpt>
      <trkpt lat="45.8723" lon="2.99758">
        <ele>750.6</ele>
        <time>1970-01-01T02:21:07.000Z</time>
      </trkpt>
      <trkpt lat="45.87229" lon="2.99762">
        <ele>750.5</ele>
        <time>1970-01-01T02:21:08.000Z</time>
      </trkpt>
      <trkpt lat="45.8723" lon="2.99768">
        <ele>750.2</ele>
        <time>1970-01-01T02:21:09.000Z</time>
      </trkpt>
      <trkpt lat="45.8723" lon="2.99771">
        <ele>750</ele>
        <time>1970-01-01T02:21:10.000Z</time>
      </trkpt>
      <trkpt lat="45.87234" lon="2.99776">
        <ele>749.6</ele>
        <time>1970-01-01T02:21:11.000Z</time>
      </trkpt>
      <trkpt lat="45.87237" lon="2.99779">
        <ele>749.3</ele>
        <time>1970-01-01T02:21:12.000Z</time>
      </trkpt>
      <trkpt lat="45.87239" lon="2.99785">
        <ele>749</ele>
        <time>1970-01-01T02:21:13.000Z</time>
      </trkpt>
      <trkpt lat="45.87237" lon="2.99791">
        <ele>748.6</ele>
        <time>1970-01-01T02:21:14.000Z</time>
      </trkpt>
      <trkpt lat="45.87234" lon="2.99793">
        <ele>748.4</ele>
        <time>1970-01-01T02:21:15.000Z</time>
      </trkpt>
      <trkpt lat="45.8723" lon="2.99796">
        <ele>748</ele>
        <time>1970-01-01T02:21:16.000Z</time>
      </trkpt>
      <trkpt lat="45.87225" lon="2.99796">
        <ele>747.6</ele>
        <time>1970-01-01T02:21:17.000Z</time>
      </trkpt>
      <trkpt lat="45.8722" lon="2.99796">
        <ele>747.1</ele>
        <time>1970-01-01T02:21:18.000Z</time>
      </trkpt>
      <trkpt lat="45.87216" lon="2.99795">
        <ele>746.7</ele>
        <time>1970-01-01T02:21:19.000Z</time>
      </trkpt>
      <trkpt lat="45.87215" lon="2.99796">
        <ele>746.6</ele>
        <time>1970-01-01T02:21:20.000Z</time>
      </trkpt>
      <trkpt lat="45.87213" lon="2.99796">
        <ele>746.4</ele>
        <time>1970-01-01T02:21:21.000Z</time>
      </trkpt>
      <trkpt lat="45.87212" lon="2.998">
        <ele>746</ele>
        <time>1970-01-01T02:21:23.000Z</time>
      </trkpt>
      <trkpt lat="45.87213" lon="2.99804">
        <ele>745.6</ele>
        <time>1970-01-01T02:21:24.000Z</time>
      </trkpt>
      <trkpt lat="45.87214" lon="2.99809">
        <ele>745.3</ele>
        <time>1970-01-01T02:21:25.000Z</time>
      </trkpt>
      <trkpt lat="45.87215" lon="2.99821">
        <ele>744.3</ele>
        <time>1970-01-01T02:21:26.000Z</time>
      </trkpt>
      <trkpt lat="45.87215" lon="2.99828">
        <ele>743.8</ele>
        <time>1970-01-01T02:21:27.000Z</time>
      </trkpt>
      <trkpt lat="45.87211" lon="2.99834">
        <ele>743.4</ele>
        <time>1970-01-01T02:21:28.000Z</time>
      </trkpt>
      <trkpt lat="45.87208" lon="2.99838">
        <ele>743.1</ele>
        <time>1970-01-01T02:21:29.000Z</time>
      </trkpt>
      <trkpt lat="45.87205" lon="2.9984">
        <ele>742.8</ele>
        <time>1970-01-01T02:21:30.000Z</time>
      </trkpt>
      <trkpt lat="45.872" lon="2.9984">
        <ele>742.6</ele>
        <time>1970-01-01T02:21:31.000Z</time>
      </trkpt>
      <trkpt lat="45.87195" lon="2.99841">
        <ele>742.3</ele>
        <time>1970-01-01T02:21:32.000Z</time>
      </trkpt>
      <trkpt lat="45.8719" lon="2.9984">
        <ele>742.2</ele>
        <time>1970-01-01T02:21:33.000Z</time>
      </trkpt>
      <trkpt lat="45.87185" lon="2.9984">
        <ele>742</ele>
        <time>1970-01-01T02:21:34.000Z</time>
      </trkpt>
      <trkpt lat="45.87179" lon="2.99838">
        <ele>741.8</ele>
        <time>1970-01-01T02:21:35.000Z</time>
      </trkpt>
      <trkpt lat="45.87173" lon="2.99837">
        <ele>741.8</ele>
        <time>1970-01-01T02:21:36.000Z</time>
      </trkpt>
      <trkpt lat="45.87167" lon="2.99835">
        <ele>741.7</ele>
        <time>1970-01-01T02:21:37.000Z</time>
      </trkpt>
      <trkpt lat="45.87162" lon="2.99834">
        <ele>741.7</ele>
        <time>1970-01-01T02:21:38.000Z</time>
      </trkpt>
      <trkpt lat="45.87157" lon="2.99832">
        <ele>741.7</ele>
        <time>1970-01-01T02:21:39.000Z</time>
      </trkpt>
      <trkpt lat="45.87153" lon="2.99832">
        <ele>741.7</ele>
        <time>1970-01-01T02:21:40.000Z</time>
      </trkpt>
      <trkpt lat="45.8715" lon="2.99831">
        <ele>741.7</ele>
        <time>1970-01-01T02:21:41.000Z</time>
      </trkpt>
      <trkpt lat="45.87143" lon="2.99829">
        <ele>741.8</ele>
        <time>1970-01-01T02:21:42.000Z</time>
      </trkpt>
      <trkpt lat="45.87137" lon="2.99827">
        <ele>741.9</ele>
        <time>1970-01-01T02:21:43.000Z</time>
      </trkpt>
      <trkpt lat="45.87132" lon="2.99826">
        <ele>742</ele>
        <time>1970-01-01T02:21:44.000Z</time>
      </trkpt>
      <trkpt lat="45.87127" lon="2.99825">
        <ele>742.1</ele>
        <time>1970-01-01T02:21:45.000Z</time>
      </trkpt>
      <trkpt lat="45.87122" lon="2.99824">
        <ele>742.2</ele>
        <time>1970-01-01T02:21:46.000Z</time>
      </trkpt>
      <trkpt lat="45.87117" lon="2.99824">
        <ele>742.3</ele>
        <time>1970-01-01T02:21:47.000Z</time>
      </trkpt>
      <trkpt lat="45.87111" lon="2.99824">
        <ele>742.4</ele>
        <time>1970-01-01T02:21:48.000Z</time>
      </trkpt>
      <trkpt lat="45.87106" lon="2.99823">
        <ele>742.5</ele>
        <time>1970-01-01T02:21:49.000Z</time>
      </trkpt>
      <trkpt lat="45.87104" lon="2.99821">
        <ele>742.6</ele>
        <time>1970-01-01T02:21:50.000Z</time>
      </trkpt>
      <trkpt lat="45.87099" lon="2.99819">
        <ele>742.8</ele>
        <time>1970-01-01T02:21:51.000Z</time>
      </trkpt>
      <trkpt lat="45.87094" lon="2.99817">
        <ele>742.9</ele>
        <time>1970-01-01T02:21:52.000Z</time>
      </trkpt>
      <trkpt lat="45.8709" lon="2.99816">
        <ele>743</ele>
        <time>1970-01-01T02:21:53.000Z</time>
      </trkpt>
      <trkpt lat="45.87086" lon="2.99816">
        <ele>743</ele>
        <time>1970-01-01T02:21:54.000Z</time>
      </trkpt>
      <trkpt lat="45.87081" lon="2.99813">
        <ele>743</ele>
        <time>1970-01-01T02:21:56.000Z</time>
      </trkpt>
      <trkpt lat="45.87077" lon="2.99813">
        <ele>743.2</ele>
        <time>1970-01-01T02:21:57.000Z</time>
      </trkpt>
      <trkpt lat="45.87074" lon="2.99814">
        <ele>743.3</ele>
        <time>1970-01-01T02:21:58.000Z</time>
      </trkpt>
      <trkpt lat="45.87072" lon="2.99809">
        <ele>743.5</ele>
        <time>1970-01-01T02:21:59.000Z</time>
      </trkpt>
      <trkpt lat="45.87072" lon="2.99807">
        <ele>743.6</ele>
        <time>1970-01-01T02:22:00.000Z</time>
      </trkpt>
      <trkpt lat="45.87072" lon="2.99803">
        <ele>743.7</ele>
        <time>1970-01-01T02:22:01.000Z</time>
      </trkpt>
      <trkpt lat="45.87073" lon="2.99799">
        <ele>743.8</ele>
        <time>1970-01-01T02:22:02.000Z</time>
      </trkpt>
      <trkpt lat="45.87074" lon="2.99795">
        <ele>744</ele>
        <time>1970-01-01T02:22:03.000Z</time>
      </trkpt>
      <trkpt lat="45.87075" lon="2.9979">
        <ele>744.2</ele>
        <time>1970-01-01T02:22:04.000Z</time>
      </trkpt>
      <trkpt lat="45.87075" lon="2.99788">
        <ele>744.2</ele>
        <time>1970-01-01T02:22:05.000Z</time>
      </trkpt>
      <trkpt lat="45.87075" lon="2.99784">
        <ele>744.4</ele>
        <time>1970-01-01T02:22:06.000Z</time>
      </trkpt>
      <trkpt lat="45.87076" lon="2.99781">
        <ele>744.5</ele>
        <time>1970-01-01T02:22:08.000Z</time>
      </trkpt>
      <trkpt lat="45.87076" lon="2.99776">
        <ele>744.7</ele>
        <time>1970-01-01T02:22:09.000Z</time>
      </trkpt>
      <trkpt lat="45.87077" lon="2.99775">
        <ele>744.7</ele>
        <time>1970-01-01T02:22:10.000Z</time>
      </trkpt>
      <trkpt lat="45.87077" lon="2.99771">
        <ele>744.9</ele>
        <time>1970-01-01T02:22:11.000Z</time>
      </trkpt>
      <trkpt lat="45.87078" lon="2.9977">
        <ele>744.9</ele>
        <time>1970-01-01T02:22:12.000Z</time>
      </trkpt>
      <trkpt lat="45.87078" lon="2.99764">
        <ele>745.2</ele>
        <time>1970-01-01T02:22:13.000Z</time>
      </trkpt>
      <trkpt lat="45.87078" lon="2.99762">
        <ele>745.3</ele>
        <time>1970-01-01T02:22:14.000Z</time>
      </trkpt>
      <trkpt lat="45.87078" lon="2.99759">
        <ele>745.5</ele>
        <time>1970-01-01T02:22:15.000Z</time>
      </trkpt>
      <trkpt lat="45.87078" lon="2.99754">
        <ele>745.7</ele>
        <time>1970-01-01T02:22:17.000Z</time>
      </trkpt>
      <trkpt lat="45.87078" lon="2.99752">
        <ele>745.8</ele>
        <time>1970-01-01T02:22:18.000Z</time>
      </trkpt>
      <trkpt lat="45.87078" lon="2.99747">
        <ele>746</ele>
        <time>1970-01-01T02:22:19.000Z</time>
      </trkpt>
      <trkpt lat="45.87078" lon="2.99746">
        <ele>746.1</ele>
        <time>1970-01-01T02:22:20.000Z</time>
      </trkpt>
      <trkpt lat="45.87078" lon="2.99743">
        <ele>746.3</ele>
        <time>1970-01-01T02:22:21.000Z</time>
      </trkpt>
      <trkpt lat="45.87078" lon="2.99739">
        <ele>746.5</ele>
        <time>1970-01-01T02:22:23.000Z</time>
      </trkpt>
      <trkpt lat="45.87077" lon="2.99735">
        <ele>746.7</ele>
        <time>1970-01-01T02:22:24.000Z</time>
      </trkpt>
      <trkpt lat="45.87077" lon="2.99733">
        <ele>746.7</ele>
        <time>1970-01-01T02:22:25.000Z</time>
      </trkpt>
      <trkpt lat="45.87076" lon="2.99729">
        <ele>747</ele>
        <time>1970-01-01T02:22:26.000Z</time>
      </trkpt>
      <trkpt lat="45.87075" lon="2.99729">
        <ele>747</ele>
        <time>1970-01-01T02:22:27.000Z</time>
      </trkpt>
      <trkpt lat="45.87074" lon="2.99724">
        <ele>747.2</ele>
        <time>1970-01-01T02:22:28.000Z</time>
      </trkpt>
      <trkpt lat="45.87074" lon="2.9972">
        <ele>747.5</ele>
        <time>1970-01-01T02:22:30.000Z</time>
      </trkpt>
      <trkpt lat="45.87074" lon="2.99718">
        <ele>747.6</ele>
        <time>1970-01-01T02:22:31.000Z</time>
      </trkpt>
      <trkpt lat="45.87075" lon="2.99714">
        <ele>747.8</ele>
        <time>1970-01-01T02:22:32.000Z</time>
      </trkpt>
      <trkpt lat="45.87075" lon="2.99712">
        <ele>747.9</ele>
        <time>1970-01-01T02:22:33.000Z</time>
      </trkpt>
      <trkpt lat="45.87076" lon="2.99708">
        <ele>748.1</ele>
        <time>1970-01-01T02:22:35.000Z</time>
      </trkpt>
      <trkpt lat="45.87076" lon="2.99707">
        <ele>748.2</ele>
        <time>1970-01-01T02:22:36.000Z</time>
      </trkpt>
      <trkpt lat="45.87077" lon="2.99702">
        <ele>748.4</ele>
        <time>1970-01-01T02:22:38.000Z</time>
      </trkpt>
      <trkpt lat="45.87077" lon="2.99701">
        <ele>748.5</ele>
        <time>1970-01-01T02:22:39.000Z</time>
      </trkpt>
      <trkpt lat="45.87077" lon="2.99699">
        <ele>748.6</ele>
        <time>1970-01-01T02:22:40.000Z</time>
      </trkpt>
      <trkpt lat="45.87077" lon="2.99697">
        <ele>748.8</ele>
        <time>1970-01-01T02:22:41.000Z</time>
      </trkpt>
      <trkpt lat="45.87077" lon="2.99694">
        <ele>748.9</ele>
        <time>1970-01-01T02:22:42.000Z</time>
      </trkpt>
      <trkpt lat="45.87078" lon="2.9969">
        <ele>749.2</ele>
        <time>1970-01-01T02:22:44.000Z</time>
      </trkpt>
      <trkpt lat="45.87078" lon="2.99686">
        <ele>749.4</ele>
        <time>1970-01-01T02:22:45.000Z</time>
      </trkpt>
      <trkpt lat="45.87078" lon="2.99684">
        <ele>749.5</ele>
        <time>1970-01-01T02:22:46.000Z</time>
      </trkpt>
      <trkpt lat="45.87078" lon="2.9968">
        <ele>749.8</ele>
        <time>1970-01-01T02:22:47.000Z</time>
      </trkpt>
      <trkpt lat="45.87079" lon="2.99678">
        <ele>749.9</ele>
        <time>1970-01-01T02:22:48.000Z</time>
      </trkpt>
      <trkpt lat="45.87079" lon="2.99675">
        <ele>750.1</ele>
        <time>1970-01-01T02:22:49.000Z</time>
      </trkpt>
      <trkpt lat="45.8708" lon="2.99672">
        <ele>750.3</ele>
        <time>1970-01-01T02:22:51.000Z</time>
      </trkpt>
      <trkpt lat="45.8708" lon="2.9967">
        <ele>750.5</ele>
        <time>1970-01-01T02:22:52.000Z</time>
      </trkpt>
      <trkpt lat="45.8708" lon="2.99667">
        <ele>750.6</ele>
        <time>1970-01-01T02:22:54.000Z</time>
      </trkpt>
      <trkpt lat="45.8708" lon="2.99665">
        <ele>750.7</ele>
        <time>1970-01-01T02:22:55.000Z</time>
      </trkpt>
      <trkpt lat="45.8708" lon="2.99663">
        <ele>750.9</ele>
        <time>1970-01-01T02:22:56.000Z</time>
      </trkpt>
      <trkpt lat="45.87081" lon="2.99661">
        <ele>751</ele>
        <time>1970-01-01T02:22:58.000Z</time>
      </trkpt>
      <trkpt lat="45.87081" lon="2.99659">
        <ele>751.2</ele>
        <time>1970-01-01T02:22:59.000Z</time>
      </trkpt>
      <trkpt lat="45.87082" lon="2.99657">
        <ele>751.3</ele>
        <time>1970-01-01T02:23:00.000Z</time>
      </trkpt>
      <trkpt lat="45.87082" lon="2.99655">
        <ele>751.5</ele>
        <time>1970-01-01T02:23:01.000Z</time>
      </trkpt>
      <trkpt lat="45.87082" lon="2.99653">
        <ele>751.6</ele>
        <time>1970-01-01T02:23:02.000Z</time>
      </trkpt>
      <trkpt lat="45.87083" lon="2.9965">
        <ele>751.8</ele>
        <time>1970-01-01T02:23:03.000Z</time>
      </trkpt>
      <trkpt lat="45.87083" lon="2.99647">
        <ele>752</ele>
        <time>1970-01-01T02:23:05.000Z</time>
      </trkpt>
      <trkpt lat="45.87083" lon="2.99645">
        <ele>752.1</ele>
        <time>1970-01-01T02:23:06.000Z</time>
      </trkpt>
      <trkpt lat="45.87082" lon="2.99642">
        <ele>752.3</ele>
        <time>1970-01-01T02:23:07.000Z</time>
      </trkpt>
      <trkpt lat="45.87082" lon="2.9964">
        <ele>752.5</ele>
        <time>1970-01-01T02:23:08.000Z</time>
      </trkpt>
      <trkpt lat="45.87082" lon="2.99638">
        <ele>752.6</ele>
        <time>1970-01-01T02:23:09.000Z</time>
      </trkpt>
      <trkpt lat="45.87082" lon="2.99636">
        <ele>752.8</ele>
        <time>1970-01-01T02:23:10.000Z</time>
      </trkpt>
      <trkpt lat="45.87081" lon="2.99631">
        <ele>753.1</ele>
        <time>1970-01-01T02:23:11.000Z</time>
      </trkpt>
      <trkpt lat="45.87081" lon="2.9963">
        <ele>753.2</ele>
        <time>1970-01-01T02:23:13.000Z</time>
      </trkpt>
      <trkpt lat="45.87081" lon="2.99628">
        <ele>753.3</ele>
        <time>1970-01-01T02:23:15.000Z</time>
      </trkpt>
      <trkpt lat="45.87081" lon="2.99626">
        <ele>753.5</ele>
        <time>1970-01-01T02:23:16.000Z</time>
      </trkpt>
      <trkpt lat="45.8708" lon="2.99624">
        <ele>753.6</ele>
        <time>1970-01-01T02:23:17.000Z</time>
      </trkpt>
      <trkpt lat="45.8708" lon="2.99622">
        <ele>753.7</ele>
        <time>1970-01-01T02:23:18.000Z</time>
      </trkpt>
      <trkpt lat="45.87079" lon="2.99618">
        <ele>754</ele>
        <time>1970-01-01T02:23:19.000Z</time>
      </trkpt>
      <trkpt lat="45.87079" lon="2.99617">
        <ele>754.1</ele>
        <time>1970-01-01T02:23:20.000Z</time>
      </trkpt>
      <trkpt lat="45.87078" lon="2.99614">
        <ele>754.4</ele>
        <time>1970-01-01T02:23:21.000Z</time>
      </trkpt>
      <trkpt lat="45.87078" lon="2.99611">
        <ele>754.6</ele>
        <time>1970-01-01T02:23:23.000Z</time>
      </trkpt>
      <trkpt lat="45.87078" lon="2.99609">
        <ele>754.7</ele>
        <time>1970-01-01T02:23:24.000Z</time>
      </trkpt>
      <trkpt lat="45.87078" lon="2.99607">
        <ele>754.9</ele>
        <time>1970-01-01T02:23:25.000Z</time>
      </trkpt>
      <trkpt lat="45.87078" lon="2.99603">
        <ele>755.2</ele>
        <time>1970-01-01T02:23:27.000Z</time>
      </trkpt>
      <trkpt lat="45.87077" lon="2.996">
        <ele>755.4</ele>
        <time>1970-01-01T02:23:28.000Z</time>
      </trkpt>
      <trkpt lat="45.87077" lon="2.99598">
        <ele>755.5</ele>
        <time>1970-01-01T02:23:29.000Z</time>
      </trkpt>
      <trkpt lat="45.87077" lon="2.99596">
        <ele>755.7</ele>
        <time>1970-01-01T02:23:30.000Z</time>
      </trkpt>
      <trkpt lat="45.87078" lon="2.99595">
        <ele>755.9</ele>
        <time>1970-01-01T02:23:31.000Z</time>
      </trkpt>
      <trkpt lat="45.87078" lon="2.99593">
        <ele>756</ele>
        <time>1970-01-01T02:23:33.000Z</time>
      </trkpt>
      <trkpt lat="45.87078" lon="2.9959">
        <ele>756.3</ele>
        <time>1970-01-01T02:23:34.000Z</time>
      </trkpt>
      <trkpt lat="45.87078" lon="2.99589">
        <ele>756.4</ele>
        <time>1970-01-01T02:23:35.000Z</time>
      </trkpt>
      <trkpt lat="45.87078" lon="2.99587">
        <ele>756.5</ele>
        <time>1970-01-01T02:23:36.000Z</time>
      </trkpt>
      <trkpt lat="45.87078" lon="2.99586">
        <ele>756.6</ele>
        <time>1970-01-01T02:23:37.000Z</time>
      </trkpt>
      <trkpt lat="45.87079" lon="2.99585">
        <ele>756.7</ele>
        <time>1970-01-01T02:23:38.000Z</time>
      </trkpt>
      <trkpt lat="45.87079" lon="2.99584">
        <ele>756.9</ele>
        <time>1970-01-01T02:23:39.000Z</time>
      </trkpt>
      <trkpt lat="45.87079" lon="2.99582">
        <ele>757</ele>
        <time>1970-01-01T02:23:40.000Z</time>
      </trkpt>
      <trkpt lat="45.8708" lon="2.9958">
        <ele>757.2</ele>
        <time>1970-01-01T02:23:41.000Z</time>
      </trkpt>
      <trkpt lat="45.8708" lon="2.99578">
        <ele>757.4</ele>
        <time>1970-01-01T02:23:42.000Z</time>
      </trkpt>
      <trkpt lat="45.8708" lon="2.99576">
        <ele>757.6</ele>
        <time>1970-01-01T02:23:43.000Z</time>
      </trkpt>
      <trkpt lat="45.8708" lon="2.99573">
        <ele>757.9</ele>
        <time>1970-01-01T02:23:44.000Z</time>
      </trkpt>
      <trkpt lat="45.8708" lon="2.99572">
        <ele>758</ele>
        <time>1970-01-01T02:23:46.000Z</time>
      </trkpt>
      <trkpt lat="45.8708" lon="2.9957">
        <ele>758.1</ele>
        <time>1970-01-01T02:23:47.000Z</time>
      </trkpt>
      <trkpt lat="45.8708" lon="2.99569">
        <ele>758.2</ele>
        <time>1970-01-01T02:23:48.000Z</time>
      </trkpt>
      <trkpt lat="45.87081" lon="2.99567">
        <ele>758.4</ele>
        <time>1970-01-01T02:23:49.000Z</time>
      </trkpt>
      <trkpt lat="45.87081" lon="2.99566">
        <ele>758.5</ele>
        <time>1970-01-01T02:23:50.000Z</time>
      </trkpt>
      <trkpt lat="45.87082" lon="2.99565">
        <ele>758.7</ele>
        <time>1970-01-01T02:23:51.000Z</time>
      </trkpt>
      <trkpt lat="45.87082" lon="2.99563">
        <ele>758.8</ele>
        <time>1970-01-01T02:23:52.000Z</time>
      </trkpt>
      <trkpt lat="45.87082" lon="2.99562">
        <ele>758.9</ele>
        <time>1970-01-01T02:23:53.000Z</time>
      </trkpt>
      <trkpt lat="45.87083" lon="2.9956">
        <ele>759.2</ele>
        <time>1970-01-01T02:23:54.000Z</time>
      </trkpt>
      <trkpt lat="45.87083" lon="2.99558">
        <ele>759.3</ele>
        <time>1970-01-01T02:23:55.000Z</time>
      </trkpt>
      <trkpt lat="45.87083" lon="2.99557">
        <ele>759.4</ele>
        <time>1970-01-01T02:23:56.000Z</time>
      </trkpt>
      <trkpt lat="45.87083" lon="2.99555">
        <ele>759.6</ele>
        <time>1970-01-01T02:23:57.000Z</time>
      </trkpt>
      <trkpt lat="45.87084" lon="2.99553">
        <ele>759.8</ele>
        <time>1970-01-01T02:23:59.000Z</time>
      </trkpt>
      <trkpt lat="45.87084" lon="2.99551">
        <ele>760</ele>
        <time>1970-01-01T02:24:00.000Z</time>
      </trkpt>
      <trkpt lat="45.87084" lon="2.99548">
        <ele>760.2</ele>
        <time>1970-01-01T02:24:01.000Z</time>
      </trkpt>
      <trkpt lat="45.87084" lon="2.99545">
        <ele>760.5</ele>
        <time>1970-01-01T02:24:02.000Z</time>
      </trkpt>
      <trkpt lat="45.87084" lon="2.99544">
        <ele>760.6</ele>
        <time>1970-01-01T02:24:03.000Z</time>
      </trkpt>
      <trkpt lat="45.87084" lon="2.99543">
        <ele>760.7</ele>
        <time>1970-01-01T02:24:04.000Z</time>
      </trkpt>
      <trkpt lat="45.87084" lon="2.99539">
        <ele>761</ele>
        <time>1970-01-01T02:24:06.000Z</time>
      </trkpt>
      <trkpt lat="45.87085" lon="2.99537">
        <ele>761.2</ele>
        <time>1970-01-01T02:24:07.000Z</time>
      </trkpt>
      <trkpt lat="45.87086" lon="2.99535">
        <ele>761.4</ele>
        <time>1970-01-01T02:24:08.000Z</time>
      </trkpt>
      <trkpt lat="45.87087" lon="2.99533">
        <ele>761.5</ele>
        <time>1970-01-01T02:24:09.000Z</time>
      </trkpt>
      <trkpt lat="45.87087" lon="2.9953">
        <ele>761.7</ele>
        <time>1970-01-01T02:24:11.000Z</time>
      </trkpt>
      <trkpt lat="45.87088" lon="2.99529">
        <ele>761.8</ele>
        <time>1970-01-01T02:24:12.000Z</time>
      </trkpt>
      <trkpt lat="45.87088" lon="2.99528">
        <ele>761.9</ele>
        <time>1970-01-01T02:24:13.000Z</time>
      </trkpt>
      <trkpt lat="45.87088" lon="2.99526">
        <ele>762</ele>
        <time>1970-01-01T02:24:14.000Z</time>
      </trkpt>
      <trkpt lat="45.87089" lon="2.99524">
        <ele>762.1</ele>
        <time>1970-01-01T02:24:15.000Z</time>
      </trkpt>
      <trkpt lat="45.87089" lon="2.99522">
        <ele>762.2</ele>
        <time>1970-01-01T02:24:16.000Z</time>
      </trkpt>
      <trkpt lat="45.87089" lon="2.99519">
        <ele>762.3</ele>
        <time>1970-01-01T02:24:17.000Z</time>
      </trkpt>
      <trkpt lat="45.87088" lon="2.99517">
        <ele>762.4</ele>
        <time>1970-01-01T02:24:18.000Z</time>
      </trkpt>
      <trkpt lat="45.87088" lon="2.99515">
        <ele>762.5</ele>
        <time>1970-01-01T02:24:19.000Z</time>
      </trkpt>
      <trkpt lat="45.87086" lon="2.99513">
        <ele>762.6</ele>
        <time>1970-01-01T02:24:20.000Z</time>
      </trkpt>
      <trkpt lat="45.87085" lon="2.99513">
        <ele>762.7</ele>
        <time>1970-01-01T02:24:21.000Z</time>
      </trkpt>
      <trkpt lat="45.87083" lon="2.99511">
        <ele>762.8</ele>
        <time>1970-01-01T02:24:22.000Z</time>
      </trkpt>
      <trkpt lat="45.87083" lon="2.99509">
        <ele>762.9</ele>
        <time>1970-01-01T02:24:23.000Z</time>
      </trkpt>
      <trkpt lat="45.87083" lon="2.99508">
        <ele>762.9</ele>
        <time>1970-01-01T02:24:24.000Z</time>
      </trkpt>
      <trkpt lat="45.87083" lon="2.99506">
        <ele>763</ele>
        <time>1970-01-01T02:24:25.000Z</time>
      </trkpt>
      <trkpt lat="45.87084" lon="2.99505">
        <ele>763.1</ele>
        <time>1970-01-01T02:24:26.000Z</time>
      </trkpt>
      <trkpt lat="45.87085" lon="2.99503">
        <ele>763.2</ele>
        <time>1970-01-01T02:24:27.000Z</time>
      </trkpt>
      <trkpt lat="45.87086" lon="2.995">
        <ele>763.3</ele>
        <time>1970-01-01T02:24:28.000Z</time>
      </trkpt>
      <trkpt lat="45.87086" lon="2.99499">
        <ele>763.4</ele>
        <time>1970-01-01T02:24:29.000Z</time>
      </trkpt>
      <trkpt lat="45.87086" lon="2.99498">
        <ele>763.5</ele>
        <time>1970-01-01T02:24:30.000Z</time>
      </trkpt>
      <trkpt lat="45.87086" lon="2.99494">
        <ele>763.6</ele>
        <time>1970-01-01T02:24:31.000Z</time>
      </trkpt>
      <trkpt lat="45.87087" lon="2.99493">
        <ele>763.7</ele>
        <time>1970-01-01T02:24:32.000Z</time>
      </trkpt>
      <trkpt lat="45.87087" lon="2.99492">
        <ele>763.7</ele>
        <time>1970-01-01T02:24:33.000Z</time>
      </trkpt>
      <trkpt lat="45.87087" lon="2.99488">
        <ele>763.9</ele>
        <time>1970-01-01T02:24:34.000Z</time>
      </trkpt>
      <trkpt lat="45.87087" lon="2.99486">
        <ele>764</ele>
        <time>1970-01-01T02:24:35.000Z</time>
      </trkpt>
      <trkpt lat="45.87087" lon="2.99485">
        <ele>764.1</ele>
        <time>1970-01-01T02:24:36.000Z</time>
      </trkpt>
      <trkpt lat="45.87087" lon="2.99483">
        <ele>764.2</ele>
        <time>1970-01-01T02:24:37.000Z</time>
      </trkpt>
      <trkpt lat="45.87087" lon="2.99482">
        <ele>764.3</ele>
        <time>1970-01-01T02:24:38.000Z</time>
      </trkpt>
      <trkpt lat="45.87088" lon="2.99479">
        <ele>764.5</ele>
        <time>1970-01-01T02:24:39.000Z</time>
      </trkpt>
      <trkpt lat="45.87088" lon="2.99478">
        <ele>764.5</ele>
        <time>1970-01-01T02:24:40.000Z</time>
      </trkpt>
      <trkpt lat="45.87088" lon="2.99476">
        <ele>764.6</ele>
        <time>1970-01-01T02:24:41.000Z</time>
      </trkpt>
      <trkpt lat="45.87088" lon="2.99474">
        <ele>764.7</ele>
        <time>1970-01-01T02:24:42.000Z</time>
      </trkpt>
      <trkpt lat="45.87087" lon="2.99473">
        <ele>764.8</ele>
        <time>1970-01-01T02:24:43.000Z</time>
      </trkpt>
      <trkpt lat="45.87087" lon="2.99472">
        <ele>764.9</ele>
        <time>1970-01-01T02:24:44.000Z</time>
      </trkpt>
      <trkpt lat="45.87088" lon="2.9947">
        <ele>765</ele>
        <time>1970-01-01T02:24:45.000Z</time>
      </trkpt>
      <trkpt lat="45.87089" lon="2.99469">
        <ele>765.1</ele>
        <time>1970-01-01T02:24:46.000Z</time>
      </trkpt>
      <trkpt lat="45.87089" lon="2.99466">
        <ele>765.3</ele>
        <time>1970-01-01T02:24:47.000Z</time>
      </trkpt>
      <trkpt lat="45.87089" lon="2.99465">
        <ele>765.3</ele>
        <time>1970-01-01T02:24:48.000Z</time>
      </trkpt>
      <trkpt lat="45.87089" lon="2.99464">
        <ele>765.4</ele>
        <time>1970-01-01T02:24:49.000Z</time>
      </trkpt>
      <trkpt lat="45.87089" lon="2.9946">
        <ele>765.6</ele>
        <time>1970-01-01T02:24:50.000Z</time>
      </trkpt>
      <trkpt lat="45.87089" lon="2.99458">
        <ele>765.7</ele>
        <time>1970-01-01T02:24:51.000Z</time>
      </trkpt>
      <trkpt lat="45.87089" lon="2.99456">
        <ele>765.9</ele>
        <time>1970-01-01T02:24:52.000Z</time>
      </trkpt>
      <trkpt lat="45.87089" lon="2.99454">
        <ele>766</ele>
        <time>1970-01-01T02:24:53.000Z</time>
      </trkpt>
      <trkpt lat="45.87089" lon="2.99452">
        <ele>766.1</ele>
        <time>1970-01-01T02:24:54.000Z</time>
      </trkpt>
      <trkpt lat="45.87088" lon="2.9945">
        <ele>766.2</ele>
        <time>1970-01-01T02:24:55.000Z</time>
      </trkpt>
      <trkpt lat="45.87088" lon="2.99448">
        <ele>766.3</ele>
        <time>1970-01-01T02:24:56.000Z</time>
      </trkpt>
      <trkpt lat="45.87088" lon="2.99447">
        <ele>766.4</ele>
        <time>1970-01-01T02:24:57.000Z</time>
      </trkpt>
      <trkpt lat="45.87088" lon="2.99445">
        <ele>766.5</ele>
        <time>1970-01-01T02:24:58.000Z</time>
      </trkpt>
      <trkpt lat="45.87088" lon="2.99442">
        <ele>766.6</ele>
        <time>1970-01-01T02:24:59.000Z</time>
      </trkpt>
      <trkpt lat="45.87087" lon="2.99441">
        <ele>766.6</ele>
        <time>1970-01-01T02:25:00.000Z</time>
      </trkpt>
      <trkpt lat="45.87087" lon="2.99439">
        <ele>766.6</ele>
        <time>1970-01-01T02:25:01.000Z</time>
      </trkpt>
      <trkpt lat="45.87086" lon="2.99437">
        <ele>766.7</ele>
        <time>1970-01-01T02:25:02.000Z</time>
      </trkpt>
      <trkpt lat="45.87086" lon="2.99434">
        <ele>766.7</ele>
        <time>1970-01-01T02:25:03.000Z</time>
      </trkpt>
      <trkpt lat="45.87086" lon="2.99433">
        <ele>766.7</ele>
        <time>1970-01-01T02:25:04.000Z</time>
      </trkpt>
      <trkpt lat="45.87084" lon="2.99433">
        <ele>766.8</ele>
        <time>1970-01-01T02:25:06.000Z</time>
      </trkpt>
      <trkpt lat="45.87083" lon="2.99431">
        <ele>766.8</ele>
        <time>1970-01-01T02:25:07.000Z</time>
      </trkpt>
      <trkpt lat="45.87083" lon="2.99429">
        <ele>766.8</ele>
        <time>1970-01-01T02:25:08.000Z</time>
      </trkpt>
      <trkpt lat="45.87084" lon="2.99426">
        <ele>766.8</ele>
        <time>1970-01-01T02:25:09.000Z</time>
      </trkpt>
      <trkpt lat="45.87084" lon="2.99425">
        <ele>766.8</ele>
        <time>1970-01-01T02:25:10.000Z</time>
      </trkpt>
      <trkpt lat="45.87086" lon="2.9942">
        <ele>768.7</ele>
        <time>1970-01-01T02:25:12.000Z</time>
      </trkpt>
      <trkpt lat="45.87086" lon="2.99419">
        <ele>768.8</ele>
        <time>1970-01-01T02:25:13.000Z</time>
      </trkpt>
      <trkpt lat="45.87087" lon="2.99417">
        <ele>769</ele>
        <time>1970-01-01T02:25:14.000Z</time>
      </trkpt>
      <trkpt lat="45.87088" lon="2.99415">
        <ele>769.1</ele>
        <time>1970-01-01T02:25:15.000Z</time>
      </trkpt>
      <trkpt lat="45.87089" lon="2.99414">
        <ele>769.3</ele>
        <time>1970-01-01T02:25:16.000Z</time>
      </trkpt>
      <trkpt lat="45.8709" lon="2.99412">
        <ele>769.5</ele>
        <time>1970-01-01T02:25:17.000Z</time>
      </trkpt>
      <trkpt lat="45.87091" lon="2.99412">
        <ele>769.6</ele>
        <time>1970-01-01T02:25:18.000Z</time>
      </trkpt>
      <trkpt lat="45.87093" lon="2.99411">
        <ele>769.8</ele>
        <time>1970-01-01T02:25:19.000Z</time>
      </trkpt>
      <trkpt lat="45.87094" lon="2.99411">
        <ele>769.9</ele>
        <time>1970-01-01T02:25:20.000Z</time>
      </trkpt>
      <trkpt lat="45.87096" lon="2.99411">
        <ele>770.1</ele>
        <time>1970-01-01T02:25:21.000Z</time>
      </trkpt>
      <trkpt lat="45.87098" lon="2.9941">
        <ele>770.3</ele>
        <time>1970-01-01T02:25:22.000Z</time>
      </trkpt>
      <trkpt lat="45.87099" lon="2.9941">
        <ele>770.4</ele>
        <time>1970-01-01T02:25:23.000Z</time>
      </trkpt>
      <trkpt lat="45.871" lon="2.9941">
        <ele>770.5</ele>
        <time>1970-01-01T02:25:24.000Z</time>
      </trkpt>
      <trkpt lat="45.87102" lon="2.9941">
        <ele>770.7</ele>
        <time>1970-01-01T02:25:25.000Z</time>
      </trkpt>
      <trkpt lat="45.87103" lon="2.9941">
        <ele>770.9</ele>
        <time>1970-01-01T02:25:26.000Z</time>
      </trkpt>
      <trkpt lat="45.87106" lon="2.99409">
        <ele>771.1</ele>
        <time>1970-01-01T02:25:28.000Z</time>
      </trkpt>
      <trkpt lat="45.87107" lon="2.99408">
        <ele>771.3</ele>
        <time>1970-01-01T02:25:29.000Z</time>
      </trkpt>
      <trkpt lat="45.87108" lon="2.99407">
        <ele>771.4</ele>
        <time>1970-01-01T02:25:30.000Z</time>
      </trkpt>
      <trkpt lat="45.8711" lon="2.99405">
        <ele>771.6</ele>
        <time>1970-01-01T02:25:31.000Z</time>
      </trkpt>
      <trkpt lat="45.87111" lon="2.99404">
        <ele>771.7</ele>
        <time>1970-01-01T02:25:32.000Z</time>
      </trkpt>
      <trkpt lat="45.87112" lon="2.99403">
        <ele>771.9</ele>
        <time>1970-01-01T02:25:33.000Z</time>
      </trkpt>
      <trkpt lat="45.87113" lon="2.99404">
        <ele>772</ele>
        <time>1970-01-01T02:25:34.000Z</time>
      </trkpt>
      <trkpt lat="45.87115" lon="2.99404">
        <ele>772.1</ele>
        <time>1970-01-01T02:25:35.000Z</time>
      </trkpt>
      <trkpt lat="45.87116" lon="2.99403">
        <ele>772.3</ele>
        <time>1970-01-01T02:25:36.000Z</time>
      </trkpt>
      <trkpt lat="45.87117" lon="2.99403">
        <ele>772.4</ele>
        <time>1970-01-01T02:25:37.000Z</time>
      </trkpt>
      <trkpt lat="45.87119" lon="2.99402">
        <ele>772.6</ele>
        <time>1970-01-01T02:25:38.000Z</time>
      </trkpt>
      <trkpt lat="45.8712" lon="2.994">
        <ele>772.7</ele>
        <time>1970-01-01T02:25:39.000Z</time>
      </trkpt>
      <trkpt lat="45.87121" lon="2.99399">
        <ele>772.9</ele>
        <time>1970-01-01T02:25:40.000Z</time>
      </trkpt>
      <trkpt lat="45.87122" lon="2.99398">
        <ele>773</ele>
        <time>1970-01-01T02:25:41.000Z</time>
      </trkpt>
      <trkpt lat="45.87123" lon="2.99398">
        <ele>773.1</ele>
        <time>1970-01-01T02:25:42.000Z</time>
      </trkpt>
      <trkpt lat="45.87125" lon="2.99396">
        <ele>773.3</ele>
        <time>1970-01-01T02:25:43.000Z</time>
      </trkpt>
      <trkpt lat="45.87126" lon="2.99396">
        <ele>773.4</ele>
        <time>1970-01-01T02:25:44.000Z</time>
      </trkpt>
      <trkpt lat="45.87127" lon="2.99395">
        <ele>773.5</ele>
        <time>1970-01-01T02:25:45.000Z</time>
      </trkpt>
      <trkpt lat="45.87128" lon="2.99394">
        <ele>773.6</ele>
        <time>1970-01-01T02:25:46.000Z</time>
      </trkpt>
      <trkpt lat="45.87129" lon="2.99393">
        <ele>773.8</ele>
        <time>1970-01-01T02:25:47.000Z</time>
      </trkpt>
      <trkpt lat="45.8713" lon="2.99391">
        <ele>773.9</ele>
        <time>1970-01-01T02:25:48.000Z</time>
      </trkpt>
      <trkpt lat="45.87131" lon="2.9939">
        <ele>774.1</ele>
        <time>1970-01-01T02:25:49.000Z</time>
      </trkpt>
      <trkpt lat="45.87133" lon="2.99388">
        <ele>774.3</ele>
        <time>1970-01-01T02:25:50.000Z</time>
      </trkpt>
      <trkpt lat="45.87134" lon="2.99387">
        <ele>774.4</ele>
        <time>1970-01-01T02:25:51.000Z</time>
      </trkpt>
      <trkpt lat="45.87134" lon="2.99387">
        <ele>774.4</ele>
        <time>1970-01-01T02:25:52.000Z</time>
      </trkpt>
      <trkpt lat="45.87136" lon="2.99386">
        <ele>774.6</ele>
        <time>1970-01-01T02:25:53.000Z</time>
      </trkpt>
      <trkpt lat="45.87137" lon="2.99385">
        <ele>774.7</ele>
        <time>1970-01-01T02:25:54.000Z</time>
      </trkpt>
      <trkpt lat="45.87138" lon="2.99384">
        <ele>774.8</ele>
        <time>1970-01-01T02:25:55.000Z</time>
      </trkpt>
      <trkpt lat="45.87139" lon="2.99383">
        <ele>775</ele>
        <time>1970-01-01T02:25:56.000Z</time>
      </trkpt>
      <trkpt lat="45.8714" lon="2.99381">
        <ele>775.1</ele>
        <time>1970-01-01T02:25:57.000Z</time>
      </trkpt>
      <trkpt lat="45.87141" lon="2.99379">
        <ele>775.3</ele>
        <time>1970-01-01T02:25:58.000Z</time>
      </trkpt>
      <trkpt lat="45.87142" lon="2.99378">
        <ele>775.4</ele>
        <time>1970-01-01T02:25:59.000Z</time>
      </trkpt>
      <trkpt lat="45.87143" lon="2.99377">
        <ele>775.6</ele>
        <time>1970-01-01T02:26:00.000Z</time>
      </trkpt>
      <trkpt lat="45.87145" lon="2.99376">
        <ele>775.7</ele>
        <time>1970-01-01T02:26:01.000Z</time>
      </trkpt>
      <trkpt lat="45.87146" lon="2.99374">
        <ele>775.8</ele>
        <time>1970-01-01T02:26:02.000Z</time>
      </trkpt>
      <trkpt lat="45.87147" lon="2.99373">
        <ele>776</ele>
        <time>1970-01-01T02:26:03.000Z</time>
      </trkpt>
      <trkpt lat="45.87148" lon="2.99371">
        <ele>776.1</ele>
        <time>1970-01-01T02:26:04.000Z</time>
      </trkpt>
      <trkpt lat="45.87149" lon="2.9937">
        <ele>776.3</ele>
        <time>1970-01-01T02:26:05.000Z</time>
      </trkpt>
      <trkpt lat="45.8715" lon="2.99369">
        <ele>776.4</ele>
        <time>1970-01-01T02:26:06.000Z</time>
      </trkpt>
      <trkpt lat="45.87152" lon="2.99368">
        <ele>776.5</ele>
        <time>1970-01-01T02:26:07.000Z</time>
      </trkpt>
      <trkpt lat="45.87153" lon="2.99366">
        <ele>776.7</ele>
        <time>1970-01-01T02:26:08.000Z</time>
      </trkpt>
      <trkpt lat="45.87154" lon="2.99365">
        <ele>776.8</ele>
        <time>1970-01-01T02:26:09.000Z</time>
      </trkpt>
      <trkpt lat="45.87155" lon="2.99363">
        <ele>777</ele>
        <time>1970-01-01T02:26:10.000Z</time>
      </trkpt>
      <trkpt lat="45.87156" lon="2.99361">
        <ele>777.1</ele>
        <time>1970-01-01T02:26:11.000Z</time>
      </trkpt>
      <trkpt lat="45.87158" lon="2.99358">
        <ele>777.4</ele>
        <time>1970-01-01T02:26:13.000Z</time>
      </trkpt>
      <trkpt lat="45.87159" lon="2.99356">
        <ele>777.6</ele>
        <time>1970-01-01T02:26:14.000Z</time>
      </trkpt>
      <trkpt lat="45.8716" lon="2.99354">
        <ele>777.7</ele>
        <time>1970-01-01T02:26:15.000Z</time>
      </trkpt>
      <trkpt lat="45.87161" lon="2.99352">
        <ele>777.9</ele>
        <time>1970-01-01T02:26:16.000Z</time>
      </trkpt>
      <trkpt lat="45.87161" lon="2.99351">
        <ele>778</ele>
        <time>1970-01-01T02:26:17.000Z</time>
      </trkpt>
      <trkpt lat="45.87162" lon="2.99349">
        <ele>778.2</ele>
        <time>1970-01-01T02:26:18.000Z</time>
      </trkpt>
      <trkpt lat="45.87163" lon="2.99347">
        <ele>778.3</ele>
        <time>1970-01-01T02:26:19.000Z</time>
      </trkpt>
      <trkpt lat="45.87164" lon="2.99345">
        <ele>778.5</ele>
        <time>1970-01-01T02:26:20.000Z</time>
      </trkpt>
      <trkpt lat="45.87165" lon="2.99343">
        <ele>778.6</ele>
        <time>1970-01-01T02:26:21.000Z</time>
      </trkpt>
      <trkpt lat="45.87165" lon="2.99341">
        <ele>778.7</ele>
        <time>1970-01-01T02:26:22.000Z</time>
      </trkpt>
      <trkpt lat="45.87166" lon="2.99339">
        <ele>778.9</ele>
        <time>1970-01-01T02:26:23.000Z</time>
      </trkpt>
      <trkpt lat="45.87166" lon="2.99336">
        <ele>779.1</ele>
        <time>1970-01-01T02:26:24.000Z</time>
      </trkpt>
      <trkpt lat="45.87167" lon="2.99333">
        <ele>779.3</ele>
        <time>1970-01-01T02:26:26.000Z</time>
      </trkpt>
      <trkpt lat="45.87167" lon="2.99331">
        <ele>779.5</ele>
        <time>1970-01-01T02:26:27.000Z</time>
      </trkpt>
      <trkpt lat="45.87168" lon="2.9933">
        <ele>779.6</ele>
        <time>1970-01-01T02:26:28.000Z</time>
      </trkpt>
      <trkpt lat="45.87168" lon="2.99328">
        <ele>779.7</ele>
        <time>1970-01-01T02:26:29.000Z</time>
      </trkpt>
      <trkpt lat="45.87169" lon="2.99326">
        <ele>779.8</ele>
        <time>1970-01-01T02:26:30.000Z</time>
      </trkpt>
      <trkpt lat="45.87168" lon="2.99324">
        <ele>779.9</ele>
        <time>1970-01-01T02:26:31.000Z</time>
      </trkpt>
      <trkpt lat="45.87168" lon="2.99323">
        <ele>780.1</ele>
        <time>1970-01-01T02:26:32.000Z</time>
      </trkpt>
      <trkpt lat="45.87168" lon="2.99321">
        <ele>780.2</ele>
        <time>1970-01-01T02:26:33.000Z</time>
      </trkpt>
      <trkpt lat="45.87167" lon="2.99319">
        <ele>780.4</ele>
        <time>1970-01-01T02:26:34.000Z</time>
      </trkpt>
      <trkpt lat="45.87166" lon="2.99316">
        <ele>780.5</ele>
        <time>1970-01-01T02:26:35.000Z</time>
      </trkpt>
      <trkpt lat="45.87166" lon="2.99314">
        <ele>780.7</ele>
        <time>1970-01-01T02:26:36.000Z</time>
      </trkpt>
      <trkpt lat="45.87165" lon="2.99312">
        <ele>780.8</ele>
        <time>1970-01-01T02:26:37.000Z</time>
      </trkpt>
      <trkpt lat="45.87164" lon="2.9931">
        <ele>781</ele>
        <time>1970-01-01T02:26:38.000Z</time>
      </trkpt>
      <trkpt lat="45.87164" lon="2.99308">
        <ele>781.2</ele>
        <time>1970-01-01T02:26:39.000Z</time>
      </trkpt>
      <trkpt lat="45.87163" lon="2.99306">
        <ele>781.3</ele>
        <time>1970-01-01T02:26:40.000Z</time>
      </trkpt>
      <trkpt lat="45.87163" lon="2.99304">
        <ele>781.5</ele>
        <time>1970-01-01T02:26:41.000Z</time>
      </trkpt>
      <trkpt lat="45.87162" lon="2.99302">
        <ele>781.6</ele>
        <time>1970-01-01T02:26:42.000Z</time>
      </trkpt>
      <trkpt lat="45.87162" lon="2.993">
        <ele>781.8</ele>
        <time>1970-01-01T02:26:43.000Z</time>
      </trkpt>
      <trkpt lat="45.87161" lon="2.99296">
        <ele>782</ele>
        <time>1970-01-01T02:26:44.000Z</time>
      </trkpt>
      <trkpt lat="45.87161" lon="2.99295">
        <ele>782.1</ele>
        <time>1970-01-01T02:26:45.000Z</time>
      </trkpt>
      <trkpt lat="45.87161" lon="2.99294">
        <ele>782.2</ele>
        <time>1970-01-01T02:26:46.000Z</time>
      </trkpt>
      <trkpt lat="45.87159" lon="2.99292">
        <ele>782.4</ele>
        <time>1970-01-01T02:26:47.000Z</time>
      </trkpt>
      <trkpt lat="45.87158" lon="2.9929">
        <ele>782.5</ele>
        <time>1970-01-01T02:26:48.000Z</time>
      </trkpt>
      <trkpt lat="45.87158" lon="2.99287">
        <ele>782.7</ele>
        <time>1970-01-01T02:26:49.000Z</time>
      </trkpt>
      <trkpt lat="45.87158" lon="2.99286">
        <ele>782.8</ele>
        <time>1970-01-01T02:26:50.000Z</time>
      </trkpt>
      <trkpt lat="45.87158" lon="2.99285">
        <ele>782.9</ele>
        <time>1970-01-01T02:26:51.000Z</time>
      </trkpt>
      <trkpt lat="45.87157" lon="2.99282">
        <ele>783.1</ele>
        <time>1970-01-01T02:26:52.000Z</time>
      </trkpt>
      <trkpt lat="45.87157" lon="2.9928">
        <ele>783.2</ele>
        <time>1970-01-01T02:26:53.000Z</time>
      </trkpt>
      <trkpt lat="45.87157" lon="2.99279">
        <ele>783.3</ele>
        <time>1970-01-01T02:26:54.000Z</time>
      </trkpt>
      <trkpt lat="45.87156" lon="2.99277">
        <ele>783.4</ele>
        <time>1970-01-01T02:26:55.000Z</time>
      </trkpt>
      <trkpt lat="45.87157" lon="2.99275">
        <ele>783.6</ele>
        <time>1970-01-01T02:26:56.000Z</time>
      </trkpt>
      <trkpt lat="45.87157" lon="2.99272">
        <ele>783.8</ele>
        <time>1970-01-01T02:26:57.000Z</time>
      </trkpt>
      <trkpt lat="45.87157" lon="2.99271">
        <ele>783.9</ele>
        <time>1970-01-01T02:26:58.000Z</time>
      </trkpt>
      <trkpt lat="45.87156" lon="2.99269">
        <ele>784</ele>
        <time>1970-01-01T02:26:59.000Z</time>
      </trkpt>
      <trkpt lat="45.87156" lon="2.99267">
        <ele>784.2</ele>
        <time>1970-01-01T02:27:00.000Z</time>
      </trkpt>
      <trkpt lat="45.87155" lon="2.99265">
        <ele>784.3</ele>
        <time>1970-01-01T02:27:01.000Z</time>
      </trkpt>
      <trkpt lat="45.87155" lon="2.99263">
        <ele>784.5</ele>
        <time>1970-01-01T02:27:02.000Z</time>
      </trkpt>
      <trkpt lat="45.87154" lon="2.9926">
        <ele>784.7</ele>
        <time>1970-01-01T02:27:03.000Z</time>
      </trkpt>
      <trkpt lat="45.87153" lon="2.99258">
        <ele>784.8</ele>
        <time>1970-01-01T02:27:04.000Z</time>
      </trkpt>
      <trkpt lat="45.87153" lon="2.99257">
        <ele>784.9</ele>
        <time>1970-01-01T02:27:05.000Z</time>
      </trkpt>
      <trkpt lat="45.87153" lon="2.99255">
        <ele>785.1</ele>
        <time>1970-01-01T02:27:06.000Z</time>
      </trkpt>
      <trkpt lat="45.87152" lon="2.99252">
        <ele>785.3</ele>
        <time>1970-01-01T02:27:07.000Z</time>
      </trkpt>
      <trkpt lat="45.87151" lon="2.9925">
        <ele>785.5</ele>
        <time>1970-01-01T02:27:08.000Z</time>
      </trkpt>
      <trkpt lat="45.8715" lon="2.99249">
        <ele>785.6</ele>
        <time>1970-01-01T02:27:09.000Z</time>
      </trkpt>
      <trkpt lat="45.87149" lon="2.99249">
        <ele>785.6</ele>
        <time>1970-01-01T02:27:10.000Z</time>
      </trkpt>
      <trkpt lat="45.87148" lon="2.99247">
        <ele>785.8</ele>
        <time>1970-01-01T02:27:11.000Z</time>
      </trkpt>
      <trkpt lat="45.87146" lon="2.99246">
        <ele>786</ele>
        <time>1970-01-01T02:27:12.000Z</time>
      </trkpt>
      <trkpt lat="45.87145" lon="2.99244">
        <ele>786.1</ele>
        <time>1970-01-01T02:27:13.000Z</time>
      </trkpt>
      <trkpt lat="45.87144" lon="2.99244">
        <ele>786.2</ele>
        <time>1970-01-01T02:27:14.000Z</time>
      </trkpt>
      <trkpt lat="45.87143" lon="2.99243">
        <ele>786.3</ele>
        <time>1970-01-01T02:27:15.000Z</time>
      </trkpt>
      <trkpt lat="45.87141" lon="2.99242">
        <ele>786.5</ele>
        <time>1970-01-01T02:27:16.000Z</time>
      </trkpt>
      <trkpt lat="45.87141" lon="2.99241">
        <ele>786.6</ele>
        <time>1970-01-01T02:27:17.000Z</time>
      </trkpt>
      <trkpt lat="45.8714" lon="2.9924">
        <ele>786.7</ele>
        <time>1970-01-01T02:27:18.000Z</time>
      </trkpt>
      <trkpt lat="45.87138" lon="2.99237">
        <ele>786.9</ele>
        <time>1970-01-01T02:27:19.000Z</time>
      </trkpt>
      <trkpt lat="45.87138" lon="2.99236">
        <ele>787</ele>
        <time>1970-01-01T02:27:20.000Z</time>
      </trkpt>
      <trkpt lat="45.87136" lon="2.99234">
        <ele>787.2</ele>
        <time>1970-01-01T02:27:21.000Z</time>
      </trkpt>
      <trkpt lat="45.87136" lon="2.99233">
        <ele>787.2</ele>
        <time>1970-01-01T02:27:22.000Z</time>
      </trkpt>
      <trkpt lat="45.87135" lon="2.99232">
        <ele>787.3</ele>
        <time>1970-01-01T02:27:23.000Z</time>
      </trkpt>
      <trkpt lat="45.87134" lon="2.99231">
        <ele>787.4</ele>
        <time>1970-01-01T02:27:24.000Z</time>
      </trkpt>
      <trkpt lat="45.87133" lon="2.99229">
        <ele>787.6</ele>
        <time>1970-01-01T02:27:25.000Z</time>
      </trkpt>
      <trkpt lat="45.87132" lon="2.99227">
        <ele>787.7</ele>
        <time>1970-01-01T02:27:26.000Z</time>
      </trkpt>
      <trkpt lat="45.87131" lon="2.99225">
        <ele>787.9</ele>
        <time>1970-01-01T02:27:27.000Z</time>
      </trkpt>
      <trkpt lat="45.8713" lon="2.99224">
        <ele>788</ele>
        <time>1970-01-01T02:27:28.000Z</time>
      </trkpt>
      <trkpt lat="45.87129" lon="2.99222">
        <ele>788.1</ele>
        <time>1970-01-01T02:27:29.000Z</time>
      </trkpt>
      <trkpt lat="45.87128" lon="2.99219">
        <ele>788.4</ele>
        <time>1970-01-01T02:27:30.000Z</time>
      </trkpt>
      <trkpt lat="45.87127" lon="2.99217">
        <ele>788.5</ele>
        <time>1970-01-01T02:27:31.000Z</time>
      </trkpt>
      <trkpt lat="45.87126" lon="2.99215">
        <ele>788.6</ele>
        <time>1970-01-01T02:27:32.000Z</time>
      </trkpt>
      <trkpt lat="45.87126" lon="2.99213">
        <ele>788.8</ele>
        <time>1970-01-01T02:27:33.000Z</time>
      </trkpt>
      <trkpt lat="45.87125" lon="2.9921">
        <ele>788.9</ele>
        <time>1970-01-01T02:27:34.000Z</time>
      </trkpt>
      <trkpt lat="45.87124" lon="2.99207">
        <ele>789.2</ele>
        <time>1970-01-01T02:27:36.000Z</time>
      </trkpt>
      <trkpt lat="45.87123" lon="2.99204">
        <ele>789.4</ele>
        <time>1970-01-01T02:27:37.000Z</time>
      </trkpt>
      <trkpt lat="45.87122" lon="2.99202">
        <ele>789.5</ele>
        <time>1970-01-01T02:27:38.000Z</time>
      </trkpt>
      <trkpt lat="45.87122" lon="2.99201">
        <ele>789.6</ele>
        <time>1970-01-01T02:27:39.000Z</time>
      </trkpt>
      <trkpt lat="45.87121" lon="2.99199">
        <ele>789.8</ele>
        <time>1970-01-01T02:27:40.000Z</time>
      </trkpt>
      <trkpt lat="45.87121" lon="2.99197">
        <ele>789.9</ele>
        <time>1970-01-01T02:27:41.000Z</time>
      </trkpt>
      <trkpt lat="45.8712" lon="2.99195">
        <ele>790</ele>
        <time>1970-01-01T02:27:42.000Z</time>
      </trkpt>
      <trkpt lat="45.87119" lon="2.99193">
        <ele>790.1</ele>
        <time>1970-01-01T02:27:43.000Z</time>
      </trkpt>
      <trkpt lat="45.87118" lon="2.99192">
        <ele>790.3</ele>
        <time>1970-01-01T02:27:44.000Z</time>
      </trkpt>
      <trkpt lat="45.87118" lon="2.99189">
        <ele>790.4</ele>
        <time>1970-01-01T02:27:45.000Z</time>
      </trkpt>
      <trkpt lat="45.87118" lon="2.99187">
        <ele>790.5</ele>
        <time>1970-01-01T02:27:46.000Z</time>
      </trkpt>
      <trkpt lat="45.87117" lon="2.99186">
        <ele>790.6</ele>
        <time>1970-01-01T02:27:47.000Z</time>
      </trkpt>
      <trkpt lat="45.87116" lon="2.99185">
        <ele>790.8</ele>
        <time>1970-01-01T02:27:48.000Z</time>
      </trkpt>
      <trkpt lat="45.87115" lon="2.99183">
        <ele>790.9</ele>
        <time>1970-01-01T02:27:49.000Z</time>
      </trkpt>
      <trkpt lat="45.87115" lon="2.9918">
        <ele>791.1</ele>
        <time>1970-01-01T02:27:50.000Z</time>
      </trkpt>
      <trkpt lat="45.87114" lon="2.99178">
        <ele>791.2</ele>
        <time>1970-01-01T02:27:51.000Z</time>
      </trkpt>
      <trkpt lat="45.87114" lon="2.99176">
        <ele>791.3</ele>
        <time>1970-01-01T02:27:52.000Z</time>
      </trkpt>
      <trkpt lat="45.87114" lon="2.99174">
        <ele>791.3</ele>
        <time>1970-01-01T02:27:53.000Z</time>
      </trkpt>
      <trkpt lat="45.87113" lon="2.99172">
        <ele>791.3</ele>
        <time>1970-01-01T02:27:54.000Z</time>
      </trkpt>
      <trkpt lat="45.87113" lon="2.9917">
        <ele>791.3</ele>
        <time>1970-01-01T02:27:55.000Z</time>
      </trkpt>
      <trkpt lat="45.87113" lon="2.99168">
        <ele>791.3</ele>
        <time>1970-01-01T02:27:56.000Z</time>
      </trkpt>
      <trkpt lat="45.87111" lon="2.99166">
        <ele>791.3</ele>
        <time>1970-01-01T02:27:57.000Z</time>
      </trkpt>
      <trkpt lat="45.87111" lon="2.99164">
        <ele>791.3</ele>
        <time>1970-01-01T02:27:58.000Z</time>
      </trkpt>
      <trkpt lat="45.8711" lon="2.99161">
        <ele>791.3</ele>
        <time>1970-01-01T02:27:59.000Z</time>
      </trkpt>
      <trkpt lat="45.8711" lon="2.99159">
        <ele>791.3</ele>
        <time>1970-01-01T02:28:00.000Z</time>
      </trkpt>
      <trkpt lat="45.8711" lon="2.99157">
        <ele>791.2</ele>
        <time>1970-01-01T02:28:01.000Z</time>
      </trkpt>
      <trkpt lat="45.8711" lon="2.99153">
        <ele>791.2</ele>
        <time>1970-01-01T02:28:02.000Z</time>
      </trkpt>
      <trkpt lat="45.87111" lon="2.99151">
        <ele>791.2</ele>
        <time>1970-01-01T02:28:03.000Z</time>
      </trkpt>
      <trkpt lat="45.87111" lon="2.99147">
        <ele>791.1</ele>
        <time>1970-01-01T02:28:04.000Z</time>
      </trkpt>
      <trkpt lat="45.87113" lon="2.99142">
        <ele>791.1</ele>
        <time>1970-01-01T02:28:05.000Z</time>
      </trkpt>
      <trkpt lat="45.87114" lon="2.99138">
        <ele>791</ele>
        <time>1970-01-01T02:28:06.000Z</time>
      </trkpt>
      <trkpt lat="45.87117" lon="2.99134">
        <ele>791</ele>
        <time>1970-01-01T02:28:08.000Z</time>
      </trkpt>
      <trkpt lat="45.87117" lon="2.99133">
        <ele>791</ele>
        <time>1970-01-01T02:28:09.000Z</time>
      </trkpt>
      <trkpt lat="45.87118" lon="2.99131">
        <ele>791</ele>
        <time>1970-01-01T02:28:10.000Z</time>
      </trkpt>
      <trkpt lat="45.87119" lon="2.99129">
        <ele>791</ele>
        <time>1970-01-01T02:28:11.000Z</time>
      </trkpt>
      <trkpt lat="45.8712" lon="2.99128">
        <ele>791</ele>
        <time>1970-01-01T02:28:12.000Z</time>
      </trkpt>
      <trkpt lat="45.8712" lon="2.99126">
        <ele>790.9</ele>
        <time>1970-01-01T02:28:13.000Z</time>
      </trkpt>
      <trkpt lat="45.87121" lon="2.99125">
        <ele>790.9</ele>
        <time>1970-01-01T02:28:14.000Z</time>
      </trkpt>
      <trkpt lat="45.87121" lon="2.99124">
        <ele>790.9</ele>
        <time>1970-01-01T02:28:15.000Z</time>
      </trkpt>
      <trkpt lat="45.87122" lon="2.99122">
        <ele>790.9</ele>
        <time>1970-01-01T02:28:16.000Z</time>
      </trkpt>
      <trkpt lat="45.87122" lon="2.99121">
        <ele>790.9</ele>
        <time>1970-01-01T02:28:17.000Z</time>
      </trkpt>
      <trkpt lat="45.87124" lon="2.99118">
        <ele>790.9</ele>
        <time>1970-01-01T02:28:18.000Z</time>
      </trkpt>
      <trkpt lat="45.87127" lon="2.99116">
        <ele>790.9</ele>
        <time>1970-01-01T02:28:20.000Z</time>
      </trkpt>
      <trkpt lat="45.87128" lon="2.99114">
        <ele>790.9</ele>
        <time>1970-01-01T02:28:21.000Z</time>
      </trkpt>
      <trkpt lat="45.87129" lon="2.99111">
        <ele>790.9</ele>
        <time>1970-01-01T02:28:22.000Z</time>
      </trkpt>
      <trkpt lat="45.87129" lon="2.9911">
        <ele>790.9</ele>
        <time>1970-01-01T02:28:23.000Z</time>
      </trkpt>
      <trkpt lat="45.8713" lon="2.99109">
        <ele>790.9</ele>
        <time>1970-01-01T02:28:24.000Z</time>
      </trkpt>
      <trkpt lat="45.87132" lon="2.99106">
        <ele>790.9</ele>
        <time>1970-01-01T02:28:26.000Z</time>
      </trkpt>
      <trkpt lat="45.87133" lon="2.99105">
        <ele>790.9</ele>
        <time>1970-01-01T02:28:27.000Z</time>
      </trkpt>
      <trkpt lat="45.87134" lon="2.99103">
        <ele>790.9</ele>
        <time>1970-01-01T02:28:28.000Z</time>
      </trkpt>
      <trkpt lat="45.87137" lon="2.99101">
        <ele>790.9</ele>
        <time>1970-01-01T02:28:30.000Z</time>
      </trkpt>
      <trkpt lat="45.87137" lon="2.991">
        <ele>790.9</ele>
        <time>1970-01-01T02:28:31.000Z</time>
      </trkpt>
      <trkpt lat="45.87139" lon="2.99099">
        <ele>790.9</ele>
        <time>1970-01-01T02:28:32.000Z</time>
      </trkpt>
      <trkpt lat="45.8714" lon="2.99097">
        <ele>791</ele>
        <time>1970-01-01T02:28:33.000Z</time>
      </trkpt>
      <trkpt lat="45.87141" lon="2.99095">
        <ele>791</ele>
        <time>1970-01-01T02:28:34.000Z</time>
      </trkpt>
      <trkpt lat="45.87142" lon="2.99093">
        <ele>791</ele>
        <time>1970-01-01T02:28:35.000Z</time>
      </trkpt>
      <trkpt lat="45.87143" lon="2.99092">
        <ele>791</ele>
        <time>1970-01-01T02:28:36.000Z</time>
      </trkpt>
      <trkpt lat="45.87144" lon="2.99091">
        <ele>791</ele>
        <time>1970-01-01T02:28:37.000Z</time>
      </trkpt>
      <trkpt lat="45.87145" lon="2.9909">
        <ele>791</ele>
        <time>1970-01-01T02:28:38.000Z</time>
      </trkpt>
      <trkpt lat="45.87146" lon="2.99089">
        <ele>791</ele>
        <time>1970-01-01T02:28:39.000Z</time>
      </trkpt>
      <trkpt lat="45.87147" lon="2.99087">
        <ele>790.9</ele>
        <time>1970-01-01T02:28:40.000Z</time>
      </trkpt>
      <trkpt lat="45.87149" lon="2.99085">
        <ele>790.9</ele>
        <time>1970-01-01T02:28:41.000Z</time>
      </trkpt>
      <trkpt lat="45.8715" lon="2.99084">
        <ele>790.9</ele>
        <time>1970-01-01T02:28:42.000Z</time>
      </trkpt>
      <trkpt lat="45.8715" lon="2.99084">
        <ele>790.9</ele>
        <time>1970-01-01T02:28:43.000Z</time>
      </trkpt>
      <trkpt lat="45.87152" lon="2.99081">
        <ele>790.9</ele>
        <time>1970-01-01T02:28:44.000Z</time>
      </trkpt>
      <trkpt lat="45.87154" lon="2.9908">
        <ele>790.9</ele>
        <time>1970-01-01T02:28:45.000Z</time>
      </trkpt>
      <trkpt lat="45.87157" lon="2.99075">
        <ele>790.9</ele>
        <time>1970-01-01T02:28:47.000Z</time>
      </trkpt>
      <trkpt lat="45.87157" lon="2.99073">
        <ele>790.9</ele>
        <time>1970-01-01T02:28:48.000Z</time>
      </trkpt>
      <trkpt lat="45.87158" lon="2.99071">
        <ele>790.8</ele>
        <time>1970-01-01T02:28:49.000Z</time>
      </trkpt>
      <trkpt lat="45.8716" lon="2.99067">
        <ele>790.8</ele>
        <time>1970-01-01T02:28:50.000Z</time>
      </trkpt>
      <trkpt lat="45.87161" lon="2.99066">
        <ele>790.7</ele>
        <time>1970-01-01T02:28:51.000Z</time>
      </trkpt>
      <trkpt lat="45.87163" lon="2.99062">
        <ele>790.6</ele>
        <time>1970-01-01T02:28:52.000Z</time>
      </trkpt>
      <trkpt lat="45.87164" lon="2.99061">
        <ele>790.6</ele>
        <time>1970-01-01T02:28:53.000Z</time>
      </trkpt>
      <trkpt lat="45.87166" lon="2.99058">
        <ele>790.4</ele>
        <time>1970-01-01T02:28:54.000Z</time>
      </trkpt>
      <trkpt lat="45.8717" lon="2.99054">
        <ele>790.2</ele>
        <time>1970-01-01T02:28:55.000Z</time>
      </trkpt>
      <trkpt lat="45.87173" lon="2.99051">
        <ele>789.9</ele>
        <time>1970-01-01T02:28:56.000Z</time>
      </trkpt>
      <trkpt lat="45.87181" lon="2.99042">
        <ele>789.1</ele>
        <time>1970-01-01T02:28:58.000Z</time>
      </trkpt>
      <trkpt lat="45.87186" lon="2.99038">
        <ele>788.6</ele>
        <time>1970-01-01T02:28:59.000Z</time>
      </trkpt>
      <trkpt lat="45.87191" lon="2.99034">
        <ele>788.1</ele>
        <time>1970-01-01T02:29:00.000Z</time>
      </trkpt>
      <trkpt lat="45.87197" lon="2.9903">
        <ele>787.6</ele>
        <time>1970-01-01T02:29:01.000Z</time>
      </trkpt>
      <trkpt lat="45.87203" lon="2.99025">
        <ele>787.1</ele>
        <time>1970-01-01T02:29:02.000Z</time>
      </trkpt>
      <trkpt lat="45.87209" lon="2.9902">
        <ele>786.7</ele>
        <time>1970-01-01T02:29:03.000Z</time>
      </trkpt>
      <trkpt lat="45.87215" lon="2.99016">
        <ele>786.4</ele>
        <time>1970-01-01T02:29:04.000Z</time>
      </trkpt>
      <trkpt lat="45.8722" lon="2.99012">
        <ele>786.2</ele>
        <time>1970-01-01T02:29:05.000Z</time>
      </trkpt>
      <trkpt lat="45.87225" lon="2.99009">
        <ele>786</ele>
        <time>1970-01-01T02:29:06.000Z</time>
      </trkpt>
      <trkpt lat="45.87229" lon="2.99008">
        <ele>785.8</ele>
        <time>1970-01-01T02:29:07.000Z</time>
      </trkpt>
      <trkpt lat="45.87233" lon="2.99008">
        <ele>785.7</ele>
        <time>1970-01-01T02:29:08.000Z</time>
      </trkpt>
      <trkpt lat="45.87236" lon="2.9901">
        <ele>785.6</ele>
        <time>1970-01-01T02:29:09.000Z</time>
      </trkpt>
      <trkpt lat="45.87241" lon="2.99015">
        <ele>785.3</ele>
        <time>1970-01-01T02:29:10.000Z</time>
      </trkpt>
      <trkpt lat="45.87245" lon="2.99019">
        <ele>785.1</ele>
        <time>1970-01-01T02:29:11.000Z</time>
      </trkpt>
      <trkpt lat="45.87249" lon="2.9902">
        <ele>784.9</ele>
        <time>1970-01-01T02:29:12.000Z</time>
      </trkpt>
      <trkpt lat="45.87252" lon="2.99019">
        <ele>784.8</ele>
        <time>1970-01-01T02:29:13.000Z</time>
      </trkpt>
      <trkpt lat="45.87255" lon="2.99017">
        <ele>784.2</ele>
        <time>1970-01-01T02:29:14.000Z</time>
      </trkpt>
      <trkpt lat="45.8726" lon="2.99013">
        <ele>784.2</ele>
        <time>1970-01-01T02:29:15.000Z</time>
      </trkpt>
      <trkpt lat="45.87264" lon="2.99009">
        <ele>784.2</ele>
        <time>1970-01-01T02:29:17.000Z</time>
      </trkpt>
      <trkpt lat="45.87267" lon="2.99004">
        <ele>784.3</ele>
        <time>1970-01-01T02:29:18.000Z</time>
      </trkpt>
      <trkpt lat="45.87268" lon="2.98999">
        <ele>784.4</ele>
        <time>1970-01-01T02:29:19.000Z</time>
      </trkpt>
      <trkpt lat="45.8727" lon="2.98991">
        <ele>784.5</ele>
        <time>1970-01-01T02:29:20.000Z</time>
      </trkpt>
      <trkpt lat="45.87269" lon="2.98984">
        <ele>784.6</ele>
        <time>1970-01-01T02:29:22.000Z</time>
      </trkpt>
      <trkpt lat="45.87268" lon="2.98978">
        <ele>784.7</ele>
        <time>1970-01-01T02:29:23.000Z</time>
      </trkpt>
      <trkpt lat="45.87267" lon="2.98972">
        <ele>784.9</ele>
        <time>1970-01-01T02:29:24.000Z</time>
      </trkpt>
      <trkpt lat="45.87266" lon="2.98967">
        <ele>785</ele>
        <time>1970-01-01T02:29:25.000Z</time>
      </trkpt>
      <trkpt lat="45.87265" lon="2.98961">
        <ele>785.1</ele>
        <time>1970-01-01T02:29:26.000Z</time>
      </trkpt>
      <trkpt lat="45.87264" lon="2.98955">
        <ele>785.2</ele>
        <time>1970-01-01T02:29:28.000Z</time>
      </trkpt>
      <trkpt lat="45.87264" lon="2.9895">
        <ele>785.3</ele>
        <time>1970-01-01T02:29:29.000Z</time>
      </trkpt>
      <trkpt lat="45.87263" lon="2.98945">
        <ele>785.4</ele>
        <time>1970-01-01T02:29:30.000Z</time>
      </trkpt>
      <trkpt lat="45.87262" lon="2.9894">
        <ele>785.5</ele>
        <time>1970-01-01T02:29:31.000Z</time>
      </trkpt>
      <trkpt lat="45.87261" lon="2.98933">
        <ele>785.6</ele>
        <time>1970-01-01T02:29:33.000Z</time>
      </trkpt>
      <trkpt lat="45.87261" lon="2.9893">
        <ele>785.7</ele>
        <time>1970-01-01T02:29:34.000Z</time>
      </trkpt>
      <trkpt lat="45.87262" lon="2.98925">
        <ele>785.8</ele>
        <time>1970-01-01T02:29:35.000Z</time>
      </trkpt>
      <trkpt lat="45.87261" lon="2.98919">
        <ele>785.9</ele>
        <time>1970-01-01T02:29:36.000Z</time>
      </trkpt>
      <trkpt lat="45.87261" lon="2.98917">
        <ele>785.9</ele>
        <time>1970-01-01T02:29:37.000Z</time>
      </trkpt>
      <trkpt lat="45.87261" lon="2.98912">
        <ele>786</ele>
        <time>1970-01-01T02:29:38.000Z</time>
      </trkpt>
      <trkpt lat="45.87261" lon="2.9891">
        <ele>786</ele>
        <time>1970-01-01T02:29:39.000Z</time>
      </trkpt>
      <trkpt lat="45.87262" lon="2.98905">
        <ele>786.1</ele>
        <time>1970-01-01T02:29:40.000Z</time>
      </trkpt>
      <trkpt lat="45.87262" lon="2.989">
        <ele>786.1</ele>
        <time>1970-01-01T02:29:41.000Z</time>
      </trkpt>
      <trkpt lat="45.87262" lon="2.98898">
        <ele>786.1</ele>
        <time>1970-01-01T02:29:42.000Z</time>
      </trkpt>
      <trkpt lat="45.87263" lon="2.98889">
        <ele>786.2</ele>
        <time>1970-01-01T02:29:44.000Z</time>
      </trkpt>
      <trkpt lat="45.87263" lon="2.98884">
        <ele>786.3</ele>
        <time>1970-01-01T02:29:45.000Z</time>
      </trkpt>
      <trkpt lat="45.87264" lon="2.98875">
        <ele>786.4</ele>
        <time>1970-01-01T02:29:46.000Z</time>
      </trkpt>
      <trkpt lat="45.87264" lon="2.98871">
        <ele>786.4</ele>
        <time>1970-01-01T02:29:48.000Z</time>
      </trkpt>
      <trkpt lat="45.87264" lon="2.98866">
        <ele>786.4</ele>
        <time>1970-01-01T02:29:49.000Z</time>
      </trkpt>
      <trkpt lat="45.87264" lon="2.98862">
        <ele>786.4</ele>
        <time>1970-01-01T02:29:50.000Z</time>
      </trkpt>
      <trkpt lat="45.87264" lon="2.98857">
        <ele>786.4</ele>
        <time>1970-01-01T02:29:51.000Z</time>
      </trkpt>
      <trkpt lat="45.87265" lon="2.98853">
        <ele>786.4</ele>
        <time>1970-01-01T02:29:52.000Z</time>
      </trkpt>
      <trkpt lat="45.87267" lon="2.98849">
        <ele>786.4</ele>
        <time>1970-01-01T02:29:53.000Z</time>
      </trkpt>
      <trkpt lat="45.87268" lon="2.98844">
        <ele>786.4</ele>
        <time>1970-01-01T02:29:55.000Z</time>
      </trkpt>
      <trkpt lat="45.87269" lon="2.9884">
        <ele>786.4</ele>
        <time>1970-01-01T02:29:56.000Z</time>
      </trkpt>
      <trkpt lat="45.87272" lon="2.98834">
        <ele>786.4</ele>
        <time>1970-01-01T02:29:57.000Z</time>
      </trkpt>
      <trkpt lat="45.87273" lon="2.98826">
        <ele>786.3</ele>
        <time>1970-01-01T02:29:59.000Z</time>
      </trkpt>
      <trkpt lat="45.87274" lon="2.98821">
        <ele>786.3</ele>
        <time>1970-01-01T02:30:00.000Z</time>
      </trkpt>
      <trkpt lat="45.87274" lon="2.98815">
        <ele>786.2</ele>
        <time>1970-01-01T02:30:01.000Z</time>
      </trkpt>
      <trkpt lat="45.87273" lon="2.98808">
        <ele>786.2</ele>
        <time>1970-01-01T02:30:02.000Z</time>
      </trkpt>
      <trkpt lat="45.87272" lon="2.98801">
        <ele>786.2</ele>
        <time>1970-01-01T02:30:03.000Z</time>
      </trkpt>
      <trkpt lat="45.87271" lon="2.98794">
        <ele>786.2</ele>
        <time>1970-01-01T02:30:04.000Z</time>
      </trkpt>
      <trkpt lat="45.8727" lon="2.98787">
        <ele>786.2</ele>
        <time>1970-01-01T02:30:06.000Z</time>
      </trkpt>
      <trkpt lat="45.8727" lon="2.98782">
        <ele>786.2</ele>
        <time>1970-01-01T02:30:07.000Z</time>
      </trkpt>
      <trkpt lat="45.8727" lon="2.98776">
        <ele>786.3</ele>
        <time>1970-01-01T02:30:08.000Z</time>
      </trkpt>
      <trkpt lat="45.87269" lon="2.98769">
        <ele>786.3</ele>
        <time>1970-01-01T02:30:09.000Z</time>
      </trkpt>
      <trkpt lat="45.87269" lon="2.9876">
        <ele>786.3</ele>
        <time>1970-01-01T02:30:10.000Z</time>
      </trkpt>
      <trkpt lat="45.87269" lon="2.98754">
        <ele>786.4</ele>
        <time>1970-01-01T02:30:11.000Z</time>
      </trkpt>
      <trkpt lat="45.87269" lon="2.98747">
        <ele>786.5</ele>
        <time>1970-01-01T02:30:13.000Z</time>
      </trkpt>
      <trkpt lat="45.87268" lon="2.98739">
        <ele>786.6</ele>
        <time>1970-01-01T02:30:14.000Z</time>
      </trkpt>
      <trkpt lat="45.87267" lon="2.98731">
        <ele>786.8</ele>
        <time>1970-01-01T02:30:16.000Z</time>
      </trkpt>
      <trkpt lat="45.87266" lon="2.98726">
        <ele>786.9</ele>
        <time>1970-01-01T02:30:17.000Z</time>
      </trkpt>
      <trkpt lat="45.87265" lon="2.98723">
        <ele>787</ele>
        <time>1970-01-01T02:30:18.000Z</time>
      </trkpt>
      <trkpt lat="45.87264" lon="2.98712">
        <ele>787.3</ele>
        <time>1970-01-01T02:30:20.000Z</time>
      </trkpt>
      <trkpt lat="45.87263" lon="2.98707">
        <ele>787.4</ele>
        <time>1970-01-01T02:30:21.000Z</time>
      </trkpt>
      <trkpt lat="45.87261" lon="2.98703">
        <ele>787.6</ele>
        <time>1970-01-01T02:30:22.000Z</time>
      </trkpt>
      <trkpt lat="45.87261" lon="2.98702">
        <ele>787.7</ele>
        <time>1970-01-01T02:30:23.000Z</time>
      </trkpt>
      <trkpt lat="45.87261" lon="2.98698">
        <ele>787.8</ele>
        <time>1970-01-01T02:30:24.000Z</time>
      </trkpt>
      <trkpt lat="45.87261" lon="2.98693">
        <ele>788</ele>
        <time>1970-01-01T02:30:25.000Z</time>
      </trkpt>
      <trkpt lat="45.87261" lon="2.98692">
        <ele>788</ele>
        <time>1970-01-01T02:30:26.000Z</time>
      </trkpt>
      <trkpt lat="45.87261" lon="2.98687">
        <ele>788.2</ele>
        <time>1970-01-01T02:30:27.000Z</time>
      </trkpt>
      <trkpt lat="45.87261" lon="2.98685">
        <ele>788.3</ele>
        <time>1970-01-01T02:30:28.000Z</time>
      </trkpt>
      <trkpt lat="45.87261" lon="2.9868">
        <ele>788.5</ele>
        <time>1970-01-01T02:30:29.000Z</time>
      </trkpt>
      <trkpt lat="45.87261" lon="2.98679">
        <ele>788.6</ele>
        <time>1970-01-01T02:30:30.000Z</time>
      </trkpt>
      <trkpt lat="45.87262" lon="2.98673">
        <ele>788.9</ele>
        <time>1970-01-01T02:30:31.000Z</time>
      </trkpt>
      <trkpt lat="45.87262" lon="2.98667">
        <ele>789.1</ele>
        <time>1970-01-01T02:30:33.000Z</time>
      </trkpt>
      <trkpt lat="45.87263" lon="2.98662">
        <ele>789.3</ele>
        <time>1970-01-01T02:30:34.000Z</time>
      </trkpt>
      <trkpt lat="45.87263" lon="2.98661">
        <ele>789.3</ele>
        <time>1970-01-01T02:30:35.000Z</time>
      </trkpt>
      <trkpt lat="45.87264" lon="2.98657">
        <ele>789.5</ele>
        <time>1970-01-01T02:30:36.000Z</time>
      </trkpt>
      <trkpt lat="45.87264" lon="2.98652">
        <ele>789.7</ele>
        <time>1970-01-01T02:30:37.000Z</time>
      </trkpt>
      <trkpt lat="45.87264" lon="2.98651">
        <ele>789.7</ele>
        <time>1970-01-01T02:30:38.000Z</time>
      </trkpt>
      <trkpt lat="45.87266" lon="2.98645">
        <ele>789.9</ele>
        <time>1970-01-01T02:30:40.000Z</time>
      </trkpt>
      <trkpt lat="45.87266" lon="2.98641">
        <ele>790.1</ele>
        <time>1970-01-01T02:30:41.000Z</time>
      </trkpt>
      <trkpt lat="45.87267" lon="2.98636">
        <ele>790.2</ele>
        <time>1970-01-01T02:30:42.000Z</time>
      </trkpt>
      <trkpt lat="45.87267" lon="2.98635">
        <ele>790.3</ele>
        <time>1970-01-01T02:30:43.000Z</time>
      </trkpt>
      <trkpt lat="45.87269" lon="2.9863">
        <ele>790.4</ele>
        <time>1970-01-01T02:30:44.000Z</time>
      </trkpt>
      <trkpt lat="45.87269" lon="2.98628">
        <ele>790.4</ele>
        <time>1970-01-01T02:30:45.000Z</time>
      </trkpt>
      <trkpt lat="45.87271" lon="2.98624">
        <ele>790.5</ele>
        <time>1970-01-01T02:30:46.000Z</time>
      </trkpt>
      <trkpt lat="45.87273" lon="2.98619">
        <ele>790.6</ele>
        <time>1970-01-01T02:30:47.000Z</time>
      </trkpt>
      <trkpt lat="45.87274" lon="2.98618">
        <ele>790.6</ele>
        <time>1970-01-01T02:30:48.000Z</time>
      </trkpt>
      <trkpt lat="45.87276" lon="2.98615">
        <ele>790.7</ele>
        <time>1970-01-01T02:30:49.000Z</time>
      </trkpt>
      <trkpt lat="45.87278" lon="2.98611">
        <ele>790.8</ele>
        <time>1970-01-01T02:30:50.000Z</time>
      </trkpt>
      <trkpt lat="45.8728" lon="2.98607">
        <ele>790.8</ele>
        <time>1970-01-01T02:30:51.000Z</time>
      </trkpt>
      <trkpt lat="45.87282" lon="2.98602">
        <ele>790.9</ele>
        <time>1970-01-01T02:30:53.000Z</time>
      </trkpt>
      <trkpt lat="45.87283" lon="2.986">
        <ele>790.9</ele>
        <time>1970-01-01T02:30:54.000Z</time>
      </trkpt>
      <trkpt lat="45.87284" lon="2.98598">
        <ele>791</ele>
        <time>1970-01-01T02:30:55.000Z</time>
      </trkpt>
      <trkpt lat="45.87286" lon="2.98595">
        <ele>791</ele>
        <time>1970-01-01T02:30:56.000Z</time>
      </trkpt>
      <trkpt lat="45.87287" lon="2.98593">
        <ele>791</ele>
        <time>1970-01-01T02:30:57.000Z</time>
      </trkpt>
      <trkpt lat="45.87288" lon="2.98591">
        <ele>791.1</ele>
        <time>1970-01-01T02:30:58.000Z</time>
      </trkpt>
      <trkpt lat="45.8729" lon="2.98586">
        <ele>791.1</ele>
        <time>1970-01-01T02:30:59.000Z</time>
      </trkpt>
      <trkpt lat="45.8729" lon="2.98584">
        <ele>791.1</ele>
        <time>1970-01-01T02:31:00.000Z</time>
      </trkpt>
      <trkpt lat="45.87291" lon="2.98579">
        <ele>791.2</ele>
        <time>1970-01-01T02:31:01.000Z</time>
      </trkpt>
      <trkpt lat="45.87292" lon="2.98574">
        <ele>791.2</ele>
        <time>1970-01-01T02:31:03.000Z</time>
      </trkpt>
      <trkpt lat="45.87293" lon="2.98569">
        <ele>791.2</ele>
        <time>1970-01-01T02:31:04.000Z</time>
      </trkpt>
      <trkpt lat="45.87294" lon="2.98565">
        <ele>791.2</ele>
        <time>1970-01-01T02:31:05.000Z</time>
      </trkpt>
      <trkpt lat="45.87295" lon="2.9856">
        <ele>791.3</ele>
        <time>1970-01-01T02:31:06.000Z</time>
      </trkpt>
      <trkpt lat="45.87295" lon="2.98558">
        <ele>791.3</ele>
        <time>1970-01-01T02:31:07.000Z</time>
      </trkpt>
      <trkpt lat="45.87296" lon="2.98553">
        <ele>791.3</ele>
        <time>1970-01-01T02:31:08.000Z</time>
      </trkpt>
      <trkpt lat="45.87297" lon="2.98548">
        <ele>791.3</ele>
        <time>1970-01-01T02:31:09.000Z</time>
      </trkpt>
      <trkpt lat="45.87298" lon="2.98544">
        <ele>791.3</ele>
        <time>1970-01-01T02:31:10.000Z</time>
      </trkpt>
      <trkpt lat="45.87298" lon="2.98543">
        <ele>791.3</ele>
        <time>1970-01-01T02:31:11.000Z</time>
      </trkpt>
      <trkpt lat="45.87298" lon="2.98539">
        <ele>791.3</ele>
        <time>1970-01-01T02:31:12.000Z</time>
      </trkpt>
      <trkpt lat="45.873" lon="2.98535">
        <ele>791.3</ele>
        <time>1970-01-01T02:31:14.000Z</time>
      </trkpt>
      <trkpt lat="45.87301" lon="2.98531">
        <ele>791.3</ele>
        <time>1970-01-01T02:31:15.000Z</time>
      </trkpt>
      <trkpt lat="45.87302" lon="2.98525">
        <ele>791.3</ele>
        <time>1970-01-01T02:31:16.000Z</time>
      </trkpt>
      <trkpt lat="45.87304" lon="2.9852">
        <ele>791.3</ele>
        <time>1970-01-01T02:31:17.000Z</time>
      </trkpt>
      <trkpt lat="45.87305" lon="2.98516">
        <ele>791.3</ele>
        <time>1970-01-01T02:31:18.000Z</time>
      </trkpt>
      <trkpt lat="45.87306" lon="2.98513">
        <ele>791.3</ele>
        <time>1970-01-01T02:31:19.000Z</time>
      </trkpt>
      <trkpt lat="45.87307" lon="2.98509">
        <ele>791.3</ele>
        <time>1970-01-01T02:31:21.000Z</time>
      </trkpt>
      <trkpt lat="45.87309" lon="2.98505">
        <ele>791.4</ele>
        <time>1970-01-01T02:31:22.000Z</time>
      </trkpt>
      <trkpt lat="45.87311" lon="2.98501">
        <ele>791.4</ele>
        <time>1970-01-01T02:31:23.000Z</time>
      </trkpt>
      <trkpt lat="45.87315" lon="2.98494">
        <ele>791.4</ele>
        <time>1970-01-01T02:31:24.000Z</time>
      </trkpt>
      <trkpt lat="45.87318" lon="2.98488">
        <ele>791.5</ele>
        <time>1970-01-01T02:31:26.000Z</time>
      </trkpt>
      <trkpt lat="45.87319" lon="2.98483">
        <ele>791.5</ele>
        <time>1970-01-01T02:31:27.000Z</time>
      </trkpt>
      <trkpt lat="45.87322" lon="2.98476">
        <ele>791.6</ele>
        <time>1970-01-01T02:31:28.000Z</time>
      </trkpt>
      <trkpt lat="45.87323" lon="2.98471">
        <ele>791.7</ele>
        <time>1970-01-01T02:31:29.000Z</time>
      </trkpt>
      <trkpt lat="45.87326" lon="2.98465">
        <ele>791.7</ele>
        <time>1970-01-01T02:31:31.000Z</time>
      </trkpt>
      <trkpt lat="45.87328" lon="2.98461">
        <ele>791.8</ele>
        <time>1970-01-01T02:31:32.000Z</time>
      </trkpt>
      <trkpt lat="45.8733" lon="2.98457">
        <ele>791.9</ele>
        <time>1970-01-01T02:31:33.000Z</time>
      </trkpt>
      <trkpt lat="45.87331" lon="2.98453">
        <ele>792</ele>
        <time>1970-01-01T02:31:34.000Z</time>
      </trkpt>
      <trkpt lat="45.87332" lon="2.98449">
        <ele>792.1</ele>
        <time>1970-01-01T02:31:35.000Z</time>
      </trkpt>
      <trkpt lat="45.87334" lon="2.98443">
        <ele>792.2</ele>
        <time>1970-01-01T02:31:36.000Z</time>
      </trkpt>
      <trkpt lat="45.87335" lon="2.98439">
        <ele>792.3</ele>
        <time>1970-01-01T02:31:38.000Z</time>
      </trkpt>
      <trkpt lat="45.87336" lon="2.98435">
        <ele>792.4</ele>
        <time>1970-01-01T02:31:39.000Z</time>
      </trkpt>
      <trkpt lat="45.87338" lon="2.9843">
        <ele>792.6</ele>
        <time>1970-01-01T02:31:41.000Z</time>
      </trkpt>
      <trkpt lat="45.87339" lon="2.98426">
        <ele>792.7</ele>
        <time>1970-01-01T02:31:42.000Z</time>
      </trkpt>
      <trkpt lat="45.8734" lon="2.98422">
        <ele>792.8</ele>
        <time>1970-01-01T02:31:43.000Z</time>
      </trkpt>
      <trkpt lat="45.87341" lon="2.9842">
        <ele>792.9</ele>
        <time>1970-01-01T02:31:44.000Z</time>
      </trkpt>
      <trkpt lat="45.87344" lon="2.98416">
        <ele>793.1</ele>
        <time>1970-01-01T02:31:45.000Z</time>
      </trkpt>
      <trkpt lat="45.87347" lon="2.9841">
        <ele>793.4</ele>
        <time>1970-01-01T02:31:47.000Z</time>
      </trkpt>
      <trkpt lat="45.87348" lon="2.98408">
        <ele>793.4</ele>
        <time>1970-01-01T02:31:48.000Z</time>
      </trkpt>
      <trkpt lat="45.87348" lon="2.98407">
        <ele>793.5</ele>
        <time>1970-01-01T02:31:49.000Z</time>
      </trkpt>
      <trkpt lat="45.8735" lon="2.98403">
        <ele>793.7</ele>
        <time>1970-01-01T02:31:50.000Z</time>
      </trkpt>
      <trkpt lat="45.87351" lon="2.98402">
        <ele>793.8</ele>
        <time>1970-01-01T02:31:51.000Z</time>
      </trkpt>
      <trkpt lat="45.87353" lon="2.98398">
        <ele>793.9</ele>
        <time>1970-01-01T02:31:52.000Z</time>
      </trkpt>
      <trkpt lat="45.87354" lon="2.98396">
        <ele>794</ele>
        <time>1970-01-01T02:31:53.000Z</time>
      </trkpt>
      <trkpt lat="45.87356" lon="2.98393">
        <ele>794.2</ele>
        <time>1970-01-01T02:31:55.000Z</time>
      </trkpt>
      <trkpt lat="45.87359" lon="2.98389">
        <ele>794.4</ele>
        <time>1970-01-01T02:31:56.000Z</time>
      </trkpt>
      <trkpt lat="45.8736" lon="2.98387">
        <ele>794.5</ele>
        <time>1970-01-01T02:31:57.000Z</time>
      </trkpt>
      <trkpt lat="45.87363" lon="2.98385">
        <ele>794.7</ele>
        <time>1970-01-01T02:31:59.000Z</time>
      </trkpt>
      <trkpt lat="45.87364" lon="2.98384">
        <ele>794.8</ele>
        <time>1970-01-01T02:32:00.000Z</time>
      </trkpt>
      <trkpt lat="45.87365" lon="2.98382">
        <ele>794.8</ele>
        <time>1970-01-01T02:32:01.000Z</time>
      </trkpt>
      <trkpt lat="45.87366" lon="2.98378">
        <ele>795</ele>
        <time>1970-01-01T02:32:02.000Z</time>
      </trkpt>
      <trkpt lat="45.87368" lon="2.98376">
        <ele>795.1</ele>
        <time>1970-01-01T02:32:03.000Z</time>
      </trkpt>
      <trkpt lat="45.8737" lon="2.98374">
        <ele>795.2</ele>
        <time>1970-01-01T02:32:04.000Z</time>
      </trkpt>
      <trkpt lat="45.87372" lon="2.98372">
        <ele>795.4</ele>
        <time>1970-01-01T02:32:06.000Z</time>
      </trkpt>
      <trkpt lat="45.87373" lon="2.9837">
        <ele>795.4</ele>
        <time>1970-01-01T02:32:07.000Z</time>
      </trkpt>
      <trkpt lat="45.87375" lon="2.98369">
        <ele>795.5</ele>
        <time>1970-01-01T02:32:08.000Z</time>
      </trkpt>
      <trkpt lat="45.87377" lon="2.98367">
        <ele>795.7</ele>
        <time>1970-01-01T02:32:09.000Z</time>
      </trkpt>
      <trkpt lat="45.87381" lon="2.98364">
        <ele>795.9</ele>
        <time>1970-01-01T02:32:11.000Z</time>
      </trkpt>
      <trkpt lat="45.87383" lon="2.98363">
        <ele>795.9</ele>
        <time>1970-01-01T02:32:12.000Z</time>
      </trkpt>
      <trkpt lat="45.87386" lon="2.98361">
        <ele>796.1</ele>
        <time>1970-01-01T02:32:14.000Z</time>
      </trkpt>
      <trkpt lat="45.87389" lon="2.98358">
        <ele>796.2</ele>
        <time>1970-01-01T02:32:16.000Z</time>
      </trkpt>
      <trkpt lat="45.87391" lon="2.98354">
        <ele>796.3</ele>
        <time>1970-01-01T02:32:17.000Z</time>
      </trkpt>
      <trkpt lat="45.87392" lon="2.98352">
        <ele>796.4</ele>
        <time>1970-01-01T02:32:18.000Z</time>
      </trkpt>
      <trkpt lat="45.87395" lon="2.98349">
        <ele>796.5</ele>
        <time>1970-01-01T02:32:19.000Z</time>
      </trkpt>
      <trkpt lat="45.87396" lon="2.98348">
        <ele>796.5</ele>
        <time>1970-01-01T02:32:20.000Z</time>
      </trkpt>
      <trkpt lat="45.874" lon="2.98346">
        <ele>796.7</ele>
        <time>1970-01-01T02:32:22.000Z</time>
      </trkpt>
      <trkpt lat="45.87403" lon="2.98343">
        <ele>796.8</ele>
        <time>1970-01-01T02:32:23.000Z</time>
      </trkpt>
      <trkpt lat="45.87405" lon="2.98341">
        <ele>796.9</ele>
        <time>1970-01-01T02:32:24.000Z</time>
      </trkpt>
      <trkpt lat="45.87407" lon="2.98339">
        <ele>797</ele>
        <time>1970-01-01T02:32:25.000Z</time>
      </trkpt>
      <trkpt lat="45.87409" lon="2.98338">
        <ele>797.1</ele>
        <time>1970-01-01T02:32:27.000Z</time>
      </trkpt>
      <trkpt lat="45.87412" lon="2.98335">
        <ele>797.2</ele>
        <time>1970-01-01T02:32:28.000Z</time>
      </trkpt>
      <trkpt lat="45.87415" lon="2.98332">
        <ele>797.3</ele>
        <time>1970-01-01T02:32:29.000Z</time>
      </trkpt>
      <trkpt lat="45.87418" lon="2.98329">
        <ele>797.4</ele>
        <time>1970-01-01T02:32:30.000Z</time>
      </trkpt>
      <trkpt lat="45.87419" lon="2.98328">
        <ele>797.4</ele>
        <time>1970-01-01T02:32:31.000Z</time>
      </trkpt>
      <trkpt lat="45.87422" lon="2.98325">
        <ele>797.6</ele>
        <time>1970-01-01T02:32:32.000Z</time>
      </trkpt>
      <trkpt lat="45.87425" lon="2.98325">
        <ele>797.6</ele>
        <time>1970-01-01T02:32:33.000Z</time>
      </trkpt>
      <trkpt lat="45.87428" lon="2.98323">
        <ele>797.8</ele>
        <time>1970-01-01T02:32:35.000Z</time>
      </trkpt>
      <trkpt lat="45.87429" lon="2.98323">
        <ele>797.8</ele>
        <time>1970-01-01T02:32:36.000Z</time>
      </trkpt>
      <trkpt lat="45.87431" lon="2.98321">
        <ele>797.9</ele>
        <time>1970-01-01T02:32:37.000Z</time>
      </trkpt>
      <trkpt lat="45.87433" lon="2.98319">
        <ele>798</ele>
        <time>1970-01-01T02:32:38.000Z</time>
      </trkpt>
      <trkpt lat="45.87435" lon="2.98315">
        <ele>798.1</ele>
        <time>1970-01-01T02:32:40.000Z</time>
      </trkpt>
      <trkpt lat="45.87438" lon="2.98313">
        <ele>798.2</ele>
        <time>1970-01-01T02:32:41.000Z</time>
      </trkpt>
      <trkpt lat="45.87439" lon="2.98312">
        <ele>798.2</ele>
        <time>1970-01-01T02:32:42.000Z</time>
      </trkpt>
      <trkpt lat="45.87443" lon="2.98309">
        <ele>798.4</ele>
        <time>1970-01-01T02:32:44.000Z</time>
      </trkpt>
      <trkpt lat="45.87444" lon="2.98308">
        <ele>798.4</ele>
        <time>1970-01-01T02:32:45.000Z</time>
      </trkpt>
      <trkpt lat="45.87446" lon="2.98307">
        <ele>798.4</ele>
        <time>1970-01-01T02:32:46.000Z</time>
      </trkpt>
      <trkpt lat="45.87449" lon="2.98304">
        <ele>798.6</ele>
        <time>1970-01-01T02:32:47.000Z</time>
      </trkpt>
      <trkpt lat="45.8745" lon="2.98303">
        <ele>798.6</ele>
        <time>1970-01-01T02:32:48.000Z</time>
      </trkpt>
      <trkpt lat="45.87453" lon="2.98301">
        <ele>798.7</ele>
        <time>1970-01-01T02:32:49.000Z</time>
      </trkpt>
      <trkpt lat="45.87457" lon="2.98299">
        <ele>798.8</ele>
        <time>1970-01-01T02:32:51.000Z</time>
      </trkpt>
      <trkpt lat="45.87459" lon="2.98297">
        <ele>798.9</ele>
        <time>1970-01-01T02:32:52.000Z</time>
      </trkpt>
      <trkpt lat="45.8746" lon="2.98296">
        <ele>798.9</ele>
        <time>1970-01-01T02:32:53.000Z</time>
      </trkpt>
      <trkpt lat="45.87462" lon="2.98294">
        <ele>799</ele>
        <time>1970-01-01T02:32:54.000Z</time>
      </trkpt>
      <trkpt lat="45.87466" lon="2.98292">
        <ele>799</ele>
        <time>1970-01-01T02:32:56.000Z</time>
      </trkpt>
      <trkpt lat="45.8747" lon="2.98289">
        <ele>799.1</ele>
        <time>1970-01-01T02:32:57.000Z</time>
      </trkpt>
      <trkpt lat="45.87473" lon="2.98286">
        <ele>799.2</ele>
        <time>1970-01-01T02:32:58.000Z</time>
      </trkpt>
      <trkpt lat="45.87476" lon="2.98282">
        <ele>799.3</ele>
        <time>1970-01-01T02:33:00.000Z</time>
      </trkpt>
      <trkpt lat="45.8748" lon="2.9828">
        <ele>799.4</ele>
        <time>1970-01-01T02:33:01.000Z</time>
      </trkpt>
      <trkpt lat="45.87482" lon="2.98279">
        <ele>799.4</ele>
        <time>1970-01-01T02:33:02.000Z</time>
      </trkpt>
      <trkpt lat="45.87485" lon="2.98277">
        <ele>799.5</ele>
        <time>1970-01-01T02:33:03.000Z</time>
      </trkpt>
      <trkpt lat="45.87487" lon="2.98274">
        <ele>799.6</ele>
        <time>1970-01-01T02:33:04.000Z</time>
      </trkpt>
      <trkpt lat="45.8749" lon="2.98272">
        <ele>799.6</ele>
        <time>1970-01-01T02:33:06.000Z</time>
      </trkpt>
      <trkpt lat="45.8749" lon="2.98271">
        <ele>799.7</ele>
        <time>1970-01-01T02:33:07.000Z</time>
      </trkpt>
      <trkpt lat="45.87494" lon="2.98269">
        <ele>799.8</ele>
        <time>1970-01-01T02:33:08.000Z</time>
      </trkpt>
      <trkpt lat="45.87495" lon="2.98268">
        <ele>799.8</ele>
        <time>1970-01-01T02:33:09.000Z</time>
      </trkpt>
      <trkpt lat="45.87499" lon="2.98267">
        <ele>799.9</ele>
        <time>1970-01-01T02:33:10.000Z</time>
      </trkpt>
      <trkpt lat="45.875" lon="2.98266">
        <ele>800</ele>
        <time>1970-01-01T02:33:11.000Z</time>
      </trkpt>
      <trkpt lat="45.87503" lon="2.98264">
        <ele>800</ele>
        <time>1970-01-01T02:33:12.000Z</time>
      </trkpt>
      <trkpt lat="45.87505" lon="2.98262">
        <ele>800.1</ele>
        <time>1970-01-01T02:33:14.000Z</time>
      </trkpt>
      <trkpt lat="45.87506" lon="2.98261">
        <ele>800.2</ele>
        <time>1970-01-01T02:33:15.000Z</time>
      </trkpt>
      <trkpt lat="45.87507" lon="2.98259">
        <ele>800.2</ele>
        <time>1970-01-01T02:33:16.000Z</time>
      </trkpt>
      <trkpt lat="45.87508" lon="2.98257">
        <ele>800.3</ele>
        <time>1970-01-01T02:33:17.000Z</time>
      </trkpt>
      <trkpt lat="45.87509" lon="2.98255">
        <ele>800.4</ele>
        <time>1970-01-01T02:33:18.000Z</time>
      </trkpt>
      <trkpt lat="45.87512" lon="2.98252">
        <ele>800.5</ele>
        <time>1970-01-01T02:33:19.000Z</time>
      </trkpt>
      <trkpt lat="45.87514" lon="2.98249">
        <ele>800.6</ele>
        <time>1970-01-01T02:33:21.000Z</time>
      </trkpt>
      <trkpt lat="45.87515" lon="2.98248">
        <ele>800.7</ele>
        <time>1970-01-01T02:33:22.000Z</time>
      </trkpt>
      <trkpt lat="45.87517" lon="2.98244">
        <ele>800.8</ele>
        <time>1970-01-01T02:33:23.000Z</time>
      </trkpt>
      <trkpt lat="45.87518" lon="2.98243">
        <ele>800.8</ele>
        <time>1970-01-01T02:33:24.000Z</time>
      </trkpt>
      <trkpt lat="45.87519" lon="2.98239">
        <ele>800.9</ele>
        <time>1970-01-01T02:33:25.000Z</time>
      </trkpt>
      <trkpt lat="45.8752" lon="2.98236">
        <ele>801</ele>
        <time>1970-01-01T02:33:26.000Z</time>
      </trkpt>
      <trkpt lat="45.8752" lon="2.98234">
        <ele>801.1</ele>
        <time>1970-01-01T02:33:27.000Z</time>
      </trkpt>
      <trkpt lat="45.87519" lon="2.98232">
        <ele>801.1</ele>
        <time>1970-01-01T02:33:28.000Z</time>
      </trkpt>
      <trkpt lat="45.87519" lon="2.98231">
        <ele>801.2</ele>
        <time>1970-01-01T02:33:29.000Z</time>
      </trkpt>
      <trkpt lat="45.87518" lon="2.98229">
        <ele>801.2</ele>
        <time>1970-01-01T02:33:30.000Z</time>
      </trkpt>
      <trkpt lat="45.87518" lon="2.98227">
        <ele>801.3</ele>
        <time>1970-01-01T02:33:31.000Z</time>
      </trkpt>
      <trkpt lat="45.87519" lon="2.98225">
        <ele>801.4</ele>
        <time>1970-01-01T02:33:32.000Z</time>
      </trkpt>
      <trkpt lat="45.8752" lon="2.98222">
        <ele>801.4</ele>
        <time>1970-01-01T02:33:34.000Z</time>
      </trkpt>
      <trkpt lat="45.87522" lon="2.98219">
        <ele>801.5</ele>
        <time>1970-01-01T02:33:35.000Z</time>
      </trkpt>
      <trkpt lat="45.87523" lon="2.98218">
        <ele>801.6</ele>
        <time>1970-01-01T02:33:36.000Z</time>
      </trkpt>
      <trkpt lat="45.87526" lon="2.98218">
        <ele>801.7</ele>
        <time>1970-01-01T02:33:37.000Z</time>
      </trkpt>
      <trkpt lat="45.87527" lon="2.98218">
        <ele>801.7</ele>
        <time>1970-01-01T02:33:38.000Z</time>
      </trkpt>
      <trkpt lat="45.87531" lon="2.9822">
        <ele>801.8</ele>
        <time>1970-01-01T02:33:39.000Z</time>
      </trkpt>
      <trkpt lat="45.87532" lon="2.9822">
        <ele>801.8</ele>
        <time>1970-01-01T02:33:40.000Z</time>
      </trkpt>
      <trkpt lat="45.87536" lon="2.98218">
        <ele>801.9</ele>
        <time>1970-01-01T02:33:41.000Z</time>
      </trkpt>
      <trkpt lat="45.87537" lon="2.98217">
        <ele>801.9</ele>
        <time>1970-01-01T02:33:42.000Z</time>
      </trkpt>
      <trkpt lat="45.8754" lon="2.98212">
        <ele>802</ele>
        <time>1970-01-01T02:33:43.000Z</time>
      </trkpt>
      <trkpt lat="45.87541" lon="2.98208">
        <ele>802.1</ele>
        <time>1970-01-01T02:33:44.000Z</time>
      </trkpt>
      <trkpt lat="45.87542" lon="2.98204">
        <ele>802.1</ele>
        <time>1970-01-01T02:33:45.000Z</time>
      </trkpt>
      <trkpt lat="45.87544" lon="2.98199">
        <ele>802.1</ele>
        <time>1970-01-01T02:33:46.000Z</time>
      </trkpt>
      <trkpt lat="45.87548" lon="2.98194">
        <ele>802.2</ele>
        <time>1970-01-01T02:33:48.000Z</time>
      </trkpt>
      <trkpt lat="45.87549" lon="2.98192">
        <ele>802.2</ele>
        <time>1970-01-01T02:33:49.000Z</time>
      </trkpt>
      <trkpt lat="45.87551" lon="2.9819">
        <ele>802.3</ele>
        <time>1970-01-01T02:33:50.000Z</time>
      </trkpt>
      <trkpt lat="45.87554" lon="2.98187">
        <ele>802.3</ele>
        <time>1970-01-01T02:33:52.000Z</time>
      </trkpt>
      <trkpt lat="45.87555" lon="2.98184">
        <ele>802.3</ele>
        <time>1970-01-01T02:33:53.000Z</time>
      </trkpt>
      <trkpt lat="45.87556" lon="2.9818">
        <ele>802.3</ele>
        <time>1970-01-01T02:33:54.000Z</time>
      </trkpt>
      <trkpt lat="45.87556" lon="2.98178">
        <ele>802.3</ele>
        <time>1970-01-01T02:33:55.000Z</time>
      </trkpt>
      <trkpt lat="45.87557" lon="2.98175">
        <ele>802.3</ele>
        <time>1970-01-01T02:33:56.000Z</time>
      </trkpt>
      <trkpt lat="45.87558" lon="2.98171">
        <ele>802.3</ele>
        <time>1970-01-01T02:33:58.000Z</time>
      </trkpt>
      <trkpt lat="45.8756" lon="2.98168">
        <ele>802.3</ele>
        <time>1970-01-01T02:33:59.000Z</time>
      </trkpt>
      <trkpt lat="45.87563" lon="2.98165">
        <ele>802.3</ele>
        <time>1970-01-01T02:34:00.000Z</time>
      </trkpt>
      <trkpt lat="45.87565" lon="2.9816">
        <ele>802.3</ele>
        <time>1970-01-01T02:34:02.000Z</time>
      </trkpt>
      <trkpt lat="45.87566" lon="2.98157">
        <ele>802.3</ele>
        <time>1970-01-01T02:34:03.000Z</time>
      </trkpt>
      <trkpt lat="45.87568" lon="2.98147">
        <ele>802.2</ele>
        <time>1970-01-01T02:34:04.000Z</time>
      </trkpt>
      <trkpt lat="45.87569" lon="2.9814">
        <ele>802.1</ele>
        <time>1970-01-01T02:34:06.000Z</time>
      </trkpt>
      <trkpt lat="45.87568" lon="2.98135">
        <ele>802.1</ele>
        <time>1970-01-01T02:34:07.000Z</time>
      </trkpt>
      <trkpt lat="45.87568" lon="2.98129">
        <ele>802.1</ele>
        <time>1970-01-01T02:34:08.000Z</time>
      </trkpt>
      <trkpt lat="45.87568" lon="2.98124">
        <ele>802</ele>
        <time>1970-01-01T02:34:09.000Z</time>
      </trkpt>
      <trkpt lat="45.87569" lon="2.98118">
        <ele>802</ele>
        <time>1970-01-01T02:34:10.000Z</time>
      </trkpt>
      <trkpt lat="45.87569" lon="2.98116">
        <ele>802</ele>
        <time>1970-01-01T02:34:11.000Z</time>
      </trkpt>
      <trkpt lat="45.8757" lon="2.98109">
        <ele>802</ele>
        <time>1970-01-01T02:34:12.000Z</time>
      </trkpt>
      <trkpt lat="45.87572" lon="2.98104">
        <ele>802.1</ele>
        <time>1970-01-01T02:34:14.000Z</time>
      </trkpt>
      <trkpt lat="45.87573" lon="2.98099">
        <ele>802.1</ele>
        <time>1970-01-01T02:34:15.000Z</time>
      </trkpt>
      <trkpt lat="45.87573" lon="2.98094">
        <ele>802.1</ele>
        <time>1970-01-01T02:34:16.000Z</time>
      </trkpt>
      <trkpt lat="45.87574" lon="2.9809">
        <ele>802.1</ele>
        <time>1970-01-01T02:34:17.000Z</time>
      </trkpt>
      <trkpt lat="45.87573" lon="2.98086">
        <ele>802.1</ele>
        <time>1970-01-01T02:34:19.000Z</time>
      </trkpt>
      <trkpt lat="45.87575" lon="2.98085">
        <ele>802.1</ele>
        <time>1970-01-01T02:34:20.000Z</time>
      </trkpt>
      <trkpt lat="45.87575" lon="2.98085">
        <ele>802.1</ele>
        <time>1970-01-01T02:34:21.000Z</time>
      </trkpt>
      <trkpt lat="45.87576" lon="2.98085">
        <ele>802.1</ele>
        <time>1970-01-01T02:34:22.000Z</time>
      </trkpt>
      <trkpt lat="45.87576" lon="2.98085">
        <ele>802.1</ele>
        <time>1970-01-01T02:34:23.000Z</time>
      </trkpt>
      <trkpt lat="45.87576" lon="2.98086">
        <ele>802</ele>
        <time>1970-01-01T02:34:24.000Z</time>
      </trkpt>
      <trkpt lat="45.87576" lon="2.98086">
        <ele>802</ele>
        <time>1970-01-01T02:34:25.000Z</time>
      </trkpt>
      <trkpt lat="45.87576" lon="2.98087">
        <ele>802</ele>
        <time>1970-01-01T02:34:26.000Z</time>
      </trkpt>
      <trkpt lat="45.87576" lon="2.98087">
        <ele>802</ele>
        <time>1970-01-01T02:34:27.000Z</time>
      </trkpt>
      <trkpt lat="45.87576" lon="2.98087">
        <ele>802</ele>
        <time>1970-01-01T02:34:28.000Z</time>
      </trkpt>
      <trkpt lat="45.87576" lon="2.98087">
        <ele>802</ele>
        <time>1970-01-01T02:34:29.000Z</time>
      </trkpt>
      <trkpt lat="45.87576" lon="2.98087">
        <ele>802</ele>
        <time>1970-01-01T02:34:30.000Z</time>
      </trkpt>
      <trkpt lat="45.87576" lon="2.98087">
        <ele>802</ele>
        <time>1970-01-01T02:34:31.000Z</time>
      </trkpt>
      <trkpt lat="45.87576" lon="2.98087">
        <ele>802</ele>
        <time>1970-01-01T02:34:32.000Z</time>
      </trkpt>
      <trkpt lat="45.87576" lon="2.98087">
        <ele>802</ele>
        <time>1970-01-01T02:34:33.000Z</time>
      </trkpt>
      <trkpt lat="45.87581" lon="2.98089">
        <ele>801.9</ele>
        <time>1970-01-01T02:35:01.000Z</time>
      </trkpt>
      <trkpt lat="45.87583" lon="2.98089">
        <ele>801.8</ele>
        <time>1970-01-01T02:35:02.000Z</time>
      </trkpt>
      <trkpt lat="45.87587" lon="2.98091">
        <ele>801.7</ele>
        <time>1970-01-01T02:35:03.000Z</time>
      </trkpt>
      <trkpt lat="45.87588" lon="2.98091">
        <ele>801.7</ele>
        <time>1970-01-01T02:35:04.000Z</time>
      </trkpt>
      <trkpt lat="45.87592" lon="2.98092">
        <ele>801.6</ele>
        <time>1970-01-01T02:35:05.000Z</time>
      </trkpt>
      <trkpt lat="45.87594" lon="2.98092">
        <ele>801.4</ele>
        <time>1970-01-01T02:35:06.000Z</time>
      </trkpt>
      <trkpt lat="45.87598" lon="2.98092">
        <ele>801.2</ele>
        <time>1970-01-01T02:35:08.000Z</time>
      </trkpt>
      <trkpt lat="45.87602" lon="2.98093">
        <ele>800.9</ele>
        <time>1970-01-01T02:35:09.000Z</time>
      </trkpt>
      <trkpt lat="45.87605" lon="2.98093">
        <ele>800.6</ele>
        <time>1970-01-01T02:35:10.000Z</time>
      </trkpt>
      <trkpt lat="45.87616" lon="2.98092">
        <ele>799.8</ele>
        <time>1970-01-01T02:35:12.000Z</time>
      </trkpt>
      <trkpt lat="45.87622" lon="2.98091">
        <ele>799.4</ele>
        <time>1970-01-01T02:35:13.000Z</time>
      </trkpt>
      <trkpt lat="45.87628" lon="2.98091">
        <ele>799</ele>
        <time>1970-01-01T02:35:14.000Z</time>
      </trkpt>
      <trkpt lat="45.87634" lon="2.98091">
        <ele>798.5</ele>
        <time>1970-01-01T02:35:15.000Z</time>
      </trkpt>
      <trkpt lat="45.8764" lon="2.98091">
        <ele>798.1</ele>
        <time>1970-01-01T02:35:16.000Z</time>
      </trkpt>
      <trkpt lat="45.87646" lon="2.98092">
        <ele>797.6</ele>
        <time>1970-01-01T02:35:17.000Z</time>
      </trkpt>
      <trkpt lat="45.87652" lon="2.98092">
        <ele>797.2</ele>
        <time>1970-01-01T02:35:18.000Z</time>
      </trkpt>
      <trkpt lat="45.87658" lon="2.98091">
        <ele>796.8</ele>
        <time>1970-01-01T02:35:19.000Z</time>
      </trkpt>
      <trkpt lat="45.87664" lon="2.98091">
        <ele>796.5</ele>
        <time>1970-01-01T02:35:20.000Z</time>
      </trkpt>
      <trkpt lat="45.87669" lon="2.98091">
        <ele>796.3</ele>
        <time>1970-01-01T02:35:21.000Z</time>
      </trkpt>
      <trkpt lat="45.87675" lon="2.98091">
        <ele>796.1</ele>
        <time>1970-01-01T02:35:22.000Z</time>
      </trkpt>
      <trkpt lat="45.87681" lon="2.9809">
        <ele>796</ele>
        <time>1970-01-01T02:35:23.000Z</time>
      </trkpt>
      <trkpt lat="45.87687" lon="2.98089">
        <ele>795.8</ele>
        <time>1970-01-01T02:35:24.000Z</time>
      </trkpt>
      <trkpt lat="45.87692" lon="2.98087">
        <ele>795.7</ele>
        <time>1970-01-01T02:35:25.000Z</time>
      </trkpt>
      <trkpt lat="45.87698" lon="2.98085">
        <ele>795.7</ele>
        <time>1970-01-01T02:35:26.000Z</time>
      </trkpt>
      <trkpt lat="45.87703" lon="2.98082">
        <ele>795.6</ele>
        <time>1970-01-01T02:35:27.000Z</time>
      </trkpt>
      <trkpt lat="45.87708" lon="2.98078">
        <ele>795.5</ele>
        <time>1970-01-01T02:35:28.000Z</time>
      </trkpt>
      <trkpt lat="45.87713" lon="2.98076">
        <ele>795.5</ele>
        <time>1970-01-01T02:35:29.000Z</time>
      </trkpt>
      <trkpt lat="45.87719" lon="2.98074">
        <ele>795.5</ele>
        <time>1970-01-01T02:35:30.000Z</time>
      </trkpt>
      <trkpt lat="45.87724" lon="2.98074">
        <ele>795.5</ele>
        <time>1970-01-01T02:35:31.000Z</time>
      </trkpt>
      <trkpt lat="45.87729" lon="2.98074">
        <ele>795.4</ele>
        <time>1970-01-01T02:35:32.000Z</time>
      </trkpt>
      <trkpt lat="45.87734" lon="2.98073">
        <ele>795.4</ele>
        <time>1970-01-01T02:35:33.000Z</time>
      </trkpt>
      <trkpt lat="45.87739" lon="2.98072">
        <ele>795.4</ele>
        <time>1970-01-01T02:35:34.000Z</time>
      </trkpt>
      <trkpt lat="45.87742" lon="2.98067">
        <ele>795.7</ele>
        <time>1970-01-01T02:35:35.000Z</time>
      </trkpt>
      <trkpt lat="45.87743" lon="2.98064">
        <ele>795.7</ele>
        <time>1970-01-01T02:35:36.000Z</time>
      </trkpt>
      <trkpt lat="45.87743" lon="2.98059">
        <ele>795.8</ele>
        <time>1970-01-01T02:35:37.000Z</time>
      </trkpt>
      <trkpt lat="45.87742" lon="2.98054">
        <ele>795.8</ele>
        <time>1970-01-01T02:35:38.000Z</time>
      </trkpt>
      <trkpt lat="45.87741" lon="2.98049">
        <ele>795.9</ele>
        <time>1970-01-01T02:35:39.000Z</time>
      </trkpt>
      <trkpt lat="45.8774" lon="2.98045">
        <ele>796</ele>
        <time>1970-01-01T02:35:40.000Z</time>
      </trkpt>
      <trkpt lat="45.87738" lon="2.98039">
        <ele>796.1</ele>
        <time>1970-01-01T02:35:41.000Z</time>
      </trkpt>
      <trkpt lat="45.87737" lon="2.98034">
        <ele>796.1</ele>
        <time>1970-01-01T02:35:42.000Z</time>
      </trkpt>
      <trkpt lat="45.87734" lon="2.98027">
        <ele>796.3</ele>
        <time>1970-01-01T02:35:44.000Z</time>
      </trkpt>
      <trkpt lat="45.87733" lon="2.98024">
        <ele>796.3</ele>
        <time>1970-01-01T02:35:45.000Z</time>
      </trkpt>
      <trkpt lat="45.87732" lon="2.98022">
        <ele>796.4</ele>
        <time>1970-01-01T02:35:46.000Z</time>
      </trkpt>
      <trkpt lat="45.87732" lon="2.98019">
        <ele>796.4</ele>
        <time>1970-01-01T02:35:47.000Z</time>
      </trkpt>
      <trkpt lat="45.87732" lon="2.98016">
        <ele>796.5</ele>
        <time>1970-01-01T02:35:48.000Z</time>
      </trkpt>
      <trkpt lat="45.87729" lon="2.98008">
        <ele>796.7</ele>
        <time>1970-01-01T02:35:50.000Z</time>
      </trkpt>
      <trkpt lat="45.87728" lon="2.98002">
        <ele>796.8</ele>
        <time>1970-01-01T02:35:51.000Z</time>
      </trkpt>
      <trkpt lat="45.87728" lon="2.97997">
        <ele>797</ele>
        <time>1970-01-01T02:35:52.000Z</time>
      </trkpt>
      <trkpt lat="45.87727" lon="2.97991">
        <ele>797.1</ele>
        <time>1970-01-01T02:35:53.000Z</time>
      </trkpt>
      <trkpt lat="45.87726" lon="2.97985">
        <ele>797.3</ele>
        <time>1970-01-01T02:35:55.000Z</time>
      </trkpt>
      <trkpt lat="45.87724" lon="2.97979">
        <ele>797.5</ele>
        <time>1970-01-01T02:35:56.000Z</time>
      </trkpt>
      <trkpt lat="45.87723" lon="2.97973">
        <ele>797.7</ele>
        <time>1970-01-01T02:35:57.000Z</time>
      </trkpt>
      <trkpt lat="45.87722" lon="2.97969">
        <ele>797.8</ele>
        <time>1970-01-01T02:35:58.000Z</time>
      </trkpt>
      <trkpt lat="45.87722" lon="2.97964">
        <ele>798</ele>
        <time>1970-01-01T02:36:00.000Z</time>
      </trkpt>
      <trkpt lat="45.8772" lon="2.97959">
        <ele>798.2</ele>
        <time>1970-01-01T02:36:01.000Z</time>
      </trkpt>
      <trkpt lat="45.87719" lon="2.97955">
        <ele>798.3</ele>
        <time>1970-01-01T02:36:02.000Z</time>
      </trkpt>
      <trkpt lat="45.87718" lon="2.97951">
        <ele>798.5</ele>
        <time>1970-01-01T02:36:03.000Z</time>
      </trkpt>
      <trkpt lat="45.87716" lon="2.97946">
        <ele>798.7</ele>
        <time>1970-01-01T02:36:04.000Z</time>
      </trkpt>
      <trkpt lat="45.87715" lon="2.97941">
        <ele>798.9</ele>
        <time>1970-01-01T02:36:06.000Z</time>
      </trkpt>
      <trkpt lat="45.87713" lon="2.97935">
        <ele>799.1</ele>
        <time>1970-01-01T02:36:07.000Z</time>
      </trkpt>
      <trkpt lat="45.87713" lon="2.97933">
        <ele>799.2</ele>
        <time>1970-01-01T02:36:08.000Z</time>
      </trkpt>
      <trkpt lat="45.87711" lon="2.9793">
        <ele>799.3</ele>
        <time>1970-01-01T02:36:09.000Z</time>
      </trkpt>
      <trkpt lat="45.8771" lon="2.97926">
        <ele>799.4</ele>
        <time>1970-01-01T02:36:10.000Z</time>
      </trkpt>
      <trkpt lat="45.87709" lon="2.97921">
        <ele>799.6</ele>
        <time>1970-01-01T02:36:11.000Z</time>
      </trkpt>
      <trkpt lat="45.87708" lon="2.97919">
        <ele>799.7</ele>
        <time>1970-01-01T02:36:12.000Z</time>
      </trkpt>
      <trkpt lat="45.87707" lon="2.97913">
        <ele>799.8</ele>
        <time>1970-01-01T02:36:13.000Z</time>
      </trkpt>
      <trkpt lat="45.87706" lon="2.97911">
        <ele>799.9</ele>
        <time>1970-01-01T02:36:14.000Z</time>
      </trkpt>
      <trkpt lat="45.87705" lon="2.97905">
        <ele>800</ele>
        <time>1970-01-01T02:36:15.000Z</time>
      </trkpt>
      <trkpt lat="45.87704" lon="2.97901">
        <ele>800.2</ele>
        <time>1970-01-01T02:36:17.000Z</time>
      </trkpt>
      <trkpt lat="45.87704" lon="2.97897">
        <ele>800.3</ele>
        <time>1970-01-01T02:36:18.000Z</time>
      </trkpt>
      <trkpt lat="45.87702" lon="2.97894">
        <ele>800.4</ele>
        <time>1970-01-01T02:36:19.000Z</time>
      </trkpt>
      <trkpt lat="45.87702" lon="2.97893">
        <ele>800.4</ele>
        <time>1970-01-01T02:36:20.000Z</time>
      </trkpt>
      <trkpt lat="45.87701" lon="2.97887">
        <ele>800.5</ele>
        <time>1970-01-01T02:36:21.000Z</time>
      </trkpt>
      <trkpt lat="45.877" lon="2.97882">
        <ele>800.7</ele>
        <time>1970-01-01T02:36:22.000Z</time>
      </trkpt>
      <trkpt lat="45.87698" lon="2.97877">
        <ele>800.8</ele>
        <time>1970-01-01T02:36:24.000Z</time>
      </trkpt>
      <trkpt lat="45.87698" lon="2.97873">
        <ele>800.9</ele>
        <time>1970-01-01T02:36:25.000Z</time>
      </trkpt>
      <trkpt lat="45.87696" lon="2.97867">
        <ele>801</ele>
        <time>1970-01-01T02:36:26.000Z</time>
      </trkpt>
      <trkpt lat="45.87695" lon="2.97862">
        <ele>801.2</ele>
        <time>1970-01-01T02:36:28.000Z</time>
      </trkpt>
      <trkpt lat="45.87694" lon="2.97857">
        <ele>801.3</ele>
        <time>1970-01-01T02:36:29.000Z</time>
      </trkpt>
      <trkpt lat="45.87693" lon="2.9785">
        <ele>801.5</ele>
        <time>1970-01-01T02:36:30.000Z</time>
      </trkpt>
      <trkpt lat="45.87692" lon="2.97845">
        <ele>801.7</ele>
        <time>1970-01-01T02:36:31.000Z</time>
      </trkpt>
      <trkpt lat="45.87692" lon="2.97843">
        <ele>801.8</ele>
        <time>1970-01-01T02:36:32.000Z</time>
      </trkpt>
      <trkpt lat="45.87692" lon="2.97839">
        <ele>801.9</ele>
        <time>1970-01-01T02:36:34.000Z</time>
      </trkpt>
      <trkpt lat="45.87692" lon="2.97834">
        <ele>802.1</ele>
        <time>1970-01-01T02:36:35.000Z</time>
      </trkpt>
      <trkpt lat="45.87693" lon="2.9783">
        <ele>802.2</ele>
        <time>1970-01-01T02:36:36.000Z</time>
      </trkpt>
      <trkpt lat="45.87693" lon="2.97825">
        <ele>802.4</ele>
        <time>1970-01-01T02:36:37.000Z</time>
      </trkpt>
      <trkpt lat="45.87692" lon="2.97819">
        <ele>802.6</ele>
        <time>1970-01-01T02:36:39.000Z</time>
      </trkpt>
      <trkpt lat="45.87692" lon="2.97816">
        <ele>802.7</ele>
        <time>1970-01-01T02:36:40.000Z</time>
      </trkpt>
      <trkpt lat="45.87692" lon="2.97814">
        <ele>802.7</ele>
        <time>1970-01-01T02:36:41.000Z</time>
      </trkpt>
      <trkpt lat="45.87692" lon="2.9781">
        <ele>802.9</ele>
        <time>1970-01-01T02:36:42.000Z</time>
      </trkpt>
      <trkpt lat="45.87693" lon="2.97804">
        <ele>803.1</ele>
        <time>1970-01-01T02:36:43.000Z</time>
      </trkpt>
      <trkpt lat="45.87693" lon="2.97802">
        <ele>803.1</ele>
        <time>1970-01-01T02:36:44.000Z</time>
      </trkpt>
      <trkpt lat="45.87694" lon="2.97797">
        <ele>803.4</ele>
        <time>1970-01-01T02:36:45.000Z</time>
      </trkpt>
      <trkpt lat="45.87694" lon="2.97794">
        <ele>803.4</ele>
        <time>1970-01-01T02:36:46.000Z</time>
      </trkpt>
      <trkpt lat="45.87695" lon="2.97789">
        <ele>803.6</ele>
        <time>1970-01-01T02:36:48.000Z</time>
      </trkpt>
      <trkpt lat="45.87696" lon="2.97787">
        <ele>803.7</ele>
        <time>1970-01-01T02:36:49.000Z</time>
      </trkpt>
      <trkpt lat="45.87696" lon="2.97785">
        <ele>803.8</ele>
        <time>1970-01-01T02:36:50.000Z</time>
      </trkpt>
      <trkpt lat="45.87697" lon="2.97783">
        <ele>803.8</ele>
        <time>1970-01-01T02:36:51.000Z</time>
      </trkpt>
      <trkpt lat="45.87697" lon="2.97781">
        <ele>803.9</ele>
        <time>1970-01-01T02:36:52.000Z</time>
      </trkpt>
      <trkpt lat="45.87698" lon="2.97777">
        <ele>804.1</ele>
        <time>1970-01-01T02:36:53.000Z</time>
      </trkpt>
      <trkpt lat="45.87699" lon="2.97776">
        <ele>804.1</ele>
        <time>1970-01-01T02:36:54.000Z</time>
      </trkpt>
      <trkpt lat="45.87699" lon="2.9777">
        <ele>804.3</ele>
        <time>1970-01-01T02:36:55.000Z</time>
      </trkpt>
      <trkpt lat="45.87699" lon="2.97768">
        <ele>804.4</ele>
        <time>1970-01-01T02:36:56.000Z</time>
      </trkpt>
      <trkpt lat="45.877" lon="2.97763">
        <ele>804.5</ele>
        <time>1970-01-01T02:36:57.000Z</time>
      </trkpt>
      <trkpt lat="45.87702" lon="2.9776">
        <ele>804.7</ele>
        <time>1970-01-01T02:36:58.000Z</time>
      </trkpt>
      <trkpt lat="45.87704" lon="2.97756">
        <ele>804.8</ele>
        <time>1970-01-01T02:37:00.000Z</time>
      </trkpt>
      <trkpt lat="45.87706" lon="2.97752">
        <ele>805</ele>
        <time>1970-01-01T02:37:02.000Z</time>
      </trkpt>
      <trkpt lat="45.87708" lon="2.97749">
        <ele>805.2</ele>
        <time>1970-01-01T02:37:03.000Z</time>
      </trkpt>
      <trkpt lat="45.87709" lon="2.97748">
        <ele>805.3</ele>
        <time>1970-01-01T02:37:04.000Z</time>
      </trkpt>
      <trkpt lat="45.8771" lon="2.97746">
        <ele>805.4</ele>
        <time>1970-01-01T02:37:05.000Z</time>
      </trkpt>
      <trkpt lat="45.87713" lon="2.97741">
        <ele>805.6</ele>
        <time>1970-01-01T02:37:07.000Z</time>
      </trkpt>
      <trkpt lat="45.87714" lon="2.97739">
        <ele>805.7</ele>
        <time>1970-01-01T02:37:08.000Z</time>
      </trkpt>
      <trkpt lat="45.87715" lon="2.97738">
        <ele>805.8</ele>
        <time>1970-01-01T02:37:09.000Z</time>
      </trkpt>
      <trkpt lat="45.87718" lon="2.97735">
        <ele>806</ele>
        <time>1970-01-01T02:37:10.000Z</time>
      </trkpt>
      <trkpt lat="45.87718" lon="2.97734">
        <ele>806</ele>
        <time>1970-01-01T02:37:11.000Z</time>
      </trkpt>
      <trkpt lat="45.8772" lon="2.97731">
        <ele>806.2</ele>
        <time>1970-01-01T02:37:12.000Z</time>
      </trkpt>
      <trkpt lat="45.8772" lon="2.97729">
        <ele>806.2</ele>
        <time>1970-01-01T02:37:13.000Z</time>
      </trkpt>
      <trkpt lat="45.87722" lon="2.97725">
        <ele>806.4</ele>
        <time>1970-01-01T02:37:14.000Z</time>
      </trkpt>
      <trkpt lat="45.87723" lon="2.97724">
        <ele>806.5</ele>
        <time>1970-01-01T02:37:15.000Z</time>
      </trkpt>
      <trkpt lat="45.87724" lon="2.9772">
        <ele>806.6</ele>
        <time>1970-01-01T02:37:16.000Z</time>
      </trkpt>
      <trkpt lat="45.87726" lon="2.97718">
        <ele>806.8</ele>
        <time>1970-01-01T02:37:18.000Z</time>
      </trkpt>
      <trkpt lat="45.87727" lon="2.97716">
        <ele>806.9</ele>
        <time>1970-01-01T02:37:19.000Z</time>
      </trkpt>
      <trkpt lat="45.87728" lon="2.97714">
        <ele>807</ele>
        <time>1970-01-01T02:37:20.000Z</time>
      </trkpt>
      <trkpt lat="45.87729" lon="2.9771">
        <ele>807.1</ele>
        <time>1970-01-01T02:37:21.000Z</time>
      </trkpt>
      <trkpt lat="45.8773" lon="2.97709">
        <ele>807.2</ele>
        <time>1970-01-01T02:37:22.000Z</time>
      </trkpt>
      <trkpt lat="45.87732" lon="2.97706">
        <ele>807.3</ele>
        <time>1970-01-01T02:37:23.000Z</time>
      </trkpt>
      <trkpt lat="45.87732" lon="2.97704">
        <ele>807.4</ele>
        <time>1970-01-01T02:37:24.000Z</time>
      </trkpt>
      <trkpt lat="45.87733" lon="2.97699">
        <ele>807.5</ele>
        <time>1970-01-01T02:37:25.000Z</time>
      </trkpt>
      <trkpt lat="45.87734" lon="2.97698">
        <ele>807.6</ele>
        <time>1970-01-01T02:37:26.000Z</time>
      </trkpt>
      <trkpt lat="45.87734" lon="2.97696">
        <ele>807.7</ele>
        <time>1970-01-01T02:37:27.000Z</time>
      </trkpt>
      <trkpt lat="45.87735" lon="2.97694">
        <ele>807.7</ele>
        <time>1970-01-01T02:37:28.000Z</time>
      </trkpt>
      <trkpt lat="45.87737" lon="2.97689">
        <ele>807.9</ele>
        <time>1970-01-01T02:37:29.000Z</time>
      </trkpt>
      <trkpt lat="45.87737" lon="2.97688">
        <ele>808</ele>
        <time>1970-01-01T02:37:30.000Z</time>
      </trkpt>
      <trkpt lat="45.87739" lon="2.97683">
        <ele>808.1</ele>
        <time>1970-01-01T02:37:31.000Z</time>
      </trkpt>
      <trkpt lat="45.87739" lon="2.97682">
        <ele>808.2</ele>
        <time>1970-01-01T02:37:32.000Z</time>
      </trkpt>
      <trkpt lat="45.87741" lon="2.97678">
        <ele>808.3</ele>
        <time>1970-01-01T02:37:34.000Z</time>
      </trkpt>
      <trkpt lat="45.87741" lon="2.97677">
        <ele>808.4</ele>
        <time>1970-01-01T02:37:35.000Z</time>
      </trkpt>
      <trkpt lat="45.87742" lon="2.97673">
        <ele>808.5</ele>
        <time>1970-01-01T02:37:36.000Z</time>
      </trkpt>
      <trkpt lat="45.87742" lon="2.97672">
        <ele>808.6</ele>
        <time>1970-01-01T02:37:37.000Z</time>
      </trkpt>
      <trkpt lat="45.87744" lon="2.97667">
        <ele>808.7</ele>
        <time>1970-01-01T02:37:38.000Z</time>
      </trkpt>
      <trkpt lat="45.87744" lon="2.97665">
        <ele>808.8</ele>
        <time>1970-01-01T02:37:39.000Z</time>
      </trkpt>
      <trkpt lat="45.87745" lon="2.97663">
        <ele>808.9</ele>
        <time>1970-01-01T02:37:40.000Z</time>
      </trkpt>
      <trkpt lat="45.87746" lon="2.9766">
        <ele>809</ele>
        <time>1970-01-01T02:37:42.000Z</time>
      </trkpt>
      <trkpt lat="45.87746" lon="2.97656">
        <ele>809.1</ele>
        <time>1970-01-01T02:37:43.000Z</time>
      </trkpt>
      <trkpt lat="45.87746" lon="2.97655">
        <ele>809.1</ele>
        <time>1970-01-01T02:37:44.000Z</time>
      </trkpt>
      <trkpt lat="45.87748" lon="2.97651">
        <ele>809.2</ele>
        <time>1970-01-01T02:37:45.000Z</time>
      </trkpt>
      <trkpt lat="45.87748" lon="2.9765">
        <ele>809.2</ele>
        <time>1970-01-01T02:37:46.000Z</time>
      </trkpt>
      <trkpt lat="45.8775" lon="2.97647">
        <ele>809.3</ele>
        <time>1970-01-01T02:37:47.000Z</time>
      </trkpt>
      <trkpt lat="45.8775" lon="2.97646">
        <ele>809.4</ele>
        <time>1970-01-01T02:37:48.000Z</time>
      </trkpt>
      <trkpt lat="45.87752" lon="2.97641">
        <ele>809.5</ele>
        <time>1970-01-01T02:37:49.000Z</time>
      </trkpt>
      <trkpt lat="45.87752" lon="2.97639">
        <ele>809.5</ele>
        <time>1970-01-01T02:37:50.000Z</time>
      </trkpt>
      <trkpt lat="45.87754" lon="2.97635">
        <ele>809.6</ele>
        <time>1970-01-01T02:37:51.000Z</time>
      </trkpt>
      <trkpt lat="45.87754" lon="2.97633">
        <ele>809.7</ele>
        <time>1970-01-01T02:37:52.000Z</time>
      </trkpt>
      <trkpt lat="45.87755" lon="2.9763">
        <ele>809.7</ele>
        <time>1970-01-01T02:37:53.000Z</time>
      </trkpt>
      <trkpt lat="45.87756" lon="2.97626">
        <ele>809.8</ele>
        <time>1970-01-01T02:37:55.000Z</time>
      </trkpt>
      <trkpt lat="45.87759" lon="2.97621">
        <ele>809.9</ele>
        <time>1970-01-01T02:37:56.000Z</time>
      </trkpt>
      <trkpt lat="45.8776" lon="2.97619">
        <ele>809.9</ele>
        <time>1970-01-01T02:37:57.000Z</time>
      </trkpt>
      <trkpt lat="45.87761" lon="2.97615">
        <ele>810</ele>
        <time>1970-01-01T02:37:58.000Z</time>
      </trkpt>
      <trkpt lat="45.87761" lon="2.97611">
        <ele>810</ele>
        <time>1970-01-01T02:38:00.000Z</time>
      </trkpt>
      <trkpt lat="45.87762" lon="2.97608">
        <ele>810</ele>
        <time>1970-01-01T02:38:01.000Z</time>
      </trkpt>
      <trkpt lat="45.87764" lon="2.97602">
        <ele>810.1</ele>
        <time>1970-01-01T02:38:02.000Z</time>
      </trkpt>
      <trkpt lat="45.87764" lon="2.976">
        <ele>810.1</ele>
        <time>1970-01-01T02:38:03.000Z</time>
      </trkpt>
      <trkpt lat="45.87765" lon="2.97595">
        <ele>810.1</ele>
        <time>1970-01-01T02:38:04.000Z</time>
      </trkpt>
      <trkpt lat="45.87765" lon="2.9759">
        <ele>810.1</ele>
        <time>1970-01-01T02:38:05.000Z</time>
      </trkpt>
      <trkpt lat="45.87766" lon="2.97585">
        <ele>810.1</ele>
        <time>1970-01-01T02:38:07.000Z</time>
      </trkpt>
      <trkpt lat="45.87767" lon="2.97583">
        <ele>810.1</ele>
        <time>1970-01-01T02:38:08.000Z</time>
      </trkpt>
      <trkpt lat="45.87768" lon="2.97578">
        <ele>810.1</ele>
        <time>1970-01-01T02:38:09.000Z</time>
      </trkpt>
      <trkpt lat="45.87768" lon="2.97576">
        <ele>810.1</ele>
        <time>1970-01-01T02:38:10.000Z</time>
      </trkpt>
      <trkpt lat="45.87769" lon="2.97572">
        <ele>810.1</ele>
        <time>1970-01-01T02:38:11.000Z</time>
      </trkpt>
      <trkpt lat="45.8777" lon="2.97566">
        <ele>810</ele>
        <time>1970-01-01T02:38:12.000Z</time>
      </trkpt>
      <trkpt lat="45.87771" lon="2.97562">
        <ele>810</ele>
        <time>1970-01-01T02:38:13.000Z</time>
      </trkpt>
      <trkpt lat="45.87772" lon="2.97557">
        <ele>809.9</ele>
        <time>1970-01-01T02:38:14.000Z</time>
      </trkpt>
      <trkpt lat="45.87773" lon="2.97552">
        <ele>809.8</ele>
        <time>1970-01-01T02:38:15.000Z</time>
      </trkpt>
      <trkpt lat="45.87773" lon="2.97547">
        <ele>809.8</ele>
        <time>1970-01-01T02:38:16.000Z</time>
      </trkpt>
      <trkpt lat="45.87774" lon="2.97541">
        <ele>809.7</ele>
        <time>1970-01-01T02:38:17.000Z</time>
      </trkpt>
      <trkpt lat="45.87775" lon="2.97534">
        <ele>809.6</ele>
        <time>1970-01-01T02:38:18.000Z</time>
      </trkpt>
      <trkpt lat="45.87775" lon="2.97526">
        <ele>809.5</ele>
        <time>1970-01-01T02:38:19.000Z</time>
      </trkpt>
      <trkpt lat="45.87776" lon="2.97516">
        <ele>809.4</ele>
        <time>1970-01-01T02:38:21.000Z</time>
      </trkpt>
      <trkpt lat="45.87777" lon="2.97506">
        <ele>809.3</ele>
        <time>1970-01-01T02:38:23.000Z</time>
      </trkpt>
      <trkpt lat="45.87777" lon="2.97499">
        <ele>809.3</ele>
        <time>1970-01-01T02:38:24.000Z</time>
      </trkpt>
      <trkpt lat="45.87779" lon="2.97494">
        <ele>809.3</ele>
        <time>1970-01-01T02:38:25.000Z</time>
      </trkpt>
      <trkpt lat="45.87781" lon="2.97486">
        <ele>809.3</ele>
        <time>1970-01-01T02:38:27.000Z</time>
      </trkpt>
      <trkpt lat="45.87781" lon="2.97481">
        <ele>809.3</ele>
        <time>1970-01-01T02:38:28.000Z</time>
      </trkpt>
      <trkpt lat="45.87782" lon="2.97475">
        <ele>809.3</ele>
        <time>1970-01-01T02:38:29.000Z</time>
      </trkpt>
      <trkpt lat="45.87783" lon="2.9747">
        <ele>809.3</ele>
        <time>1970-01-01T02:38:30.000Z</time>
      </trkpt>
      <trkpt lat="45.87784" lon="2.97461">
        <ele>809.4</ele>
        <time>1970-01-01T02:38:31.000Z</time>
      </trkpt>
      <trkpt lat="45.87786" lon="2.97456">
        <ele>809.4</ele>
        <time>1970-01-01T02:38:33.000Z</time>
      </trkpt>
      <trkpt lat="45.87787" lon="2.97453">
        <ele>809.5</ele>
        <time>1970-01-01T02:38:34.000Z</time>
      </trkpt>
      <trkpt lat="45.87788" lon="2.97449">
        <ele>809.5</ele>
        <time>1970-01-01T02:38:35.000Z</time>
      </trkpt>
      <trkpt lat="45.8779" lon="2.97445">
        <ele>809.6</ele>
        <time>1970-01-01T02:38:36.000Z</time>
      </trkpt>
      <trkpt lat="45.8779" lon="2.9744">
        <ele>809.7</ele>
        <time>1970-01-01T02:38:37.000Z</time>
      </trkpt>
      <trkpt lat="45.87791" lon="2.97436">
        <ele>809.7</ele>
        <time>1970-01-01T02:38:38.000Z</time>
      </trkpt>
      <trkpt lat="45.87792" lon="2.9743">
        <ele>809.9</ele>
        <time>1970-01-01T02:38:39.000Z</time>
      </trkpt>
      <trkpt lat="45.87793" lon="2.97424">
        <ele>810.1</ele>
        <time>1970-01-01T02:38:40.000Z</time>
      </trkpt>
      <trkpt lat="45.87794" lon="2.97416">
        <ele>810.3</ele>
        <time>1970-01-01T02:38:41.000Z</time>
      </trkpt>
      <trkpt lat="45.87797" lon="2.97407">
        <ele>810.7</ele>
        <time>1970-01-01T02:38:43.000Z</time>
      </trkpt>
      <trkpt lat="45.87798" lon="2.97403">
        <ele>811</ele>
        <time>1970-01-01T02:38:45.000Z</time>
      </trkpt>
      <trkpt lat="45.878" lon="2.97399">
        <ele>811.2</ele>
        <time>1970-01-01T02:38:46.000Z</time>
      </trkpt>
      <trkpt lat="45.87802" lon="2.97396">
        <ele>811.5</ele>
        <time>1970-01-01T02:38:47.000Z</time>
      </trkpt>
      <trkpt lat="45.87805" lon="2.97393">
        <ele>811.8</ele>
        <time>1970-01-01T02:38:48.000Z</time>
      </trkpt>
      <trkpt lat="45.87806" lon="2.97392">
        <ele>811.9</ele>
        <time>1970-01-01T02:38:49.000Z</time>
      </trkpt>
      <trkpt lat="45.87808" lon="2.97389">
        <ele>812.2</ele>
        <time>1970-01-01T02:38:50.000Z</time>
      </trkpt>
      <trkpt lat="45.87811" lon="2.97386">
        <ele>812.5</ele>
        <time>1970-01-01T02:38:52.000Z</time>
      </trkpt>
      <trkpt lat="45.87814" lon="2.97384">
        <ele>812.8</ele>
        <time>1970-01-01T02:38:53.000Z</time>
      </trkpt>
      <trkpt lat="45.87816" lon="2.97382">
        <ele>813</ele>
        <time>1970-01-01T02:38:54.000Z</time>
      </trkpt>
      <trkpt lat="45.87819" lon="2.9738">
        <ele>813.3</ele>
        <time>1970-01-01T02:38:55.000Z</time>
      </trkpt>
      <trkpt lat="45.87822" lon="2.97376">
        <ele>813.6</ele>
        <time>1970-01-01T02:38:56.000Z</time>
      </trkpt>
      <trkpt lat="45.87823" lon="2.97375">
        <ele>813.7</ele>
        <time>1970-01-01T02:38:57.000Z</time>
      </trkpt>
      <trkpt lat="45.87826" lon="2.97373">
        <ele>813.9</ele>
        <time>1970-01-01T02:38:58.000Z</time>
      </trkpt>
      <trkpt lat="45.87828" lon="2.9737">
        <ele>814</ele>
        <time>1970-01-01T02:39:00.000Z</time>
      </trkpt>
      <trkpt lat="45.87829" lon="2.97369">
        <ele>814.1</ele>
        <time>1970-01-01T02:39:01.000Z</time>
      </trkpt>
      <trkpt lat="45.87831" lon="2.97367">
        <ele>814.2</ele>
        <time>1970-01-01T02:39:02.000Z</time>
      </trkpt>
      <trkpt lat="45.87832" lon="2.97366">
        <ele>814.2</ele>
        <time>1970-01-01T02:39:03.000Z</time>
      </trkpt>
      <trkpt lat="45.87835" lon="2.97362">
        <ele>814.4</ele>
        <time>1970-01-01T02:39:04.000Z</time>
      </trkpt>
      <trkpt lat="45.87836" lon="2.9736">
        <ele>814.5</ele>
        <time>1970-01-01T02:39:05.000Z</time>
      </trkpt>
      <trkpt lat="45.87838" lon="2.97356">
        <ele>814.6</ele>
        <time>1970-01-01T02:39:07.000Z</time>
      </trkpt>
      <trkpt lat="45.8784" lon="2.97353">
        <ele>814.6</ele>
        <time>1970-01-01T02:39:08.000Z</time>
      </trkpt>
      <trkpt lat="45.87841" lon="2.97349">
        <ele>814.7</ele>
        <time>1970-01-01T02:39:09.000Z</time>
      </trkpt>
      <trkpt lat="45.87843" lon="2.97344">
        <ele>814.7</ele>
        <time>1970-01-01T02:39:10.000Z</time>
      </trkpt>
      <trkpt lat="45.87843" lon="2.97342">
        <ele>814.7</ele>
        <time>1970-01-01T02:39:11.000Z</time>
      </trkpt>
      <trkpt lat="45.87845" lon="2.97338">
        <ele>814.7</ele>
        <time>1970-01-01T02:39:12.000Z</time>
      </trkpt>
      <trkpt lat="45.87847" lon="2.97333">
        <ele>814.7</ele>
        <time>1970-01-01T02:39:14.000Z</time>
      </trkpt>
      <trkpt lat="45.87848" lon="2.97329">
        <ele>814.6</ele>
        <time>1970-01-01T02:39:15.000Z</time>
      </trkpt>
      <trkpt lat="45.87849" lon="2.97325">
        <ele>814.6</ele>
        <time>1970-01-01T02:39:16.000Z</time>
      </trkpt>
      <trkpt lat="45.8785" lon="2.9732">
        <ele>814.5</ele>
        <time>1970-01-01T02:39:17.000Z</time>
      </trkpt>
      <trkpt lat="45.87853" lon="2.97317">
        <ele>814.4</ele>
        <time>1970-01-01T02:39:18.000Z</time>
      </trkpt>
      <trkpt lat="45.87856" lon="2.97312">
        <ele>814.2</ele>
        <time>1970-01-01T02:39:19.000Z</time>
      </trkpt>
      <trkpt lat="45.87861" lon="2.97306">
        <ele>814.1</ele>
        <time>1970-01-01T02:39:21.000Z</time>
      </trkpt>
      <trkpt lat="45.87863" lon="2.973">
        <ele>813.9</ele>
        <time>1970-01-01T02:39:22.000Z</time>
      </trkpt>
      <trkpt lat="45.87865" lon="2.97294">
        <ele>813.8</ele>
        <time>1970-01-01T02:39:23.000Z</time>
      </trkpt>
      <trkpt lat="45.87868" lon="2.97287">
        <ele>813.6</ele>
        <time>1970-01-01T02:39:24.000Z</time>
      </trkpt>
      <trkpt lat="45.87872" lon="2.97279">
        <ele>813.4</ele>
        <time>1970-01-01T02:39:25.000Z</time>
      </trkpt>
      <trkpt lat="45.87874" lon="2.97272">
        <ele>813.2</ele>
        <time>1970-01-01T02:39:27.000Z</time>
      </trkpt>
      <trkpt lat="45.87877" lon="2.97267">
        <ele>813</ele>
        <time>1970-01-01T02:39:28.000Z</time>
      </trkpt>
      <trkpt lat="45.8788" lon="2.97261">
        <ele>812.8</ele>
        <time>1970-01-01T02:39:29.000Z</time>
      </trkpt>
      <trkpt lat="45.87886" lon="2.97251">
        <ele>812.5</ele>
        <time>1970-01-01T02:39:31.000Z</time>
      </trkpt>
      <trkpt lat="45.87889" lon="2.97246">
        <ele>812.3</ele>
        <time>1970-01-01T02:39:32.000Z</time>
      </trkpt>
      <trkpt lat="45.87893" lon="2.97242">
        <ele>812.1</ele>
        <time>1970-01-01T02:39:33.000Z</time>
      </trkpt>
      <trkpt lat="45.87897" lon="2.97238">
        <ele>811.9</ele>
        <time>1970-01-01T02:39:34.000Z</time>
      </trkpt>
      <trkpt lat="45.87901" lon="2.97235">
        <ele>811.7</ele>
        <time>1970-01-01T02:39:35.000Z</time>
      </trkpt>
      <trkpt lat="45.87905" lon="2.9723">
        <ele>811.5</ele>
        <time>1970-01-01T02:39:36.000Z</time>
      </trkpt>
      <trkpt lat="45.8791" lon="2.97225">
        <ele>811.3</ele>
        <time>1970-01-01T02:39:37.000Z</time>
      </trkpt>
      <trkpt lat="45.87914" lon="2.97221">
        <ele>811.1</ele>
        <time>1970-01-01T02:39:38.000Z</time>
      </trkpt>
      <trkpt lat="45.87917" lon="2.97216">
        <ele>810.9</ele>
        <time>1970-01-01T02:39:39.000Z</time>
      </trkpt>
      <trkpt lat="45.87921" lon="2.97211">
        <ele>810.7</ele>
        <time>1970-01-01T02:39:40.000Z</time>
      </trkpt>
      <trkpt lat="45.87925" lon="2.97205">
        <ele>810.5</ele>
        <time>1970-01-01T02:39:41.000Z</time>
      </trkpt>
      <trkpt lat="45.87929" lon="2.97199">
        <ele>810.4</ele>
        <time>1970-01-01T02:39:42.000Z</time>
      </trkpt>
      <trkpt lat="45.87932" lon="2.97193">
        <ele>810.2</ele>
        <time>1970-01-01T02:39:43.000Z</time>
      </trkpt>
      <trkpt lat="45.87935" lon="2.97186">
        <ele>810.1</ele>
        <time>1970-01-01T02:39:44.000Z</time>
      </trkpt>
      <trkpt lat="45.87939" lon="2.97179">
        <ele>810</ele>
        <time>1970-01-01T02:39:45.000Z</time>
      </trkpt>
      <trkpt lat="45.87942" lon="2.97173">
        <ele>810</ele>
        <time>1970-01-01T02:39:46.000Z</time>
      </trkpt>
      <trkpt lat="45.87945" lon="2.97168">
        <ele>809.9</ele>
        <time>1970-01-01T02:39:47.000Z</time>
      </trkpt>
      <trkpt lat="45.87949" lon="2.97163">
        <ele>809.9</ele>
        <time>1970-01-01T02:39:48.000Z</time>
      </trkpt>
      <trkpt lat="45.87953" lon="2.97158">
        <ele>809.8</ele>
        <time>1970-01-01T02:39:49.000Z</time>
      </trkpt>
      <trkpt lat="45.87956" lon="2.97153">
        <ele>809.8</ele>
        <time>1970-01-01T02:39:50.000Z</time>
      </trkpt>
      <trkpt lat="45.87961" lon="2.97148">
        <ele>809.7</ele>
        <time>1970-01-01T02:39:51.000Z</time>
      </trkpt>
      <trkpt lat="45.87965" lon="2.97143">
        <ele>809.7</ele>
        <time>1970-01-01T02:39:52.000Z</time>
      </trkpt>
      <trkpt lat="45.87969" lon="2.97138">
        <ele>809.7</ele>
        <time>1970-01-01T02:39:53.000Z</time>
      </trkpt>
      <trkpt lat="45.87972" lon="2.97133">
        <ele>809.7</ele>
        <time>1970-01-01T02:39:54.000Z</time>
      </trkpt>
      <trkpt lat="45.87976" lon="2.97127">
        <ele>809.6</ele>
        <time>1970-01-01T02:39:55.000Z</time>
      </trkpt>
      <trkpt lat="45.87979" lon="2.97122">
        <ele>809.6</ele>
        <time>1970-01-01T02:39:56.000Z</time>
      </trkpt>
      <trkpt lat="45.87981" lon="2.97118">
        <ele>809.6</ele>
        <time>1970-01-01T02:39:57.000Z</time>
      </trkpt>
      <trkpt lat="45.87984" lon="2.97113">
        <ele>809.6</ele>
        <time>1970-01-01T02:39:58.000Z</time>
      </trkpt>
      <trkpt lat="45.87986" lon="2.97109">
        <ele>809.6</ele>
        <time>1970-01-01T02:39:59.000Z</time>
      </trkpt>
      <trkpt lat="45.87989" lon="2.97108">
        <ele>809.6</ele>
        <time>1970-01-01T02:40:00.000Z</time>
      </trkpt>
      <trkpt lat="45.87993" lon="2.97108">
        <ele>809.6</ele>
        <time>1970-01-01T02:40:01.000Z</time>
      </trkpt>
      <trkpt lat="45.87995" lon="2.97109">
        <ele>809.6</ele>
        <time>1970-01-01T02:40:02.000Z</time>
      </trkpt>
      <trkpt lat="45.87998" lon="2.97111">
        <ele>809.7</ele>
        <time>1970-01-01T02:40:03.000Z</time>
      </trkpt>
      <trkpt lat="45.88" lon="2.97114">
        <ele>809.7</ele>
        <time>1970-01-01T02:40:04.000Z</time>
      </trkpt>
      <trkpt lat="45.88002" lon="2.97118">
        <ele>809.7</ele>
        <time>1970-01-01T02:40:05.000Z</time>
      </trkpt>
      <trkpt lat="45.88005" lon="2.97121">
        <ele>809.7</ele>
        <time>1970-01-01T02:40:06.000Z</time>
      </trkpt>
      <trkpt lat="45.8801" lon="2.97124">
        <ele>809.6</ele>
        <time>1970-01-01T02:40:07.000Z</time>
      </trkpt>
      <trkpt lat="45.88013" lon="2.97127">
        <ele>809.6</ele>
        <time>1970-01-01T02:40:08.000Z</time>
      </trkpt>
      <trkpt lat="45.88016" lon="2.97131">
        <ele>809.6</ele>
        <time>1970-01-01T02:40:09.000Z</time>
      </trkpt>
      <trkpt lat="45.88019" lon="2.97134">
        <ele>809.5</ele>
        <time>1970-01-01T02:40:11.000Z</time>
      </trkpt>
      <trkpt lat="45.88023" lon="2.97137">
        <ele>809.5</ele>
        <time>1970-01-01T02:40:12.000Z</time>
      </trkpt>
      <trkpt lat="45.88028" lon="2.97139">
        <ele>809.4</ele>
        <time>1970-01-01T02:40:13.000Z</time>
      </trkpt>
      <trkpt lat="45.88033" lon="2.97143">
        <ele>809.4</ele>
        <time>1970-01-01T02:40:15.000Z</time>
      </trkpt>
      <trkpt lat="45.88036" lon="2.97145">
        <ele>809.3</ele>
        <time>1970-01-01T02:40:16.000Z</time>
      </trkpt>
      <trkpt lat="45.88039" lon="2.97148">
        <ele>809.2</ele>
        <time>1970-01-01T02:40:17.000Z</time>
      </trkpt>
      <trkpt lat="45.88042" lon="2.97151">
        <ele>809.2</ele>
        <time>1970-01-01T02:40:18.000Z</time>
      </trkpt>
      <trkpt lat="45.88045" lon="2.97153">
        <ele>809.1</ele>
        <time>1970-01-01T02:40:19.000Z</time>
      </trkpt>
      <trkpt lat="45.88049" lon="2.97156">
        <ele>809</ele>
        <time>1970-01-01T02:40:20.000Z</time>
      </trkpt>
      <trkpt lat="45.88053" lon="2.97158">
        <ele>808.9</ele>
        <time>1970-01-01T02:40:22.000Z</time>
      </trkpt>
      <trkpt lat="45.88057" lon="2.97161">
        <ele>808.8</ele>
        <time>1970-01-01T02:40:23.000Z</time>
      </trkpt>
      <trkpt lat="45.88062" lon="2.97163">
        <ele>808.7</ele>
        <time>1970-01-01T02:40:24.000Z</time>
      </trkpt>
      <trkpt lat="45.88065" lon="2.97166">
        <ele>808.6</ele>
        <time>1970-01-01T02:40:25.000Z</time>
      </trkpt>
      <trkpt lat="45.88069" lon="2.97171">
        <ele>808.5</ele>
        <time>1970-01-01T02:40:27.000Z</time>
      </trkpt>
      <trkpt lat="45.88073" lon="2.97172">
        <ele>808.3</ele>
        <time>1970-01-01T02:40:28.000Z</time>
      </trkpt>
      <trkpt lat="45.88077" lon="2.97174">
        <ele>808.2</ele>
        <time>1970-01-01T02:40:29.000Z</time>
      </trkpt>
      <trkpt lat="45.88081" lon="2.97176">
        <ele>808.1</ele>
        <time>1970-01-01T02:40:30.000Z</time>
      </trkpt>
      <trkpt lat="45.88085" lon="2.97179">
        <ele>808</ele>
        <time>1970-01-01T02:40:31.000Z</time>
      </trkpt>
      <trkpt lat="45.8809" lon="2.97185">
        <ele>807.8</ele>
        <time>1970-01-01T02:40:32.000Z</time>
      </trkpt>
      <trkpt lat="45.88093" lon="2.9719">
        <ele>807.6</ele>
        <time>1970-01-01T02:40:33.000Z</time>
      </trkpt>
      <trkpt lat="45.88096" lon="2.97197">
        <ele>807.5</ele>
        <time>1970-01-01T02:40:34.000Z</time>
      </trkpt>
      <trkpt lat="45.88099" lon="2.97203">
        <ele>807.3</ele>
        <time>1970-01-01T02:40:35.000Z</time>
      </trkpt>
      <trkpt lat="45.88101" lon="2.97209">
        <ele>807.2</ele>
        <time>1970-01-01T02:40:36.000Z</time>
      </trkpt>
      <trkpt lat="45.88104" lon="2.97216">
        <ele>807</ele>
        <time>1970-01-01T02:40:37.000Z</time>
      </trkpt>
      <trkpt lat="45.88108" lon="2.97222">
        <ele>806.9</ele>
        <time>1970-01-01T02:40:38.000Z</time>
      </trkpt>
      <trkpt lat="45.88111" lon="2.97229">
        <ele>806.7</ele>
        <time>1970-01-01T02:40:39.000Z</time>
      </trkpt>
      <trkpt lat="45.88114" lon="2.97235">
        <ele>806.6</ele>
        <time>1970-01-01T02:40:40.000Z</time>
      </trkpt>
      <trkpt lat="45.88118" lon="2.97242">
        <ele>806.4</ele>
        <time>1970-01-01T02:40:41.000Z</time>
      </trkpt>
      <trkpt lat="45.88121" lon="2.97249">
        <ele>806.3</ele>
        <time>1970-01-01T02:40:42.000Z</time>
      </trkpt>
      <trkpt lat="45.88125" lon="2.97255">
        <ele>806.2</ele>
        <time>1970-01-01T02:40:43.000Z</time>
      </trkpt>
      <trkpt lat="45.88129" lon="2.97261">
        <ele>806.1</ele>
        <time>1970-01-01T02:40:44.000Z</time>
      </trkpt>
      <trkpt lat="45.88133" lon="2.97268">
        <ele>805.9</ele>
        <time>1970-01-01T02:40:45.000Z</time>
      </trkpt>
      <trkpt lat="45.88136" lon="2.97274">
        <ele>805.8</ele>
        <time>1970-01-01T02:40:46.000Z</time>
      </trkpt>
      <trkpt lat="45.8814" lon="2.9728">
        <ele>805.7</ele>
        <time>1970-01-01T02:40:47.000Z</time>
      </trkpt>
      <trkpt lat="45.88144" lon="2.97286">
        <ele>805.5</ele>
        <time>1970-01-01T02:40:48.000Z</time>
      </trkpt>
      <trkpt lat="45.88147" lon="2.97292">
        <ele>805.4</ele>
        <time>1970-01-01T02:40:49.000Z</time>
      </trkpt>
      <trkpt lat="45.88151" lon="2.97298">
        <ele>805.2</ele>
        <time>1970-01-01T02:40:50.000Z</time>
      </trkpt>
      <trkpt lat="45.88155" lon="2.97304">
        <ele>805</ele>
        <time>1970-01-01T02:40:51.000Z</time>
      </trkpt>
      <trkpt lat="45.88159" lon="2.9731">
        <ele>804.8</ele>
        <time>1970-01-01T02:40:52.000Z</time>
      </trkpt>
      <trkpt lat="45.88163" lon="2.97316">
        <ele>804.6</ele>
        <time>1970-01-01T02:40:53.000Z</time>
      </trkpt>
      <trkpt lat="45.88167" lon="2.97322">
        <ele>804.4</ele>
        <time>1970-01-01T02:40:54.000Z</time>
      </trkpt>
      <trkpt lat="45.88171" lon="2.97328">
        <ele>804.1</ele>
        <time>1970-01-01T02:40:55.000Z</time>
      </trkpt>
      <trkpt lat="45.88176" lon="2.97334">
        <ele>803.8</ele>
        <time>1970-01-01T02:40:56.000Z</time>
      </trkpt>
      <trkpt lat="45.88181" lon="2.97339">
        <ele>803.6</ele>
        <time>1970-01-01T02:40:57.000Z</time>
      </trkpt>
      <trkpt lat="45.88187" lon="2.97344">
        <ele>803.3</ele>
        <time>1970-01-01T02:40:58.000Z</time>
      </trkpt>
      <trkpt lat="45.88193" lon="2.9735">
        <ele>803</ele>
        <time>1970-01-01T02:40:59.000Z</time>
      </trkpt>
      <trkpt lat="45.88199" lon="2.97355">
        <ele>802.8</ele>
        <time>1970-01-01T02:41:00.000Z</time>
      </trkpt>
      <trkpt lat="45.88205" lon="2.9736">
        <ele>802.6</ele>
        <time>1970-01-01T02:41:01.000Z</time>
      </trkpt>
      <trkpt lat="45.88211" lon="2.97366">
        <ele>802.5</ele>
        <time>1970-01-01T02:41:02.000Z</time>
      </trkpt>
      <trkpt lat="45.88217" lon="2.97372">
        <ele>802.6</ele>
        <time>1970-01-01T02:41:03.000Z</time>
      </trkpt>
      <trkpt lat="45.88222" lon="2.97379">
        <ele>802.7</ele>
        <time>1970-01-01T02:41:04.000Z</time>
      </trkpt>
      <trkpt lat="45.88226" lon="2.97386">
        <ele>802.8</ele>
        <time>1970-01-01T02:41:05.000Z</time>
      </trkpt>
      <trkpt lat="45.8823" lon="2.97393">
        <ele>803</ele>
        <time>1970-01-01T02:41:06.000Z</time>
      </trkpt>
      <trkpt lat="45.88233" lon="2.97399">
        <ele>803.3</ele>
        <time>1970-01-01T02:41:07.000Z</time>
      </trkpt>
      <trkpt lat="45.88236" lon="2.97405">
        <ele>803.5</ele>
        <time>1970-01-01T02:41:08.000Z</time>
      </trkpt>
      <trkpt lat="45.88239" lon="2.97411">
        <ele>803.8</ele>
        <time>1970-01-01T02:41:09.000Z</time>
      </trkpt>
      <trkpt lat="45.88243" lon="2.97416">
        <ele>804.1</ele>
        <time>1970-01-01T02:41:10.000Z</time>
      </trkpt>
      <trkpt lat="45.88245" lon="2.9742">
        <ele>804.3</ele>
        <time>1970-01-01T02:41:11.000Z</time>
      </trkpt>
      <trkpt lat="45.88247" lon="2.97424">
        <ele>804.5</ele>
        <time>1970-01-01T02:41:12.000Z</time>
      </trkpt>
      <trkpt lat="45.88249" lon="2.97428">
        <ele>804.8</ele>
        <time>1970-01-01T02:41:13.000Z</time>
      </trkpt>
      <trkpt lat="45.88251" lon="2.97432">
        <ele>805</ele>
        <time>1970-01-01T02:41:14.000Z</time>
      </trkpt>
      <trkpt lat="45.88252" lon="2.97436">
        <ele>805.3</ele>
        <time>1970-01-01T02:41:15.000Z</time>
      </trkpt>
      <trkpt lat="45.88254" lon="2.9744">
        <ele>805.5</ele>
        <time>1970-01-01T02:41:16.000Z</time>
      </trkpt>
      <trkpt lat="45.88254" lon="2.97441">
        <ele>805.6</ele>
        <time>1970-01-01T02:41:17.000Z</time>
      </trkpt>
      <trkpt lat="45.88256" lon="2.97445">
        <ele>805.8</ele>
        <time>1970-01-01T02:41:18.000Z</time>
      </trkpt>
      <trkpt lat="45.88255" lon="2.97445">
        <ele>805.8</ele>
        <time>1970-01-01T02:41:19.000Z</time>
      </trkpt>
      <trkpt lat="45.88254" lon="2.97446">
        <ele>805.9</ele>
        <time>1970-01-01T02:41:20.000Z</time>
      </trkpt>
      <trkpt lat="45.88256" lon="2.9745">
        <ele>806.2</ele>
        <time>1970-01-01T02:41:21.000Z</time>
      </trkpt>
      <trkpt lat="45.88258" lon="2.97455">
        <ele>806.5</ele>
        <time>1970-01-01T02:41:22.000Z</time>
      </trkpt>
      <trkpt lat="45.8826" lon="2.9746">
        <ele>806.8</ele>
        <time>1970-01-01T02:41:23.000Z</time>
      </trkpt>
      <trkpt lat="45.88261" lon="2.97462">
        <ele>807</ele>
        <time>1970-01-01T02:41:24.000Z</time>
      </trkpt>
      <trkpt lat="45.88262" lon="2.97466">
        <ele>807.2</ele>
        <time>1970-01-01T02:41:26.000Z</time>
      </trkpt>
      <trkpt lat="45.88262" lon="2.97467">
        <ele>807.3</ele>
        <time>1970-01-01T02:41:27.000Z</time>
      </trkpt>
      <trkpt lat="45.88264" lon="2.97472">
        <ele>807.6</ele>
        <time>1970-01-01T02:41:28.000Z</time>
      </trkpt>
      <trkpt lat="45.88264" lon="2.97473">
        <ele>807.6</ele>
        <time>1970-01-01T02:41:29.000Z</time>
      </trkpt>
      <trkpt lat="45.88265" lon="2.97477">
        <ele>807.8</ele>
        <time>1970-01-01T02:41:30.000Z</time>
      </trkpt>
      <trkpt lat="45.88266" lon="2.97479">
        <ele>807.9</ele>
        <time>1970-01-01T02:41:31.000Z</time>
      </trkpt>
      <trkpt lat="45.88266" lon="2.97484">
        <ele>808.2</ele>
        <time>1970-01-01T02:41:32.000Z</time>
      </trkpt>
      <trkpt lat="45.88266" lon="2.97485">
        <ele>808.2</ele>
        <time>1970-01-01T02:41:33.000Z</time>
      </trkpt>
      <trkpt lat="45.88266" lon="2.9749">
        <ele>808.4</ele>
        <time>1970-01-01T02:41:34.000Z</time>
      </trkpt>
      <trkpt lat="45.88266" lon="2.97491">
        <ele>808.5</ele>
        <time>1970-01-01T02:41:35.000Z</time>
      </trkpt>
      <trkpt lat="45.88266" lon="2.97495">
        <ele>808.6</ele>
        <time>1970-01-01T02:41:36.000Z</time>
      </trkpt>
      <trkpt lat="45.88266" lon="2.97497">
        <ele>808.7</ele>
        <time>1970-01-01T02:41:37.000Z</time>
      </trkpt>
      <trkpt lat="45.88267" lon="2.97501">
        <ele>808.9</ele>
        <time>1970-01-01T02:41:39.000Z</time>
      </trkpt>
      <trkpt lat="45.88268" lon="2.97502">
        <ele>808.9</ele>
        <time>1970-01-01T02:41:40.000Z</time>
      </trkpt>
      <trkpt lat="45.88268" lon="2.97504">
        <ele>809</ele>
        <time>1970-01-01T02:41:41.000Z</time>
      </trkpt>
      <trkpt lat="45.88269" lon="2.97507">
        <ele>809.1</ele>
        <time>1970-01-01T02:41:42.000Z</time>
      </trkpt>
      <trkpt lat="45.8827" lon="2.97511">
        <ele>809.3</ele>
        <time>1970-01-01T02:41:43.000Z</time>
      </trkpt>
      <trkpt lat="45.88271" lon="2.97512">
        <ele>809.3</ele>
        <time>1970-01-01T02:41:44.000Z</time>
      </trkpt>
      <trkpt lat="45.88272" lon="2.97517">
        <ele>809.5</ele>
        <time>1970-01-01T02:41:45.000Z</time>
      </trkpt>
      <trkpt lat="45.88273" lon="2.97519">
        <ele>809.6</ele>
        <time>1970-01-01T02:41:46.000Z</time>
      </trkpt>
      <trkpt lat="45.88274" lon="2.97523">
        <ele>809.7</ele>
        <time>1970-01-01T02:41:47.000Z</time>
      </trkpt>
      <trkpt lat="45.88275" lon="2.97524">
        <ele>809.7</ele>
        <time>1970-01-01T02:41:48.000Z</time>
      </trkpt>
      <trkpt lat="45.88276" lon="2.97528">
        <ele>809.9</ele>
        <time>1970-01-01T02:41:49.000Z</time>
      </trkpt>
      <trkpt lat="45.88276" lon="2.9753">
        <ele>809.9</ele>
        <time>1970-01-01T02:41:50.000Z</time>
      </trkpt>
      <trkpt lat="45.88278" lon="2.97536">
        <ele>810.1</ele>
        <time>1970-01-01T02:41:52.000Z</time>
      </trkpt>
      <trkpt lat="45.88278" lon="2.97538">
        <ele>810.2</ele>
        <time>1970-01-01T02:41:53.000Z</time>
      </trkpt>
      <trkpt lat="45.88279" lon="2.9754">
        <ele>810.2</ele>
        <time>1970-01-01T02:41:54.000Z</time>
      </trkpt>
      <trkpt lat="45.8828" lon="2.97544">
        <ele>810.3</ele>
        <time>1970-01-01T02:41:55.000Z</time>
      </trkpt>
      <trkpt lat="45.88281" lon="2.97548">
        <ele>810.4</ele>
        <time>1970-01-01T02:41:56.000Z</time>
      </trkpt>
      <trkpt lat="45.88283" lon="2.97552">
        <ele>810.5</ele>
        <time>1970-01-01T02:41:58.000Z</time>
      </trkpt>
      <trkpt lat="45.88285" lon="2.97557">
        <ele>810.6</ele>
        <time>1970-01-01T02:41:59.000Z</time>
      </trkpt>
      <trkpt lat="45.88286" lon="2.97559">
        <ele>810.7</ele>
        <time>1970-01-01T02:42:00.000Z</time>
      </trkpt>
      <trkpt lat="45.88289" lon="2.97564">
        <ele>810.8</ele>
        <time>1970-01-01T02:42:02.000Z</time>
      </trkpt>
      <trkpt lat="45.88291" lon="2.97568">
        <ele>810.8</ele>
        <time>1970-01-01T02:42:03.000Z</time>
      </trkpt>
      <trkpt lat="45.88292" lon="2.97576">
        <ele>810.9</ele>
        <time>1970-01-01T02:42:05.000Z</time>
      </trkpt>
      <trkpt lat="45.88292" lon="2.97579">
        <ele>811</ele>
        <time>1970-01-01T02:42:06.000Z</time>
      </trkpt>
      <trkpt lat="45.88294" lon="2.97583">
        <ele>811</ele>
        <time>1970-01-01T02:42:08.000Z</time>
      </trkpt>
      <trkpt lat="45.88296" lon="2.97587">
        <ele>811.1</ele>
        <time>1970-01-01T02:42:09.000Z</time>
      </trkpt>
      <trkpt lat="45.88298" lon="2.9759">
        <ele>811.1</ele>
        <time>1970-01-01T02:42:10.000Z</time>
      </trkpt>
      <trkpt lat="45.883" lon="2.97594">
        <ele>811.1</ele>
        <time>1970-01-01T02:42:11.000Z</time>
      </trkpt>
      <trkpt lat="45.88302" lon="2.97598">
        <ele>811.2</ele>
        <time>1970-01-01T02:42:12.000Z</time>
      </trkpt>
      <trkpt lat="45.88304" lon="2.97603">
        <ele>811.2</ele>
        <time>1970-01-01T02:42:13.000Z</time>
      </trkpt>
      <trkpt lat="45.88305" lon="2.97604">
        <ele>811.2</ele>
        <time>1970-01-01T02:42:14.000Z</time>
      </trkpt>
      <trkpt lat="45.88306" lon="2.97608">
        <ele>811.2</ele>
        <time>1970-01-01T02:42:15.000Z</time>
      </trkpt>
      <trkpt lat="45.88309" lon="2.97613">
        <ele>811.2</ele>
        <time>1970-01-01T02:42:16.000Z</time>
      </trkpt>
      <trkpt lat="45.8831" lon="2.97614">
        <ele>811.2</ele>
        <time>1970-01-01T02:42:17.000Z</time>
      </trkpt>
      <trkpt lat="45.88313" lon="2.97618">
        <ele>811.1</ele>
        <time>1970-01-01T02:42:18.000Z</time>
      </trkpt>
      <trkpt lat="45.88314" lon="2.97622">
        <ele>811.1</ele>
        <time>1970-01-01T02:42:19.000Z</time>
      </trkpt>
      <trkpt lat="45.88316" lon="2.97627">
        <ele>811.1</ele>
        <time>1970-01-01T02:42:21.000Z</time>
      </trkpt>
      <trkpt lat="45.88318" lon="2.97631">
        <ele>811</ele>
        <time>1970-01-01T02:42:22.000Z</time>
      </trkpt>
      <trkpt lat="45.8832" lon="2.97636">
        <ele>811</ele>
        <time>1970-01-01T02:42:23.000Z</time>
      </trkpt>
      <trkpt lat="45.88323" lon="2.9764">
        <ele>810.9</ele>
        <time>1970-01-01T02:42:24.000Z</time>
      </trkpt>
      <trkpt lat="45.88326" lon="2.97648">
        <ele>810.8</ele>
        <time>1970-01-01T02:42:25.000Z</time>
      </trkpt>
      <trkpt lat="45.88329" lon="2.97653">
        <ele>810.7</ele>
        <time>1970-01-01T02:42:27.000Z</time>
      </trkpt>
      <trkpt lat="45.88334" lon="2.97663">
        <ele>810.4</ele>
        <time>1970-01-01T02:42:29.000Z</time>
      </trkpt>
      <trkpt lat="45.88336" lon="2.97668">
        <ele>810.3</ele>
        <time>1970-01-01T02:42:30.000Z</time>
      </trkpt>
      <trkpt lat="45.88339" lon="2.97671">
        <ele>810.2</ele>
        <time>1970-01-01T02:42:31.000Z</time>
      </trkpt>
      <trkpt lat="45.88341" lon="2.97677">
        <ele>810</ele>
        <time>1970-01-01T02:42:32.000Z</time>
      </trkpt>
      <trkpt lat="45.88341" lon="2.97683">
        <ele>809.6</ele>
        <time>1970-01-01T02:42:33.000Z</time>
      </trkpt>
      <trkpt lat="45.88342" lon="2.97689">
        <ele>809.5</ele>
        <time>1970-01-01T02:42:34.000Z</time>
      </trkpt>
      <trkpt lat="45.88345" lon="2.97689">
        <ele>809.4</ele>
        <time>1970-01-01T02:42:35.000Z</time>
      </trkpt>
      <trkpt lat="45.88348" lon="2.97684">
        <ele>809.3</ele>
        <time>1970-01-01T02:42:37.000Z</time>
      </trkpt>
      <trkpt lat="45.8835" lon="2.97676">
        <ele>809</ele>
        <time>1970-01-01T02:42:39.000Z</time>
      </trkpt>
      <trkpt lat="45.8835" lon="2.97671">
        <ele>808.9</ele>
        <time>1970-01-01T02:42:40.000Z</time>
      </trkpt>
      <trkpt lat="45.8835" lon="2.97668">
        <ele>808.8</ele>
        <time>1970-01-01T02:42:41.000Z</time>
      </trkpt>
      <trkpt lat="45.8835" lon="2.97666">
        <ele>808.7</ele>
        <time>1970-01-01T02:42:42.000Z</time>
      </trkpt>
      <trkpt lat="45.88351" lon="2.97662">
        <ele>808.6</ele>
        <time>1970-01-01T02:42:43.000Z</time>
      </trkpt>
      <trkpt lat="45.88352" lon="2.97661">
        <ele>808.5</ele>
        <time>1970-01-01T02:42:44.000Z</time>
      </trkpt>
      <trkpt lat="45.88355" lon="2.97657">
        <ele>808.4</ele>
        <time>1970-01-01T02:42:45.000Z</time>
      </trkpt>
      <trkpt lat="45.88356" lon="2.97656">
        <ele>808.3</ele>
        <time>1970-01-01T02:42:46.000Z</time>
      </trkpt>
      <trkpt lat="45.88359" lon="2.97653">
        <ele>808.2</ele>
        <time>1970-01-01T02:42:47.000Z</time>
      </trkpt>
      <trkpt lat="45.88368" lon="2.97648">
        <ele>807.7</ele>
        <time>1970-01-01T02:42:48.000Z</time>
      </trkpt>
      <trkpt lat="45.88371" lon="2.97649">
        <ele>807.6</ele>
        <time>1970-01-01T02:42:49.000Z</time>
      </trkpt>
      <trkpt lat="45.88375" lon="2.9765">
        <ele>807.4</ele>
        <time>1970-01-01T02:42:50.000Z</time>
      </trkpt>
      <trkpt lat="45.88379" lon="2.97647">
        <ele>807.2</ele>
        <time>1970-01-01T02:42:51.000Z</time>
      </trkpt>
      <trkpt lat="45.88385" lon="2.97645">
        <ele>807</ele>
        <time>1970-01-01T02:42:52.000Z</time>
      </trkpt>
      <trkpt lat="45.8839" lon="2.97644">
        <ele>806.8</ele>
        <time>1970-01-01T02:42:53.000Z</time>
      </trkpt>
      <trkpt lat="45.88395" lon="2.97645">
        <ele>806.6</ele>
        <time>1970-01-01T02:42:54.000Z</time>
      </trkpt>
      <trkpt lat="45.88398" lon="2.97645">
        <ele>806.5</ele>
        <time>1970-01-01T02:42:55.000Z</time>
      </trkpt>
      <trkpt lat="45.88402" lon="2.97646">
        <ele>806.3</ele>
        <time>1970-01-01T02:42:56.000Z</time>
      </trkpt>
      <trkpt lat="45.88406" lon="2.97648">
        <ele>806.1</ele>
        <time>1970-01-01T02:42:57.000Z</time>
      </trkpt>
      <trkpt lat="45.88416" lon="2.97651">
        <ele>805.6</ele>
        <time>1970-01-01T02:42:59.000Z</time>
      </trkpt>
      <trkpt lat="45.88422" lon="2.97652">
        <ele>805.3</ele>
        <time>1970-01-01T02:43:00.000Z</time>
      </trkpt>
      <trkpt lat="45.88427" lon="2.97653">
        <ele>805</ele>
        <time>1970-01-01T02:43:01.000Z</time>
      </trkpt>
      <trkpt lat="45.88432" lon="2.97655">
        <ele>804.7</ele>
        <time>1970-01-01T02:43:02.000Z</time>
      </trkpt>
      <trkpt lat="45.88437" lon="2.97657">
        <ele>804.3</ele>
        <time>1970-01-01T02:43:03.000Z</time>
      </trkpt>
      <trkpt lat="45.88443" lon="2.9766">
        <ele>803.9</ele>
        <time>1970-01-01T02:43:04.000Z</time>
      </trkpt>
      <trkpt lat="45.88448" lon="2.97663">
        <ele>803.5</ele>
        <time>1970-01-01T02:43:05.000Z</time>
      </trkpt>
      <trkpt lat="45.88453" lon="2.97665">
        <ele>803</ele>
        <time>1970-01-01T02:43:06.000Z</time>
      </trkpt>
      <trkpt lat="45.88459" lon="2.97668">
        <ele>802.6</ele>
        <time>1970-01-01T02:43:07.000Z</time>
      </trkpt>
      <trkpt lat="45.88464" lon="2.97672">
        <ele>802</ele>
        <time>1970-01-01T02:43:08.000Z</time>
      </trkpt>
      <trkpt lat="45.8847" lon="2.97676">
        <ele>801.5</ele>
        <time>1970-01-01T02:43:09.000Z</time>
      </trkpt>
      <trkpt lat="45.88476" lon="2.97679">
        <ele>801</ele>
        <time>1970-01-01T02:43:10.000Z</time>
      </trkpt>
      <trkpt lat="45.88483" lon="2.97683">
        <ele>800.5</ele>
        <time>1970-01-01T02:43:11.000Z</time>
      </trkpt>
      <trkpt lat="45.88489" lon="2.97687">
        <ele>800.1</ele>
        <time>1970-01-01T02:43:12.000Z</time>
      </trkpt>
      <trkpt lat="45.88494" lon="2.9769">
        <ele>799.8</ele>
        <time>1970-01-01T02:43:13.000Z</time>
      </trkpt>
      <trkpt lat="45.885" lon="2.97691">
        <ele>799.6</ele>
        <time>1970-01-01T02:43:14.000Z</time>
      </trkpt>
      <trkpt lat="45.88505" lon="2.97692">
        <ele>799.4</ele>
        <time>1970-01-01T02:43:15.000Z</time>
      </trkpt>
      <trkpt lat="45.88509" lon="2.97692">
        <ele>799.2</ele>
        <time>1970-01-01T02:43:16.000Z</time>
      </trkpt>
      <trkpt lat="45.88512" lon="2.97692">
        <ele>799.1</ele>
        <time>1970-01-01T02:43:17.000Z</time>
      </trkpt>
      <trkpt lat="45.88515" lon="2.97694">
        <ele>799</ele>
        <time>1970-01-01T02:43:18.000Z</time>
      </trkpt>
      <trkpt lat="45.88516" lon="2.97695">
        <ele>798.9</ele>
        <time>1970-01-01T02:43:19.000Z</time>
      </trkpt>
      <trkpt lat="45.88517" lon="2.97696">
        <ele>798.7</ele>
        <time>1970-01-01T02:43:20.000Z</time>
      </trkpt>
      <trkpt lat="45.88519" lon="2.97696">
        <ele>798.4</ele>
        <time>1970-01-01T02:43:21.000Z</time>
      </trkpt>
      <trkpt lat="45.88519" lon="2.97696">
        <ele>798.4</ele>
        <time>1970-01-01T02:43:22.000Z</time>
      </trkpt>
      <trkpt lat="45.88521" lon="2.97698">
        <ele>797.4</ele>
        <time>1970-01-01T02:43:23.000Z</time>
      </trkpt>
      <trkpt lat="45.88521" lon="2.977">
        <ele>797.4</ele>
        <time>1970-01-01T02:43:24.000Z</time>
      </trkpt>
      <trkpt lat="45.88521" lon="2.97701">
        <ele>797.4</ele>
        <time>1970-01-01T02:43:25.000Z</time>
      </trkpt>
      <trkpt lat="45.88522" lon="2.97702">
        <ele>797.4</ele>
        <time>1970-01-01T02:43:26.000Z</time>
      </trkpt>
      <trkpt lat="45.88522" lon="2.97704">
        <ele>797.4</ele>
        <time>1970-01-01T02:43:27.000Z</time>
      </trkpt>
      <trkpt lat="45.88522" lon="2.97705">
        <ele>797.4</ele>
        <time>1970-01-01T02:43:28.000Z</time>
      </trkpt>
      <trkpt lat="45.88523" lon="2.97706">
        <ele>797.4</ele>
        <time>1970-01-01T02:43:29.000Z</time>
      </trkpt>
      <trkpt lat="45.88523" lon="2.97708">
        <ele>797.4</ele>
        <time>1970-01-01T02:43:30.000Z</time>
      </trkpt>
      <trkpt lat="45.88523" lon="2.97709">
        <ele>797.4</ele>
        <time>1970-01-01T02:43:31.000Z</time>
      </trkpt>
      <trkpt lat="45.88524" lon="2.97711">
        <ele>797.4</ele>
        <time>1970-01-01T02:43:32.000Z</time>
      </trkpt>
      <trkpt lat="45.88524" lon="2.97712">
        <ele>797.4</ele>
        <time>1970-01-01T02:43:33.000Z</time>
      </trkpt>
      <trkpt lat="45.88524" lon="2.97713">
        <ele>797.4</ele>
        <time>1970-01-01T02:43:38.000Z</time>
      </trkpt>
      <trkpt lat="45.88525" lon="2.97715">
        <ele>797.4</ele>
        <time>1970-01-01T02:43:39.000Z</time>
      </trkpt>
      <trkpt lat="45.88526" lon="2.97719">
        <ele>797.4</ele>
        <time>1970-01-01T02:43:40.000Z</time>
      </trkpt>
      <trkpt lat="45.88526" lon="2.97725">
        <ele>797.4</ele>
        <time>1970-01-01T02:43:41.000Z</time>
      </trkpt>
      <trkpt lat="45.88527" lon="2.97733">
        <ele>797.4</ele>
        <time>1970-01-01T02:43:43.000Z</time>
      </trkpt>
      <trkpt lat="45.88527" lon="2.97743">
        <ele>797.4</ele>
        <time>1970-01-01T02:43:45.000Z</time>
      </trkpt>
      <trkpt lat="45.88527" lon="2.97748">
        <ele>797.4</ele>
        <time>1970-01-01T02:43:46.000Z</time>
      </trkpt>
      <trkpt lat="45.88528" lon="2.97753">
        <ele>797.4</ele>
        <time>1970-01-01T02:43:47.000Z</time>
      </trkpt>
      <trkpt lat="45.8853" lon="2.97757">
        <ele>797.4</ele>
        <time>1970-01-01T02:43:48.000Z</time>
      </trkpt>
      <trkpt lat="45.88534" lon="2.9776">
        <ele>797.5</ele>
        <time>1970-01-01T02:43:49.000Z</time>
      </trkpt>
      <trkpt lat="45.88537" lon="2.97764">
        <ele>797.7</ele>
        <time>1970-01-01T02:43:50.000Z</time>
      </trkpt>
      <trkpt lat="45.88542" lon="2.97766">
        <ele>797.9</ele>
        <time>1970-01-01T02:43:51.000Z</time>
      </trkpt>
      <trkpt lat="45.88547" lon="2.97767">
        <ele>798</ele>
        <time>1970-01-01T02:43:53.000Z</time>
      </trkpt>
      <trkpt lat="45.8855" lon="2.9777">
        <ele>798.1</ele>
        <time>1970-01-01T02:43:54.000Z</time>
      </trkpt>
      <trkpt lat="45.88553" lon="2.97774">
        <ele>798.1</ele>
        <time>1970-01-01T02:43:55.000Z</time>
      </trkpt>
      <trkpt lat="45.88555" lon="2.97775">
        <ele>798.1</ele>
        <time>1970-01-01T02:43:56.000Z</time>
      </trkpt>
      <trkpt lat="45.88557" lon="2.97777">
        <ele>798.1</ele>
        <time>1970-01-01T02:43:57.000Z</time>
      </trkpt>
      <trkpt lat="45.88559" lon="2.97779">
        <ele>798.1</ele>
        <time>1970-01-01T02:43:58.000Z</time>
      </trkpt>
      <trkpt lat="45.88562" lon="2.97781">
        <ele>798.1</ele>
        <time>1970-01-01T02:43:59.000Z</time>
      </trkpt>
      <trkpt lat="45.88565" lon="2.97784">
        <ele>798</ele>
        <time>1970-01-01T02:44:00.000Z</time>
      </trkpt>
      <trkpt lat="45.88567" lon="2.97785">
        <ele>798</ele>
        <time>1970-01-01T02:44:01.000Z</time>
      </trkpt>
      <trkpt lat="45.8857" lon="2.97785">
        <ele>797.9</ele>
        <time>1970-01-01T02:44:02.000Z</time>
      </trkpt>
      <trkpt lat="45.88572" lon="2.97785">
        <ele>797.9</ele>
        <time>1970-01-01T02:44:03.000Z</time>
      </trkpt>
      <trkpt lat="45.88575" lon="2.97785">
        <ele>797.8</ele>
        <time>1970-01-01T02:44:04.000Z</time>
      </trkpt>
      <trkpt lat="45.8858" lon="2.97786">
        <ele>797.6</ele>
        <time>1970-01-01T02:44:05.000Z</time>
      </trkpt>
      <trkpt lat="45.88588" lon="2.97791">
        <ele>797.3</ele>
        <time>1970-01-01T02:44:07.000Z</time>
      </trkpt>
      <trkpt lat="45.88593" lon="2.97793">
        <ele>797.1</ele>
        <time>1970-01-01T02:44:08.000Z</time>
      </trkpt>
      <trkpt lat="45.88599" lon="2.97795">
        <ele>796.9</ele>
        <time>1970-01-01T02:44:09.000Z</time>
      </trkpt>
      <trkpt lat="45.88604" lon="2.97797">
        <ele>796.7</ele>
        <time>1970-01-01T02:44:10.000Z</time>
      </trkpt>
      <trkpt lat="45.8861" lon="2.978">
        <ele>796.5</ele>
        <time>1970-01-01T02:44:11.000Z</time>
      </trkpt>
      <trkpt lat="45.88615" lon="2.97803">
        <ele>796.3</ele>
        <time>1970-01-01T02:44:12.000Z</time>
      </trkpt>
      <trkpt lat="45.88621" lon="2.97806">
        <ele>796</ele>
        <time>1970-01-01T02:44:13.000Z</time>
      </trkpt>
      <trkpt lat="45.88627" lon="2.97809">
        <ele>795.8</ele>
        <time>1970-01-01T02:44:14.000Z</time>
      </trkpt>
      <trkpt lat="45.88633" lon="2.97812">
        <ele>795.5</ele>
        <time>1970-01-01T02:44:15.000Z</time>
      </trkpt>
      <trkpt lat="45.88639" lon="2.97817">
        <ele>795.3</ele>
        <time>1970-01-01T02:44:16.000Z</time>
      </trkpt>
      <trkpt lat="45.88644" lon="2.97822">
        <ele>795</ele>
        <time>1970-01-01T02:44:17.000Z</time>
      </trkpt>
      <trkpt lat="45.8865" lon="2.97827">
        <ele>794.8</ele>
        <time>1970-01-01T02:44:18.000Z</time>
      </trkpt>
      <trkpt lat="45.88656" lon="2.97832">
        <ele>794.5</ele>
        <time>1970-01-01T02:44:19.000Z</time>
      </trkpt>
      <trkpt lat="45.88662" lon="2.97836">
        <ele>794.2</ele>
        <time>1970-01-01T02:44:20.000Z</time>
      </trkpt>
      <trkpt lat="45.88668" lon="2.97841">
        <ele>793.9</ele>
        <time>1970-01-01T02:44:21.000Z</time>
      </trkpt>
      <trkpt lat="45.88675" lon="2.97846">
        <ele>793.6</ele>
        <time>1970-01-01T02:44:22.000Z</time>
      </trkpt>
      <trkpt lat="45.88681" lon="2.97852">
        <ele>793.3</ele>
        <time>1970-01-01T02:44:23.000Z</time>
      </trkpt>
      <trkpt lat="45.88686" lon="2.97859">
        <ele>793.1</ele>
        <time>1970-01-01T02:44:24.000Z</time>
      </trkpt>
      <trkpt lat="45.88691" lon="2.97868">
        <ele>792.9</ele>
        <time>1970-01-01T02:44:25.000Z</time>
      </trkpt>
      <trkpt lat="45.88694" lon="2.97877">
        <ele>792.8</ele>
        <time>1970-01-01T02:44:26.000Z</time>
      </trkpt>
      <trkpt lat="45.88697" lon="2.97886">
        <ele>792.8</ele>
        <time>1970-01-01T02:44:27.000Z</time>
      </trkpt>
      <trkpt lat="45.887" lon="2.97895">
        <ele>792.8</ele>
        <time>1970-01-01T02:44:28.000Z</time>
      </trkpt>
      <trkpt lat="45.88702" lon="2.97902">
        <ele>792.7</ele>
        <time>1970-01-01T02:44:29.000Z</time>
      </trkpt>
      <trkpt lat="45.88704" lon="2.9791">
        <ele>792.7</ele>
        <time>1970-01-01T02:44:30.000Z</time>
      </trkpt>
      <trkpt lat="45.88706" lon="2.97917">
        <ele>792.7</ele>
        <time>1970-01-01T02:44:31.000Z</time>
      </trkpt>
      <trkpt lat="45.88709" lon="2.97923">
        <ele>792.7</ele>
        <time>1970-01-01T02:44:32.000Z</time>
      </trkpt>
      <trkpt lat="45.88713" lon="2.97928">
        <ele>792.7</ele>
        <time>1970-01-01T02:44:33.000Z</time>
      </trkpt>
      <trkpt lat="45.88718" lon="2.97933">
        <ele>792.7</ele>
        <time>1970-01-01T02:44:34.000Z</time>
      </trkpt>
      <trkpt lat="45.88722" lon="2.97937">
        <ele>792.7</ele>
        <time>1970-01-01T02:44:35.000Z</time>
      </trkpt>
      <trkpt lat="45.88726" lon="2.97941">
        <ele>792.7</ele>
        <time>1970-01-01T02:44:36.000Z</time>
      </trkpt>
      <trkpt lat="45.88731" lon="2.97943">
        <ele>792.7</ele>
        <time>1970-01-01T02:44:37.000Z</time>
      </trkpt>
      <trkpt lat="45.88735" lon="2.97945">
        <ele>792.7</ele>
        <time>1970-01-01T02:44:38.000Z</time>
      </trkpt>
      <trkpt lat="45.88739" lon="2.97947">
        <ele>792.7</ele>
        <time>1970-01-01T02:44:39.000Z</time>
      </trkpt>
      <trkpt lat="45.88744" lon="2.97948">
        <ele>792.7</ele>
        <time>1970-01-01T02:44:40.000Z</time>
      </trkpt>
      <trkpt lat="45.88747" lon="2.97947">
        <ele>792.7</ele>
        <time>1970-01-01T02:44:41.000Z</time>
      </trkpt>
      <trkpt lat="45.88751" lon="2.97942">
        <ele>792.5</ele>
        <time>1970-01-01T02:44:42.000Z</time>
      </trkpt>
      <trkpt lat="45.88754" lon="2.97936">
        <ele>792.4</ele>
        <time>1970-01-01T02:44:43.000Z</time>
      </trkpt>
      <trkpt lat="45.88754" lon="2.97929">
        <ele>792.4</ele>
        <time>1970-01-01T02:44:44.000Z</time>
      </trkpt>
      <trkpt lat="45.88755" lon="2.97922">
        <ele>792.4</ele>
        <time>1970-01-01T02:44:45.000Z</time>
      </trkpt>
      <trkpt lat="45.88755" lon="2.97915">
        <ele>792.3</ele>
        <time>1970-01-01T02:44:46.000Z</time>
      </trkpt>
      <trkpt lat="45.88755" lon="2.97907">
        <ele>792.3</ele>
        <time>1970-01-01T02:44:47.000Z</time>
      </trkpt>
      <trkpt lat="45.88756" lon="2.979">
        <ele>792.3</ele>
        <time>1970-01-01T02:44:48.000Z</time>
      </trkpt>
      <trkpt lat="45.88756" lon="2.97892">
        <ele>792.3</ele>
        <time>1970-01-01T02:44:49.000Z</time>
      </trkpt>
      <trkpt lat="45.88757" lon="2.97884">
        <ele>792.3</ele>
        <time>1970-01-01T02:44:50.000Z</time>
      </trkpt>
      <trkpt lat="45.88757" lon="2.97876">
        <ele>792.4</ele>
        <time>1970-01-01T02:44:51.000Z</time>
      </trkpt>
      <trkpt lat="45.88758" lon="2.97868">
        <ele>792.4</ele>
        <time>1970-01-01T02:44:52.000Z</time>
      </trkpt>
      <trkpt lat="45.88758" lon="2.97859">
        <ele>792.4</ele>
        <time>1970-01-01T02:44:53.000Z</time>
      </trkpt>
      <trkpt lat="45.88759" lon="2.97851">
        <ele>792.4</ele>
        <time>1970-01-01T02:44:54.000Z</time>
      </trkpt>
      <trkpt lat="45.8876" lon="2.97843">
        <ele>792.5</ele>
        <time>1970-01-01T02:44:55.000Z</time>
      </trkpt>
      <trkpt lat="45.88759" lon="2.97835">
        <ele>792.5</ele>
        <time>1970-01-01T02:44:56.000Z</time>
      </trkpt>
      <trkpt lat="45.88759" lon="2.97827">
        <ele>792.6</ele>
        <time>1970-01-01T02:44:57.000Z</time>
      </trkpt>
      <trkpt lat="45.88759" lon="2.97819">
        <ele>792.7</ele>
        <time>1970-01-01T02:44:58.000Z</time>
      </trkpt>
      <trkpt lat="45.88759" lon="2.97811">
        <ele>792.8</ele>
        <time>1970-01-01T02:44:59.000Z</time>
      </trkpt>
      <trkpt lat="45.88759" lon="2.97804">
        <ele>792.9</ele>
        <time>1970-01-01T02:45:00.000Z</time>
      </trkpt>
      <trkpt lat="45.88759" lon="2.97797">
        <ele>793</ele>
        <time>1970-01-01T02:45:01.000Z</time>
      </trkpt>
      <trkpt lat="45.88758" lon="2.9779">
        <ele>793.1</ele>
        <time>1970-01-01T02:45:02.000Z</time>
      </trkpt>
      <trkpt lat="45.88758" lon="2.97783">
        <ele>793.2</ele>
        <time>1970-01-01T02:45:03.000Z</time>
      </trkpt>
      <trkpt lat="45.88758" lon="2.97776">
        <ele>793.2</ele>
        <time>1970-01-01T02:45:04.000Z</time>
      </trkpt>
      <trkpt lat="45.88758" lon="2.97769">
        <ele>793.3</ele>
        <time>1970-01-01T02:45:05.000Z</time>
      </trkpt>
      <trkpt lat="45.88758" lon="2.97763">
        <ele>793.3</ele>
        <time>1970-01-01T02:45:06.000Z</time>
      </trkpt>
      <trkpt lat="45.88757" lon="2.97758">
        <ele>793.4</ele>
        <time>1970-01-01T02:45:07.000Z</time>
      </trkpt>
      <trkpt lat="45.88757" lon="2.97752">
        <ele>793.4</ele>
        <time>1970-01-01T02:45:08.000Z</time>
      </trkpt>
      <trkpt lat="45.88757" lon="2.97746">
        <ele>793.4</ele>
        <time>1970-01-01T02:45:09.000Z</time>
      </trkpt>
      <trkpt lat="45.88756" lon="2.9774">
        <ele>793.4</ele>
        <time>1970-01-01T02:45:10.000Z</time>
      </trkpt>
      <trkpt lat="45.88756" lon="2.97734">
        <ele>793.5</ele>
        <time>1970-01-01T02:45:11.000Z</time>
      </trkpt>
      <trkpt lat="45.88755" lon="2.97727">
        <ele>793.5</ele>
        <time>1970-01-01T02:45:12.000Z</time>
      </trkpt>
      <trkpt lat="45.88754" lon="2.9772">
        <ele>793.5</ele>
        <time>1970-01-01T02:45:13.000Z</time>
      </trkpt>
      <trkpt lat="45.88753" lon="2.97713">
        <ele>793.5</ele>
        <time>1970-01-01T02:45:14.000Z</time>
      </trkpt>
      <trkpt lat="45.88752" lon="2.97707">
        <ele>793.5</ele>
        <time>1970-01-01T02:45:15.000Z</time>
      </trkpt>
      <trkpt lat="45.8875" lon="2.977">
        <ele>793.5</ele>
        <time>1970-01-01T02:45:16.000Z</time>
      </trkpt>
      <trkpt lat="45.88748" lon="2.97694">
        <ele>793.5</ele>
        <time>1970-01-01T02:45:17.000Z</time>
      </trkpt>
      <trkpt lat="45.88747" lon="2.97689">
        <ele>793.6</ele>
        <time>1970-01-01T02:45:18.000Z</time>
      </trkpt>
      <trkpt lat="45.88745" lon="2.97683">
        <ele>793.6</ele>
        <time>1970-01-01T02:45:19.000Z</time>
      </trkpt>
      <trkpt lat="45.88744" lon="2.97677">
        <ele>793.6</ele>
        <time>1970-01-01T02:45:20.000Z</time>
      </trkpt>
      <trkpt lat="45.88741" lon="2.97671">
        <ele>793.6</ele>
        <time>1970-01-01T02:45:21.000Z</time>
      </trkpt>
      <trkpt lat="45.88739" lon="2.97665">
        <ele>793.6</ele>
        <time>1970-01-01T02:45:22.000Z</time>
      </trkpt>
      <trkpt lat="45.88737" lon="2.97659">
        <ele>793.6</ele>
        <time>1970-01-01T02:45:23.000Z</time>
      </trkpt>
      <trkpt lat="45.88735" lon="2.97653">
        <ele>793.6</ele>
        <time>1970-01-01T02:45:24.000Z</time>
      </trkpt>
      <trkpt lat="45.88733" lon="2.97647">
        <ele>793.6</ele>
        <time>1970-01-01T02:45:25.000Z</time>
      </trkpt>
      <trkpt lat="45.88731" lon="2.97641">
        <ele>793.6</ele>
        <time>1970-01-01T02:45:26.000Z</time>
      </trkpt>
      <trkpt lat="45.88729" lon="2.97635">
        <ele>793.6</ele>
        <time>1970-01-01T02:45:27.000Z</time>
      </trkpt>
      <trkpt lat="45.8873" lon="2.9763">
        <ele>793.6</ele>
        <time>1970-01-01T02:45:28.000Z</time>
      </trkpt>
      <trkpt lat="45.88728" lon="2.97624">
        <ele>793.6</ele>
        <time>1970-01-01T02:45:29.000Z</time>
      </trkpt>
      <trkpt lat="45.88726" lon="2.97617">
        <ele>793.6</ele>
        <time>1970-01-01T02:45:30.000Z</time>
      </trkpt>
      <trkpt lat="45.88724" lon="2.97611">
        <ele>793.6</ele>
        <time>1970-01-01T02:45:32.000Z</time>
      </trkpt>
      <trkpt lat="45.88722" lon="2.97608">
        <ele>793.6</ele>
        <time>1970-01-01T02:45:33.000Z</time>
      </trkpt>
      <trkpt lat="45.8872" lon="2.97604">
        <ele>793.5</ele>
        <time>1970-01-01T02:45:34.000Z</time>
      </trkpt>
      <trkpt lat="45.88719" lon="2.976">
        <ele>793.5</ele>
        <time>1970-01-01T02:45:35.000Z</time>
      </trkpt>
      <trkpt lat="45.88718" lon="2.97593">
        <ele>793.5</ele>
        <time>1970-01-01T02:45:36.000Z</time>
      </trkpt>
      <trkpt lat="45.88717" lon="2.97588">
        <ele>793.5</ele>
        <time>1970-01-01T02:45:37.000Z</time>
      </trkpt>
      <trkpt lat="45.88716" lon="2.97584">
        <ele>793.5</ele>
        <time>1970-01-01T02:45:38.000Z</time>
      </trkpt>
      <trkpt lat="45.88715" lon="2.9758">
        <ele>793.5</ele>
        <time>1970-01-01T02:45:39.000Z</time>
      </trkpt>
      <trkpt lat="45.88715" lon="2.97574">
        <ele>793.5</ele>
        <time>1970-01-01T02:45:41.000Z</time>
      </trkpt>
      <trkpt lat="45.88715" lon="2.9757">
        <ele>793.5</ele>
        <time>1970-01-01T02:45:42.000Z</time>
      </trkpt>
      <trkpt lat="45.88714" lon="2.97565">
        <ele>793.5</ele>
        <time>1970-01-01T02:45:43.000Z</time>
      </trkpt>
      <trkpt lat="45.88713" lon="2.97561">
        <ele>793.5</ele>
        <time>1970-01-01T02:45:44.000Z</time>
      </trkpt>
      <trkpt lat="45.88713" lon="2.97555">
        <ele>793.6</ele>
        <time>1970-01-01T02:45:45.000Z</time>
      </trkpt>
      <trkpt lat="45.88713" lon="2.97546">
        <ele>793.6</ele>
        <time>1970-01-01T02:45:47.000Z</time>
      </trkpt>
      <trkpt lat="45.88713" lon="2.97541">
        <ele>793.6</ele>
        <time>1970-01-01T02:45:48.000Z</time>
      </trkpt>
      <trkpt lat="45.88713" lon="2.97535">
        <ele>793.7</ele>
        <time>1970-01-01T02:45:49.000Z</time>
      </trkpt>
      <trkpt lat="45.88715" lon="2.97528">
        <ele>793.8</ele>
        <time>1970-01-01T02:45:50.000Z</time>
      </trkpt>
      <trkpt lat="45.88715" lon="2.97521">
        <ele>793.9</ele>
        <time>1970-01-01T02:45:51.000Z</time>
      </trkpt>
      <trkpt lat="45.88716" lon="2.97515">
        <ele>793.9</ele>
        <time>1970-01-01T02:45:52.000Z</time>
      </trkpt>
      <trkpt lat="45.88716" lon="2.9751">
        <ele>794</ele>
        <time>1970-01-01T02:45:54.000Z</time>
      </trkpt>
      <trkpt lat="45.88716" lon="2.97503">
        <ele>794.1</ele>
        <time>1970-01-01T02:45:55.000Z</time>
      </trkpt>
      <trkpt lat="45.88717" lon="2.97497">
        <ele>794.2</ele>
        <time>1970-01-01T02:45:56.000Z</time>
      </trkpt>
      <trkpt lat="45.88717" lon="2.97492">
        <ele>794.2</ele>
        <time>1970-01-01T02:45:57.000Z</time>
      </trkpt>
      <trkpt lat="45.88717" lon="2.97487">
        <ele>794.3</ele>
        <time>1970-01-01T02:45:58.000Z</time>
      </trkpt>
      <trkpt lat="45.88717" lon="2.97481">
        <ele>794.4</ele>
        <time>1970-01-01T02:45:59.000Z</time>
      </trkpt>
      <trkpt lat="45.88717" lon="2.97475">
        <ele>794.4</ele>
        <time>1970-01-01T02:46:00.000Z</time>
      </trkpt>
      <trkpt lat="45.88716" lon="2.97469">
        <ele>794.5</ele>
        <time>1970-01-01T02:46:01.000Z</time>
      </trkpt>
      <trkpt lat="45.88716" lon="2.97464">
        <ele>794.5</ele>
        <time>1970-01-01T02:46:02.000Z</time>
      </trkpt>
      <trkpt lat="45.88716" lon="2.97459">
        <ele>794.5</ele>
        <time>1970-01-01T02:46:03.000Z</time>
      </trkpt>
      <trkpt lat="45.88715" lon="2.97452">
        <ele>794.6</ele>
        <time>1970-01-01T02:46:04.000Z</time>
      </trkpt>
      <trkpt lat="45.88715" lon="2.97447">
        <ele>794.6</ele>
        <time>1970-01-01T02:46:05.000Z</time>
      </trkpt>
      <trkpt lat="45.88714" lon="2.9744">
        <ele>794.6</ele>
        <time>1970-01-01T02:46:06.000Z</time>
      </trkpt>
      <trkpt lat="45.88715" lon="2.97432">
        <ele>794.7</ele>
        <time>1970-01-01T02:46:07.000Z</time>
      </trkpt>
      <trkpt lat="45.88714" lon="2.97425">
        <ele>794.7</ele>
        <time>1970-01-01T02:46:08.000Z</time>
      </trkpt>
      <trkpt lat="45.88714" lon="2.97418">
        <ele>794.7</ele>
        <time>1970-01-01T02:46:10.000Z</time>
      </trkpt>
      <trkpt lat="45.88714" lon="2.97412">
        <ele>794.7</ele>
        <time>1970-01-01T02:46:11.000Z</time>
      </trkpt>
      <trkpt lat="45.88714" lon="2.97404">
        <ele>794.7</ele>
        <time>1970-01-01T02:46:12.000Z</time>
      </trkpt>
      <trkpt lat="45.88713" lon="2.97398">
        <ele>794.6</ele>
        <time>1970-01-01T02:46:13.000Z</time>
      </trkpt>
      <trkpt lat="45.88714" lon="2.9739">
        <ele>794.5</ele>
        <time>1970-01-01T02:46:14.000Z</time>
      </trkpt>
      <trkpt lat="45.88714" lon="2.97383">
        <ele>794.5</ele>
        <time>1970-01-01T02:46:16.000Z</time>
      </trkpt>
      <trkpt lat="45.88713" lon="2.97374">
        <ele>794.4</ele>
        <time>1970-01-01T02:46:17.000Z</time>
      </trkpt>
      <trkpt lat="45.88713" lon="2.97367">
        <ele>794.3</ele>
        <time>1970-01-01T02:46:18.000Z</time>
      </trkpt>
      <trkpt lat="45.88712" lon="2.9736">
        <ele>794.2</ele>
        <time>1970-01-01T02:46:19.000Z</time>
      </trkpt>
      <trkpt lat="45.88712" lon="2.97353">
        <ele>794.2</ele>
        <time>1970-01-01T02:46:20.000Z</time>
      </trkpt>
      <trkpt lat="45.88712" lon="2.97346">
        <ele>794.1</ele>
        <time>1970-01-01T02:46:21.000Z</time>
      </trkpt>
      <trkpt lat="45.88711" lon="2.97339">
        <ele>794</ele>
        <time>1970-01-01T02:46:22.000Z</time>
      </trkpt>
      <trkpt lat="45.88711" lon="2.97332">
        <ele>793.9</ele>
        <time>1970-01-01T02:46:23.000Z</time>
      </trkpt>
      <trkpt lat="45.88711" lon="2.97326">
        <ele>793.8</ele>
        <time>1970-01-01T02:46:24.000Z</time>
      </trkpt>
      <trkpt lat="45.8871" lon="2.97318">
        <ele>793.8</ele>
        <time>1970-01-01T02:46:25.000Z</time>
      </trkpt>
      <trkpt lat="45.8871" lon="2.97311">
        <ele>793.7</ele>
        <time>1970-01-01T02:46:26.000Z</time>
      </trkpt>
      <trkpt lat="45.88709" lon="2.97304">
        <ele>793.6</ele>
        <time>1970-01-01T02:46:27.000Z</time>
      </trkpt>
      <trkpt lat="45.88708" lon="2.97297">
        <ele>793.6</ele>
        <time>1970-01-01T02:46:28.000Z</time>
      </trkpt>
      <trkpt lat="45.88708" lon="2.97291">
        <ele>793.5</ele>
        <time>1970-01-01T02:46:29.000Z</time>
      </trkpt>
      <trkpt lat="45.88708" lon="2.97284">
        <ele>793.5</ele>
        <time>1970-01-01T02:46:30.000Z</time>
      </trkpt>
      <trkpt lat="45.88708" lon="2.97277">
        <ele>793.5</ele>
        <time>1970-01-01T02:46:31.000Z</time>
      </trkpt>
      <trkpt lat="45.88709" lon="2.9727">
        <ele>793.4</ele>
        <time>1970-01-01T02:46:32.000Z</time>
      </trkpt>
      <trkpt lat="45.88711" lon="2.97264">
        <ele>793.4</ele>
        <time>1970-01-01T02:46:33.000Z</time>
      </trkpt>
      <trkpt lat="45.88714" lon="2.97257">
        <ele>793.4</ele>
        <time>1970-01-01T02:46:34.000Z</time>
      </trkpt>
      <trkpt lat="45.88717" lon="2.97252">
        <ele>793.3</ele>
        <time>1970-01-01T02:46:35.000Z</time>
      </trkpt>
      <trkpt lat="45.8872" lon="2.97246">
        <ele>793.3</ele>
        <time>1970-01-01T02:46:36.000Z</time>
      </trkpt>
      <trkpt lat="45.88723" lon="2.9724">
        <ele>793.3</ele>
        <time>1970-01-01T02:46:37.000Z</time>
      </trkpt>
      <trkpt lat="45.88726" lon="2.97234">
        <ele>793.3</ele>
        <time>1970-01-01T02:46:38.000Z</time>
      </trkpt>
      <trkpt lat="45.8873" lon="2.9723">
        <ele>793.3</ele>
        <time>1970-01-01T02:46:39.000Z</time>
      </trkpt>
      <trkpt lat="45.88733" lon="2.97225">
        <ele>793.3</ele>
        <time>1970-01-01T02:46:40.000Z</time>
      </trkpt>
      <trkpt lat="45.88736" lon="2.97219">
        <ele>793.3</ele>
        <time>1970-01-01T02:46:41.000Z</time>
      </trkpt>
      <trkpt lat="45.8874" lon="2.97214">
        <ele>793.3</ele>
        <time>1970-01-01T02:46:42.000Z</time>
      </trkpt>
      <trkpt lat="45.88743" lon="2.97208">
        <ele>793.3</ele>
        <time>1970-01-01T02:46:43.000Z</time>
      </trkpt>
      <trkpt lat="45.88746" lon="2.97202">
        <ele>793.2</ele>
        <time>1970-01-01T02:46:44.000Z</time>
      </trkpt>
      <trkpt lat="45.88749" lon="2.97196">
        <ele>793.2</ele>
        <time>1970-01-01T02:46:45.000Z</time>
      </trkpt>
      <trkpt lat="45.88753" lon="2.9719">
        <ele>793.2</ele>
        <time>1970-01-01T02:46:46.000Z</time>
      </trkpt>
      <trkpt lat="45.88756" lon="2.97184">
        <ele>793.2</ele>
        <time>1970-01-01T02:46:47.000Z</time>
      </trkpt>
      <trkpt lat="45.88759" lon="2.97178">
        <ele>793.2</ele>
        <time>1970-01-01T02:46:48.000Z</time>
      </trkpt>
      <trkpt lat="45.88762" lon="2.97172">
        <ele>793.2</ele>
        <time>1970-01-01T02:46:49.000Z</time>
      </trkpt>
      <trkpt lat="45.88765" lon="2.97167">
        <ele>793.2</ele>
        <time>1970-01-01T02:46:50.000Z</time>
      </trkpt>
      <trkpt lat="45.88768" lon="2.97161">
        <ele>793.2</ele>
        <time>1970-01-01T02:46:51.000Z</time>
      </trkpt>
      <trkpt lat="45.88772" lon="2.97156">
        <ele>793.2</ele>
        <time>1970-01-01T02:46:52.000Z</time>
      </trkpt>
      <trkpt lat="45.88775" lon="2.97151">
        <ele>793.2</ele>
        <time>1970-01-01T02:46:53.000Z</time>
      </trkpt>
      <trkpt lat="45.88778" lon="2.97145">
        <ele>793.2</ele>
        <time>1970-01-01T02:46:54.000Z</time>
      </trkpt>
      <trkpt lat="45.88781" lon="2.97139">
        <ele>793.3</ele>
        <time>1970-01-01T02:46:55.000Z</time>
      </trkpt>
      <trkpt lat="45.88784" lon="2.97134">
        <ele>793.3</ele>
        <time>1970-01-01T02:46:56.000Z</time>
      </trkpt>
      <trkpt lat="45.88787" lon="2.97128">
        <ele>793.3</ele>
        <time>1970-01-01T02:46:57.000Z</time>
      </trkpt>
      <trkpt lat="45.8879" lon="2.97123">
        <ele>793.3</ele>
        <time>1970-01-01T02:46:58.000Z</time>
      </trkpt>
      <trkpt lat="45.88793" lon="2.97118">
        <ele>793.4</ele>
        <time>1970-01-01T02:46:59.000Z</time>
      </trkpt>
      <trkpt lat="45.88796" lon="2.97113">
        <ele>793.4</ele>
        <time>1970-01-01T02:47:00.000Z</time>
      </trkpt>
      <trkpt lat="45.88799" lon="2.97108">
        <ele>793.5</ele>
        <time>1970-01-01T02:47:01.000Z</time>
      </trkpt>
      <trkpt lat="45.88802" lon="2.97102">
        <ele>793.5</ele>
        <time>1970-01-01T02:47:02.000Z</time>
      </trkpt>
      <trkpt lat="45.88805" lon="2.97097">
        <ele>793.6</ele>
        <time>1970-01-01T02:47:03.000Z</time>
      </trkpt>
      <trkpt lat="45.88808" lon="2.97095">
        <ele>793.6</ele>
        <time>1970-01-01T02:47:04.000Z</time>
      </trkpt>
      <trkpt lat="45.88812" lon="2.97095">
        <ele>793.6</ele>
        <time>1970-01-01T02:47:05.000Z</time>
      </trkpt>
      <trkpt lat="45.88816" lon="2.97099">
        <ele>793.6</ele>
        <time>1970-01-01T02:47:06.000Z</time>
      </trkpt>
      <trkpt lat="45.88818" lon="2.97104">
        <ele>793.5</ele>
        <time>1970-01-01T02:47:07.000Z</time>
      </trkpt>
      <trkpt lat="45.8882" lon="2.97109">
        <ele>793.5</ele>
        <time>1970-01-01T02:47:08.000Z</time>
      </trkpt>
      <trkpt lat="45.88823" lon="2.97114">
        <ele>793.4</ele>
        <time>1970-01-01T02:47:09.000Z</time>
      </trkpt>
      <trkpt lat="45.88825" lon="2.97121">
        <ele>793.4</ele>
        <time>1970-01-01T02:47:10.000Z</time>
      </trkpt>
      <trkpt lat="45.88828" lon="2.97127">
        <ele>793.4</ele>
        <time>1970-01-01T02:47:11.000Z</time>
      </trkpt>
      <trkpt lat="45.8883" lon="2.97133">
        <ele>793.3</ele>
        <time>1970-01-01T02:47:12.000Z</time>
      </trkpt>
      <trkpt lat="45.88832" lon="2.97139">
        <ele>793.3</ele>
        <time>1970-01-01T02:47:13.000Z</time>
      </trkpt>
      <trkpt lat="45.88833" lon="2.97145">
        <ele>793.2</ele>
        <time>1970-01-01T02:47:14.000Z</time>
      </trkpt>
      <trkpt lat="45.88836" lon="2.97151">
        <ele>793.2</ele>
        <time>1970-01-01T02:47:15.000Z</time>
      </trkpt>
      <trkpt lat="45.88838" lon="2.97157">
        <ele>793.1</ele>
        <time>1970-01-01T02:47:16.000Z</time>
      </trkpt>
      <trkpt lat="45.88841" lon="2.97164">
        <ele>793</ele>
        <time>1970-01-01T02:47:17.000Z</time>
      </trkpt>
      <trkpt lat="45.88844" lon="2.97169">
        <ele>792.9</ele>
        <time>1970-01-01T02:47:18.000Z</time>
      </trkpt>
      <trkpt lat="45.88847" lon="2.97175">
        <ele>792.9</ele>
        <time>1970-01-01T02:47:19.000Z</time>
      </trkpt>
      <trkpt lat="45.88851" lon="2.9718">
        <ele>792.8</ele>
        <time>1970-01-01T02:47:20.000Z</time>
      </trkpt>
      <trkpt lat="45.88855" lon="2.97185">
        <ele>792.7</ele>
        <time>1970-01-01T02:47:21.000Z</time>
      </trkpt>
      <trkpt lat="45.88859" lon="2.9719">
        <ele>792.6</ele>
        <time>1970-01-01T02:47:22.000Z</time>
      </trkpt>
      <trkpt lat="45.88863" lon="2.97195">
        <ele>792.6</ele>
        <time>1970-01-01T02:47:23.000Z</time>
      </trkpt>
      <trkpt lat="45.88868" lon="2.97199">
        <ele>792.5</ele>
        <time>1970-01-01T02:47:24.000Z</time>
      </trkpt>
      <trkpt lat="45.88872" lon="2.97204">
        <ele>792.4</ele>
        <time>1970-01-01T02:47:25.000Z</time>
      </trkpt>
      <trkpt lat="45.88876" lon="2.97209">
        <ele>792.3</ele>
        <time>1970-01-01T02:47:26.000Z</time>
      </trkpt>
      <trkpt lat="45.8888" lon="2.97213">
        <ele>792.2</ele>
        <time>1970-01-01T02:47:27.000Z</time>
      </trkpt>
      <trkpt lat="45.88884" lon="2.97217">
        <ele>792.1</ele>
        <time>1970-01-01T02:47:28.000Z</time>
      </trkpt>
      <trkpt lat="45.88888" lon="2.97222">
        <ele>792</ele>
        <time>1970-01-01T02:47:29.000Z</time>
      </trkpt>
      <trkpt lat="45.88892" lon="2.97227">
        <ele>792</ele>
        <time>1970-01-01T02:47:30.000Z</time>
      </trkpt>
      <trkpt lat="45.88897" lon="2.97232">
        <ele>791.9</ele>
        <time>1970-01-01T02:47:31.000Z</time>
      </trkpt>
      <trkpt lat="45.88901" lon="2.97237">
        <ele>791.8</ele>
        <time>1970-01-01T02:47:32.000Z</time>
      </trkpt>
      <trkpt lat="45.88906" lon="2.97241">
        <ele>791.7</ele>
        <time>1970-01-01T02:47:33.000Z</time>
      </trkpt>
      <trkpt lat="45.88911" lon="2.97246">
        <ele>791.6</ele>
        <time>1970-01-01T02:47:34.000Z</time>
      </trkpt>
      <trkpt lat="45.88916" lon="2.9725">
        <ele>791.5</ele>
        <time>1970-01-01T02:47:35.000Z</time>
      </trkpt>
      <trkpt lat="45.88921" lon="2.97254">
        <ele>791.4</ele>
        <time>1970-01-01T02:47:36.000Z</time>
      </trkpt>
      <trkpt lat="45.88925" lon="2.97258">
        <ele>791.3</ele>
        <time>1970-01-01T02:47:37.000Z</time>
      </trkpt>
      <trkpt lat="45.88931" lon="2.97262">
        <ele>791.3</ele>
        <time>1970-01-01T02:47:38.000Z</time>
      </trkpt>
      <trkpt lat="45.88936" lon="2.97266">
        <ele>791.2</ele>
        <time>1970-01-01T02:47:39.000Z</time>
      </trkpt>
      <trkpt lat="45.88941" lon="2.9727">
        <ele>791.1</ele>
        <time>1970-01-01T02:47:40.000Z</time>
      </trkpt>
      <trkpt lat="45.88945" lon="2.97275">
        <ele>791.1</ele>
        <time>1970-01-01T02:47:41.000Z</time>
      </trkpt>
      <trkpt lat="45.8895" lon="2.97279">
        <ele>791</ele>
        <time>1970-01-01T02:47:42.000Z</time>
      </trkpt>
      <trkpt lat="45.88955" lon="2.97283">
        <ele>791</ele>
        <time>1970-01-01T02:47:43.000Z</time>
      </trkpt>
      <trkpt lat="45.8896" lon="2.97287">
        <ele>791</ele>
        <time>1970-01-01T02:47:44.000Z</time>
      </trkpt>
      <trkpt lat="45.88965" lon="2.97291">
        <ele>791</ele>
        <time>1970-01-01T02:47:45.000Z</time>
      </trkpt>
      <trkpt lat="45.8897" lon="2.97295">
        <ele>790.9</ele>
        <time>1970-01-01T02:47:46.000Z</time>
      </trkpt>
      <trkpt lat="45.88974" lon="2.97299">
        <ele>790.9</ele>
        <time>1970-01-01T02:47:47.000Z</time>
      </trkpt>
      <trkpt lat="45.88979" lon="2.97303">
        <ele>790.9</ele>
        <time>1970-01-01T02:47:48.000Z</time>
      </trkpt>
      <trkpt lat="45.88984" lon="2.97307">
        <ele>790.8</ele>
        <time>1970-01-01T02:47:49.000Z</time>
      </trkpt>
      <trkpt lat="45.88989" lon="2.97311">
        <ele>790.8</ele>
        <time>1970-01-01T02:47:50.000Z</time>
      </trkpt>
      <trkpt lat="45.88994" lon="2.97315">
        <ele>790.8</ele>
        <time>1970-01-01T02:47:51.000Z</time>
      </trkpt>
      <trkpt lat="45.88998" lon="2.9732">
        <ele>790.8</ele>
        <time>1970-01-01T02:47:52.000Z</time>
      </trkpt>
      <trkpt lat="45.89003" lon="2.97324">
        <ele>790.7</ele>
        <time>1970-01-01T02:47:53.000Z</time>
      </trkpt>
      <trkpt lat="45.89008" lon="2.97328">
        <ele>790.7</ele>
        <time>1970-01-01T02:47:54.000Z</time>
      </trkpt>
      <trkpt lat="45.89012" lon="2.97333">
        <ele>790.7</ele>
        <time>1970-01-01T02:47:55.000Z</time>
      </trkpt>
      <trkpt lat="45.89016" lon="2.97338">
        <ele>790.6</ele>
        <time>1970-01-01T02:47:56.000Z</time>
      </trkpt>
      <trkpt lat="45.8902" lon="2.97342">
        <ele>790.6</ele>
        <time>1970-01-01T02:47:57.000Z</time>
      </trkpt>
      <trkpt lat="45.89024" lon="2.97347">
        <ele>790.6</ele>
        <time>1970-01-01T02:47:58.000Z</time>
      </trkpt>
      <trkpt lat="45.89028" lon="2.97352">
        <ele>790.5</ele>
        <time>1970-01-01T02:47:59.000Z</time>
      </trkpt>
      <trkpt lat="45.89032" lon="2.97357">
        <ele>790.5</ele>
        <time>1970-01-01T02:48:00.000Z</time>
      </trkpt>
      <trkpt lat="45.89035" lon="2.97362">
        <ele>790.5</ele>
        <time>1970-01-01T02:48:01.000Z</time>
      </trkpt>
      <trkpt lat="45.89039" lon="2.97367">
        <ele>790.5</ele>
        <time>1970-01-01T02:48:02.000Z</time>
      </trkpt>
      <trkpt lat="45.89042" lon="2.97372">
        <ele>790.5</ele>
        <time>1970-01-01T02:48:03.000Z</time>
      </trkpt>
      <trkpt lat="45.89045" lon="2.97376">
        <ele>790.5</ele>
        <time>1970-01-01T02:48:04.000Z</time>
      </trkpt>
      <trkpt lat="45.89048" lon="2.97381">
        <ele>790.5</ele>
        <time>1970-01-01T02:48:05.000Z</time>
      </trkpt>
      <trkpt lat="45.8905" lon="2.97385">
        <ele>790.5</ele>
        <time>1970-01-01T02:48:06.000Z</time>
      </trkpt>
      <trkpt lat="45.89051" lon="2.97389">
        <ele>790.5</ele>
        <time>1970-01-01T02:48:07.000Z</time>
      </trkpt>
      <trkpt lat="45.89052" lon="2.97395">
        <ele>790.5</ele>
        <time>1970-01-01T02:48:08.000Z</time>
      </trkpt>
      <trkpt lat="45.89051" lon="2.974">
        <ele>790.5</ele>
        <time>1970-01-01T02:48:09.000Z</time>
      </trkpt>
      <trkpt lat="45.8905" lon="2.97405">
        <ele>790.5</ele>
        <time>1970-01-01T02:48:10.000Z</time>
      </trkpt>
      <trkpt lat="45.89049" lon="2.9741">
        <ele>790.6</ele>
        <time>1970-01-01T02:48:11.000Z</time>
      </trkpt>
      <trkpt lat="45.89046" lon="2.97415">
        <ele>790.6</ele>
        <time>1970-01-01T02:48:12.000Z</time>
      </trkpt>
      <trkpt lat="45.89046" lon="2.97422">
        <ele>790.7</ele>
        <time>1970-01-01T02:48:13.000Z</time>
      </trkpt>
      <trkpt lat="45.89044" lon="2.97425">
        <ele>790.7</ele>
        <time>1970-01-01T02:48:14.000Z</time>
      </trkpt>
      <trkpt lat="45.89041" lon="2.97432">
        <ele>790.8</ele>
        <time>1970-01-01T02:48:15.000Z</time>
      </trkpt>
      <trkpt lat="45.89039" lon="2.97439">
        <ele>790.9</ele>
        <time>1970-01-01T02:48:16.000Z</time>
      </trkpt>
      <trkpt lat="45.89036" lon="2.97446">
        <ele>790.9</ele>
        <time>1970-01-01T02:48:17.000Z</time>
      </trkpt>
      <trkpt lat="45.89034" lon="2.97453">
        <ele>791</ele>
        <time>1970-01-01T02:48:19.000Z</time>
      </trkpt>
      <trkpt lat="45.89033" lon="2.9746">
        <ele>791.1</ele>
        <time>1970-01-01T02:48:20.000Z</time>
      </trkpt>
      <trkpt lat="45.89031" lon="2.97466">
        <ele>791.2</ele>
        <time>1970-01-01T02:48:21.000Z</time>
      </trkpt>
      <trkpt lat="45.8903" lon="2.9747">
        <ele>791.2</ele>
        <time>1970-01-01T02:48:22.000Z</time>
      </trkpt>
      <trkpt lat="45.89029" lon="2.97476">
        <ele>791.3</ele>
        <time>1970-01-01T02:48:23.000Z</time>
      </trkpt>
      <trkpt lat="45.89028" lon="2.97482">
        <ele>791.3</ele>
        <time>1970-01-01T02:48:24.000Z</time>
      </trkpt>
      <trkpt lat="45.89026" lon="2.97487">
        <ele>791.4</ele>
        <time>1970-01-01T02:48:25.000Z</time>
      </trkpt>
      <trkpt lat="45.89025" lon="2.97492">
        <ele>791.4</ele>
        <time>1970-01-01T02:48:26.000Z</time>
      </trkpt>
      <trkpt lat="45.89023" lon="2.97499">
        <ele>791.4</ele>
        <time>1970-01-01T02:48:27.000Z</time>
      </trkpt>
      <trkpt lat="45.89021" lon="2.97506">
        <ele>791.5</ele>
        <time>1970-01-01T02:48:28.000Z</time>
      </trkpt>
      <trkpt lat="45.8902" lon="2.97514">
        <ele>791.5</ele>
        <time>1970-01-01T02:48:29.000Z</time>
      </trkpt>
      <trkpt lat="45.89018" lon="2.9752">
        <ele>791.5</ele>
        <time>1970-01-01T02:48:30.000Z</time>
      </trkpt>
      <trkpt lat="45.89014" lon="2.9753">
        <ele>791.5</ele>
        <time>1970-01-01T02:48:32.000Z</time>
      </trkpt>
      <trkpt lat="45.89013" lon="2.97536">
        <ele>791.5</ele>
        <time>1970-01-01T02:48:33.000Z</time>
      </trkpt>
      <trkpt lat="45.89011" lon="2.97541">
        <ele>791.5</ele>
        <time>1970-01-01T02:48:34.000Z</time>
      </trkpt>
      <trkpt lat="45.89009" lon="2.97547">
        <ele>791.5</ele>
        <time>1970-01-01T02:48:35.000Z</time>
      </trkpt>
      <trkpt lat="45.89008" lon="2.97553">
        <ele>791.5</ele>
        <time>1970-01-01T02:48:36.000Z</time>
      </trkpt>
      <trkpt lat="45.89006" lon="2.97559">
        <ele>791.5</ele>
        <time>1970-01-01T02:48:37.000Z</time>
      </trkpt>
      <trkpt lat="45.89004" lon="2.97565">
        <ele>791.5</ele>
        <time>1970-01-01T02:48:38.000Z</time>
      </trkpt>
      <trkpt lat="45.89003" lon="2.97569">
        <ele>791.4</ele>
        <time>1970-01-01T02:48:39.000Z</time>
      </trkpt>
      <trkpt lat="45.89001" lon="2.97574">
        <ele>791.4</ele>
        <time>1970-01-01T02:48:40.000Z</time>
      </trkpt>
      <trkpt lat="45.88998" lon="2.97582">
        <ele>791.4</ele>
        <time>1970-01-01T02:48:41.000Z</time>
      </trkpt>
      <trkpt lat="45.88995" lon="2.97588">
        <ele>791.4</ele>
        <time>1970-01-01T02:48:42.000Z</time>
      </trkpt>
      <trkpt lat="45.88993" lon="2.97595">
        <ele>791.3</ele>
        <time>1970-01-01T02:48:43.000Z</time>
      </trkpt>
      <trkpt lat="45.88991" lon="2.97601">
        <ele>791.3</ele>
        <time>1970-01-01T02:48:44.000Z</time>
      </trkpt>
      <trkpt lat="45.88989" lon="2.97608">
        <ele>791.3</ele>
        <time>1970-01-01T02:48:45.000Z</time>
      </trkpt>
      <trkpt lat="45.88987" lon="2.97614">
        <ele>791.3</ele>
        <time>1970-01-01T02:48:46.000Z</time>
      </trkpt>
      <trkpt lat="45.88985" lon="2.9762">
        <ele>791.3</ele>
        <time>1970-01-01T02:48:47.000Z</time>
      </trkpt>
      <trkpt lat="45.88982" lon="2.97627">
        <ele>791.2</ele>
        <time>1970-01-01T02:48:48.000Z</time>
      </trkpt>
      <trkpt lat="45.8898" lon="2.97633">
        <ele>791.2</ele>
        <time>1970-01-01T02:48:49.000Z</time>
      </trkpt>
      <trkpt lat="45.88978" lon="2.9764">
        <ele>791.2</ele>
        <time>1970-01-01T02:48:50.000Z</time>
      </trkpt>
      <trkpt lat="45.88976" lon="2.97646">
        <ele>791.2</ele>
        <time>1970-01-01T02:48:51.000Z</time>
      </trkpt>
      <trkpt lat="45.88975" lon="2.97653">
        <ele>791.2</ele>
        <time>1970-01-01T02:48:52.000Z</time>
      </trkpt>
      <trkpt lat="45.88974" lon="2.9766">
        <ele>791.2</ele>
        <time>1970-01-01T02:48:53.000Z</time>
      </trkpt>
      <trkpt lat="45.88973" lon="2.97667">
        <ele>791.2</ele>
        <time>1970-01-01T02:48:54.000Z</time>
      </trkpt>
      <trkpt lat="45.88972" lon="2.97674">
        <ele>791.2</ele>
        <time>1970-01-01T02:48:55.000Z</time>
      </trkpt>
      <trkpt lat="45.88972" lon="2.97681">
        <ele>791.2</ele>
        <time>1970-01-01T02:48:56.000Z</time>
      </trkpt>
      <trkpt lat="45.88971" lon="2.97688">
        <ele>791.3</ele>
        <time>1970-01-01T02:48:57.000Z</time>
      </trkpt>
      <trkpt lat="45.8897" lon="2.97695">
        <ele>791.3</ele>
        <time>1970-01-01T02:48:58.000Z</time>
      </trkpt>
      <trkpt lat="45.8897" lon="2.97701">
        <ele>791.3</ele>
        <time>1970-01-01T02:48:59.000Z</time>
      </trkpt>
      <trkpt lat="45.88969" lon="2.97708">
        <ele>791.4</ele>
        <time>1970-01-01T02:49:00.000Z</time>
      </trkpt>
      <trkpt lat="45.88968" lon="2.97714">
        <ele>791.4</ele>
        <time>1970-01-01T02:49:01.000Z</time>
      </trkpt>
      <trkpt lat="45.88967" lon="2.97721">
        <ele>791.4</ele>
        <time>1970-01-01T02:49:02.000Z</time>
      </trkpt>
      <trkpt lat="45.88965" lon="2.97728">
        <ele>791.4</ele>
        <time>1970-01-01T02:49:03.000Z</time>
      </trkpt>
      <trkpt lat="45.88964" lon="2.97735">
        <ele>791.4</ele>
        <time>1970-01-01T02:49:04.000Z</time>
      </trkpt>
      <trkpt lat="45.88963" lon="2.97742">
        <ele>791.5</ele>
        <time>1970-01-01T02:49:05.000Z</time>
      </trkpt>
      <trkpt lat="45.88963" lon="2.97749">
        <ele>791.5</ele>
        <time>1970-01-01T02:49:06.000Z</time>
      </trkpt>
      <trkpt lat="45.88962" lon="2.97756">
        <ele>791.5</ele>
        <time>1970-01-01T02:49:07.000Z</time>
      </trkpt>
      <trkpt lat="45.88961" lon="2.97762">
        <ele>791.5</ele>
        <time>1970-01-01T02:49:08.000Z</time>
      </trkpt>
      <trkpt lat="45.8896" lon="2.97768">
        <ele>791.5</ele>
        <time>1970-01-01T02:49:09.000Z</time>
      </trkpt>
      <trkpt lat="45.88958" lon="2.97774">
        <ele>791.5</ele>
        <time>1970-01-01T02:49:10.000Z</time>
      </trkpt>
      <trkpt lat="45.88958" lon="2.97781">
        <ele>791.5</ele>
        <time>1970-01-01T02:49:11.000Z</time>
      </trkpt>
      <trkpt lat="45.88957" lon="2.97787">
        <ele>791.5</ele>
        <time>1970-01-01T02:49:12.000Z</time>
      </trkpt>
      <trkpt lat="45.88955" lon="2.97794">
        <ele>791.5</ele>
        <time>1970-01-01T02:49:13.000Z</time>
      </trkpt>
      <trkpt lat="45.88954" lon="2.97801">
        <ele>791.5</ele>
        <time>1970-01-01T02:49:14.000Z</time>
      </trkpt>
      <trkpt lat="45.88952" lon="2.97807">
        <ele>791.5</ele>
        <time>1970-01-01T02:49:15.000Z</time>
      </trkpt>
      <trkpt lat="45.88951" lon="2.97814">
        <ele>791.5</ele>
        <time>1970-01-01T02:49:16.000Z</time>
      </trkpt>
      <trkpt lat="45.88949" lon="2.97821">
        <ele>791.5</ele>
        <time>1970-01-01T02:49:17.000Z</time>
      </trkpt>
      <trkpt lat="45.88946" lon="2.97827">
        <ele>791.4</ele>
        <time>1970-01-01T02:49:18.000Z</time>
      </trkpt>
      <trkpt lat="45.88944" lon="2.97833">
        <ele>791.4</ele>
        <time>1970-01-01T02:49:19.000Z</time>
      </trkpt>
      <trkpt lat="45.88943" lon="2.9784">
        <ele>791.3</ele>
        <time>1970-01-01T02:49:20.000Z</time>
      </trkpt>
      <trkpt lat="45.88941" lon="2.97846">
        <ele>791.3</ele>
        <time>1970-01-01T02:49:21.000Z</time>
      </trkpt>
      <trkpt lat="45.88939" lon="2.97853">
        <ele>791.2</ele>
        <time>1970-01-01T02:49:22.000Z</time>
      </trkpt>
      <trkpt lat="45.88938" lon="2.9786">
        <ele>791.2</ele>
        <time>1970-01-01T02:49:23.000Z</time>
      </trkpt>
      <trkpt lat="45.88937" lon="2.97868">
        <ele>791.1</ele>
        <time>1970-01-01T02:49:24.000Z</time>
      </trkpt>
      <trkpt lat="45.88936" lon="2.97875">
        <ele>791</ele>
        <time>1970-01-01T02:49:25.000Z</time>
      </trkpt>
      <trkpt lat="45.88936" lon="2.97883">
        <ele>790.9</ele>
        <time>1970-01-01T02:49:26.000Z</time>
      </trkpt>
      <trkpt lat="45.88935" lon="2.9789">
        <ele>790.8</ele>
        <time>1970-01-01T02:49:27.000Z</time>
      </trkpt>
      <trkpt lat="45.88935" lon="2.97898">
        <ele>790.7</ele>
        <time>1970-01-01T02:49:28.000Z</time>
      </trkpt>
      <trkpt lat="45.88935" lon="2.97906">
        <ele>790.6</ele>
        <time>1970-01-01T02:49:29.000Z</time>
      </trkpt>
      <trkpt lat="45.88934" lon="2.97914">
        <ele>790.5</ele>
        <time>1970-01-01T02:49:30.000Z</time>
      </trkpt>
      <trkpt lat="45.88934" lon="2.97922">
        <ele>790.4</ele>
        <time>1970-01-01T02:49:31.000Z</time>
      </trkpt>
      <trkpt lat="45.88933" lon="2.97929">
        <ele>790.3</ele>
        <time>1970-01-01T02:49:32.000Z</time>
      </trkpt>
      <trkpt lat="45.88932" lon="2.97936">
        <ele>790.2</ele>
        <time>1970-01-01T02:49:33.000Z</time>
      </trkpt>
      <trkpt lat="45.88932" lon="2.97944">
        <ele>790.2</ele>
        <time>1970-01-01T02:49:34.000Z</time>
      </trkpt>
      <trkpt lat="45.88931" lon="2.97951">
        <ele>790.1</ele>
        <time>1970-01-01T02:49:35.000Z</time>
      </trkpt>
      <trkpt lat="45.88931" lon="2.97959">
        <ele>790</ele>
        <time>1970-01-01T02:49:36.000Z</time>
      </trkpt>
      <trkpt lat="45.8893" lon="2.97967">
        <ele>789.9</ele>
        <time>1970-01-01T02:49:37.000Z</time>
      </trkpt>
      <trkpt lat="45.88929" lon="2.97974">
        <ele>789.8</ele>
        <time>1970-01-01T02:49:38.000Z</time>
      </trkpt>
      <trkpt lat="45.88929" lon="2.97981">
        <ele>789.7</ele>
        <time>1970-01-01T02:49:39.000Z</time>
      </trkpt>
      <trkpt lat="45.88928" lon="2.97989">
        <ele>789.7</ele>
        <time>1970-01-01T02:49:40.000Z</time>
      </trkpt>
      <trkpt lat="45.88927" lon="2.97996">
        <ele>789.7</ele>
        <time>1970-01-01T02:49:41.000Z</time>
      </trkpt>
      <trkpt lat="45.88926" lon="2.98004">
        <ele>789.6</ele>
        <time>1970-01-01T02:49:42.000Z</time>
      </trkpt>
      <trkpt lat="45.88925" lon="2.98011">
        <ele>789.6</ele>
        <time>1970-01-01T02:49:43.000Z</time>
      </trkpt>
      <trkpt lat="45.88924" lon="2.98019">
        <ele>789.6</ele>
        <time>1970-01-01T02:49:44.000Z</time>
      </trkpt>
      <trkpt lat="45.88924" lon="2.98026">
        <ele>789.5</ele>
        <time>1970-01-01T02:49:45.000Z</time>
      </trkpt>
      <trkpt lat="45.88923" lon="2.98032">
        <ele>789.5</ele>
        <time>1970-01-01T02:49:46.000Z</time>
      </trkpt>
      <trkpt lat="45.88923" lon="2.98037">
        <ele>789.5</ele>
        <time>1970-01-01T02:49:47.000Z</time>
      </trkpt>
      <trkpt lat="45.88922" lon="2.98046">
        <ele>789.5</ele>
        <time>1970-01-01T02:49:48.000Z</time>
      </trkpt>
      <trkpt lat="45.88922" lon="2.98054">
        <ele>789.5</ele>
        <time>1970-01-01T02:49:49.000Z</time>
      </trkpt>
      <trkpt lat="45.88921" lon="2.98061">
        <ele>789.5</ele>
        <time>1970-01-01T02:49:50.000Z</time>
      </trkpt>
      <trkpt lat="45.8892" lon="2.98065">
        <ele>789.5</ele>
        <time>1970-01-01T02:49:51.000Z</time>
      </trkpt>
      <trkpt lat="45.88919" lon="2.98073">
        <ele>789.5</ele>
        <time>1970-01-01T02:49:52.000Z</time>
      </trkpt>
      <trkpt lat="45.88918" lon="2.9808">
        <ele>789.5</ele>
        <time>1970-01-01T02:49:53.000Z</time>
      </trkpt>
      <trkpt lat="45.88916" lon="2.98086">
        <ele>789.5</ele>
        <time>1970-01-01T02:49:54.000Z</time>
      </trkpt>
      <trkpt lat="45.88915" lon="2.98091">
        <ele>789.5</ele>
        <time>1970-01-01T02:49:55.000Z</time>
      </trkpt>
      <trkpt lat="45.88915" lon="2.98096">
        <ele>789.5</ele>
        <time>1970-01-01T02:49:56.000Z</time>
      </trkpt>
      <trkpt lat="45.88914" lon="2.98102">
        <ele>789.5</ele>
        <time>1970-01-01T02:49:57.000Z</time>
      </trkpt>
      <trkpt lat="45.88912" lon="2.98105">
        <ele>789.5</ele>
        <time>1970-01-01T02:49:58.000Z</time>
      </trkpt>
      <trkpt lat="45.8891" lon="2.98109">
        <ele>789.5</ele>
        <time>1970-01-01T02:49:59.000Z</time>
      </trkpt>
      <trkpt lat="45.88908" lon="2.98117">
        <ele>789.5</ele>
        <time>1970-01-01T02:50:00.000Z</time>
      </trkpt>
      <trkpt lat="45.88907" lon="2.98125">
        <ele>789.4</ele>
        <time>1970-01-01T02:50:01.000Z</time>
      </trkpt>
      <trkpt lat="45.88906" lon="2.98132">
        <ele>789.4</ele>
        <time>1970-01-01T02:50:03.000Z</time>
      </trkpt>
      <trkpt lat="45.88909" lon="2.98136">
        <ele>789.4</ele>
        <time>1970-01-01T02:50:04.000Z</time>
      </trkpt>
      <trkpt lat="45.8891" lon="2.98137">
        <ele>789.4</ele>
        <time>1970-01-01T02:50:05.000Z</time>
      </trkpt>
      <trkpt lat="45.88912" lon="2.98139">
        <ele>789.4</ele>
        <time>1970-01-01T02:50:06.000Z</time>
      </trkpt>
      <trkpt lat="45.88917" lon="2.98142">
        <ele>788.6</ele>
        <time>1970-01-01T02:50:07.000Z</time>
      </trkpt>
      <trkpt lat="45.8892" lon="2.98144">
        <ele>788</ele>
        <time>1970-01-01T02:50:08.000Z</time>
      </trkpt>
      <trkpt lat="45.88929" lon="2.98145">
        <ele>788</ele>
        <time>1970-01-01T02:50:10.000Z</time>
      </trkpt>
      <trkpt lat="45.88933" lon="2.98146">
        <ele>787.3</ele>
        <time>1970-01-01T02:50:11.000Z</time>
      </trkpt>
      <trkpt lat="45.88936" lon="2.98146">
        <ele>787.3</ele>
        <time>1970-01-01T02:50:12.000Z</time>
      </trkpt>
      <trkpt lat="45.88941" lon="2.98148">
        <ele>786.2</ele>
        <time>1970-01-01T02:50:13.000Z</time>
      </trkpt>
      <trkpt lat="45.88947" lon="2.98149">
        <ele>786.2</ele>
        <time>1970-01-01T02:50:14.000Z</time>
      </trkpt>
      <trkpt lat="45.88952" lon="2.98149">
        <ele>786.2</ele>
        <time>1970-01-01T02:50:15.000Z</time>
      </trkpt>
      <trkpt lat="45.88956" lon="2.98149">
        <ele>785.4</ele>
        <time>1970-01-01T02:50:16.000Z</time>
      </trkpt>
      <trkpt lat="45.88965" lon="2.98152">
        <ele>784.9</ele>
        <time>1970-01-01T02:50:18.000Z</time>
      </trkpt>
      <trkpt lat="45.88971" lon="2.98153">
        <ele>784.9</ele>
        <time>1970-01-01T02:50:19.000Z</time>
      </trkpt>
      <trkpt lat="45.88977" lon="2.98155">
        <ele>784.9</ele>
        <time>1970-01-01T02:50:20.000Z</time>
      </trkpt>
      <trkpt lat="45.88984" lon="2.98155">
        <ele>784.4</ele>
        <time>1970-01-01T02:50:21.000Z</time>
      </trkpt>
      <trkpt lat="45.88991" lon="2.98154">
        <ele>783.8</ele>
        <time>1970-01-01T02:50:22.000Z</time>
      </trkpt>
      <trkpt lat="45.88997" lon="2.9815">
        <ele>783.8</ele>
        <time>1970-01-01T02:50:23.000Z</time>
      </trkpt>
      <trkpt lat="45.89002" lon="2.98144">
        <ele>782.8</ele>
        <time>1970-01-01T02:50:24.000Z</time>
      </trkpt>
      <trkpt lat="45.89008" lon="2.98139">
        <ele>784.3</ele>
        <time>1970-01-01T02:50:25.000Z</time>
      </trkpt>
      <trkpt lat="45.89014" lon="2.98132">
        <ele>783.3</ele>
        <time>1970-01-01T02:50:26.000Z</time>
      </trkpt>
      <trkpt lat="45.89019" lon="2.98126">
        <ele>783.3</ele>
        <time>1970-01-01T02:50:27.000Z</time>
      </trkpt>
      <trkpt lat="45.89025" lon="2.98119">
        <ele>783.9</ele>
        <time>1970-01-01T02:50:28.000Z</time>
      </trkpt>
      <trkpt lat="45.89032" lon="2.98114">
        <ele>783.9</ele>
        <time>1970-01-01T02:50:29.000Z</time>
      </trkpt>
      <trkpt lat="45.89038" lon="2.98111">
        <ele>783.2</ele>
        <time>1970-01-01T02:50:30.000Z</time>
      </trkpt>
      <trkpt lat="45.89044" lon="2.98107">
        <ele>783.2</ele>
        <time>1970-01-01T02:50:31.000Z</time>
      </trkpt>
      <trkpt lat="45.8905" lon="2.98107">
        <ele>784.6</ele>
        <time>1970-01-01T02:50:32.000Z</time>
      </trkpt>
      <trkpt lat="45.89056" lon="2.98106">
        <ele>784.6</ele>
        <time>1970-01-01T02:50:33.000Z</time>
      </trkpt>
      <trkpt lat="45.89064" lon="2.98107">
        <ele>784.3</ele>
        <time>1970-01-01T02:50:34.000Z</time>
      </trkpt>
      <trkpt lat="45.89071" lon="2.98111">
        <ele>782.3</ele>
        <time>1970-01-01T02:50:35.000Z</time>
      </trkpt>
      <trkpt lat="45.89078" lon="2.98117">
        <ele>782</ele>
        <time>1970-01-01T02:50:36.000Z</time>
      </trkpt>
      <trkpt lat="45.89085" lon="2.98125">
        <ele>779.8</ele>
        <time>1970-01-01T02:50:37.000Z</time>
      </trkpt>
      <trkpt lat="45.89093" lon="2.98129">
        <ele>779.7</ele>
        <time>1970-01-01T02:50:38.000Z</time>
      </trkpt>
      <trkpt lat="45.89101" lon="2.98133">
        <ele>779.6</ele>
        <time>1970-01-01T02:50:39.000Z</time>
      </trkpt>
      <trkpt lat="45.8911" lon="2.98134">
        <ele>779.8</ele>
        <time>1970-01-01T02:50:40.000Z</time>
      </trkpt>
      <trkpt lat="45.89118" lon="2.98135">
        <ele>779.7</ele>
        <time>1970-01-01T02:50:41.000Z</time>
      </trkpt>
      <trkpt lat="45.89125" lon="2.98134">
        <ele>779.8</ele>
        <time>1970-01-01T02:50:42.000Z</time>
      </trkpt>
      <trkpt lat="45.89132" lon="2.98135">
        <ele>779.6</ele>
        <time>1970-01-01T02:50:43.000Z</time>
      </trkpt>
      <trkpt lat="45.89139" lon="2.98136">
        <ele>779.6</ele>
        <time>1970-01-01T02:50:44.000Z</time>
      </trkpt>
      <trkpt lat="45.89145" lon="2.98137">
        <ele>779.3</ele>
        <time>1970-01-01T02:50:45.000Z</time>
      </trkpt>
      <trkpt lat="45.89152" lon="2.98138">
        <ele>779.3</ele>
        <time>1970-01-01T02:50:46.000Z</time>
      </trkpt>
      <trkpt lat="45.89158" lon="2.98139">
        <ele>779.3</ele>
        <time>1970-01-01T02:50:47.000Z</time>
      </trkpt>
      <trkpt lat="45.89164" lon="2.98141">
        <ele>779.3</ele>
        <time>1970-01-01T02:50:48.000Z</time>
      </trkpt>
      <trkpt lat="45.89169" lon="2.98144">
        <ele>777.7</ele>
        <time>1970-01-01T02:50:49.000Z</time>
      </trkpt>
      <trkpt lat="45.89174" lon="2.98147">
        <ele>777.7</ele>
        <time>1970-01-01T02:50:50.000Z</time>
      </trkpt>
      <trkpt lat="45.89179" lon="2.9815">
        <ele>777.7</ele>
        <time>1970-01-01T02:50:51.000Z</time>
      </trkpt>
      <trkpt lat="45.89183" lon="2.98153">
        <ele>778.1</ele>
        <time>1970-01-01T02:50:52.000Z</time>
      </trkpt>
      <trkpt lat="45.89188" lon="2.98155">
        <ele>778.1</ele>
        <time>1970-01-01T02:50:53.000Z</time>
      </trkpt>
      <trkpt lat="45.89192" lon="2.98156">
        <ele>778.7</ele>
        <time>1970-01-01T02:50:54.000Z</time>
      </trkpt>
      <trkpt lat="45.89197" lon="2.98157">
        <ele>778.6</ele>
        <time>1970-01-01T02:50:55.000Z</time>
      </trkpt>
      <trkpt lat="45.89201" lon="2.98157">
        <ele>778.6</ele>
        <time>1970-01-01T02:50:56.000Z</time>
      </trkpt>
      <trkpt lat="45.89206" lon="2.98157">
        <ele>779</ele>
        <time>1970-01-01T02:50:57.000Z</time>
      </trkpt>
      <trkpt lat="45.89211" lon="2.98156">
        <ele>779</ele>
        <time>1970-01-01T02:50:58.000Z</time>
      </trkpt>
      <trkpt lat="45.89215" lon="2.98154">
        <ele>779</ele>
        <time>1970-01-01T02:50:59.000Z</time>
      </trkpt>
      <trkpt lat="45.89219" lon="2.98151">
        <ele>779.2</ele>
        <time>1970-01-01T02:51:00.000Z</time>
      </trkpt>
      <trkpt lat="45.89224" lon="2.98149">
        <ele>779.2</ele>
        <time>1970-01-01T02:51:01.000Z</time>
      </trkpt>
      <trkpt lat="45.89229" lon="2.98146">
        <ele>779.3</ele>
        <time>1970-01-01T02:51:02.000Z</time>
      </trkpt>
      <trkpt lat="45.89233" lon="2.98144">
        <ele>779.3</ele>
        <time>1970-01-01T02:51:03.000Z</time>
      </trkpt>
      <trkpt lat="45.89237" lon="2.98142">
        <ele>779.2</ele>
        <time>1970-01-01T02:51:04.000Z</time>
      </trkpt>
      <trkpt lat="45.8924" lon="2.9814">
        <ele>780.8</ele>
        <time>1970-01-01T02:51:05.000Z</time>
      </trkpt>
      <trkpt lat="45.89244" lon="2.98138">
        <ele>781</ele>
        <time>1970-01-01T02:51:06.000Z</time>
      </trkpt>
      <trkpt lat="45.89248" lon="2.98137">
        <ele>781</ele>
        <time>1970-01-01T02:51:07.000Z</time>
      </trkpt>
      <trkpt lat="45.89252" lon="2.98136">
        <ele>780.9</ele>
        <time>1970-01-01T02:51:08.000Z</time>
      </trkpt>
      <trkpt lat="45.89256" lon="2.98136">
        <ele>781.3</ele>
        <time>1970-01-01T02:51:09.000Z</time>
      </trkpt>
      <trkpt lat="45.89261" lon="2.98136">
        <ele>781.3</ele>
        <time>1970-01-01T02:51:10.000Z</time>
      </trkpt>
      <trkpt lat="45.89267" lon="2.98137">
        <ele>781.5</ele>
        <time>1970-01-01T02:51:11.000Z</time>
      </trkpt>
      <trkpt lat="45.8927" lon="2.98137">
        <ele>781.5</ele>
        <time>1970-01-01T02:51:12.000Z</time>
      </trkpt>
      <trkpt lat="45.89275" lon="2.98138">
        <ele>781.5</ele>
        <time>1970-01-01T02:51:13.000Z</time>
      </trkpt>
      <trkpt lat="45.8928" lon="2.9814">
        <ele>781.6</ele>
        <time>1970-01-01T02:51:14.000Z</time>
      </trkpt>
      <trkpt lat="45.89285" lon="2.98141">
        <ele>781.6</ele>
        <time>1970-01-01T02:51:15.000Z</time>
      </trkpt>
      <trkpt lat="45.8929" lon="2.98143">
        <ele>780.6</ele>
        <time>1970-01-01T02:51:16.000Z</time>
      </trkpt>
      <trkpt lat="45.89296" lon="2.98145">
        <ele>780.6</ele>
        <time>1970-01-01T02:51:17.000Z</time>
      </trkpt>
      <trkpt lat="45.89302" lon="2.98147">
        <ele>780.7</ele>
        <time>1970-01-01T02:51:18.000Z</time>
      </trkpt>
      <trkpt lat="45.89308" lon="2.98149">
        <ele>780.7</ele>
        <time>1970-01-01T02:51:19.000Z</time>
      </trkpt>
      <trkpt lat="45.89314" lon="2.98151">
        <ele>780.7</ele>
        <time>1970-01-01T02:51:20.000Z</time>
      </trkpt>
      <trkpt lat="45.89321" lon="2.98152">
        <ele>780.7</ele>
        <time>1970-01-01T02:51:21.000Z</time>
      </trkpt>
      <trkpt lat="45.89327" lon="2.98155">
        <ele>780.7</ele>
        <time>1970-01-01T02:51:22.000Z</time>
      </trkpt>
      <trkpt lat="45.89333" lon="2.98158">
        <ele>780.6</ele>
        <time>1970-01-01T02:51:23.000Z</time>
      </trkpt>
      <trkpt lat="45.8934" lon="2.9816">
        <ele>779.8</ele>
        <time>1970-01-01T02:51:24.000Z</time>
      </trkpt>
      <trkpt lat="45.89346" lon="2.98164">
        <ele>779.8</ele>
        <time>1970-01-01T02:51:25.000Z</time>
      </trkpt>
      <trkpt lat="45.89352" lon="2.98168">
        <ele>779.6</ele>
        <time>1970-01-01T02:51:26.000Z</time>
      </trkpt>
      <trkpt lat="45.89358" lon="2.98171">
        <ele>779.6</ele>
        <time>1970-01-01T02:51:27.000Z</time>
      </trkpt>
      <trkpt lat="45.89364" lon="2.98174">
        <ele>779.4</ele>
        <time>1970-01-01T02:51:28.000Z</time>
      </trkpt>
      <trkpt lat="45.89369" lon="2.98176">
        <ele>779</ele>
        <time>1970-01-01T02:51:29.000Z</time>
      </trkpt>
      <trkpt lat="45.89376" lon="2.98175">
        <ele>779.3</ele>
        <time>1970-01-01T02:51:30.000Z</time>
      </trkpt>
      <trkpt lat="45.89381" lon="2.98172">
        <ele>779.3</ele>
        <time>1970-01-01T02:51:31.000Z</time>
      </trkpt>
      <trkpt lat="45.89387" lon="2.98168">
        <ele>779.2</ele>
        <time>1970-01-01T02:51:32.000Z</time>
      </trkpt>
      <trkpt lat="45.89392" lon="2.98162">
        <ele>779.2</ele>
        <time>1970-01-01T02:51:33.000Z</time>
      </trkpt>
      <trkpt lat="45.89396" lon="2.98157">
        <ele>779.7</ele>
        <time>1970-01-01T02:51:34.000Z</time>
      </trkpt>
      <trkpt lat="45.894" lon="2.98151">
        <ele>779.7</ele>
        <time>1970-01-01T02:51:35.000Z</time>
      </trkpt>
      <trkpt lat="45.89405" lon="2.98145">
        <ele>779.7</ele>
        <time>1970-01-01T02:51:36.000Z</time>
      </trkpt>
      <trkpt lat="45.89409" lon="2.9814">
        <ele>780.2</ele>
        <time>1970-01-01T02:51:37.000Z</time>
      </trkpt>
      <trkpt lat="45.89412" lon="2.98135">
        <ele>780.1</ele>
        <time>1970-01-01T02:51:38.000Z</time>
      </trkpt>
      <trkpt lat="45.89416" lon="2.98129">
        <ele>780.1</ele>
        <time>1970-01-01T02:51:39.000Z</time>
      </trkpt>
      <trkpt lat="45.89419" lon="2.98123">
        <ele>780.5</ele>
        <time>1970-01-01T02:51:40.000Z</time>
      </trkpt>
      <trkpt lat="45.89422" lon="2.98117">
        <ele>780.5</ele>
        <time>1970-01-01T02:51:41.000Z</time>
      </trkpt>
      <trkpt lat="45.89425" lon="2.98111">
        <ele>780.5</ele>
        <time>1970-01-01T02:51:42.000Z</time>
      </trkpt>
      <trkpt lat="45.89427" lon="2.98106">
        <ele>780.5</ele>
        <time>1970-01-01T02:51:43.000Z</time>
      </trkpt>
      <trkpt lat="45.89429" lon="2.98099">
        <ele>780.5</ele>
        <time>1970-01-01T02:51:44.000Z</time>
      </trkpt>
      <trkpt lat="45.8943" lon="2.98096">
        <ele>780.5</ele>
        <time>1970-01-01T02:51:45.000Z</time>
      </trkpt>
      <trkpt lat="45.89432" lon="2.98091">
        <ele>780.5</ele>
        <time>1970-01-01T02:51:46.000Z</time>
      </trkpt>
      <trkpt lat="45.89433" lon="2.98086">
        <ele>780.5</ele>
        <time>1970-01-01T02:51:47.000Z</time>
      </trkpt>
      <trkpt lat="45.89435" lon="2.98082">
        <ele>780.5</ele>
        <time>1970-01-01T02:51:48.000Z</time>
      </trkpt>
      <trkpt lat="45.89437" lon="2.98078">
        <ele>780.5</ele>
        <time>1970-01-01T02:51:49.000Z</time>
      </trkpt>
      <trkpt lat="45.89439" lon="2.98074">
        <ele>780.4</ele>
        <time>1970-01-01T02:51:50.000Z</time>
      </trkpt>
      <trkpt lat="45.89441" lon="2.98072">
        <ele>780.4</ele>
        <time>1970-01-01T02:51:51.000Z</time>
      </trkpt>
      <trkpt lat="45.89443" lon="2.9807">
        <ele>780.4</ele>
        <time>1970-01-01T02:51:52.000Z</time>
      </trkpt>
      <trkpt lat="45.89445" lon="2.98068">
        <ele>780.4</ele>
        <time>1970-01-01T02:51:53.000Z</time>
      </trkpt>
      <trkpt lat="45.89448" lon="2.98064">
        <ele>780.4</ele>
        <time>1970-01-01T02:51:54.000Z</time>
      </trkpt>
      <trkpt lat="45.89452" lon="2.9806">
        <ele>780.4</ele>
        <time>1970-01-01T02:51:55.000Z</time>
      </trkpt>
      <trkpt lat="45.89456" lon="2.98058">
        <ele>780.4</ele>
        <time>1970-01-01T02:51:56.000Z</time>
      </trkpt>
      <trkpt lat="45.8946" lon="2.98055">
        <ele>780.4</ele>
        <time>1970-01-01T02:51:58.000Z</time>
      </trkpt>
      <trkpt lat="45.89463" lon="2.98053">
        <ele>780.4</ele>
        <time>1970-01-01T02:51:59.000Z</time>
      </trkpt>
      <trkpt lat="45.89465" lon="2.98051">
        <ele>780.4</ele>
        <time>1970-01-01T02:52:00.000Z</time>
      </trkpt>
      <trkpt lat="45.89469" lon="2.9805">
        <ele>780.4</ele>
        <time>1970-01-01T02:52:01.000Z</time>
      </trkpt>
      <trkpt lat="45.89473" lon="2.98048">
        <ele>780.4</ele>
        <time>1970-01-01T02:52:02.000Z</time>
      </trkpt>
      <trkpt lat="45.89477" lon="2.98046">
        <ele>780.4</ele>
        <time>1970-01-01T02:52:03.000Z</time>
      </trkpt>
      <trkpt lat="45.89482" lon="2.98044">
        <ele>780.4</ele>
        <time>1970-01-01T02:52:04.000Z</time>
      </trkpt>
      <trkpt lat="45.89486" lon="2.98043">
        <ele>780.4</ele>
        <time>1970-01-01T02:52:05.000Z</time>
      </trkpt>
      <trkpt lat="45.89491" lon="2.9804">
        <ele>780.4</ele>
        <time>1970-01-01T02:52:07.000Z</time>
      </trkpt>
      <trkpt lat="45.89494" lon="2.98038">
        <ele>780.4</ele>
        <time>1970-01-01T02:52:08.000Z</time>
      </trkpt>
      <trkpt lat="45.89498" lon="2.98036">
        <ele>780.4</ele>
        <time>1970-01-01T02:52:09.000Z</time>
      </trkpt>
      <trkpt lat="45.89501" lon="2.98034">
        <ele>780.4</ele>
        <time>1970-01-01T02:52:10.000Z</time>
      </trkpt>
      <trkpt lat="45.89505" lon="2.98032">
        <ele>780.4</ele>
        <time>1970-01-01T02:52:11.000Z</time>
      </trkpt>
      <trkpt lat="45.89508" lon="2.98031">
        <ele>780.4</ele>
        <time>1970-01-01T02:52:12.000Z</time>
      </trkpt>
      <trkpt lat="45.89511" lon="2.98032">
        <ele>780.4</ele>
        <time>1970-01-01T02:52:13.000Z</time>
      </trkpt>
      <trkpt lat="45.89513" lon="2.98041">
        <ele>780.4</ele>
        <time>1970-01-01T02:52:14.000Z</time>
      </trkpt>
      <trkpt lat="45.89514" lon="2.98047">
        <ele>780.2</ele>
        <time>1970-01-01T02:52:15.000Z</time>
      </trkpt>
      <trkpt lat="45.89514" lon="2.98054">
        <ele>780.1</ele>
        <time>1970-01-01T02:52:16.000Z</time>
      </trkpt>
      <trkpt lat="45.89513" lon="2.98058">
        <ele>780</ele>
        <time>1970-01-01T02:52:17.000Z</time>
      </trkpt>
      <trkpt lat="45.89511" lon="2.98063">
        <ele>780</ele>
        <time>1970-01-01T02:52:18.000Z</time>
      </trkpt>
      <trkpt lat="45.8951" lon="2.98069">
        <ele>779.9</ele>
        <time>1970-01-01T02:52:19.000Z</time>
      </trkpt>
      <trkpt lat="45.89509" lon="2.98076">
        <ele>779.8</ele>
        <time>1970-01-01T02:52:20.000Z</time>
      </trkpt>
      <trkpt lat="45.89508" lon="2.98082">
        <ele>779.7</ele>
        <time>1970-01-01T02:52:21.000Z</time>
      </trkpt>
      <trkpt lat="45.89511" lon="2.98091">
        <ele>779.6</ele>
        <time>1970-01-01T02:52:22.000Z</time>
      </trkpt>
      <trkpt lat="45.89513" lon="2.98099">
        <ele>779.6</ele>
        <time>1970-01-01T02:52:24.000Z</time>
      </trkpt>
      <trkpt lat="45.89517" lon="2.98106">
        <ele>779.5</ele>
        <time>1970-01-01T02:52:25.000Z</time>
      </trkpt>
      <trkpt lat="45.89519" lon="2.98112">
        <ele>779.5</ele>
        <time>1970-01-01T02:52:26.000Z</time>
      </trkpt>
      <trkpt lat="45.89522" lon="2.98119">
        <ele>779.4</ele>
        <time>1970-01-01T02:52:27.000Z</time>
      </trkpt>
      <trkpt lat="45.89525" lon="2.98124">
        <ele>779.4</ele>
        <time>1970-01-01T02:52:29.000Z</time>
      </trkpt>
      <trkpt lat="45.89526" lon="2.9813">
        <ele>779.4</ele>
        <time>1970-01-01T02:52:30.000Z</time>
      </trkpt>
      <trkpt lat="45.89529" lon="2.98138">
        <ele>779.5</ele>
        <time>1970-01-01T02:52:31.000Z</time>
      </trkpt>
      <trkpt lat="45.89532" lon="2.98147">
        <ele>779.5</ele>
        <time>1970-01-01T02:52:33.000Z</time>
      </trkpt>
      <trkpt lat="45.89535" lon="2.98153">
        <ele>779.6</ele>
        <time>1970-01-01T02:52:34.000Z</time>
      </trkpt>
      <trkpt lat="45.89538" lon="2.98157">
        <ele>779.6</ele>
        <time>1970-01-01T02:52:35.000Z</time>
      </trkpt>
      <trkpt lat="45.89542" lon="2.98166">
        <ele>779.8</ele>
        <time>1970-01-01T02:52:37.000Z</time>
      </trkpt>
      <trkpt lat="45.89544" lon="2.98171">
        <ele>779.9</ele>
        <time>1970-01-01T02:52:38.000Z</time>
      </trkpt>
      <trkpt lat="45.89548" lon="2.98178">
        <ele>780</ele>
        <time>1970-01-01T02:52:39.000Z</time>
      </trkpt>
      <trkpt lat="45.8955" lon="2.98181">
        <ele>780.1</ele>
        <time>1970-01-01T02:52:40.000Z</time>
      </trkpt>
      <trkpt lat="45.89553" lon="2.98185">
        <ele>780.3</ele>
        <time>1970-01-01T02:52:42.000Z</time>
      </trkpt>
      <trkpt lat="45.89556" lon="2.98189">
        <ele>780.4</ele>
        <time>1970-01-01T02:52:43.000Z</time>
      </trkpt>
      <trkpt lat="45.89559" lon="2.98193">
        <ele>780.6</ele>
        <time>1970-01-01T02:52:44.000Z</time>
      </trkpt>
      <trkpt lat="45.89561" lon="2.98197">
        <ele>780.7</ele>
        <time>1970-01-01T02:52:45.000Z</time>
      </trkpt>
      <trkpt lat="45.89564" lon="2.982">
        <ele>780.9</ele>
        <time>1970-01-01T02:52:46.000Z</time>
      </trkpt>
      <trkpt lat="45.89566" lon="2.98203">
        <ele>781.1</ele>
        <time>1970-01-01T02:52:47.000Z</time>
      </trkpt>
      <trkpt lat="45.8957" lon="2.98206">
        <ele>781.3</ele>
        <time>1970-01-01T02:52:48.000Z</time>
      </trkpt>
      <trkpt lat="45.89571" lon="2.98208">
        <ele>781.4</ele>
        <time>1970-01-01T02:52:49.000Z</time>
      </trkpt>
      <trkpt lat="45.89574" lon="2.9821">
        <ele>781.6</ele>
        <time>1970-01-01T02:52:51.000Z</time>
      </trkpt>
      <trkpt lat="45.89577" lon="2.98213">
        <ele>781.7</ele>
        <time>1970-01-01T02:52:52.000Z</time>
      </trkpt>
      <trkpt lat="45.89579" lon="2.98216">
        <ele>781.9</ele>
        <time>1970-01-01T02:52:53.000Z</time>
      </trkpt>
      <trkpt lat="45.89581" lon="2.9822">
        <ele>782.1</ele>
        <time>1970-01-01T02:52:54.000Z</time>
      </trkpt>
      <trkpt lat="45.89583" lon="2.98224">
        <ele>782.3</ele>
        <time>1970-01-01T02:52:56.000Z</time>
      </trkpt>
      <trkpt lat="45.89585" lon="2.98231">
        <ele>782.6</ele>
        <time>1970-01-01T02:52:58.000Z</time>
      </trkpt>
      <trkpt lat="45.89587" lon="2.98236">
        <ele>782.8</ele>
        <time>1970-01-01T02:52:59.000Z</time>
      </trkpt>
      <trkpt lat="45.89587" lon="2.98237">
        <ele>782.9</ele>
        <time>1970-01-01T02:53:00.000Z</time>
      </trkpt>
      <trkpt lat="45.89588" lon="2.98243">
        <ele>783.1</ele>
        <time>1970-01-01T02:53:01.000Z</time>
      </trkpt>
      <trkpt lat="45.89589" lon="2.98244">
        <ele>783.2</ele>
        <time>1970-01-01T02:53:02.000Z</time>
      </trkpt>
      <trkpt lat="45.89591" lon="2.98252">
        <ele>783.5</ele>
        <time>1970-01-01T02:53:04.000Z</time>
      </trkpt>
      <trkpt lat="45.89592" lon="2.98257">
        <ele>783.6</ele>
        <time>1970-01-01T02:53:05.000Z</time>
      </trkpt>
      <trkpt lat="45.89594" lon="2.98262">
        <ele>783.8</ele>
        <time>1970-01-01T02:53:06.000Z</time>
      </trkpt>
      <trkpt lat="45.89595" lon="2.98264">
        <ele>783.9</ele>
        <time>1970-01-01T02:53:07.000Z</time>
      </trkpt>
      <trkpt lat="45.89596" lon="2.98269">
        <ele>784.1</ele>
        <time>1970-01-01T02:53:09.000Z</time>
      </trkpt>
      <trkpt lat="45.89596" lon="2.9827">
        <ele>784.2</ele>
        <time>1970-01-01T02:53:10.000Z</time>
      </trkpt>
      <trkpt lat="45.89598" lon="2.98274">
        <ele>784.3</ele>
        <time>1970-01-01T02:53:11.000Z</time>
      </trkpt>
      <trkpt lat="45.89598" lon="2.98276">
        <ele>784.4</ele>
        <time>1970-01-01T02:53:12.000Z</time>
      </trkpt>
      <trkpt lat="45.89598" lon="2.98279">
        <ele>784.5</ele>
        <time>1970-01-01T02:53:13.000Z</time>
      </trkpt>
      <trkpt lat="45.896" lon="2.98285">
        <ele>784.6</ele>
        <time>1970-01-01T02:53:14.000Z</time>
      </trkpt>
      <trkpt lat="45.89602" lon="2.98291">
        <ele>784.8</ele>
        <time>1970-01-01T02:53:16.000Z</time>
      </trkpt>
      <trkpt lat="45.89602" lon="2.98293">
        <ele>784.8</ele>
        <time>1970-01-01T02:53:17.000Z</time>
      </trkpt>
      <trkpt lat="45.89603" lon="2.98296">
        <ele>784.9</ele>
        <time>1970-01-01T02:53:18.000Z</time>
      </trkpt>
      <trkpt lat="45.89604" lon="2.98301">
        <ele>785</ele>
        <time>1970-01-01T02:53:19.000Z</time>
      </trkpt>
      <trkpt lat="45.89605" lon="2.98306">
        <ele>785</ele>
        <time>1970-01-01T02:53:21.000Z</time>
      </trkpt>
      <trkpt lat="45.89606" lon="2.98312">
        <ele>785.1</ele>
        <time>1970-01-01T02:53:22.000Z</time>
      </trkpt>
      <trkpt lat="45.89607" lon="2.98316">
        <ele>785.1</ele>
        <time>1970-01-01T02:53:23.000Z</time>
      </trkpt>
      <trkpt lat="45.8961" lon="2.98321">
        <ele>785.2</ele>
        <time>1970-01-01T02:53:24.000Z</time>
      </trkpt>
      <trkpt lat="45.89612" lon="2.98326">
        <ele>785.2</ele>
        <time>1970-01-01T02:53:25.000Z</time>
      </trkpt>
      <trkpt lat="45.89613" lon="2.9833">
        <ele>785.2</ele>
        <time>1970-01-01T02:53:26.000Z</time>
      </trkpt>
      <trkpt lat="45.89615" lon="2.98336">
        <ele>785.2</ele>
        <time>1970-01-01T02:53:27.000Z</time>
      </trkpt>
      <trkpt lat="45.89616" lon="2.98342">
        <ele>785.2</ele>
        <time>1970-01-01T02:53:29.000Z</time>
      </trkpt>
      <trkpt lat="45.89617" lon="2.98346">
        <ele>785.3</ele>
        <time>1970-01-01T02:53:30.000Z</time>
      </trkpt>
      <trkpt lat="45.89618" lon="2.98352">
        <ele>785.3</ele>
        <time>1970-01-01T02:53:31.000Z</time>
      </trkpt>
      <trkpt lat="45.89619" lon="2.98356">
        <ele>785.3</ele>
        <time>1970-01-01T02:53:32.000Z</time>
      </trkpt>
      <trkpt lat="45.8962" lon="2.9836">
        <ele>785.3</ele>
        <time>1970-01-01T02:53:33.000Z</time>
      </trkpt>
      <trkpt lat="45.89621" lon="2.98366">
        <ele>785.3</ele>
        <time>1970-01-01T02:53:34.000Z</time>
      </trkpt>
      <trkpt lat="45.89622" lon="2.98371">
        <ele>785.3</ele>
        <time>1970-01-01T02:53:35.000Z</time>
      </trkpt>
      <trkpt lat="45.89622" lon="2.98375">
        <ele>785.3</ele>
        <time>1970-01-01T02:53:36.000Z</time>
      </trkpt>
      <trkpt lat="45.89621" lon="2.9838">
        <ele>785.3</ele>
        <time>1970-01-01T02:53:37.000Z</time>
      </trkpt>
      <trkpt lat="45.8962" lon="2.98388">
        <ele>785.3</ele>
        <time>1970-01-01T02:53:38.000Z</time>
      </trkpt>
      <trkpt lat="45.8962" lon="2.98393">
        <ele>785.3</ele>
        <time>1970-01-01T02:53:39.000Z</time>
      </trkpt>
      <trkpt lat="45.8962" lon="2.98399">
        <ele>785.3</ele>
        <time>1970-01-01T02:53:40.000Z</time>
      </trkpt>
      <trkpt lat="45.8962" lon="2.98405">
        <ele>785.3</ele>
        <time>1970-01-01T02:53:42.000Z</time>
      </trkpt>
      <trkpt lat="45.8962" lon="2.9841">
        <ele>785.3</ele>
        <time>1970-01-01T02:53:43.000Z</time>
      </trkpt>
      <trkpt lat="45.8962" lon="2.98415">
        <ele>785.3</ele>
        <time>1970-01-01T02:53:44.000Z</time>
      </trkpt>
      <trkpt lat="45.8962" lon="2.9842">
        <ele>785.3</ele>
        <time>1970-01-01T02:53:45.000Z</time>
      </trkpt>
      <trkpt lat="45.89619" lon="2.98424">
        <ele>785.3</ele>
        <time>1970-01-01T02:53:46.000Z</time>
      </trkpt>
      <trkpt lat="45.89618" lon="2.98429">
        <ele>785.3</ele>
        <time>1970-01-01T02:53:47.000Z</time>
      </trkpt>
      <trkpt lat="45.89619" lon="2.98434">
        <ele>785.3</ele>
        <time>1970-01-01T02:53:48.000Z</time>
      </trkpt>
      <trkpt lat="45.8962" lon="2.98441">
        <ele>785.3</ele>
        <time>1970-01-01T02:53:50.000Z</time>
      </trkpt>
      <trkpt lat="45.8962" lon="2.98445">
        <ele>785.3</ele>
        <time>1970-01-01T02:53:51.000Z</time>
      </trkpt>
      <trkpt lat="45.8962" lon="2.9845">
        <ele>785.3</ele>
        <time>1970-01-01T02:53:52.000Z</time>
      </trkpt>
      <trkpt lat="45.89619" lon="2.98456">
        <ele>785.3</ele>
        <time>1970-01-01T02:53:53.000Z</time>
      </trkpt>
      <trkpt lat="45.89619" lon="2.98461">
        <ele>785.3</ele>
        <time>1970-01-01T02:53:54.000Z</time>
      </trkpt>
      <trkpt lat="45.89619" lon="2.98468">
        <ele>785.3</ele>
        <time>1970-01-01T02:53:55.000Z</time>
      </trkpt>
      <trkpt lat="45.89618" lon="2.98476">
        <ele>785.3</ele>
        <time>1970-01-01T02:53:56.000Z</time>
      </trkpt>
      <trkpt lat="45.89617" lon="2.98483">
        <ele>785.3</ele>
        <time>1970-01-01T02:53:58.000Z</time>
      </trkpt>
      <trkpt lat="45.89616" lon="2.98489">
        <ele>785.3</ele>
        <time>1970-01-01T02:53:59.000Z</time>
      </trkpt>
      <trkpt lat="45.89615" lon="2.98494">
        <ele>785.3</ele>
        <time>1970-01-01T02:54:00.000Z</time>
      </trkpt>
      <trkpt lat="45.89614" lon="2.985">
        <ele>785.4</ele>
        <time>1970-01-01T02:54:01.000Z</time>
      </trkpt>
      <trkpt lat="45.89612" lon="2.98505">
        <ele>785.4</ele>
        <time>1970-01-01T02:54:02.000Z</time>
      </trkpt>
      <trkpt lat="45.8961" lon="2.98511">
        <ele>785.4</ele>
        <time>1970-01-01T02:54:03.000Z</time>
      </trkpt>
      <trkpt lat="45.89608" lon="2.98518">
        <ele>785.4</ele>
        <time>1970-01-01T02:54:05.000Z</time>
      </trkpt>
      <trkpt lat="45.89606" lon="2.98522">
        <ele>785.5</ele>
        <time>1970-01-01T02:54:06.000Z</time>
      </trkpt>
      <trkpt lat="45.89604" lon="2.98527">
        <ele>785.5</ele>
        <time>1970-01-01T02:54:07.000Z</time>
      </trkpt>
      <trkpt lat="45.89602" lon="2.98532">
        <ele>785.6</ele>
        <time>1970-01-01T02:54:08.000Z</time>
      </trkpt>
      <trkpt lat="45.896" lon="2.98536">
        <ele>785.6</ele>
        <time>1970-01-01T02:54:09.000Z</time>
      </trkpt>
      <trkpt lat="45.89598" lon="2.98543">
        <ele>785.7</ele>
        <time>1970-01-01T02:54:10.000Z</time>
      </trkpt>
      <trkpt lat="45.89594" lon="2.98549">
        <ele>785.8</ele>
        <time>1970-01-01T02:54:12.000Z</time>
      </trkpt>
      <trkpt lat="45.89592" lon="2.98554">
        <ele>785.9</ele>
        <time>1970-01-01T02:54:13.000Z</time>
      </trkpt>
      <trkpt lat="45.8959" lon="2.98559">
        <ele>786</ele>
        <time>1970-01-01T02:54:14.000Z</time>
      </trkpt>
      <trkpt lat="45.89588" lon="2.98566">
        <ele>786.2</ele>
        <time>1970-01-01T02:54:16.000Z</time>
      </trkpt>
      <trkpt lat="45.89587" lon="2.9857">
        <ele>786.3</ele>
        <time>1970-01-01T02:54:17.000Z</time>
      </trkpt>
      <trkpt lat="45.89585" lon="2.98574">
        <ele>786.4</ele>
        <time>1970-01-01T02:54:18.000Z</time>
      </trkpt>
      <trkpt lat="45.89584" lon="2.98578">
        <ele>786.5</ele>
        <time>1970-01-01T02:54:19.000Z</time>
      </trkpt>
      <trkpt lat="45.89582" lon="2.98584">
        <ele>786.6</ele>
        <time>1970-01-01T02:54:20.000Z</time>
      </trkpt>
      <trkpt lat="45.89579" lon="2.9859">
        <ele>786.8</ele>
        <time>1970-01-01T02:54:22.000Z</time>
      </trkpt>
      <trkpt lat="45.89577" lon="2.98594">
        <ele>786.9</ele>
        <time>1970-01-01T02:54:23.000Z</time>
      </trkpt>
      <trkpt lat="45.89576" lon="2.98598">
        <ele>787</ele>
        <time>1970-01-01T02:54:24.000Z</time>
      </trkpt>
      <trkpt lat="45.89575" lon="2.98602">
        <ele>787.1</ele>
        <time>1970-01-01T02:54:25.000Z</time>
      </trkpt>
      <trkpt lat="45.89573" lon="2.98605">
        <ele>787.2</ele>
        <time>1970-01-01T02:54:26.000Z</time>
      </trkpt>
      <trkpt lat="45.89572" lon="2.98609">
        <ele>787.4</ele>
        <time>1970-01-01T02:54:27.000Z</time>
      </trkpt>
      <trkpt lat="45.8957" lon="2.98614">
        <ele>787.5</ele>
        <time>1970-01-01T02:54:28.000Z</time>
      </trkpt>
      <trkpt lat="45.89569" lon="2.98619">
        <ele>787.7</ele>
        <time>1970-01-01T02:54:30.000Z</time>
      </trkpt>
      <trkpt lat="45.89568" lon="2.98623">
        <ele>787.8</ele>
        <time>1970-01-01T02:54:31.000Z</time>
      </trkpt>
      <trkpt lat="45.89567" lon="2.98628">
        <ele>787.9</ele>
        <time>1970-01-01T02:54:32.000Z</time>
      </trkpt>
      <trkpt lat="45.89566" lon="2.9863">
        <ele>788</ele>
        <time>1970-01-01T02:54:33.000Z</time>
      </trkpt>
      <trkpt lat="45.89564" lon="2.98635">
        <ele>788.1</ele>
        <time>1970-01-01T02:54:34.000Z</time>
      </trkpt>
      <trkpt lat="45.89563" lon="2.98638">
        <ele>788.2</ele>
        <time>1970-01-01T02:54:35.000Z</time>
      </trkpt>
      <trkpt lat="45.89562" lon="2.98643">
        <ele>788.4</ele>
        <time>1970-01-01T02:54:37.000Z</time>
      </trkpt>
      <trkpt lat="45.89563" lon="2.9865">
        <ele>788.5</ele>
        <time>1970-01-01T02:54:38.000Z</time>
      </trkpt>
      <trkpt lat="45.89563" lon="2.98652">
        <ele>788.6</ele>
        <time>1970-01-01T02:54:39.000Z</time>
      </trkpt>
      <trkpt lat="45.89566" lon="2.98655">
        <ele>788.7</ele>
        <time>1970-01-01T02:54:40.000Z</time>
      </trkpt>
      <trkpt lat="45.8957" lon="2.98656">
        <ele>788.9</ele>
        <time>1970-01-01T02:54:42.000Z</time>
      </trkpt>
      <trkpt lat="45.89572" lon="2.98655">
        <ele>789.1</ele>
        <time>1970-01-01T02:54:43.000Z</time>
      </trkpt>
      <trkpt lat="45.89573" lon="2.98654">
        <ele>789.1</ele>
        <time>1970-01-01T02:54:44.000Z</time>
      </trkpt>
      <trkpt lat="45.89576" lon="2.9865">
        <ele>789</ele>
        <time>1970-01-01T02:54:45.000Z</time>
      </trkpt>
      <trkpt lat="45.89577" lon="2.98649">
        <ele>789</ele>
        <time>1970-01-01T02:54:46.000Z</time>
      </trkpt>
      <trkpt lat="45.8958" lon="2.98645">
        <ele>789</ele>
        <time>1970-01-01T02:54:47.000Z</time>
      </trkpt>
      <trkpt lat="45.89581" lon="2.98644">
        <ele>788.9</ele>
        <time>1970-01-01T02:54:48.000Z</time>
      </trkpt>
      <trkpt lat="45.89584" lon="2.98641">
        <ele>788.9</ele>
        <time>1970-01-01T02:54:50.000Z</time>
      </trkpt>
      <trkpt lat="45.89586" lon="2.98638">
        <ele>788.8</ele>
        <time>1970-01-01T02:54:51.000Z</time>
      </trkpt>
      <trkpt lat="45.8959" lon="2.98633">
        <ele>788.7</ele>
        <time>1970-01-01T02:54:53.000Z</time>
      </trkpt>
      <trkpt lat="45.89593" lon="2.9863">
        <ele>788.7</ele>
        <time>1970-01-01T02:54:54.000Z</time>
      </trkpt>
      <trkpt lat="45.89596" lon="2.98627">
        <ele>788.6</ele>
        <time>1970-01-01T02:54:55.000Z</time>
      </trkpt>
      <trkpt lat="45.89601" lon="2.98621">
        <ele>788.5</ele>
        <time>1970-01-01T02:54:57.000Z</time>
      </trkpt>
      <trkpt lat="45.89604" lon="2.98616">
        <ele>788.5</ele>
        <time>1970-01-01T02:54:58.000Z</time>
      </trkpt>
      <trkpt lat="45.89607" lon="2.98613">
        <ele>788.4</ele>
        <time>1970-01-01T02:54:59.000Z</time>
      </trkpt>
      <trkpt lat="45.89612" lon="2.98606">
        <ele>788.3</ele>
        <time>1970-01-01T02:55:00.000Z</time>
      </trkpt>
      <trkpt lat="45.89617" lon="2.98602">
        <ele>788.2</ele>
        <time>1970-01-01T02:55:02.000Z</time>
      </trkpt>
      <trkpt lat="45.8962" lon="2.98599">
        <ele>788.1</ele>
        <time>1970-01-01T02:55:03.000Z</time>
      </trkpt>
      <trkpt lat="45.89625" lon="2.98594">
        <ele>788</ele>
        <time>1970-01-01T02:55:04.000Z</time>
      </trkpt>
      <trkpt lat="45.89628" lon="2.9859">
        <ele>787.9</ele>
        <time>1970-01-01T02:55:05.000Z</time>
      </trkpt>
      <trkpt lat="45.89633" lon="2.98585">
        <ele>787.9</ele>
        <time>1970-01-01T02:55:06.000Z</time>
      </trkpt>
      <trkpt lat="45.89636" lon="2.98578">
        <ele>787.8</ele>
        <time>1970-01-01T02:55:08.000Z</time>
      </trkpt>
      <trkpt lat="45.8964" lon="2.98573">
        <ele>787.7</ele>
        <time>1970-01-01T02:55:09.000Z</time>
      </trkpt>
      <trkpt lat="45.89645" lon="2.98569">
        <ele>787.6</ele>
        <time>1970-01-01T02:55:10.000Z</time>
      </trkpt>
      <trkpt lat="45.89648" lon="2.98567">
        <ele>787.6</ele>
        <time>1970-01-01T02:55:11.000Z</time>
      </trkpt>
      <trkpt lat="45.89648" lon="2.98566">
        <ele>787.5</ele>
        <time>1970-01-01T02:55:13.000Z</time>
      </trkpt>
      <trkpt lat="45.89648" lon="2.98566">
        <ele>787.5</ele>
        <time>1970-01-01T02:55:14.000Z</time>
      </trkpt>
      <trkpt lat="45.89647" lon="2.98568">
        <ele>787.5</ele>
        <time>1970-01-01T02:55:15.000Z</time>
      </trkpt>
      <trkpt lat="45.89647" lon="2.98568">
        <ele>787.5</ele>
        <time>1970-01-01T02:55:16.000Z</time>
      </trkpt>
      <trkpt lat="45.89647" lon="2.98568">
        <ele>787.5</ele>
        <time>1970-01-01T02:55:17.000Z</time>
      </trkpt>
      <trkpt lat="45.89647" lon="2.98569">
        <ele>787.5</ele>
        <time>1970-01-01T02:55:18.000Z</time>
      </trkpt>
      <trkpt lat="45.89647" lon="2.98569">
        <ele>787.5</ele>
        <time>1970-01-01T02:55:19.000Z</time>
      </trkpt>
      <trkpt lat="45.89647" lon="2.98569">
        <ele>787.5</ele>
        <time>1970-01-01T02:55:20.000Z</time>
      </trkpt>
      <trkpt lat="45.89647" lon="2.98569">
        <ele>787.5</ele>
        <time>1970-01-01T02:55:21.000Z</time>
      </trkpt>
      <trkpt lat="45.89647" lon="2.98569">
        <ele>787.5</ele>
        <time>1970-01-01T02:55:22.000Z</time>
      </trkpt>
      <trkpt lat="45.89647" lon="2.98569">
        <ele>787.5</ele>
        <time>1970-01-01T02:55:23.000Z</time>
      </trkpt>
      <trkpt lat="45.89652" lon="2.98561">
        <ele>787.4</ele>
        <time>1970-01-01T02:55:28.000Z</time>
      </trkpt>
      <trkpt lat="45.89656" lon="2.98556">
        <ele>787.4</ele>
        <time>1970-01-01T02:55:30.000Z</time>
      </trkpt>
      <trkpt lat="45.89658" lon="2.98554">
        <ele>787.3</ele>
        <time>1970-01-01T02:55:31.000Z</time>
      </trkpt>
      <trkpt lat="45.89662" lon="2.98549">
        <ele>787.3</ele>
        <time>1970-01-01T02:55:32.000Z</time>
      </trkpt>
      <trkpt lat="45.89664" lon="2.98546">
        <ele>787.3</ele>
        <time>1970-01-01T02:55:34.000Z</time>
      </trkpt>
      <trkpt lat="45.89668" lon="2.98542">
        <ele>787.3</ele>
        <time>1970-01-01T02:55:35.000Z</time>
      </trkpt>
      <trkpt lat="45.89669" lon="2.9854">
        <ele>787.2</ele>
        <time>1970-01-01T02:55:36.000Z</time>
      </trkpt>
      <trkpt lat="45.89671" lon="2.98538">
        <ele>787.2</ele>
        <time>1970-01-01T02:55:37.000Z</time>
      </trkpt>
      <trkpt lat="45.89673" lon="2.98535">
        <ele>787.2</ele>
        <time>1970-01-01T02:55:38.000Z</time>
      </trkpt>
      <trkpt lat="45.89675" lon="2.98531">
        <ele>787.1</ele>
        <time>1970-01-01T02:55:39.000Z</time>
      </trkpt>
      <trkpt lat="45.89678" lon="2.98527">
        <ele>787.1</ele>
        <time>1970-01-01T02:55:40.000Z</time>
      </trkpt>
      <trkpt lat="45.8968" lon="2.98523">
        <ele>787</ele>
        <time>1970-01-01T02:55:41.000Z</time>
      </trkpt>
      <trkpt lat="45.89683" lon="2.98518">
        <ele>786.9</ele>
        <time>1970-01-01T02:55:42.000Z</time>
      </trkpt>
      <trkpt lat="45.89685" lon="2.98512">
        <ele>786.8</ele>
        <time>1970-01-01T02:55:44.000Z</time>
      </trkpt>
      <trkpt lat="45.89688" lon="2.98504">
        <ele>786.7</ele>
        <time>1970-01-01T02:55:45.000Z</time>
      </trkpt>
      <trkpt lat="45.89691" lon="2.98496">
        <ele>786.5</ele>
        <time>1970-01-01T02:55:47.000Z</time>
      </trkpt>
      <trkpt lat="45.89692" lon="2.9849">
        <ele>786.4</ele>
        <time>1970-01-01T02:55:48.000Z</time>
      </trkpt>
      <trkpt lat="45.89693" lon="2.98483">
        <ele>786.3</ele>
        <time>1970-01-01T02:55:49.000Z</time>
      </trkpt>
      <trkpt lat="45.89696" lon="2.98477">
        <ele>786.1</ele>
        <time>1970-01-01T02:55:50.000Z</time>
      </trkpt>
      <trkpt lat="45.89698" lon="2.98471">
        <ele>786</ele>
        <time>1970-01-01T02:55:51.000Z</time>
      </trkpt>
      <trkpt lat="45.89701" lon="2.98465">
        <ele>785.9</ele>
        <time>1970-01-01T02:55:52.000Z</time>
      </trkpt>
      <trkpt lat="45.89704" lon="2.98459">
        <ele>785.8</ele>
        <time>1970-01-01T02:55:53.000Z</time>
      </trkpt>
      <trkpt lat="45.89707" lon="2.98453">
        <ele>785.6</ele>
        <time>1970-01-01T02:55:54.000Z</time>
      </trkpt>
      <trkpt lat="45.89711" lon="2.98448">
        <ele>785.5</ele>
        <time>1970-01-01T02:55:55.000Z</time>
      </trkpt>
      <trkpt lat="45.89715" lon="2.98443">
        <ele>785.4</ele>
        <time>1970-01-01T02:55:56.000Z</time>
      </trkpt>
      <trkpt lat="45.89719" lon="2.98439">
        <ele>785.4</ele>
        <time>1970-01-01T02:55:57.000Z</time>
      </trkpt>
      <trkpt lat="45.89724" lon="2.98435">
        <ele>785.3</ele>
        <time>1970-01-01T02:55:58.000Z</time>
      </trkpt>
      <trkpt lat="45.89728" lon="2.98431">
        <ele>785.3</ele>
        <time>1970-01-01T02:55:59.000Z</time>
      </trkpt>
      <trkpt lat="45.89732" lon="2.98428">
        <ele>785.2</ele>
        <time>1970-01-01T02:56:00.000Z</time>
      </trkpt>
      <trkpt lat="45.89737" lon="2.98424">
        <ele>785.2</ele>
        <time>1970-01-01T02:56:01.000Z</time>
      </trkpt>
      <trkpt lat="45.89741" lon="2.9842">
        <ele>785.2</ele>
        <time>1970-01-01T02:56:02.000Z</time>
      </trkpt>
      <trkpt lat="45.89746" lon="2.98416">
        <ele>785.1</ele>
        <time>1970-01-01T02:56:03.000Z</time>
      </trkpt>
      <trkpt lat="45.8975" lon="2.98412">
        <ele>785.1</ele>
        <time>1970-01-01T02:56:04.000Z</time>
      </trkpt>
      <trkpt lat="45.89754" lon="2.98408">
        <ele>785</ele>
        <time>1970-01-01T02:56:05.000Z</time>
      </trkpt>
      <trkpt lat="45.89758" lon="2.98403">
        <ele>785</ele>
        <time>1970-01-01T02:56:06.000Z</time>
      </trkpt>
      <trkpt lat="45.89763" lon="2.98399">
        <ele>784.9</ele>
        <time>1970-01-01T02:56:07.000Z</time>
      </trkpt>
      <trkpt lat="45.89767" lon="2.98395">
        <ele>784.9</ele>
        <time>1970-01-01T02:56:08.000Z</time>
      </trkpt>
      <trkpt lat="45.89772" lon="2.98392">
        <ele>784.9</ele>
        <time>1970-01-01T02:56:09.000Z</time>
      </trkpt>
      <trkpt lat="45.89776" lon="2.98388">
        <ele>784.9</ele>
        <time>1970-01-01T02:56:10.000Z</time>
      </trkpt>
      <trkpt lat="45.8978" lon="2.98383">
        <ele>784.9</ele>
        <time>1970-01-01T02:56:11.000Z</time>
      </trkpt>
      <trkpt lat="45.89784" lon="2.98378">
        <ele>785</ele>
        <time>1970-01-01T02:56:12.000Z</time>
      </trkpt>
      <trkpt lat="45.89788" lon="2.98374">
        <ele>785</ele>
        <time>1970-01-01T02:56:13.000Z</time>
      </trkpt>
      <trkpt lat="45.89792" lon="2.98369">
        <ele>785.1</ele>
        <time>1970-01-01T02:56:14.000Z</time>
      </trkpt>
      <trkpt lat="45.89795" lon="2.98364">
        <ele>785.1</ele>
        <time>1970-01-01T02:56:15.000Z</time>
      </trkpt>
      <trkpt lat="45.89799" lon="2.98359">
        <ele>785.2</ele>
        <time>1970-01-01T02:56:16.000Z</time>
      </trkpt>
      <trkpt lat="45.89802" lon="2.98355">
        <ele>785.2</ele>
        <time>1970-01-01T02:56:17.000Z</time>
      </trkpt>
      <trkpt lat="45.89805" lon="2.98351">
        <ele>785.2</ele>
        <time>1970-01-01T02:56:18.000Z</time>
      </trkpt>
      <trkpt lat="45.89808" lon="2.98348">
        <ele>785.3</ele>
        <time>1970-01-01T02:56:19.000Z</time>
      </trkpt>
      <trkpt lat="45.8981" lon="2.98344">
        <ele>785.3</ele>
        <time>1970-01-01T02:56:20.000Z</time>
      </trkpt>
      <trkpt lat="45.89814" lon="2.98339">
        <ele>785.3</ele>
        <time>1970-01-01T02:56:21.000Z</time>
      </trkpt>
      <trkpt lat="45.89817" lon="2.98335">
        <ele>785.4</ele>
        <time>1970-01-01T02:56:22.000Z</time>
      </trkpt>
      <trkpt lat="45.89821" lon="2.9833">
        <ele>785.4</ele>
        <time>1970-01-01T02:56:23.000Z</time>
      </trkpt>
      <trkpt lat="45.89824" lon="2.98325">
        <ele>785.5</ele>
        <time>1970-01-01T02:56:24.000Z</time>
      </trkpt>
      <trkpt lat="45.89828" lon="2.9832">
        <ele>785.5</ele>
        <time>1970-01-01T02:56:25.000Z</time>
      </trkpt>
      <trkpt lat="45.89831" lon="2.98316">
        <ele>785.5</ele>
        <time>1970-01-01T02:56:26.000Z</time>
      </trkpt>
      <trkpt lat="45.89834" lon="2.98311">
        <ele>785.6</ele>
        <time>1970-01-01T02:56:27.000Z</time>
      </trkpt>
      <trkpt lat="45.89838" lon="2.98306">
        <ele>785.7</ele>
        <time>1970-01-01T02:56:28.000Z</time>
      </trkpt>
      <trkpt lat="45.89841" lon="2.98302">
        <ele>785.8</ele>
        <time>1970-01-01T02:56:29.000Z</time>
      </trkpt>
      <trkpt lat="45.89845" lon="2.98297">
        <ele>785.8</ele>
        <time>1970-01-01T02:56:30.000Z</time>
      </trkpt>
      <trkpt lat="45.89849" lon="2.98293">
        <ele>785.9</ele>
        <time>1970-01-01T02:56:31.000Z</time>
      </trkpt>
      <trkpt lat="45.89852" lon="2.98286">
        <ele>785.9</ele>
        <time>1970-01-01T02:56:33.000Z</time>
      </trkpt>
      <trkpt lat="45.89856" lon="2.98282">
        <ele>786</ele>
        <time>1970-01-01T02:56:34.000Z</time>
      </trkpt>
      <trkpt lat="45.89859" lon="2.98278">
        <ele>786</ele>
        <time>1970-01-01T02:56:35.000Z</time>
      </trkpt>
      <trkpt lat="45.89863" lon="2.98274">
        <ele>786</ele>
        <time>1970-01-01T02:56:36.000Z</time>
      </trkpt>
      <trkpt lat="45.8987" lon="2.98272">
        <ele>786</ele>
        <time>1970-01-01T02:56:37.000Z</time>
      </trkpt>
      <trkpt lat="45.89875" lon="2.9827">
        <ele>786</ele>
        <time>1970-01-01T02:56:38.000Z</time>
      </trkpt>
      <trkpt lat="45.89879" lon="2.98266">
        <ele>785.9</ele>
        <time>1970-01-01T02:56:39.000Z</time>
      </trkpt>
      <trkpt lat="45.89884" lon="2.98264">
        <ele>785.9</ele>
        <time>1970-01-01T02:56:40.000Z</time>
      </trkpt>
      <trkpt lat="45.89889" lon="2.98262">
        <ele>785.8</ele>
        <time>1970-01-01T02:56:41.000Z</time>
      </trkpt>
      <trkpt lat="45.89893" lon="2.9826">
        <ele>785.8</ele>
        <time>1970-01-01T02:56:42.000Z</time>
      </trkpt>
      <trkpt lat="45.89899" lon="2.98258">
        <ele>785.7</ele>
        <time>1970-01-01T02:56:43.000Z</time>
      </trkpt>
      <trkpt lat="45.89904" lon="2.98256">
        <ele>785.6</ele>
        <time>1970-01-01T02:56:44.000Z</time>
      </trkpt>
      <trkpt lat="45.89908" lon="2.98254">
        <ele>785.5</ele>
        <time>1970-01-01T02:56:45.000Z</time>
      </trkpt>
      <trkpt lat="45.89913" lon="2.98251">
        <ele>785.5</ele>
        <time>1970-01-01T02:56:46.000Z</time>
      </trkpt>
      <trkpt lat="45.89918" lon="2.98248">
        <ele>785.4</ele>
        <time>1970-01-01T02:56:47.000Z</time>
      </trkpt>
      <trkpt lat="45.89924" lon="2.98247">
        <ele>785.3</ele>
        <time>1970-01-01T02:56:48.000Z</time>
      </trkpt>
      <trkpt lat="45.89929" lon="2.98245">
        <ele>785.2</ele>
        <time>1970-01-01T02:56:49.000Z</time>
      </trkpt>
      <trkpt lat="45.89934" lon="2.98242">
        <ele>785.2</ele>
        <time>1970-01-01T02:56:50.000Z</time>
      </trkpt>
      <trkpt lat="45.89939" lon="2.98239">
        <ele>785.1</ele>
        <time>1970-01-01T02:56:51.000Z</time>
      </trkpt>
      <trkpt lat="45.89944" lon="2.98235">
        <ele>785</ele>
        <time>1970-01-01T02:56:52.000Z</time>
      </trkpt>
      <trkpt lat="45.89949" lon="2.98232">
        <ele>784.9</ele>
        <time>1970-01-01T02:56:53.000Z</time>
      </trkpt>
      <trkpt lat="45.89955" lon="2.9823">
        <ele>784.8</ele>
        <time>1970-01-01T02:56:54.000Z</time>
      </trkpt>
      <trkpt lat="45.8996" lon="2.98227">
        <ele>784.7</ele>
        <time>1970-01-01T02:56:55.000Z</time>
      </trkpt>
      <trkpt lat="45.89965" lon="2.98224">
        <ele>784.6</ele>
        <time>1970-01-01T02:56:56.000Z</time>
      </trkpt>
      <trkpt lat="45.89971" lon="2.9822">
        <ele>784.5</ele>
        <time>1970-01-01T02:56:57.000Z</time>
      </trkpt>
      <trkpt lat="45.89975" lon="2.98216">
        <ele>784.4</ele>
        <time>1970-01-01T02:56:58.000Z</time>
      </trkpt>
      <trkpt lat="45.8998" lon="2.98212">
        <ele>784.3</ele>
        <time>1970-01-01T02:56:59.000Z</time>
      </trkpt>
      <trkpt lat="45.89985" lon="2.98207">
        <ele>784.1</ele>
        <time>1970-01-01T02:57:00.000Z</time>
      </trkpt>
      <trkpt lat="45.8999" lon="2.98202">
        <ele>784</ele>
        <time>1970-01-01T02:57:01.000Z</time>
      </trkpt>
      <trkpt lat="45.89995" lon="2.98197">
        <ele>783.8</ele>
        <time>1970-01-01T02:57:02.000Z</time>
      </trkpt>
      <trkpt lat="45.89999" lon="2.98192">
        <ele>783.7</ele>
        <time>1970-01-01T02:57:03.000Z</time>
      </trkpt>
      <trkpt lat="45.90004" lon="2.98187">
        <ele>783.5</ele>
        <time>1970-01-01T02:57:04.000Z</time>
      </trkpt>
      <trkpt lat="45.90008" lon="2.98181">
        <ele>783.3</ele>
        <time>1970-01-01T02:57:05.000Z</time>
      </trkpt>
      <trkpt lat="45.90011" lon="2.98173">
        <ele>783</ele>
        <time>1970-01-01T02:57:06.000Z</time>
      </trkpt>
      <trkpt lat="45.90013" lon="2.98165">
        <ele>782.7</ele>
        <time>1970-01-01T02:57:07.000Z</time>
      </trkpt>
      <trkpt lat="45.90015" lon="2.98156">
        <ele>782.4</ele>
        <time>1970-01-01T02:57:08.000Z</time>
      </trkpt>
      <trkpt lat="45.90017" lon="2.98146">
        <ele>782.1</ele>
        <time>1970-01-01T02:57:09.000Z</time>
      </trkpt>
      <trkpt lat="45.90019" lon="2.98137">
        <ele>781.8</ele>
        <time>1970-01-01T02:57:10.000Z</time>
      </trkpt>
      <trkpt lat="45.90022" lon="2.98127">
        <ele>781.5</ele>
        <time>1970-01-01T02:57:11.000Z</time>
      </trkpt>
      <trkpt lat="45.90025" lon="2.98119">
        <ele>781.2</ele>
        <time>1970-01-01T02:57:12.000Z</time>
      </trkpt>
      <trkpt lat="45.90028" lon="2.98112">
        <ele>780.9</ele>
        <time>1970-01-01T02:57:13.000Z</time>
      </trkpt>
      <trkpt lat="45.90031" lon="2.98106">
        <ele>780.6</ele>
        <time>1970-01-01T02:57:14.000Z</time>
      </trkpt>
      <trkpt lat="45.90034" lon="2.98101">
        <ele>780.4</ele>
        <time>1970-01-01T02:57:15.000Z</time>
      </trkpt>
      <trkpt lat="45.90036" lon="2.98096">
        <ele>780.1</ele>
        <time>1970-01-01T02:57:16.000Z</time>
      </trkpt>
      <trkpt lat="45.90039" lon="2.98092">
        <ele>779.8</ele>
        <time>1970-01-01T02:57:17.000Z</time>
      </trkpt>
      <trkpt lat="45.90041" lon="2.98091">
        <ele>779</ele>
        <time>1970-01-01T02:57:18.000Z</time>
      </trkpt>
      <trkpt lat="45.90044" lon="2.98089">
        <ele>778.8</ele>
        <time>1970-01-01T02:57:19.000Z</time>
      </trkpt>
      <trkpt lat="45.90047" lon="2.9809">
        <ele>778.9</ele>
        <time>1970-01-01T02:57:20.000Z</time>
      </trkpt>
      <trkpt lat="45.9005" lon="2.98093">
        <ele>778.9</ele>
        <time>1970-01-01T02:57:21.000Z</time>
      </trkpt>
      <trkpt lat="45.90051" lon="2.98097">
        <ele>778.9</ele>
        <time>1970-01-01T02:57:22.000Z</time>
      </trkpt>
      <trkpt lat="45.90053" lon="2.98101">
        <ele>777.8</ele>
        <time>1970-01-01T02:57:23.000Z</time>
      </trkpt>
      <trkpt lat="45.90053" lon="2.98102">
        <ele>777.8</ele>
        <time>1970-01-01T02:57:24.000Z</time>
      </trkpt>
      <trkpt lat="45.90055" lon="2.98105">
        <ele>777.8</ele>
        <time>1970-01-01T02:57:25.000Z</time>
      </trkpt>
      <trkpt lat="45.90059" lon="2.98109">
        <ele>778.3</ele>
        <time>1970-01-01T02:57:26.000Z</time>
      </trkpt>
      <trkpt lat="45.90062" lon="2.98113">
        <ele>778.3</ele>
        <time>1970-01-01T02:57:27.000Z</time>
      </trkpt>
      <trkpt lat="45.90065" lon="2.98116">
        <ele>778</ele>
        <time>1970-01-01T02:57:28.000Z</time>
      </trkpt>
      <trkpt lat="45.90067" lon="2.98119">
        <ele>778</ele>
        <time>1970-01-01T02:57:29.000Z</time>
      </trkpt>
      <trkpt lat="45.90071" lon="2.98124">
        <ele>778</ele>
        <time>1970-01-01T02:57:30.000Z</time>
      </trkpt>
      <trkpt lat="45.90074" lon="2.98127">
        <ele>778.7</ele>
        <time>1970-01-01T02:57:31.000Z</time>
      </trkpt>
      <trkpt lat="45.9008" lon="2.98133">
        <ele>778.9</ele>
        <time>1970-01-01T02:57:34.000Z</time>
      </trkpt>
      <trkpt lat="45.90083" lon="2.98136">
        <ele>778.9</ele>
        <time>1970-01-01T02:57:35.000Z</time>
      </trkpt>
      <trkpt lat="45.90086" lon="2.98138">
        <ele>778.9</ele>
        <time>1970-01-01T02:57:36.000Z</time>
      </trkpt>
      <trkpt lat="45.90088" lon="2.98141">
        <ele>779.3</ele>
        <time>1970-01-01T02:57:37.000Z</time>
      </trkpt>
      <trkpt lat="45.90091" lon="2.98143">
        <ele>780.1</ele>
        <time>1970-01-01T02:57:38.000Z</time>
      </trkpt>
      <trkpt lat="45.90093" lon="2.98145">
        <ele>780.1</ele>
        <time>1970-01-01T02:57:39.000Z</time>
      </trkpt>
      <trkpt lat="45.90096" lon="2.98149">
        <ele>780.1</ele>
        <time>1970-01-01T02:57:41.000Z</time>
      </trkpt>
      <trkpt lat="45.90099" lon="2.98153">
        <ele>780.1</ele>
        <time>1970-01-01T02:57:42.000Z</time>
      </trkpt>
      <trkpt lat="45.901" lon="2.98154">
        <ele>780.4</ele>
        <time>1970-01-01T02:57:43.000Z</time>
      </trkpt>
      <trkpt lat="45.90103" lon="2.98157">
        <ele>780.4</ele>
        <time>1970-01-01T02:57:45.000Z</time>
      </trkpt>
      <trkpt lat="45.90106" lon="2.9816">
        <ele>780.9</ele>
        <time>1970-01-01T02:57:46.000Z</time>
      </trkpt>
      <trkpt lat="45.90108" lon="2.98163">
        <ele>780.9</ele>
        <time>1970-01-01T02:57:47.000Z</time>
      </trkpt>
      <trkpt lat="45.90109" lon="2.98166">
        <ele>780.9</ele>
        <time>1970-01-01T02:57:48.000Z</time>
      </trkpt>
      <trkpt lat="45.9011" lon="2.9817">
        <ele>780.9</ele>
        <time>1970-01-01T02:57:50.000Z</time>
      </trkpt>
      <trkpt lat="45.90112" lon="2.98173">
        <ele>780.9</ele>
        <time>1970-01-01T02:57:51.000Z</time>
      </trkpt>
      <trkpt lat="45.90112" lon="2.98174">
        <ele>781</ele>
        <time>1970-01-01T02:57:52.000Z</time>
      </trkpt>
      <trkpt lat="45.90113" lon="2.98179">
        <ele>781.4</ele>
        <time>1970-01-01T02:57:53.000Z</time>
      </trkpt>
      <trkpt lat="45.90113" lon="2.9818">
        <ele>781.4</ele>
        <time>1970-01-01T02:57:54.000Z</time>
      </trkpt>
      <trkpt lat="45.90115" lon="2.98184">
        <ele>781.3</ele>
        <time>1970-01-01T02:57:55.000Z</time>
      </trkpt>
      <trkpt lat="45.90116" lon="2.98188">
        <ele>781.3</ele>
        <time>1970-01-01T02:57:57.000Z</time>
      </trkpt>
      <trkpt lat="45.90116" lon="2.9819">
        <ele>781.3</ele>
        <time>1970-01-01T02:57:58.000Z</time>
      </trkpt>
      <trkpt lat="45.90117" lon="2.98195">
        <ele>781.8</ele>
        <time>1970-01-01T02:57:59.000Z</time>
      </trkpt>
      <trkpt lat="45.90117" lon="2.98197">
        <ele>781.8</ele>
        <time>1970-01-01T02:58:00.000Z</time>
      </trkpt>
      <trkpt lat="45.90119" lon="2.98201">
        <ele>781.8</ele>
        <time>1970-01-01T02:58:01.000Z</time>
      </trkpt>
      <trkpt lat="45.9012" lon="2.98202">
        <ele>781.7</ele>
        <time>1970-01-01T02:58:02.000Z</time>
      </trkpt>
      <trkpt lat="45.90122" lon="2.98205">
        <ele>781.7</ele>
        <time>1970-01-01T02:58:03.000Z</time>
      </trkpt>
      <trkpt lat="45.90125" lon="2.98207">
        <ele>781.8</ele>
        <time>1970-01-01T02:58:04.000Z</time>
      </trkpt>
      <trkpt lat="45.90125" lon="2.98208">
        <ele>781.8</ele>
        <time>1970-01-01T02:58:05.000Z</time>
      </trkpt>
      <trkpt lat="45.90127" lon="2.98211">
        <ele>782.2</ele>
        <time>1970-01-01T02:58:07.000Z</time>
      </trkpt>
      <trkpt lat="45.9013" lon="2.98215">
        <ele>782.2</ele>
        <time>1970-01-01T02:58:09.000Z</time>
      </trkpt>
      <trkpt lat="45.90132" lon="2.98217">
        <ele>782.2</ele>
        <time>1970-01-01T02:58:10.000Z</time>
      </trkpt>
      <trkpt lat="45.90133" lon="2.98218">
        <ele>782.2</ele>
        <time>1970-01-01T02:58:11.000Z</time>
      </trkpt>
      <trkpt lat="45.90135" lon="2.98221">
        <ele>782.2</ele>
        <time>1970-01-01T02:58:12.000Z</time>
      </trkpt>
      <trkpt lat="45.90138" lon="2.98225">
        <ele>782.1</ele>
        <time>1970-01-01T02:58:14.000Z</time>
      </trkpt>
      <trkpt lat="45.90139" lon="2.98227">
        <ele>782.1</ele>
        <time>1970-01-01T02:58:15.000Z</time>
      </trkpt>
      <trkpt lat="45.9014" lon="2.98228">
        <ele>782.5</ele>
        <time>1970-01-01T02:58:16.000Z</time>
      </trkpt>
      <trkpt lat="45.90142" lon="2.98231">
        <ele>782.5</ele>
        <time>1970-01-01T02:58:17.000Z</time>
      </trkpt>
      <trkpt lat="45.90143" lon="2.98233">
        <ele>782.5</ele>
        <time>1970-01-01T02:58:18.000Z</time>
      </trkpt>
      <trkpt lat="45.90145" lon="2.98236">
        <ele>782.4</ele>
        <time>1970-01-01T02:58:19.000Z</time>
      </trkpt>
      <trkpt lat="45.90146" lon="2.98237">
        <ele>782.4</ele>
        <time>1970-01-01T02:58:20.000Z</time>
      </trkpt>
      <trkpt lat="45.90148" lon="2.98241">
        <ele>782.1</ele>
        <time>1970-01-01T02:58:21.000Z</time>
      </trkpt>
      <trkpt lat="45.90149" lon="2.98242">
        <ele>782.1</ele>
        <time>1970-01-01T02:58:22.000Z</time>
      </trkpt>
      <trkpt lat="45.90151" lon="2.98246">
        <ele>782.4</ele>
        <time>1970-01-01T02:58:23.000Z</time>
      </trkpt>
      <trkpt lat="45.90153" lon="2.9825">
        <ele>782.3</ele>
        <time>1970-01-01T02:58:24.000Z</time>
      </trkpt>
      <trkpt lat="45.90155" lon="2.98254">
        <ele>782.3</ele>
        <time>1970-01-01T02:58:25.000Z</time>
      </trkpt>
      <trkpt lat="45.90157" lon="2.98258">
        <ele>782.3</ele>
        <time>1970-01-01T02:58:26.000Z</time>
      </trkpt>
      <trkpt lat="45.9016" lon="2.98263">
        <ele>782.6</ele>
        <time>1970-01-01T02:58:28.000Z</time>
      </trkpt>
      <trkpt lat="45.90162" lon="2.98268">
        <ele>781.8</ele>
        <time>1970-01-01T02:58:29.000Z</time>
      </trkpt>
      <trkpt lat="45.90165" lon="2.98275">
        <ele>781.8</ele>
        <time>1970-01-01T02:58:31.000Z</time>
      </trkpt>
      <trkpt lat="45.90169" lon="2.98282">
        <ele>782</ele>
        <time>1970-01-01T02:58:32.000Z</time>
      </trkpt>
      <trkpt lat="45.90172" lon="2.98287">
        <ele>781</ele>
        <time>1970-01-01T02:58:33.000Z</time>
      </trkpt>
      <trkpt lat="45.90175" lon="2.98295">
        <ele>781</ele>
        <time>1970-01-01T02:58:34.000Z</time>
      </trkpt>
      <trkpt lat="45.90177" lon="2.983">
        <ele>781.1</ele>
        <time>1970-01-01T02:58:35.000Z</time>
      </trkpt>
      <trkpt lat="45.90181" lon="2.98306">
        <ele>781.1</ele>
        <time>1970-01-01T02:58:36.000Z</time>
      </trkpt>
      <trkpt lat="45.90186" lon="2.98312">
        <ele>780.2</ele>
        <time>1970-01-01T02:58:37.000Z</time>
      </trkpt>
      <trkpt lat="45.90189" lon="2.98318">
        <ele>780</ele>
        <time>1970-01-01T02:58:38.000Z</time>
      </trkpt>
      <trkpt lat="45.90193" lon="2.98325">
        <ele>780</ele>
        <time>1970-01-01T02:58:39.000Z</time>
      </trkpt>
      <trkpt lat="45.90196" lon="2.98332">
        <ele>778.2</ele>
        <time>1970-01-01T02:58:40.000Z</time>
      </trkpt>
      <trkpt lat="45.90199" lon="2.9834">
        <ele>778.1</ele>
        <time>1970-01-01T02:58:41.000Z</time>
      </trkpt>
      <trkpt lat="45.90201" lon="2.98347">
        <ele>778.1</ele>
        <time>1970-01-01T02:58:42.000Z</time>
      </trkpt>
      <trkpt lat="45.90204" lon="2.98354">
        <ele>777.2</ele>
        <time>1970-01-01T02:58:43.000Z</time>
      </trkpt>
      <trkpt lat="45.90206" lon="2.98361">
        <ele>777.2</ele>
        <time>1970-01-01T02:58:44.000Z</time>
      </trkpt>
      <trkpt lat="45.90209" lon="2.98369">
        <ele>775.3</ele>
        <time>1970-01-01T02:58:45.000Z</time>
      </trkpt>
      <trkpt lat="45.90209" lon="2.98377">
        <ele>775.3</ele>
        <time>1970-01-01T02:58:46.000Z</time>
      </trkpt>
      <trkpt lat="45.90208" lon="2.98384">
        <ele>774.3</ele>
        <time>1970-01-01T02:58:47.000Z</time>
      </trkpt>
      <trkpt lat="45.90207" lon="2.98394">
        <ele>775.2</ele>
        <time>1970-01-01T02:58:48.000Z</time>
      </trkpt>
      <trkpt lat="45.90207" lon="2.98403">
        <ele>774.4</ele>
        <time>1970-01-01T02:58:49.000Z</time>
      </trkpt>
      <trkpt lat="45.90208" lon="2.98411">
        <ele>773.4</ele>
        <time>1970-01-01T02:58:50.000Z</time>
      </trkpt>
      <trkpt lat="45.90207" lon="2.98416">
        <ele>774.3</ele>
        <time>1970-01-01T02:58:51.000Z</time>
      </trkpt>
      <trkpt lat="45.90207" lon="2.98424">
        <ele>773.5</ele>
        <time>1970-01-01T02:58:52.000Z</time>
      </trkpt>
      <trkpt lat="45.90206" lon="2.98433">
        <ele>773.5</ele>
        <time>1970-01-01T02:58:53.000Z</time>
      </trkpt>
      <trkpt lat="45.90205" lon="2.98442">
        <ele>772.9</ele>
        <time>1970-01-01T02:58:54.000Z</time>
      </trkpt>
      <trkpt lat="45.90204" lon="2.98451">
        <ele>772.3</ele>
        <time>1970-01-01T02:58:55.000Z</time>
      </trkpt>
      <trkpt lat="45.90205" lon="2.98461">
        <ele>772.3</ele>
        <time>1970-01-01T02:58:56.000Z</time>
      </trkpt>
      <trkpt lat="45.90207" lon="2.98472">
        <ele>771.6</ele>
        <time>1970-01-01T02:58:57.000Z</time>
      </trkpt>
      <trkpt lat="45.90209" lon="2.98483">
        <ele>770.6</ele>
        <time>1970-01-01T02:58:58.000Z</time>
      </trkpt>
      <trkpt lat="45.90211" lon="2.98494">
        <ele>770.2</ele>
        <time>1970-01-01T02:58:59.000Z</time>
      </trkpt>
      <trkpt lat="45.90212" lon="2.98507">
        <ele>770</ele>
        <time>1970-01-01T02:59:00.000Z</time>
      </trkpt>
      <trkpt lat="45.90214" lon="2.98519">
        <ele>769.7</ele>
        <time>1970-01-01T02:59:01.000Z</time>
      </trkpt>
      <trkpt lat="45.90215" lon="2.98532">
        <ele>769.9</ele>
        <time>1970-01-01T02:59:02.000Z</time>
      </trkpt>
      <trkpt lat="45.90215" lon="2.98545">
        <ele>770.2</ele>
        <time>1970-01-01T02:59:03.000Z</time>
      </trkpt>
      <trkpt lat="45.90217" lon="2.98558">
        <ele>770.4</ele>
        <time>1970-01-01T02:59:04.000Z</time>
      </trkpt>
      <trkpt lat="45.90218" lon="2.98571">
        <ele>769.9</ele>
        <time>1970-01-01T02:59:05.000Z</time>
      </trkpt>
      <trkpt lat="45.90218" lon="2.98584">
        <ele>769.3</ele>
        <time>1970-01-01T02:59:06.000Z</time>
      </trkpt>
      <trkpt lat="45.90218" lon="2.98596">
        <ele>768.7</ele>
        <time>1970-01-01T02:59:07.000Z</time>
      </trkpt>
      <trkpt lat="45.9022" lon="2.9861">
        <ele>768.2</ele>
        <time>1970-01-01T02:59:08.000Z</time>
      </trkpt>
      <trkpt lat="45.90221" lon="2.98622">
        <ele>767.7</ele>
        <time>1970-01-01T02:59:09.000Z</time>
      </trkpt>
      <trkpt lat="45.90222" lon="2.98633">
        <ele>767.3</ele>
        <time>1970-01-01T02:59:10.000Z</time>
      </trkpt>
      <trkpt lat="45.90222" lon="2.98643">
        <ele>767</ele>
        <time>1970-01-01T02:59:11.000Z</time>
      </trkpt>
      <trkpt lat="45.90223" lon="2.98649">
        <ele>766.9</ele>
        <time>1970-01-01T02:59:12.000Z</time>
      </trkpt>
      <trkpt lat="45.90224" lon="2.98653">
        <ele>766.8</ele>
        <time>1970-01-01T02:59:13.000Z</time>
      </trkpt>
      <trkpt lat="45.90226" lon="2.98658">
        <ele>766.6</ele>
        <time>1970-01-01T02:59:14.000Z</time>
      </trkpt>
      <trkpt lat="45.90231" lon="2.98665">
        <ele>766.4</ele>
        <time>1970-01-01T02:59:15.000Z</time>
      </trkpt>
      <trkpt lat="45.90234" lon="2.98673">
        <ele>766.2</ele>
        <time>1970-01-01T02:59:16.000Z</time>
      </trkpt>
      <trkpt lat="45.90236" lon="2.98682">
        <ele>766.1</ele>
        <time>1970-01-01T02:59:17.000Z</time>
      </trkpt>
      <trkpt lat="45.90238" lon="2.9869">
        <ele>766</ele>
        <time>1970-01-01T02:59:18.000Z</time>
      </trkpt>
      <trkpt lat="45.90237" lon="2.98698">
        <ele>766</ele>
        <time>1970-01-01T02:59:19.000Z</time>
      </trkpt>
      <trkpt lat="45.90236" lon="2.98705">
        <ele>765.8</ele>
        <time>1970-01-01T02:59:20.000Z</time>
      </trkpt>
      <trkpt lat="45.90238" lon="2.98711">
        <ele>765.6</ele>
        <time>1970-01-01T02:59:21.000Z</time>
      </trkpt>
      <trkpt lat="45.9024" lon="2.98718">
        <ele>765.2</ele>
        <time>1970-01-01T02:59:22.000Z</time>
      </trkpt>
      <trkpt lat="45.90242" lon="2.98725">
        <ele>764.8</ele>
        <time>1970-01-01T02:59:23.000Z</time>
      </trkpt>
      <trkpt lat="45.90245" lon="2.98733">
        <ele>764.4</ele>
        <time>1970-01-01T02:59:24.000Z</time>
      </trkpt>
      <trkpt lat="45.90247" lon="2.98741">
        <ele>764</ele>
        <time>1970-01-01T02:59:25.000Z</time>
      </trkpt>
      <trkpt lat="45.90251" lon="2.98749">
        <ele>763.5</ele>
        <time>1970-01-01T02:59:26.000Z</time>
      </trkpt>
      <trkpt lat="45.90255" lon="2.98758">
        <ele>762.9</ele>
        <time>1970-01-01T02:59:27.000Z</time>
      </trkpt>
      <trkpt lat="45.90257" lon="2.98768">
        <ele>762.4</ele>
        <time>1970-01-01T02:59:28.000Z</time>
      </trkpt>
      <trkpt lat="45.9026" lon="2.98778">
        <ele>761.8</ele>
        <time>1970-01-01T02:59:29.000Z</time>
      </trkpt>
      <trkpt lat="45.90263" lon="2.98788">
        <ele>761.3</ele>
        <time>1970-01-01T02:59:30.000Z</time>
      </trkpt>
      <trkpt lat="45.90265" lon="2.98798">
        <ele>760.8</ele>
        <time>1970-01-01T02:59:31.000Z</time>
      </trkpt>
      <trkpt lat="45.90267" lon="2.98809">
        <ele>760.3</ele>
        <time>1970-01-01T02:59:32.000Z</time>
      </trkpt>
      <trkpt lat="45.90269" lon="2.98821">
        <ele>759.9</ele>
        <time>1970-01-01T02:59:33.000Z</time>
      </trkpt>
      <trkpt lat="45.90271" lon="2.98833">
        <ele>759.4</ele>
        <time>1970-01-01T02:59:34.000Z</time>
      </trkpt>
      <trkpt lat="45.90273" lon="2.98845">
        <ele>759</ele>
        <time>1970-01-01T02:59:35.000Z</time>
      </trkpt>
      <trkpt lat="45.90275" lon="2.98858">
        <ele>758.5</ele>
        <time>1970-01-01T02:59:36.000Z</time>
      </trkpt>
      <trkpt lat="45.90276" lon="2.9887">
        <ele>758.1</ele>
        <time>1970-01-01T02:59:37.000Z</time>
      </trkpt>
      <trkpt lat="45.90278" lon="2.98883">
        <ele>757.7</ele>
        <time>1970-01-01T02:59:38.000Z</time>
      </trkpt>
      <trkpt lat="45.90279" lon="2.98896">
        <ele>757.3</ele>
        <time>1970-01-01T02:59:39.000Z</time>
      </trkpt>
      <trkpt lat="45.90281" lon="2.98908">
        <ele>757</ele>
        <time>1970-01-01T02:59:40.000Z</time>
      </trkpt>
      <trkpt lat="45.90283" lon="2.9892">
        <ele>756.6</ele>
        <time>1970-01-01T02:59:41.000Z</time>
      </trkpt>
      <trkpt lat="45.90285" lon="2.98932">
        <ele>756.3</ele>
        <time>1970-01-01T02:59:42.000Z</time>
      </trkpt>
      <trkpt lat="45.90287" lon="2.98943">
        <ele>755.9</ele>
        <time>1970-01-01T02:59:43.000Z</time>
      </trkpt>
      <trkpt lat="45.90291" lon="2.98955">
        <ele>755.5</ele>
        <time>1970-01-01T02:59:44.000Z</time>
      </trkpt>
      <trkpt lat="45.90294" lon="2.98967">
        <ele>755.1</ele>
        <time>1970-01-01T02:59:45.000Z</time>
      </trkpt>
      <trkpt lat="45.90297" lon="2.98978">
        <ele>754.7</ele>
        <time>1970-01-01T02:59:46.000Z</time>
      </trkpt>
      <trkpt lat="45.90302" lon="2.98989">
        <ele>754.3</ele>
        <time>1970-01-01T02:59:47.000Z</time>
      </trkpt>
      <trkpt lat="45.90307" lon="2.99">
        <ele>753.9</ele>
        <time>1970-01-01T02:59:48.000Z</time>
      </trkpt>
      <trkpt lat="45.90312" lon="2.9901">
        <ele>753.5</ele>
        <time>1970-01-01T02:59:49.000Z</time>
      </trkpt>
      <trkpt lat="45.90317" lon="2.99021">
        <ele>753</ele>
        <time>1970-01-01T02:59:50.000Z</time>
      </trkpt>
      <trkpt lat="45.90322" lon="2.99031">
        <ele>752.6</ele>
        <time>1970-01-01T02:59:51.000Z</time>
      </trkpt>
      <trkpt lat="45.90328" lon="2.99041">
        <ele>752.1</ele>
        <time>1970-01-01T02:59:52.000Z</time>
      </trkpt>
      <trkpt lat="45.90333" lon="2.99051">
        <ele>751.5</ele>
        <time>1970-01-01T02:59:53.000Z</time>
      </trkpt>
      <trkpt lat="45.90338" lon="2.99061">
        <ele>750.9</ele>
        <time>1970-01-01T02:59:54.000Z</time>
      </trkpt>
      <trkpt lat="45.90344" lon="2.99073">
        <ele>750.1</ele>
        <time>1970-01-01T02:59:55.000Z</time>
      </trkpt>
      <trkpt lat="45.90349" lon="2.99085">
        <ele>749.3</ele>
        <time>1970-01-01T02:59:56.000Z</time>
      </trkpt>
      <trkpt lat="45.90355" lon="2.99097">
        <ele>748.5</ele>
        <time>1970-01-01T02:59:57.000Z</time>
      </trkpt>
      <trkpt lat="45.90361" lon="2.9911">
        <ele>747.7</ele>
        <time>1970-01-01T02:59:58.000Z</time>
      </trkpt>
      <trkpt lat="45.90366" lon="2.99122">
        <ele>747.1</ele>
        <time>1970-01-01T02:59:59.000Z</time>
      </trkpt>
      <trkpt lat="45.90371" lon="2.99135">
        <ele>746.5</ele>
        <time>1970-01-01T03:00:00.000Z</time>
      </trkpt>
      <trkpt lat="45.90375" lon="2.99148">
        <ele>745.9</ele>
        <time>1970-01-01T03:00:01.000Z</time>
      </trkpt>
      <trkpt lat="45.90379" lon="2.99162">
        <ele>745.4</ele>
        <time>1970-01-01T03:00:02.000Z</time>
      </trkpt>
      <trkpt lat="45.90383" lon="2.99175">
        <ele>744.8</ele>
        <time>1970-01-01T03:00:03.000Z</time>
      </trkpt>
      <trkpt lat="45.90386" lon="2.99189">
        <ele>744.3</ele>
        <time>1970-01-01T03:00:04.000Z</time>
      </trkpt>
      <trkpt lat="45.9039" lon="2.99202">
        <ele>743.8</ele>
        <time>1970-01-01T03:00:05.000Z</time>
      </trkpt>
      <trkpt lat="45.90394" lon="2.99216">
        <ele>743.3</ele>
        <time>1970-01-01T03:00:06.000Z</time>
      </trkpt>
      <trkpt lat="45.90397" lon="2.99229">
        <ele>742.8</ele>
        <time>1970-01-01T03:00:07.000Z</time>
      </trkpt>
      <trkpt lat="45.90401" lon="2.99242">
        <ele>742.2</ele>
        <time>1970-01-01T03:00:08.000Z</time>
      </trkpt>
      <trkpt lat="45.90405" lon="2.99255">
        <ele>741.7</ele>
        <time>1970-01-01T03:00:09.000Z</time>
      </trkpt>
      <trkpt lat="45.90409" lon="2.99268">
        <ele>741</ele>
        <time>1970-01-01T03:00:10.000Z</time>
      </trkpt>
      <trkpt lat="45.90412" lon="2.99281">
        <ele>740.4</ele>
        <time>1970-01-01T03:00:11.000Z</time>
      </trkpt>
      <trkpt lat="45.90415" lon="2.99292">
        <ele>739.6</ele>
        <time>1970-01-01T03:00:12.000Z</time>
      </trkpt>
      <trkpt lat="45.90419" lon="2.99303">
        <ele>738.8</ele>
        <time>1970-01-01T03:00:13.000Z</time>
      </trkpt>
      <trkpt lat="45.90423" lon="2.99314">
        <ele>737.8</ele>
        <time>1970-01-01T03:00:14.000Z</time>
      </trkpt>
      <trkpt lat="45.90427" lon="2.99326">
        <ele>736.9</ele>
        <time>1970-01-01T03:00:15.000Z</time>
      </trkpt>
      <trkpt lat="45.90433" lon="2.99336">
        <ele>735.8</ele>
        <time>1970-01-01T03:00:16.000Z</time>
      </trkpt>
      <trkpt lat="45.9044" lon="2.99346">
        <ele>734.9</ele>
        <time>1970-01-01T03:00:17.000Z</time>
      </trkpt>
      <trkpt lat="45.90446" lon="2.99355">
        <ele>734.1</ele>
        <time>1970-01-01T03:00:18.000Z</time>
      </trkpt>
      <trkpt lat="45.90451" lon="2.99364">
        <ele>733.4</ele>
        <time>1970-01-01T03:00:19.000Z</time>
      </trkpt>
      <trkpt lat="45.90456" lon="2.99373">
        <ele>732.8</ele>
        <time>1970-01-01T03:00:20.000Z</time>
      </trkpt>
      <trkpt lat="45.9046" lon="2.99381">
        <ele>732.1</ele>
        <time>1970-01-01T03:00:21.000Z</time>
      </trkpt>
      <trkpt lat="45.90466" lon="2.99389">
        <ele>731.4</ele>
        <time>1970-01-01T03:00:22.000Z</time>
      </trkpt>
      <trkpt lat="45.90472" lon="2.99396">
        <ele>730.6</ele>
        <time>1970-01-01T03:00:23.000Z</time>
      </trkpt>
      <trkpt lat="45.90478" lon="2.99403">
        <ele>729.8</ele>
        <time>1970-01-01T03:00:24.000Z</time>
      </trkpt>
      <trkpt lat="45.90485" lon="2.99409">
        <ele>728.9</ele>
        <time>1970-01-01T03:00:25.000Z</time>
      </trkpt>
      <trkpt lat="45.90491" lon="2.99416">
        <ele>728</ele>
        <time>1970-01-01T03:00:26.000Z</time>
      </trkpt>
      <trkpt lat="45.90497" lon="2.99425">
        <ele>727.1</ele>
        <time>1970-01-01T03:00:27.000Z</time>
      </trkpt>
      <trkpt lat="45.90502" lon="2.99434">
        <ele>726.2</ele>
        <time>1970-01-01T03:00:28.000Z</time>
      </trkpt>
      <trkpt lat="45.90507" lon="2.99444">
        <ele>725.3</ele>
        <time>1970-01-01T03:00:29.000Z</time>
      </trkpt>
      <trkpt lat="45.90511" lon="2.99454">
        <ele>724.4</ele>
        <time>1970-01-01T03:00:30.000Z</time>
      </trkpt>
      <trkpt lat="45.90516" lon="2.99466">
        <ele>723.7</ele>
        <time>1970-01-01T03:00:31.000Z</time>
      </trkpt>
      <trkpt lat="45.90522" lon="2.99476">
        <ele>723</ele>
        <time>1970-01-01T03:00:32.000Z</time>
      </trkpt>
      <trkpt lat="45.9053" lon="2.99485">
        <ele>722.5</ele>
        <time>1970-01-01T03:00:33.000Z</time>
      </trkpt>
      <trkpt lat="45.90537" lon="2.99495">
        <ele>722.1</ele>
        <time>1970-01-01T03:00:34.000Z</time>
      </trkpt>
      <trkpt lat="45.90543" lon="2.99505">
        <ele>721.9</ele>
        <time>1970-01-01T03:00:35.000Z</time>
      </trkpt>
      <trkpt lat="45.90548" lon="2.99514">
        <ele>721.8</ele>
        <time>1970-01-01T03:00:36.000Z</time>
      </trkpt>
      <trkpt lat="45.90552" lon="2.99523">
        <ele>721.7</ele>
        <time>1970-01-01T03:00:37.000Z</time>
      </trkpt>
      <trkpt lat="45.90554" lon="2.9953">
        <ele>721.6</ele>
        <time>1970-01-01T03:00:38.000Z</time>
      </trkpt>
      <trkpt lat="45.90554" lon="2.99534">
        <ele>721.5</ele>
        <time>1970-01-01T03:00:39.000Z</time>
      </trkpt>
      <trkpt lat="45.90555" lon="2.99539">
        <ele>721.5</ele>
        <time>1970-01-01T03:00:40.000Z</time>
      </trkpt>
      <trkpt lat="45.90556" lon="2.99543">
        <ele>721.4</ele>
        <time>1970-01-01T03:00:41.000Z</time>
      </trkpt>
      <trkpt lat="45.90557" lon="2.99547">
        <ele>721.4</ele>
        <time>1970-01-01T03:00:42.000Z</time>
      </trkpt>
      <trkpt lat="45.90557" lon="2.99547">
        <ele>721.4</ele>
        <time>1970-01-01T03:00:43.000Z</time>
      </trkpt>
      <trkpt lat="45.90558" lon="2.99548">
        <ele>721.4</ele>
        <time>1970-01-01T03:00:44.000Z</time>
      </trkpt>
      <trkpt lat="45.90558" lon="2.99548">
        <ele>721.4</ele>
        <time>1970-01-01T03:00:45.000Z</time>
      </trkpt>
      <trkpt lat="45.90558" lon="2.99548">
        <ele>721.4</ele>
        <time>1970-01-01T03:00:47.000Z</time>
      </trkpt>
      <trkpt lat="45.90558" lon="2.99548">
        <ele>721.4</ele>
        <time>1970-01-01T03:00:48.000Z</time>
      </trkpt>
      <trkpt lat="45.90558" lon="2.99548">
        <ele>721.4</ele>
        <time>1970-01-01T03:00:49.000Z</time>
      </trkpt>
      <trkpt lat="45.90558" lon="2.99548">
        <ele>721.4</ele>
        <time>1970-01-01T03:00:50.000Z</time>
      </trkpt>
      <trkpt lat="45.90558" lon="2.99548">
        <ele>721.4</ele>
        <time>1970-01-01T03:00:51.000Z</time>
      </trkpt>
      <trkpt lat="45.90558" lon="2.99548">
        <ele>721.4</ele>
        <time>1970-01-01T03:00:52.000Z</time>
      </trkpt>
      <trkpt lat="45.90558" lon="2.99548">
        <ele>721.4</ele>
        <time>1970-01-01T03:00:53.000Z</time>
      </trkpt>
      <trkpt lat="45.90558" lon="2.99548">
        <ele>721.4</ele>
        <time>1970-01-01T03:00:54.000Z</time>
      </trkpt>
      <trkpt lat="45.90558" lon="2.99548">
        <ele>721.4</ele>
        <time>1970-01-01T03:00:55.000Z</time>
      </trkpt>
      <trkpt lat="45.90558" lon="2.99553">
        <ele>721.4</ele>
        <time>1970-01-01T03:13:02.000Z</time>
      </trkpt>
      <trkpt lat="45.90557" lon="2.99555">
        <ele>721.3</ele>
        <time>1970-01-01T03:13:03.000Z</time>
      </trkpt>
      <trkpt lat="45.90557" lon="2.99555">
        <ele>721.3</ele>
        <time>1970-01-01T03:13:04.000Z</time>
      </trkpt>
      <trkpt lat="45.90556" lon="2.99556">
        <ele>721.3</ele>
        <time>1970-01-01T03:13:05.000Z</time>
      </trkpt>
      <trkpt lat="45.90556" lon="2.99556">
        <ele>721.3</ele>
        <time>1970-01-01T03:13:06.000Z</time>
      </trkpt>
      <trkpt lat="45.90555" lon="2.99558">
        <ele>721.3</ele>
        <time>1970-01-01T03:13:08.000Z</time>
      </trkpt>
      <trkpt lat="45.90554" lon="2.99559">
        <ele>721.3</ele>
        <time>1970-01-01T03:13:09.000Z</time>
      </trkpt>
      <trkpt lat="45.90553" lon="2.99561">
        <ele>721.3</ele>
        <time>1970-01-01T03:13:11.000Z</time>
      </trkpt>
      <trkpt lat="45.90553" lon="2.99562">
        <ele>721.3</ele>
        <time>1970-01-01T03:13:12.000Z</time>
      </trkpt>
      <trkpt lat="45.90553" lon="2.99563">
        <ele>721.3</ele>
        <time>1970-01-01T03:13:13.000Z</time>
      </trkpt>
      <trkpt lat="45.90554" lon="2.99563">
        <ele>721.3</ele>
        <time>1970-01-01T03:13:14.000Z</time>
      </trkpt>
      <trkpt lat="45.90555" lon="2.99563">
        <ele>721.3</ele>
        <time>1970-01-01T03:13:15.000Z</time>
      </trkpt>
      <trkpt lat="45.90556" lon="2.99565">
        <ele>721.3</ele>
        <time>1970-01-01T03:13:17.000Z</time>
      </trkpt>
      <trkpt lat="45.90555" lon="2.99567">
        <ele>721.3</ele>
        <time>1970-01-01T03:13:18.000Z</time>
      </trkpt>
      <trkpt lat="45.90555" lon="2.99568">
        <ele>721.3</ele>
        <time>1970-01-01T03:13:19.000Z</time>
      </trkpt>
      <trkpt lat="45.90556" lon="2.99569">
        <ele>721.3</ele>
        <time>1970-01-01T03:13:20.000Z</time>
      </trkpt>
      <trkpt lat="45.90556" lon="2.9957">
        <ele>721.3</ele>
        <time>1970-01-01T03:13:21.000Z</time>
      </trkpt>
      <trkpt lat="45.90555" lon="2.99571">
        <ele>721.3</ele>
        <time>1970-01-01T03:13:22.000Z</time>
      </trkpt>
      <trkpt lat="45.90555" lon="2.99571">
        <ele>721.3</ele>
        <time>1970-01-01T03:13:23.000Z</time>
      </trkpt>
      <trkpt lat="45.90554" lon="2.99571">
        <ele>721.3</ele>
        <time>1970-01-01T03:13:24.000Z</time>
      </trkpt>
      <trkpt lat="45.90553" lon="2.9957">
        <ele>721.3</ele>
        <time>1970-01-01T03:13:25.000Z</time>
      </trkpt>
      <trkpt lat="45.90553" lon="2.99569">
        <ele>721.3</ele>
        <time>1970-01-01T03:13:26.000Z</time>
      </trkpt>
      <trkpt lat="45.90553" lon="2.99569">
        <ele>721.3</ele>
        <time>1970-01-01T03:13:27.000Z</time>
      </trkpt>
      <trkpt lat="45.90553" lon="2.99569">
        <ele>721.3</ele>
        <time>1970-01-01T03:13:28.000Z</time>
      </trkpt>
      <trkpt lat="45.90553" lon="2.99568">
        <ele>721.3</ele>
        <time>1970-01-01T03:13:29.000Z</time>
      </trkpt>
      <trkpt lat="45.90553" lon="2.99568">
        <ele>721.3</ele>
        <time>1970-01-01T03:13:30.000Z</time>
      </trkpt>
      <trkpt lat="45.90553" lon="2.99568">
        <ele>721.3</ele>
        <time>1970-01-01T03:13:31.000Z</time>
      </trkpt>
      <trkpt lat="45.90553" lon="2.99568">
        <ele>721.3</ele>
        <time>1970-01-01T03:13:32.000Z</time>
      </trkpt>
      <trkpt lat="45.90554" lon="2.99568">
        <ele>721.3</ele>
        <time>1970-01-01T03:13:34.000Z</time>
      </trkpt>
      <trkpt lat="45.90554" lon="2.99569">
        <ele>721.3</ele>
        <time>1970-01-01T03:13:35.000Z</time>
      </trkpt>
      <trkpt lat="45.90555" lon="2.99569">
        <ele>721.3</ele>
        <time>1970-01-01T03:13:36.000Z</time>
      </trkpt>
      <trkpt lat="45.90555" lon="2.99569">
        <ele>721.3</ele>
        <time>1970-01-01T03:13:37.000Z</time>
      </trkpt>
      <trkpt lat="45.90556" lon="2.99567">
        <ele>721.3</ele>
        <time>1970-01-01T03:13:38.000Z</time>
      </trkpt>
      <trkpt lat="45.90556" lon="2.99567">
        <ele>721.3</ele>
        <time>1970-01-01T03:13:39.000Z</time>
      </trkpt>
      <trkpt lat="45.90556" lon="2.99567">
        <ele>721.3</ele>
        <time>1970-01-01T03:13:40.000Z</time>
      </trkpt>
      <trkpt lat="45.90556" lon="2.99567">
        <ele>721.3</ele>
        <time>1970-01-01T03:13:41.000Z</time>
      </trkpt>
      <trkpt lat="45.90556" lon="2.99567">
        <ele>721.3</ele>
        <time>1970-01-01T03:13:42.000Z</time>
      </trkpt>
      <trkpt lat="45.90557" lon="2.99567">
        <ele>721.3</ele>
        <time>1970-01-01T03:13:43.000Z</time>
      </trkpt>
      <trkpt lat="45.90557" lon="2.99566">
        <ele>721.3</ele>
        <time>1970-01-01T03:13:44.000Z</time>
      </trkpt>
      <trkpt lat="45.90558" lon="2.99565">
        <ele>721.3</ele>
        <time>1970-01-01T03:13:46.000Z</time>
      </trkpt>
      <trkpt lat="45.90558" lon="2.99563">
        <ele>721.3</ele>
        <time>1970-01-01T03:13:47.000Z</time>
      </trkpt>
      <trkpt lat="45.90558" lon="2.99562">
        <ele>721.3</ele>
        <time>1970-01-01T03:13:48.000Z</time>
      </trkpt>
      <trkpt lat="45.90557" lon="2.9956">
        <ele>721.3</ele>
        <time>1970-01-01T03:13:49.000Z</time>
      </trkpt>
      <trkpt lat="45.90558" lon="2.99558">
        <ele>721.3</ele>
        <time>1970-01-01T03:13:50.000Z</time>
      </trkpt>
      <trkpt lat="45.90558" lon="2.99557">
        <ele>721.3</ele>
        <time>1970-01-01T03:13:51.000Z</time>
      </trkpt>
      <trkpt lat="45.90558" lon="2.99555">
        <ele>721.3</ele>
        <time>1970-01-01T03:13:53.000Z</time>
      </trkpt>
      <trkpt lat="45.90558" lon="2.99553">
        <ele>721.3</ele>
        <time>1970-01-01T03:13:54.000Z</time>
      </trkpt>
      <trkpt lat="45.90558" lon="2.9955">
        <ele>721.3</ele>
        <time>1970-01-01T03:13:56.000Z</time>
      </trkpt>
      <trkpt lat="45.90558" lon="2.99549">
        <ele>721.3</ele>
        <time>1970-01-01T03:13:57.000Z</time>
      </trkpt>
      <trkpt lat="45.90558" lon="2.99548">
        <ele>721.3</ele>
        <time>1970-01-01T03:13:58.000Z</time>
      </trkpt>
      <trkpt lat="45.90559" lon="2.99548">
        <ele>721.3</ele>
        <time>1970-01-01T03:13:59.000Z</time>
      </trkpt>
      <trkpt lat="45.9056" lon="2.99548">
        <ele>721.3</ele>
        <time>1970-01-01T03:14:00.000Z</time>
      </trkpt>
      <trkpt lat="45.9056" lon="2.99548">
        <ele>721.3</ele>
        <time>1970-01-01T03:14:01.000Z</time>
      </trkpt>
      <trkpt lat="45.9056" lon="2.99548">
        <ele>721.3</ele>
        <time>1970-01-01T03:14:02.000Z</time>
      </trkpt>
      <trkpt lat="45.90559" lon="2.99548">
        <ele>721.3</ele>
        <time>1970-01-01T03:14:03.000Z</time>
      </trkpt>
      <trkpt lat="45.90559" lon="2.99548">
        <ele>721.3</ele>
        <time>1970-01-01T03:14:04.000Z</time>
      </trkpt>
      <trkpt lat="45.90559" lon="2.99548">
        <ele>721.3</ele>
        <time>1970-01-01T03:14:05.000Z</time>
      </trkpt>
      <trkpt lat="45.90559" lon="2.99548">
        <ele>721.3</ele>
        <time>1970-01-01T03:14:06.000Z</time>
      </trkpt>
      <trkpt lat="45.90559" lon="2.99548">
        <ele>721.3</ele>
        <time>1970-01-01T03:14:07.000Z</time>
      </trkpt>
      <trkpt lat="45.90559" lon="2.99548">
        <ele>721.3</ele>
        <time>1970-01-01T03:14:08.000Z</time>
      </trkpt>
      <trkpt lat="45.90559" lon="2.99548">
        <ele>721.3</ele>
        <time>1970-01-01T03:14:09.000Z</time>
      </trkpt>
      <trkpt lat="45.90559" lon="2.99548">
        <ele>721.3</ele>
        <time>1970-01-01T03:14:10.000Z</time>
      </trkpt>
      <trkpt lat="45.90557" lon="2.99552">
        <ele>721.3</ele>
        <time>1970-01-01T03:16:26.000Z</time>
      </trkpt>
      <trkpt lat="45.90557" lon="2.99553">
        <ele>721.4</ele>
        <time>1970-01-01T03:16:27.000Z</time>
      </trkpt>
      <trkpt lat="45.90556" lon="2.99555">
        <ele>721.4</ele>
        <time>1970-01-01T03:16:28.000Z</time>
      </trkpt>
      <trkpt lat="45.90557" lon="2.99556">
        <ele>721.4</ele>
        <time>1970-01-01T03:16:30.000Z</time>
      </trkpt>
      <trkpt lat="45.90555" lon="2.9956">
        <ele>721.4</ele>
        <time>1970-01-01T03:16:31.000Z</time>
      </trkpt>
      <trkpt lat="45.90555" lon="2.99563">
        <ele>721.4</ele>
        <time>1970-01-01T03:16:32.000Z</time>
      </trkpt>
      <trkpt lat="45.90555" lon="2.99565">
        <ele>721.4</ele>
        <time>1970-01-01T03:16:33.000Z</time>
      </trkpt>
      <trkpt lat="45.90555" lon="2.99569">
        <ele>721.4</ele>
        <time>1970-01-01T03:16:34.000Z</time>
      </trkpt>
      <trkpt lat="45.90556" lon="2.99571">
        <ele>721.4</ele>
        <time>1970-01-01T03:16:35.000Z</time>
      </trkpt>
      <trkpt lat="45.90556" lon="2.99574">
        <ele>721.5</ele>
        <time>1970-01-01T03:16:37.000Z</time>
      </trkpt>
      <trkpt lat="45.90556" lon="2.9958">
        <ele>721.5</ele>
        <time>1970-01-01T03:16:39.000Z</time>
      </trkpt>
      <trkpt lat="45.90557" lon="2.99584">
        <ele>721.5</ele>
        <time>1970-01-01T03:16:40.000Z</time>
      </trkpt>
      <trkpt lat="45.90557" lon="2.99585">
        <ele>721.5</ele>
        <time>1970-01-01T03:16:41.000Z</time>
      </trkpt>
      <trkpt lat="45.90558" lon="2.99589">
        <ele>721.6</ele>
        <time>1970-01-01T03:16:42.000Z</time>
      </trkpt>
      <trkpt lat="45.90558" lon="2.99591">
        <ele>721.6</ele>
        <time>1970-01-01T03:16:43.000Z</time>
      </trkpt>
      <trkpt lat="45.90559" lon="2.99596">
        <ele>721.6</ele>
        <time>1970-01-01T03:16:44.000Z</time>
      </trkpt>
      <trkpt lat="45.90559" lon="2.99598">
        <ele>721.6</ele>
        <time>1970-01-01T03:16:45.000Z</time>
      </trkpt>
      <trkpt lat="45.90559" lon="2.99607">
        <ele>721.7</ele>
        <time>1970-01-01T03:16:47.000Z</time>
      </trkpt>
      <trkpt lat="45.9056" lon="2.99611">
        <ele>721.7</ele>
        <time>1970-01-01T03:16:49.000Z</time>
      </trkpt>
      <trkpt lat="45.90561" lon="2.99617">
        <ele>721.8</ele>
        <time>1970-01-01T03:16:50.000Z</time>
      </trkpt>
      <trkpt lat="45.90561" lon="2.99624">
        <ele>721.8</ele>
        <time>1970-01-01T03:16:52.000Z</time>
      </trkpt>
      <trkpt lat="45.9056" lon="2.99626">
        <ele>721.9</ele>
        <time>1970-01-01T03:16:53.000Z</time>
      </trkpt>
      <trkpt lat="45.9056" lon="2.99628">
        <ele>721.9</ele>
        <time>1970-01-01T03:16:54.000Z</time>
      </trkpt>
      <trkpt lat="45.90559" lon="2.99633">
        <ele>721.9</ele>
        <time>1970-01-01T03:16:55.000Z</time>
      </trkpt>
      <trkpt lat="45.90559" lon="2.99635">
        <ele>721.9</ele>
        <time>1970-01-01T03:16:56.000Z</time>
      </trkpt>
      <trkpt lat="45.9056" lon="2.9964">
        <ele>721.9</ele>
        <time>1970-01-01T03:16:57.000Z</time>
      </trkpt>
      <trkpt lat="45.9056" lon="2.99641">
        <ele>721.9</ele>
        <time>1970-01-01T03:16:58.000Z</time>
      </trkpt>
      <trkpt lat="45.9056" lon="2.99645">
        <ele>721.9</ele>
        <time>1970-01-01T03:16:59.000Z</time>
      </trkpt>
      <trkpt lat="45.90561" lon="2.9965">
        <ele>721.9</ele>
        <time>1970-01-01T03:17:00.000Z</time>
      </trkpt>
      <trkpt lat="45.90562" lon="2.99654">
        <ele>721.9</ele>
        <time>1970-01-01T03:17:01.000Z</time>
      </trkpt>
      <trkpt lat="45.90563" lon="2.99659">
        <ele>721.9</ele>
        <time>1970-01-01T03:17:02.000Z</time>
      </trkpt>
      <trkpt lat="45.90564" lon="2.99663">
        <ele>721.8</ele>
        <time>1970-01-01T03:17:03.000Z</time>
      </trkpt>
      <trkpt lat="45.90564" lon="2.99667">
        <ele>721.8</ele>
        <time>1970-01-01T03:17:04.000Z</time>
      </trkpt>
      <trkpt lat="45.90564" lon="2.99671">
        <ele>721.8</ele>
        <time>1970-01-01T03:17:05.000Z</time>
      </trkpt>
      <trkpt lat="45.90562" lon="2.99675">
        <ele>721.8</ele>
        <time>1970-01-01T03:17:06.000Z</time>
      </trkpt>
      <trkpt lat="45.90562" lon="2.99677">
        <ele>721.8</ele>
        <time>1970-01-01T03:17:07.000Z</time>
      </trkpt>
      <trkpt lat="45.90563" lon="2.99681">
        <ele>721.8</ele>
        <time>1970-01-01T03:17:08.000Z</time>
      </trkpt>
      <trkpt lat="45.90562" lon="2.99685">
        <ele>721.6</ele>
        <time>1970-01-01T03:17:09.000Z</time>
      </trkpt>
      <trkpt lat="45.90561" lon="2.9969">
        <ele>721.4</ele>
        <time>1970-01-01T03:17:10.000Z</time>
      </trkpt>
      <trkpt lat="45.90559" lon="2.99696">
        <ele>721.2</ele>
        <time>1970-01-01T03:17:11.000Z</time>
      </trkpt>
      <trkpt lat="45.90557" lon="2.997">
        <ele>721.1</ele>
        <time>1970-01-01T03:17:12.000Z</time>
      </trkpt>
      <trkpt lat="45.90556" lon="2.99713">
        <ele>720.8</ele>
        <time>1970-01-01T03:17:14.000Z</time>
      </trkpt>
      <trkpt lat="45.90556" lon="2.9972">
        <ele>720.6</ele>
        <time>1970-01-01T03:17:15.000Z</time>
      </trkpt>
      <trkpt lat="45.90556" lon="2.99727">
        <ele>720.4</ele>
        <time>1970-01-01T03:17:16.000Z</time>
      </trkpt>
      <trkpt lat="45.90556" lon="2.99734">
        <ele>720.2</ele>
        <time>1970-01-01T03:17:17.000Z</time>
      </trkpt>
      <trkpt lat="45.90556" lon="2.99741">
        <ele>720</ele>
        <time>1970-01-01T03:17:18.000Z</time>
      </trkpt>
      <trkpt lat="45.90557" lon="2.99748">
        <ele>719.9</ele>
        <time>1970-01-01T03:17:19.000Z</time>
      </trkpt>
      <trkpt lat="45.90557" lon="2.99756">
        <ele>719.8</ele>
        <time>1970-01-01T03:17:20.000Z</time>
      </trkpt>
      <trkpt lat="45.90557" lon="2.99763">
        <ele>719.7</ele>
        <time>1970-01-01T03:17:21.000Z</time>
      </trkpt>
      <trkpt lat="45.90556" lon="2.9977">
        <ele>719.6</ele>
        <time>1970-01-01T03:17:22.000Z</time>
      </trkpt>
      <trkpt lat="45.90556" lon="2.99777">
        <ele>719.5</ele>
        <time>1970-01-01T03:17:23.000Z</time>
      </trkpt>
      <trkpt lat="45.90556" lon="2.99783">
        <ele>719.4</ele>
        <time>1970-01-01T03:17:24.000Z</time>
      </trkpt>
      <trkpt lat="45.90556" lon="2.9979">
        <ele>719.3</ele>
        <time>1970-01-01T03:17:25.000Z</time>
      </trkpt>
      <trkpt lat="45.90556" lon="2.99795">
        <ele>719.2</ele>
        <time>1970-01-01T03:17:26.000Z</time>
      </trkpt>
      <trkpt lat="45.90556" lon="2.99803">
        <ele>719.1</ele>
        <time>1970-01-01T03:17:27.000Z</time>
      </trkpt>
      <trkpt lat="45.90557" lon="2.99809">
        <ele>719.1</ele>
        <time>1970-01-01T03:17:28.000Z</time>
      </trkpt>
      <trkpt lat="45.90558" lon="2.99815">
        <ele>719</ele>
        <time>1970-01-01T03:17:29.000Z</time>
      </trkpt>
      <trkpt lat="45.9056" lon="2.99818">
        <ele>719</ele>
        <time>1970-01-01T03:17:30.000Z</time>
      </trkpt>
      <trkpt lat="45.90564" lon="2.99821">
        <ele>719</ele>
        <time>1970-01-01T03:17:31.000Z</time>
      </trkpt>
      <trkpt lat="45.90565" lon="2.99814">
        <ele>719</ele>
        <time>1970-01-01T03:17:32.000Z</time>
      </trkpt>
      <trkpt lat="45.9057" lon="2.9982">
        <ele>719.4</ele>
        <time>1970-01-01T03:17:33.000Z</time>
      </trkpt>
      <trkpt lat="45.90575" lon="2.99825">
        <ele>718.5</ele>
        <time>1970-01-01T03:17:35.000Z</time>
      </trkpt>
      <trkpt lat="45.9058" lon="2.99827">
        <ele>719.3</ele>
        <time>1970-01-01T03:17:36.000Z</time>
      </trkpt>
      <trkpt lat="45.90583" lon="2.99828">
        <ele>719.3</ele>
        <time>1970-01-01T03:17:37.000Z</time>
      </trkpt>
      <trkpt lat="45.90587" lon="2.99829">
        <ele>719.3</ele>
        <time>1970-01-01T03:17:38.000Z</time>
      </trkpt>
      <trkpt lat="45.90591" lon="2.9983">
        <ele>720.3</ele>
        <time>1970-01-01T03:17:40.000Z</time>
      </trkpt>
      <trkpt lat="45.90595" lon="2.99831">
        <ele>720.3</ele>
        <time>1970-01-01T03:17:41.000Z</time>
      </trkpt>
      <trkpt lat="45.90598" lon="2.99831">
        <ele>720.3</ele>
        <time>1970-01-01T03:17:42.000Z</time>
      </trkpt>
      <trkpt lat="45.90601" lon="2.99833">
        <ele>720.3</ele>
        <time>1970-01-01T03:17:43.000Z</time>
      </trkpt>
      <trkpt lat="45.90605" lon="2.99834">
        <ele>721.1</ele>
        <time>1970-01-01T03:17:45.000Z</time>
      </trkpt>
      <trkpt lat="45.90608" lon="2.99834">
        <ele>721.2</ele>
        <time>1970-01-01T03:17:46.000Z</time>
      </trkpt>
      <trkpt lat="45.90613" lon="2.99835">
        <ele>721.2</ele>
        <time>1970-01-01T03:17:47.000Z</time>
      </trkpt>
      <trkpt lat="45.90615" lon="2.99836">
        <ele>722</ele>
        <time>1970-01-01T03:17:48.000Z</time>
      </trkpt>
      <trkpt lat="45.90618" lon="2.99838">
        <ele>722</ele>
        <time>1970-01-01T03:17:49.000Z</time>
      </trkpt>
      <trkpt lat="45.9062" lon="2.99838">
        <ele>722</ele>
        <time>1970-01-01T03:17:50.000Z</time>
      </trkpt>
      <trkpt lat="45.90623" lon="2.99838">
        <ele>722.1</ele>
        <time>1970-01-01T03:17:52.000Z</time>
      </trkpt>
      <trkpt lat="45.90626" lon="2.99838">
        <ele>722.8</ele>
        <time>1970-01-01T03:17:53.000Z</time>
      </trkpt>
      <trkpt lat="45.90629" lon="2.99838">
        <ele>722.8</ele>
        <time>1970-01-01T03:17:54.000Z</time>
      </trkpt>
      <trkpt lat="45.90632" lon="2.99838">
        <ele>722.8</ele>
        <time>1970-01-01T03:17:55.000Z</time>
      </trkpt>
      <trkpt lat="45.90635" lon="2.99839">
        <ele>722.8</ele>
        <time>1970-01-01T03:17:56.000Z</time>
      </trkpt>
      <trkpt lat="45.90638" lon="2.99839">
        <ele>723.7</ele>
        <time>1970-01-01T03:17:58.000Z</time>
      </trkpt>
      <trkpt lat="45.90643" lon="2.99838">
        <ele>723.7</ele>
        <time>1970-01-01T03:17:59.000Z</time>
      </trkpt>
      <trkpt lat="45.90646" lon="2.99838">
        <ele>723.7</ele>
        <time>1970-01-01T03:18:01.000Z</time>
      </trkpt>
      <trkpt lat="45.90648" lon="2.99837">
        <ele>723.8</ele>
        <time>1970-01-01T03:18:02.000Z</time>
      </trkpt>
      <trkpt lat="45.90651" lon="2.99837">
        <ele>724.6</ele>
        <time>1970-01-01T03:18:03.000Z</time>
      </trkpt>
      <trkpt lat="45.90652" lon="2.99837">
        <ele>724.6</ele>
        <time>1970-01-01T03:18:04.000Z</time>
      </trkpt>
      <trkpt lat="45.90655" lon="2.99835">
        <ele>724.6</ele>
        <time>1970-01-01T03:18:05.000Z</time>
      </trkpt>
      <trkpt lat="45.90656" lon="2.99835">
        <ele>724.6</ele>
        <time>1970-01-01T03:18:06.000Z</time>
      </trkpt>
      <trkpt lat="45.9066" lon="2.99833">
        <ele>724.7</ele>
        <time>1970-01-01T03:18:07.000Z</time>
      </trkpt>
      <trkpt lat="45.90661" lon="2.99833">
        <ele>725.6</ele>
        <time>1970-01-01T03:18:08.000Z</time>
      </trkpt>
      <trkpt lat="45.90666" lon="2.99831">
        <ele>725.6</ele>
        <time>1970-01-01T03:18:10.000Z</time>
      </trkpt>
      <trkpt lat="45.90668" lon="2.99831">
        <ele>725.6</ele>
        <time>1970-01-01T03:18:11.000Z</time>
      </trkpt>
      <trkpt lat="45.90669" lon="2.99831">
        <ele>725.7</ele>
        <time>1970-01-01T03:18:12.000Z</time>
      </trkpt>
      <trkpt lat="45.90673" lon="2.99832">
        <ele>725.7</ele>
        <time>1970-01-01T03:18:13.000Z</time>
      </trkpt>
      <trkpt lat="45.90674" lon="2.99833">
        <ele>725.7</ele>
        <time>1970-01-01T03:18:14.000Z</time>
      </trkpt>
      <trkpt lat="45.90678" lon="2.99834">
        <ele>725.8</ele>
        <time>1970-01-01T03:18:15.000Z</time>
      </trkpt>
      <trkpt lat="45.90679" lon="2.99835">
        <ele>725.8</ele>
        <time>1970-01-01T03:18:16.000Z</time>
      </trkpt>
      <trkpt lat="45.90683" lon="2.99836">
        <ele>725.8</ele>
        <time>1970-01-01T03:18:17.000Z</time>
      </trkpt>
      <trkpt lat="45.90686" lon="2.99836">
        <ele>725.9</ele>
        <time>1970-01-01T03:18:18.000Z</time>
      </trkpt>
      <trkpt lat="45.90689" lon="2.99837">
        <ele>725.9</ele>
        <time>1970-01-01T03:18:20.000Z</time>
      </trkpt>
      <trkpt lat="45.90692" lon="2.99838">
        <ele>726</ele>
        <time>1970-01-01T03:18:21.000Z</time>
      </trkpt>
      <trkpt lat="45.90696" lon="2.99838">
        <ele>726</ele>
        <time>1970-01-01T03:18:22.000Z</time>
      </trkpt>
      <trkpt lat="45.90697" lon="2.99838">
        <ele>726.1</ele>
        <time>1970-01-01T03:18:23.000Z</time>
      </trkpt>
      <trkpt lat="45.90698" lon="2.99838">
        <ele>726.1</ele>
        <time>1970-01-01T03:18:24.000Z</time>
      </trkpt>
      <trkpt lat="45.90701" lon="2.99837">
        <ele>726.1</ele>
        <time>1970-01-01T03:18:26.000Z</time>
      </trkpt>
      <trkpt lat="45.90704" lon="2.99836">
        <ele>726.2</ele>
        <time>1970-01-01T03:18:27.000Z</time>
      </trkpt>
      <trkpt lat="45.90705" lon="2.99835">
        <ele>726.2</ele>
        <time>1970-01-01T03:18:28.000Z</time>
      </trkpt>
      <trkpt lat="45.90708" lon="2.99836">
        <ele>726.3</ele>
        <time>1970-01-01T03:18:29.000Z</time>
      </trkpt>
      <trkpt lat="45.90709" lon="2.99836">
        <ele>726.3</ele>
        <time>1970-01-01T03:18:30.000Z</time>
      </trkpt>
      <trkpt lat="45.90712" lon="2.99839">
        <ele>726.4</ele>
        <time>1970-01-01T03:18:31.000Z</time>
      </trkpt>
      <trkpt lat="45.90714" lon="2.99841">
        <ele>726.4</ele>
        <time>1970-01-01T03:18:32.000Z</time>
      </trkpt>
      <trkpt lat="45.90718" lon="2.99844">
        <ele>726.5</ele>
        <time>1970-01-01T03:18:33.000Z</time>
      </trkpt>
      <trkpt lat="45.90719" lon="2.99844">
        <ele>726.5</ele>
        <time>1970-01-01T03:18:34.000Z</time>
      </trkpt>
      <trkpt lat="45.90723" lon="2.99847">
        <ele>726.6</ele>
        <time>1970-01-01T03:18:36.000Z</time>
      </trkpt>
      <trkpt lat="45.90726" lon="2.99848">
        <ele>726.7</ele>
        <time>1970-01-01T03:18:37.000Z</time>
      </trkpt>
      <trkpt lat="45.90729" lon="2.99851">
        <ele>726.8</ele>
        <time>1970-01-01T03:18:38.000Z</time>
      </trkpt>
      <trkpt lat="45.90732" lon="2.99853">
        <ele>726.9</ele>
        <time>1970-01-01T03:18:39.000Z</time>
      </trkpt>
      <trkpt lat="45.90735" lon="2.99856">
        <ele>727</ele>
        <time>1970-01-01T03:18:40.000Z</time>
      </trkpt>
      <trkpt lat="45.90738" lon="2.99858">
        <ele>727</ele>
        <time>1970-01-01T03:18:41.000Z</time>
      </trkpt>
      <trkpt lat="45.90741" lon="2.9986">
        <ele>727.1</ele>
        <time>1970-01-01T03:18:42.000Z</time>
      </trkpt>
      <trkpt lat="45.90743" lon="2.99863">
        <ele>727.1</ele>
        <time>1970-01-01T03:18:43.000Z</time>
      </trkpt>
      <trkpt lat="45.90741" lon="2.99868">
        <ele>727</ele>
        <time>1970-01-01T03:18:44.000Z</time>
      </trkpt>
      <trkpt lat="45.90739" lon="2.99873">
        <ele>726.9</ele>
        <time>1970-01-01T03:18:45.000Z</time>
      </trkpt>
      <trkpt lat="45.90739" lon="2.99879">
        <ele>726.8</ele>
        <time>1970-01-01T03:18:46.000Z</time>
      </trkpt>
      <trkpt lat="45.90738" lon="2.99886">
        <ele>726.8</ele>
        <time>1970-01-01T03:18:47.000Z</time>
      </trkpt>
      <trkpt lat="45.90737" lon="2.99894">
        <ele>726.7</ele>
        <time>1970-01-01T03:18:48.000Z</time>
      </trkpt>
      <trkpt lat="45.90736" lon="2.999">
        <ele>726.6</ele>
        <time>1970-01-01T03:18:49.000Z</time>
      </trkpt>
      <trkpt lat="45.90735" lon="2.99907">
        <ele>726.5</ele>
        <time>1970-01-01T03:18:50.000Z</time>
      </trkpt>
      <trkpt lat="45.90734" lon="2.99914">
        <ele>726.3</ele>
        <time>1970-01-01T03:18:51.000Z</time>
      </trkpt>
      <trkpt lat="45.90732" lon="2.99921">
        <ele>726.2</ele>
        <time>1970-01-01T03:18:52.000Z</time>
      </trkpt>
      <trkpt lat="45.90731" lon="2.99928">
        <ele>726.1</ele>
        <time>1970-01-01T03:18:53.000Z</time>
      </trkpt>
      <trkpt lat="45.90729" lon="2.99935">
        <ele>726</ele>
        <time>1970-01-01T03:18:54.000Z</time>
      </trkpt>
      <trkpt lat="45.90727" lon="2.99942">
        <ele>725.8</ele>
        <time>1970-01-01T03:18:55.000Z</time>
      </trkpt>
      <trkpt lat="45.90725" lon="2.99949">
        <ele>725.7</ele>
        <time>1970-01-01T03:18:56.000Z</time>
      </trkpt>
      <trkpt lat="45.90723" lon="2.99956">
        <ele>725.5</ele>
        <time>1970-01-01T03:18:57.000Z</time>
      </trkpt>
      <trkpt lat="45.90722" lon="2.99963">
        <ele>725.4</ele>
        <time>1970-01-01T03:18:58.000Z</time>
      </trkpt>
      <trkpt lat="45.90721" lon="2.9997">
        <ele>725.1</ele>
        <time>1970-01-01T03:18:59.000Z</time>
      </trkpt>
      <trkpt lat="45.90721" lon="2.99977">
        <ele>724.7</ele>
        <time>1970-01-01T03:19:00.000Z</time>
      </trkpt>
      <trkpt lat="45.90722" lon="2.99985">
        <ele>724.4</ele>
        <time>1970-01-01T03:19:01.000Z</time>
      </trkpt>
      <trkpt lat="45.90724" lon="2.99994">
        <ele>724.1</ele>
        <time>1970-01-01T03:19:02.000Z</time>
      </trkpt>
      <trkpt lat="45.90726" lon="3.00002">
        <ele>723.7</ele>
        <time>1970-01-01T03:19:03.000Z</time>
      </trkpt>
      <trkpt lat="45.90729" lon="3.0001">
        <ele>723.4</ele>
        <time>1970-01-01T03:19:04.000Z</time>
      </trkpt>
      <trkpt lat="45.90733" lon="3.00019">
        <ele>723</ele>
        <time>1970-01-01T03:19:05.000Z</time>
      </trkpt>
      <trkpt lat="45.90736" lon="3.00027">
        <ele>722.6</ele>
        <time>1970-01-01T03:19:06.000Z</time>
      </trkpt>
      <trkpt lat="45.90741" lon="3.00034">
        <ele>722.3</ele>
        <time>1970-01-01T03:19:07.000Z</time>
      </trkpt>
      <trkpt lat="45.90744" lon="3.00043">
        <ele>721.9</ele>
        <time>1970-01-01T03:19:08.000Z</time>
      </trkpt>
      <trkpt lat="45.90748" lon="3.00052">
        <ele>721.6</ele>
        <time>1970-01-01T03:19:09.000Z</time>
      </trkpt>
      <trkpt lat="45.90751" lon="3.00062">
        <ele>721.4</ele>
        <time>1970-01-01T03:19:10.000Z</time>
      </trkpt>
      <trkpt lat="45.90754" lon="3.00073">
        <ele>721.2</ele>
        <time>1970-01-01T03:19:11.000Z</time>
      </trkpt>
      <trkpt lat="45.90756" lon="3.00083">
        <ele>721.1</ele>
        <time>1970-01-01T03:19:12.000Z</time>
      </trkpt>
      <trkpt lat="45.90758" lon="3.00093">
        <ele>721</ele>
        <time>1970-01-01T03:19:13.000Z</time>
      </trkpt>
      <trkpt lat="45.9076" lon="3.00102">
        <ele>721</ele>
        <time>1970-01-01T03:19:14.000Z</time>
      </trkpt>
      <trkpt lat="45.90761" lon="3.00111">
        <ele>720.9</ele>
        <time>1970-01-01T03:19:15.000Z</time>
      </trkpt>
      <trkpt lat="45.90763" lon="3.0012">
        <ele>720.9</ele>
        <time>1970-01-01T03:19:16.000Z</time>
      </trkpt>
      <trkpt lat="45.90763" lon="3.00128">
        <ele>720.9</ele>
        <time>1970-01-01T03:19:17.000Z</time>
      </trkpt>
      <trkpt lat="45.90762" lon="3.00136">
        <ele>720.9</ele>
        <time>1970-01-01T03:19:18.000Z</time>
      </trkpt>
      <trkpt lat="45.9076" lon="3.00144">
        <ele>720.8</ele>
        <time>1970-01-01T03:19:19.000Z</time>
      </trkpt>
      <trkpt lat="45.90757" lon="3.0015">
        <ele>720.7</ele>
        <time>1970-01-01T03:19:20.000Z</time>
      </trkpt>
      <trkpt lat="45.90755" lon="3.00157">
        <ele>720.7</ele>
        <time>1970-01-01T03:19:21.000Z</time>
      </trkpt>
      <trkpt lat="45.90752" lon="3.00164">
        <ele>720.6</ele>
        <time>1970-01-01T03:19:22.000Z</time>
      </trkpt>
      <trkpt lat="45.90749" lon="3.00171">
        <ele>720.6</ele>
        <time>1970-01-01T03:19:23.000Z</time>
      </trkpt>
      <trkpt lat="45.90747" lon="3.00178">
        <ele>720.5</ele>
        <time>1970-01-01T03:19:24.000Z</time>
      </trkpt>
      <trkpt lat="45.90745" lon="3.00186">
        <ele>720.4</ele>
        <time>1970-01-01T03:19:25.000Z</time>
      </trkpt>
      <trkpt lat="45.90743" lon="3.00194">
        <ele>720.3</ele>
        <time>1970-01-01T03:19:26.000Z</time>
      </trkpt>
      <trkpt lat="45.90743" lon="3.00202">
        <ele>720.2</ele>
        <time>1970-01-01T03:19:27.000Z</time>
      </trkpt>
      <trkpt lat="45.90742" lon="3.0021">
        <ele>720.1</ele>
        <time>1970-01-01T03:19:28.000Z</time>
      </trkpt>
      <trkpt lat="45.90741" lon="3.00218">
        <ele>720</ele>
        <time>1970-01-01T03:19:29.000Z</time>
      </trkpt>
      <trkpt lat="45.9074" lon="3.00226">
        <ele>719.8</ele>
        <time>1970-01-01T03:19:30.000Z</time>
      </trkpt>
      <trkpt lat="45.90739" lon="3.00235">
        <ele>719.7</ele>
        <time>1970-01-01T03:19:31.000Z</time>
      </trkpt>
      <trkpt lat="45.90738" lon="3.00243">
        <ele>719.5</ele>
        <time>1970-01-01T03:19:32.000Z</time>
      </trkpt>
      <trkpt lat="45.90737" lon="3.00252">
        <ele>719.3</ele>
        <time>1970-01-01T03:19:33.000Z</time>
      </trkpt>
      <trkpt lat="45.90736" lon="3.00261">
        <ele>719.1</ele>
        <time>1970-01-01T03:19:34.000Z</time>
      </trkpt>
      <trkpt lat="45.90735" lon="3.0027">
        <ele>718.9</ele>
        <time>1970-01-01T03:19:35.000Z</time>
      </trkpt>
      <trkpt lat="45.90734" lon="3.0028">
        <ele>718.7</ele>
        <time>1970-01-01T03:19:36.000Z</time>
      </trkpt>
      <trkpt lat="45.90733" lon="3.0029">
        <ele>718.4</ele>
        <time>1970-01-01T03:19:37.000Z</time>
      </trkpt>
      <trkpt lat="45.90733" lon="3.00299">
        <ele>718.2</ele>
        <time>1970-01-01T03:19:38.000Z</time>
      </trkpt>
      <trkpt lat="45.90732" lon="3.00309">
        <ele>717.9</ele>
        <time>1970-01-01T03:19:39.000Z</time>
      </trkpt>
      <trkpt lat="45.90731" lon="3.00319">
        <ele>717.6</ele>
        <time>1970-01-01T03:19:40.000Z</time>
      </trkpt>
      <trkpt lat="45.9073" lon="3.00329">
        <ele>717.4</ele>
        <time>1970-01-01T03:19:41.000Z</time>
      </trkpt>
      <trkpt lat="45.90728" lon="3.00339">
        <ele>717.1</ele>
        <time>1970-01-01T03:19:42.000Z</time>
      </trkpt>
      <trkpt lat="45.90727" lon="3.00348">
        <ele>716.9</ele>
        <time>1970-01-01T03:19:43.000Z</time>
      </trkpt>
      <trkpt lat="45.90726" lon="3.00358">
        <ele>716.6</ele>
        <time>1970-01-01T03:19:44.000Z</time>
      </trkpt>
      <trkpt lat="45.90724" lon="3.00368">
        <ele>716.3</ele>
        <time>1970-01-01T03:19:45.000Z</time>
      </trkpt>
      <trkpt lat="45.90723" lon="3.00378">
        <ele>716.1</ele>
        <time>1970-01-01T03:19:46.000Z</time>
      </trkpt>
      <trkpt lat="45.90722" lon="3.00388">
        <ele>715.9</ele>
        <time>1970-01-01T03:19:47.000Z</time>
      </trkpt>
      <trkpt lat="45.90721" lon="3.00398">
        <ele>715.7</ele>
        <time>1970-01-01T03:19:48.000Z</time>
      </trkpt>
      <trkpt lat="45.9072" lon="3.00408">
        <ele>715.4</ele>
        <time>1970-01-01T03:19:49.000Z</time>
      </trkpt>
      <trkpt lat="45.90719" lon="3.00417">
        <ele>715.2</ele>
        <time>1970-01-01T03:19:50.000Z</time>
      </trkpt>
      <trkpt lat="45.90719" lon="3.00426">
        <ele>715</ele>
        <time>1970-01-01T03:19:51.000Z</time>
      </trkpt>
      <trkpt lat="45.90718" lon="3.00435">
        <ele>714.8</ele>
        <time>1970-01-01T03:19:52.000Z</time>
      </trkpt>
      <trkpt lat="45.90717" lon="3.00444">
        <ele>714.6</ele>
        <time>1970-01-01T03:19:53.000Z</time>
      </trkpt>
      <trkpt lat="45.90716" lon="3.00454">
        <ele>714.4</ele>
        <time>1970-01-01T03:19:54.000Z</time>
      </trkpt>
      <trkpt lat="45.90715" lon="3.00464">
        <ele>714.2</ele>
        <time>1970-01-01T03:19:55.000Z</time>
      </trkpt>
      <trkpt lat="45.90716" lon="3.00474">
        <ele>714</ele>
        <time>1970-01-01T03:19:56.000Z</time>
      </trkpt>
      <trkpt lat="45.90716" lon="3.00484">
        <ele>713.7</ele>
        <time>1970-01-01T03:19:57.000Z</time>
      </trkpt>
      <trkpt lat="45.90717" lon="3.00494">
        <ele>713.5</ele>
        <time>1970-01-01T03:19:58.000Z</time>
      </trkpt>
      <trkpt lat="45.90717" lon="3.00504">
        <ele>713.4</ele>
        <time>1970-01-01T03:19:59.000Z</time>
      </trkpt>
      <trkpt lat="45.90717" lon="3.00514">
        <ele>713.2</ele>
        <time>1970-01-01T03:20:00.000Z</time>
      </trkpt>
      <trkpt lat="45.90718" lon="3.00523">
        <ele>713.1</ele>
        <time>1970-01-01T03:20:01.000Z</time>
      </trkpt>
      <trkpt lat="45.90718" lon="3.00534">
        <ele>712.9</ele>
        <time>1970-01-01T03:20:02.000Z</time>
      </trkpt>
      <trkpt lat="45.90719" lon="3.00544">
        <ele>712.8</ele>
        <time>1970-01-01T03:20:03.000Z</time>
      </trkpt>
      <trkpt lat="45.9072" lon="3.00553">
        <ele>712.7</ele>
        <time>1970-01-01T03:20:04.000Z</time>
      </trkpt>
      <trkpt lat="45.90721" lon="3.00562">
        <ele>712.6</ele>
        <time>1970-01-01T03:20:05.000Z</time>
      </trkpt>
      <trkpt lat="45.90721" lon="3.00571">
        <ele>712.4</ele>
        <time>1970-01-01T03:20:06.000Z</time>
      </trkpt>
      <trkpt lat="45.90723" lon="3.00581">
        <ele>712.3</ele>
        <time>1970-01-01T03:20:07.000Z</time>
      </trkpt>
      <trkpt lat="45.90724" lon="3.0059">
        <ele>712.2</ele>
        <time>1970-01-01T03:20:08.000Z</time>
      </trkpt>
      <trkpt lat="45.90725" lon="3.00599">
        <ele>712</ele>
        <time>1970-01-01T03:20:09.000Z</time>
      </trkpt>
      <trkpt lat="45.90726" lon="3.00608">
        <ele>712</ele>
        <time>1970-01-01T03:20:10.000Z</time>
      </trkpt>
      <trkpt lat="45.90728" lon="3.00616">
        <ele>712.1</ele>
        <time>1970-01-01T03:20:11.000Z</time>
      </trkpt>
      <trkpt lat="45.90729" lon="3.00625">
        <ele>712.1</ele>
        <time>1970-01-01T03:20:12.000Z</time>
      </trkpt>
      <trkpt lat="45.9073" lon="3.00633">
        <ele>712.2</ele>
        <time>1970-01-01T03:20:13.000Z</time>
      </trkpt>
      <trkpt lat="45.90731" lon="3.00641">
        <ele>712.2</ele>
        <time>1970-01-01T03:20:14.000Z</time>
      </trkpt>
      <trkpt lat="45.90732" lon="3.00649">
        <ele>712.2</ele>
        <time>1970-01-01T03:20:15.000Z</time>
      </trkpt>
      <trkpt lat="45.90733" lon="3.00657">
        <ele>712.2</ele>
        <time>1970-01-01T03:20:16.000Z</time>
      </trkpt>
      <trkpt lat="45.90733" lon="3.00665">
        <ele>712.2</ele>
        <time>1970-01-01T03:20:17.000Z</time>
      </trkpt>
      <trkpt lat="45.90734" lon="3.00672">
        <ele>712.2</ele>
        <time>1970-01-01T03:20:18.000Z</time>
      </trkpt>
      <trkpt lat="45.90734" lon="3.0068">
        <ele>712.2</ele>
        <time>1970-01-01T03:20:19.000Z</time>
      </trkpt>
      <trkpt lat="45.90735" lon="3.00688">
        <ele>712.1</ele>
        <time>1970-01-01T03:20:20.000Z</time>
      </trkpt>
      <trkpt lat="45.90735" lon="3.00695">
        <ele>712.1</ele>
        <time>1970-01-01T03:20:21.000Z</time>
      </trkpt>
      <trkpt lat="45.90735" lon="3.00703">
        <ele>712.1</ele>
        <time>1970-01-01T03:20:22.000Z</time>
      </trkpt>
      <trkpt lat="45.90734" lon="3.0071">
        <ele>712.1</ele>
        <time>1970-01-01T03:20:23.000Z</time>
      </trkpt>
      <trkpt lat="45.90734" lon="3.00718">
        <ele>712.1</ele>
        <time>1970-01-01T03:20:24.000Z</time>
      </trkpt>
      <trkpt lat="45.90733" lon="3.00725">
        <ele>712.1</ele>
        <time>1970-01-01T03:20:25.000Z</time>
      </trkpt>
      <trkpt lat="45.90732" lon="3.00732">
        <ele>712.1</ele>
        <time>1970-01-01T03:20:26.000Z</time>
      </trkpt>
      <trkpt lat="45.90731" lon="3.00738">
        <ele>712.1</ele>
        <time>1970-01-01T03:20:27.000Z</time>
      </trkpt>
      <trkpt lat="45.90731" lon="3.00745">
        <ele>712.1</ele>
        <time>1970-01-01T03:20:28.000Z</time>
      </trkpt>
      <trkpt lat="45.90731" lon="3.00752">
        <ele>712.1</ele>
        <time>1970-01-01T03:20:29.000Z</time>
      </trkpt>
      <trkpt lat="45.90731" lon="3.00759">
        <ele>712.1</ele>
        <time>1970-01-01T03:20:30.000Z</time>
      </trkpt>
      <trkpt lat="45.90731" lon="3.00763">
        <ele>712.2</ele>
        <time>1970-01-01T03:20:31.000Z</time>
      </trkpt>
      <trkpt lat="45.9073" lon="3.0077">
        <ele>712.3</ele>
        <time>1970-01-01T03:20:32.000Z</time>
      </trkpt>
      <trkpt lat="45.9073" lon="3.00777">
        <ele>712.4</ele>
        <time>1970-01-01T03:20:33.000Z</time>
      </trkpt>
      <trkpt lat="45.9073" lon="3.00783">
        <ele>712.4</ele>
        <time>1970-01-01T03:20:34.000Z</time>
      </trkpt>
      <trkpt lat="45.9073" lon="3.0079">
        <ele>712.6</ele>
        <time>1970-01-01T03:20:35.000Z</time>
      </trkpt>
      <trkpt lat="45.9073" lon="3.00794">
        <ele>712.7</ele>
        <time>1970-01-01T03:20:36.000Z</time>
      </trkpt>
      <trkpt lat="45.90729" lon="3.00802">
        <ele>712.9</ele>
        <time>1970-01-01T03:20:37.000Z</time>
      </trkpt>
      <trkpt lat="45.90728" lon="3.00805">
        <ele>713.1</ele>
        <time>1970-01-01T03:20:38.000Z</time>
      </trkpt>
      <trkpt lat="45.90728" lon="3.00817">
        <ele>713.6</ele>
        <time>1970-01-01T03:20:40.000Z</time>
      </trkpt>
      <trkpt lat="45.90729" lon="3.00822">
        <ele>713.8</ele>
        <time>1970-01-01T03:20:41.000Z</time>
      </trkpt>
      <trkpt lat="45.90728" lon="3.00826">
        <ele>714</ele>
        <time>1970-01-01T03:20:42.000Z</time>
      </trkpt>
      <trkpt lat="45.90727" lon="3.00833">
        <ele>714.4</ele>
        <time>1970-01-01T03:20:43.000Z</time>
      </trkpt>
      <trkpt lat="45.90727" lon="3.0084">
        <ele>714.7</ele>
        <time>1970-01-01T03:20:45.000Z</time>
      </trkpt>
      <trkpt lat="45.90726" lon="3.00845">
        <ele>714.8</ele>
        <time>1970-01-01T03:20:46.000Z</time>
      </trkpt>
      <trkpt lat="45.90725" lon="3.00851">
        <ele>715.1</ele>
        <time>1970-01-01T03:20:47.000Z</time>
      </trkpt>
      <trkpt lat="45.90724" lon="3.00857">
        <ele>715.3</ele>
        <time>1970-01-01T03:20:48.000Z</time>
      </trkpt>
      <trkpt lat="45.90724" lon="3.00862">
        <ele>715.5</ele>
        <time>1970-01-01T03:20:49.000Z</time>
      </trkpt>
      <trkpt lat="45.90722" lon="3.00867">
        <ele>715.7</ele>
        <time>1970-01-01T03:20:50.000Z</time>
      </trkpt>
      <trkpt lat="45.90721" lon="3.00872">
        <ele>716</ele>
        <time>1970-01-01T03:20:52.000Z</time>
      </trkpt>
      <trkpt lat="45.9072" lon="3.00877">
        <ele>716.2</ele>
        <time>1970-01-01T03:20:53.000Z</time>
      </trkpt>
      <trkpt lat="45.90719" lon="3.00882">
        <ele>716.5</ele>
        <time>1970-01-01T03:20:54.000Z</time>
      </trkpt>
      <trkpt lat="45.9072" lon="3.00888">
        <ele>716.7</ele>
        <time>1970-01-01T03:20:55.000Z</time>
      </trkpt>
      <trkpt lat="45.9072" lon="3.0089">
        <ele>716.8</ele>
        <time>1970-01-01T03:20:56.000Z</time>
      </trkpt>
      <trkpt lat="45.9072" lon="3.00894">
        <ele>717.1</ele>
        <time>1970-01-01T03:20:57.000Z</time>
      </trkpt>
      <trkpt lat="45.90721" lon="3.00899">
        <ele>717.3</ele>
        <time>1970-01-01T03:20:58.000Z</time>
      </trkpt>
      <trkpt lat="45.90725" lon="3.00903">
        <ele>717.7</ele>
        <time>1970-01-01T03:20:59.000Z</time>
      </trkpt>
      <trkpt lat="45.90727" lon="3.00905">
        <ele>717.9</ele>
        <time>1970-01-01T03:21:00.000Z</time>
      </trkpt>
      <trkpt lat="45.9073" lon="3.00908">
        <ele>718.2</ele>
        <time>1970-01-01T03:21:02.000Z</time>
      </trkpt>
      <trkpt lat="45.90733" lon="3.00911">
        <ele>718.4</ele>
        <time>1970-01-01T03:21:03.000Z</time>
      </trkpt>
      <trkpt lat="45.90734" lon="3.00911">
        <ele>718.5</ele>
        <time>1970-01-01T03:21:04.000Z</time>
      </trkpt>
      <trkpt lat="45.90737" lon="3.00914">
        <ele>718.7</ele>
        <time>1970-01-01T03:21:05.000Z</time>
      </trkpt>
      <trkpt lat="45.90738" lon="3.00914">
        <ele>718.8</ele>
        <time>1970-01-01T03:21:06.000Z</time>
      </trkpt>
      <trkpt lat="45.9074" lon="3.00917">
        <ele>718.9</ele>
        <time>1970-01-01T03:21:07.000Z</time>
      </trkpt>
      <trkpt lat="45.90741" lon="3.00918">
        <ele>719</ele>
        <time>1970-01-01T03:21:08.000Z</time>
      </trkpt>
      <trkpt lat="45.90745" lon="3.00921">
        <ele>719.2</ele>
        <time>1970-01-01T03:21:10.000Z</time>
      </trkpt>
      <trkpt lat="45.90749" lon="3.00924">
        <ele>719.5</ele>
        <time>1970-01-01T03:21:11.000Z</time>
      </trkpt>
      <trkpt lat="45.90751" lon="3.00927">
        <ele>719.6</ele>
        <time>1970-01-01T03:21:12.000Z</time>
      </trkpt>
      <trkpt lat="45.90753" lon="3.00932">
        <ele>719.7</ele>
        <time>1970-01-01T03:21:13.000Z</time>
      </trkpt>
      <trkpt lat="45.90754" lon="3.00935">
        <ele>719.8</ele>
        <time>1970-01-01T03:21:15.000Z</time>
      </trkpt>
      <trkpt lat="45.90755" lon="3.00939">
        <ele>719.9</ele>
        <time>1970-01-01T03:21:16.000Z</time>
      </trkpt>
      <trkpt lat="45.90755" lon="3.00944">
        <ele>720.1</ele>
        <time>1970-01-01T03:21:17.000Z</time>
      </trkpt>
      <trkpt lat="45.90755" lon="3.00945">
        <ele>720.1</ele>
        <time>1970-01-01T03:21:18.000Z</time>
      </trkpt>
      <trkpt lat="45.90755" lon="3.0095">
        <ele>720.2</ele>
        <time>1970-01-01T03:21:19.000Z</time>
      </trkpt>
      <trkpt lat="45.90754" lon="3.00951">
        <ele>720.2</ele>
        <time>1970-01-01T03:21:20.000Z</time>
      </trkpt>
      <trkpt lat="45.90752" lon="3.00956">
        <ele>720.3</ele>
        <time>1970-01-01T03:21:21.000Z</time>
      </trkpt>
      <trkpt lat="45.9075" lon="3.00961">
        <ele>720.4</ele>
        <time>1970-01-01T03:21:22.000Z</time>
      </trkpt>
      <trkpt lat="45.90749" lon="3.00965">
        <ele>720.5</ele>
        <time>1970-01-01T03:21:24.000Z</time>
      </trkpt>
      <trkpt lat="45.90748" lon="3.00969">
        <ele>720.6</ele>
        <time>1970-01-01T03:21:25.000Z</time>
      </trkpt>
      <trkpt lat="45.90747" lon="3.00976">
        <ele>720.7</ele>
        <time>1970-01-01T03:21:26.000Z</time>
      </trkpt>
      <trkpt lat="45.90745" lon="3.00984">
        <ele>720.8</ele>
        <time>1970-01-01T03:21:28.000Z</time>
      </trkpt>
      <trkpt lat="45.90744" lon="3.00988">
        <ele>720.8</ele>
        <time>1970-01-01T03:21:29.000Z</time>
      </trkpt>
      <trkpt lat="45.90744" lon="3.00993">
        <ele>720.9</ele>
        <time>1970-01-01T03:21:30.000Z</time>
      </trkpt>
      <trkpt lat="45.90742" lon="3.00997">
        <ele>721</ele>
        <time>1970-01-01T03:21:31.000Z</time>
      </trkpt>
      <trkpt lat="45.90741" lon="3.01002">
        <ele>721</ele>
        <time>1970-01-01T03:21:32.000Z</time>
      </trkpt>
      <trkpt lat="45.90739" lon="3.01007">
        <ele>721.1</ele>
        <time>1970-01-01T03:21:33.000Z</time>
      </trkpt>
      <trkpt lat="45.90738" lon="3.01013">
        <ele>721.2</ele>
        <time>1970-01-01T03:21:34.000Z</time>
      </trkpt>
      <trkpt lat="45.90735" lon="3.01019">
        <ele>721.2</ele>
        <time>1970-01-01T03:21:35.000Z</time>
      </trkpt>
      <trkpt lat="45.90734" lon="3.01026">
        <ele>721.3</ele>
        <time>1970-01-01T03:21:36.000Z</time>
      </trkpt>
      <trkpt lat="45.90733" lon="3.01032">
        <ele>721.3</ele>
        <time>1970-01-01T03:21:38.000Z</time>
      </trkpt>
      <trkpt lat="45.90731" lon="3.01038">
        <ele>721.3</ele>
        <time>1970-01-01T03:21:39.000Z</time>
      </trkpt>
      <trkpt lat="45.90729" lon="3.01043">
        <ele>721.3</ele>
        <time>1970-01-01T03:21:40.000Z</time>
      </trkpt>
      <trkpt lat="45.90726" lon="3.01051">
        <ele>721.3</ele>
        <time>1970-01-01T03:21:41.000Z</time>
      </trkpt>
      <trkpt lat="45.90724" lon="3.01059">
        <ele>721.3</ele>
        <time>1970-01-01T03:21:43.000Z</time>
      </trkpt>
      <trkpt lat="45.90723" lon="3.01066">
        <ele>721.2</ele>
        <time>1970-01-01T03:21:44.000Z</time>
      </trkpt>
      <trkpt lat="45.90721" lon="3.01071">
        <ele>721.2</ele>
        <time>1970-01-01T03:21:45.000Z</time>
      </trkpt>
      <trkpt lat="45.90719" lon="3.01078">
        <ele>721.2</ele>
        <time>1970-01-01T03:21:46.000Z</time>
      </trkpt>
      <trkpt lat="45.90718" lon="3.01085">
        <ele>721.2</ele>
        <time>1970-01-01T03:21:47.000Z</time>
      </trkpt>
      <trkpt lat="45.90716" lon="3.01091">
        <ele>721.2</ele>
        <time>1970-01-01T03:21:48.000Z</time>
      </trkpt>
      <trkpt lat="45.90714" lon="3.01098">
        <ele>721.2</ele>
        <time>1970-01-01T03:21:49.000Z</time>
      </trkpt>
      <trkpt lat="45.90713" lon="3.01105">
        <ele>721.2</ele>
        <time>1970-01-01T03:21:50.000Z</time>
      </trkpt>
      <trkpt lat="45.90711" lon="3.01111">
        <ele>721.2</ele>
        <time>1970-01-01T03:21:51.000Z</time>
      </trkpt>
      <trkpt lat="45.90709" lon="3.01118">
        <ele>721.2</ele>
        <time>1970-01-01T03:21:52.000Z</time>
      </trkpt>
      <trkpt lat="45.90708" lon="3.01124">
        <ele>721.2</ele>
        <time>1970-01-01T03:21:53.000Z</time>
      </trkpt>
      <trkpt lat="45.90706" lon="3.0113">
        <ele>721.3</ele>
        <time>1970-01-01T03:21:54.000Z</time>
      </trkpt>
      <trkpt lat="45.90705" lon="3.01137">
        <ele>721.3</ele>
        <time>1970-01-01T03:21:55.000Z</time>
      </trkpt>
      <trkpt lat="45.90704" lon="3.01143">
        <ele>721.4</ele>
        <time>1970-01-01T03:21:56.000Z</time>
      </trkpt>
      <trkpt lat="45.90702" lon="3.0115">
        <ele>721.5</ele>
        <time>1970-01-01T03:21:57.000Z</time>
      </trkpt>
      <trkpt lat="45.90701" lon="3.01157">
        <ele>721.5</ele>
        <time>1970-01-01T03:21:58.000Z</time>
      </trkpt>
      <trkpt lat="45.90699" lon="3.01163">
        <ele>721.6</ele>
        <time>1970-01-01T03:21:59.000Z</time>
      </trkpt>
      <trkpt lat="45.90698" lon="3.01169">
        <ele>721.6</ele>
        <time>1970-01-01T03:22:00.000Z</time>
      </trkpt>
      <trkpt lat="45.90697" lon="3.01175">
        <ele>721.6</ele>
        <time>1970-01-01T03:22:01.000Z</time>
      </trkpt>
      <trkpt lat="45.90696" lon="3.0118">
        <ele>721.6</ele>
        <time>1970-01-01T03:22:02.000Z</time>
      </trkpt>
      <trkpt lat="45.90695" lon="3.01185">
        <ele>721.6</ele>
        <time>1970-01-01T03:22:03.000Z</time>
      </trkpt>
      <trkpt lat="45.90693" lon="3.01192">
        <ele>721.6</ele>
        <time>1970-01-01T03:22:04.000Z</time>
      </trkpt>
      <trkpt lat="45.90692" lon="3.012">
        <ele>721.6</ele>
        <time>1970-01-01T03:22:05.000Z</time>
      </trkpt>
      <trkpt lat="45.90691" lon="3.01207">
        <ele>721.5</ele>
        <time>1970-01-01T03:22:06.000Z</time>
      </trkpt>
      <trkpt lat="45.9069" lon="3.01214">
        <ele>721.4</ele>
        <time>1970-01-01T03:22:07.000Z</time>
      </trkpt>
      <trkpt lat="45.90689" lon="3.01221">
        <ele>721.3</ele>
        <time>1970-01-01T03:22:08.000Z</time>
      </trkpt>
      <trkpt lat="45.90689" lon="3.01229">
        <ele>721.2</ele>
        <time>1970-01-01T03:22:09.000Z</time>
      </trkpt>
      <trkpt lat="45.90688" lon="3.01237">
        <ele>721</ele>
        <time>1970-01-01T03:22:10.000Z</time>
      </trkpt>
      <trkpt lat="45.90688" lon="3.01245">
        <ele>720.9</ele>
        <time>1970-01-01T03:22:11.000Z</time>
      </trkpt>
      <trkpt lat="45.90687" lon="3.01253">
        <ele>720.8</ele>
        <time>1970-01-01T03:22:12.000Z</time>
      </trkpt>
      <trkpt lat="45.90687" lon="3.01261">
        <ele>720.8</ele>
        <time>1970-01-01T03:22:13.000Z</time>
      </trkpt>
      <trkpt lat="45.90687" lon="3.0127">
        <ele>720.7</ele>
        <time>1970-01-01T03:22:14.000Z</time>
      </trkpt>
      <trkpt lat="45.90687" lon="3.01278">
        <ele>720.6</ele>
        <time>1970-01-01T03:22:15.000Z</time>
      </trkpt>
      <trkpt lat="45.90686" lon="3.01286">
        <ele>720.5</ele>
        <time>1970-01-01T03:22:16.000Z</time>
      </trkpt>
      <trkpt lat="45.90686" lon="3.01295">
        <ele>720.4</ele>
        <time>1970-01-01T03:22:17.000Z</time>
      </trkpt>
      <trkpt lat="45.90685" lon="3.01304">
        <ele>720.3</ele>
        <time>1970-01-01T03:22:18.000Z</time>
      </trkpt>
      <trkpt lat="45.90685" lon="3.01313">
        <ele>720.3</ele>
        <time>1970-01-01T03:22:19.000Z</time>
      </trkpt>
      <trkpt lat="45.90685" lon="3.01322">
        <ele>720.2</ele>
        <time>1970-01-01T03:22:20.000Z</time>
      </trkpt>
      <trkpt lat="45.90685" lon="3.01331">
        <ele>720.2</ele>
        <time>1970-01-01T03:22:21.000Z</time>
      </trkpt>
      <trkpt lat="45.90685" lon="3.0134">
        <ele>720.2</ele>
        <time>1970-01-01T03:22:22.000Z</time>
      </trkpt>
      <trkpt lat="45.90685" lon="3.01349">
        <ele>720.2</ele>
        <time>1970-01-01T03:22:23.000Z</time>
      </trkpt>
      <trkpt lat="45.90685" lon="3.01357">
        <ele>720.2</ele>
        <time>1970-01-01T03:22:24.000Z</time>
      </trkpt>
      <trkpt lat="45.90684" lon="3.01366">
        <ele>720.2</ele>
        <time>1970-01-01T03:22:25.000Z</time>
      </trkpt>
      <trkpt lat="45.90683" lon="3.01375">
        <ele>720.2</ele>
        <time>1970-01-01T03:22:26.000Z</time>
      </trkpt>
      <trkpt lat="45.90683" lon="3.01383">
        <ele>720.2</ele>
        <time>1970-01-01T03:22:27.000Z</time>
      </trkpt>
      <trkpt lat="45.90683" lon="3.01392">
        <ele>720.2</ele>
        <time>1970-01-01T03:22:28.000Z</time>
      </trkpt>
      <trkpt lat="45.90683" lon="3.01401">
        <ele>720.2</ele>
        <time>1970-01-01T03:22:29.000Z</time>
      </trkpt>
      <trkpt lat="45.90682" lon="3.01409">
        <ele>720.2</ele>
        <time>1970-01-01T03:22:30.000Z</time>
      </trkpt>
      <trkpt lat="45.90682" lon="3.01417">
        <ele>720.2</ele>
        <time>1970-01-01T03:22:31.000Z</time>
      </trkpt>
      <trkpt lat="45.90681" lon="3.01425">
        <ele>720.2</ele>
        <time>1970-01-01T03:22:32.000Z</time>
      </trkpt>
      <trkpt lat="45.90681" lon="3.01433">
        <ele>720.2</ele>
        <time>1970-01-01T03:22:33.000Z</time>
      </trkpt>
      <trkpt lat="45.90681" lon="3.01441">
        <ele>720.2</ele>
        <time>1970-01-01T03:22:34.000Z</time>
      </trkpt>
      <trkpt lat="45.90681" lon="3.01449">
        <ele>720.2</ele>
        <time>1970-01-01T03:22:35.000Z</time>
      </trkpt>
      <trkpt lat="45.90681" lon="3.01456">
        <ele>720.1</ele>
        <time>1970-01-01T03:22:36.000Z</time>
      </trkpt>
      <trkpt lat="45.9068" lon="3.01464">
        <ele>720.1</ele>
        <time>1970-01-01T03:22:37.000Z</time>
      </trkpt>
      <trkpt lat="45.9068" lon="3.01472">
        <ele>720.1</ele>
        <time>1970-01-01T03:22:38.000Z</time>
      </trkpt>
      <trkpt lat="45.90681" lon="3.01479">
        <ele>720.1</ele>
        <time>1970-01-01T03:22:39.000Z</time>
      </trkpt>
      <trkpt lat="45.90681" lon="3.01487">
        <ele>720.2</ele>
        <time>1970-01-01T03:22:40.000Z</time>
      </trkpt>
      <trkpt lat="45.9068" lon="3.01495">
        <ele>720.2</ele>
        <time>1970-01-01T03:22:41.000Z</time>
      </trkpt>
      <trkpt lat="45.9068" lon="3.01503">
        <ele>720.2</ele>
        <time>1970-01-01T03:22:42.000Z</time>
      </trkpt>
      <trkpt lat="45.9068" lon="3.01511">
        <ele>720.3</ele>
        <time>1970-01-01T03:22:43.000Z</time>
      </trkpt>
      <trkpt lat="45.90679" lon="3.01518">
        <ele>720.3</ele>
        <time>1970-01-01T03:22:44.000Z</time>
      </trkpt>
      <trkpt lat="45.90679" lon="3.01526">
        <ele>720.3</ele>
        <time>1970-01-01T03:22:45.000Z</time>
      </trkpt>
      <trkpt lat="45.90679" lon="3.01533">
        <ele>720.4</ele>
        <time>1970-01-01T03:22:46.000Z</time>
      </trkpt>
      <trkpt lat="45.90679" lon="3.0154">
        <ele>720.4</ele>
        <time>1970-01-01T03:22:47.000Z</time>
      </trkpt>
      <trkpt lat="45.90678" lon="3.01548">
        <ele>720.4</ele>
        <time>1970-01-01T03:22:48.000Z</time>
      </trkpt>
      <trkpt lat="45.90678" lon="3.01555">
        <ele>720.4</ele>
        <time>1970-01-01T03:22:49.000Z</time>
      </trkpt>
      <trkpt lat="45.90678" lon="3.01563">
        <ele>720.4</ele>
        <time>1970-01-01T03:22:50.000Z</time>
      </trkpt>
      <trkpt lat="45.90677" lon="3.01571">
        <ele>720.4</ele>
        <time>1970-01-01T03:22:51.000Z</time>
      </trkpt>
      <trkpt lat="45.90676" lon="3.01578">
        <ele>720.4</ele>
        <time>1970-01-01T03:22:52.000Z</time>
      </trkpt>
      <trkpt lat="45.90675" lon="3.01586">
        <ele>720.4</ele>
        <time>1970-01-01T03:22:53.000Z</time>
      </trkpt>
      <trkpt lat="45.90675" lon="3.01594">
        <ele>720.4</ele>
        <time>1970-01-01T03:22:54.000Z</time>
      </trkpt>
      <trkpt lat="45.90674" lon="3.01602">
        <ele>720.5</ele>
        <time>1970-01-01T03:22:55.000Z</time>
      </trkpt>
      <trkpt lat="45.90674" lon="3.0161">
        <ele>720.5</ele>
        <time>1970-01-01T03:22:56.000Z</time>
      </trkpt>
      <trkpt lat="45.90673" lon="3.01617">
        <ele>720.5</ele>
        <time>1970-01-01T03:22:57.000Z</time>
      </trkpt>
      <trkpt lat="45.90673" lon="3.01625">
        <ele>720.6</ele>
        <time>1970-01-01T03:22:58.000Z</time>
      </trkpt>
      <trkpt lat="45.90673" lon="3.01632">
        <ele>720.6</ele>
        <time>1970-01-01T03:22:59.000Z</time>
      </trkpt>
      <trkpt lat="45.90673" lon="3.01639">
        <ele>720.7</ele>
        <time>1970-01-01T03:23:00.000Z</time>
      </trkpt>
      <trkpt lat="45.90672" lon="3.01646">
        <ele>720.7</ele>
        <time>1970-01-01T03:23:01.000Z</time>
      </trkpt>
      <trkpt lat="45.90672" lon="3.01653">
        <ele>720.8</ele>
        <time>1970-01-01T03:23:02.000Z</time>
      </trkpt>
      <trkpt lat="45.90671" lon="3.0166">
        <ele>720.8</ele>
        <time>1970-01-01T03:23:03.000Z</time>
      </trkpt>
      <trkpt lat="45.90671" lon="3.01667">
        <ele>720.9</ele>
        <time>1970-01-01T03:23:04.000Z</time>
      </trkpt>
      <trkpt lat="45.9067" lon="3.01673">
        <ele>721</ele>
        <time>1970-01-01T03:23:05.000Z</time>
      </trkpt>
      <trkpt lat="45.90669" lon="3.01677">
        <ele>721</ele>
        <time>1970-01-01T03:23:06.000Z</time>
      </trkpt>
      <trkpt lat="45.90669" lon="3.01683">
        <ele>721.1</ele>
        <time>1970-01-01T03:23:07.000Z</time>
      </trkpt>
      <trkpt lat="45.90668" lon="3.01689">
        <ele>721.1</ele>
        <time>1970-01-01T03:23:08.000Z</time>
      </trkpt>
      <trkpt lat="45.90666" lon="3.01696">
        <ele>721.2</ele>
        <time>1970-01-01T03:23:09.000Z</time>
      </trkpt>
      <trkpt lat="45.90666" lon="3.01702">
        <ele>721.3</ele>
        <time>1970-01-01T03:23:10.000Z</time>
      </trkpt>
      <trkpt lat="45.90665" lon="3.0171">
        <ele>721.3</ele>
        <time>1970-01-01T03:23:11.000Z</time>
      </trkpt>
      <trkpt lat="45.90664" lon="3.01718">
        <ele>721.5</ele>
        <time>1970-01-01T03:23:12.000Z</time>
      </trkpt>
      <trkpt lat="45.90664" lon="3.01724">
        <ele>721.6</ele>
        <time>1970-01-01T03:23:13.000Z</time>
      </trkpt>
      <trkpt lat="45.90663" lon="3.0173">
        <ele>721.7</ele>
        <time>1970-01-01T03:23:14.000Z</time>
      </trkpt>
      <trkpt lat="45.90662" lon="3.01736">
        <ele>721.7</ele>
        <time>1970-01-01T03:23:15.000Z</time>
      </trkpt>
      <trkpt lat="45.90661" lon="3.01743">
        <ele>721.9</ele>
        <time>1970-01-01T03:23:17.000Z</time>
      </trkpt>
      <trkpt lat="45.90661" lon="3.01749">
        <ele>722</ele>
        <time>1970-01-01T03:23:18.000Z</time>
      </trkpt>
      <trkpt lat="45.90661" lon="3.01754">
        <ele>722.2</ele>
        <time>1970-01-01T03:23:19.000Z</time>
      </trkpt>
      <trkpt lat="45.9066" lon="3.01759">
        <ele>722.3</ele>
        <time>1970-01-01T03:23:20.000Z</time>
      </trkpt>
      <trkpt lat="45.9066" lon="3.01764">
        <ele>722.4</ele>
        <time>1970-01-01T03:23:21.000Z</time>
      </trkpt>
      <trkpt lat="45.90659" lon="3.01768">
        <ele>722.5</ele>
        <time>1970-01-01T03:23:22.000Z</time>
      </trkpt>
      <trkpt lat="45.90657" lon="3.01774">
        <ele>722.7</ele>
        <time>1970-01-01T03:23:23.000Z</time>
      </trkpt>
      <trkpt lat="45.90655" lon="3.01778">
        <ele>722.8</ele>
        <time>1970-01-01T03:23:24.000Z</time>
      </trkpt>
      <trkpt lat="45.90653" lon="3.01782">
        <ele>722.9</ele>
        <time>1970-01-01T03:23:25.000Z</time>
      </trkpt>
      <trkpt lat="45.9065" lon="3.01787">
        <ele>723.1</ele>
        <time>1970-01-01T03:23:27.000Z</time>
      </trkpt>
      <trkpt lat="45.90648" lon="3.0179">
        <ele>723.3</ele>
        <time>1970-01-01T03:23:28.000Z</time>
      </trkpt>
      <trkpt lat="45.90646" lon="3.01794">
        <ele>723.4</ele>
        <time>1970-01-01T03:23:29.000Z</time>
      </trkpt>
      <trkpt lat="45.90644" lon="3.01796">
        <ele>723.5</ele>
        <time>1970-01-01T03:23:30.000Z</time>
      </trkpt>
      <trkpt lat="45.90642" lon="3.01801">
        <ele>723.6</ele>
        <time>1970-01-01T03:23:31.000Z</time>
      </trkpt>
      <trkpt lat="45.9064" lon="3.01804">
        <ele>723.8</ele>
        <time>1970-01-01T03:23:32.000Z</time>
      </trkpt>
      <trkpt lat="45.90637" lon="3.01808">
        <ele>724</ele>
        <time>1970-01-01T03:23:33.000Z</time>
      </trkpt>
      <trkpt lat="45.90634" lon="3.01811">
        <ele>724.1</ele>
        <time>1970-01-01T03:23:34.000Z</time>
      </trkpt>
      <trkpt lat="45.90631" lon="3.01815">
        <ele>724.3</ele>
        <time>1970-01-01T03:23:35.000Z</time>
      </trkpt>
      <trkpt lat="45.90628" lon="3.0182">
        <ele>724.6</ele>
        <time>1970-01-01T03:23:37.000Z</time>
      </trkpt>
      <trkpt lat="45.90626" lon="3.01823">
        <ele>724.7</ele>
        <time>1970-01-01T03:23:38.000Z</time>
      </trkpt>
      <trkpt lat="45.90625" lon="3.01827">
        <ele>724.9</ele>
        <time>1970-01-01T03:23:39.000Z</time>
      </trkpt>
      <trkpt lat="45.90621" lon="3.01831">
        <ele>725.2</ele>
        <time>1970-01-01T03:23:40.000Z</time>
      </trkpt>
      <trkpt lat="45.90618" lon="3.01836">
        <ele>725.5</ele>
        <time>1970-01-01T03:23:42.000Z</time>
      </trkpt>
      <trkpt lat="45.90616" lon="3.01839">
        <ele>725.8</ele>
        <time>1970-01-01T03:23:43.000Z</time>
      </trkpt>
      <trkpt lat="45.90613" lon="3.01844">
        <ele>726.1</ele>
        <time>1970-01-01T03:23:44.000Z</time>
      </trkpt>
      <trkpt lat="45.9061" lon="3.01849">
        <ele>726.5</ele>
        <time>1970-01-01T03:23:46.000Z</time>
      </trkpt>
      <trkpt lat="45.90609" lon="3.0185">
        <ele>726.6</ele>
        <time>1970-01-01T03:23:47.000Z</time>
      </trkpt>
      <trkpt lat="45.90608" lon="3.01852">
        <ele>726.7</ele>
        <time>1970-01-01T03:23:48.000Z</time>
      </trkpt>
      <trkpt lat="45.90606" lon="3.01856">
        <ele>727.1</ele>
        <time>1970-01-01T03:23:49.000Z</time>
      </trkpt>
      <trkpt lat="45.90605" lon="3.01857">
        <ele>727.2</ele>
        <time>1970-01-01T03:23:50.000Z</time>
      </trkpt>
      <trkpt lat="45.90603" lon="3.01861">
        <ele>727.5</ele>
        <time>1970-01-01T03:23:51.000Z</time>
      </trkpt>
      <trkpt lat="45.90602" lon="3.01862">
        <ele>727.7</ele>
        <time>1970-01-01T03:23:52.000Z</time>
      </trkpt>
      <trkpt lat="45.90601" lon="3.01864">
        <ele>727.9</ele>
        <time>1970-01-01T03:23:53.000Z</time>
      </trkpt>
      <trkpt lat="45.90598" lon="3.01868">
        <ele>728.2</ele>
        <time>1970-01-01T03:23:55.000Z</time>
      </trkpt>
      <trkpt lat="45.90597" lon="3.01872">
        <ele>728.5</ele>
        <time>1970-01-01T03:23:56.000Z</time>
      </trkpt>
      <trkpt lat="45.90597" lon="3.01873">
        <ele>728.6</ele>
        <time>1970-01-01T03:23:57.000Z</time>
      </trkpt>
      <trkpt lat="45.90596" lon="3.01875">
        <ele>728.8</ele>
        <time>1970-01-01T03:23:58.000Z</time>
      </trkpt>
      <trkpt lat="45.90595" lon="3.01877">
        <ele>729</ele>
        <time>1970-01-01T03:23:59.000Z</time>
      </trkpt>
      <trkpt lat="45.90593" lon="3.01881">
        <ele>729.3</ele>
        <time>1970-01-01T03:24:00.000Z</time>
      </trkpt>
      <trkpt lat="45.90592" lon="3.01882">
        <ele>729.4</ele>
        <time>1970-01-01T03:24:01.000Z</time>
      </trkpt>
      <trkpt lat="45.90591" lon="3.01885">
        <ele>729.6</ele>
        <time>1970-01-01T03:24:02.000Z</time>
      </trkpt>
      <trkpt lat="45.9059" lon="3.01886">
        <ele>729.8</ele>
        <time>1970-01-01T03:24:03.000Z</time>
      </trkpt>
      <trkpt lat="45.90588" lon="3.0189">
        <ele>730</ele>
        <time>1970-01-01T03:24:05.000Z</time>
      </trkpt>
      <trkpt lat="45.90588" lon="3.01891">
        <ele>730.1</ele>
        <time>1970-01-01T03:24:06.000Z</time>
      </trkpt>
      <trkpt lat="45.90587" lon="3.01896">
        <ele>730.4</ele>
        <time>1970-01-01T03:24:07.000Z</time>
      </trkpt>
      <trkpt lat="45.90586" lon="3.01898">
        <ele>730.6</ele>
        <time>1970-01-01T03:24:09.000Z</time>
      </trkpt>
      <trkpt lat="45.90585" lon="3.019">
        <ele>730.7</ele>
        <time>1970-01-01T03:24:10.000Z</time>
      </trkpt>
      <trkpt lat="45.90585" lon="3.01903">
        <ele>730.9</ele>
        <time>1970-01-01T03:24:11.000Z</time>
      </trkpt>
      <trkpt lat="45.90584" lon="3.01905">
        <ele>731</ele>
        <time>1970-01-01T03:24:12.000Z</time>
      </trkpt>
      <trkpt lat="45.90583" lon="3.01909">
        <ele>731.2</ele>
        <time>1970-01-01T03:24:13.000Z</time>
      </trkpt>
      <trkpt lat="45.90583" lon="3.0191">
        <ele>731.3</ele>
        <time>1970-01-01T03:24:14.000Z</time>
      </trkpt>
      <trkpt lat="45.90582" lon="3.01914">
        <ele>731.5</ele>
        <time>1970-01-01T03:24:15.000Z</time>
      </trkpt>
      <trkpt lat="45.90582" lon="3.01916">
        <ele>731.6</ele>
        <time>1970-01-01T03:24:16.000Z</time>
      </trkpt>
      <trkpt lat="45.90581" lon="3.01918">
        <ele>731.7</ele>
        <time>1970-01-01T03:24:17.000Z</time>
      </trkpt>
      <trkpt lat="45.90581" lon="3.01923">
        <ele>731.8</ele>
        <time>1970-01-01T03:24:19.000Z</time>
      </trkpt>
      <trkpt lat="45.90581" lon="3.01925">
        <ele>731.9</ele>
        <time>1970-01-01T03:24:20.000Z</time>
      </trkpt>
      <trkpt lat="45.90581" lon="3.01927">
        <ele>731.9</ele>
        <time>1970-01-01T03:24:21.000Z</time>
      </trkpt>
      <trkpt lat="45.90581" lon="3.01931">
        <ele>732</ele>
        <time>1970-01-01T03:24:22.000Z</time>
      </trkpt>
      <trkpt lat="45.90581" lon="3.01933">
        <ele>732.1</ele>
        <time>1970-01-01T03:24:23.000Z</time>
      </trkpt>
      <trkpt lat="45.90582" lon="3.01937">
        <ele>732.1</ele>
        <time>1970-01-01T03:24:24.000Z</time>
      </trkpt>
      <trkpt lat="45.90582" lon="3.01939">
        <ele>732.2</ele>
        <time>1970-01-01T03:24:25.000Z</time>
      </trkpt>
      <trkpt lat="45.90582" lon="3.01943">
        <ele>732.2</ele>
        <time>1970-01-01T03:24:26.000Z</time>
      </trkpt>
      <trkpt lat="45.90582" lon="3.0195">
        <ele>732.2</ele>
        <time>1970-01-01T03:24:28.000Z</time>
      </trkpt>
      <trkpt lat="45.90582" lon="3.01954">
        <ele>732.2</ele>
        <time>1970-01-01T03:24:29.000Z</time>
      </trkpt>
      <trkpt lat="45.90582" lon="3.01958">
        <ele>732.1</ele>
        <time>1970-01-01T03:24:30.000Z</time>
      </trkpt>
      <trkpt lat="45.90582" lon="3.01962">
        <ele>732.1</ele>
        <time>1970-01-01T03:24:31.000Z</time>
      </trkpt>
      <trkpt lat="45.90581" lon="3.01968">
        <ele>732</ele>
        <time>1970-01-01T03:24:32.000Z</time>
      </trkpt>
      <trkpt lat="45.90581" lon="3.01973">
        <ele>731.9</ele>
        <time>1970-01-01T03:24:33.000Z</time>
      </trkpt>
      <trkpt lat="45.90581" lon="3.01984">
        <ele>731.8</ele>
        <time>1970-01-01T03:24:34.000Z</time>
      </trkpt>
      <trkpt lat="45.9058" lon="3.01992">
        <ele>731.7</ele>
        <time>1970-01-01T03:24:36.000Z</time>
      </trkpt>
      <trkpt lat="45.9058" lon="3.01998">
        <ele>731.6</ele>
        <time>1970-01-01T03:24:37.000Z</time>
      </trkpt>
      <trkpt lat="45.90581" lon="3.02006">
        <ele>731.4</ele>
        <time>1970-01-01T03:24:38.000Z</time>
      </trkpt>
      <trkpt lat="45.90581" lon="3.02013">
        <ele>731.3</ele>
        <time>1970-01-01T03:24:39.000Z</time>
      </trkpt>
      <trkpt lat="45.90581" lon="3.0202">
        <ele>731.2</ele>
        <time>1970-01-01T03:24:40.000Z</time>
      </trkpt>
      <trkpt lat="45.9058" lon="3.02027">
        <ele>731.1</ele>
        <time>1970-01-01T03:24:41.000Z</time>
      </trkpt>
      <trkpt lat="45.9058" lon="3.02034">
        <ele>731</ele>
        <time>1970-01-01T03:24:42.000Z</time>
      </trkpt>
      <trkpt lat="45.9058" lon="3.02041">
        <ele>730.8</ele>
        <time>1970-01-01T03:24:43.000Z</time>
      </trkpt>
      <trkpt lat="45.90579" lon="3.02049">
        <ele>730.7</ele>
        <time>1970-01-01T03:24:44.000Z</time>
      </trkpt>
      <trkpt lat="45.90579" lon="3.02056">
        <ele>730.5</ele>
        <time>1970-01-01T03:24:45.000Z</time>
      </trkpt>
      <trkpt lat="45.90579" lon="3.02064">
        <ele>730.4</ele>
        <time>1970-01-01T03:24:46.000Z</time>
      </trkpt>
      <trkpt lat="45.90579" lon="3.02072">
        <ele>730.2</ele>
        <time>1970-01-01T03:24:47.000Z</time>
      </trkpt>
      <trkpt lat="45.90579" lon="3.0208">
        <ele>730.1</ele>
        <time>1970-01-01T03:24:48.000Z</time>
      </trkpt>
      <trkpt lat="45.90579" lon="3.02088">
        <ele>729.9</ele>
        <time>1970-01-01T03:24:49.000Z</time>
      </trkpt>
      <trkpt lat="45.90578" lon="3.02096">
        <ele>729.7</ele>
        <time>1970-01-01T03:24:50.000Z</time>
      </trkpt>
      <trkpt lat="45.90579" lon="3.02104">
        <ele>729.6</ele>
        <time>1970-01-01T03:24:51.000Z</time>
      </trkpt>
      <trkpt lat="45.90579" lon="3.02112">
        <ele>729.3</ele>
        <time>1970-01-01T03:24:52.000Z</time>
      </trkpt>
      <trkpt lat="45.90578" lon="3.0212">
        <ele>729.1</ele>
        <time>1970-01-01T03:24:53.000Z</time>
      </trkpt>
      <trkpt lat="45.90577" lon="3.02128">
        <ele>728.8</ele>
        <time>1970-01-01T03:24:54.000Z</time>
      </trkpt>
      <trkpt lat="45.90576" lon="3.02136">
        <ele>728.5</ele>
        <time>1970-01-01T03:24:55.000Z</time>
      </trkpt>
      <trkpt lat="45.90574" lon="3.02145">
        <ele>728.2</ele>
        <time>1970-01-01T03:24:56.000Z</time>
      </trkpt>
      <trkpt lat="45.90572" lon="3.02154">
        <ele>727.9</ele>
        <time>1970-01-01T03:24:57.000Z</time>
      </trkpt>
      <trkpt lat="45.90572" lon="3.02163">
        <ele>727.7</ele>
        <time>1970-01-01T03:24:58.000Z</time>
      </trkpt>
      <trkpt lat="45.90572" lon="3.02173">
        <ele>727.5</ele>
        <time>1970-01-01T03:24:59.000Z</time>
      </trkpt>
      <trkpt lat="45.90572" lon="3.02181">
        <ele>727.3</ele>
        <time>1970-01-01T03:25:00.000Z</time>
      </trkpt>
      <trkpt lat="45.90572" lon="3.0219">
        <ele>727.1</ele>
        <time>1970-01-01T03:25:01.000Z</time>
      </trkpt>
      <trkpt lat="45.90573" lon="3.02199">
        <ele>726.9</ele>
        <time>1970-01-01T03:25:02.000Z</time>
      </trkpt>
      <trkpt lat="45.90573" lon="3.02208">
        <ele>726.7</ele>
        <time>1970-01-01T03:25:03.000Z</time>
      </trkpt>
      <trkpt lat="45.90574" lon="3.02217">
        <ele>726.5</ele>
        <time>1970-01-01T03:25:04.000Z</time>
      </trkpt>
      <trkpt lat="45.90575" lon="3.02227">
        <ele>726.4</ele>
        <time>1970-01-01T03:25:05.000Z</time>
      </trkpt>
      <trkpt lat="45.90575" lon="3.02236">
        <ele>726.2</ele>
        <time>1970-01-01T03:25:06.000Z</time>
      </trkpt>
      <trkpt lat="45.90576" lon="3.02245">
        <ele>726.1</ele>
        <time>1970-01-01T03:25:07.000Z</time>
      </trkpt>
      <trkpt lat="45.90577" lon="3.02254">
        <ele>726</ele>
        <time>1970-01-01T03:25:08.000Z</time>
      </trkpt>
      <trkpt lat="45.90579" lon="3.02263">
        <ele>725.9</ele>
        <time>1970-01-01T03:25:09.000Z</time>
      </trkpt>
      <trkpt lat="45.9058" lon="3.02273">
        <ele>725.8</ele>
        <time>1970-01-01T03:25:10.000Z</time>
      </trkpt>
      <trkpt lat="45.90582" lon="3.02281">
        <ele>725.7</ele>
        <time>1970-01-01T03:25:11.000Z</time>
      </trkpt>
      <trkpt lat="45.90584" lon="3.0229">
        <ele>725.6</ele>
        <time>1970-01-01T03:25:12.000Z</time>
      </trkpt>
      <trkpt lat="45.90586" lon="3.02299">
        <ele>725.5</ele>
        <time>1970-01-01T03:25:13.000Z</time>
      </trkpt>
      <trkpt lat="45.90588" lon="3.02307">
        <ele>725.5</ele>
        <time>1970-01-01T03:25:14.000Z</time>
      </trkpt>
      <trkpt lat="45.90591" lon="3.02315">
        <ele>725.4</ele>
        <time>1970-01-01T03:25:15.000Z</time>
      </trkpt>
      <trkpt lat="45.90594" lon="3.02322">
        <ele>725.4</ele>
        <time>1970-01-01T03:25:16.000Z</time>
      </trkpt>
      <trkpt lat="45.90597" lon="3.0233">
        <ele>725.4</ele>
        <time>1970-01-01T03:25:17.000Z</time>
      </trkpt>
      <trkpt lat="45.90599" lon="3.02337">
        <ele>725.3</ele>
        <time>1970-01-01T03:25:18.000Z</time>
      </trkpt>
      <trkpt lat="45.90601" lon="3.02345">
        <ele>725.2</ele>
        <time>1970-01-01T03:25:19.000Z</time>
      </trkpt>
      <trkpt lat="45.90604" lon="3.02352">
        <ele>725.1</ele>
        <time>1970-01-01T03:25:20.000Z</time>
      </trkpt>
      <trkpt lat="45.90607" lon="3.0236">
        <ele>724.9</ele>
        <time>1970-01-01T03:25:21.000Z</time>
      </trkpt>
      <trkpt lat="45.90611" lon="3.02367">
        <ele>724.8</ele>
        <time>1970-01-01T03:25:22.000Z</time>
      </trkpt>
      <trkpt lat="45.90614" lon="3.02375">
        <ele>724.6</ele>
        <time>1970-01-01T03:25:23.000Z</time>
      </trkpt>
      <trkpt lat="45.90617" lon="3.02383">
        <ele>724.5</ele>
        <time>1970-01-01T03:25:24.000Z</time>
      </trkpt>
      <trkpt lat="45.90621" lon="3.02391">
        <ele>724.3</ele>
        <time>1970-01-01T03:25:25.000Z</time>
      </trkpt>
      <trkpt lat="45.90624" lon="3.024">
        <ele>724.1</ele>
        <time>1970-01-01T03:25:26.000Z</time>
      </trkpt>
      <trkpt lat="45.90628" lon="3.02408">
        <ele>724</ele>
        <time>1970-01-01T03:25:27.000Z</time>
      </trkpt>
      <trkpt lat="45.90633" lon="3.02414">
        <ele>724.1</ele>
        <time>1970-01-01T03:25:28.000Z</time>
      </trkpt>
      <trkpt lat="45.90637" lon="3.02421">
        <ele>724.2</ele>
        <time>1970-01-01T03:25:29.000Z</time>
      </trkpt>
      <trkpt lat="45.90639" lon="3.02429">
        <ele>724.3</ele>
        <time>1970-01-01T03:25:30.000Z</time>
      </trkpt>
      <trkpt lat="45.90641" lon="3.02438">
        <ele>724.4</ele>
        <time>1970-01-01T03:25:31.000Z</time>
      </trkpt>
      <trkpt lat="45.90643" lon="3.02446">
        <ele>724.5</ele>
        <time>1970-01-01T03:25:32.000Z</time>
      </trkpt>
      <trkpt lat="45.90643" lon="3.02454">
        <ele>724.7</ele>
        <time>1970-01-01T03:25:33.000Z</time>
      </trkpt>
      <trkpt lat="45.90644" lon="3.02462">
        <ele>724.8</ele>
        <time>1970-01-01T03:25:34.000Z</time>
      </trkpt>
      <trkpt lat="45.90644" lon="3.02469">
        <ele>724.9</ele>
        <time>1970-01-01T03:25:35.000Z</time>
      </trkpt>
      <trkpt lat="45.90645" lon="3.02475">
        <ele>725.1</ele>
        <time>1970-01-01T03:25:36.000Z</time>
      </trkpt>
      <trkpt lat="45.90646" lon="3.02482">
        <ele>725.3</ele>
        <time>1970-01-01T03:25:37.000Z</time>
      </trkpt>
      <trkpt lat="45.90648" lon="3.02487">
        <ele>725.6</ele>
        <time>1970-01-01T03:25:38.000Z</time>
      </trkpt>
      <trkpt lat="45.90649" lon="3.0249">
        <ele>725.7</ele>
        <time>1970-01-01T03:25:39.000Z</time>
      </trkpt>
      <trkpt lat="45.90652" lon="3.02495">
        <ele>726</ele>
        <time>1970-01-01T03:25:40.000Z</time>
      </trkpt>
      <trkpt lat="45.90654" lon="3.025">
        <ele>726.3</ele>
        <time>1970-01-01T03:25:41.000Z</time>
      </trkpt>
      <trkpt lat="45.90655" lon="3.02502">
        <ele>726.4</ele>
        <time>1970-01-01T03:25:42.000Z</time>
      </trkpt>
      <trkpt lat="45.90657" lon="3.02506">
        <ele>726.7</ele>
        <time>1970-01-01T03:25:43.000Z</time>
      </trkpt>
      <trkpt lat="45.90657" lon="3.02508">
        <ele>726.7</ele>
        <time>1970-01-01T03:25:44.000Z</time>
      </trkpt>
      <trkpt lat="45.90659" lon="3.02512">
        <ele>727</ele>
        <time>1970-01-01T03:25:45.000Z</time>
      </trkpt>
      <trkpt lat="45.9066" lon="3.02514">
        <ele>727.1</ele>
        <time>1970-01-01T03:25:46.000Z</time>
      </trkpt>
      <trkpt lat="45.90661" lon="3.02515">
        <ele>727.2</ele>
        <time>1970-01-01T03:25:47.000Z</time>
      </trkpt>
      <trkpt lat="45.90661" lon="3.02517">
        <ele>727.3</ele>
        <time>1970-01-01T03:25:48.000Z</time>
      </trkpt>
      <trkpt lat="45.90662" lon="3.02521">
        <ele>727.5</ele>
        <time>1970-01-01T03:25:49.000Z</time>
      </trkpt>
      <trkpt lat="45.90663" lon="3.02525">
        <ele>727.8</ele>
        <time>1970-01-01T03:25:50.000Z</time>
      </trkpt>
      <trkpt lat="45.90665" lon="3.02529">
        <ele>728</ele>
        <time>1970-01-01T03:25:52.000Z</time>
      </trkpt>
      <trkpt lat="45.90666" lon="3.02533">
        <ele>728.3</ele>
        <time>1970-01-01T03:25:53.000Z</time>
      </trkpt>
      <trkpt lat="45.90668" lon="3.02537">
        <ele>728.5</ele>
        <time>1970-01-01T03:25:54.000Z</time>
      </trkpt>
      <trkpt lat="45.90669" lon="3.02539">
        <ele>728.7</ele>
        <time>1970-01-01T03:25:55.000Z</time>
      </trkpt>
      <trkpt lat="45.9067" lon="3.02543">
        <ele>728.9</ele>
        <time>1970-01-01T03:25:57.000Z</time>
      </trkpt>
      <trkpt lat="45.90671" lon="3.02544">
        <ele>729</ele>
        <time>1970-01-01T03:25:58.000Z</time>
      </trkpt>
      <trkpt lat="45.90671" lon="3.02548">
        <ele>729.3</ele>
        <time>1970-01-01T03:25:59.000Z</time>
      </trkpt>
      <trkpt lat="45.90672" lon="3.02549">
        <ele>729.3</ele>
        <time>1970-01-01T03:26:00.000Z</time>
      </trkpt>
      <trkpt lat="45.90674" lon="3.02553">
        <ele>729.6</ele>
        <time>1970-01-01T03:26:01.000Z</time>
      </trkpt>
      <trkpt lat="45.90675" lon="3.02554">
        <ele>729.7</ele>
        <time>1970-01-01T03:26:02.000Z</time>
      </trkpt>
      <trkpt lat="45.90677" lon="3.02558">
        <ele>730</ele>
        <time>1970-01-01T03:26:03.000Z</time>
      </trkpt>
      <trkpt lat="45.90677" lon="3.0256">
        <ele>730.1</ele>
        <time>1970-01-01T03:26:04.000Z</time>
      </trkpt>
      <trkpt lat="45.90679" lon="3.02565">
        <ele>730.5</ele>
        <time>1970-01-01T03:26:06.000Z</time>
      </trkpt>
      <trkpt lat="45.9068" lon="3.02567">
        <ele>730.6</ele>
        <time>1970-01-01T03:26:07.000Z</time>
      </trkpt>
      <trkpt lat="45.90681" lon="3.02569">
        <ele>730.7</ele>
        <time>1970-01-01T03:26:08.000Z</time>
      </trkpt>
      <trkpt lat="45.90683" lon="3.02572">
        <ele>730.9</ele>
        <time>1970-01-01T03:26:10.000Z</time>
      </trkpt>
      <trkpt lat="45.90684" lon="3.02574">
        <ele>731</ele>
        <time>1970-01-01T03:26:11.000Z</time>
      </trkpt>
      <trkpt lat="45.90685" lon="3.02576">
        <ele>731.1</ele>
        <time>1970-01-01T03:26:12.000Z</time>
      </trkpt>
      <trkpt lat="45.90686" lon="3.02579">
        <ele>731.3</ele>
        <time>1970-01-01T03:26:13.000Z</time>
      </trkpt>
      <trkpt lat="45.90686" lon="3.0258">
        <ele>731.4</ele>
        <time>1970-01-01T03:26:14.000Z</time>
      </trkpt>
      <trkpt lat="45.90687" lon="3.02583">
        <ele>731.5</ele>
        <time>1970-01-01T03:26:15.000Z</time>
      </trkpt>
      <trkpt lat="45.90688" lon="3.02585">
        <ele>731.6</ele>
        <time>1970-01-01T03:26:16.000Z</time>
      </trkpt>
      <trkpt lat="45.90689" lon="3.02589">
        <ele>731.8</ele>
        <time>1970-01-01T03:26:17.000Z</time>
      </trkpt>
      <trkpt lat="45.90689" lon="3.0259">
        <ele>731.9</ele>
        <time>1970-01-01T03:26:18.000Z</time>
      </trkpt>
      <trkpt lat="45.9069" lon="3.02594">
        <ele>732</ele>
        <time>1970-01-01T03:26:19.000Z</time>
      </trkpt>
      <trkpt lat="45.9069" lon="3.02598">
        <ele>732.2</ele>
        <time>1970-01-01T03:26:21.000Z</time>
      </trkpt>
      <trkpt lat="45.90691" lon="3.026">
        <ele>732.3</ele>
        <time>1970-01-01T03:26:22.000Z</time>
      </trkpt>
      <trkpt lat="45.90691" lon="3.02603">
        <ele>732.4</ele>
        <time>1970-01-01T03:26:23.000Z</time>
      </trkpt>
      <trkpt lat="45.90691" lon="3.02608">
        <ele>732.6</ele>
        <time>1970-01-01T03:26:24.000Z</time>
      </trkpt>
      <trkpt lat="45.90691" lon="3.02609">
        <ele>732.7</ele>
        <time>1970-01-01T03:26:25.000Z</time>
      </trkpt>
      <trkpt lat="45.90691" lon="3.02614">
        <ele>732.8</ele>
        <time>1970-01-01T03:26:26.000Z</time>
      </trkpt>
      <trkpt lat="45.90691" lon="3.02615">
        <ele>732.9</ele>
        <time>1970-01-01T03:26:27.000Z</time>
      </trkpt>
      <trkpt lat="45.90691" lon="3.02621">
        <ele>733.1</ele>
        <time>1970-01-01T03:26:29.000Z</time>
      </trkpt>
      <trkpt lat="45.90691" lon="3.02623">
        <ele>733.1</ele>
        <time>1970-01-01T03:26:30.000Z</time>
      </trkpt>
      <trkpt lat="45.90691" lon="3.02625">
        <ele>733.2</ele>
        <time>1970-01-01T03:26:31.000Z</time>
      </trkpt>
      <trkpt lat="45.90691" lon="3.0263">
        <ele>733.3</ele>
        <time>1970-01-01T03:26:32.000Z</time>
      </trkpt>
      <trkpt lat="45.90691" lon="3.02631">
        <ele>733.3</ele>
        <time>1970-01-01T03:26:33.000Z</time>
      </trkpt>
      <trkpt lat="45.90692" lon="3.02636">
        <ele>733.4</ele>
        <time>1970-01-01T03:26:34.000Z</time>
      </trkpt>
      <trkpt lat="45.90692" lon="3.02637">
        <ele>733.5</ele>
        <time>1970-01-01T03:26:35.000Z</time>
      </trkpt>
      <trkpt lat="45.90693" lon="3.02643">
        <ele>733.6</ele>
        <time>1970-01-01T03:26:36.000Z</time>
      </trkpt>
      <trkpt lat="45.90694" lon="3.02645">
        <ele>733.6</ele>
        <time>1970-01-01T03:26:37.000Z</time>
      </trkpt>
      <trkpt lat="45.90694" lon="3.02649">
        <ele>733.7</ele>
        <time>1970-01-01T03:26:38.000Z</time>
      </trkpt>
      <trkpt lat="45.90695" lon="3.02654">
        <ele>733.9</ele>
        <time>1970-01-01T03:26:39.000Z</time>
      </trkpt>
      <trkpt lat="45.90696" lon="3.02656">
        <ele>733.9</ele>
        <time>1970-01-01T03:26:40.000Z</time>
      </trkpt>
      <trkpt lat="45.90697" lon="3.0266">
        <ele>734</ele>
        <time>1970-01-01T03:26:41.000Z</time>
      </trkpt>
      <trkpt lat="45.90697" lon="3.02664">
        <ele>734.1</ele>
        <time>1970-01-01T03:26:42.000Z</time>
      </trkpt>
      <trkpt lat="45.90699" lon="3.0267">
        <ele>734.3</ele>
        <time>1970-01-01T03:26:43.000Z</time>
      </trkpt>
      <trkpt lat="45.90699" lon="3.02671">
        <ele>734.3</ele>
        <time>1970-01-01T03:26:44.000Z</time>
      </trkpt>
      <trkpt lat="45.907" lon="3.02676">
        <ele>734.4</ele>
        <time>1970-01-01T03:26:45.000Z</time>
      </trkpt>
      <trkpt lat="45.90701" lon="3.0268">
        <ele>734.5</ele>
        <time>1970-01-01T03:26:46.000Z</time>
      </trkpt>
      <trkpt lat="45.90702" lon="3.02685">
        <ele>734.6</ele>
        <time>1970-01-01T03:26:47.000Z</time>
      </trkpt>
      <trkpt lat="45.90703" lon="3.0269">
        <ele>734.7</ele>
        <time>1970-01-01T03:26:48.000Z</time>
      </trkpt>
      <trkpt lat="45.90705" lon="3.02695">
        <ele>734.8</ele>
        <time>1970-01-01T03:26:50.000Z</time>
      </trkpt>
      <trkpt lat="45.90707" lon="3.02701">
        <ele>734.9</ele>
        <time>1970-01-01T03:26:51.000Z</time>
      </trkpt>
      <trkpt lat="45.90708" lon="3.02707">
        <ele>735</ele>
        <time>1970-01-01T03:26:53.000Z</time>
      </trkpt>
      <trkpt lat="45.90709" lon="3.02711">
        <ele>735</ele>
        <time>1970-01-01T03:26:54.000Z</time>
      </trkpt>
      <trkpt lat="45.90711" lon="3.02715">
        <ele>735</ele>
        <time>1970-01-01T03:26:55.000Z</time>
      </trkpt>
      <trkpt lat="45.90714" lon="3.02725">
        <ele>734.9</ele>
        <time>1970-01-01T03:26:57.000Z</time>
      </trkpt>
      <trkpt lat="45.90717" lon="3.02731">
        <ele>734.8</ele>
        <time>1970-01-01T03:26:58.000Z</time>
      </trkpt>
      <trkpt lat="45.90719" lon="3.02736">
        <ele>734.7</ele>
        <time>1970-01-01T03:26:59.000Z</time>
      </trkpt>
      <trkpt lat="45.90723" lon="3.02741">
        <ele>734.6</ele>
        <time>1970-01-01T03:27:00.000Z</time>
      </trkpt>
      <trkpt lat="45.90725" lon="3.02747">
        <ele>734.5</ele>
        <time>1970-01-01T03:27:01.000Z</time>
      </trkpt>
      <trkpt lat="45.90727" lon="3.02753">
        <ele>734.4</ele>
        <time>1970-01-01T03:27:02.000Z</time>
      </trkpt>
      <trkpt lat="45.90729" lon="3.02759">
        <ele>734.3</ele>
        <time>1970-01-01T03:27:03.000Z</time>
      </trkpt>
      <trkpt lat="45.90731" lon="3.02765">
        <ele>734.2</ele>
        <time>1970-01-01T03:27:04.000Z</time>
      </trkpt>
      <trkpt lat="45.90733" lon="3.02771">
        <ele>734</ele>
        <time>1970-01-01T03:27:05.000Z</time>
      </trkpt>
      <trkpt lat="45.90736" lon="3.02778">
        <ele>733.9</ele>
        <time>1970-01-01T03:27:06.000Z</time>
      </trkpt>
      <trkpt lat="45.90738" lon="3.02785">
        <ele>733.8</ele>
        <time>1970-01-01T03:27:07.000Z</time>
      </trkpt>
      <trkpt lat="45.9074" lon="3.02793">
        <ele>733.7</ele>
        <time>1970-01-01T03:27:08.000Z</time>
      </trkpt>
      <trkpt lat="45.90742" lon="3.028">
        <ele>733.6</ele>
        <time>1970-01-01T03:27:09.000Z</time>
      </trkpt>
      <trkpt lat="45.90744" lon="3.02808">
        <ele>733.4</ele>
        <time>1970-01-01T03:27:10.000Z</time>
      </trkpt>
      <trkpt lat="45.90746" lon="3.02816">
        <ele>733.3</ele>
        <time>1970-01-01T03:27:11.000Z</time>
      </trkpt>
      <trkpt lat="45.90748" lon="3.02824">
        <ele>733.2</ele>
        <time>1970-01-01T03:27:12.000Z</time>
      </trkpt>
      <trkpt lat="45.9075" lon="3.02831">
        <ele>733</ele>
        <time>1970-01-01T03:27:13.000Z</time>
      </trkpt>
      <trkpt lat="45.90751" lon="3.02839">
        <ele>732.9</ele>
        <time>1970-01-01T03:27:14.000Z</time>
      </trkpt>
      <trkpt lat="45.90753" lon="3.02847">
        <ele>732.7</ele>
        <time>1970-01-01T03:27:15.000Z</time>
      </trkpt>
      <trkpt lat="45.90754" lon="3.02855">
        <ele>732.6</ele>
        <time>1970-01-01T03:27:16.000Z</time>
      </trkpt>
      <trkpt lat="45.90755" lon="3.02864">
        <ele>732.4</ele>
        <time>1970-01-01T03:27:17.000Z</time>
      </trkpt>
      <trkpt lat="45.90756" lon="3.02873">
        <ele>732.3</ele>
        <time>1970-01-01T03:27:18.000Z</time>
      </trkpt>
      <trkpt lat="45.90757" lon="3.02882">
        <ele>732.1</ele>
        <time>1970-01-01T03:27:19.000Z</time>
      </trkpt>
      <trkpt lat="45.90757" lon="3.02891">
        <ele>731.9</ele>
        <time>1970-01-01T03:27:20.000Z</time>
      </trkpt>
      <trkpt lat="45.90757" lon="3.02901">
        <ele>731.8</ele>
        <time>1970-01-01T03:27:21.000Z</time>
      </trkpt>
      <trkpt lat="45.90756" lon="3.0291">
        <ele>731.7</ele>
        <time>1970-01-01T03:27:22.000Z</time>
      </trkpt>
      <trkpt lat="45.90757" lon="3.02918">
        <ele>731.6</ele>
        <time>1970-01-01T03:27:23.000Z</time>
      </trkpt>
      <trkpt lat="45.90758" lon="3.02927">
        <ele>731.5</ele>
        <time>1970-01-01T03:27:24.000Z</time>
      </trkpt>
      <trkpt lat="45.9076" lon="3.02935">
        <ele>731.4</ele>
        <time>1970-01-01T03:27:25.000Z</time>
      </trkpt>
      <trkpt lat="45.90762" lon="3.02943">
        <ele>731.2</ele>
        <time>1970-01-01T03:27:26.000Z</time>
      </trkpt>
      <trkpt lat="45.90765" lon="3.02951">
        <ele>731</ele>
        <time>1970-01-01T03:27:27.000Z</time>
      </trkpt>
      <trkpt lat="45.90768" lon="3.02959">
        <ele>730.8</ele>
        <time>1970-01-01T03:27:28.000Z</time>
      </trkpt>
      <trkpt lat="45.90772" lon="3.02966">
        <ele>730.5</ele>
        <time>1970-01-01T03:27:29.000Z</time>
      </trkpt>
      <trkpt lat="45.90775" lon="3.02974">
        <ele>730.2</ele>
        <time>1970-01-01T03:27:30.000Z</time>
      </trkpt>
      <trkpt lat="45.9078" lon="3.02981">
        <ele>729.9</ele>
        <time>1970-01-01T03:27:31.000Z</time>
      </trkpt>
      <trkpt lat="45.90784" lon="3.02988">
        <ele>729.6</ele>
        <time>1970-01-01T03:27:32.000Z</time>
      </trkpt>
      <trkpt lat="45.90787" lon="3.02994">
        <ele>729.3</ele>
        <time>1970-01-01T03:27:33.000Z</time>
      </trkpt>
      <trkpt lat="45.9079" lon="3.03001">
        <ele>729.1</ele>
        <time>1970-01-01T03:27:34.000Z</time>
      </trkpt>
      <trkpt lat="45.90793" lon="3.03009">
        <ele>728.8</ele>
        <time>1970-01-01T03:27:35.000Z</time>
      </trkpt>
      <trkpt lat="45.90797" lon="3.03016">
        <ele>728.5</ele>
        <time>1970-01-01T03:27:36.000Z</time>
      </trkpt>
      <trkpt lat="45.90802" lon="3.03022">
        <ele>728.4</ele>
        <time>1970-01-01T03:27:37.000Z</time>
      </trkpt>
      <trkpt lat="45.90807" lon="3.03027">
        <ele>728.4</ele>
        <time>1970-01-01T03:27:38.000Z</time>
      </trkpt>
      <trkpt lat="45.9081" lon="3.03032">
        <ele>728.4</ele>
        <time>1970-01-01T03:27:39.000Z</time>
      </trkpt>
      <trkpt lat="45.90813" lon="3.03038">
        <ele>728.4</ele>
        <time>1970-01-01T03:27:40.000Z</time>
      </trkpt>
      <trkpt lat="45.90817" lon="3.03041">
        <ele>728.5</ele>
        <time>1970-01-01T03:27:41.000Z</time>
      </trkpt>
      <trkpt lat="45.90822" lon="3.03045">
        <ele>728.5</ele>
        <time>1970-01-01T03:27:42.000Z</time>
      </trkpt>
      <trkpt lat="45.90825" lon="3.0305">
        <ele>728.6</ele>
        <time>1970-01-01T03:27:43.000Z</time>
      </trkpt>
      <trkpt lat="45.90828" lon="3.03054">
        <ele>728.6</ele>
        <time>1970-01-01T03:27:44.000Z</time>
      </trkpt>
      <trkpt lat="45.90832" lon="3.03056">
        <ele>728.7</ele>
        <time>1970-01-01T03:27:45.000Z</time>
      </trkpt>
      <trkpt lat="45.90837" lon="3.03056">
        <ele>728.7</ele>
        <time>1970-01-01T03:27:46.000Z</time>
      </trkpt>
      <trkpt lat="45.9084" lon="3.03055">
        <ele>728.7</ele>
        <time>1970-01-01T03:27:47.000Z</time>
      </trkpt>
      <trkpt lat="45.90843" lon="3.03053">
        <ele>728.7</ele>
        <time>1970-01-01T03:27:48.000Z</time>
      </trkpt>
      <trkpt lat="45.90848" lon="3.03052">
        <ele>728.7</ele>
        <time>1970-01-01T03:27:49.000Z</time>
      </trkpt>
      <trkpt lat="45.90851" lon="3.03052">
        <ele>728.7</ele>
        <time>1970-01-01T03:27:50.000Z</time>
      </trkpt>
      <trkpt lat="45.90854" lon="3.03053">
        <ele>728.7</ele>
        <time>1970-01-01T03:27:51.000Z</time>
      </trkpt>
      <trkpt lat="45.90859" lon="3.03054">
        <ele>728.7</ele>
        <time>1970-01-01T03:27:52.000Z</time>
      </trkpt>
      <trkpt lat="45.90862" lon="3.03056">
        <ele>728.7</ele>
        <time>1970-01-01T03:27:53.000Z</time>
      </trkpt>
      <trkpt lat="45.90867" lon="3.03061">
        <ele>728.7</ele>
        <time>1970-01-01T03:27:54.000Z</time>
      </trkpt>
      <trkpt lat="45.90869" lon="3.03063">
        <ele>728.6</ele>
        <time>1970-01-01T03:27:55.000Z</time>
      </trkpt>
      <trkpt lat="45.90875" lon="3.03065">
        <ele>728.6</ele>
        <time>1970-01-01T03:27:57.000Z</time>
      </trkpt>
      <trkpt lat="45.90882" lon="3.03066">
        <ele>728.4</ele>
        <time>1970-01-01T03:27:58.000Z</time>
      </trkpt>
      <trkpt lat="45.90887" lon="3.03067">
        <ele>728.3</ele>
        <time>1970-01-01T03:27:59.000Z</time>
      </trkpt>
      <trkpt lat="45.90891" lon="3.03069">
        <ele>728.2</ele>
        <time>1970-01-01T03:28:00.000Z</time>
      </trkpt>
      <trkpt lat="45.90896" lon="3.03072">
        <ele>728</ele>
        <time>1970-01-01T03:28:02.000Z</time>
      </trkpt>
      <trkpt lat="45.90901" lon="3.03078">
        <ele>727.7</ele>
        <time>1970-01-01T03:28:03.000Z</time>
      </trkpt>
      <trkpt lat="45.90905" lon="3.03083">
        <ele>727.5</ele>
        <time>1970-01-01T03:28:04.000Z</time>
      </trkpt>
      <trkpt lat="45.90908" lon="3.03088">
        <ele>727.3</ele>
        <time>1970-01-01T03:28:06.000Z</time>
      </trkpt>
      <trkpt lat="45.90911" lon="3.03093">
        <ele>727</ele>
        <time>1970-01-01T03:28:07.000Z</time>
      </trkpt>
      <trkpt lat="45.90919" lon="3.03099">
        <ele>726.5</ele>
        <time>1970-01-01T03:28:08.000Z</time>
      </trkpt>
      <trkpt lat="45.90922" lon="3.03102">
        <ele>726.3</ele>
        <time>1970-01-01T03:28:09.000Z</time>
      </trkpt>
      <trkpt lat="45.90924" lon="3.03103">
        <ele>726.2</ele>
        <time>1970-01-01T03:28:10.000Z</time>
      </trkpt>
      <trkpt lat="45.90929" lon="3.03107">
        <ele>725.9</ele>
        <time>1970-01-01T03:28:12.000Z</time>
      </trkpt>
      <trkpt lat="45.90932" lon="3.03113">
        <ele>725.6</ele>
        <time>1970-01-01T03:28:13.000Z</time>
      </trkpt>
      <trkpt lat="45.90933" lon="3.03118">
        <ele>725.5</ele>
        <time>1970-01-01T03:28:14.000Z</time>
      </trkpt>
      <trkpt lat="45.90933" lon="3.03123">
        <ele>725.5</ele>
        <time>1970-01-01T03:28:16.000Z</time>
      </trkpt>
      <trkpt lat="45.90932" lon="3.03125">
        <ele>725.5</ele>
        <time>1970-01-01T03:28:17.000Z</time>
      </trkpt>
      <trkpt lat="45.90932" lon="3.03125">
        <ele>725.5</ele>
        <time>1970-01-01T03:28:18.000Z</time>
      </trkpt>
      <trkpt lat="45.90932" lon="3.03128">
        <ele>725.5</ele>
        <time>1970-01-01T03:28:19.000Z</time>
      </trkpt>
      <trkpt lat="45.90931" lon="3.03131">
        <ele>725.5</ele>
        <time>1970-01-01T03:28:20.000Z</time>
      </trkpt>
      <trkpt lat="45.90929" lon="3.03134">
        <ele>725.5</ele>
        <time>1970-01-01T03:28:22.000Z</time>
      </trkpt>
      <trkpt lat="45.90927" lon="3.03136">
        <ele>725.4</ele>
        <time>1970-01-01T03:28:23.000Z</time>
      </trkpt>
      <trkpt lat="45.90926" lon="3.03137">
        <ele>725.4</ele>
        <time>1970-01-01T03:28:24.000Z</time>
      </trkpt>
      <trkpt lat="45.90924" lon="3.03141">
        <ele>725.4</ele>
        <time>1970-01-01T03:28:25.000Z</time>
      </trkpt>
      <trkpt lat="45.90923" lon="3.03142">
        <ele>725.4</ele>
        <time>1970-01-01T03:28:26.000Z</time>
      </trkpt>
      <trkpt lat="45.90921" lon="3.03148">
        <ele>725.3</ele>
        <time>1970-01-01T03:28:27.000Z</time>
      </trkpt>
      <trkpt lat="45.90921" lon="3.03151">
        <ele>725.2</ele>
        <time>1970-01-01T03:28:28.000Z</time>
      </trkpt>
      <trkpt lat="45.90922" lon="3.03154">
        <ele>725.2</ele>
        <time>1970-01-01T03:28:30.000Z</time>
      </trkpt>
      <trkpt lat="45.90924" lon="3.03161">
        <ele>725.1</ele>
        <time>1970-01-01T03:28:32.000Z</time>
      </trkpt>
      <trkpt lat="45.90925" lon="3.03167">
        <ele>725</ele>
        <time>1970-01-01T03:28:33.000Z</time>
      </trkpt>
      <trkpt lat="45.90924" lon="3.03169">
        <ele>725</ele>
        <time>1970-01-01T03:28:34.000Z</time>
      </trkpt>
      <trkpt lat="45.90923" lon="3.03175">
        <ele>724.9</ele>
        <time>1970-01-01T03:28:36.000Z</time>
      </trkpt>
      <trkpt lat="45.90923" lon="3.03177">
        <ele>724.9</ele>
        <time>1970-01-01T03:28:37.000Z</time>
      </trkpt>
      <trkpt lat="45.90923" lon="3.03179">
        <ele>724.9</ele>
        <time>1970-01-01T03:28:38.000Z</time>
      </trkpt>
      <trkpt lat="45.90922" lon="3.03184">
        <ele>724.8</ele>
        <time>1970-01-01T03:28:39.000Z</time>
      </trkpt>
      <trkpt lat="45.90922" lon="3.03185">
        <ele>724.8</ele>
        <time>1970-01-01T03:28:40.000Z</time>
      </trkpt>
      <trkpt lat="45.90923" lon="3.03191">
        <ele>724.8</ele>
        <time>1970-01-01T03:28:41.000Z</time>
      </trkpt>
      <trkpt lat="45.90923" lon="3.03192">
        <ele>724.8</ele>
        <time>1970-01-01T03:28:42.000Z</time>
      </trkpt>
      <trkpt lat="45.90923" lon="3.03198">
        <ele>724.7</ele>
        <time>1970-01-01T03:28:43.000Z</time>
      </trkpt>
      <trkpt lat="45.90925" lon="3.03202">
        <ele>724.7</ele>
        <time>1970-01-01T03:28:44.000Z</time>
      </trkpt>
      <trkpt lat="45.90928" lon="3.03208">
        <ele>724.7</ele>
        <time>1970-01-01T03:28:46.000Z</time>
      </trkpt>
      <trkpt lat="45.9093" lon="3.03211">
        <ele>724.7</ele>
        <time>1970-01-01T03:28:47.000Z</time>
      </trkpt>
      <trkpt lat="45.90932" lon="3.03213">
        <ele>724.7</ele>
        <time>1970-01-01T03:28:48.000Z</time>
      </trkpt>
      <trkpt lat="45.90933" lon="3.03214">
        <ele>724.7</ele>
        <time>1970-01-01T03:28:49.000Z</time>
      </trkpt>
      <trkpt lat="45.90936" lon="3.03219">
        <ele>724.8</ele>
        <time>1970-01-01T03:28:51.000Z</time>
      </trkpt>
      <trkpt lat="45.90937" lon="3.03221">
        <ele>724.8</ele>
        <time>1970-01-01T03:28:52.000Z</time>
      </trkpt>
      <trkpt lat="45.90938" lon="3.03223">
        <ele>724.8</ele>
        <time>1970-01-01T03:28:53.000Z</time>
      </trkpt>
      <trkpt lat="45.90939" lon="3.03223">
        <ele>724.8</ele>
        <time>1970-01-01T03:28:54.000Z</time>
      </trkpt>
      <trkpt lat="45.9094" lon="3.03225">
        <ele>724.8</ele>
        <time>1970-01-01T03:28:55.000Z</time>
      </trkpt>
      <trkpt lat="45.9094" lon="3.03226">
        <ele>724.9</ele>
        <time>1970-01-01T03:28:56.000Z</time>
      </trkpt>
      <trkpt lat="45.9094" lon="3.03226">
        <ele>724.9</ele>
        <time>1970-01-01T03:28:57.000Z</time>
      </trkpt>
      <trkpt lat="45.9094" lon="3.03226">
        <ele>724.9</ele>
        <time>1970-01-01T03:28:58.000Z</time>
      </trkpt>
      <trkpt lat="45.9094" lon="3.03226">
        <ele>724.9</ele>
        <time>1970-01-01T03:28:59.000Z</time>
      </trkpt>
      <trkpt lat="45.9094" lon="3.03226">
        <ele>724.9</ele>
        <time>1970-01-01T03:29:00.000Z</time>
      </trkpt>
      <trkpt lat="45.9094" lon="3.03227">
        <ele>724.9</ele>
        <time>1970-01-01T03:29:01.000Z</time>
      </trkpt>
      <trkpt lat="45.9094" lon="3.03228">
        <ele>724.9</ele>
        <time>1970-01-01T03:29:03.000Z</time>
      </trkpt>
      <trkpt lat="45.9094" lon="3.03229">
        <ele>724.8</ele>
        <time>1970-01-01T03:29:04.000Z</time>
      </trkpt>
      <trkpt lat="45.9094" lon="3.0323">
        <ele>724.8</ele>
        <time>1970-01-01T03:29:05.000Z</time>
      </trkpt>
      <trkpt lat="45.9094" lon="3.03231">
        <ele>724.8</ele>
        <time>1970-01-01T03:29:06.000Z</time>
      </trkpt>
      <trkpt lat="45.9094" lon="3.03232">
        <ele>724.8</ele>
        <time>1970-01-01T03:29:07.000Z</time>
      </trkpt>
      <trkpt lat="45.9094" lon="3.03232">
        <ele>724.8</ele>
        <time>1970-01-01T03:29:08.000Z</time>
      </trkpt>
      <trkpt lat="45.9094" lon="3.03233">
        <ele>724.8</ele>
        <time>1970-01-01T03:29:09.000Z</time>
      </trkpt>
      <trkpt lat="45.9094" lon="3.03237">
        <ele>724.7</ele>
        <time>1970-01-01T03:29:11.000Z</time>
      </trkpt>
      <trkpt lat="45.9094" lon="3.03238">
        <ele>724.7</ele>
        <time>1970-01-01T03:29:12.000Z</time>
      </trkpt>
      <trkpt lat="45.9094" lon="3.03239">
        <ele>724.6</ele>
        <time>1970-01-01T03:29:13.000Z</time>
      </trkpt>
      <trkpt lat="45.9094" lon="3.03241">
        <ele>724.5</ele>
        <time>1970-01-01T03:29:14.000Z</time>
      </trkpt>
      <trkpt lat="45.9094" lon="3.03242">
        <ele>724.4</ele>
        <time>1970-01-01T03:29:16.000Z</time>
      </trkpt>
      <trkpt lat="45.9094" lon="3.03242">
        <ele>724.4</ele>
        <time>1970-01-01T03:29:17.000Z</time>
      </trkpt>
      <trkpt lat="45.9094" lon="3.03242">
        <ele>724.4</ele>
        <time>1970-01-01T03:29:18.000Z</time>
      </trkpt>
      <trkpt lat="45.90939" lon="3.03242">
        <ele>724.4</ele>
        <time>1970-01-01T03:29:19.000Z</time>
      </trkpt>
      <trkpt lat="45.90939" lon="3.03242">
        <ele>724.3</ele>
        <time>1970-01-01T03:29:20.000Z</time>
      </trkpt>
      <trkpt lat="45.90939" lon="3.03242">
        <ele>724.3</ele>
        <time>1970-01-01T03:29:21.000Z</time>
      </trkpt>
      <trkpt lat="45.90939" lon="3.03242">
        <ele>724.3</ele>
        <time>1970-01-01T03:29:23.000Z</time>
      </trkpt>
      <trkpt lat="45.90939" lon="3.03243">
        <ele>724.3</ele>
        <time>1970-01-01T03:29:24.000Z</time>
      </trkpt>
      <trkpt lat="45.90939" lon="3.03243">
        <ele>724.3</ele>
        <time>1970-01-01T03:29:25.000Z</time>
      </trkpt>
      <trkpt lat="45.90938" lon="3.03243">
        <ele>724.3</ele>
        <time>1970-01-01T03:29:26.000Z</time>
      </trkpt>
      <trkpt lat="45.90937" lon="3.03244">
        <ele>724.1</ele>
        <time>1970-01-01T03:29:28.000Z</time>
      </trkpt>
      <trkpt lat="45.90935" lon="3.03248">
        <ele>723.6</ele>
        <time>1970-01-01T03:29:29.000Z</time>
      </trkpt>
      <trkpt lat="45.90933" lon="3.0325">
        <ele>723.4</ele>
        <time>1970-01-01T03:29:30.000Z</time>
      </trkpt>
      <trkpt lat="45.90932" lon="3.03254">
        <ele>722.7</ele>
        <time>1970-01-01T03:29:32.000Z</time>
      </trkpt>
      <trkpt lat="45.9093" lon="3.03258">
        <ele>722</ele>
        <time>1970-01-01T03:29:33.000Z</time>
      </trkpt>
      <trkpt lat="45.9093" lon="3.0326">
        <ele>721.8</ele>
        <time>1970-01-01T03:29:34.000Z</time>
      </trkpt>
      <trkpt lat="45.90929" lon="3.03264">
        <ele>721</ele>
        <time>1970-01-01T03:29:36.000Z</time>
      </trkpt>
      <trkpt lat="45.90929" lon="3.03266">
        <ele>720.7</ele>
        <time>1970-01-01T03:29:37.000Z</time>
      </trkpt>
      <trkpt lat="45.90931" lon="3.03272">
        <ele>719.6</ele>
        <time>1970-01-01T03:29:38.000Z</time>
      </trkpt>
      <trkpt lat="45.90931" lon="3.03274">
        <ele>719.1</ele>
        <time>1970-01-01T03:29:39.000Z</time>
      </trkpt>
      <trkpt lat="45.90934" lon="3.03278">
        <ele>718.2</ele>
        <time>1970-01-01T03:29:40.000Z</time>
      </trkpt>
      <trkpt lat="45.90937" lon="3.03281">
        <ele>717</ele>
        <time>1970-01-01T03:29:41.000Z</time>
      </trkpt>
      <trkpt lat="45.9094" lon="3.03285">
        <ele>715.8</ele>
        <time>1970-01-01T03:29:43.000Z</time>
      </trkpt>
      <trkpt lat="45.9094" lon="3.03287">
        <ele>715.4</ele>
        <time>1970-01-01T03:29:44.000Z</time>
      </trkpt>
      <trkpt lat="45.90941" lon="3.0329">
        <ele>714.7</ele>
        <time>1970-01-01T03:29:45.000Z</time>
      </trkpt>
      <trkpt lat="45.90943" lon="3.03295">
        <ele>713.6</ele>
        <time>1970-01-01T03:29:46.000Z</time>
      </trkpt>
      <trkpt lat="45.90943" lon="3.03297">
        <ele>713.1</ele>
        <time>1970-01-01T03:29:47.000Z</time>
      </trkpt>
      <trkpt lat="45.90944" lon="3.033">
        <ele>712.4</ele>
        <time>1970-01-01T03:29:48.000Z</time>
      </trkpt>
      <trkpt lat="45.90945" lon="3.03304">
        <ele>711.7</ele>
        <time>1970-01-01T03:29:50.000Z</time>
      </trkpt>
      <trkpt lat="45.90946" lon="3.03308">
        <ele>710.6</ele>
        <time>1970-01-01T03:29:51.000Z</time>
      </trkpt>
      <trkpt lat="45.90947" lon="3.0331">
        <ele>710.3</ele>
        <time>1970-01-01T03:29:52.000Z</time>
      </trkpt>
      <trkpt lat="45.90946" lon="3.03314">
        <ele>709.4</ele>
        <time>1970-01-01T03:29:53.000Z</time>
      </trkpt>
      <trkpt lat="45.90946" lon="3.03316">
        <ele>709</ele>
        <time>1970-01-01T03:29:54.000Z</time>
      </trkpt>
      <trkpt lat="45.90944" lon="3.0332">
        <ele>708.2</ele>
        <time>1970-01-01T03:29:56.000Z</time>
      </trkpt>
      <trkpt lat="45.90944" lon="3.03321">
        <ele>708.1</ele>
        <time>1970-01-01T03:29:57.000Z</time>
      </trkpt>
      <trkpt lat="45.90942" lon="3.03326">
        <ele>707.3</ele>
        <time>1970-01-01T03:29:58.000Z</time>
      </trkpt>
      <trkpt lat="45.90941" lon="3.03332">
        <ele>706.4</ele>
        <time>1970-01-01T03:29:59.000Z</time>
      </trkpt>
      <trkpt lat="45.90942" lon="3.03338">
        <ele>705.7</ele>
        <time>1970-01-01T03:30:01.000Z</time>
      </trkpt>
      <trkpt lat="45.90944" lon="3.03345">
        <ele>704.8</ele>
        <time>1970-01-01T03:30:02.000Z</time>
      </trkpt>
      <trkpt lat="45.90944" lon="3.03351">
        <ele>704</ele>
        <time>1970-01-01T03:30:03.000Z</time>
      </trkpt>
      <trkpt lat="45.90942" lon="3.03357">
        <ele>703.1</ele>
        <time>1970-01-01T03:30:05.000Z</time>
      </trkpt>
      <trkpt lat="45.90939" lon="3.03362">
        <ele>702.3</ele>
        <time>1970-01-01T03:30:06.000Z</time>
      </trkpt>
      <trkpt lat="45.90939" lon="3.03367">
        <ele>701.6</ele>
        <time>1970-01-01T03:30:07.000Z</time>
      </trkpt>
      <trkpt lat="45.90939" lon="3.03372">
        <ele>701</ele>
        <time>1970-01-01T03:30:08.000Z</time>
      </trkpt>
      <trkpt lat="45.9094" lon="3.03379">
        <ele>700</ele>
        <time>1970-01-01T03:30:10.000Z</time>
      </trkpt>
      <trkpt lat="45.9094" lon="3.03392">
        <ele>698.5</ele>
        <time>1970-01-01T03:30:11.000Z</time>
      </trkpt>
      <trkpt lat="45.90941" lon="3.03399">
        <ele>697.7</ele>
        <time>1970-01-01T03:30:12.000Z</time>
      </trkpt>
      <trkpt lat="45.90942" lon="3.03403">
        <ele>697.2</ele>
        <time>1970-01-01T03:30:13.000Z</time>
      </trkpt>
      <trkpt lat="45.90943" lon="3.03412">
        <ele>696.2</ele>
        <time>1970-01-01T03:30:14.000Z</time>
      </trkpt>
      <trkpt lat="45.90945" lon="3.03415">
        <ele>695.8</ele>
        <time>1970-01-01T03:30:15.000Z</time>
      </trkpt>
      <trkpt lat="45.90945" lon="3.03421">
        <ele>695.2</ele>
        <time>1970-01-01T03:30:17.000Z</time>
      </trkpt>
      <trkpt lat="45.9095" lon="3.03432">
        <ele>694</ele>
        <time>1970-01-01T03:30:18.000Z</time>
      </trkpt>
      <trkpt lat="45.90952" lon="3.03438">
        <ele>693.3</ele>
        <time>1970-01-01T03:30:19.000Z</time>
      </trkpt>
      <trkpt lat="45.90952" lon="3.03443">
        <ele>692.8</ele>
        <time>1970-01-01T03:30:20.000Z</time>
      </trkpt>
      <trkpt lat="45.90957" lon="3.03458">
        <ele>691.6</ele>
        <time>1970-01-01T03:30:22.000Z</time>
      </trkpt>
      <trkpt lat="45.90958" lon="3.03465">
        <ele>691</ele>
        <time>1970-01-01T03:30:23.000Z</time>
      </trkpt>
      <trkpt lat="45.90957" lon="3.03469">
        <ele>690.7</ele>
        <time>1970-01-01T03:30:24.000Z</time>
      </trkpt>
      <trkpt lat="45.90958" lon="3.03471">
        <ele>690.5</ele>
        <time>1970-01-01T03:30:25.000Z</time>
      </trkpt>
      <trkpt lat="45.90961" lon="3.03478">
        <ele>689.9</ele>
        <time>1970-01-01T03:30:27.000Z</time>
      </trkpt>
      <trkpt lat="45.90966" lon="3.03485">
        <ele>689.2</ele>
        <time>1970-01-01T03:30:28.000Z</time>
      </trkpt>
      <trkpt lat="45.90969" lon="3.03489">
        <ele>688.7</ele>
        <time>1970-01-01T03:30:29.000Z</time>
      </trkpt>
      <trkpt lat="45.90971" lon="3.03495">
        <ele>688.3</ele>
        <time>1970-01-01T03:30:30.000Z</time>
      </trkpt>
      <trkpt lat="45.90976" lon="3.03504">
        <ele>687.5</ele>
        <time>1970-01-01T03:30:31.000Z</time>
      </trkpt>
      <trkpt lat="45.90979" lon="3.0351">
        <ele>687</ele>
        <time>1970-01-01T03:30:32.000Z</time>
      </trkpt>
      <trkpt lat="45.90981" lon="3.03514">
        <ele>686.7</ele>
        <time>1970-01-01T03:30:33.000Z</time>
      </trkpt>
      <trkpt lat="45.90982" lon="3.0352">
        <ele>686.4</ele>
        <time>1970-01-01T03:30:34.000Z</time>
      </trkpt>
      <trkpt lat="45.90982" lon="3.03526">
        <ele>686</ele>
        <time>1970-01-01T03:30:35.000Z</time>
      </trkpt>
      <trkpt lat="45.90984" lon="3.03531">
        <ele>685.7</ele>
        <time>1970-01-01T03:30:36.000Z</time>
      </trkpt>
      <trkpt lat="45.90985" lon="3.03535">
        <ele>685.4</ele>
        <time>1970-01-01T03:30:37.000Z</time>
      </trkpt>
      <trkpt lat="45.90988" lon="3.03541">
        <ele>685</ele>
        <time>1970-01-01T03:30:38.000Z</time>
      </trkpt>
      <trkpt lat="45.9099" lon="3.03546">
        <ele>684.7</ele>
        <time>1970-01-01T03:30:39.000Z</time>
      </trkpt>
      <trkpt lat="45.90994" lon="3.03549">
        <ele>684.4</ele>
        <time>1970-01-01T03:30:41.000Z</time>
      </trkpt>
      <trkpt lat="45.90998" lon="3.03551">
        <ele>684.1</ele>
        <time>1970-01-01T03:30:42.000Z</time>
      </trkpt>
      <trkpt lat="45.91006" lon="3.03557">
        <ele>683.4</ele>
        <time>1970-01-01T03:30:43.000Z</time>
      </trkpt>
      <trkpt lat="45.9101" lon="3.03562">
        <ele>682.9</ele>
        <time>1970-01-01T03:30:44.000Z</time>
      </trkpt>
      <trkpt lat="45.91013" lon="3.03564">
        <ele>682.7</ele>
        <time>1970-01-01T03:30:45.000Z</time>
      </trkpt>
      <trkpt lat="45.91015" lon="3.03569">
        <ele>682.3</ele>
        <time>1970-01-01T03:30:46.000Z</time>
      </trkpt>
      <trkpt lat="45.91019" lon="3.03576">
        <ele>681.8</ele>
        <time>1970-01-01T03:30:48.000Z</time>
      </trkpt>
      <trkpt lat="45.91019" lon="3.03584">
        <ele>681.3</ele>
        <time>1970-01-01T03:30:49.000Z</time>
      </trkpt>
      <trkpt lat="45.91019" lon="3.03591">
        <ele>680.9</ele>
        <time>1970-01-01T03:30:50.000Z</time>
      </trkpt>
      <trkpt lat="45.91022" lon="3.03596">
        <ele>680.6</ele>
        <time>1970-01-01T03:30:51.000Z</time>
      </trkpt>
      <trkpt lat="45.91025" lon="3.03602">
        <ele>680.1</ele>
        <time>1970-01-01T03:30:53.000Z</time>
      </trkpt>
      <trkpt lat="45.91027" lon="3.03608">
        <ele>679.8</ele>
        <time>1970-01-01T03:30:54.000Z</time>
      </trkpt>
      <trkpt lat="45.9103" lon="3.03612">
        <ele>679.4</ele>
        <time>1970-01-01T03:30:55.000Z</time>
      </trkpt>
      <trkpt lat="45.91035" lon="3.03614">
        <ele>679</ele>
        <time>1970-01-01T03:30:56.000Z</time>
      </trkpt>
      <trkpt lat="45.9104" lon="3.03614">
        <ele>678.6</ele>
        <time>1970-01-01T03:30:57.000Z</time>
      </trkpt>
      <trkpt lat="45.91045" lon="3.03614">
        <ele>678.2</ele>
        <time>1970-01-01T03:30:58.000Z</time>
      </trkpt>
      <trkpt lat="45.9105" lon="3.03613">
        <ele>677.8</ele>
        <time>1970-01-01T03:30:59.000Z</time>
      </trkpt>
      <trkpt lat="45.91055" lon="3.03616">
        <ele>677.3</ele>
        <time>1970-01-01T03:31:00.000Z</time>
      </trkpt>
      <trkpt lat="45.91059" lon="3.0362">
        <ele>676.8</ele>
        <time>1970-01-01T03:31:01.000Z</time>
      </trkpt>
      <trkpt lat="45.91061" lon="3.03626">
        <ele>676.3</ele>
        <time>1970-01-01T03:31:02.000Z</time>
      </trkpt>
      <trkpt lat="45.91065" lon="3.03631">
        <ele>675.7</ele>
        <time>1970-01-01T03:31:04.000Z</time>
      </trkpt>
      <trkpt lat="45.91069" lon="3.0364">
        <ele>674.9</ele>
        <time>1970-01-01T03:31:05.000Z</time>
      </trkpt>
      <trkpt lat="45.91073" lon="3.03638">
        <ele>674.5</ele>
        <time>1970-01-01T03:31:06.000Z</time>
      </trkpt>
      <trkpt lat="45.91076" lon="3.03641">
        <ele>673.9</ele>
        <time>1970-01-01T03:31:07.000Z</time>
      </trkpt>
      <trkpt lat="45.91081" lon="3.03647">
        <ele>673.2</ele>
        <time>1970-01-01T03:31:08.000Z</time>
      </trkpt>
      <trkpt lat="45.91084" lon="3.03652">
        <ele>672.6</ele>
        <time>1970-01-01T03:31:09.000Z</time>
      </trkpt>
      <trkpt lat="45.91088" lon="3.03659">
        <ele>671.7</ele>
        <time>1970-01-01T03:31:11.000Z</time>
      </trkpt>
      <trkpt lat="45.91091" lon="3.03668">
        <ele>670.8</ele>
        <time>1970-01-01T03:31:13.000Z</time>
      </trkpt>
      <trkpt lat="45.91093" lon="3.03673">
        <ele>670.3</ele>
        <time>1970-01-01T03:31:14.000Z</time>
      </trkpt>
      <trkpt lat="45.91095" lon="3.03678">
        <ele>669.8</ele>
        <time>1970-01-01T03:31:15.000Z</time>
      </trkpt>
      <trkpt lat="45.91095" lon="3.03685">
        <ele>669.2</ele>
        <time>1970-01-01T03:31:16.000Z</time>
      </trkpt>
      <trkpt lat="45.91097" lon="3.03693">
        <ele>668.5</ele>
        <time>1970-01-01T03:31:18.000Z</time>
      </trkpt>
      <trkpt lat="45.91103" lon="3.03699">
        <ele>667.5</ele>
        <time>1970-01-01T03:31:19.000Z</time>
      </trkpt>
      <trkpt lat="45.91107" lon="3.03702">
        <ele>666.9</ele>
        <time>1970-01-01T03:31:20.000Z</time>
      </trkpt>
      <trkpt lat="45.9111" lon="3.03708">
        <ele>666.3</ele>
        <time>1970-01-01T03:31:21.000Z</time>
      </trkpt>
      <trkpt lat="45.91112" lon="3.03711">
        <ele>666</ele>
        <time>1970-01-01T03:31:22.000Z</time>
      </trkpt>
      <trkpt lat="45.91114" lon="3.03719">
        <ele>665.2</ele>
        <time>1970-01-01T03:31:24.000Z</time>
      </trkpt>
      <trkpt lat="45.9112" lon="3.03723">
        <ele>664.3</ele>
        <time>1970-01-01T03:31:25.000Z</time>
      </trkpt>
      <trkpt lat="45.91125" lon="3.03726">
        <ele>663.5</ele>
        <time>1970-01-01T03:31:26.000Z</time>
      </trkpt>
      <trkpt lat="45.91126" lon="3.03732">
        <ele>663</ele>
        <time>1970-01-01T03:31:27.000Z</time>
      </trkpt>
      <trkpt lat="45.91128" lon="3.03735">
        <ele>662.6</ele>
        <time>1970-01-01T03:31:28.000Z</time>
      </trkpt>
      <trkpt lat="45.9113" lon="3.0374">
        <ele>662</ele>
        <time>1970-01-01T03:31:29.000Z</time>
      </trkpt>
      <trkpt lat="45.91136" lon="3.03744">
        <ele>661.2</ele>
        <time>1970-01-01T03:31:30.000Z</time>
      </trkpt>
      <trkpt lat="45.91139" lon="3.03751">
        <ele>660.6</ele>
        <time>1970-01-01T03:31:32.000Z</time>
      </trkpt>
      <trkpt lat="45.91138" lon="3.03758">
        <ele>660.1</ele>
        <time>1970-01-01T03:31:33.000Z</time>
      </trkpt>
      <trkpt lat="45.91137" lon="3.03762">
        <ele>659.7</ele>
        <time>1970-01-01T03:31:34.000Z</time>
      </trkpt>
      <trkpt lat="45.91137" lon="3.03767">
        <ele>659.4</ele>
        <time>1970-01-01T03:31:35.000Z</time>
      </trkpt>
      <trkpt lat="45.91137" lon="3.03773">
        <ele>659</ele>
        <time>1970-01-01T03:31:36.000Z</time>
      </trkpt>
      <trkpt lat="45.9114" lon="3.03778">
        <ele>658.5</ele>
        <time>1970-01-01T03:31:37.000Z</time>
      </trkpt>
      <trkpt lat="45.91142" lon="3.03788">
        <ele>657.9</ele>
        <time>1970-01-01T03:31:39.000Z</time>
      </trkpt>
      <trkpt lat="45.91141" lon="3.03794">
        <ele>657.4</ele>
        <time>1970-01-01T03:31:40.000Z</time>
      </trkpt>
      <trkpt lat="45.91141" lon="3.03797">
        <ele>657.3</ele>
        <time>1970-01-01T03:31:41.000Z</time>
      </trkpt>
      <trkpt lat="45.91142" lon="3.03798">
        <ele>657.1</ele>
        <time>1970-01-01T03:31:42.000Z</time>
      </trkpt>
      <trkpt lat="45.91143" lon="3.03799">
        <ele>657</ele>
        <time>1970-01-01T03:31:43.000Z</time>
      </trkpt>
      <trkpt lat="45.91142" lon="3.03804">
        <ele>656.7</ele>
        <time>1970-01-01T03:31:45.000Z</time>
      </trkpt>
      <trkpt lat="45.91142" lon="3.03806">
        <ele>656.6</ele>
        <time>1970-01-01T03:31:46.000Z</time>
      </trkpt>
      <trkpt lat="45.91141" lon="3.0381">
        <ele>656.3</ele>
        <time>1970-01-01T03:31:47.000Z</time>
      </trkpt>
      <trkpt lat="45.9114" lon="3.03815">
        <ele>656</ele>
        <time>1970-01-01T03:31:48.000Z</time>
      </trkpt>
      <trkpt lat="45.91139" lon="3.03823">
        <ele>655.5</ele>
        <time>1970-01-01T03:31:50.000Z</time>
      </trkpt>
      <trkpt lat="45.91138" lon="3.03827">
        <ele>655.2</ele>
        <time>1970-01-01T03:31:51.000Z</time>
      </trkpt>
      <trkpt lat="45.91139" lon="3.03832">
        <ele>654.9</ele>
        <time>1970-01-01T03:31:52.000Z</time>
      </trkpt>
      <trkpt lat="45.91141" lon="3.03836">
        <ele>654.6</ele>
        <time>1970-01-01T03:31:54.000Z</time>
      </trkpt>
      <trkpt lat="45.91143" lon="3.0384">
        <ele>654.3</ele>
        <time>1970-01-01T03:31:55.000Z</time>
      </trkpt>
      <trkpt lat="45.91144" lon="3.03845">
        <ele>654</ele>
        <time>1970-01-01T03:31:56.000Z</time>
      </trkpt>
      <trkpt lat="45.91145" lon="3.03847">
        <ele>653.9</ele>
        <time>1970-01-01T03:31:57.000Z</time>
      </trkpt>
      <trkpt lat="45.91145" lon="3.0385">
        <ele>653.7</ele>
        <time>1970-01-01T03:31:58.000Z</time>
      </trkpt>
      <trkpt lat="45.91146" lon="3.03856">
        <ele>653.3</ele>
        <time>1970-01-01T03:32:00.000Z</time>
      </trkpt>
      <trkpt lat="45.91147" lon="3.03862">
        <ele>653</ele>
        <time>1970-01-01T03:32:01.000Z</time>
      </trkpt>
      <trkpt lat="45.91148" lon="3.03867">
        <ele>652.7</ele>
        <time>1970-01-01T03:32:02.000Z</time>
      </trkpt>
      <trkpt lat="45.91152" lon="3.0387">
        <ele>652.3</ele>
        <time>1970-01-01T03:32:03.000Z</time>
      </trkpt>
      <trkpt lat="45.91156" lon="3.03873">
        <ele>652</ele>
        <time>1970-01-01T03:32:05.000Z</time>
      </trkpt>
      <trkpt lat="45.91158" lon="3.03877">
        <ele>651.7</ele>
        <time>1970-01-01T03:32:06.000Z</time>
      </trkpt>
      <trkpt lat="45.9116" lon="3.0388">
        <ele>651.5</ele>
        <time>1970-01-01T03:32:07.000Z</time>
      </trkpt>
      <trkpt lat="45.91162" lon="3.03885">
        <ele>651.2</ele>
        <time>1970-01-01T03:32:09.000Z</time>
      </trkpt>
      <trkpt lat="45.91163" lon="3.03889">
        <ele>651</ele>
        <time>1970-01-01T03:32:10.000Z</time>
      </trkpt>
      <trkpt lat="45.91163" lon="3.03894">
        <ele>650.7</ele>
        <time>1970-01-01T03:32:11.000Z</time>
      </trkpt>
      <trkpt lat="45.91163" lon="3.03896">
        <ele>650.6</ele>
        <time>1970-01-01T03:32:12.000Z</time>
      </trkpt>
      <trkpt lat="45.91163" lon="3.03901">
        <ele>650.4</ele>
        <time>1970-01-01T03:32:13.000Z</time>
      </trkpt>
      <trkpt lat="45.91164" lon="3.03908">
        <ele>650</ele>
        <time>1970-01-01T03:32:14.000Z</time>
      </trkpt>
      <trkpt lat="45.91166" lon="3.03912">
        <ele>649.9</ele>
        <time>1970-01-01T03:32:15.000Z</time>
      </trkpt>
      <trkpt lat="45.91166" lon="3.03916">
        <ele>649.9</ele>
        <time>1970-01-01T03:32:16.000Z</time>
      </trkpt>
      <trkpt lat="45.91168" lon="3.03921">
        <ele>649.9</ele>
        <time>1970-01-01T03:32:17.000Z</time>
      </trkpt>
      <trkpt lat="45.91169" lon="3.03928">
        <ele>649.2</ele>
        <time>1970-01-01T03:32:19.000Z</time>
      </trkpt>
      <trkpt lat="45.91172" lon="3.0394">
        <ele>649.2</ele>
        <time>1970-01-01T03:32:20.000Z</time>
      </trkpt>
      <trkpt lat="45.91174" lon="3.03946">
        <ele>648.1</ele>
        <time>1970-01-01T03:32:21.000Z</time>
      </trkpt>
      <trkpt lat="45.91176" lon="3.03952">
        <ele>647.5</ele>
        <time>1970-01-01T03:32:22.000Z</time>
      </trkpt>
      <trkpt lat="45.91176" lon="3.03956">
        <ele>647.5</ele>
        <time>1970-01-01T03:32:23.000Z</time>
      </trkpt>
      <trkpt lat="45.91177" lon="3.03963">
        <ele>646.5</ele>
        <time>1970-01-01T03:32:24.000Z</time>
      </trkpt>
      <trkpt lat="45.9118" lon="3.03969">
        <ele>646.5</ele>
        <time>1970-01-01T03:32:25.000Z</time>
      </trkpt>
      <trkpt lat="45.91179" lon="3.03976">
        <ele>646.5</ele>
        <time>1970-01-01T03:32:27.000Z</time>
      </trkpt>
      <trkpt lat="45.91177" lon="3.03979">
        <ele>645.1</ele>
        <time>1970-01-01T03:32:28.000Z</time>
      </trkpt>
      <trkpt lat="45.91175" lon="3.03984">
        <ele>645.3</ele>
        <time>1970-01-01T03:32:29.000Z</time>
      </trkpt>
      <trkpt lat="45.91175" lon="3.03986">
        <ele>645.3</ele>
        <time>1970-01-01T03:32:30.000Z</time>
      </trkpt>
      <trkpt lat="45.91175" lon="3.0399">
        <ele>645</ele>
        <time>1970-01-01T03:32:31.000Z</time>
      </trkpt>
      <trkpt lat="45.91176" lon="3.03993">
        <ele>645</ele>
        <time>1970-01-01T03:32:32.000Z</time>
      </trkpt>
      <trkpt lat="45.91176" lon="3.03995">
        <ele>645</ele>
        <time>1970-01-01T03:32:33.000Z</time>
      </trkpt>
      <trkpt lat="45.91175" lon="3.04">
        <ele>643</ele>
        <time>1970-01-01T03:32:35.000Z</time>
      </trkpt>
      <trkpt lat="45.91176" lon="3.04005">
        <ele>643</ele>
        <time>1970-01-01T03:32:36.000Z</time>
      </trkpt>
      <trkpt lat="45.91178" lon="3.04013">
        <ele>640.9</ele>
        <time>1970-01-01T03:32:37.000Z</time>
      </trkpt>
      <trkpt lat="45.91182" lon="3.04025">
        <ele>640.9</ele>
        <time>1970-01-01T03:32:39.000Z</time>
      </trkpt>
      <trkpt lat="45.91183" lon="3.0403">
        <ele>638.3</ele>
        <time>1970-01-01T03:32:40.000Z</time>
      </trkpt>
      <trkpt lat="45.91184" lon="3.04035">
        <ele>638.3</ele>
        <time>1970-01-01T03:32:41.000Z</time>
      </trkpt>
      <trkpt lat="45.91186" lon="3.04035">
        <ele>638.3</ele>
        <time>1970-01-01T03:32:42.000Z</time>
      </trkpt>
      <trkpt lat="45.91189" lon="3.04036">
        <ele>637.5</ele>
        <time>1970-01-01T03:32:44.000Z</time>
      </trkpt>
      <trkpt lat="45.91189" lon="3.04036">
        <ele>637.5</ele>
        <time>1970-01-01T03:32:45.000Z</time>
      </trkpt>
      <trkpt lat="45.9119" lon="3.04041">
        <ele>637.4</ele>
        <time>1970-01-01T03:32:46.000Z</time>
      </trkpt>
      <trkpt lat="45.91191" lon="3.04045">
        <ele>637.4</ele>
        <time>1970-01-01T03:32:47.000Z</time>
      </trkpt>
      <trkpt lat="45.91192" lon="3.0405">
        <ele>634.6</ele>
        <time>1970-01-01T03:32:48.000Z</time>
      </trkpt>
      <trkpt lat="45.91191" lon="3.04055">
        <ele>634.5</ele>
        <time>1970-01-01T03:32:49.000Z</time>
      </trkpt>
      <trkpt lat="45.91191" lon="3.0406">
        <ele>634.5</ele>
        <time>1970-01-01T03:32:50.000Z</time>
      </trkpt>
      <trkpt lat="45.91191" lon="3.04065">
        <ele>631.3</ele>
        <time>1970-01-01T03:32:52.000Z</time>
      </trkpt>
      <trkpt lat="45.91192" lon="3.04071">
        <ele>631.3</ele>
        <time>1970-01-01T03:32:53.000Z</time>
      </trkpt>
      <trkpt lat="45.91194" lon="3.04073">
        <ele>631.3</ele>
        <time>1970-01-01T03:32:54.000Z</time>
      </trkpt>
      <trkpt lat="45.91196" lon="3.04075">
        <ele>631.2</ele>
        <time>1970-01-01T03:32:56.000Z</time>
      </trkpt>
      <trkpt lat="45.91196" lon="3.04074">
        <ele>631.2</ele>
        <time>1970-01-01T03:32:57.000Z</time>
      </trkpt>
      <trkpt lat="45.91196" lon="3.04074">
        <ele>631.2</ele>
        <time>1970-01-01T03:32:58.000Z</time>
      </trkpt>
      <trkpt lat="45.91196" lon="3.04074">
        <ele>631.1</ele>
        <time>1970-01-01T03:32:59.000Z</time>
      </trkpt>
      <trkpt lat="45.91196" lon="3.04073">
        <ele>631.1</ele>
        <time>1970-01-01T03:33:00.000Z</time>
      </trkpt>
      <trkpt lat="45.91196" lon="3.04073">
        <ele>631.1</ele>
        <time>1970-01-01T03:33:01.000Z</time>
      </trkpt>
      <trkpt lat="45.91196" lon="3.04073">
        <ele>631</ele>
        <time>1970-01-01T03:33:02.000Z</time>
      </trkpt>
      <trkpt lat="45.91196" lon="3.04073">
        <ele>631</ele>
        <time>1970-01-01T03:33:03.000Z</time>
      </trkpt>
      <trkpt lat="45.91196" lon="3.04073">
        <ele>631</ele>
        <time>1970-01-01T03:33:04.000Z</time>
      </trkpt>
      <trkpt lat="45.91196" lon="3.04073">
        <ele>630.9</ele>
        <time>1970-01-01T03:33:05.000Z</time>
      </trkpt>
      <trkpt lat="45.91196" lon="3.04073">
        <ele>630.9</ele>
        <time>1970-01-01T03:33:06.000Z</time>
      </trkpt>
      <trkpt lat="45.91196" lon="3.04073">
        <ele>630.9</ele>
        <time>1970-01-01T03:33:07.000Z</time>
      </trkpt>
      <trkpt lat="45.91195" lon="3.04078">
        <ele>630.8</ele>
        <time>1970-01-01T03:33:13.000Z</time>
      </trkpt>
      <trkpt lat="45.91195" lon="3.04079">
        <ele>630.8</ele>
        <time>1970-01-01T03:33:14.000Z</time>
      </trkpt>
      <trkpt lat="45.91194" lon="3.0408">
        <ele>630.8</ele>
        <time>1970-01-01T03:33:15.000Z</time>
      </trkpt>
      <trkpt lat="45.91194" lon="3.04081">
        <ele>630.7</ele>
        <time>1970-01-01T03:33:16.000Z</time>
      </trkpt>
      <trkpt lat="45.91194" lon="3.04081">
        <ele>627.3</ele>
        <time>1970-01-01T03:33:17.000Z</time>
      </trkpt>
      <trkpt lat="45.91194" lon="3.04082">
        <ele>627.2</ele>
        <time>1970-01-01T03:33:18.000Z</time>
      </trkpt>
      <trkpt lat="45.91193" lon="3.04083">
        <ele>627.2</ele>
        <time>1970-01-01T03:33:19.000Z</time>
      </trkpt>
      <trkpt lat="45.91193" lon="3.04085">
        <ele>627.2</ele>
        <time>1970-01-01T03:33:20.000Z</time>
      </trkpt>
      <trkpt lat="45.91193" lon="3.04086">
        <ele>627.1</ele>
        <time>1970-01-01T03:33:21.000Z</time>
      </trkpt>
      <trkpt lat="45.91192" lon="3.04087">
        <ele>627.1</ele>
        <time>1970-01-01T03:33:23.000Z</time>
      </trkpt>
      <trkpt lat="45.91192" lon="3.04088">
        <ele>627.1</ele>
        <time>1970-01-01T03:33:24.000Z</time>
      </trkpt>
      <trkpt lat="45.91192" lon="3.04089">
        <ele>627</ele>
        <time>1970-01-01T03:33:26.000Z</time>
      </trkpt>
      <trkpt lat="45.91191" lon="3.0409">
        <ele>627</ele>
        <time>1970-01-01T03:33:27.000Z</time>
      </trkpt>
      <trkpt lat="45.91191" lon="3.04091">
        <ele>627</ele>
        <time>1970-01-01T03:33:28.000Z</time>
      </trkpt>
      <trkpt lat="45.9119" lon="3.04092">
        <ele>626.9</ele>
        <time>1970-01-01T03:33:29.000Z</time>
      </trkpt>
      <trkpt lat="45.9119" lon="3.04092">
        <ele>626.9</ele>
        <time>1970-01-01T03:33:30.000Z</time>
      </trkpt>
      <trkpt lat="45.9119" lon="3.04093">
        <ele>626.9</ele>
        <time>1970-01-01T03:33:31.000Z</time>
      </trkpt>
      <trkpt lat="45.91189" lon="3.04093">
        <ele>626.8</ele>
        <time>1970-01-01T03:33:32.000Z</time>
      </trkpt>
      <trkpt lat="45.91189" lon="3.04094">
        <ele>626.8</ele>
        <time>1970-01-01T03:33:33.000Z</time>
      </trkpt>
      <trkpt lat="45.91188" lon="3.04094">
        <ele>626.8</ele>
        <time>1970-01-01T03:33:34.000Z</time>
      </trkpt>
      <trkpt lat="45.91188" lon="3.04097">
        <ele>626.7</ele>
        <time>1970-01-01T03:33:36.000Z</time>
      </trkpt>
      <trkpt lat="45.91188" lon="3.04097">
        <ele>626.7</ele>
        <time>1970-01-01T03:33:37.000Z</time>
      </trkpt>
      <trkpt lat="45.91188" lon="3.04097">
        <ele>626.7</ele>
        <time>1970-01-01T03:33:39.000Z</time>
      </trkpt>
      <trkpt lat="45.91188" lon="3.04097">
        <ele>626.6</ele>
        <time>1970-01-01T03:33:40.000Z</time>
      </trkpt>
      <trkpt lat="45.91188" lon="3.04098">
        <ele>626.6</ele>
        <time>1970-01-01T03:33:41.000Z</time>
      </trkpt>
      <trkpt lat="45.91188" lon="3.04098">
        <ele>626.6</ele>
        <time>1970-01-01T03:33:42.000Z</time>
      </trkpt>
      <trkpt lat="45.91188" lon="3.04098">
        <ele>626.6</ele>
        <time>1970-01-01T03:33:43.000Z</time>
      </trkpt>
      <trkpt lat="45.91188" lon="3.04099">
        <ele>623.3</ele>
        <time>1970-01-01T03:33:44.000Z</time>
      </trkpt>
      <trkpt lat="45.91187" lon="3.04099">
        <ele>623.3</ele>
        <time>1970-01-01T03:33:45.000Z</time>
      </trkpt>
      <trkpt lat="45.91187" lon="3.04099">
        <ele>623.3</ele>
        <time>1970-01-01T03:33:46.000Z</time>
      </trkpt>
      <trkpt lat="45.91185" lon="3.04098">
        <ele>623.9</ele>
        <time>1970-01-01T03:33:52.000Z</time>
      </trkpt>
      <trkpt lat="45.91183" lon="3.04099">
        <ele>623.9</ele>
        <time>1970-01-01T03:33:54.000Z</time>
      </trkpt>
      <trkpt lat="45.91182" lon="3.041">
        <ele>623.9</ele>
        <time>1970-01-01T03:33:56.000Z</time>
      </trkpt>
      <trkpt lat="45.91182" lon="3.04101">
        <ele>623.9</ele>
        <time>1970-01-01T03:33:57.000Z</time>
      </trkpt>
      <trkpt lat="45.91182" lon="3.04101">
        <ele>623.8</ele>
        <time>1970-01-01T03:33:58.000Z</time>
      </trkpt>
      <trkpt lat="45.91182" lon="3.04101">
        <ele>623.8</ele>
        <time>1970-01-01T03:33:59.000Z</time>
      </trkpt>
      <trkpt lat="45.91181" lon="3.04102">
        <ele>623.8</ele>
        <time>1970-01-01T03:34:00.000Z</time>
      </trkpt>
      <trkpt lat="45.91181" lon="3.04102">
        <ele>623.7</ele>
        <time>1970-01-01T03:34:01.000Z</time>
      </trkpt>
      <trkpt lat="45.9118" lon="3.04104">
        <ele>623.7</ele>
        <time>1970-01-01T03:34:02.000Z</time>
      </trkpt>
      <trkpt lat="45.91177" lon="3.04106">
        <ele>623.7</ele>
        <time>1970-01-01T03:34:03.000Z</time>
      </trkpt>
      <trkpt lat="45.91177" lon="3.04107">
        <ele>623.6</ele>
        <time>1970-01-01T03:34:04.000Z</time>
      </trkpt>
      <trkpt lat="45.91176" lon="3.04111">
        <ele>623.6</ele>
        <time>1970-01-01T03:34:06.000Z</time>
      </trkpt>
      <trkpt lat="45.91176" lon="3.04113">
        <ele>623.6</ele>
        <time>1970-01-01T03:34:07.000Z</time>
      </trkpt>
      <trkpt lat="45.91177" lon="3.04114">
        <ele>623.5</ele>
        <time>1970-01-01T03:34:08.000Z</time>
      </trkpt>
      <trkpt lat="45.91177" lon="3.04115">
        <ele>623.5</ele>
        <time>1970-01-01T03:34:09.000Z</time>
      </trkpt>
      <trkpt lat="45.91177" lon="3.04115">
        <ele>623.5</ele>
        <time>1970-01-01T03:34:10.000Z</time>
      </trkpt>
      <trkpt lat="45.91177" lon="3.04115">
        <ele>619.9</ele>
        <time>1970-01-01T03:34:11.000Z</time>
      </trkpt>
      <trkpt lat="45.91177" lon="3.04116">
        <ele>619.8</ele>
        <time>1970-01-01T03:34:12.000Z</time>
      </trkpt>
      <trkpt lat="45.91177" lon="3.04116">
        <ele>619.8</ele>
        <time>1970-01-01T03:34:13.000Z</time>
      </trkpt>
      <trkpt lat="45.91177" lon="3.04117">
        <ele>619.8</ele>
        <time>1970-01-01T03:34:14.000Z</time>
      </trkpt>
      <trkpt lat="45.91177" lon="3.04117">
        <ele>619.7</ele>
        <time>1970-01-01T03:34:15.000Z</time>
      </trkpt>
      <trkpt lat="45.91177" lon="3.04117">
        <ele>619.7</ele>
        <time>1970-01-01T03:34:16.000Z</time>
      </trkpt>
      <trkpt lat="45.91177" lon="3.04118">
        <ele>619.7</ele>
        <time>1970-01-01T03:34:17.000Z</time>
      </trkpt>
      <trkpt lat="45.91177" lon="3.04118">
        <ele>619.6</ele>
        <time>1970-01-01T03:34:19.000Z</time>
      </trkpt>
      <trkpt lat="45.91177" lon="3.04119">
        <ele>619.6</ele>
        <time>1970-01-01T03:34:20.000Z</time>
      </trkpt>
      <trkpt lat="45.91178" lon="3.04119">
        <ele>619.6</ele>
        <time>1970-01-01T03:34:21.000Z</time>
      </trkpt>
      <trkpt lat="45.91178" lon="3.04119">
        <ele>619.5</ele>
        <time>1970-01-01T03:34:22.000Z</time>
      </trkpt>
      <trkpt lat="45.91178" lon="3.0412">
        <ele>619.5</ele>
        <time>1970-01-01T03:34:23.000Z</time>
      </trkpt>
      <trkpt lat="45.91178" lon="3.0412">
        <ele>619.5</ele>
        <time>1970-01-01T03:34:24.000Z</time>
      </trkpt>
      <trkpt lat="45.91178" lon="3.0412">
        <ele>619.4</ele>
        <time>1970-01-01T03:34:25.000Z</time>
      </trkpt>
      <trkpt lat="45.91178" lon="3.04121">
        <ele>619.4</ele>
        <time>1970-01-01T03:34:26.000Z</time>
      </trkpt>
      <trkpt lat="45.91178" lon="3.04121">
        <ele>619.4</ele>
        <time>1970-01-01T03:34:28.000Z</time>
      </trkpt>
      <trkpt lat="45.91178" lon="3.04122">
        <ele>619.3</ele>
        <time>1970-01-01T03:34:29.000Z</time>
      </trkpt>
      <trkpt lat="45.91178" lon="3.04124">
        <ele>619.3</ele>
        <time>1970-01-01T03:34:30.000Z</time>
      </trkpt>
      <trkpt lat="45.91177" lon="3.04126">
        <ele>619.3</ele>
        <time>1970-01-01T03:34:32.000Z</time>
      </trkpt>
      <trkpt lat="45.91176" lon="3.04126">
        <ele>619.2</ele>
        <time>1970-01-01T03:34:34.000Z</time>
      </trkpt>
      <trkpt lat="45.91175" lon="3.04126">
        <ele>619.2</ele>
        <time>1970-01-01T03:34:35.000Z</time>
      </trkpt>
      <trkpt lat="45.91175" lon="3.04127">
        <ele>619.5</ele>
        <time>1970-01-01T03:34:36.000Z</time>
      </trkpt>
      <trkpt lat="45.91175" lon="3.04127">
        <ele>619.4</ele>
        <time>1970-01-01T03:34:37.000Z</time>
      </trkpt>
      <trkpt lat="45.91174" lon="3.04126">
        <ele>619.4</ele>
        <time>1970-01-01T03:34:38.000Z</time>
      </trkpt>
      <trkpt lat="45.91174" lon="3.04126">
        <ele>619.4</ele>
        <time>1970-01-01T03:34:39.000Z</time>
      </trkpt>
      <trkpt lat="45.91174" lon="3.04126">
        <ele>619.3</ele>
        <time>1970-01-01T03:34:40.000Z</time>
      </trkpt>
      <trkpt lat="45.91174" lon="3.04126">
        <ele>619.3</ele>
        <time>1970-01-01T03:34:41.000Z</time>
      </trkpt>
      <trkpt lat="45.91174" lon="3.04126">
        <ele>619.3</ele>
        <time>1970-01-01T03:34:43.000Z</time>
      </trkpt>
      <trkpt lat="45.91174" lon="3.04126">
        <ele>619.3</ele>
        <time>1970-01-01T03:34:44.000Z</time>
      </trkpt>
      <trkpt lat="45.91174" lon="3.04127">
        <ele>619.2</ele>
        <time>1970-01-01T03:34:45.000Z</time>
      </trkpt>
      <trkpt lat="45.91173" lon="3.04127">
        <ele>619.2</ele>
        <time>1970-01-01T03:34:46.000Z</time>
      </trkpt>
      <trkpt lat="45.91172" lon="3.04129">
        <ele>619.2</ele>
        <time>1970-01-01T03:34:47.000Z</time>
      </trkpt>
      <trkpt lat="45.9117" lon="3.0413">
        <ele>619.1</ele>
        <time>1970-01-01T03:34:48.000Z</time>
      </trkpt>
      <trkpt lat="45.91169" lon="3.04132">
        <ele>619.1</ele>
        <time>1970-01-01T03:34:50.000Z</time>
      </trkpt>
      <trkpt lat="45.91168" lon="3.04132">
        <ele>619.1</ele>
        <time>1970-01-01T03:34:51.000Z</time>
      </trkpt>
      <trkpt lat="45.91167" lon="3.04132">
        <ele>619</ele>
        <time>1970-01-01T03:34:52.000Z</time>
      </trkpt>
      <trkpt lat="45.91167" lon="3.04131">
        <ele>619</ele>
        <time>1970-01-01T03:34:53.000Z</time>
      </trkpt>
      <trkpt lat="45.91166" lon="3.04131">
        <ele>619</ele>
        <time>1970-01-01T03:34:54.000Z</time>
      </trkpt>
      <trkpt lat="45.91166" lon="3.04131">
        <ele>618.9</ele>
        <time>1970-01-01T03:34:55.000Z</time>
      </trkpt>
      <trkpt lat="45.91165" lon="3.04131">
        <ele>618.9</ele>
        <time>1970-01-01T03:34:56.000Z</time>
      </trkpt>
      <trkpt lat="45.91162" lon="3.0413">
        <ele>618.6</ele>
        <time>1970-01-01T03:34:58.000Z</time>
      </trkpt>
      <trkpt lat="45.91159" lon="3.0413">
        <ele>618.6</ele>
        <time>1970-01-01T03:34:59.000Z</time>
      </trkpt>
      <trkpt lat="45.91159" lon="3.0413">
        <ele>618.6</ele>
        <time>1970-01-01T03:35:00.000Z</time>
      </trkpt>
      <trkpt lat="45.91159" lon="3.04129">
        <ele>618.5</ele>
        <time>1970-01-01T03:35:01.000Z</time>
      </trkpt>
      <trkpt lat="45.91159" lon="3.04129">
        <ele>618.5</ele>
        <time>1970-01-01T03:35:02.000Z</time>
      </trkpt>
      <trkpt lat="45.9116" lon="3.04129">
        <ele>618.5</ele>
        <time>1970-01-01T03:35:03.000Z</time>
      </trkpt>
      <trkpt lat="45.9116" lon="3.04129">
        <ele>618.4</ele>
        <time>1970-01-01T03:35:04.000Z</time>
      </trkpt>
      <trkpt lat="45.9116" lon="3.04129">
        <ele>618.4</ele>
        <time>1970-01-01T03:35:05.000Z</time>
      </trkpt>
      <trkpt lat="45.9116" lon="3.04129">
        <ele>618.4</ele>
        <time>1970-01-01T03:35:06.000Z</time>
      </trkpt>
      <trkpt lat="45.91159" lon="3.04129">
        <ele>618.3</ele>
        <time>1970-01-01T03:35:07.000Z</time>
      </trkpt>
      <trkpt lat="45.91158" lon="3.04129">
        <ele>618.3</ele>
        <time>1970-01-01T03:35:08.000Z</time>
      </trkpt>
      <trkpt lat="45.91157" lon="3.0413">
        <ele>618.3</ele>
        <time>1970-01-01T03:35:09.000Z</time>
      </trkpt>
      <trkpt lat="45.91157" lon="3.0413">
        <ele>618.2</ele>
        <time>1970-01-01T03:35:10.000Z</time>
      </trkpt>
      <trkpt lat="45.91155" lon="3.04132">
        <ele>618.2</ele>
        <time>1970-01-01T03:35:11.000Z</time>
      </trkpt>
      <trkpt lat="45.91154" lon="3.04133">
        <ele>614.7</ele>
        <time>1970-01-01T03:35:12.000Z</time>
      </trkpt>
      <trkpt lat="45.91154" lon="3.04134">
        <ele>614.7</ele>
        <time>1970-01-01T03:35:13.000Z</time>
      </trkpt>
      <trkpt lat="45.91153" lon="3.04135">
        <ele>614.7</ele>
        <time>1970-01-01T03:35:14.000Z</time>
      </trkpt>
      <trkpt lat="45.91151" lon="3.04136">
        <ele>614.6</ele>
        <time>1970-01-01T03:35:15.000Z</time>
      </trkpt>
      <trkpt lat="45.91151" lon="3.04137">
        <ele>613.9</ele>
        <time>1970-01-01T03:35:16.000Z</time>
      </trkpt>
      <trkpt lat="45.9115" lon="3.04138">
        <ele>613.8</ele>
        <time>1970-01-01T03:35:18.000Z</time>
      </trkpt>
      <trkpt lat="45.9115" lon="3.04139">
        <ele>613.8</ele>
        <time>1970-01-01T03:35:19.000Z</time>
      </trkpt>
      <trkpt lat="45.9115" lon="3.0414">
        <ele>613.8</ele>
        <time>1970-01-01T03:35:20.000Z</time>
      </trkpt>
      <trkpt lat="45.91149" lon="3.04141">
        <ele>613.7</ele>
        <time>1970-01-01T03:35:21.000Z</time>
      </trkpt>
      <trkpt lat="45.91149" lon="3.04142">
        <ele>613.7</ele>
        <time>1970-01-01T03:35:22.000Z</time>
      </trkpt>
      <trkpt lat="45.91148" lon="3.04143">
        <ele>613.7</ele>
        <time>1970-01-01T03:35:23.000Z</time>
      </trkpt>
      <trkpt lat="45.91147" lon="3.04143">
        <ele>613.6</ele>
        <time>1970-01-01T03:35:24.000Z</time>
      </trkpt>
      <trkpt lat="45.91146" lon="3.04145">
        <ele>613.6</ele>
        <time>1970-01-01T03:35:25.000Z</time>
      </trkpt>
      <trkpt lat="45.91147" lon="3.04146">
        <ele>613.6</ele>
        <time>1970-01-01T03:35:26.000Z</time>
      </trkpt>
      <trkpt lat="45.91147" lon="3.04148">
        <ele>613.5</ele>
        <time>1970-01-01T03:35:27.000Z</time>
      </trkpt>
      <trkpt lat="45.91147" lon="3.04148">
        <ele>613.5</ele>
        <time>1970-01-01T03:35:28.000Z</time>
      </trkpt>
      <trkpt lat="45.91147" lon="3.04148">
        <ele>613.5</ele>
        <time>1970-01-01T03:35:29.000Z</time>
      </trkpt>
      <trkpt lat="45.91148" lon="3.04148">
        <ele>613.4</ele>
        <time>1970-01-01T03:35:30.000Z</time>
      </trkpt>
      <trkpt lat="45.91148" lon="3.04148">
        <ele>613.4</ele>
        <time>1970-01-01T03:35:31.000Z</time>
      </trkpt>
      <trkpt lat="45.91148" lon="3.04149">
        <ele>613.4</ele>
        <time>1970-01-01T03:35:32.000Z</time>
      </trkpt>
      <trkpt lat="45.91148" lon="3.04152">
        <ele>610.1</ele>
        <time>1970-01-01T03:35:33.000Z</time>
      </trkpt>
      <trkpt lat="45.91148" lon="3.04153">
        <ele>610.1</ele>
        <time>1970-01-01T03:35:34.000Z</time>
      </trkpt>
      <trkpt lat="45.91148" lon="3.04155">
        <ele>610.1</ele>
        <time>1970-01-01T03:35:35.000Z</time>
      </trkpt>
      <trkpt lat="45.91146" lon="3.04159">
        <ele>610</ele>
        <time>1970-01-01T03:35:37.000Z</time>
      </trkpt>
      <trkpt lat="45.91146" lon="3.04159">
        <ele>610</ele>
        <time>1970-01-01T03:35:38.000Z</time>
      </trkpt>
      <trkpt lat="45.91144" lon="3.04162">
        <ele>610</ele>
        <time>1970-01-01T03:35:39.000Z</time>
      </trkpt>
      <trkpt lat="45.91143" lon="3.04164">
        <ele>609.9</ele>
        <time>1970-01-01T03:35:41.000Z</time>
      </trkpt>
      <trkpt lat="45.91141" lon="3.04169">
        <ele>606.5</ele>
        <time>1970-01-01T03:35:42.000Z</time>
      </trkpt>
      <trkpt lat="45.91141" lon="3.04171">
        <ele>606.5</ele>
        <time>1970-01-01T03:35:43.000Z</time>
      </trkpt>
      <trkpt lat="45.91143" lon="3.04177">
        <ele>606.4</ele>
        <time>1970-01-01T03:35:44.000Z</time>
      </trkpt>
      <trkpt lat="45.91144" lon="3.04181">
        <ele>606.4</ele>
        <time>1970-01-01T03:35:45.000Z</time>
      </trkpt>
      <trkpt lat="45.91144" lon="3.04185">
        <ele>603.2</ele>
        <time>1970-01-01T03:35:47.000Z</time>
      </trkpt>
      <trkpt lat="45.91143" lon="3.04186">
        <ele>603.2</ele>
        <time>1970-01-01T03:35:48.000Z</time>
      </trkpt>
      <trkpt lat="45.91142" lon="3.04189">
        <ele>603.2</ele>
        <time>1970-01-01T03:35:49.000Z</time>
      </trkpt>
      <trkpt lat="45.91141" lon="3.0419">
        <ele>603.1</ele>
        <time>1970-01-01T03:35:50.000Z</time>
      </trkpt>
      <trkpt lat="45.9114" lon="3.04193">
        <ele>603.1</ele>
        <time>1970-01-01T03:35:51.000Z</time>
      </trkpt>
      <trkpt lat="45.9114" lon="3.04195">
        <ele>603.1</ele>
        <time>1970-01-01T03:35:53.000Z</time>
      </trkpt>
      <trkpt lat="45.91141" lon="3.04195">
        <ele>603</ele>
        <time>1970-01-01T03:35:54.000Z</time>
      </trkpt>
      <trkpt lat="45.91141" lon="3.04194">
        <ele>603</ele>
        <time>1970-01-01T03:35:55.000Z</time>
      </trkpt>
      <trkpt lat="45.91141" lon="3.04194">
        <ele>603</ele>
        <time>1970-01-01T03:35:56.000Z</time>
      </trkpt>
      <trkpt lat="45.91141" lon="3.04194">
        <ele>602.9</ele>
        <time>1970-01-01T03:35:57.000Z</time>
      </trkpt>
      <trkpt lat="45.91141" lon="3.04194">
        <ele>602.9</ele>
        <time>1970-01-01T03:35:58.000Z</time>
      </trkpt>
      <trkpt lat="45.91141" lon="3.04194">
        <ele>602.9</ele>
        <time>1970-01-01T03:35:59.000Z</time>
      </trkpt>
      <trkpt lat="45.91141" lon="3.04194">
        <ele>602.8</ele>
        <time>1970-01-01T03:36:00.000Z</time>
      </trkpt>
      <trkpt lat="45.91141" lon="3.04194">
        <ele>602.8</ele>
        <time>1970-01-01T03:36:01.000Z</time>
      </trkpt>
      <trkpt lat="45.91141" lon="3.04195">
        <ele>602.8</ele>
        <time>1970-01-01T03:36:02.000Z</time>
      </trkpt>
      <trkpt lat="45.91142" lon="3.04195">
        <ele>602.7</ele>
        <time>1970-01-01T03:36:03.000Z</time>
      </trkpt>
      <trkpt lat="45.91142" lon="3.04199">
        <ele>602.7</ele>
        <time>1970-01-01T03:36:19.000Z</time>
      </trkpt>
      <trkpt lat="45.91142" lon="3.042">
        <ele>602.7</ele>
        <time>1970-01-01T03:36:20.000Z</time>
      </trkpt>
      <trkpt lat="45.91142" lon="3.04201">
        <ele>602.7</ele>
        <time>1970-01-01T03:36:21.000Z</time>
      </trkpt>
      <trkpt lat="45.91142" lon="3.04201">
        <ele>602.6</ele>
        <time>1970-01-01T03:36:22.000Z</time>
      </trkpt>
      <trkpt lat="45.91142" lon="3.04201">
        <ele>602.6</ele>
        <time>1970-01-01T03:36:23.000Z</time>
      </trkpt>
      <trkpt lat="45.91142" lon="3.04201">
        <ele>599.3</ele>
        <time>1970-01-01T03:36:24.000Z</time>
      </trkpt>
      <trkpt lat="45.91142" lon="3.04202">
        <ele>599.2</ele>
        <time>1970-01-01T03:36:25.000Z</time>
      </trkpt>
      <trkpt lat="45.91142" lon="3.04203">
        <ele>599.2</ele>
        <time>1970-01-01T03:36:26.000Z</time>
      </trkpt>
      <trkpt lat="45.91142" lon="3.04204">
        <ele>599.2</ele>
        <time>1970-01-01T03:36:27.000Z</time>
      </trkpt>
      <trkpt lat="45.91143" lon="3.04208">
        <ele>599.1</ele>
        <time>1970-01-01T03:36:29.000Z</time>
      </trkpt>
      <trkpt lat="45.91143" lon="3.0421">
        <ele>599.1</ele>
        <time>1970-01-01T03:36:30.000Z</time>
      </trkpt>
      <trkpt lat="45.91145" lon="3.04218">
        <ele>599.1</ele>
        <time>1970-01-01T03:36:31.000Z</time>
      </trkpt>
      <trkpt lat="45.91147" lon="3.04224">
        <ele>595.7</ele>
        <time>1970-01-01T03:36:33.000Z</time>
      </trkpt>
      <trkpt lat="45.91147" lon="3.0423">
        <ele>595.7</ele>
        <time>1970-01-01T03:36:34.000Z</time>
      </trkpt>
      <trkpt lat="45.91148" lon="3.04238">
        <ele>592.6</ele>
        <time>1970-01-01T03:36:36.000Z</time>
      </trkpt>
      <trkpt lat="45.91148" lon="3.0424">
        <ele>592.6</ele>
        <time>1970-01-01T03:36:37.000Z</time>
      </trkpt>
      <trkpt lat="45.91149" lon="3.04242">
        <ele>592.5</ele>
        <time>1970-01-01T03:36:38.000Z</time>
      </trkpt>
      <trkpt lat="45.91149" lon="3.04244">
        <ele>592.5</ele>
        <time>1970-01-01T03:36:40.000Z</time>
      </trkpt>
      <trkpt lat="45.91149" lon="3.04247">
        <ele>592.5</ele>
        <time>1970-01-01T03:36:41.000Z</time>
      </trkpt>
      <trkpt lat="45.91148" lon="3.04251">
        <ele>592.4</ele>
        <time>1970-01-01T03:36:43.000Z</time>
      </trkpt>
      <trkpt lat="45.91148" lon="3.04252">
        <ele>592.4</ele>
        <time>1970-01-01T03:36:44.000Z</time>
      </trkpt>
      <trkpt lat="45.91148" lon="3.04252">
        <ele>592.4</ele>
        <time>1970-01-01T03:36:45.000Z</time>
      </trkpt>
      <trkpt lat="45.91148" lon="3.04253">
        <ele>588.7</ele>
        <time>1970-01-01T03:36:46.000Z</time>
      </trkpt>
      <trkpt lat="45.91148" lon="3.04253">
        <ele>588.6</ele>
        <time>1970-01-01T03:36:47.000Z</time>
      </trkpt>
      <trkpt lat="45.91148" lon="3.04254">
        <ele>588.6</ele>
        <time>1970-01-01T03:36:48.000Z</time>
      </trkpt>
      <trkpt lat="45.91148" lon="3.04254">
        <ele>588.6</ele>
        <time>1970-01-01T03:36:49.000Z</time>
      </trkpt>
      <trkpt lat="45.91147" lon="3.04255">
        <ele>588.5</ele>
        <time>1970-01-01T03:36:50.000Z</time>
      </trkpt>
      <trkpt lat="45.91147" lon="3.04255">
        <ele>588.5</ele>
        <time>1970-01-01T03:36:51.000Z</time>
      </trkpt>
      <trkpt lat="45.91147" lon="3.04256">
        <ele>588.5</ele>
        <time>1970-01-01T03:36:52.000Z</time>
      </trkpt>
      <trkpt lat="45.91147" lon="3.04256">
        <ele>588.4</ele>
        <time>1970-01-01T03:36:53.000Z</time>
      </trkpt>
      <trkpt lat="45.91145" lon="3.04272">
        <ele>584.8</ele>
        <time>1970-01-01T03:36:55.000Z</time>
      </trkpt>
      <trkpt lat="45.91146" lon="3.04277">
        <ele>584.7</ele>
        <time>1970-01-01T03:36:56.000Z</time>
      </trkpt>
      <trkpt lat="45.91146" lon="3.0428">
        <ele>584.7</ele>
        <time>1970-01-01T03:36:57.000Z</time>
      </trkpt>
      <trkpt lat="45.91147" lon="3.04285">
        <ele>584.7</ele>
        <time>1970-01-01T03:36:58.000Z</time>
      </trkpt>
      <trkpt lat="45.91147" lon="3.04286">
        <ele>584.6</ele>
        <time>1970-01-01T03:36:59.000Z</time>
      </trkpt>
      <trkpt lat="45.91147" lon="3.04292">
        <ele>580.9</ele>
        <time>1970-01-01T03:37:00.000Z</time>
      </trkpt>
      <trkpt lat="45.91148" lon="3.04296">
        <ele>580.9</ele>
        <time>1970-01-01T03:37:01.000Z</time>
      </trkpt>
      <trkpt lat="45.91148" lon="3.043">
        <ele>580.8</ele>
        <time>1970-01-01T03:37:02.000Z</time>
      </trkpt>
      <trkpt lat="45.91149" lon="3.04305">
        <ele>576.8</ele>
        <time>1970-01-01T03:37:03.000Z</time>
      </trkpt>
      <trkpt lat="45.91149" lon="3.04306">
        <ele>576.8</ele>
        <time>1970-01-01T03:37:05.000Z</time>
      </trkpt>
      <trkpt lat="45.91149" lon="3.04307">
        <ele>576.8</ele>
        <time>1970-01-01T03:37:06.000Z</time>
      </trkpt>
      <trkpt lat="45.9115" lon="3.04309">
        <ele>576.7</ele>
        <time>1970-01-01T03:37:07.000Z</time>
      </trkpt>
      <trkpt lat="45.9115" lon="3.0431">
        <ele>576.7</ele>
        <time>1970-01-01T03:37:08.000Z</time>
      </trkpt>
      <trkpt lat="45.9115" lon="3.04311">
        <ele>576.7</ele>
        <time>1970-01-01T03:37:09.000Z</time>
      </trkpt>
      <trkpt lat="45.91152" lon="3.04315">
        <ele>575.9</ele>
        <time>1970-01-01T03:37:10.000Z</time>
      </trkpt>
      <trkpt lat="45.91153" lon="3.04316">
        <ele>575.9</ele>
        <time>1970-01-01T03:37:11.000Z</time>
      </trkpt>
      <trkpt lat="45.91156" lon="3.04319">
        <ele>575.8</ele>
        <time>1970-01-01T03:37:12.000Z</time>
      </trkpt>
      <trkpt lat="45.91156" lon="3.0432">
        <ele>575.8</ele>
        <time>1970-01-01T03:37:13.000Z</time>
      </trkpt>
      <trkpt lat="45.91159" lon="3.04323">
        <ele>572.3</ele>
        <time>1970-01-01T03:37:14.000Z</time>
      </trkpt>
      <trkpt lat="45.91162" lon="3.04326">
        <ele>572.3</ele>
        <time>1970-01-01T03:37:15.000Z</time>
      </trkpt>
      <trkpt lat="45.91162" lon="3.04328">
        <ele>572.3</ele>
        <time>1970-01-01T03:37:17.000Z</time>
      </trkpt>
      <trkpt lat="45.91163" lon="3.04329">
        <ele>570.9</ele>
        <time>1970-01-01T03:37:18.000Z</time>
      </trkpt>
      <trkpt lat="45.91164" lon="3.04331">
        <ele>570.9</ele>
        <time>1970-01-01T03:37:19.000Z</time>
      </trkpt>
      <trkpt lat="45.91165" lon="3.04338">
        <ele>570.9</ele>
        <time>1970-01-01T03:37:20.000Z</time>
      </trkpt>
      <trkpt lat="45.91166" lon="3.04341">
        <ele>567.2</ele>
        <time>1970-01-01T03:37:21.000Z</time>
      </trkpt>
      <trkpt lat="45.91167" lon="3.04345">
        <ele>567.2</ele>
        <time>1970-01-01T03:37:23.000Z</time>
      </trkpt>
      <trkpt lat="45.91167" lon="3.04349">
        <ele>567.2</ele>
        <time>1970-01-01T03:37:24.000Z</time>
      </trkpt>
      <trkpt lat="45.91167" lon="3.0435">
        <ele>567.1</ele>
        <time>1970-01-01T03:37:25.000Z</time>
      </trkpt>
      <trkpt lat="45.91168" lon="3.04352">
        <ele>567.1</ele>
        <time>1970-01-01T03:37:26.000Z</time>
      </trkpt>
      <trkpt lat="45.91168" lon="3.04352">
        <ele>567.1</ele>
        <time>1970-01-01T03:37:27.000Z</time>
      </trkpt>
      <trkpt lat="45.91168" lon="3.04353">
        <ele>567</ele>
        <time>1970-01-01T03:37:28.000Z</time>
      </trkpt>
      <trkpt lat="45.91168" lon="3.04353">
        <ele>567</ele>
        <time>1970-01-01T03:37:29.000Z</time>
      </trkpt>
      <trkpt lat="45.91169" lon="3.04354">
        <ele>567</ele>
        <time>1970-01-01T03:37:30.000Z</time>
      </trkpt>
      <trkpt lat="45.91169" lon="3.04354">
        <ele>567</ele>
        <time>1970-01-01T03:37:31.000Z</time>
      </trkpt>
      <trkpt lat="45.91169" lon="3.04354">
        <ele>566.9</ele>
        <time>1970-01-01T03:37:32.000Z</time>
      </trkpt>
      <trkpt lat="45.91169" lon="3.04355">
        <ele>566.9</ele>
        <time>1970-01-01T03:37:33.000Z</time>
      </trkpt>
      <trkpt lat="45.91169" lon="3.04355">
        <ele>566.9</ele>
        <time>1970-01-01T03:37:34.000Z</time>
      </trkpt>
      <trkpt lat="45.9117" lon="3.04359">
        <ele>563.6</ele>
        <time>1970-01-01T03:37:35.000Z</time>
      </trkpt>
      <trkpt lat="45.9117" lon="3.04363">
        <ele>563.5</ele>
        <time>1970-01-01T03:37:36.000Z</time>
      </trkpt>
      <trkpt lat="45.91172" lon="3.04369">
        <ele>563.5</ele>
        <time>1970-01-01T03:37:37.000Z</time>
      </trkpt>
      <trkpt lat="45.91173" lon="3.04377">
        <ele>560.2</ele>
        <time>1970-01-01T03:37:39.000Z</time>
      </trkpt>
      <trkpt lat="45.91174" lon="3.04383">
        <ele>560.2</ele>
        <time>1970-01-01T03:37:40.000Z</time>
      </trkpt>
      <trkpt lat="45.91174" lon="3.0439">
        <ele>560.2</ele>
        <time>1970-01-01T03:37:41.000Z</time>
      </trkpt>
      <trkpt lat="45.91173" lon="3.04398">
        <ele>556.3</ele>
        <time>1970-01-01T03:37:42.000Z</time>
      </trkpt>
      <trkpt lat="45.91173" lon="3.04402">
        <ele>556.3</ele>
        <time>1970-01-01T03:37:43.000Z</time>
      </trkpt>
      <trkpt lat="45.91172" lon="3.04408">
        <ele>552.9</ele>
        <time>1970-01-01T03:37:44.000Z</time>
      </trkpt>
      <trkpt lat="45.9117" lon="3.04414">
        <ele>552.9</ele>
        <time>1970-01-01T03:37:46.000Z</time>
      </trkpt>
      <trkpt lat="45.91168" lon="3.04417">
        <ele>552.9</ele>
        <time>1970-01-01T03:37:47.000Z</time>
      </trkpt>
      <trkpt lat="45.91165" lon="3.04419">
        <ele>552.8</ele>
        <time>1970-01-01T03:37:48.000Z</time>
      </trkpt>
      <trkpt lat="45.91162" lon="3.04422">
        <ele>554.4</ele>
        <time>1970-01-01T03:37:49.000Z</time>
      </trkpt>
      <trkpt lat="45.91161" lon="3.04423">
        <ele>554.4</ele>
        <time>1970-01-01T03:37:50.000Z</time>
      </trkpt>
      <trkpt lat="45.91159" lon="3.04426">
        <ele>551.3</ele>
        <time>1970-01-01T03:37:51.000Z</time>
      </trkpt>
      <trkpt lat="45.91159" lon="3.04427">
        <ele>551.3</ele>
        <time>1970-01-01T03:37:52.000Z</time>
      </trkpt>
      <trkpt lat="45.9116" lon="3.04425">
        <ele>551.2</ele>
        <time>1970-01-01T03:37:53.000Z</time>
      </trkpt>
      <trkpt lat="45.91161" lon="3.04424">
        <ele>554.3</ele>
        <time>1970-01-01T03:37:54.000Z</time>
      </trkpt>
      <trkpt lat="45.91161" lon="3.04424">
        <ele>554.2</ele>
        <time>1970-01-01T03:37:55.000Z</time>
      </trkpt>
      <trkpt lat="45.91161" lon="3.04424">
        <ele>554.2</ele>
        <time>1970-01-01T03:37:56.000Z</time>
      </trkpt>
      <trkpt lat="45.91161" lon="3.04424">
        <ele>554.2</ele>
        <time>1970-01-01T03:37:57.000Z</time>
      </trkpt>
      <trkpt lat="45.91161" lon="3.04424">
        <ele>554.1</ele>
        <time>1970-01-01T03:37:58.000Z</time>
      </trkpt>
      <trkpt lat="45.91161" lon="3.04424">
        <ele>551</ele>
        <time>1970-01-01T03:37:59.000Z</time>
      </trkpt>
      <trkpt lat="45.91161" lon="3.04425">
        <ele>551</ele>
        <time>1970-01-01T03:38:00.000Z</time>
      </trkpt>
      <trkpt lat="45.9116" lon="3.04425">
        <ele>551</ele>
        <time>1970-01-01T03:38:01.000Z</time>
      </trkpt>
      <trkpt lat="45.9116" lon="3.04425">
        <ele>550.9</ele>
        <time>1970-01-01T03:38:02.000Z</time>
      </trkpt>
      <trkpt lat="45.9116" lon="3.04425">
        <ele>550.9</ele>
        <time>1970-01-01T03:38:03.000Z</time>
      </trkpt>
      <trkpt lat="45.91159" lon="3.04426">
        <ele>550.9</ele>
        <time>1970-01-01T03:38:04.000Z</time>
      </trkpt>
      <trkpt lat="45.91158" lon="3.04426">
        <ele>550.8</ele>
        <time>1970-01-01T03:38:05.000Z</time>
      </trkpt>
      <trkpt lat="45.91157" lon="3.04427">
        <ele>550.8</ele>
        <time>1970-01-01T03:38:06.000Z</time>
      </trkpt>
      <trkpt lat="45.91156" lon="3.04428">
        <ele>550.8</ele>
        <time>1970-01-01T03:38:08.000Z</time>
      </trkpt>
      <trkpt lat="45.91155" lon="3.04428">
        <ele>550.8</ele>
        <time>1970-01-01T03:38:09.000Z</time>
      </trkpt>
      <trkpt lat="45.91154" lon="3.04428">
        <ele>550.7</ele>
        <time>1970-01-01T03:38:10.000Z</time>
      </trkpt>
      <trkpt lat="45.91154" lon="3.04429">
        <ele>550.7</ele>
        <time>1970-01-01T03:38:11.000Z</time>
      </trkpt>
      <trkpt lat="45.91152" lon="3.0443">
        <ele>550.7</ele>
        <time>1970-01-01T03:38:12.000Z</time>
      </trkpt>
      <trkpt lat="45.9115" lon="3.04432">
        <ele>551.9</ele>
        <time>1970-01-01T03:38:13.000Z</time>
      </trkpt>
      <trkpt lat="45.91149" lon="3.04433">
        <ele>551.9</ele>
        <time>1970-01-01T03:38:14.000Z</time>
      </trkpt>
      <trkpt lat="45.91146" lon="3.04436">
        <ele>551.8</ele>
        <time>1970-01-01T03:38:15.000Z</time>
      </trkpt>
      <trkpt lat="45.91145" lon="3.04438">
        <ele>551.8</ele>
        <time>1970-01-01T03:38:16.000Z</time>
      </trkpt>
      <trkpt lat="45.91143" lon="3.0444">
        <ele>551.8</ele>
        <time>1970-01-01T03:38:17.000Z</time>
      </trkpt>
      <trkpt lat="45.91142" lon="3.04441">
        <ele>551.7</ele>
        <time>1970-01-01T03:38:19.000Z</time>
      </trkpt>
      <trkpt lat="45.9114" lon="3.04442">
        <ele>548.7</ele>
        <time>1970-01-01T03:38:20.000Z</time>
      </trkpt>
      <trkpt lat="45.91139" lon="3.04443">
        <ele>549.8</ele>
        <time>1970-01-01T03:38:21.000Z</time>
      </trkpt>
      <trkpt lat="45.91138" lon="3.04444">
        <ele>549.8</ele>
        <time>1970-01-01T03:38:22.000Z</time>
      </trkpt>
      <trkpt lat="45.91138" lon="3.04444">
        <ele>549.8</ele>
        <time>1970-01-01T03:38:23.000Z</time>
      </trkpt>
      <trkpt lat="45.91138" lon="3.04443">
        <ele>549.7</ele>
        <time>1970-01-01T03:38:24.000Z</time>
      </trkpt>
      <trkpt lat="45.91138" lon="3.04443">
        <ele>549.7</ele>
        <time>1970-01-01T03:38:25.000Z</time>
      </trkpt>
      <trkpt lat="45.91138" lon="3.04443">
        <ele>549.7</ele>
        <time>1970-01-01T03:38:26.000Z</time>
      </trkpt>
      <trkpt lat="45.91138" lon="3.04443">
        <ele>549.6</ele>
        <time>1970-01-01T03:38:27.000Z</time>
      </trkpt>
      <trkpt lat="45.91138" lon="3.04442">
        <ele>549.6</ele>
        <time>1970-01-01T03:38:28.000Z</time>
      </trkpt>
      <trkpt lat="45.91138" lon="3.04443">
        <ele>549.6</ele>
        <time>1970-01-01T03:38:29.000Z</time>
      </trkpt>
      <trkpt lat="45.91138" lon="3.04443">
        <ele>549.5</ele>
        <time>1970-01-01T03:38:30.000Z</time>
      </trkpt>
      <trkpt lat="45.91138" lon="3.04442">
        <ele>549.5</ele>
        <time>1970-01-01T03:38:31.000Z</time>
      </trkpt>
      <trkpt lat="45.91138" lon="3.04443">
        <ele>549.5</ele>
        <time>1970-01-01T03:38:32.000Z</time>
      </trkpt>
      <trkpt lat="45.91136" lon="3.04444">
        <ele>549.4</ele>
        <time>1970-01-01T03:38:50.000Z</time>
      </trkpt>
      <trkpt lat="45.91134" lon="3.04445">
        <ele>549.4</ele>
        <time>1970-01-01T03:38:51.000Z</time>
      </trkpt>
      <trkpt lat="45.91133" lon="3.04447">
        <ele>549.4</ele>
        <time>1970-01-01T03:38:52.000Z</time>
      </trkpt>
      <trkpt lat="45.91131" lon="3.0445">
        <ele>549.3</ele>
        <time>1970-01-01T03:38:53.000Z</time>
      </trkpt>
      <trkpt lat="45.91131" lon="3.04451">
        <ele>549.3</ele>
        <time>1970-01-01T03:38:54.000Z</time>
      </trkpt>
      <trkpt lat="45.91129" lon="3.04452">
        <ele>549.3</ele>
        <time>1970-01-01T03:38:55.000Z</time>
      </trkpt>
      <trkpt lat="45.91128" lon="3.04453">
        <ele>549.2</ele>
        <time>1970-01-01T03:38:56.000Z</time>
      </trkpt>
      <trkpt lat="45.91128" lon="3.04453">
        <ele>549.2</ele>
        <time>1970-01-01T03:38:57.000Z</time>
      </trkpt>
      <trkpt lat="45.91127" lon="3.04454">
        <ele>550</ele>
        <time>1970-01-01T03:38:59.000Z</time>
      </trkpt>
      <trkpt lat="45.91127" lon="3.04454">
        <ele>550</ele>
        <time>1970-01-01T03:39:00.000Z</time>
      </trkpt>
      <trkpt lat="45.91126" lon="3.04455">
        <ele>550</ele>
        <time>1970-01-01T03:39:01.000Z</time>
      </trkpt>
      <trkpt lat="45.91126" lon="3.04455">
        <ele>549.9</ele>
        <time>1970-01-01T03:39:03.000Z</time>
      </trkpt>
      <trkpt lat="45.91126" lon="3.04455">
        <ele>549.9</ele>
        <time>1970-01-01T03:39:04.000Z</time>
      </trkpt>
      <trkpt lat="45.91125" lon="3.04455">
        <ele>549.9</ele>
        <time>1970-01-01T03:39:05.000Z</time>
      </trkpt>
      <trkpt lat="45.91125" lon="3.04455">
        <ele>549.8</ele>
        <time>1970-01-01T03:39:06.000Z</time>
      </trkpt>
      <trkpt lat="45.91125" lon="3.04455">
        <ele>549.8</ele>
        <time>1970-01-01T03:39:07.000Z</time>
      </trkpt>
      <trkpt lat="45.91125" lon="3.04455">
        <ele>549.8</ele>
        <time>1970-01-01T03:39:08.000Z</time>
      </trkpt>
      <trkpt lat="45.91124" lon="3.04455">
        <ele>549.7</ele>
        <time>1970-01-01T03:39:09.000Z</time>
      </trkpt>
      <trkpt lat="45.91124" lon="3.04456">
        <ele>549.7</ele>
        <time>1970-01-01T03:39:10.000Z</time>
      </trkpt>
      <trkpt lat="45.91123" lon="3.04456">
        <ele>549.7</ele>
        <time>1970-01-01T03:39:11.000Z</time>
      </trkpt>
      <trkpt lat="45.91122" lon="3.04457">
        <ele>549.7</ele>
        <time>1970-01-01T03:39:13.000Z</time>
      </trkpt>
      <trkpt lat="45.91122" lon="3.04457">
        <ele>549.6</ele>
        <time>1970-01-01T03:39:14.000Z</time>
      </trkpt>
      <trkpt lat="45.91121" lon="3.04457">
        <ele>549.6</ele>
        <time>1970-01-01T03:39:15.000Z</time>
      </trkpt>
      <trkpt lat="45.9112" lon="3.04457">
        <ele>549.6</ele>
        <time>1970-01-01T03:39:16.000Z</time>
      </trkpt>
      <trkpt lat="45.91119" lon="3.04457">
        <ele>549.5</ele>
        <time>1970-01-01T03:39:17.000Z</time>
      </trkpt>
      <trkpt lat="45.91119" lon="3.04457">
        <ele>549.5</ele>
        <time>1970-01-01T03:39:18.000Z</time>
      </trkpt>
      <trkpt lat="45.91118" lon="3.04456">
        <ele>549.5</ele>
        <time>1970-01-01T03:39:20.000Z</time>
      </trkpt>
      <trkpt lat="45.91118" lon="3.04456">
        <ele>549.4</ele>
        <time>1970-01-01T03:39:21.000Z</time>
      </trkpt>
      <trkpt lat="45.91118" lon="3.04457">
        <ele>549.4</ele>
        <time>1970-01-01T03:39:22.000Z</time>
      </trkpt>
      <trkpt lat="45.91116" lon="3.04458">
        <ele>549.4</ele>
        <time>1970-01-01T03:39:23.000Z</time>
      </trkpt>
      <trkpt lat="45.91114" lon="3.04462">
        <ele>547</ele>
        <time>1970-01-01T03:39:24.000Z</time>
      </trkpt>
      <trkpt lat="45.91113" lon="3.04464">
        <ele>547</ele>
        <time>1970-01-01T03:39:26.000Z</time>
      </trkpt>
      <trkpt lat="45.91113" lon="3.04464">
        <ele>546.9</ele>
        <time>1970-01-01T03:39:27.000Z</time>
      </trkpt>
      <trkpt lat="45.91113" lon="3.04463">
        <ele>546.9</ele>
        <time>1970-01-01T03:39:28.000Z</time>
      </trkpt>
      <trkpt lat="45.91112" lon="3.04463">
        <ele>546.9</ele>
        <time>1970-01-01T03:39:30.000Z</time>
      </trkpt>
      <trkpt lat="45.91112" lon="3.04463">
        <ele>546.8</ele>
        <time>1970-01-01T03:39:31.000Z</time>
      </trkpt>
      <trkpt lat="45.91112" lon="3.04463">
        <ele>546.8</ele>
        <time>1970-01-01T03:39:32.000Z</time>
      </trkpt>
      <trkpt lat="45.91112" lon="3.04463">
        <ele>546.8</ele>
        <time>1970-01-01T03:39:33.000Z</time>
      </trkpt>
      <trkpt lat="45.91112" lon="3.04463">
        <ele>546.7</ele>
        <time>1970-01-01T03:39:34.000Z</time>
      </trkpt>
      <trkpt lat="45.91112" lon="3.04464">
        <ele>546.7</ele>
        <time>1970-01-01T03:39:35.000Z</time>
      </trkpt>
      <trkpt lat="45.91111" lon="3.04464">
        <ele>546.7</ele>
        <time>1970-01-01T03:39:36.000Z</time>
      </trkpt>
      <trkpt lat="45.9111" lon="3.04467">
        <ele>546.6</ele>
        <time>1970-01-01T03:39:37.000Z</time>
      </trkpt>
      <trkpt lat="45.91109" lon="3.04468">
        <ele>546.6</ele>
        <time>1970-01-01T03:39:38.000Z</time>
      </trkpt>
      <trkpt lat="45.91109" lon="3.0447">
        <ele>546.6</ele>
        <time>1970-01-01T03:39:39.000Z</time>
      </trkpt>
      <trkpt lat="45.91108" lon="3.04474">
        <ele>546.5</ele>
        <time>1970-01-01T03:39:40.000Z</time>
      </trkpt>
      <trkpt lat="45.91108" lon="3.04479">
        <ele>543.7</ele>
        <time>1970-01-01T03:39:41.000Z</time>
      </trkpt>
      <trkpt lat="45.91108" lon="3.04481">
        <ele>543.6</ele>
        <time>1970-01-01T03:39:42.000Z</time>
      </trkpt>
      <trkpt lat="45.91108" lon="3.04487">
        <ele>543.6</ele>
        <time>1970-01-01T03:39:44.000Z</time>
      </trkpt>
      <trkpt lat="45.91108" lon="3.04489">
        <ele>543.6</ele>
        <time>1970-01-01T03:39:45.000Z</time>
      </trkpt>
      <trkpt lat="45.91108" lon="3.04491">
        <ele>543.5</ele>
        <time>1970-01-01T03:39:46.000Z</time>
      </trkpt>
      <trkpt lat="45.91108" lon="3.04494">
        <ele>541.1</ele>
        <time>1970-01-01T03:39:47.000Z</time>
      </trkpt>
      <trkpt lat="45.91108" lon="3.04501">
        <ele>541.1</ele>
        <time>1970-01-01T03:39:49.000Z</time>
      </trkpt>
      <trkpt lat="45.91105" lon="3.04506">
        <ele>541.1</ele>
        <time>1970-01-01T03:39:50.000Z</time>
      </trkpt>
      <trkpt lat="45.91104" lon="3.04507">
        <ele>541</ele>
        <time>1970-01-01T03:39:51.000Z</time>
      </trkpt>
      <trkpt lat="45.911" lon="3.04509">
        <ele>541.1</ele>
        <time>1970-01-01T03:39:52.000Z</time>
      </trkpt>
      <trkpt lat="45.91099" lon="3.04511">
        <ele>538.7</ele>
        <time>1970-01-01T03:39:53.000Z</time>
      </trkpt>
      <trkpt lat="45.91098" lon="3.04514">
        <ele>538.7</ele>
        <time>1970-01-01T03:39:55.000Z</time>
      </trkpt>
      <trkpt lat="45.91097" lon="3.04518">
        <ele>538.6</ele>
        <time>1970-01-01T03:39:56.000Z</time>
      </trkpt>
      <trkpt lat="45.91097" lon="3.0452">
        <ele>538.6</ele>
        <time>1970-01-01T03:39:57.000Z</time>
      </trkpt>
      <trkpt lat="45.91096" lon="3.04522">
        <ele>538.6</ele>
        <time>1970-01-01T03:39:58.000Z</time>
      </trkpt>
      <trkpt lat="45.91095" lon="3.04526">
        <ele>538.5</ele>
        <time>1970-01-01T03:39:59.000Z</time>
      </trkpt>
      <trkpt lat="45.91093" lon="3.04529">
        <ele>535.8</ele>
        <time>1970-01-01T03:40:00.000Z</time>
      </trkpt>
      <trkpt lat="45.91091" lon="3.04534">
        <ele>535.1</ele>
        <time>1970-01-01T03:40:02.000Z</time>
      </trkpt>
      <trkpt lat="45.91089" lon="3.04539">
        <ele>535.1</ele>
        <time>1970-01-01T03:40:03.000Z</time>
      </trkpt>
      <trkpt lat="45.91086" lon="3.04541">
        <ele>535.1</ele>
        <time>1970-01-01T03:40:04.000Z</time>
      </trkpt>
      <trkpt lat="45.91085" lon="3.04542">
        <ele>535</ele>
        <time>1970-01-01T03:40:05.000Z</time>
      </trkpt>
      <trkpt lat="45.91083" lon="3.04547">
        <ele>532.5</ele>
        <time>1970-01-01T03:40:07.000Z</time>
      </trkpt>
      <trkpt lat="45.91082" lon="3.04549">
        <ele>532.5</ele>
        <time>1970-01-01T03:40:08.000Z</time>
      </trkpt>
      <trkpt lat="45.91081" lon="3.04554">
        <ele>532.4</ele>
        <time>1970-01-01T03:40:09.000Z</time>
      </trkpt>
      <trkpt lat="45.91081" lon="3.04555">
        <ele>532.4</ele>
        <time>1970-01-01T03:40:10.000Z</time>
      </trkpt>
      <trkpt lat="45.91081" lon="3.04556">
        <ele>532.4</ele>
        <time>1970-01-01T03:40:11.000Z</time>
      </trkpt>
      <trkpt lat="45.91082" lon="3.04558">
        <ele>532.3</ele>
        <time>1970-01-01T03:40:12.000Z</time>
      </trkpt>
      <trkpt lat="45.91083" lon="3.04559">
        <ele>532.3</ele>
        <time>1970-01-01T03:40:13.000Z</time>
      </trkpt>
      <trkpt lat="45.91086" lon="3.04561">
        <ele>532.3</ele>
        <time>1970-01-01T03:40:14.000Z</time>
      </trkpt>
      <trkpt lat="45.91086" lon="3.04562">
        <ele>529.4</ele>
        <time>1970-01-01T03:40:15.000Z</time>
      </trkpt>
      <trkpt lat="45.91088" lon="3.04564">
        <ele>529.4</ele>
        <time>1970-01-01T03:40:17.000Z</time>
      </trkpt>
      <trkpt lat="45.91089" lon="3.04566">
        <ele>529.4</ele>
        <time>1970-01-01T03:40:18.000Z</time>
      </trkpt>
      <trkpt lat="45.91089" lon="3.04566">
        <ele>529.3</ele>
        <time>1970-01-01T03:40:19.000Z</time>
      </trkpt>
      <trkpt lat="45.91089" lon="3.04566">
        <ele>529.3</ele>
        <time>1970-01-01T03:40:20.000Z</time>
      </trkpt>
      <trkpt lat="45.91089" lon="3.04567">
        <ele>529.3</ele>
        <time>1970-01-01T03:40:21.000Z</time>
      </trkpt>
      <trkpt lat="45.91089" lon="3.04567">
        <ele>529.2</ele>
        <time>1970-01-01T03:40:22.000Z</time>
      </trkpt>
      <trkpt lat="45.91089" lon="3.04567">
        <ele>529.2</ele>
        <time>1970-01-01T03:40:23.000Z</time>
      </trkpt>
      <trkpt lat="45.91089" lon="3.04567">
        <ele>529.2</ele>
        <time>1970-01-01T03:40:24.000Z</time>
      </trkpt>
      <trkpt lat="45.91089" lon="3.04568">
        <ele>529.1</ele>
        <time>1970-01-01T03:40:25.000Z</time>
      </trkpt>
      <trkpt lat="45.9109" lon="3.04569">
        <ele>529.1</ele>
        <time>1970-01-01T03:40:27.000Z</time>
      </trkpt>
      <trkpt lat="45.91091" lon="3.0457">
        <ele>529.1</ele>
        <time>1970-01-01T03:40:28.000Z</time>
      </trkpt>
      <trkpt lat="45.91091" lon="3.0457">
        <ele>529</ele>
        <time>1970-01-01T03:40:29.000Z</time>
      </trkpt>
      <trkpt lat="45.91091" lon="3.0457">
        <ele>529</ele>
        <time>1970-01-01T03:40:30.000Z</time>
      </trkpt>
      <trkpt lat="45.91092" lon="3.04572">
        <ele>530.2</ele>
        <time>1970-01-01T03:40:32.000Z</time>
      </trkpt>
      <trkpt lat="45.91093" lon="3.04573">
        <ele>530.1</ele>
        <time>1970-01-01T03:40:33.000Z</time>
      </trkpt>
      <trkpt lat="45.91094" lon="3.04574">
        <ele>530.1</ele>
        <time>1970-01-01T03:40:34.000Z</time>
      </trkpt>
      <trkpt lat="45.91095" lon="3.04575">
        <ele>530.1</ele>
        <time>1970-01-01T03:40:35.000Z</time>
      </trkpt>
      <trkpt lat="45.91096" lon="3.04576">
        <ele>530</ele>
        <time>1970-01-01T03:40:36.000Z</time>
      </trkpt>
      <trkpt lat="45.91097" lon="3.04578">
        <ele>530</ele>
        <time>1970-01-01T03:40:37.000Z</time>
      </trkpt>
      <trkpt lat="45.91097" lon="3.0458">
        <ele>526.8</ele>
        <time>1970-01-01T03:40:38.000Z</time>
      </trkpt>
      <trkpt lat="45.91098" lon="3.04584">
        <ele>526.7</ele>
        <time>1970-01-01T03:40:39.000Z</time>
      </trkpt>
      <trkpt lat="45.91098" lon="3.04585">
        <ele>526.5</ele>
        <time>1970-01-01T03:40:40.000Z</time>
      </trkpt>
      <trkpt lat="45.91097" lon="3.04589">
        <ele>525.8</ele>
        <time>1970-01-01T03:40:41.000Z</time>
      </trkpt>
      <trkpt lat="45.91095" lon="3.04595">
        <ele>524.7</ele>
        <time>1970-01-01T03:40:42.000Z</time>
      </trkpt>
      <trkpt lat="45.91092" lon="3.04601">
        <ele>523.6</ele>
        <time>1970-01-01T03:40:44.000Z</time>
      </trkpt>
      <trkpt lat="45.91089" lon="3.04605">
        <ele>523</ele>
        <time>1970-01-01T03:40:45.000Z</time>
      </trkpt>
      <trkpt lat="45.91087" lon="3.04609">
        <ele>522.3</ele>
        <time>1970-01-01T03:40:47.000Z</time>
      </trkpt>
      <trkpt lat="45.91085" lon="3.04614">
        <ele>521.8</ele>
        <time>1970-01-01T03:40:48.000Z</time>
      </trkpt>
      <trkpt lat="45.91085" lon="3.04615">
        <ele>521.6</ele>
        <time>1970-01-01T03:40:49.000Z</time>
      </trkpt>
      <trkpt lat="45.91086" lon="3.04623">
        <ele>520.9</ele>
        <time>1970-01-01T03:40:51.000Z</time>
      </trkpt>
      <trkpt lat="45.91088" lon="3.04626">
        <ele>520.5</ele>
        <time>1970-01-01T03:40:52.000Z</time>
      </trkpt>
      <trkpt lat="45.91091" lon="3.04629">
        <ele>520.5</ele>
        <time>1970-01-01T03:40:53.000Z</time>
      </trkpt>
      <trkpt lat="45.91095" lon="3.04631">
        <ele>520.5</ele>
        <time>1970-01-01T03:40:54.000Z</time>
      </trkpt>
      <trkpt lat="45.91096" lon="3.04631">
        <ele>520.5</ele>
        <time>1970-01-01T03:40:55.000Z</time>
      </trkpt>
      <trkpt lat="45.91098" lon="3.04632">
        <ele>520.5</ele>
        <time>1970-01-01T03:40:56.000Z</time>
      </trkpt>
      <trkpt lat="45.91099" lon="3.04634">
        <ele>520.5</ele>
        <time>1970-01-01T03:40:57.000Z</time>
      </trkpt>
      <trkpt lat="45.911" lon="3.04636">
        <ele>520.5</ele>
        <time>1970-01-01T03:40:58.000Z</time>
      </trkpt>
      <trkpt lat="45.91101" lon="3.04637">
        <ele>520.4</ele>
        <time>1970-01-01T03:40:59.000Z</time>
      </trkpt>
      <trkpt lat="45.91102" lon="3.04638">
        <ele>520.4</ele>
        <time>1970-01-01T03:41:00.000Z</time>
      </trkpt>
      <trkpt lat="45.91103" lon="3.04639">
        <ele>520.4</ele>
        <time>1970-01-01T03:41:01.000Z</time>
      </trkpt>
      <trkpt lat="45.91104" lon="3.04641">
        <ele>520.4</ele>
        <time>1970-01-01T03:41:02.000Z</time>
      </trkpt>
      <trkpt lat="45.91106" lon="3.04643">
        <ele>520.4</ele>
        <time>1970-01-01T03:41:03.000Z</time>
      </trkpt>
      <trkpt lat="45.91107" lon="3.04644">
        <ele>520.4</ele>
        <time>1970-01-01T03:41:04.000Z</time>
      </trkpt>
      <trkpt lat="45.91109" lon="3.04646">
        <ele>520.4</ele>
        <time>1970-01-01T03:41:05.000Z</time>
      </trkpt>
      <trkpt lat="45.9111" lon="3.04647">
        <ele>520.4</ele>
        <time>1970-01-01T03:41:06.000Z</time>
      </trkpt>
      <trkpt lat="45.91113" lon="3.04648">
        <ele>520.3</ele>
        <time>1970-01-01T03:41:07.000Z</time>
      </trkpt>
      <trkpt lat="45.91114" lon="3.04649">
        <ele>520.3</ele>
        <time>1970-01-01T03:41:08.000Z</time>
      </trkpt>
      <trkpt lat="45.91117" lon="3.04652">
        <ele>520.2</ele>
        <time>1970-01-01T03:41:09.000Z</time>
      </trkpt>
      <trkpt lat="45.91117" lon="3.04654">
        <ele>520.1</ele>
        <time>1970-01-01T03:41:10.000Z</time>
      </trkpt>
      <trkpt lat="45.9112" lon="3.04657">
        <ele>520</ele>
        <time>1970-01-01T03:41:11.000Z</time>
      </trkpt>
      <trkpt lat="45.91122" lon="3.0466">
        <ele>519.8</ele>
        <time>1970-01-01T03:41:12.000Z</time>
      </trkpt>
      <trkpt lat="45.91123" lon="3.04661">
        <ele>519.8</ele>
        <time>1970-01-01T03:41:13.000Z</time>
      </trkpt>
      <trkpt lat="45.91125" lon="3.04663">
        <ele>519.7</ele>
        <time>1970-01-01T03:41:14.000Z</time>
      </trkpt>
      <trkpt lat="45.91129" lon="3.04668">
        <ele>519.3</ele>
        <time>1970-01-01T03:41:16.000Z</time>
      </trkpt>
      <trkpt lat="45.91133" lon="3.04673">
        <ele>519</ele>
        <time>1970-01-01T03:41:18.000Z</time>
      </trkpt>
      <trkpt lat="45.91136" lon="3.04677">
        <ele>518.6</ele>
        <time>1970-01-01T03:41:19.000Z</time>
      </trkpt>
      <trkpt lat="45.91142" lon="3.04685">
        <ele>517.9</ele>
        <time>1970-01-01T03:41:20.000Z</time>
      </trkpt>
      <trkpt lat="45.91146" lon="3.0469">
        <ele>517.5</ele>
        <time>1970-01-01T03:41:21.000Z</time>
      </trkpt>
      <trkpt lat="45.91148" lon="3.04696">
        <ele>517</ele>
        <time>1970-01-01T03:41:22.000Z</time>
      </trkpt>
      <trkpt lat="45.91151" lon="3.04701">
        <ele>516.5</ele>
        <time>1970-01-01T03:41:23.000Z</time>
      </trkpt>
      <trkpt lat="45.91154" lon="3.04706">
        <ele>516</ele>
        <time>1970-01-01T03:41:24.000Z</time>
      </trkpt>
      <trkpt lat="45.91157" lon="3.04711">
        <ele>515.6</ele>
        <time>1970-01-01T03:41:25.000Z</time>
      </trkpt>
      <trkpt lat="45.91161" lon="3.04717">
        <ele>514.9</ele>
        <time>1970-01-01T03:41:26.000Z</time>
      </trkpt>
      <trkpt lat="45.91164" lon="3.04723">
        <ele>514.3</ele>
        <time>1970-01-01T03:41:27.000Z</time>
      </trkpt>
      <trkpt lat="45.91167" lon="3.0473">
        <ele>513.7</ele>
        <time>1970-01-01T03:41:28.000Z</time>
      </trkpt>
      <trkpt lat="45.9117" lon="3.04736">
        <ele>513.2</ele>
        <time>1970-01-01T03:41:29.000Z</time>
      </trkpt>
      <trkpt lat="45.91174" lon="3.04743">
        <ele>512.6</ele>
        <time>1970-01-01T03:41:30.000Z</time>
      </trkpt>
      <trkpt lat="45.91177" lon="3.04749">
        <ele>512</ele>
        <time>1970-01-01T03:41:31.000Z</time>
      </trkpt>
      <trkpt lat="45.91181" lon="3.04756">
        <ele>511.3</ele>
        <time>1970-01-01T03:41:32.000Z</time>
      </trkpt>
      <trkpt lat="45.91185" lon="3.04763">
        <ele>510.6</ele>
        <time>1970-01-01T03:41:33.000Z</time>
      </trkpt>
      <trkpt lat="45.9119" lon="3.04772">
        <ele>509.7</ele>
        <time>1970-01-01T03:41:34.000Z</time>
      </trkpt>
      <trkpt lat="45.91195" lon="3.04781">
        <ele>508.9</ele>
        <time>1970-01-01T03:41:35.000Z</time>
      </trkpt>
      <trkpt lat="45.91199" lon="3.0479">
        <ele>508.2</ele>
        <time>1970-01-01T03:41:36.000Z</time>
      </trkpt>
      <trkpt lat="45.91203" lon="3.04797">
        <ele>507.7</ele>
        <time>1970-01-01T03:41:37.000Z</time>
      </trkpt>
      <trkpt lat="45.91205" lon="3.04802">
        <ele>507.3</ele>
        <time>1970-01-01T03:41:38.000Z</time>
      </trkpt>
      <trkpt lat="45.91206" lon="3.04804">
        <ele>505</ele>
        <time>1970-01-01T03:41:39.000Z</time>
      </trkpt>
      <trkpt lat="45.91206" lon="3.04807">
        <ele>504.9</ele>
        <time>1970-01-01T03:41:40.000Z</time>
      </trkpt>
      <trkpt lat="45.91205" lon="3.0481">
        <ele>504.8</ele>
        <time>1970-01-01T03:41:41.000Z</time>
      </trkpt>
      <trkpt lat="45.91204" lon="3.04811">
        <ele>504.7</ele>
        <time>1970-01-01T03:41:42.000Z</time>
      </trkpt>
      <trkpt lat="45.91203" lon="3.04814">
        <ele>504.5</ele>
        <time>1970-01-01T03:41:43.000Z</time>
      </trkpt>
      <trkpt lat="45.91202" lon="3.04815">
        <ele>504.4</ele>
        <time>1970-01-01T03:41:44.000Z</time>
      </trkpt>
      <trkpt lat="45.91201" lon="3.04821">
        <ele>502.5</ele>
        <time>1970-01-01T03:41:45.000Z</time>
      </trkpt>
      <trkpt lat="45.91201" lon="3.04824">
        <ele>502.4</ele>
        <time>1970-01-01T03:41:46.000Z</time>
      </trkpt>
      <trkpt lat="45.912" lon="3.04828">
        <ele>502.3</ele>
        <time>1970-01-01T03:41:47.000Z</time>
      </trkpt>
      <trkpt lat="45.91199" lon="3.04833">
        <ele>502.2</ele>
        <time>1970-01-01T03:41:49.000Z</time>
      </trkpt>
      <trkpt lat="45.91199" lon="3.04837">
        <ele>499.9</ele>
        <time>1970-01-01T03:41:50.000Z</time>
      </trkpt>
      <trkpt lat="45.91199" lon="3.04842">
        <ele>500</ele>
        <time>1970-01-01T03:41:51.000Z</time>
      </trkpt>
      <trkpt lat="45.912" lon="3.04846">
        <ele>499.9</ele>
        <time>1970-01-01T03:41:53.000Z</time>
      </trkpt>
      <trkpt lat="45.912" lon="3.04852">
        <ele>499.8</ele>
        <time>1970-01-01T03:41:54.000Z</time>
      </trkpt>
      <trkpt lat="45.912" lon="3.04859">
        <ele>497.8</ele>
        <time>1970-01-01T03:41:55.000Z</time>
      </trkpt>
      <trkpt lat="45.912" lon="3.04863">
        <ele>497.7</ele>
        <time>1970-01-01T03:41:56.000Z</time>
      </trkpt>
      <trkpt lat="45.912" lon="3.04867">
        <ele>497.5</ele>
        <time>1970-01-01T03:41:57.000Z</time>
      </trkpt>
      <trkpt lat="45.91198" lon="3.04877">
        <ele>495.1</ele>
        <time>1970-01-01T03:41:59.000Z</time>
      </trkpt>
      <trkpt lat="45.91197" lon="3.04884">
        <ele>495</ele>
        <time>1970-01-01T03:42:00.000Z</time>
      </trkpt>
      <trkpt lat="45.91196" lon="3.04892">
        <ele>492.9</ele>
        <time>1970-01-01T03:42:02.000Z</time>
      </trkpt>
      <trkpt lat="45.91199" lon="3.04901">
        <ele>493.3</ele>
        <time>1970-01-01T03:42:03.000Z</time>
      </trkpt>
      <trkpt lat="45.91202" lon="3.04909">
        <ele>491.4</ele>
        <time>1970-01-01T03:42:04.000Z</time>
      </trkpt>
      <trkpt lat="45.91204" lon="3.04914">
        <ele>491.2</ele>
        <time>1970-01-01T03:42:06.000Z</time>
      </trkpt>
      <trkpt lat="45.91205" lon="3.04919">
        <ele>491.1</ele>
        <time>1970-01-01T03:42:07.000Z</time>
      </trkpt>
      <trkpt lat="45.91208" lon="3.0493">
        <ele>489.1</ele>
        <time>1970-01-01T03:42:08.000Z</time>
      </trkpt>
      <trkpt lat="45.91211" lon="3.04935">
        <ele>489.6</ele>
        <time>1970-01-01T03:42:09.000Z</time>
      </trkpt>
      <trkpt lat="45.9121" lon="3.04939">
        <ele>488.9</ele>
        <time>1970-01-01T03:42:10.000Z</time>
      </trkpt>
      <trkpt lat="45.91209" lon="3.0494">
        <ele>487.1</ele>
        <time>1970-01-01T03:42:11.000Z</time>
      </trkpt>
      <trkpt lat="45.91205" lon="3.04946">
        <ele>487</ele>
        <time>1970-01-01T03:42:13.000Z</time>
      </trkpt>
      <trkpt lat="45.91204" lon="3.04951">
        <ele>486.9</ele>
        <time>1970-01-01T03:42:14.000Z</time>
      </trkpt>
      <trkpt lat="45.91203" lon="3.04958">
        <ele>485.5</ele>
        <time>1970-01-01T03:42:15.000Z</time>
      </trkpt>
      <trkpt lat="45.91202" lon="3.04964">
        <ele>485.4</ele>
        <time>1970-01-01T03:42:17.000Z</time>
      </trkpt>
      <trkpt lat="45.91202" lon="3.04968">
        <ele>485.3</ele>
        <time>1970-01-01T03:42:18.000Z</time>
      </trkpt>
      <trkpt lat="45.91205" lon="3.04975">
        <ele>483.8</ele>
        <time>1970-01-01T03:42:19.000Z</time>
      </trkpt>
      <trkpt lat="45.91209" lon="3.04982">
        <ele>483.7</ele>
        <time>1970-01-01T03:42:20.000Z</time>
      </trkpt>
      <trkpt lat="45.91217" lon="3.04992">
        <ele>483</ele>
        <time>1970-01-01T03:42:22.000Z</time>
      </trkpt>
      <trkpt lat="45.91219" lon="3.04995">
        <ele>482.8</ele>
        <time>1970-01-01T03:42:23.000Z</time>
      </trkpt>
      <trkpt lat="45.91225" lon="3.05001">
        <ele>483.6</ele>
        <time>1970-01-01T03:42:24.000Z</time>
      </trkpt>
      <trkpt lat="45.91229" lon="3.05006">
        <ele>483.5</ele>
        <time>1970-01-01T03:42:25.000Z</time>
      </trkpt>
      <trkpt lat="45.91233" lon="3.0501">
        <ele>481.6</ele>
        <time>1970-01-01T03:42:26.000Z</time>
      </trkpt>
      <trkpt lat="45.91237" lon="3.05015">
        <ele>482.4</ele>
        <time>1970-01-01T03:42:27.000Z</time>
      </trkpt>
      <trkpt lat="45.91241" lon="3.05019">
        <ele>482.3</ele>
        <time>1970-01-01T03:42:28.000Z</time>
      </trkpt>
      <trkpt lat="45.91246" lon="3.05023">
        <ele>482.2</ele>
        <time>1970-01-01T03:42:29.000Z</time>
      </trkpt>
      <trkpt lat="45.9125" lon="3.05027">
        <ele>481.4</ele>
        <time>1970-01-01T03:42:30.000Z</time>
      </trkpt>
      <trkpt lat="45.91254" lon="3.05031">
        <ele>481.3</ele>
        <time>1970-01-01T03:42:31.000Z</time>
      </trkpt>
      <trkpt lat="45.91256" lon="3.05034">
        <ele>481.2</ele>
        <time>1970-01-01T03:42:32.000Z</time>
      </trkpt>
      <trkpt lat="45.91261" lon="3.05036">
        <ele>482.3</ele>
        <time>1970-01-01T03:42:34.000Z</time>
      </trkpt>
      <trkpt lat="45.91265" lon="3.05032">
        <ele>482.9</ele>
        <time>1970-01-01T03:42:35.000Z</time>
      </trkpt>
      <trkpt lat="45.91266" lon="3.05027">
        <ele>483.3</ele>
        <time>1970-01-01T03:42:36.000Z</time>
      </trkpt>
      <trkpt lat="45.91268" lon="3.05024">
        <ele>483.7</ele>
        <time>1970-01-01T03:42:37.000Z</time>
      </trkpt>
      <trkpt lat="45.9127" lon="3.05022">
        <ele>484</ele>
        <time>1970-01-01T03:42:38.000Z</time>
      </trkpt>
      <trkpt lat="45.91272" lon="3.05019">
        <ele>484.5</ele>
        <time>1970-01-01T03:42:40.000Z</time>
      </trkpt>
      <trkpt lat="45.91273" lon="3.05017">
        <ele>484.7</ele>
        <time>1970-01-01T03:42:41.000Z</time>
      </trkpt>
      <trkpt lat="45.91274" lon="3.05015">
        <ele>484.9</ele>
        <time>1970-01-01T03:42:42.000Z</time>
      </trkpt>
      <trkpt lat="45.91275" lon="3.05013">
        <ele>485.1</ele>
        <time>1970-01-01T03:42:43.000Z</time>
      </trkpt>
      <trkpt lat="45.91276" lon="3.05012">
        <ele>485.3</ele>
        <time>1970-01-01T03:42:44.000Z</time>
      </trkpt>
      <trkpt lat="45.91278" lon="3.0501">
        <ele>485.5</ele>
        <time>1970-01-01T03:42:45.000Z</time>
      </trkpt>
      <trkpt lat="45.91279" lon="3.05009">
        <ele>485.8</ele>
        <time>1970-01-01T03:42:46.000Z</time>
      </trkpt>
      <trkpt lat="45.9128" lon="3.05007">
        <ele>486</ele>
        <time>1970-01-01T03:42:47.000Z</time>
      </trkpt>
      <trkpt lat="45.9128" lon="3.05006">
        <ele>486.1</ele>
        <time>1970-01-01T03:42:48.000Z</time>
      </trkpt>
      <trkpt lat="45.91281" lon="3.05004">
        <ele>486.3</ele>
        <time>1970-01-01T03:42:49.000Z</time>
      </trkpt>
      <trkpt lat="45.91282" lon="3.05001">
        <ele>486.6</ele>
        <time>1970-01-01T03:42:50.000Z</time>
      </trkpt>
      <trkpt lat="45.91282" lon="3.04996">
        <ele>487</ele>
        <time>1970-01-01T03:42:52.000Z</time>
      </trkpt>
      <trkpt lat="45.91282" lon="3.04995">
        <ele>487.2</ele>
        <time>1970-01-01T03:42:53.000Z</time>
      </trkpt>
      <trkpt lat="45.91281" lon="3.04991">
        <ele>487.6</ele>
        <time>1970-01-01T03:42:55.000Z</time>
      </trkpt>
      <trkpt lat="45.91281" lon="3.04988">
        <ele>487.8</ele>
        <time>1970-01-01T03:42:56.000Z</time>
      </trkpt>
      <trkpt lat="45.9128" lon="3.04986">
        <ele>488</ele>
        <time>1970-01-01T03:42:57.000Z</time>
      </trkpt>
      <trkpt lat="45.9128" lon="3.04981">
        <ele>488.4</ele>
        <time>1970-01-01T03:42:58.000Z</time>
      </trkpt>
      <trkpt lat="45.91279" lon="3.04979">
        <ele>488.6</ele>
        <time>1970-01-01T03:42:59.000Z</time>
      </trkpt>
      <trkpt lat="45.91278" lon="3.04975">
        <ele>488.9</ele>
        <time>1970-01-01T03:43:00.000Z</time>
      </trkpt>
      <trkpt lat="45.91278" lon="3.04974">
        <ele>489.1</ele>
        <time>1970-01-01T03:43:02.000Z</time>
      </trkpt>
      <trkpt lat="45.91278" lon="3.04972">
        <ele>489.2</ele>
        <time>1970-01-01T03:43:03.000Z</time>
      </trkpt>
      <trkpt lat="45.91278" lon="3.04971">
        <ele>489.3</ele>
        <time>1970-01-01T03:43:04.000Z</time>
      </trkpt>
      <trkpt lat="45.91278" lon="3.04969">
        <ele>489.5</ele>
        <time>1970-01-01T03:43:05.000Z</time>
      </trkpt>
      <trkpt lat="45.91278" lon="3.04967">
        <ele>489.7</ele>
        <time>1970-01-01T03:43:06.000Z</time>
      </trkpt>
      <trkpt lat="45.91278" lon="3.04965">
        <ele>489.8</ele>
        <time>1970-01-01T03:43:07.000Z</time>
      </trkpt>
      <trkpt lat="45.91279" lon="3.04962">
        <ele>490.1</ele>
        <time>1970-01-01T03:43:08.000Z</time>
      </trkpt>
      <trkpt lat="45.91279" lon="3.04961">
        <ele>490.2</ele>
        <time>1970-01-01T03:43:09.000Z</time>
      </trkpt>
      <trkpt lat="45.9128" lon="3.0496">
        <ele>490.3</ele>
        <time>1970-01-01T03:43:10.000Z</time>
      </trkpt>
      <trkpt lat="45.91282" lon="3.04958">
        <ele>490.6</ele>
        <time>1970-01-01T03:43:11.000Z</time>
      </trkpt>
      <trkpt lat="45.91282" lon="3.04957">
        <ele>490.7</ele>
        <time>1970-01-01T03:43:12.000Z</time>
      </trkpt>
      <trkpt lat="45.91283" lon="3.04957">
        <ele>490.8</ele>
        <time>1970-01-01T03:43:13.000Z</time>
      </trkpt>
      <trkpt lat="45.91283" lon="3.04955">
        <ele>490.9</ele>
        <time>1970-01-01T03:43:14.000Z</time>
      </trkpt>
      <trkpt lat="45.91284" lon="3.04953">
        <ele>491.1</ele>
        <time>1970-01-01T03:43:15.000Z</time>
      </trkpt>
      <trkpt lat="45.91285" lon="3.04952">
        <ele>491.2</ele>
        <time>1970-01-01T03:43:16.000Z</time>
      </trkpt>
      <trkpt lat="45.91286" lon="3.04951">
        <ele>491.4</ele>
        <time>1970-01-01T03:43:17.000Z</time>
      </trkpt>
      <trkpt lat="45.91287" lon="3.0495">
        <ele>491.6</ele>
        <time>1970-01-01T03:43:18.000Z</time>
      </trkpt>
      <trkpt lat="45.91288" lon="3.04949">
        <ele>491.7</ele>
        <time>1970-01-01T03:43:19.000Z</time>
      </trkpt>
      <trkpt lat="45.91289" lon="3.04948">
        <ele>491.8</ele>
        <time>1970-01-01T03:43:20.000Z</time>
      </trkpt>
      <trkpt lat="45.91291" lon="3.04945">
        <ele>492.2</ele>
        <time>1970-01-01T03:43:22.000Z</time>
      </trkpt>
      <trkpt lat="45.91292" lon="3.04944">
        <ele>492.3</ele>
        <time>1970-01-01T03:43:23.000Z</time>
      </trkpt>
      <trkpt lat="45.91293" lon="3.04943">
        <ele>492.5</ele>
        <time>1970-01-01T03:43:24.000Z</time>
      </trkpt>
      <trkpt lat="45.91294" lon="3.04943">
        <ele>492.6</ele>
        <time>1970-01-01T03:43:25.000Z</time>
      </trkpt>
      <trkpt lat="45.91295" lon="3.0494">
        <ele>492.9</ele>
        <time>1970-01-01T03:43:26.000Z</time>
      </trkpt>
      <trkpt lat="45.91296" lon="3.04939">
        <ele>493</ele>
        <time>1970-01-01T03:43:28.000Z</time>
      </trkpt>
      <trkpt lat="45.91298" lon="3.04937">
        <ele>493.3</ele>
        <time>1970-01-01T03:43:29.000Z</time>
      </trkpt>
      <trkpt lat="45.91298" lon="3.04936">
        <ele>493.4</ele>
        <time>1970-01-01T03:43:30.000Z</time>
      </trkpt>
      <trkpt lat="45.91299" lon="3.04935">
        <ele>493.5</ele>
        <time>1970-01-01T03:43:31.000Z</time>
      </trkpt>
      <trkpt lat="45.91299" lon="3.04934">
        <ele>493.6</ele>
        <time>1970-01-01T03:43:32.000Z</time>
      </trkpt>
      <trkpt lat="45.913" lon="3.04933">
        <ele>493.8</ele>
        <time>1970-01-01T03:43:33.000Z</time>
      </trkpt>
      <trkpt lat="45.91301" lon="3.04932">
        <ele>493.9</ele>
        <time>1970-01-01T03:43:34.000Z</time>
      </trkpt>
      <trkpt lat="45.91302" lon="3.04931">
        <ele>494.1</ele>
        <time>1970-01-01T03:43:35.000Z</time>
      </trkpt>
      <trkpt lat="45.91303" lon="3.04929">
        <ele>494.3</ele>
        <time>1970-01-01T03:43:36.000Z</time>
      </trkpt>
      <trkpt lat="45.91303" lon="3.04928">
        <ele>494.4</ele>
        <time>1970-01-01T03:43:37.000Z</time>
      </trkpt>
      <trkpt lat="45.91304" lon="3.04927">
        <ele>494.5</ele>
        <time>1970-01-01T03:43:38.000Z</time>
      </trkpt>
      <trkpt lat="45.91305" lon="3.04926">
        <ele>494.6</ele>
        <time>1970-01-01T03:43:39.000Z</time>
      </trkpt>
      <trkpt lat="45.91306" lon="3.04924">
        <ele>494.9</ele>
        <time>1970-01-01T03:43:40.000Z</time>
      </trkpt>
      <trkpt lat="45.91307" lon="3.04924">
        <ele>495</ele>
        <time>1970-01-01T03:43:41.000Z</time>
      </trkpt>
      <trkpt lat="45.91308" lon="3.04923">
        <ele>495.1</ele>
        <time>1970-01-01T03:43:42.000Z</time>
      </trkpt>
      <trkpt lat="45.91308" lon="3.04922">
        <ele>495.3</ele>
        <time>1970-01-01T03:43:43.000Z</time>
      </trkpt>
      <trkpt lat="45.91309" lon="3.0492">
        <ele>495.4</ele>
        <time>1970-01-01T03:43:44.000Z</time>
      </trkpt>
      <trkpt lat="45.9131" lon="3.04919">
        <ele>495.6</ele>
        <time>1970-01-01T03:43:45.000Z</time>
      </trkpt>
      <trkpt lat="45.9131" lon="3.04918">
        <ele>495.7</ele>
        <time>1970-01-01T03:43:46.000Z</time>
      </trkpt>
      <trkpt lat="45.91311" lon="3.04916">
        <ele>495.9</ele>
        <time>1970-01-01T03:43:47.000Z</time>
      </trkpt>
      <trkpt lat="45.91313" lon="3.04914">
        <ele>496.2</ele>
        <time>1970-01-01T03:43:49.000Z</time>
      </trkpt>
      <trkpt lat="45.91314" lon="3.04913">
        <ele>496.3</ele>
        <time>1970-01-01T03:43:50.000Z</time>
      </trkpt>
      <trkpt lat="45.91315" lon="3.04912">
        <ele>496.5</ele>
        <time>1970-01-01T03:43:51.000Z</time>
      </trkpt>
      <trkpt lat="45.91316" lon="3.04911">
        <ele>496.6</ele>
        <time>1970-01-01T03:43:52.000Z</time>
      </trkpt>
      <trkpt lat="45.91316" lon="3.0491">
        <ele>496.8</ele>
        <time>1970-01-01T03:43:53.000Z</time>
      </trkpt>
      <trkpt lat="45.91317" lon="3.04909">
        <ele>496.9</ele>
        <time>1970-01-01T03:43:54.000Z</time>
      </trkpt>
      <trkpt lat="45.91317" lon="3.04908">
        <ele>497</ele>
        <time>1970-01-01T03:43:55.000Z</time>
      </trkpt>
      <trkpt lat="45.91318" lon="3.04907">
        <ele>497.1</ele>
        <time>1970-01-01T03:43:56.000Z</time>
      </trkpt>
      <trkpt lat="45.91319" lon="3.04906">
        <ele>497.2</ele>
        <time>1970-01-01T03:43:57.000Z</time>
      </trkpt>
      <trkpt lat="45.9132" lon="3.04905">
        <ele>497.4</ele>
        <time>1970-01-01T03:43:58.000Z</time>
      </trkpt>
      <trkpt lat="45.91321" lon="3.04904">
        <ele>497.5</ele>
        <time>1970-01-01T03:43:59.000Z</time>
      </trkpt>
      <trkpt lat="45.91321" lon="3.04903">
        <ele>497.6</ele>
        <time>1970-01-01T03:44:00.000Z</time>
      </trkpt>
      <trkpt lat="45.91323" lon="3.04901">
        <ele>497.8</ele>
        <time>1970-01-01T03:44:01.000Z</time>
      </trkpt>
      <trkpt lat="45.91323" lon="3.049">
        <ele>497.9</ele>
        <time>1970-01-01T03:44:02.000Z</time>
      </trkpt>
      <trkpt lat="45.91324" lon="3.049">
        <ele>498</ele>
        <time>1970-01-01T03:44:03.000Z</time>
      </trkpt>
      <trkpt lat="45.91325" lon="3.04899">
        <ele>498.1</ele>
        <time>1970-01-01T03:44:04.000Z</time>
      </trkpt>
      <trkpt lat="45.91326" lon="3.04899">
        <ele>498.3</ele>
        <time>1970-01-01T03:44:05.000Z</time>
      </trkpt>
      <trkpt lat="45.91328" lon="3.04899">
        <ele>498.4</ele>
        <time>1970-01-01T03:44:06.000Z</time>
      </trkpt>
      <trkpt lat="45.91328" lon="3.04901">
        <ele>498.6</ele>
        <time>1970-01-01T03:44:07.000Z</time>
      </trkpt>
      <trkpt lat="45.91329" lon="3.04903">
        <ele>498.8</ele>
        <time>1970-01-01T03:44:08.000Z</time>
      </trkpt>
      <trkpt lat="45.9133" lon="3.04907">
        <ele>498.3</ele>
        <time>1970-01-01T03:44:09.000Z</time>
      </trkpt>
      <trkpt lat="45.91331" lon="3.04912">
        <ele>498.1</ele>
        <time>1970-01-01T03:44:10.000Z</time>
      </trkpt>
      <trkpt lat="45.91333" lon="3.04918">
        <ele>497.9</ele>
        <time>1970-01-01T03:44:11.000Z</time>
      </trkpt>
      <trkpt lat="45.91335" lon="3.04928">
        <ele>497.6</ele>
        <time>1970-01-01T03:44:12.000Z</time>
      </trkpt>
      <trkpt lat="45.91337" lon="3.04935">
        <ele>497.3</ele>
        <time>1970-01-01T03:44:13.000Z</time>
      </trkpt>
      <trkpt lat="45.91339" lon="3.04942">
        <ele>497</ele>
        <time>1970-01-01T03:44:14.000Z</time>
      </trkpt>
      <trkpt lat="45.91341" lon="3.0495">
        <ele>496.6</ele>
        <time>1970-01-01T03:44:15.000Z</time>
      </trkpt>
      <trkpt lat="45.91343" lon="3.04958">
        <ele>496.2</ele>
        <time>1970-01-01T03:44:16.000Z</time>
      </trkpt>
      <trkpt lat="45.91345" lon="3.04967">
        <ele>495.8</ele>
        <time>1970-01-01T03:44:17.000Z</time>
      </trkpt>
      <trkpt lat="45.91348" lon="3.04976">
        <ele>495.4</ele>
        <time>1970-01-01T03:44:18.000Z</time>
      </trkpt>
      <trkpt lat="45.9135" lon="3.04985">
        <ele>495</ele>
        <time>1970-01-01T03:44:19.000Z</time>
      </trkpt>
      <trkpt lat="45.91353" lon="3.04994">
        <ele>494.6</ele>
        <time>1970-01-01T03:44:20.000Z</time>
      </trkpt>
      <trkpt lat="45.91356" lon="3.05004">
        <ele>494.2</ele>
        <time>1970-01-01T03:44:21.000Z</time>
      </trkpt>
      <trkpt lat="45.91358" lon="3.05014">
        <ele>493.7</ele>
        <time>1970-01-01T03:44:22.000Z</time>
      </trkpt>
      <trkpt lat="45.91362" lon="3.05024">
        <ele>493.3</ele>
        <time>1970-01-01T03:44:23.000Z</time>
      </trkpt>
      <trkpt lat="45.91365" lon="3.05035">
        <ele>492.8</ele>
        <time>1970-01-01T03:44:24.000Z</time>
      </trkpt>
      <trkpt lat="45.91368" lon="3.05046">
        <ele>492.4</ele>
        <time>1970-01-01T03:44:25.000Z</time>
      </trkpt>
      <trkpt lat="45.91372" lon="3.05056">
        <ele>492</ele>
        <time>1970-01-01T03:44:26.000Z</time>
      </trkpt>
      <trkpt lat="45.91376" lon="3.05066">
        <ele>491.6</ele>
        <time>1970-01-01T03:44:27.000Z</time>
      </trkpt>
      <trkpt lat="45.9138" lon="3.05075">
        <ele>491.2</ele>
        <time>1970-01-01T03:44:28.000Z</time>
      </trkpt>
      <trkpt lat="45.91385" lon="3.05082">
        <ele>490.9</ele>
        <time>1970-01-01T03:44:29.000Z</time>
      </trkpt>
      <trkpt lat="45.91389" lon="3.05089">
        <ele>490.6</ele>
        <time>1970-01-01T03:44:30.000Z</time>
      </trkpt>
      <trkpt lat="45.91393" lon="3.05096">
        <ele>490.5</ele>
        <time>1970-01-01T03:44:31.000Z</time>
      </trkpt>
      <trkpt lat="45.91398" lon="3.05102">
        <ele>490.4</ele>
        <time>1970-01-01T03:44:32.000Z</time>
      </trkpt>
      <trkpt lat="45.91404" lon="3.05107">
        <ele>490.2</ele>
        <time>1970-01-01T03:44:33.000Z</time>
      </trkpt>
      <trkpt lat="45.91408" lon="3.05113">
        <ele>490.2</ele>
        <time>1970-01-01T03:44:34.000Z</time>
      </trkpt>
      <trkpt lat="45.91413" lon="3.05117">
        <ele>490.1</ele>
        <time>1970-01-01T03:44:35.000Z</time>
      </trkpt>
      <trkpt lat="45.91419" lon="3.05118">
        <ele>490.1</ele>
        <time>1970-01-01T03:44:36.000Z</time>
      </trkpt>
      <trkpt lat="45.91424" lon="3.05116">
        <ele>490.1</ele>
        <time>1970-01-01T03:44:37.000Z</time>
      </trkpt>
      <trkpt lat="45.91428" lon="3.05112">
        <ele>490.1</ele>
        <time>1970-01-01T03:44:38.000Z</time>
      </trkpt>
      <trkpt lat="45.91431" lon="3.05107">
        <ele>490.1</ele>
        <time>1970-01-01T03:44:39.000Z</time>
      </trkpt>
      <trkpt lat="45.91433" lon="3.05103">
        <ele>490.1</ele>
        <time>1970-01-01T03:44:40.000Z</time>
      </trkpt>
      <trkpt lat="45.91434" lon="3.051">
        <ele>490.1</ele>
        <time>1970-01-01T03:44:41.000Z</time>
      </trkpt>
      <trkpt lat="45.91436" lon="3.05096">
        <ele>490</ele>
        <time>1970-01-01T03:44:42.000Z</time>
      </trkpt>
      <trkpt lat="45.91438" lon="3.05092">
        <ele>490</ele>
        <time>1970-01-01T03:44:43.000Z</time>
      </trkpt>
      <trkpt lat="45.91439" lon="3.05087">
        <ele>489.9</ele>
        <time>1970-01-01T03:44:44.000Z</time>
      </trkpt>
      <trkpt lat="45.9144" lon="3.05081">
        <ele>489.9</ele>
        <time>1970-01-01T03:44:45.000Z</time>
      </trkpt>
      <trkpt lat="45.91441" lon="3.05079">
        <ele>489.6</ele>
        <time>1970-01-01T03:44:46.000Z</time>
      </trkpt>
      <trkpt lat="45.91439" lon="3.05073">
        <ele>489.2</ele>
        <time>1970-01-01T03:44:47.000Z</time>
      </trkpt>
      <trkpt lat="45.91439" lon="3.05071">
        <ele>489</ele>
        <time>1970-01-01T03:44:48.000Z</time>
      </trkpt>
      <trkpt lat="45.91438" lon="3.05064">
        <ele>488.5</ele>
        <time>1970-01-01T03:44:50.000Z</time>
      </trkpt>
      <trkpt lat="45.91437" lon="3.0506">
        <ele>488.1</ele>
        <time>1970-01-01T03:44:51.000Z</time>
      </trkpt>
      <trkpt lat="45.91436" lon="3.05055">
        <ele>487.7</ele>
        <time>1970-01-01T03:44:52.000Z</time>
      </trkpt>
      <trkpt lat="45.91435" lon="3.05046">
        <ele>487</ele>
        <time>1970-01-01T03:44:53.000Z</time>
      </trkpt>
      <trkpt lat="45.91434" lon="3.05038">
        <ele>486.5</ele>
        <time>1970-01-01T03:44:54.000Z</time>
      </trkpt>
      <trkpt lat="45.91434" lon="3.0503">
        <ele>486.1</ele>
        <time>1970-01-01T03:44:55.000Z</time>
      </trkpt>
      <trkpt lat="45.91435" lon="3.05022">
        <ele>485.6</ele>
        <time>1970-01-01T03:44:56.000Z</time>
      </trkpt>
      <trkpt lat="45.91436" lon="3.05013">
        <ele>485</ele>
        <time>1970-01-01T03:44:57.000Z</time>
      </trkpt>
      <trkpt lat="45.91438" lon="3.05005">
        <ele>484.6</ele>
        <time>1970-01-01T03:44:58.000Z</time>
      </trkpt>
      <trkpt lat="45.91441" lon="3.04999">
        <ele>484.2</ele>
        <time>1970-01-01T03:44:59.000Z</time>
      </trkpt>
      <trkpt lat="45.91445" lon="3.04993">
        <ele>483.8</ele>
        <time>1970-01-01T03:45:00.000Z</time>
      </trkpt>
      <trkpt lat="45.9145" lon="3.04988">
        <ele>483.3</ele>
        <time>1970-01-01T03:45:01.000Z</time>
      </trkpt>
      <trkpt lat="45.91455" lon="3.04984">
        <ele>482.9</ele>
        <time>1970-01-01T03:45:02.000Z</time>
      </trkpt>
      <trkpt lat="45.91459" lon="3.04979">
        <ele>482.3</ele>
        <time>1970-01-01T03:45:03.000Z</time>
      </trkpt>
      <trkpt lat="45.91464" lon="3.04973">
        <ele>481.8</ele>
        <time>1970-01-01T03:45:04.000Z</time>
      </trkpt>
      <trkpt lat="45.9147" lon="3.04969">
        <ele>481.2</ele>
        <time>1970-01-01T03:45:05.000Z</time>
      </trkpt>
      <trkpt lat="45.91476" lon="3.04964">
        <ele>480.7</ele>
        <time>1970-01-01T03:45:06.000Z</time>
      </trkpt>
      <trkpt lat="45.91483" lon="3.0496">
        <ele>480</ele>
        <time>1970-01-01T03:45:07.000Z</time>
      </trkpt>
      <trkpt lat="45.91489" lon="3.04956">
        <ele>479.4</ele>
        <time>1970-01-01T03:45:08.000Z</time>
      </trkpt>
      <trkpt lat="45.91495" lon="3.04953">
        <ele>478.8</ele>
        <time>1970-01-01T03:45:09.000Z</time>
      </trkpt>
      <trkpt lat="45.915" lon="3.0495">
        <ele>478.3</ele>
        <time>1970-01-01T03:45:10.000Z</time>
      </trkpt>
      <trkpt lat="45.91506" lon="3.04946">
        <ele>477.7</ele>
        <time>1970-01-01T03:45:11.000Z</time>
      </trkpt>
      <trkpt lat="45.9151" lon="3.04943">
        <ele>477.2</ele>
        <time>1970-01-01T03:45:12.000Z</time>
      </trkpt>
      <trkpt lat="45.91514" lon="3.04939">
        <ele>476.7</ele>
        <time>1970-01-01T03:45:13.000Z</time>
      </trkpt>
      <trkpt lat="45.91516" lon="3.04936">
        <ele>476.4</ele>
        <time>1970-01-01T03:45:14.000Z</time>
      </trkpt>
      <trkpt lat="45.9152" lon="3.04927">
        <ele>475.6</ele>
        <time>1970-01-01T03:45:15.000Z</time>
      </trkpt>
      <trkpt lat="45.91524" lon="3.04918">
        <ele>474.9</ele>
        <time>1970-01-01T03:45:16.000Z</time>
      </trkpt>
      <trkpt lat="45.91528" lon="3.04909">
        <ele>474.3</ele>
        <time>1970-01-01T03:45:17.000Z</time>
      </trkpt>
      <trkpt lat="45.9153" lon="3.049">
        <ele>473.8</ele>
        <time>1970-01-01T03:45:18.000Z</time>
      </trkpt>
      <trkpt lat="45.91533" lon="3.04891">
        <ele>473.3</ele>
        <time>1970-01-01T03:45:19.000Z</time>
      </trkpt>
      <trkpt lat="45.91535" lon="3.04882">
        <ele>472.9</ele>
        <time>1970-01-01T03:45:20.000Z</time>
      </trkpt>
      <trkpt lat="45.91538" lon="3.04872">
        <ele>472.4</ele>
        <time>1970-01-01T03:45:21.000Z</time>
      </trkpt>
      <trkpt lat="45.9154" lon="3.04862">
        <ele>471.9</ele>
        <time>1970-01-01T03:45:22.000Z</time>
      </trkpt>
      <trkpt lat="45.91543" lon="3.04853">
        <ele>471.5</ele>
        <time>1970-01-01T03:45:23.000Z</time>
      </trkpt>
      <trkpt lat="45.91546" lon="3.04846">
        <ele>471.1</ele>
        <time>1970-01-01T03:45:24.000Z</time>
      </trkpt>
      <trkpt lat="45.91549" lon="3.04838">
        <ele>470.8</ele>
        <time>1970-01-01T03:45:25.000Z</time>
      </trkpt>
      <trkpt lat="45.91551" lon="3.04829">
        <ele>470.5</ele>
        <time>1970-01-01T03:45:26.000Z</time>
      </trkpt>
      <trkpt lat="45.91552" lon="3.0482">
        <ele>470.3</ele>
        <time>1970-01-01T03:45:27.000Z</time>
      </trkpt>
      <trkpt lat="45.91552" lon="3.04811">
        <ele>470</ele>
        <time>1970-01-01T03:45:28.000Z</time>
      </trkpt>
      <trkpt lat="45.91551" lon="3.04801">
        <ele>469.8</ele>
        <time>1970-01-01T03:45:29.000Z</time>
      </trkpt>
      <trkpt lat="45.91549" lon="3.04793">
        <ele>469.6</ele>
        <time>1970-01-01T03:45:30.000Z</time>
      </trkpt>
      <trkpt lat="45.91547" lon="3.04784">
        <ele>469.5</ele>
        <time>1970-01-01T03:45:31.000Z</time>
      </trkpt>
      <trkpt lat="45.91545" lon="3.04776">
        <ele>469.3</ele>
        <time>1970-01-01T03:45:32.000Z</time>
      </trkpt>
      <trkpt lat="45.91542" lon="3.04769">
        <ele>469.2</ele>
        <time>1970-01-01T03:45:33.000Z</time>
      </trkpt>
      <trkpt lat="45.9154" lon="3.04761">
        <ele>469.1</ele>
        <time>1970-01-01T03:45:34.000Z</time>
      </trkpt>
      <trkpt lat="45.91537" lon="3.04752">
        <ele>468.9</ele>
        <time>1970-01-01T03:45:35.000Z</time>
      </trkpt>
      <trkpt lat="45.91535" lon="3.04744">
        <ele>468.8</ele>
        <time>1970-01-01T03:45:36.000Z</time>
      </trkpt>
      <trkpt lat="45.91534" lon="3.04735">
        <ele>468.7</ele>
        <time>1970-01-01T03:45:37.000Z</time>
      </trkpt>
      <trkpt lat="45.91531" lon="3.04727">
        <ele>468.5</ele>
        <time>1970-01-01T03:45:38.000Z</time>
      </trkpt>
      <trkpt lat="45.91528" lon="3.04719">
        <ele>468.5</ele>
        <time>1970-01-01T03:45:39.000Z</time>
      </trkpt>
      <trkpt lat="45.91527" lon="3.04711">
        <ele>468.4</ele>
        <time>1970-01-01T03:45:40.000Z</time>
      </trkpt>
      <trkpt lat="45.91526" lon="3.04703">
        <ele>468.4</ele>
        <time>1970-01-01T03:45:41.000Z</time>
      </trkpt>
      <trkpt lat="45.91527" lon="3.04698">
        <ele>468.5</ele>
        <time>1970-01-01T03:45:42.000Z</time>
      </trkpt>
      <trkpt lat="45.91528" lon="3.04693">
        <ele>468.5</ele>
        <time>1970-01-01T03:45:43.000Z</time>
      </trkpt>
      <trkpt lat="45.9153" lon="3.0469">
        <ele>468.5</ele>
        <time>1970-01-01T03:45:44.000Z</time>
      </trkpt>
      <trkpt lat="45.91532" lon="3.04684">
        <ele>468.5</ele>
        <time>1970-01-01T03:45:45.000Z</time>
      </trkpt>
      <trkpt lat="45.91535" lon="3.04678">
        <ele>468.6</ele>
        <time>1970-01-01T03:45:46.000Z</time>
      </trkpt>
      <trkpt lat="45.91536" lon="3.04674">
        <ele>468.6</ele>
        <time>1970-01-01T03:45:47.000Z</time>
      </trkpt>
      <trkpt lat="45.91538" lon="3.04671">
        <ele>468.6</ele>
        <time>1970-01-01T03:45:48.000Z</time>
      </trkpt>
      <trkpt lat="45.91542" lon="3.04664">
        <ele>468.6</ele>
        <time>1970-01-01T03:45:49.000Z</time>
      </trkpt>
      <trkpt lat="45.91545" lon="3.04659">
        <ele>468.7</ele>
        <time>1970-01-01T03:45:50.000Z</time>
      </trkpt>
      <trkpt lat="45.91547" lon="3.04654">
        <ele>468.7</ele>
        <time>1970-01-01T03:45:51.000Z</time>
      </trkpt>
      <trkpt lat="45.91548" lon="3.0465">
        <ele>468.7</ele>
        <time>1970-01-01T03:45:52.000Z</time>
      </trkpt>
      <trkpt lat="45.91551" lon="3.04643">
        <ele>468.8</ele>
        <time>1970-01-01T03:45:53.000Z</time>
      </trkpt>
      <trkpt lat="45.91555" lon="3.04636">
        <ele>468.8</ele>
        <time>1970-01-01T03:45:54.000Z</time>
      </trkpt>
      <trkpt lat="45.91557" lon="3.04626">
        <ele>468.8</ele>
        <time>1970-01-01T03:45:56.000Z</time>
      </trkpt>
      <trkpt lat="45.91559" lon="3.04621">
        <ele>468.8</ele>
        <time>1970-01-01T03:45:57.000Z</time>
      </trkpt>
      <trkpt lat="45.9156" lon="3.04618">
        <ele>468.8</ele>
        <time>1970-01-01T03:45:58.000Z</time>
      </trkpt>
      <trkpt lat="45.91562" lon="3.04603">
        <ele>468.9</ele>
        <time>1970-01-01T03:46:00.000Z</time>
      </trkpt>
      <trkpt lat="45.91563" lon="3.04597">
        <ele>469</ele>
        <time>1970-01-01T03:46:01.000Z</time>
      </trkpt>
      <trkpt lat="45.91564" lon="3.04591">
        <ele>469</ele>
        <time>1970-01-01T03:46:02.000Z</time>
      </trkpt>
      <trkpt lat="45.91564" lon="3.04589">
        <ele>469</ele>
        <time>1970-01-01T03:46:03.000Z</time>
      </trkpt>
      <trkpt lat="45.91565" lon="3.04585">
        <ele>469</ele>
        <time>1970-01-01T03:46:04.000Z</time>
      </trkpt>
      <trkpt lat="45.91564" lon="3.04576">
        <ele>469</ele>
        <time>1970-01-01T03:46:05.000Z</time>
      </trkpt>
      <trkpt lat="45.91564" lon="3.0457">
        <ele>469</ele>
        <time>1970-01-01T03:46:06.000Z</time>
      </trkpt>
      <trkpt lat="45.91567" lon="3.04564">
        <ele>469</ele>
        <time>1970-01-01T03:46:07.000Z</time>
      </trkpt>
      <trkpt lat="45.91567" lon="3.04556">
        <ele>469</ele>
        <time>1970-01-01T03:46:08.000Z</time>
      </trkpt>
      <trkpt lat="45.91567" lon="3.04549">
        <ele>469</ele>
        <time>1970-01-01T03:46:09.000Z</time>
      </trkpt>
      <trkpt lat="45.91567" lon="3.04542">
        <ele>468.9</ele>
        <time>1970-01-01T03:46:10.000Z</time>
      </trkpt>
      <trkpt lat="45.91568" lon="3.04536">
        <ele>469</ele>
        <time>1970-01-01T03:46:11.000Z</time>
      </trkpt>
      <trkpt lat="45.91569" lon="3.04529">
        <ele>469</ele>
        <time>1970-01-01T03:46:12.000Z</time>
      </trkpt>
      <trkpt lat="45.91569" lon="3.04522">
        <ele>469</ele>
        <time>1970-01-01T03:46:13.000Z</time>
      </trkpt>
      <trkpt lat="45.9157" lon="3.04517">
        <ele>469</ele>
        <time>1970-01-01T03:46:14.000Z</time>
      </trkpt>
      <trkpt lat="45.91569" lon="3.04508">
        <ele>469.1</ele>
        <time>1970-01-01T03:46:15.000Z</time>
      </trkpt>
      <trkpt lat="45.91566" lon="3.04502">
        <ele>469.2</ele>
        <time>1970-01-01T03:46:16.000Z</time>
      </trkpt>
      <trkpt lat="45.91563" lon="3.04494">
        <ele>469.3</ele>
        <time>1970-01-01T03:46:18.000Z</time>
      </trkpt>
      <trkpt lat="45.91564" lon="3.04488">
        <ele>469.4</ele>
        <time>1970-01-01T03:46:19.000Z</time>
      </trkpt>
      <trkpt lat="45.91564" lon="3.04478">
        <ele>469.6</ele>
        <time>1970-01-01T03:46:20.000Z</time>
      </trkpt>
      <trkpt lat="45.91563" lon="3.0447">
        <ele>469.6</ele>
        <time>1970-01-01T03:46:22.000Z</time>
      </trkpt>
      <trkpt lat="45.91562" lon="3.04461">
        <ele>469.7</ele>
        <time>1970-01-01T03:46:24.000Z</time>
      </trkpt>
      <trkpt lat="45.9156" lon="3.0445">
        <ele>469.7</ele>
        <time>1970-01-01T03:46:26.000Z</time>
      </trkpt>
      <trkpt lat="45.91559" lon="3.04444">
        <ele>469.7</ele>
        <time>1970-01-01T03:46:27.000Z</time>
      </trkpt>
      <trkpt lat="45.91558" lon="3.04433">
        <ele>469.7</ele>
        <time>1970-01-01T03:46:28.000Z</time>
      </trkpt>
      <trkpt lat="45.91559" lon="3.04425">
        <ele>469.7</ele>
        <time>1970-01-01T03:46:30.000Z</time>
      </trkpt>
      <trkpt lat="45.91559" lon="3.04419">
        <ele>469.7</ele>
        <time>1970-01-01T03:46:31.000Z</time>
      </trkpt>
      <trkpt lat="45.91559" lon="3.04411">
        <ele>469.7</ele>
        <time>1970-01-01T03:46:32.000Z</time>
      </trkpt>
      <trkpt lat="45.9156" lon="3.04402">
        <ele>469.7</ele>
        <time>1970-01-01T03:46:33.000Z</time>
      </trkpt>
      <trkpt lat="45.91563" lon="3.04391">
        <ele>469.7</ele>
        <time>1970-01-01T03:46:35.000Z</time>
      </trkpt>
      <trkpt lat="45.91563" lon="3.04383">
        <ele>469.7</ele>
        <time>1970-01-01T03:46:36.000Z</time>
      </trkpt>
      <trkpt lat="45.91563" lon="3.04376">
        <ele>469.8</ele>
        <time>1970-01-01T03:46:37.000Z</time>
      </trkpt>
      <trkpt lat="45.91563" lon="3.04368">
        <ele>469.9</ele>
        <time>1970-01-01T03:46:38.000Z</time>
      </trkpt>
      <trkpt lat="45.91562" lon="3.04361">
        <ele>470</ele>
        <time>1970-01-01T03:46:39.000Z</time>
      </trkpt>
      <trkpt lat="45.91563" lon="3.04355">
        <ele>470.1</ele>
        <time>1970-01-01T03:46:41.000Z</time>
      </trkpt>
      <trkpt lat="45.91564" lon="3.0435">
        <ele>470.2</ele>
        <time>1970-01-01T03:46:42.000Z</time>
      </trkpt>
      <trkpt lat="45.91564" lon="3.04344">
        <ele>470.3</ele>
        <time>1970-01-01T03:46:43.000Z</time>
      </trkpt>
      <trkpt lat="45.91565" lon="3.04339">
        <ele>470.3</ele>
        <time>1970-01-01T03:46:44.000Z</time>
      </trkpt>
      <trkpt lat="45.91566" lon="3.04329">
        <ele>470.4</ele>
        <time>1970-01-01T03:46:45.000Z</time>
      </trkpt>
      <trkpt lat="45.91566" lon="3.04321">
        <ele>470.5</ele>
        <time>1970-01-01T03:46:47.000Z</time>
      </trkpt>
      <trkpt lat="45.91566" lon="3.04313">
        <ele>470.5</ele>
        <time>1970-01-01T03:46:48.000Z</time>
      </trkpt>
      <trkpt lat="45.91566" lon="3.04306">
        <ele>470.6</ele>
        <time>1970-01-01T03:46:49.000Z</time>
      </trkpt>
      <trkpt lat="45.91565" lon="3.04298">
        <ele>470.7</ele>
        <time>1970-01-01T03:46:50.000Z</time>
      </trkpt>
      <trkpt lat="45.91565" lon="3.04291">
        <ele>470.8</ele>
        <time>1970-01-01T03:46:51.000Z</time>
      </trkpt>
      <trkpt lat="45.91564" lon="3.04284">
        <ele>471</ele>
        <time>1970-01-01T03:46:53.000Z</time>
      </trkpt>
      <trkpt lat="45.91564" lon="3.04277">
        <ele>471.1</ele>
        <time>1970-01-01T03:46:54.000Z</time>
      </trkpt>
      <trkpt lat="45.91564" lon="3.0427">
        <ele>471.3</ele>
        <time>1970-01-01T03:46:55.000Z</time>
      </trkpt>
      <trkpt lat="45.91565" lon="3.04263">
        <ele>471.4</ele>
        <time>1970-01-01T03:46:56.000Z</time>
      </trkpt>
      <trkpt lat="45.91565" lon="3.04256">
        <ele>471.6</ele>
        <time>1970-01-01T03:46:58.000Z</time>
      </trkpt>
      <trkpt lat="45.91566" lon="3.04251">
        <ele>471.7</ele>
        <time>1970-01-01T03:46:59.000Z</time>
      </trkpt>
      <trkpt lat="45.91566" lon="3.04246">
        <ele>471.8</ele>
        <time>1970-01-01T03:47:00.000Z</time>
      </trkpt>
      <trkpt lat="45.91566" lon="3.04242">
        <ele>471.9</ele>
        <time>1970-01-01T03:47:01.000Z</time>
      </trkpt>
      <trkpt lat="45.91566" lon="3.04238">
        <ele>472</ele>
        <time>1970-01-01T03:47:02.000Z</time>
      </trkpt>
      <trkpt lat="45.91565" lon="3.04233">
        <ele>472.1</ele>
        <time>1970-01-01T03:47:03.000Z</time>
      </trkpt>
      <trkpt lat="45.91565" lon="3.04229">
        <ele>472.1</ele>
        <time>1970-01-01T03:47:04.000Z</time>
      </trkpt>
      <trkpt lat="45.91565" lon="3.04225">
        <ele>472.2</ele>
        <time>1970-01-01T03:47:05.000Z</time>
      </trkpt>
      <trkpt lat="45.91565" lon="3.0422">
        <ele>472.2</ele>
        <time>1970-01-01T03:47:06.000Z</time>
      </trkpt>
      <trkpt lat="45.91566" lon="3.04216">
        <ele>472.2</ele>
        <time>1970-01-01T03:47:07.000Z</time>
      </trkpt>
      <trkpt lat="45.91567" lon="3.04209">
        <ele>472.2</ele>
        <time>1970-01-01T03:47:08.000Z</time>
      </trkpt>
      <trkpt lat="45.91568" lon="3.04204">
        <ele>472.2</ele>
        <time>1970-01-01T03:47:09.000Z</time>
      </trkpt>
      <trkpt lat="45.91568" lon="3.04196">
        <ele>472</ele>
        <time>1970-01-01T03:47:10.000Z</time>
      </trkpt>
      <trkpt lat="45.91569" lon="3.0419">
        <ele>471.9</ele>
        <time>1970-01-01T03:47:11.000Z</time>
      </trkpt>
      <trkpt lat="45.91569" lon="3.04183">
        <ele>471.8</ele>
        <time>1970-01-01T03:47:12.000Z</time>
      </trkpt>
      <trkpt lat="45.91571" lon="3.04174">
        <ele>471.6</ele>
        <time>1970-01-01T03:47:14.000Z</time>
      </trkpt>
      <trkpt lat="45.91569" lon="3.04166">
        <ele>471.4</ele>
        <time>1970-01-01T03:47:15.000Z</time>
      </trkpt>
      <trkpt lat="45.91567" lon="3.04158">
        <ele>471.3</ele>
        <time>1970-01-01T03:47:16.000Z</time>
      </trkpt>
      <trkpt lat="45.91566" lon="3.04151">
        <ele>471.2</ele>
        <time>1970-01-01T03:47:17.000Z</time>
      </trkpt>
      <trkpt lat="45.91563" lon="3.04144">
        <ele>471.1</ele>
        <time>1970-01-01T03:47:18.000Z</time>
      </trkpt>
      <trkpt lat="45.91562" lon="3.04137">
        <ele>471.1</ele>
        <time>1970-01-01T03:47:19.000Z</time>
      </trkpt>
      <trkpt lat="45.9156" lon="3.04129">
        <ele>471.1</ele>
        <time>1970-01-01T03:47:20.000Z</time>
      </trkpt>
      <trkpt lat="45.91561" lon="3.04122">
        <ele>471.1</ele>
        <time>1970-01-01T03:47:21.000Z</time>
      </trkpt>
      <trkpt lat="45.91561" lon="3.04115">
        <ele>471.2</ele>
        <time>1970-01-01T03:47:22.000Z</time>
      </trkpt>
      <trkpt lat="45.91561" lon="3.04108">
        <ele>471.3</ele>
        <time>1970-01-01T03:47:23.000Z</time>
      </trkpt>
      <trkpt lat="45.91561" lon="3.04104">
        <ele>471.4</ele>
        <time>1970-01-01T03:47:24.000Z</time>
      </trkpt>
      <trkpt lat="45.91562" lon="3.04099">
        <ele>471.5</ele>
        <time>1970-01-01T03:47:25.000Z</time>
      </trkpt>
      <trkpt lat="45.91561" lon="3.04091">
        <ele>471.7</ele>
        <time>1970-01-01T03:47:26.000Z</time>
      </trkpt>
      <trkpt lat="45.9156" lon="3.04085">
        <ele>472.2</ele>
        <time>1970-01-01T03:47:27.000Z</time>
      </trkpt>
      <trkpt lat="45.91558" lon="3.0408">
        <ele>472.7</ele>
        <time>1970-01-01T03:47:28.000Z</time>
      </trkpt>
      <trkpt lat="45.91556" lon="3.04076">
        <ele>473.1</ele>
        <time>1970-01-01T03:47:30.000Z</time>
      </trkpt>
      <trkpt lat="45.91556" lon="3.04073">
        <ele>473.3</ele>
        <time>1970-01-01T03:47:31.000Z</time>
      </trkpt>
      <trkpt lat="45.91555" lon="3.04072">
        <ele>473.5</ele>
        <time>1970-01-01T03:47:32.000Z</time>
      </trkpt>
      <trkpt lat="45.91554" lon="3.04068">
        <ele>473.8</ele>
        <time>1970-01-01T03:47:33.000Z</time>
      </trkpt>
      <trkpt lat="45.91553" lon="3.04067">
        <ele>473.9</ele>
        <time>1970-01-01T03:47:34.000Z</time>
      </trkpt>
      <trkpt lat="45.91553" lon="3.04065">
        <ele>474</ele>
        <time>1970-01-01T03:47:35.000Z</time>
      </trkpt>
      <trkpt lat="45.91553" lon="3.04063">
        <ele>474.2</ele>
        <time>1970-01-01T03:47:36.000Z</time>
      </trkpt>
      <trkpt lat="45.91551" lon="3.04061">
        <ele>474.5</ele>
        <time>1970-01-01T03:47:38.000Z</time>
      </trkpt>
      <trkpt lat="45.9155" lon="3.0406">
        <ele>474.7</ele>
        <time>1970-01-01T03:47:39.000Z</time>
      </trkpt>
      <trkpt lat="45.91548" lon="3.04058">
        <ele>474.9</ele>
        <time>1970-01-01T03:47:40.000Z</time>
      </trkpt>
      <trkpt lat="45.91548" lon="3.04055">
        <ele>475.1</ele>
        <time>1970-01-01T03:47:41.000Z</time>
      </trkpt>
      <trkpt lat="45.91545" lon="3.04053">
        <ele>475.5</ele>
        <time>1970-01-01T03:47:43.000Z</time>
      </trkpt>
      <trkpt lat="45.91544" lon="3.04049">
        <ele>475.9</ele>
        <time>1970-01-01T03:47:44.000Z</time>
      </trkpt>
      <trkpt lat="45.91544" lon="3.04048">
        <ele>476</ele>
        <time>1970-01-01T03:47:45.000Z</time>
      </trkpt>
      <trkpt lat="45.91543" lon="3.04046">
        <ele>476.2</ele>
        <time>1970-01-01T03:47:46.000Z</time>
      </trkpt>
      <trkpt lat="45.91542" lon="3.04044">
        <ele>476.4</ele>
        <time>1970-01-01T03:47:47.000Z</time>
      </trkpt>
      <trkpt lat="45.91541" lon="3.04041">
        <ele>476.8</ele>
        <time>1970-01-01T03:47:48.000Z</time>
      </trkpt>
      <trkpt lat="45.91541" lon="3.0404">
        <ele>476.9</ele>
        <time>1970-01-01T03:47:50.000Z</time>
      </trkpt>
      <trkpt lat="45.9154" lon="3.04038">
        <ele>477.1</ele>
        <time>1970-01-01T03:47:51.000Z</time>
      </trkpt>
      <trkpt lat="45.9154" lon="3.04037">
        <ele>477.2</ele>
        <time>1970-01-01T03:47:52.000Z</time>
      </trkpt>
      <trkpt lat="45.91539" lon="3.04036">
        <ele>477.4</ele>
        <time>1970-01-01T03:47:53.000Z</time>
      </trkpt>
      <trkpt lat="45.91539" lon="3.04034">
        <ele>477.5</ele>
        <time>1970-01-01T03:47:54.000Z</time>
      </trkpt>
      <trkpt lat="45.91538" lon="3.04031">
        <ele>477.8</ele>
        <time>1970-01-01T03:47:55.000Z</time>
      </trkpt>
      <trkpt lat="45.91537" lon="3.0403">
        <ele>478</ele>
        <time>1970-01-01T03:47:56.000Z</time>
      </trkpt>
      <trkpt lat="45.91537" lon="3.04029">
        <ele>478.1</ele>
        <time>1970-01-01T03:47:58.000Z</time>
      </trkpt>
      <trkpt lat="45.91536" lon="3.04027">
        <ele>478.3</ele>
        <time>1970-01-01T03:47:59.000Z</time>
      </trkpt>
      <trkpt lat="45.91536" lon="3.04025">
        <ele>478.5</ele>
        <time>1970-01-01T03:48:00.000Z</time>
      </trkpt>
      <trkpt lat="45.91535" lon="3.04022">
        <ele>478.8</ele>
        <time>1970-01-01T03:48:02.000Z</time>
      </trkpt>
      <trkpt lat="45.91534" lon="3.04021">
        <ele>479</ele>
        <time>1970-01-01T03:48:03.000Z</time>
      </trkpt>
      <trkpt lat="45.91534" lon="3.04019">
        <ele>479.2</ele>
        <time>1970-01-01T03:48:04.000Z</time>
      </trkpt>
      <trkpt lat="45.91534" lon="3.04017">
        <ele>479.4</ele>
        <time>1970-01-01T03:48:05.000Z</time>
      </trkpt>
      <trkpt lat="45.91533" lon="3.04016">
        <ele>479.5</ele>
        <time>1970-01-01T03:48:06.000Z</time>
      </trkpt>
      <trkpt lat="45.91532" lon="3.04013">
        <ele>479.8</ele>
        <time>1970-01-01T03:48:08.000Z</time>
      </trkpt>
      <trkpt lat="45.91531" lon="3.04012">
        <ele>480</ele>
        <time>1970-01-01T03:48:09.000Z</time>
      </trkpt>
      <trkpt lat="45.91531" lon="3.0401">
        <ele>480.2</ele>
        <time>1970-01-01T03:48:10.000Z</time>
      </trkpt>
      <trkpt lat="45.9153" lon="3.04009">
        <ele>480.4</ele>
        <time>1970-01-01T03:48:11.000Z</time>
      </trkpt>
      <trkpt lat="45.91529" lon="3.04005">
        <ele>480.8</ele>
        <time>1970-01-01T03:48:13.000Z</time>
      </trkpt>
      <trkpt lat="45.91529" lon="3.04002">
        <ele>481.1</ele>
        <time>1970-01-01T03:48:14.000Z</time>
      </trkpt>
      <trkpt lat="45.91528" lon="3.04001">
        <ele>481.3</ele>
        <time>1970-01-01T03:48:15.000Z</time>
      </trkpt>
      <trkpt lat="45.91528" lon="3.04">
        <ele>481.4</ele>
        <time>1970-01-01T03:48:16.000Z</time>
      </trkpt>
      <trkpt lat="45.91528" lon="3.03998">
        <ele>481.6</ele>
        <time>1970-01-01T03:48:17.000Z</time>
      </trkpt>
      <trkpt lat="45.91527" lon="3.03996">
        <ele>481.9</ele>
        <time>1970-01-01T03:48:19.000Z</time>
      </trkpt>
      <trkpt lat="45.91527" lon="3.03995">
        <ele>482</ele>
        <time>1970-01-01T03:48:20.000Z</time>
      </trkpt>
      <trkpt lat="45.91526" lon="3.03994">
        <ele>482.2</ele>
        <time>1970-01-01T03:48:21.000Z</time>
      </trkpt>
      <trkpt lat="45.91526" lon="3.03992">
        <ele>482.4</ele>
        <time>1970-01-01T03:48:22.000Z</time>
      </trkpt>
      <trkpt lat="45.91525" lon="3.03989">
        <ele>482.7</ele>
        <time>1970-01-01T03:48:23.000Z</time>
      </trkpt>
      <trkpt lat="45.91525" lon="3.03988">
        <ele>482.9</ele>
        <time>1970-01-01T03:48:24.000Z</time>
      </trkpt>
      <trkpt lat="45.91525" lon="3.03987">
        <ele>483</ele>
        <time>1970-01-01T03:48:25.000Z</time>
      </trkpt>
      <trkpt lat="45.91524" lon="3.03983">
        <ele>483.5</ele>
        <time>1970-01-01T03:48:27.000Z</time>
      </trkpt>
      <trkpt lat="45.91524" lon="3.03982">
        <ele>483.6</ele>
        <time>1970-01-01T03:48:28.000Z</time>
      </trkpt>
      <trkpt lat="45.91523" lon="3.03981">
        <ele>483.7</ele>
        <time>1970-01-01T03:48:29.000Z</time>
      </trkpt>
      <trkpt lat="45.91522" lon="3.03979">
        <ele>484.1</ele>
        <time>1970-01-01T03:48:31.000Z</time>
      </trkpt>
      <trkpt lat="45.91522" lon="3.03977">
        <ele>484.3</ele>
        <time>1970-01-01T03:48:32.000Z</time>
      </trkpt>
      <trkpt lat="45.91521" lon="3.03975">
        <ele>484.6</ele>
        <time>1970-01-01T03:48:33.000Z</time>
      </trkpt>
      <trkpt lat="45.9152" lon="3.03974">
        <ele>484.8</ele>
        <time>1970-01-01T03:48:34.000Z</time>
      </trkpt>
      <trkpt lat="45.9152" lon="3.03972">
        <ele>485.1</ele>
        <time>1970-01-01T03:48:36.000Z</time>
      </trkpt>
      <trkpt lat="45.9152" lon="3.0397">
        <ele>485.3</ele>
        <time>1970-01-01T03:48:37.000Z</time>
      </trkpt>
      <trkpt lat="45.91519" lon="3.03968">
        <ele>485.6</ele>
        <time>1970-01-01T03:48:38.000Z</time>
      </trkpt>
      <trkpt lat="45.91519" lon="3.03966">
        <ele>485.9</ele>
        <time>1970-01-01T03:48:39.000Z</time>
      </trkpt>
      <trkpt lat="45.91519" lon="3.03964">
        <ele>486.1</ele>
        <time>1970-01-01T03:48:40.000Z</time>
      </trkpt>
      <trkpt lat="45.91518" lon="3.03961">
        <ele>486.5</ele>
        <time>1970-01-01T03:48:41.000Z</time>
      </trkpt>
      <trkpt lat="45.91518" lon="3.0396">
        <ele>486.7</ele>
        <time>1970-01-01T03:48:43.000Z</time>
      </trkpt>
      <trkpt lat="45.91517" lon="3.03958">
        <ele>486.8</ele>
        <time>1970-01-01T03:48:44.000Z</time>
      </trkpt>
      <trkpt lat="45.91518" lon="3.03957">
        <ele>487</ele>
        <time>1970-01-01T03:48:45.000Z</time>
      </trkpt>
      <trkpt lat="45.91517" lon="3.03954">
        <ele>487.4</ele>
        <time>1970-01-01T03:48:47.000Z</time>
      </trkpt>
      <trkpt lat="45.91517" lon="3.03952">
        <ele>487.7</ele>
        <time>1970-01-01T03:48:48.000Z</time>
      </trkpt>
      <trkpt lat="45.91516" lon="3.0395">
        <ele>487.9</ele>
        <time>1970-01-01T03:48:49.000Z</time>
      </trkpt>
      <trkpt lat="45.91516" lon="3.03949">
        <ele>488.1</ele>
        <time>1970-01-01T03:48:50.000Z</time>
      </trkpt>
      <trkpt lat="45.91515" lon="3.03948">
        <ele>488.3</ele>
        <time>1970-01-01T03:48:51.000Z</time>
      </trkpt>
      <trkpt lat="45.91515" lon="3.03947">
        <ele>488.5</ele>
        <time>1970-01-01T03:48:52.000Z</time>
      </trkpt>
      <trkpt lat="45.91514" lon="3.03945">
        <ele>488.6</ele>
        <time>1970-01-01T03:48:53.000Z</time>
      </trkpt>
      <trkpt lat="45.91514" lon="3.03944">
        <ele>488.8</ele>
        <time>1970-01-01T03:48:54.000Z</time>
      </trkpt>
      <trkpt lat="45.91513" lon="3.03943">
        <ele>489</ele>
        <time>1970-01-01T03:48:55.000Z</time>
      </trkpt>
      <trkpt lat="45.91512" lon="3.03942">
        <ele>489.2</ele>
        <time>1970-01-01T03:48:56.000Z</time>
      </trkpt>
      <trkpt lat="45.91511" lon="3.03941">
        <ele>489.5</ele>
        <time>1970-01-01T03:48:58.000Z</time>
      </trkpt>
      <trkpt lat="45.91511" lon="3.0394">
        <ele>489.6</ele>
        <time>1970-01-01T03:48:59.000Z</time>
      </trkpt>
      <trkpt lat="45.91509" lon="3.03938">
        <ele>490</ele>
        <time>1970-01-01T03:49:00.000Z</time>
      </trkpt>
      <trkpt lat="45.91509" lon="3.03937">
        <ele>490.1</ele>
        <time>1970-01-01T03:49:01.000Z</time>
      </trkpt>
      <trkpt lat="45.91508" lon="3.03936">
        <ele>490.3</ele>
        <time>1970-01-01T03:49:02.000Z</time>
      </trkpt>
      <trkpt lat="45.91508" lon="3.03935">
        <ele>490.4</ele>
        <time>1970-01-01T03:49:03.000Z</time>
      </trkpt>
      <trkpt lat="45.91507" lon="3.03935">
        <ele>490.6</ele>
        <time>1970-01-01T03:49:04.000Z</time>
      </trkpt>
      <trkpt lat="45.91506" lon="3.03934">
        <ele>490.7</ele>
        <time>1970-01-01T03:49:05.000Z</time>
      </trkpt>
      <trkpt lat="45.91506" lon="3.03934">
        <ele>490.8</ele>
        <time>1970-01-01T03:49:06.000Z</time>
      </trkpt>
      <trkpt lat="45.91506" lon="3.03934">
        <ele>490.8</ele>
        <time>1970-01-01T03:49:07.000Z</time>
      </trkpt>
      <trkpt lat="45.91506" lon="3.03934">
        <ele>490.8</ele>
        <time>1970-01-01T03:49:08.000Z</time>
      </trkpt>
      <trkpt lat="45.91506" lon="3.03934">
        <ele>490.8</ele>
        <time>1970-01-01T03:49:09.000Z</time>
      </trkpt>
      <trkpt lat="45.91506" lon="3.03933">
        <ele>490.9</ele>
        <time>1970-01-01T03:49:10.000Z</time>
      </trkpt>
      <trkpt lat="45.91505" lon="3.03933">
        <ele>491</ele>
        <time>1970-01-01T03:49:11.000Z</time>
      </trkpt>
      <trkpt lat="45.91505" lon="3.03933">
        <ele>491</ele>
        <time>1970-01-01T03:49:12.000Z</time>
      </trkpt>
      <trkpt lat="45.91505" lon="3.03932">
        <ele>491.1</ele>
        <time>1970-01-01T03:49:13.000Z</time>
      </trkpt>
      <trkpt lat="45.91504" lon="3.03932">
        <ele>491.1</ele>
        <time>1970-01-01T03:49:14.000Z</time>
      </trkpt>
      <trkpt lat="45.91504" lon="3.03932">
        <ele>491.2</ele>
        <time>1970-01-01T03:49:15.000Z</time>
      </trkpt>
      <trkpt lat="45.91504" lon="3.03932">
        <ele>491.3</ele>
        <time>1970-01-01T03:49:16.000Z</time>
      </trkpt>
      <trkpt lat="45.91504" lon="3.03931">
        <ele>491.3</ele>
        <time>1970-01-01T03:49:17.000Z</time>
      </trkpt>
      <trkpt lat="45.91503" lon="3.03931">
        <ele>491.4</ele>
        <time>1970-01-01T03:49:18.000Z</time>
      </trkpt>
      <trkpt lat="45.91503" lon="3.0393">
        <ele>491.5</ele>
        <time>1970-01-01T03:49:19.000Z</time>
      </trkpt>
      <trkpt lat="45.91503" lon="3.0393">
        <ele>491.5</ele>
        <time>1970-01-01T03:49:20.000Z</time>
      </trkpt>
      <trkpt lat="45.91503" lon="3.03929">
        <ele>491.6</ele>
        <time>1970-01-01T03:49:22.000Z</time>
      </trkpt>
      <trkpt lat="45.91503" lon="3.03929">
        <ele>491.7</ele>
        <time>1970-01-01T03:49:23.000Z</time>
      </trkpt>
      <trkpt lat="45.91503" lon="3.03928">
        <ele>491.8</ele>
        <time>1970-01-01T03:49:24.000Z</time>
      </trkpt>
      <trkpt lat="45.91502" lon="3.03928">
        <ele>491.8</ele>
        <time>1970-01-01T03:49:25.000Z</time>
      </trkpt>
      <trkpt lat="45.91502" lon="3.03927">
        <ele>491.9</ele>
        <time>1970-01-01T03:49:26.000Z</time>
      </trkpt>
      <trkpt lat="45.91501" lon="3.03925">
        <ele>492.2</ele>
        <time>1970-01-01T03:49:27.000Z</time>
      </trkpt>
      <trkpt lat="45.91501" lon="3.03926">
        <ele>492.2</ele>
        <time>1970-01-01T03:49:28.000Z</time>
      </trkpt>
      <trkpt lat="45.91501" lon="3.03925">
        <ele>492.3</ele>
        <time>1970-01-01T03:49:29.000Z</time>
      </trkpt>
      <trkpt lat="45.91501" lon="3.03925">
        <ele>492.4</ele>
        <time>1970-01-01T03:49:30.000Z</time>
      </trkpt>
      <trkpt lat="45.915" lon="3.03924">
        <ele>492.5</ele>
        <time>1970-01-01T03:49:31.000Z</time>
      </trkpt>
      <trkpt lat="45.915" lon="3.03924">
        <ele>492.6</ele>
        <time>1970-01-01T03:49:32.000Z</time>
      </trkpt>
      <trkpt lat="45.91499" lon="3.03923">
        <ele>492.8</ele>
        <time>1970-01-01T03:49:33.000Z</time>
      </trkpt>
      <trkpt lat="45.91498" lon="3.03922">
        <ele>492.9</ele>
        <time>1970-01-01T03:49:34.000Z</time>
      </trkpt>
      <trkpt lat="45.91498" lon="3.03921">
        <ele>493.1</ele>
        <time>1970-01-01T03:49:35.000Z</time>
      </trkpt>
      <trkpt lat="45.91497" lon="3.03919">
        <ele>493.3</ele>
        <time>1970-01-01T03:49:37.000Z</time>
      </trkpt>
      <trkpt lat="45.91496" lon="3.03918">
        <ele>493.4</ele>
        <time>1970-01-01T03:49:38.000Z</time>
      </trkpt>
      <trkpt lat="45.91496" lon="3.03918">
        <ele>493.5</ele>
        <time>1970-01-01T03:49:39.000Z</time>
      </trkpt>
      <trkpt lat="45.91496" lon="3.03917">
        <ele>493.6</ele>
        <time>1970-01-01T03:49:40.000Z</time>
      </trkpt>
      <trkpt lat="45.91495" lon="3.03915">
        <ele>493.8</ele>
        <time>1970-01-01T03:49:41.000Z</time>
      </trkpt>
      <trkpt lat="45.91495" lon="3.03914">
        <ele>493.9</ele>
        <time>1970-01-01T03:49:42.000Z</time>
      </trkpt>
      <trkpt lat="45.91495" lon="3.03913">
        <ele>494.1</ele>
        <time>1970-01-01T03:49:43.000Z</time>
      </trkpt>
      <trkpt lat="45.91494" lon="3.03912">
        <ele>494.2</ele>
        <time>1970-01-01T03:49:44.000Z</time>
      </trkpt>
      <trkpt lat="45.91494" lon="3.0391">
        <ele>494.4</ele>
        <time>1970-01-01T03:49:45.000Z</time>
      </trkpt>
      <trkpt lat="45.91494" lon="3.03909">
        <ele>494.6</ele>
        <time>1970-01-01T03:49:46.000Z</time>
      </trkpt>
      <trkpt lat="45.91494" lon="3.03908">
        <ele>494.7</ele>
        <time>1970-01-01T03:49:47.000Z</time>
      </trkpt>
      <trkpt lat="45.91494" lon="3.03906">
        <ele>494.8</ele>
        <time>1970-01-01T03:49:48.000Z</time>
      </trkpt>
      <trkpt lat="45.91494" lon="3.03905">
        <ele>495</ele>
        <time>1970-01-01T03:49:50.000Z</time>
      </trkpt>
      <trkpt lat="45.91494" lon="3.03904">
        <ele>495</ele>
        <time>1970-01-01T03:49:51.000Z</time>
      </trkpt>
      <trkpt lat="45.91494" lon="3.03903">
        <ele>495.1</ele>
        <time>1970-01-01T03:49:52.000Z</time>
      </trkpt>
      <trkpt lat="45.91494" lon="3.03903">
        <ele>495.2</ele>
        <time>1970-01-01T03:49:53.000Z</time>
      </trkpt>
      <trkpt lat="45.91494" lon="3.03902">
        <ele>495.3</ele>
        <time>1970-01-01T03:49:55.000Z</time>
      </trkpt>
      <trkpt lat="45.91494" lon="3.03901">
        <ele>495.3</ele>
        <time>1970-01-01T03:49:56.000Z</time>
      </trkpt>
      <trkpt lat="45.91494" lon="3.039">
        <ele>495.4</ele>
        <time>1970-01-01T03:49:57.000Z</time>
      </trkpt>
      <trkpt lat="45.91494" lon="3.039">
        <ele>495.5</ele>
        <time>1970-01-01T03:49:58.000Z</time>
      </trkpt>
      <trkpt lat="45.91494" lon="3.03898">
        <ele>495.6</ele>
        <time>1970-01-01T03:49:59.000Z</time>
      </trkpt>
      <trkpt lat="45.91494" lon="3.03897">
        <ele>495.8</ele>
        <time>1970-01-01T03:50:00.000Z</time>
      </trkpt>
      <trkpt lat="45.91494" lon="3.03895">
        <ele>495.9</ele>
        <time>1970-01-01T03:50:01.000Z</time>
      </trkpt>
      <trkpt lat="45.91494" lon="3.03893">
        <ele>496.1</ele>
        <time>1970-01-01T03:50:03.000Z</time>
      </trkpt>
      <trkpt lat="45.91494" lon="3.03891">
        <ele>496.3</ele>
        <time>1970-01-01T03:50:04.000Z</time>
      </trkpt>
      <trkpt lat="45.91494" lon="3.0389">
        <ele>496.4</ele>
        <time>1970-01-01T03:50:05.000Z</time>
      </trkpt>
      <trkpt lat="45.91494" lon="3.03889">
        <ele>496.5</ele>
        <time>1970-01-01T03:50:06.000Z</time>
      </trkpt>
      <trkpt lat="45.91494" lon="3.03887">
        <ele>496.6</ele>
        <time>1970-01-01T03:50:07.000Z</time>
      </trkpt>
      <trkpt lat="45.91494" lon="3.03886">
        <ele>496.7</ele>
        <time>1970-01-01T03:50:08.000Z</time>
      </trkpt>
      <trkpt lat="45.91494" lon="3.03884">
        <ele>496.9</ele>
        <time>1970-01-01T03:50:09.000Z</time>
      </trkpt>
      <trkpt lat="45.91494" lon="3.03882">
        <ele>497</ele>
        <time>1970-01-01T03:50:10.000Z</time>
      </trkpt>
      <trkpt lat="45.91494" lon="3.03881">
        <ele>497</ele>
        <time>1970-01-01T03:50:11.000Z</time>
      </trkpt>
      <trkpt lat="45.91494" lon="3.0388">
        <ele>497.1</ele>
        <time>1970-01-01T03:50:12.000Z</time>
      </trkpt>
      <trkpt lat="45.91494" lon="3.0388">
        <ele>497.2</ele>
        <time>1970-01-01T03:50:13.000Z</time>
      </trkpt>
      <trkpt lat="45.91494" lon="3.03879">
        <ele>497.2</ele>
        <time>1970-01-01T03:50:14.000Z</time>
      </trkpt>
      <trkpt lat="45.91494" lon="3.03879">
        <ele>497.2</ele>
        <time>1970-01-01T03:50:15.000Z</time>
      </trkpt>
      <trkpt lat="45.91494" lon="3.03878">
        <ele>497.2</ele>
        <time>1970-01-01T03:50:16.000Z</time>
      </trkpt>
      <trkpt lat="45.91494" lon="3.03875">
        <ele>497.5</ele>
        <time>1970-01-01T03:50:17.000Z</time>
      </trkpt>
      <trkpt lat="45.91494" lon="3.03872">
        <ele>497.7</ele>
        <time>1970-01-01T03:50:19.000Z</time>
      </trkpt>
      <trkpt lat="45.91494" lon="3.03868">
        <ele>497.9</ele>
        <time>1970-01-01T03:50:21.000Z</time>
      </trkpt>
      <trkpt lat="45.91494" lon="3.03866">
        <ele>498</ele>
        <time>1970-01-01T03:50:22.000Z</time>
      </trkpt>
      <trkpt lat="45.91495" lon="3.03864">
        <ele>498.1</ele>
        <time>1970-01-01T03:50:23.000Z</time>
      </trkpt>
      <trkpt lat="45.91496" lon="3.03863">
        <ele>498.2</ele>
        <time>1970-01-01T03:50:24.000Z</time>
      </trkpt>
      <trkpt lat="45.91498" lon="3.03858">
        <ele>498.4</ele>
        <time>1970-01-01T03:50:26.000Z</time>
      </trkpt>
      <trkpt lat="45.91499" lon="3.03854">
        <ele>498.6</ele>
        <time>1970-01-01T03:50:27.000Z</time>
      </trkpt>
      <trkpt lat="45.915" lon="3.0385">
        <ele>498.7</ele>
        <time>1970-01-01T03:50:28.000Z</time>
      </trkpt>
      <trkpt lat="45.91502" lon="3.03846">
        <ele>498.9</ele>
        <time>1970-01-01T03:50:30.000Z</time>
      </trkpt>
      <trkpt lat="45.91502" lon="3.03844">
        <ele>498.9</ele>
        <time>1970-01-01T03:50:31.000Z</time>
      </trkpt>
      <trkpt lat="45.91503" lon="3.03839">
        <ele>499.1</ele>
        <time>1970-01-01T03:50:33.000Z</time>
      </trkpt>
      <trkpt lat="45.91505" lon="3.03834">
        <ele>499.2</ele>
        <time>1970-01-01T03:50:34.000Z</time>
      </trkpt>
      <trkpt lat="45.91507" lon="3.0383">
        <ele>499.3</ele>
        <time>1970-01-01T03:50:35.000Z</time>
      </trkpt>
      <trkpt lat="45.91508" lon="3.03826">
        <ele>499.4</ele>
        <time>1970-01-01T03:50:36.000Z</time>
      </trkpt>
      <trkpt lat="45.91509" lon="3.03822">
        <ele>499.5</ele>
        <time>1970-01-01T03:50:37.000Z</time>
      </trkpt>
      <trkpt lat="45.91511" lon="3.03816">
        <ele>499.6</ele>
        <time>1970-01-01T03:50:39.000Z</time>
      </trkpt>
      <trkpt lat="45.91511" lon="3.03814">
        <ele>499.6</ele>
        <time>1970-01-01T03:50:40.000Z</time>
      </trkpt>
      <trkpt lat="45.91513" lon="3.0381">
        <ele>499.7</ele>
        <time>1970-01-01T03:50:41.000Z</time>
      </trkpt>
      <trkpt lat="45.91515" lon="3.03806">
        <ele>499.8</ele>
        <time>1970-01-01T03:50:42.000Z</time>
      </trkpt>
      <trkpt lat="45.91517" lon="3.03801">
        <ele>500</ele>
        <time>1970-01-01T03:50:44.000Z</time>
      </trkpt>
      <trkpt lat="45.9152" lon="3.03796">
        <ele>500.1</ele>
        <time>1970-01-01T03:50:45.000Z</time>
      </trkpt>
      <trkpt lat="45.9152" lon="3.03792">
        <ele>500.3</ele>
        <time>1970-01-01T03:50:46.000Z</time>
      </trkpt>
      <trkpt lat="45.91521" lon="3.03787">
        <ele>500.4</ele>
        <time>1970-01-01T03:50:48.000Z</time>
      </trkpt>
      <trkpt lat="45.91522" lon="3.03782">
        <ele>500.6</ele>
        <time>1970-01-01T03:50:49.000Z</time>
      </trkpt>
      <trkpt lat="45.91523" lon="3.03777">
        <ele>500.8</ele>
        <time>1970-01-01T03:50:50.000Z</time>
      </trkpt>
      <trkpt lat="45.91523" lon="3.03776">
        <ele>500.9</ele>
        <time>1970-01-01T03:50:51.000Z</time>
      </trkpt>
      <trkpt lat="45.91524" lon="3.0377">
        <ele>501.1</ele>
        <time>1970-01-01T03:50:52.000Z</time>
      </trkpt>
      <trkpt lat="45.91525" lon="3.03767">
        <ele>501.3</ele>
        <time>1970-01-01T03:50:53.000Z</time>
      </trkpt>
      <trkpt lat="45.91525" lon="3.03762">
        <ele>501.5</ele>
        <time>1970-01-01T03:50:55.000Z</time>
      </trkpt>
      <trkpt lat="45.91526" lon="3.03758">
        <ele>501.7</ele>
        <time>1970-01-01T03:50:56.000Z</time>
      </trkpt>
      <trkpt lat="45.91527" lon="3.03756">
        <ele>501.8</ele>
        <time>1970-01-01T03:50:57.000Z</time>
      </trkpt>
      <trkpt lat="45.91527" lon="3.03751">
        <ele>502.1</ele>
        <time>1970-01-01T03:50:59.000Z</time>
      </trkpt>
      <trkpt lat="45.91527" lon="3.03749">
        <ele>502.2</ele>
        <time>1970-01-01T03:51:00.000Z</time>
      </trkpt>
      <trkpt lat="45.91528" lon="3.03747">
        <ele>502.3</ele>
        <time>1970-01-01T03:51:01.000Z</time>
      </trkpt>
      <trkpt lat="45.91528" lon="3.03745">
        <ele>502.4</ele>
        <time>1970-01-01T03:51:02.000Z</time>
      </trkpt>
      <trkpt lat="45.91527" lon="3.03742">
        <ele>502.5</ele>
        <time>1970-01-01T03:51:03.000Z</time>
      </trkpt>
      <trkpt lat="45.91528" lon="3.03737">
        <ele>502.7</ele>
        <time>1970-01-01T03:51:05.000Z</time>
      </trkpt>
      <trkpt lat="45.91529" lon="3.03736">
        <ele>502.8</ele>
        <time>1970-01-01T03:51:06.000Z</time>
      </trkpt>
      <trkpt lat="45.91529" lon="3.03734">
        <ele>502.8</ele>
        <time>1970-01-01T03:51:07.000Z</time>
      </trkpt>
      <trkpt lat="45.91529" lon="3.03732">
        <ele>502.9</ele>
        <time>1970-01-01T03:51:08.000Z</time>
      </trkpt>
      <trkpt lat="45.91529" lon="3.03728">
        <ele>503</ele>
        <time>1970-01-01T03:51:09.000Z</time>
      </trkpt>
      <trkpt lat="45.9153" lon="3.03727">
        <ele>503</ele>
        <time>1970-01-01T03:51:10.000Z</time>
      </trkpt>
      <trkpt lat="45.91531" lon="3.0372">
        <ele>503.2</ele>
        <time>1970-01-01T03:51:11.000Z</time>
      </trkpt>
      <trkpt lat="45.91532" lon="3.03716">
        <ele>503.3</ele>
        <time>1970-01-01T03:51:12.000Z</time>
      </trkpt>
      <trkpt lat="45.91535" lon="3.03705">
        <ele>503.1</ele>
        <time>1970-01-01T03:51:14.000Z</time>
      </trkpt>
      <trkpt lat="45.91536" lon="3.03701">
        <ele>503</ele>
        <time>1970-01-01T03:51:15.000Z</time>
      </trkpt>
      <trkpt lat="45.91537" lon="3.03692">
        <ele>502.8</ele>
        <time>1970-01-01T03:51:16.000Z</time>
      </trkpt>
      <trkpt lat="45.91537" lon="3.03685">
        <ele>502.8</ele>
        <time>1970-01-01T03:51:17.000Z</time>
      </trkpt>
      <trkpt lat="45.91536" lon="3.03678">
        <ele>502.8</ele>
        <time>1970-01-01T03:51:18.000Z</time>
      </trkpt>
      <trkpt lat="45.91535" lon="3.03671">
        <ele>502.8</ele>
        <time>1970-01-01T03:51:20.000Z</time>
      </trkpt>
      <trkpt lat="45.91535" lon="3.03664">
        <ele>502.8</ele>
        <time>1970-01-01T03:51:21.000Z</time>
      </trkpt>
      <trkpt lat="45.91536" lon="3.03659">
        <ele>502.8</ele>
        <time>1970-01-01T03:51:22.000Z</time>
      </trkpt>
      <trkpt lat="45.91537" lon="3.03653">
        <ele>502.8</ele>
        <time>1970-01-01T03:51:23.000Z</time>
      </trkpt>
      <trkpt lat="45.91537" lon="3.03647">
        <ele>502.8</ele>
        <time>1970-01-01T03:51:24.000Z</time>
      </trkpt>
      <trkpt lat="45.91537" lon="3.03641">
        <ele>502.8</ele>
        <time>1970-01-01T03:51:25.000Z</time>
      </trkpt>
      <trkpt lat="45.91537" lon="3.03634">
        <ele>502.7</ele>
        <time>1970-01-01T03:51:26.000Z</time>
      </trkpt>
      <trkpt lat="45.91537" lon="3.03631">
        <ele>502.6</ele>
        <time>1970-01-01T03:51:27.000Z</time>
      </trkpt>
      <trkpt lat="45.91537" lon="3.03624">
        <ele>502.4</ele>
        <time>1970-01-01T03:51:29.000Z</time>
      </trkpt>
      <trkpt lat="45.91536" lon="3.0362">
        <ele>502.3</ele>
        <time>1970-01-01T03:51:30.000Z</time>
      </trkpt>
      <trkpt lat="45.91535" lon="3.03615">
        <ele>502</ele>
        <time>1970-01-01T03:51:31.000Z</time>
      </trkpt>
      <trkpt lat="45.91533" lon="3.03609">
        <ele>501.7</ele>
        <time>1970-01-01T03:51:32.000Z</time>
      </trkpt>
      <trkpt lat="45.91531" lon="3.03603">
        <ele>501.3</ele>
        <time>1970-01-01T03:51:33.000Z</time>
      </trkpt>
      <trkpt lat="45.91528" lon="3.03597">
        <ele>500.7</ele>
        <time>1970-01-01T03:51:34.000Z</time>
      </trkpt>
      <trkpt lat="45.91526" lon="3.03592">
        <ele>500.3</ele>
        <time>1970-01-01T03:51:35.000Z</time>
      </trkpt>
      <trkpt lat="45.91527" lon="3.03586">
        <ele>499.9</ele>
        <time>1970-01-01T03:51:37.000Z</time>
      </trkpt>
      <trkpt lat="45.9153" lon="3.03585">
        <ele>499.6</ele>
        <time>1970-01-01T03:51:38.000Z</time>
      </trkpt>
      <trkpt lat="45.91531" lon="3.03586">
        <ele>499.4</ele>
        <time>1970-01-01T03:51:39.000Z</time>
      </trkpt>
      <trkpt lat="45.91535" lon="3.03584">
        <ele>499</ele>
        <time>1970-01-01T03:51:41.000Z</time>
      </trkpt>
      <trkpt lat="45.91536" lon="3.03584">
        <ele>498.9</ele>
        <time>1970-01-01T03:51:42.000Z</time>
      </trkpt>
      <trkpt lat="45.91537" lon="3.03584">
        <ele>498.7</ele>
        <time>1970-01-01T03:51:43.000Z</time>
      </trkpt>
      <trkpt lat="45.91538" lon="3.03584">
        <ele>498.6</ele>
        <time>1970-01-01T03:51:44.000Z</time>
      </trkpt>
      <trkpt lat="45.91543" lon="3.03585">
        <ele>498.1</ele>
        <time>1970-01-01T03:51:46.000Z</time>
      </trkpt>
      <trkpt lat="45.91545" lon="3.03584">
        <ele>497.8</ele>
        <time>1970-01-01T03:51:47.000Z</time>
      </trkpt>
      <trkpt lat="45.91548" lon="3.03581">
        <ele>497.4</ele>
        <time>1970-01-01T03:51:48.000Z</time>
      </trkpt>
      <trkpt lat="45.9155" lon="3.03577">
        <ele>497.1</ele>
        <time>1970-01-01T03:51:49.000Z</time>
      </trkpt>
      <trkpt lat="45.91552" lon="3.03573">
        <ele>496.7</ele>
        <time>1970-01-01T03:51:50.000Z</time>
      </trkpt>
      <trkpt lat="45.91555" lon="3.03573">
        <ele>496.4</ele>
        <time>1970-01-01T03:51:52.000Z</time>
      </trkpt>
      <trkpt lat="45.91558" lon="3.03573">
        <ele>496</ele>
        <time>1970-01-01T03:51:53.000Z</time>
      </trkpt>
      <trkpt lat="45.91561" lon="3.03571">
        <ele>495.7</ele>
        <time>1970-01-01T03:51:54.000Z</time>
      </trkpt>
      <trkpt lat="45.91564" lon="3.03569">
        <ele>495.4</ele>
        <time>1970-01-01T03:51:55.000Z</time>
      </trkpt>
      <trkpt lat="45.91566" lon="3.03565">
        <ele>495.1</ele>
        <time>1970-01-01T03:51:56.000Z</time>
      </trkpt>
      <trkpt lat="45.91566" lon="3.03561">
        <ele>494.8</ele>
        <time>1970-01-01T03:51:57.000Z</time>
      </trkpt>
      <trkpt lat="45.91567" lon="3.03557">
        <ele>494.6</ele>
        <time>1970-01-01T03:51:58.000Z</time>
      </trkpt>
      <trkpt lat="45.91569" lon="3.0355">
        <ele>494.3</ele>
        <time>1970-01-01T03:51:59.000Z</time>
      </trkpt>
      <trkpt lat="45.91572" lon="3.03546">
        <ele>494.1</ele>
        <time>1970-01-01T03:52:00.000Z</time>
      </trkpt>
      <trkpt lat="45.91574" lon="3.03538">
        <ele>493.8</ele>
        <time>1970-01-01T03:52:01.000Z</time>
      </trkpt>
      <trkpt lat="45.91576" lon="3.03534">
        <ele>493.7</ele>
        <time>1970-01-01T03:52:02.000Z</time>
      </trkpt>
      <trkpt lat="45.91577" lon="3.03532">
        <ele>493.6</ele>
        <time>1970-01-01T03:52:03.000Z</time>
      </trkpt>
      <trkpt lat="45.91578" lon="3.0353">
        <ele>493.6</ele>
        <time>1970-01-01T03:52:04.000Z</time>
      </trkpt>
      <trkpt lat="45.9158" lon="3.03523">
        <ele>493.5</ele>
        <time>1970-01-01T03:52:05.000Z</time>
      </trkpt>
      <trkpt lat="45.91581" lon="3.03517">
        <ele>493.4</ele>
        <time>1970-01-01T03:52:06.000Z</time>
      </trkpt>
      <trkpt lat="45.91582" lon="3.03513">
        <ele>493.4</ele>
        <time>1970-01-01T03:52:07.000Z</time>
      </trkpt>
      <trkpt lat="45.91586" lon="3.03509">
        <ele>493.3</ele>
        <time>1970-01-01T03:52:08.000Z</time>
      </trkpt>
      <trkpt lat="45.91588" lon="3.03506">
        <ele>493.3</ele>
        <time>1970-01-01T03:52:09.000Z</time>
      </trkpt>
      <trkpt lat="45.9159" lon="3.03502">
        <ele>493.3</ele>
        <time>1970-01-01T03:52:10.000Z</time>
      </trkpt>
      <trkpt lat="45.91592" lon="3.03499">
        <ele>493.3</ele>
        <time>1970-01-01T03:52:11.000Z</time>
      </trkpt>
      <trkpt lat="45.91595" lon="3.03495">
        <ele>493.4</ele>
        <time>1970-01-01T03:52:12.000Z</time>
      </trkpt>
      <trkpt lat="45.91599" lon="3.03492">
        <ele>493.4</ele>
        <time>1970-01-01T03:52:13.000Z</time>
      </trkpt>
      <trkpt lat="45.91603" lon="3.03488">
        <ele>493.5</ele>
        <time>1970-01-01T03:52:14.000Z</time>
      </trkpt>
      <trkpt lat="45.91607" lon="3.03485">
        <ele>493.5</ele>
        <time>1970-01-01T03:52:16.000Z</time>
      </trkpt>
      <trkpt lat="45.91611" lon="3.03482">
        <ele>493.6</ele>
        <time>1970-01-01T03:52:17.000Z</time>
      </trkpt>
      <trkpt lat="45.91614" lon="3.03479">
        <ele>493.7</ele>
        <time>1970-01-01T03:52:19.000Z</time>
      </trkpt>
      <trkpt lat="45.91617" lon="3.03474">
        <ele>493.8</ele>
        <time>1970-01-01T03:52:20.000Z</time>
      </trkpt>
      <trkpt lat="45.9162" lon="3.0347">
        <ele>493.9</ele>
        <time>1970-01-01T03:52:21.000Z</time>
      </trkpt>
      <trkpt lat="45.91623" lon="3.03466">
        <ele>494.1</ele>
        <time>1970-01-01T03:52:22.000Z</time>
      </trkpt>
      <trkpt lat="45.91626" lon="3.03463">
        <ele>494.3</ele>
        <time>1970-01-01T03:52:23.000Z</time>
      </trkpt>
      <trkpt lat="45.91628" lon="3.0346">
        <ele>494.4</ele>
        <time>1970-01-01T03:52:24.000Z</time>
      </trkpt>
      <trkpt lat="45.91631" lon="3.03457">
        <ele>494.6</ele>
        <time>1970-01-01T03:52:25.000Z</time>
      </trkpt>
      <trkpt lat="45.91631" lon="3.03455">
        <ele>494.6</ele>
        <time>1970-01-01T03:52:26.000Z</time>
      </trkpt>
      <trkpt lat="45.91633" lon="3.03451">
        <ele>494.8</ele>
        <time>1970-01-01T03:52:27.000Z</time>
      </trkpt>
      <trkpt lat="45.91634" lon="3.0345">
        <ele>494.8</ele>
        <time>1970-01-01T03:52:28.000Z</time>
      </trkpt>
      <trkpt lat="45.91635" lon="3.03448">
        <ele>494.9</ele>
        <time>1970-01-01T03:52:29.000Z</time>
      </trkpt>
      <trkpt lat="45.91636" lon="3.03445">
        <ele>495</ele>
        <time>1970-01-01T03:52:31.000Z</time>
      </trkpt>
      <trkpt lat="45.91637" lon="3.03441">
        <ele>495.2</ele>
        <time>1970-01-01T03:52:32.000Z</time>
      </trkpt>
      <trkpt lat="45.91637" lon="3.03439">
        <ele>495.2</ele>
        <time>1970-01-01T03:52:33.000Z</time>
      </trkpt>
      <trkpt lat="45.91639" lon="3.03433">
        <ele>495.4</ele>
        <time>1970-01-01T03:52:34.000Z</time>
      </trkpt>
      <trkpt lat="45.91639" lon="3.03431">
        <ele>495.5</ele>
        <time>1970-01-01T03:52:35.000Z</time>
      </trkpt>
      <trkpt lat="45.91641" lon="3.03424">
        <ele>495.7</ele>
        <time>1970-01-01T03:52:37.000Z</time>
      </trkpt>
      <trkpt lat="45.91642" lon="3.03421">
        <ele>495.8</ele>
        <time>1970-01-01T03:52:38.000Z</time>
      </trkpt>
      <trkpt lat="45.91642" lon="3.03419">
        <ele>495.9</ele>
        <time>1970-01-01T03:52:39.000Z</time>
      </trkpt>
      <trkpt lat="45.91644" lon="3.03414">
        <ele>496.1</ele>
        <time>1970-01-01T03:52:41.000Z</time>
      </trkpt>
      <trkpt lat="45.91644" lon="3.03409">
        <ele>496.3</ele>
        <time>1970-01-01T03:52:42.000Z</time>
      </trkpt>
      <trkpt lat="45.91644" lon="3.03408">
        <ele>496.3</ele>
        <time>1970-01-01T03:52:43.000Z</time>
      </trkpt>
      <trkpt lat="45.91645" lon="3.03403">
        <ele>496.5</ele>
        <time>1970-01-01T03:52:44.000Z</time>
      </trkpt>
      <trkpt lat="45.91645" lon="3.03401">
        <ele>496.6</ele>
        <time>1970-01-01T03:52:45.000Z</time>
      </trkpt>
      <trkpt lat="45.91647" lon="3.03397">
        <ele>496.7</ele>
        <time>1970-01-01T03:52:46.000Z</time>
      </trkpt>
      <trkpt lat="45.91647" lon="3.03396">
        <ele>496.8</ele>
        <time>1970-01-01T03:52:47.000Z</time>
      </trkpt>
      <trkpt lat="45.91648" lon="3.03394">
        <ele>496.9</ele>
        <time>1970-01-01T03:52:48.000Z</time>
      </trkpt>
      <trkpt lat="45.91649" lon="3.03392">
        <ele>497</ele>
        <time>1970-01-01T03:52:49.000Z</time>
      </trkpt>
      <trkpt lat="45.91651" lon="3.03388">
        <ele>497.1</ele>
        <time>1970-01-01T03:52:50.000Z</time>
      </trkpt>
      <trkpt lat="45.91651" lon="3.03387">
        <ele>497.2</ele>
        <time>1970-01-01T03:52:51.000Z</time>
      </trkpt>
      <trkpt lat="45.91652" lon="3.03385">
        <ele>497.3</ele>
        <time>1970-01-01T03:52:52.000Z</time>
      </trkpt>
      <trkpt lat="45.91653" lon="3.03384">
        <ele>497.4</ele>
        <time>1970-01-01T03:52:53.000Z</time>
      </trkpt>
      <trkpt lat="45.91655" lon="3.03382">
        <ele>497.5</ele>
        <time>1970-01-01T03:52:54.000Z</time>
      </trkpt>
      <trkpt lat="45.91656" lon="3.03382">
        <ele>497.5</ele>
        <time>1970-01-01T03:52:55.000Z</time>
      </trkpt>
      <trkpt lat="45.91657" lon="3.0338">
        <ele>497.7</ele>
        <time>1970-01-01T03:52:56.000Z</time>
      </trkpt>
      <trkpt lat="45.91658" lon="3.03378">
        <ele>497.7</ele>
        <time>1970-01-01T03:52:57.000Z</time>
      </trkpt>
      <trkpt lat="45.91659" lon="3.03377">
        <ele>497.8</ele>
        <time>1970-01-01T03:52:58.000Z</time>
      </trkpt>
      <trkpt lat="45.91659" lon="3.03375">
        <ele>497.9</ele>
        <time>1970-01-01T03:52:59.000Z</time>
      </trkpt>
      <trkpt lat="45.9166" lon="3.03374">
        <ele>498</ele>
        <time>1970-01-01T03:53:00.000Z</time>
      </trkpt>
      <trkpt lat="45.91661" lon="3.03373">
        <ele>498</ele>
        <time>1970-01-01T03:53:01.000Z</time>
      </trkpt>
      <trkpt lat="45.91662" lon="3.03373">
        <ele>498.1</ele>
        <time>1970-01-01T03:53:02.000Z</time>
      </trkpt>
      <trkpt lat="45.91662" lon="3.03372">
        <ele>498.2</ele>
        <time>1970-01-01T03:53:03.000Z</time>
      </trkpt>
      <trkpt lat="45.91663" lon="3.03372">
        <ele>498.2</ele>
        <time>1970-01-01T03:53:04.000Z</time>
      </trkpt>
      <trkpt lat="45.91664" lon="3.03372">
        <ele>498.2</ele>
        <time>1970-01-01T03:53:05.000Z</time>
      </trkpt>
      <trkpt lat="45.91664" lon="3.03372">
        <ele>498.3</ele>
        <time>1970-01-01T03:53:06.000Z</time>
      </trkpt>
      <trkpt lat="45.91666" lon="3.03372">
        <ele>498.4</ele>
        <time>1970-01-01T03:53:08.000Z</time>
      </trkpt>
      <trkpt lat="45.91666" lon="3.03372">
        <ele>498.4</ele>
        <time>1970-01-01T03:53:09.000Z</time>
      </trkpt>
      <trkpt lat="45.91666" lon="3.03372">
        <ele>498.1</ele>
        <time>1970-01-01T03:53:10.000Z</time>
      </trkpt>
      <trkpt lat="45.91666" lon="3.03371">
        <ele>498.1</ele>
        <time>1970-01-01T03:53:11.000Z</time>
      </trkpt>
      <trkpt lat="45.91667" lon="3.03371">
        <ele>498.1</ele>
        <time>1970-01-01T03:53:12.000Z</time>
      </trkpt>
      <trkpt lat="45.91667" lon="3.03371">
        <ele>498.1</ele>
        <time>1970-01-01T03:53:13.000Z</time>
      </trkpt>
      <trkpt lat="45.91668" lon="3.0337">
        <ele>498.1</ele>
        <time>1970-01-01T03:53:15.000Z</time>
      </trkpt>
      <trkpt lat="45.91669" lon="3.03369">
        <ele>498.1</ele>
        <time>1970-01-01T03:53:16.000Z</time>
      </trkpt>
      <trkpt lat="45.9167" lon="3.03368">
        <ele>498.1</ele>
        <time>1970-01-01T03:53:17.000Z</time>
      </trkpt>
      <trkpt lat="45.91671" lon="3.03367">
        <ele>498.1</ele>
        <time>1970-01-01T03:53:18.000Z</time>
      </trkpt>
      <trkpt lat="45.91673" lon="3.03365">
        <ele>498.1</ele>
        <time>1970-01-01T03:53:19.000Z</time>
      </trkpt>
      <trkpt lat="45.91674" lon="3.03365">
        <ele>498.1</ele>
        <time>1970-01-01T03:53:21.000Z</time>
      </trkpt>
      <trkpt lat="45.91675" lon="3.03366">
        <ele>498.1</ele>
        <time>1970-01-01T03:53:22.000Z</time>
      </trkpt>
      <trkpt lat="45.91675" lon="3.03367">
        <ele>498.1</ele>
        <time>1970-01-01T03:53:23.000Z</time>
      </trkpt>
      <trkpt lat="45.91676" lon="3.03368">
        <ele>498.1</ele>
        <time>1970-01-01T03:53:25.000Z</time>
      </trkpt>
      <trkpt lat="45.91676" lon="3.03369">
        <ele>498.1</ele>
        <time>1970-01-01T03:53:26.000Z</time>
      </trkpt>
      <trkpt lat="45.91676" lon="3.03371">
        <ele>498.1</ele>
        <time>1970-01-01T03:53:27.000Z</time>
      </trkpt>
      <trkpt lat="45.91676" lon="3.03371">
        <ele>498.1</ele>
        <time>1970-01-01T03:53:28.000Z</time>
      </trkpt>
      <trkpt lat="45.91676" lon="3.03372">
        <ele>498.1</ele>
        <time>1970-01-01T03:53:29.000Z</time>
      </trkpt>
      <trkpt lat="45.91676" lon="3.03373">
        <ele>498.1</ele>
        <time>1970-01-01T03:53:30.000Z</time>
      </trkpt>
      <trkpt lat="45.91675" lon="3.03374">
        <ele>498.1</ele>
        <time>1970-01-01T03:53:31.000Z</time>
      </trkpt>
      <trkpt lat="45.91675" lon="3.03374">
        <ele>498.1</ele>
        <time>1970-01-01T03:53:32.000Z</time>
      </trkpt>
      <trkpt lat="45.91675" lon="3.03377">
        <ele>498.1</ele>
        <time>1970-01-01T03:53:33.000Z</time>
      </trkpt>
      <trkpt lat="45.91675" lon="3.03379">
        <ele>498.2</ele>
        <time>1970-01-01T03:53:34.000Z</time>
      </trkpt>
      <trkpt lat="45.91675" lon="3.03381">
        <ele>498.2</ele>
        <time>1970-01-01T03:53:35.000Z</time>
      </trkpt>
      <trkpt lat="45.91675" lon="3.03383">
        <ele>498.2</ele>
        <time>1970-01-01T03:53:36.000Z</time>
      </trkpt>
      <trkpt lat="45.91676" lon="3.03387">
        <ele>498.2</ele>
        <time>1970-01-01T03:53:38.000Z</time>
      </trkpt>
      <trkpt lat="45.91675" lon="3.03391">
        <ele>498.2</ele>
        <time>1970-01-01T03:53:39.000Z</time>
      </trkpt>
      <trkpt lat="45.91676" lon="3.03396">
        <ele>498.2</ele>
        <time>1970-01-01T03:53:40.000Z</time>
      </trkpt>
      <trkpt lat="45.91675" lon="3.03401">
        <ele>498.2</ele>
        <time>1970-01-01T03:53:41.000Z</time>
      </trkpt>
      <trkpt lat="45.91675" lon="3.03404">
        <ele>498.2</ele>
        <time>1970-01-01T03:53:42.000Z</time>
      </trkpt>
      <trkpt lat="45.91675" lon="3.03408">
        <ele>498.2</ele>
        <time>1970-01-01T03:53:44.000Z</time>
      </trkpt>
      <trkpt lat="45.91674" lon="3.03413">
        <ele>498.2</ele>
        <time>1970-01-01T03:53:45.000Z</time>
      </trkpt>
      <trkpt lat="45.91674" lon="3.03415">
        <ele>498.2</ele>
        <time>1970-01-01T03:53:46.000Z</time>
      </trkpt>
      <trkpt lat="45.91673" lon="3.03418">
        <ele>498.2</ele>
        <time>1970-01-01T03:53:47.000Z</time>
      </trkpt>
      <trkpt lat="45.91672" lon="3.03422">
        <ele>498.2</ele>
        <time>1970-01-01T03:53:49.000Z</time>
      </trkpt>
      <trkpt lat="45.91672" lon="3.03427">
        <ele>498.2</ele>
        <time>1970-01-01T03:53:50.000Z</time>
      </trkpt>
      <trkpt lat="45.91672" lon="3.03429">
        <ele>498.2</ele>
        <time>1970-01-01T03:53:51.000Z</time>
      </trkpt>
      <trkpt lat="45.91672" lon="3.03434">
        <ele>498.2</ele>
        <time>1970-01-01T03:53:52.000Z</time>
      </trkpt>
      <trkpt lat="45.91672" lon="3.03435">
        <ele>498.2</ele>
        <time>1970-01-01T03:53:53.000Z</time>
      </trkpt>
      <trkpt lat="45.91671" lon="3.03441">
        <ele>498.2</ele>
        <time>1970-01-01T03:53:54.000Z</time>
      </trkpt>
      <trkpt lat="45.91669" lon="3.03444">
        <ele>498.3</ele>
        <time>1970-01-01T03:53:55.000Z</time>
      </trkpt>
      <trkpt lat="45.91667" lon="3.03449">
        <ele>498.3</ele>
        <time>1970-01-01T03:53:56.000Z</time>
      </trkpt>
      <trkpt lat="45.91666" lon="3.03455">
        <ele>498.3</ele>
        <time>1970-01-01T03:53:58.000Z</time>
      </trkpt>
      <trkpt lat="45.91665" lon="3.0346">
        <ele>498.4</ele>
        <time>1970-01-01T03:53:59.000Z</time>
      </trkpt>
      <trkpt lat="45.91663" lon="3.03466">
        <ele>498.5</ele>
        <time>1970-01-01T03:54:00.000Z</time>
      </trkpt>
      <trkpt lat="45.91661" lon="3.03471">
        <ele>498.5</ele>
        <time>1970-01-01T03:54:01.000Z</time>
      </trkpt>
      <trkpt lat="45.91658" lon="3.03475">
        <ele>498.6</ele>
        <time>1970-01-01T03:54:02.000Z</time>
      </trkpt>
      <trkpt lat="45.91654" lon="3.03481">
        <ele>498.7</ele>
        <time>1970-01-01T03:54:04.000Z</time>
      </trkpt>
      <trkpt lat="45.91652" lon="3.03486">
        <ele>498.7</ele>
        <time>1970-01-01T03:54:05.000Z</time>
      </trkpt>
      <trkpt lat="45.91651" lon="3.03487">
        <ele>498.7</ele>
        <time>1970-01-01T03:54:06.000Z</time>
      </trkpt>
      <trkpt lat="45.91649" lon="3.03491">
        <ele>498.7</ele>
        <time>1970-01-01T03:54:07.000Z</time>
      </trkpt>
      <trkpt lat="45.91647" lon="3.03496">
        <ele>498.6</ele>
        <time>1970-01-01T03:54:09.000Z</time>
      </trkpt>
      <trkpt lat="45.91644" lon="3.03501">
        <ele>498.6</ele>
        <time>1970-01-01T03:54:11.000Z</time>
      </trkpt>
      <trkpt lat="45.91643" lon="3.03505">
        <ele>498.5</ele>
        <time>1970-01-01T03:54:12.000Z</time>
      </trkpt>
      <trkpt lat="45.91642" lon="3.03509">
        <ele>498.4</ele>
        <time>1970-01-01T03:54:13.000Z</time>
      </trkpt>
      <trkpt lat="45.91641" lon="3.03514">
        <ele>498.2</ele>
        <time>1970-01-01T03:54:14.000Z</time>
      </trkpt>
      <trkpt lat="45.9164" lon="3.03519">
        <ele>498.1</ele>
        <time>1970-01-01T03:54:15.000Z</time>
      </trkpt>
      <trkpt lat="45.91638" lon="3.03526">
        <ele>497.9</ele>
        <time>1970-01-01T03:54:17.000Z</time>
      </trkpt>
      <trkpt lat="45.91637" lon="3.03532">
        <ele>497.6</ele>
        <time>1970-01-01T03:54:18.000Z</time>
      </trkpt>
      <trkpt lat="45.91635" lon="3.03538">
        <ele>497.3</ele>
        <time>1970-01-01T03:54:19.000Z</time>
      </trkpt>
      <trkpt lat="45.91633" lon="3.03552">
        <ele>496.6</ele>
        <time>1970-01-01T03:54:21.000Z</time>
      </trkpt>
      <trkpt lat="45.9163" lon="3.03561">
        <ele>496.1</ele>
        <time>1970-01-01T03:54:22.000Z</time>
      </trkpt>
      <trkpt lat="45.91628" lon="3.03569">
        <ele>495.7</ele>
        <time>1970-01-01T03:54:23.000Z</time>
      </trkpt>
      <trkpt lat="45.91626" lon="3.03578">
        <ele>495.2</ele>
        <time>1970-01-01T03:54:24.000Z</time>
      </trkpt>
      <trkpt lat="45.91625" lon="3.03586">
        <ele>494.8</ele>
        <time>1970-01-01T03:54:25.000Z</time>
      </trkpt>
      <trkpt lat="45.91624" lon="3.03594">
        <ele>494.4</ele>
        <time>1970-01-01T03:54:26.000Z</time>
      </trkpt>
      <trkpt lat="45.91624" lon="3.03602">
        <ele>494</ele>
        <time>1970-01-01T03:54:27.000Z</time>
      </trkpt>
      <trkpt lat="45.91623" lon="3.03608">
        <ele>493.6</ele>
        <time>1970-01-01T03:54:28.000Z</time>
      </trkpt>
      <trkpt lat="45.91622" lon="3.03616">
        <ele>493.2</ele>
        <time>1970-01-01T03:54:29.000Z</time>
      </trkpt>
      <trkpt lat="45.91622" lon="3.03622">
        <ele>492.8</ele>
        <time>1970-01-01T03:54:30.000Z</time>
      </trkpt>
      <trkpt lat="45.91622" lon="3.03628">
        <ele>492.5</ele>
        <time>1970-01-01T03:54:31.000Z</time>
      </trkpt>
      <trkpt lat="45.91621" lon="3.03633">
        <ele>492.2</ele>
        <time>1970-01-01T03:54:33.000Z</time>
      </trkpt>
      <trkpt lat="45.9162" lon="3.0364">
        <ele>491.8</ele>
        <time>1970-01-01T03:54:34.000Z</time>
      </trkpt>
      <trkpt lat="45.9162" lon="3.03643">
        <ele>491.7</ele>
        <time>1970-01-01T03:54:35.000Z</time>
      </trkpt>
      <trkpt lat="45.91621" lon="3.03653">
        <ele>491.1</ele>
        <time>1970-01-01T03:54:36.000Z</time>
      </trkpt>
      <trkpt lat="45.91623" lon="3.03662">
        <ele>490.7</ele>
        <time>1970-01-01T03:54:37.000Z</time>
      </trkpt>
      <trkpt lat="45.91626" lon="3.03672">
        <ele>490.3</ele>
        <time>1970-01-01T03:54:38.000Z</time>
      </trkpt>
      <trkpt lat="45.91628" lon="3.03682">
        <ele>490.1</ele>
        <time>1970-01-01T03:54:39.000Z</time>
      </trkpt>
      <trkpt lat="45.9163" lon="3.03691">
        <ele>490</ele>
        <time>1970-01-01T03:54:40.000Z</time>
      </trkpt>
      <trkpt lat="45.9163" lon="3.03699">
        <ele>490</ele>
        <time>1970-01-01T03:54:41.000Z</time>
      </trkpt>
      <trkpt lat="45.9163" lon="3.03706">
        <ele>489.9</ele>
        <time>1970-01-01T03:54:42.000Z</time>
      </trkpt>
      <trkpt lat="45.91629" lon="3.03708">
        <ele>489.9</ele>
        <time>1970-01-01T03:54:43.000Z</time>
      </trkpt>
      <trkpt lat="45.91628" lon="3.03714">
        <ele>489.9</ele>
        <time>1970-01-01T03:54:45.000Z</time>
      </trkpt>
      <trkpt lat="45.91624" lon="3.03728">
        <ele>489.8</ele>
        <time>1970-01-01T03:54:46.000Z</time>
      </trkpt>
      <trkpt lat="45.91623" lon="3.03737">
        <ele>489.7</ele>
        <time>1970-01-01T03:54:47.000Z</time>
      </trkpt>
      <trkpt lat="45.91621" lon="3.03745">
        <ele>489.6</ele>
        <time>1970-01-01T03:54:48.000Z</time>
      </trkpt>
      <trkpt lat="45.91618" lon="3.03753">
        <ele>489.5</ele>
        <time>1970-01-01T03:54:49.000Z</time>
      </trkpt>
      <trkpt lat="45.91615" lon="3.03759">
        <ele>489.5</ele>
        <time>1970-01-01T03:54:50.000Z</time>
      </trkpt>
      <trkpt lat="45.91613" lon="3.03762">
        <ele>489.4</ele>
        <time>1970-01-01T03:54:51.000Z</time>
      </trkpt>
      <trkpt lat="45.91612" lon="3.03767">
        <ele>489.4</ele>
        <time>1970-01-01T03:54:52.000Z</time>
      </trkpt>
      <trkpt lat="45.91612" lon="3.03771">
        <ele>489.4</ele>
        <time>1970-01-01T03:54:53.000Z</time>
      </trkpt>
      <trkpt lat="45.91611" lon="3.03777">
        <ele>489.4</ele>
        <time>1970-01-01T03:54:54.000Z</time>
      </trkpt>
      <trkpt lat="45.91611" lon="3.03784">
        <ele>489.3</ele>
        <time>1970-01-01T03:54:56.000Z</time>
      </trkpt>
      <trkpt lat="45.91609" lon="3.0379">
        <ele>489.3</ele>
        <time>1970-01-01T03:54:57.000Z</time>
      </trkpt>
      <trkpt lat="45.91609" lon="3.03797">
        <ele>489.3</ele>
        <time>1970-01-01T03:54:58.000Z</time>
      </trkpt>
      <trkpt lat="45.91608" lon="3.03803">
        <ele>489.4</ele>
        <time>1970-01-01T03:54:59.000Z</time>
      </trkpt>
      <trkpt lat="45.91608" lon="3.03807">
        <ele>489.4</ele>
        <time>1970-01-01T03:55:00.000Z</time>
      </trkpt>
      <trkpt lat="45.91608" lon="3.03815">
        <ele>489.3</ele>
        <time>1970-01-01T03:55:01.000Z</time>
      </trkpt>
      <trkpt lat="45.91608" lon="3.0382">
        <ele>489.2</ele>
        <time>1970-01-01T03:55:02.000Z</time>
      </trkpt>
      <trkpt lat="45.91607" lon="3.03829">
        <ele>489.1</ele>
        <time>1970-01-01T03:55:04.000Z</time>
      </trkpt>
      <trkpt lat="45.91607" lon="3.03836">
        <ele>488.9</ele>
        <time>1970-01-01T03:55:05.000Z</time>
      </trkpt>
      <trkpt lat="45.91607" lon="3.03842">
        <ele>488.7</ele>
        <time>1970-01-01T03:55:06.000Z</time>
      </trkpt>
      <trkpt lat="45.91606" lon="3.03849">
        <ele>488.5</ele>
        <time>1970-01-01T03:55:07.000Z</time>
      </trkpt>
      <trkpt lat="45.91604" lon="3.03858">
        <ele>488.1</ele>
        <time>1970-01-01T03:55:08.000Z</time>
      </trkpt>
      <trkpt lat="45.91604" lon="3.03866">
        <ele>487.8</ele>
        <time>1970-01-01T03:55:09.000Z</time>
      </trkpt>
      <trkpt lat="45.91604" lon="3.03874">
        <ele>487.5</ele>
        <time>1970-01-01T03:55:10.000Z</time>
      </trkpt>
      <trkpt lat="45.91605" lon="3.03877">
        <ele>487.4</ele>
        <time>1970-01-01T03:55:11.000Z</time>
      </trkpt>
      <trkpt lat="45.91605" lon="3.03887">
        <ele>487</ele>
        <time>1970-01-01T03:55:13.000Z</time>
      </trkpt>
      <trkpt lat="45.91604" lon="3.039">
        <ele>486.5</ele>
        <time>1970-01-01T03:55:14.000Z</time>
      </trkpt>
      <trkpt lat="45.91604" lon="3.03907">
        <ele>486.2</ele>
        <time>1970-01-01T03:55:15.000Z</time>
      </trkpt>
      <trkpt lat="45.91605" lon="3.03914">
        <ele>486</ele>
        <time>1970-01-01T03:55:16.000Z</time>
      </trkpt>
      <trkpt lat="45.91605" lon="3.03921">
        <ele>485.8</ele>
        <time>1970-01-01T03:55:17.000Z</time>
      </trkpt>
      <trkpt lat="45.91608" lon="3.03926">
        <ele>485.6</ele>
        <time>1970-01-01T03:55:18.000Z</time>
      </trkpt>
      <trkpt lat="45.91607" lon="3.0394">
        <ele>485.2</ele>
        <time>1970-01-01T03:55:20.000Z</time>
      </trkpt>
      <trkpt lat="45.91607" lon="3.03947">
        <ele>485</ele>
        <time>1970-01-01T03:55:21.000Z</time>
      </trkpt>
      <trkpt lat="45.91606" lon="3.03954">
        <ele>484.9</ele>
        <time>1970-01-01T03:55:22.000Z</time>
      </trkpt>
      <trkpt lat="45.91611" lon="3.03966">
        <ele>484.7</ele>
        <time>1970-01-01T03:55:24.000Z</time>
      </trkpt>
      <trkpt lat="45.91614" lon="3.03975">
        <ele>484.8</ele>
        <time>1970-01-01T03:55:25.000Z</time>
      </trkpt>
      <trkpt lat="45.91616" lon="3.03984">
        <ele>484.9</ele>
        <time>1970-01-01T03:55:26.000Z</time>
      </trkpt>
      <trkpt lat="45.91617" lon="3.03992">
        <ele>485</ele>
        <time>1970-01-01T03:55:27.000Z</time>
      </trkpt>
      <trkpt lat="45.91616" lon="3.03997">
        <ele>485.2</ele>
        <time>1970-01-01T03:55:28.000Z</time>
      </trkpt>
      <trkpt lat="45.91617" lon="3.04">
        <ele>485.3</ele>
        <time>1970-01-01T03:55:29.000Z</time>
      </trkpt>
      <trkpt lat="45.9162" lon="3.04007">
        <ele>485.5</ele>
        <time>1970-01-01T03:55:30.000Z</time>
      </trkpt>
      <trkpt lat="45.91622" lon="3.04014">
        <ele>485.7</ele>
        <time>1970-01-01T03:55:31.000Z</time>
      </trkpt>
      <trkpt lat="45.91623" lon="3.04021">
        <ele>485.8</ele>
        <time>1970-01-01T03:55:33.000Z</time>
      </trkpt>
      <trkpt lat="45.91624" lon="3.04025">
        <ele>485.9</ele>
        <time>1970-01-01T03:55:34.000Z</time>
      </trkpt>
      <trkpt lat="45.91626" lon="3.04032">
        <ele>486</ele>
        <time>1970-01-01T03:55:35.000Z</time>
      </trkpt>
      <trkpt lat="45.91628" lon="3.04038">
        <ele>486.1</ele>
        <time>1970-01-01T03:55:37.000Z</time>
      </trkpt>
      <trkpt lat="45.91629" lon="3.0404">
        <ele>486.1</ele>
        <time>1970-01-01T03:55:38.000Z</time>
      </trkpt>
      <trkpt lat="45.91631" lon="3.04046">
        <ele>486.1</ele>
        <time>1970-01-01T03:55:40.000Z</time>
      </trkpt>
      <trkpt lat="45.91633" lon="3.04052">
        <ele>486.1</ele>
        <time>1970-01-01T03:55:41.000Z</time>
      </trkpt>
      <trkpt lat="45.91635" lon="3.04057">
        <ele>486.1</ele>
        <time>1970-01-01T03:55:42.000Z</time>
      </trkpt>
      <trkpt lat="45.91636" lon="3.04062">
        <ele>486.2</ele>
        <time>1970-01-01T03:55:43.000Z</time>
      </trkpt>
      <trkpt lat="45.91638" lon="3.04068">
        <ele>486.2</ele>
        <time>1970-01-01T03:55:44.000Z</time>
      </trkpt>
      <trkpt lat="45.91639" lon="3.04071">
        <ele>486.2</ele>
        <time>1970-01-01T03:55:45.000Z</time>
      </trkpt>
      <trkpt lat="45.91641" lon="3.04077">
        <ele>486.2</ele>
        <time>1970-01-01T03:55:46.000Z</time>
      </trkpt>
      <trkpt lat="45.91643" lon="3.04084">
        <ele>486.2</ele>
        <time>1970-01-01T03:55:48.000Z</time>
      </trkpt>
      <trkpt lat="45.91645" lon="3.04088">
        <ele>486.2</ele>
        <time>1970-01-01T03:55:49.000Z</time>
      </trkpt>
      <trkpt lat="45.91647" lon="3.04097">
        <ele>486.2</ele>
        <time>1970-01-01T03:55:50.000Z</time>
      </trkpt>
      <trkpt lat="45.91648" lon="3.04107">
        <ele>486.3</ele>
        <time>1970-01-01T03:55:51.000Z</time>
      </trkpt>
      <trkpt lat="45.9165" lon="3.04116">
        <ele>486.4</ele>
        <time>1970-01-01T03:55:53.000Z</time>
      </trkpt>
      <trkpt lat="45.9165" lon="3.04124">
        <ele>486.5</ele>
        <time>1970-01-01T03:55:54.000Z</time>
      </trkpt>
      <trkpt lat="45.9165" lon="3.04129">
        <ele>486.6</ele>
        <time>1970-01-01T03:55:55.000Z</time>
      </trkpt>
      <trkpt lat="45.91651" lon="3.04135">
        <ele>486.7</ele>
        <time>1970-01-01T03:55:56.000Z</time>
      </trkpt>
      <trkpt lat="45.91651" lon="3.04142">
        <ele>486.8</ele>
        <time>1970-01-01T03:55:57.000Z</time>
      </trkpt>
      <trkpt lat="45.91652" lon="3.04148">
        <ele>486.9</ele>
        <time>1970-01-01T03:55:58.000Z</time>
      </trkpt>
      <trkpt lat="45.91653" lon="3.04156">
        <ele>487.1</ele>
        <time>1970-01-01T03:55:59.000Z</time>
      </trkpt>
      <trkpt lat="45.91655" lon="3.04166">
        <ele>487.2</ele>
        <time>1970-01-01T03:56:01.000Z</time>
      </trkpt>
      <trkpt lat="45.91656" lon="3.04171">
        <ele>487.2</ele>
        <time>1970-01-01T03:56:02.000Z</time>
      </trkpt>
      <trkpt lat="45.91656" lon="3.04175">
        <ele>487.3</ele>
        <time>1970-01-01T03:56:03.000Z</time>
      </trkpt>
      <trkpt lat="45.91657" lon="3.04186">
        <ele>487.3</ele>
        <time>1970-01-01T03:56:05.000Z</time>
      </trkpt>
      <trkpt lat="45.91657" lon="3.04192">
        <ele>487.3</ele>
        <time>1970-01-01T03:56:06.000Z</time>
      </trkpt>
      <trkpt lat="45.91658" lon="3.04198">
        <ele>487.3</ele>
        <time>1970-01-01T03:56:07.000Z</time>
      </trkpt>
      <trkpt lat="45.91659" lon="3.04206">
        <ele>487.2</ele>
        <time>1970-01-01T03:56:08.000Z</time>
      </trkpt>
      <trkpt lat="45.9166" lon="3.04213">
        <ele>487.2</ele>
        <time>1970-01-01T03:56:10.000Z</time>
      </trkpt>
      <trkpt lat="45.91661" lon="3.04219">
        <ele>487.1</ele>
        <time>1970-01-01T03:56:11.000Z</time>
      </trkpt>
      <trkpt lat="45.91662" lon="3.04225">
        <ele>487</ele>
        <time>1970-01-01T03:56:12.000Z</time>
      </trkpt>
      <trkpt lat="45.91662" lon="3.04232">
        <ele>486.8</ele>
        <time>1970-01-01T03:56:13.000Z</time>
      </trkpt>
      <trkpt lat="45.91661" lon="3.0425">
        <ele>486.3</ele>
        <time>1970-01-01T03:56:15.000Z</time>
      </trkpt>
      <trkpt lat="45.91662" lon="3.04258">
        <ele>486.1</ele>
        <time>1970-01-01T03:56:16.000Z</time>
      </trkpt>
      <trkpt lat="45.91662" lon="3.04266">
        <ele>485.9</ele>
        <time>1970-01-01T03:56:17.000Z</time>
      </trkpt>
      <trkpt lat="45.91661" lon="3.04276">
        <ele>485.7</ele>
        <time>1970-01-01T03:56:18.000Z</time>
      </trkpt>
      <trkpt lat="45.91661" lon="3.04285">
        <ele>485.6</ele>
        <time>1970-01-01T03:56:19.000Z</time>
      </trkpt>
      <trkpt lat="45.91662" lon="3.04294">
        <ele>485.4</ele>
        <time>1970-01-01T03:56:20.000Z</time>
      </trkpt>
      <trkpt lat="45.91663" lon="3.04301">
        <ele>485.1</ele>
        <time>1970-01-01T03:56:21.000Z</time>
      </trkpt>
      <trkpt lat="45.91664" lon="3.04307">
        <ele>484.9</ele>
        <time>1970-01-01T03:56:22.000Z</time>
      </trkpt>
      <trkpt lat="45.91664" lon="3.04314">
        <ele>484.6</ele>
        <time>1970-01-01T03:56:23.000Z</time>
      </trkpt>
      <trkpt lat="45.91665" lon="3.04322">
        <ele>484.1</ele>
        <time>1970-01-01T03:56:24.000Z</time>
      </trkpt>
      <trkpt lat="45.91666" lon="3.04332">
        <ele>483.6</ele>
        <time>1970-01-01T03:56:25.000Z</time>
      </trkpt>
      <trkpt lat="45.91668" lon="3.04341">
        <ele>483.1</ele>
        <time>1970-01-01T03:56:26.000Z</time>
      </trkpt>
      <trkpt lat="45.9167" lon="3.0435">
        <ele>482.5</ele>
        <time>1970-01-01T03:56:27.000Z</time>
      </trkpt>
      <trkpt lat="45.91673" lon="3.04359">
        <ele>481.8</ele>
        <time>1970-01-01T03:56:28.000Z</time>
      </trkpt>
      <trkpt lat="45.91676" lon="3.04368">
        <ele>481.2</ele>
        <time>1970-01-01T03:56:29.000Z</time>
      </trkpt>
      <trkpt lat="45.91679" lon="3.04378">
        <ele>480.5</ele>
        <time>1970-01-01T03:56:30.000Z</time>
      </trkpt>
      <trkpt lat="45.91682" lon="3.04389">
        <ele>479.7</ele>
        <time>1970-01-01T03:56:31.000Z</time>
      </trkpt>
      <trkpt lat="45.91684" lon="3.04399">
        <ele>479</ele>
        <time>1970-01-01T03:56:32.000Z</time>
      </trkpt>
      <trkpt lat="45.91686" lon="3.04409">
        <ele>478.3</ele>
        <time>1970-01-01T03:56:33.000Z</time>
      </trkpt>
      <trkpt lat="45.91687" lon="3.04418">
        <ele>477.6</ele>
        <time>1970-01-01T03:56:34.000Z</time>
      </trkpt>
      <trkpt lat="45.91689" lon="3.04427">
        <ele>476.9</ele>
        <time>1970-01-01T03:56:35.000Z</time>
      </trkpt>
      <trkpt lat="45.91689" lon="3.04435">
        <ele>476.3</ele>
        <time>1970-01-01T03:56:36.000Z</time>
      </trkpt>
      <trkpt lat="45.91689" lon="3.04442">
        <ele>475.7</ele>
        <time>1970-01-01T03:56:37.000Z</time>
      </trkpt>
      <trkpt lat="45.9169" lon="3.04447">
        <ele>475.3</ele>
        <time>1970-01-01T03:56:38.000Z</time>
      </trkpt>
      <trkpt lat="45.91691" lon="3.04451">
        <ele>474.9</ele>
        <time>1970-01-01T03:56:39.000Z</time>
      </trkpt>
      <trkpt lat="45.91692" lon="3.04453">
        <ele>474.8</ele>
        <time>1970-01-01T03:56:40.000Z</time>
      </trkpt>
      <trkpt lat="45.91695" lon="3.04456">
        <ele>474.4</ele>
        <time>1970-01-01T03:56:41.000Z</time>
      </trkpt>
      <trkpt lat="45.917" lon="3.0446">
        <ele>473.7</ele>
        <time>1970-01-01T03:56:42.000Z</time>
      </trkpt>
      <trkpt lat="45.91702" lon="3.04464">
        <ele>473.3</ele>
        <time>1970-01-01T03:56:43.000Z</time>
      </trkpt>
      <trkpt lat="45.91701" lon="3.04469">
        <ele>473</ele>
        <time>1970-01-01T03:56:44.000Z</time>
      </trkpt>
      <trkpt lat="45.917" lon="3.04474">
        <ele>472.7</ele>
        <time>1970-01-01T03:56:45.000Z</time>
      </trkpt>
      <trkpt lat="45.91698" lon="3.04477">
        <ele>472.5</ele>
        <time>1970-01-01T03:56:46.000Z</time>
      </trkpt>
      <trkpt lat="45.91693" lon="3.04491">
        <ele>471.7</ele>
        <time>1970-01-01T03:56:48.000Z</time>
      </trkpt>
      <trkpt lat="45.9169" lon="3.04497">
        <ele>471.4</ele>
        <time>1970-01-01T03:56:49.000Z</time>
      </trkpt>
      <trkpt lat="45.91687" lon="3.04506">
        <ele>471</ele>
        <time>1970-01-01T03:56:50.000Z</time>
      </trkpt>
      <trkpt lat="45.91684" lon="3.04514">
        <ele>470.6</ele>
        <time>1970-01-01T03:56:51.000Z</time>
      </trkpt>
      <trkpt lat="45.91684" lon="3.04521">
        <ele>470.3</ele>
        <time>1970-01-01T03:56:52.000Z</time>
      </trkpt>
      <trkpt lat="45.91683" lon="3.0453">
        <ele>470</ele>
        <time>1970-01-01T03:56:53.000Z</time>
      </trkpt>
      <trkpt lat="45.91684" lon="3.04539">
        <ele>469.7</ele>
        <time>1970-01-01T03:56:54.000Z</time>
      </trkpt>
      <trkpt lat="45.91685" lon="3.04548">
        <ele>469.5</ele>
        <time>1970-01-01T03:56:55.000Z</time>
      </trkpt>
      <trkpt lat="45.91686" lon="3.04557">
        <ele>469.2</ele>
        <time>1970-01-01T03:56:56.000Z</time>
      </trkpt>
      <trkpt lat="45.91687" lon="3.04565">
        <ele>468.9</ele>
        <time>1970-01-01T03:56:57.000Z</time>
      </trkpt>
      <trkpt lat="45.91688" lon="3.04574">
        <ele>468.6</ele>
        <time>1970-01-01T03:56:58.000Z</time>
      </trkpt>
      <trkpt lat="45.91689" lon="3.04583">
        <ele>468.3</ele>
        <time>1970-01-01T03:56:59.000Z</time>
      </trkpt>
      <trkpt lat="45.9169" lon="3.04592">
        <ele>467.9</ele>
        <time>1970-01-01T03:57:00.000Z</time>
      </trkpt>
      <trkpt lat="45.9169" lon="3.046">
        <ele>467.7</ele>
        <time>1970-01-01T03:57:01.000Z</time>
      </trkpt>
      <trkpt lat="45.9169" lon="3.04607">
        <ele>467.4</ele>
        <time>1970-01-01T03:57:02.000Z</time>
      </trkpt>
      <trkpt lat="45.91691" lon="3.04614">
        <ele>467.1</ele>
        <time>1970-01-01T03:57:03.000Z</time>
      </trkpt>
      <trkpt lat="45.91694" lon="3.0462">
        <ele>466.9</ele>
        <time>1970-01-01T03:57:04.000Z</time>
      </trkpt>
      <trkpt lat="45.91696" lon="3.04627">
        <ele>466.6</ele>
        <time>1970-01-01T03:57:05.000Z</time>
      </trkpt>
      <trkpt lat="45.91697" lon="3.04634">
        <ele>466.4</ele>
        <time>1970-01-01T03:57:06.000Z</time>
      </trkpt>
      <trkpt lat="45.91696" lon="3.0464">
        <ele>466.2</ele>
        <time>1970-01-01T03:57:07.000Z</time>
      </trkpt>
      <trkpt lat="45.91694" lon="3.04646">
        <ele>466</ele>
        <time>1970-01-01T03:57:08.000Z</time>
      </trkpt>
      <trkpt lat="45.91694" lon="3.04651">
        <ele>465.8</ele>
        <time>1970-01-01T03:57:09.000Z</time>
      </trkpt>
      <trkpt lat="45.91694" lon="3.04661">
        <ele>465.5</ele>
        <time>1970-01-01T03:57:10.000Z</time>
      </trkpt>
      <trkpt lat="45.91695" lon="3.0467">
        <ele>465.1</ele>
        <time>1970-01-01T03:57:11.000Z</time>
      </trkpt>
      <trkpt lat="45.91697" lon="3.04677">
        <ele>464.7</ele>
        <time>1970-01-01T03:57:12.000Z</time>
      </trkpt>
      <trkpt lat="45.91698" lon="3.04685">
        <ele>464.3</ele>
        <time>1970-01-01T03:57:13.000Z</time>
      </trkpt>
      <trkpt lat="45.917" lon="3.0469">
        <ele>464.1</ele>
        <time>1970-01-01T03:57:14.000Z</time>
      </trkpt>
      <trkpt lat="45.91702" lon="3.04695">
        <ele>463.7</ele>
        <time>1970-01-01T03:57:15.000Z</time>
      </trkpt>
      <trkpt lat="45.91705" lon="3.04703">
        <ele>463.2</ele>
        <time>1970-01-01T03:57:16.000Z</time>
      </trkpt>
      <trkpt lat="45.91709" lon="3.04708">
        <ele>462.9</ele>
        <time>1970-01-01T03:57:17.000Z</time>
      </trkpt>
      <trkpt lat="45.91712" lon="3.04715">
        <ele>462.5</ele>
        <time>1970-01-01T03:57:18.000Z</time>
      </trkpt>
      <trkpt lat="45.91711" lon="3.04722">
        <ele>462.2</ele>
        <time>1970-01-01T03:57:19.000Z</time>
      </trkpt>
      <trkpt lat="45.91709" lon="3.04728">
        <ele>461.8</ele>
        <time>1970-01-01T03:57:20.000Z</time>
      </trkpt>
      <trkpt lat="45.91706" lon="3.04733">
        <ele>461.5</ele>
        <time>1970-01-01T03:57:21.000Z</time>
      </trkpt>
      <trkpt lat="45.91705" lon="3.04738">
        <ele>461.3</ele>
        <time>1970-01-01T03:57:22.000Z</time>
      </trkpt>
      <trkpt lat="45.91702" lon="3.04749">
        <ele>460.9</ele>
        <time>1970-01-01T03:57:23.000Z</time>
      </trkpt>
      <trkpt lat="45.91699" lon="3.0476">
        <ele>460.5</ele>
        <time>1970-01-01T03:57:24.000Z</time>
      </trkpt>
      <trkpt lat="45.91698" lon="3.0477">
        <ele>460.2</ele>
        <time>1970-01-01T03:57:25.000Z</time>
      </trkpt>
      <trkpt lat="45.91695" lon="3.04777">
        <ele>459.9</ele>
        <time>1970-01-01T03:57:26.000Z</time>
      </trkpt>
      <trkpt lat="45.91692" lon="3.04786">
        <ele>459.4</ele>
        <time>1970-01-01T03:57:27.000Z</time>
      </trkpt>
      <trkpt lat="45.9169" lon="3.04796">
        <ele>458.9</ele>
        <time>1970-01-01T03:57:28.000Z</time>
      </trkpt>
      <trkpt lat="45.91688" lon="3.04806">
        <ele>458.3</ele>
        <time>1970-01-01T03:57:29.000Z</time>
      </trkpt>
      <trkpt lat="45.91686" lon="3.04818">
        <ele>457.6</ele>
        <time>1970-01-01T03:57:30.000Z</time>
      </trkpt>
      <trkpt lat="45.91683" lon="3.04829">
        <ele>457</ele>
        <time>1970-01-01T03:57:31.000Z</time>
      </trkpt>
      <trkpt lat="45.9168" lon="3.04839">
        <ele>456.4</ele>
        <time>1970-01-01T03:57:32.000Z</time>
      </trkpt>
      <trkpt lat="45.91678" lon="3.0485">
        <ele>455.8</ele>
        <time>1970-01-01T03:57:33.000Z</time>
      </trkpt>
      <trkpt lat="45.91677" lon="3.04862">
        <ele>455.1</ele>
        <time>1970-01-01T03:57:34.000Z</time>
      </trkpt>
      <trkpt lat="45.91676" lon="3.04872">
        <ele>454.3</ele>
        <time>1970-01-01T03:57:35.000Z</time>
      </trkpt>
      <trkpt lat="45.91674" lon="3.04881">
        <ele>453.5</ele>
        <time>1970-01-01T03:57:36.000Z</time>
      </trkpt>
      <trkpt lat="45.91671" lon="3.04893">
        <ele>452.6</ele>
        <time>1970-01-01T03:57:37.000Z</time>
      </trkpt>
      <trkpt lat="45.91666" lon="3.04903">
        <ele>451.6</ele>
        <time>1970-01-01T03:57:38.000Z</time>
      </trkpt>
      <trkpt lat="45.91663" lon="3.04914">
        <ele>450.7</ele>
        <time>1970-01-01T03:57:39.000Z</time>
      </trkpt>
      <trkpt lat="45.91663" lon="3.04924">
        <ele>449.8</ele>
        <time>1970-01-01T03:57:40.000Z</time>
      </trkpt>
      <trkpt lat="45.91662" lon="3.04935">
        <ele>448.9</ele>
        <time>1970-01-01T03:57:41.000Z</time>
      </trkpt>
      <trkpt lat="45.91659" lon="3.04946">
        <ele>448</ele>
        <time>1970-01-01T03:57:42.000Z</time>
      </trkpt>
      <trkpt lat="45.91657" lon="3.04955">
        <ele>447.2</ele>
        <time>1970-01-01T03:57:43.000Z</time>
      </trkpt>
      <trkpt lat="45.91653" lon="3.04966">
        <ele>446.3</ele>
        <time>1970-01-01T03:57:44.000Z</time>
      </trkpt>
      <trkpt lat="45.9165" lon="3.04976">
        <ele>445.6</ele>
        <time>1970-01-01T03:57:45.000Z</time>
      </trkpt>
      <trkpt lat="45.91648" lon="3.04987">
        <ele>445.1</ele>
        <time>1970-01-01T03:57:46.000Z</time>
      </trkpt>
      <trkpt lat="45.91647" lon="3.04999">
        <ele>444.7</ele>
        <time>1970-01-01T03:57:47.000Z</time>
      </trkpt>
      <trkpt lat="45.91647" lon="3.05011">
        <ele>444.3</ele>
        <time>1970-01-01T03:57:48.000Z</time>
      </trkpt>
      <trkpt lat="45.91647" lon="3.05023">
        <ele>444.1</ele>
        <time>1970-01-01T03:57:49.000Z</time>
      </trkpt>
      <trkpt lat="45.91647" lon="3.05034">
        <ele>443.9</ele>
        <time>1970-01-01T03:57:50.000Z</time>
      </trkpt>
      <trkpt lat="45.91646" lon="3.05046">
        <ele>443.9</ele>
        <time>1970-01-01T03:57:51.000Z</time>
      </trkpt>
      <trkpt lat="45.91645" lon="3.05056">
        <ele>444</ele>
        <time>1970-01-01T03:57:52.000Z</time>
      </trkpt>
      <trkpt lat="45.91643" lon="3.05065">
        <ele>444</ele>
        <time>1970-01-01T03:57:53.000Z</time>
      </trkpt>
      <trkpt lat="45.91642" lon="3.05073">
        <ele>444.1</ele>
        <time>1970-01-01T03:57:54.000Z</time>
      </trkpt>
      <trkpt lat="45.91642" lon="3.05081">
        <ele>443.9</ele>
        <time>1970-01-01T03:57:55.000Z</time>
      </trkpt>
      <trkpt lat="45.91643" lon="3.05089">
        <ele>443.7</ele>
        <time>1970-01-01T03:57:56.000Z</time>
      </trkpt>
      <trkpt lat="45.91642" lon="3.05098">
        <ele>443.6</ele>
        <time>1970-01-01T03:57:57.000Z</time>
      </trkpt>
      <trkpt lat="45.91642" lon="3.05106">
        <ele>443.4</ele>
        <time>1970-01-01T03:57:58.000Z</time>
      </trkpt>
      <trkpt lat="45.91643" lon="3.05114">
        <ele>443.4</ele>
        <time>1970-01-01T03:57:59.000Z</time>
      </trkpt>
      <trkpt lat="45.91644" lon="3.05122">
        <ele>443.3</ele>
        <time>1970-01-01T03:58:00.000Z</time>
      </trkpt>
      <trkpt lat="45.91644" lon="3.05129">
        <ele>443.3</ele>
        <time>1970-01-01T03:58:01.000Z</time>
      </trkpt>
      <trkpt lat="45.91645" lon="3.05137">
        <ele>443.3</ele>
        <time>1970-01-01T03:58:02.000Z</time>
      </trkpt>
      <trkpt lat="45.91646" lon="3.05144">
        <ele>443.3</ele>
        <time>1970-01-01T03:58:03.000Z</time>
      </trkpt>
      <trkpt lat="45.91647" lon="3.05151">
        <ele>443.3</ele>
        <time>1970-01-01T03:58:04.000Z</time>
      </trkpt>
      <trkpt lat="45.91646" lon="3.05158">
        <ele>443.2</ele>
        <time>1970-01-01T03:58:05.000Z</time>
      </trkpt>
      <trkpt lat="45.91643" lon="3.05165">
        <ele>443.1</ele>
        <time>1970-01-01T03:58:06.000Z</time>
      </trkpt>
      <trkpt lat="45.91641" lon="3.05171">
        <ele>442.9</ele>
        <time>1970-01-01T03:58:07.000Z</time>
      </trkpt>
      <trkpt lat="45.91639" lon="3.05178">
        <ele>442.7</ele>
        <time>1970-01-01T03:58:08.000Z</time>
      </trkpt>
      <trkpt lat="45.91636" lon="3.05184">
        <ele>442.5</ele>
        <time>1970-01-01T03:58:09.000Z</time>
      </trkpt>
      <trkpt lat="45.91633" lon="3.0519">
        <ele>442.1</ele>
        <time>1970-01-01T03:58:10.000Z</time>
      </trkpt>
      <trkpt lat="45.9163" lon="3.05197">
        <ele>441.8</ele>
        <time>1970-01-01T03:58:11.000Z</time>
      </trkpt>
      <trkpt lat="45.91627" lon="3.05205">
        <ele>441.4</ele>
        <time>1970-01-01T03:58:12.000Z</time>
      </trkpt>
      <trkpt lat="45.91623" lon="3.05213">
        <ele>441</ele>
        <time>1970-01-01T03:58:13.000Z</time>
      </trkpt>
      <trkpt lat="45.9162" lon="3.05221">
        <ele>440.7</ele>
        <time>1970-01-01T03:58:14.000Z</time>
      </trkpt>
      <trkpt lat="45.91617" lon="3.0523">
        <ele>440.4</ele>
        <time>1970-01-01T03:58:15.000Z</time>
      </trkpt>
      <trkpt lat="45.91614" lon="3.05238">
        <ele>440.2</ele>
        <time>1970-01-01T03:58:16.000Z</time>
      </trkpt>
      <trkpt lat="45.91612" lon="3.05247">
        <ele>440</ele>
        <time>1970-01-01T03:58:17.000Z</time>
      </trkpt>
      <trkpt lat="45.9161" lon="3.05257">
        <ele>439.8</ele>
        <time>1970-01-01T03:58:18.000Z</time>
      </trkpt>
      <trkpt lat="45.91609" lon="3.05266">
        <ele>439.6</ele>
        <time>1970-01-01T03:58:19.000Z</time>
      </trkpt>
      <trkpt lat="45.91608" lon="3.05275">
        <ele>439.5</ele>
        <time>1970-01-01T03:58:20.000Z</time>
      </trkpt>
      <trkpt lat="45.91608" lon="3.05285">
        <ele>439.3</ele>
        <time>1970-01-01T03:58:21.000Z</time>
      </trkpt>
      <trkpt lat="45.91607" lon="3.05294">
        <ele>439.1</ele>
        <time>1970-01-01T03:58:22.000Z</time>
      </trkpt>
      <trkpt lat="45.91607" lon="3.05303">
        <ele>439</ele>
        <time>1970-01-01T03:58:23.000Z</time>
      </trkpt>
      <trkpt lat="45.91607" lon="3.05312">
        <ele>438.9</ele>
        <time>1970-01-01T03:58:24.000Z</time>
      </trkpt>
      <trkpt lat="45.91608" lon="3.05321">
        <ele>438.7</ele>
        <time>1970-01-01T03:58:25.000Z</time>
      </trkpt>
      <trkpt lat="45.91609" lon="3.05329">
        <ele>438.6</ele>
        <time>1970-01-01T03:58:26.000Z</time>
      </trkpt>
      <trkpt lat="45.91609" lon="3.05338">
        <ele>438.5</ele>
        <time>1970-01-01T03:58:27.000Z</time>
      </trkpt>
      <trkpt lat="45.91609" lon="3.05345">
        <ele>438.4</ele>
        <time>1970-01-01T03:58:28.000Z</time>
      </trkpt>
      <trkpt lat="45.91609" lon="3.05353">
        <ele>438.3</ele>
        <time>1970-01-01T03:58:29.000Z</time>
      </trkpt>
      <trkpt lat="45.91609" lon="3.0536">
        <ele>438.1</ele>
        <time>1970-01-01T03:58:30.000Z</time>
      </trkpt>
      <trkpt lat="45.91608" lon="3.05368">
        <ele>438</ele>
        <time>1970-01-01T03:58:31.000Z</time>
      </trkpt>
      <trkpt lat="45.91608" lon="3.05376">
        <ele>437.8</ele>
        <time>1970-01-01T03:58:32.000Z</time>
      </trkpt>
      <trkpt lat="45.91607" lon="3.05384">
        <ele>437.5</ele>
        <time>1970-01-01T03:58:33.000Z</time>
      </trkpt>
      <trkpt lat="45.91607" lon="3.05393">
        <ele>437.3</ele>
        <time>1970-01-01T03:58:34.000Z</time>
      </trkpt>
      <trkpt lat="45.91606" lon="3.05401">
        <ele>437</ele>
        <time>1970-01-01T03:58:35.000Z</time>
      </trkpt>
      <trkpt lat="45.91606" lon="3.0541">
        <ele>436.7</ele>
        <time>1970-01-01T03:58:36.000Z</time>
      </trkpt>
      <trkpt lat="45.91606" lon="3.05419">
        <ele>436.4</ele>
        <time>1970-01-01T03:58:37.000Z</time>
      </trkpt>
      <trkpt lat="45.91605" lon="3.05428">
        <ele>436.1</ele>
        <time>1970-01-01T03:58:38.000Z</time>
      </trkpt>
      <trkpt lat="45.91605" lon="3.05437">
        <ele>435.7</ele>
        <time>1970-01-01T03:58:39.000Z</time>
      </trkpt>
      <trkpt lat="45.91603" lon="3.05447">
        <ele>435.4</ele>
        <time>1970-01-01T03:58:40.000Z</time>
      </trkpt>
      <trkpt lat="45.91604" lon="3.05457">
        <ele>435.1</ele>
        <time>1970-01-01T03:58:41.000Z</time>
      </trkpt>
      <trkpt lat="45.91606" lon="3.05466">
        <ele>434.9</ele>
        <time>1970-01-01T03:58:42.000Z</time>
      </trkpt>
      <trkpt lat="45.91606" lon="3.05476">
        <ele>434.8</ele>
        <time>1970-01-01T03:58:43.000Z</time>
      </trkpt>
      <trkpt lat="45.91606" lon="3.05485">
        <ele>434.7</ele>
        <time>1970-01-01T03:58:44.000Z</time>
      </trkpt>
      <trkpt lat="45.91605" lon="3.05493">
        <ele>434.6</ele>
        <time>1970-01-01T03:58:45.000Z</time>
      </trkpt>
      <trkpt lat="45.91604" lon="3.05501">
        <ele>434.6</ele>
        <time>1970-01-01T03:58:46.000Z</time>
      </trkpt>
      <trkpt lat="45.91603" lon="3.05509">
        <ele>434.6</ele>
        <time>1970-01-01T03:58:47.000Z</time>
      </trkpt>
      <trkpt lat="45.91603" lon="3.05515">
        <ele>434.6</ele>
        <time>1970-01-01T03:58:48.000Z</time>
      </trkpt>
      <trkpt lat="45.91605" lon="3.05521">
        <ele>434.6</ele>
        <time>1970-01-01T03:58:49.000Z</time>
      </trkpt>
      <trkpt lat="45.91607" lon="3.05527">
        <ele>434.6</ele>
        <time>1970-01-01T03:58:50.000Z</time>
      </trkpt>
      <trkpt lat="45.91609" lon="3.0553">
        <ele>434.6</ele>
        <time>1970-01-01T03:58:51.000Z</time>
      </trkpt>
      <trkpt lat="45.91611" lon="3.05536">
        <ele>434.6</ele>
        <time>1970-01-01T03:58:52.000Z</time>
      </trkpt>
      <trkpt lat="45.91613" lon="3.0554">
        <ele>434.6</ele>
        <time>1970-01-01T03:58:53.000Z</time>
      </trkpt>
      <trkpt lat="45.91615" lon="3.05546">
        <ele>434.7</ele>
        <time>1970-01-01T03:58:54.000Z</time>
      </trkpt>
      <trkpt lat="45.91616" lon="3.05552">
        <ele>434.7</ele>
        <time>1970-01-01T03:58:55.000Z</time>
      </trkpt>
      <trkpt lat="45.9162" lon="3.05557">
        <ele>434.7</ele>
        <time>1970-01-01T03:58:56.000Z</time>
      </trkpt>
      <trkpt lat="45.91623" lon="3.05562">
        <ele>434.7</ele>
        <time>1970-01-01T03:58:58.000Z</time>
      </trkpt>
      <trkpt lat="45.91623" lon="3.05566">
        <ele>434.7</ele>
        <time>1970-01-01T03:58:59.000Z</time>
      </trkpt>
      <trkpt lat="45.91625" lon="3.05576">
        <ele>434.8</ele>
        <time>1970-01-01T03:59:01.000Z</time>
      </trkpt>
      <trkpt lat="45.91626" lon="3.05582">
        <ele>434.8</ele>
        <time>1970-01-01T03:59:02.000Z</time>
      </trkpt>
      <trkpt lat="45.91627" lon="3.05587">
        <ele>434.8</ele>
        <time>1970-01-01T03:59:03.000Z</time>
      </trkpt>
      <trkpt lat="45.91628" lon="3.05592">
        <ele>434.8</ele>
        <time>1970-01-01T03:59:04.000Z</time>
      </trkpt>
      <trkpt lat="45.9163" lon="3.05597">
        <ele>434.8</ele>
        <time>1970-01-01T03:59:05.000Z</time>
      </trkpt>
      <trkpt lat="45.91632" lon="3.05602">
        <ele>434.8</ele>
        <time>1970-01-01T03:59:06.000Z</time>
      </trkpt>
      <trkpt lat="45.91637" lon="3.05608">
        <ele>434.9</ele>
        <time>1970-01-01T03:59:07.000Z</time>
      </trkpt>
      <trkpt lat="45.91642" lon="3.05615">
        <ele>434.9</ele>
        <time>1970-01-01T03:59:09.000Z</time>
      </trkpt>
      <trkpt lat="45.91646" lon="3.05622">
        <ele>434.9</ele>
        <time>1970-01-01T03:59:10.000Z</time>
      </trkpt>
      <trkpt lat="45.91645" lon="3.05627">
        <ele>434.9</ele>
        <time>1970-01-01T03:59:11.000Z</time>
      </trkpt>
      <trkpt lat="45.91648" lon="3.05633">
        <ele>434.8</ele>
        <time>1970-01-01T03:59:12.000Z</time>
      </trkpt>
      <trkpt lat="45.91653" lon="3.05642">
        <ele>434.7</ele>
        <time>1970-01-01T03:59:14.000Z</time>
      </trkpt>
      <trkpt lat="45.91658" lon="3.05648">
        <ele>434.5</ele>
        <time>1970-01-01T03:59:15.000Z</time>
      </trkpt>
      <trkpt lat="45.91661" lon="3.05654">
        <ele>434.4</ele>
        <time>1970-01-01T03:59:16.000Z</time>
      </trkpt>
      <trkpt lat="45.91664" lon="3.05659">
        <ele>434.4</ele>
        <time>1970-01-01T03:59:17.000Z</time>
      </trkpt>
      <trkpt lat="45.91666" lon="3.05665">
        <ele>434.3</ele>
        <time>1970-01-01T03:59:18.000Z</time>
      </trkpt>
      <trkpt lat="45.9167" lon="3.0567">
        <ele>434.2</ele>
        <time>1970-01-01T03:59:19.000Z</time>
      </trkpt>
      <trkpt lat="45.91673" lon="3.05675">
        <ele>434.2</ele>
        <time>1970-01-01T03:59:20.000Z</time>
      </trkpt>
      <trkpt lat="45.91675" lon="3.05681">
        <ele>434.1</ele>
        <time>1970-01-01T03:59:21.000Z</time>
      </trkpt>
      <trkpt lat="45.91678" lon="3.05685">
        <ele>434.1</ele>
        <time>1970-01-01T03:59:22.000Z</time>
      </trkpt>
      <trkpt lat="45.91681" lon="3.0569">
        <ele>434</ele>
        <time>1970-01-01T03:59:23.000Z</time>
      </trkpt>
      <trkpt lat="45.91684" lon="3.05693">
        <ele>434</ele>
        <time>1970-01-01T03:59:24.000Z</time>
      </trkpt>
      <trkpt lat="45.91686" lon="3.05694">
        <ele>434</ele>
        <time>1970-01-01T03:59:25.000Z</time>
      </trkpt>
      <trkpt lat="45.91685" lon="3.057">
        <ele>433.8</ele>
        <time>1970-01-01T03:59:26.000Z</time>
      </trkpt>
      <trkpt lat="45.91682" lon="3.05705">
        <ele>433.7</ele>
        <time>1970-01-01T03:59:27.000Z</time>
      </trkpt>
      <trkpt lat="45.9168" lon="3.05712">
        <ele>433.5</ele>
        <time>1970-01-01T03:59:28.000Z</time>
      </trkpt>
      <trkpt lat="45.91679" lon="3.05716">
        <ele>433.5</ele>
        <time>1970-01-01T03:59:29.000Z</time>
      </trkpt>
      <trkpt lat="45.91677" lon="3.05721">
        <ele>433.4</ele>
        <time>1970-01-01T03:59:31.000Z</time>
      </trkpt>
      <trkpt lat="45.91675" lon="3.05726">
        <ele>433.4</ele>
        <time>1970-01-01T03:59:32.000Z</time>
      </trkpt>
      <trkpt lat="45.91674" lon="3.05729">
        <ele>433.4</ele>
        <time>1970-01-01T03:59:33.000Z</time>
      </trkpt>
      <trkpt lat="45.91672" lon="3.05733">
        <ele>433.4</ele>
        <time>1970-01-01T03:59:35.000Z</time>
      </trkpt>
      <trkpt lat="45.91671" lon="3.05735">
        <ele>433.4</ele>
        <time>1970-01-01T03:59:36.000Z</time>
      </trkpt>
      <trkpt lat="45.91671" lon="3.05737">
        <ele>433.3</ele>
        <time>1970-01-01T03:59:37.000Z</time>
      </trkpt>
      <trkpt lat="45.91671" lon="3.05739">
        <ele>433.3</ele>
        <time>1970-01-01T03:59:38.000Z</time>
      </trkpt>
      <trkpt lat="45.91671" lon="3.05741">
        <ele>433.3</ele>
        <time>1970-01-01T03:59:39.000Z</time>
      </trkpt>
      <trkpt lat="45.91671" lon="3.05742">
        <ele>433.2</ele>
        <time>1970-01-01T03:59:40.000Z</time>
      </trkpt>
      <trkpt lat="45.91673" lon="3.05748">
        <ele>433.1</ele>
        <time>1970-01-01T03:59:41.000Z</time>
      </trkpt>
      <trkpt lat="45.91674" lon="3.05751">
        <ele>433.1</ele>
        <time>1970-01-01T03:59:42.000Z</time>
      </trkpt>
      <trkpt lat="45.91675" lon="3.05756">
        <ele>433</ele>
        <time>1970-01-01T03:59:43.000Z</time>
      </trkpt>
      <trkpt lat="45.91676" lon="3.05757">
        <ele>433.1</ele>
        <time>1970-01-01T03:59:44.000Z</time>
      </trkpt>
      <trkpt lat="45.91676" lon="3.05761">
        <ele>433.2</ele>
        <time>1970-01-01T03:59:46.000Z</time>
      </trkpt>
      <trkpt lat="45.91676" lon="3.05762">
        <ele>433.3</ele>
        <time>1970-01-01T03:59:47.000Z</time>
      </trkpt>
      <trkpt lat="45.91677" lon="3.05764">
        <ele>433.4</ele>
        <time>1970-01-01T03:59:48.000Z</time>
      </trkpt>
      <trkpt lat="45.91679" lon="3.05766">
        <ele>433.5</ele>
        <time>1970-01-01T03:59:49.000Z</time>
      </trkpt>
      <trkpt lat="45.9168" lon="3.05767">
        <ele>433.6</ele>
        <time>1970-01-01T03:59:50.000Z</time>
      </trkpt>
      <trkpt lat="45.91681" lon="3.05768">
        <ele>433.6</ele>
        <time>1970-01-01T03:59:51.000Z</time>
      </trkpt>
      <trkpt lat="45.91683" lon="3.05769">
        <ele>433.7</ele>
        <time>1970-01-01T03:59:52.000Z</time>
      </trkpt>
      <trkpt lat="45.91684" lon="3.0577">
        <ele>433.8</ele>
        <time>1970-01-01T03:59:53.000Z</time>
      </trkpt>
      <trkpt lat="45.91685" lon="3.05772">
        <ele>433.9</ele>
        <time>1970-01-01T03:59:54.000Z</time>
      </trkpt>
      <trkpt lat="45.91686" lon="3.05774">
        <ele>434</ele>
        <time>1970-01-01T03:59:55.000Z</time>
      </trkpt>
      <trkpt lat="45.91687" lon="3.05776">
        <ele>434.1</ele>
        <time>1970-01-01T03:59:56.000Z</time>
      </trkpt>
      <trkpt lat="45.91689" lon="3.05778">
        <ele>434.3</ele>
        <time>1970-01-01T03:59:58.000Z</time>
      </trkpt>
      <trkpt lat="45.91691" lon="3.0578">
        <ele>434.5</ele>
        <time>1970-01-01T04:00:00.000Z</time>
      </trkpt>
      <trkpt lat="45.91693" lon="3.05781">
        <ele>434.6</ele>
        <time>1970-01-01T04:00:01.000Z</time>
      </trkpt>
      <trkpt lat="45.91693" lon="3.05782">
        <ele>434.7</ele>
        <time>1970-01-01T04:00:02.000Z</time>
      </trkpt>
      <trkpt lat="45.91695" lon="3.05787">
        <ele>434.9</ele>
        <time>1970-01-01T04:00:04.000Z</time>
      </trkpt>
      <trkpt lat="45.91696" lon="3.05788">
        <ele>435</ele>
        <time>1970-01-01T04:00:05.000Z</time>
      </trkpt>
      <trkpt lat="45.91697" lon="3.0579">
        <ele>435.2</ele>
        <time>1970-01-01T04:00:07.000Z</time>
      </trkpt>
      <trkpt lat="45.91697" lon="3.05792">
        <ele>435.3</ele>
        <time>1970-01-01T04:00:08.000Z</time>
      </trkpt>
      <trkpt lat="45.91698" lon="3.05794">
        <ele>435.4</ele>
        <time>1970-01-01T04:00:09.000Z</time>
      </trkpt>
      <trkpt lat="45.91699" lon="3.05796">
        <ele>435.5</ele>
        <time>1970-01-01T04:00:10.000Z</time>
      </trkpt>
      <trkpt lat="45.917" lon="3.05797">
        <ele>435.6</ele>
        <time>1970-01-01T04:00:11.000Z</time>
      </trkpt>
      <trkpt lat="45.91702" lon="3.058">
        <ele>435.7</ele>
        <time>1970-01-01T04:00:13.000Z</time>
      </trkpt>
      <trkpt lat="45.91703" lon="3.05801">
        <ele>435.8</ele>
        <time>1970-01-01T04:00:14.000Z</time>
      </trkpt>
      <trkpt lat="45.91703" lon="3.05802">
        <ele>435.9</ele>
        <time>1970-01-01T04:00:15.000Z</time>
      </trkpt>
      <trkpt lat="45.91704" lon="3.05803">
        <ele>435.9</ele>
        <time>1970-01-01T04:00:16.000Z</time>
      </trkpt>
      <trkpt lat="45.91705" lon="3.05804">
        <ele>436</ele>
        <time>1970-01-01T04:00:17.000Z</time>
      </trkpt>
      <trkpt lat="45.91707" lon="3.05805">
        <ele>436.1</ele>
        <time>1970-01-01T04:00:18.000Z</time>
      </trkpt>
      <trkpt lat="45.9171" lon="3.05809">
        <ele>436.2</ele>
        <time>1970-01-01T04:00:20.000Z</time>
      </trkpt>
      <trkpt lat="45.91711" lon="3.0581">
        <ele>436.3</ele>
        <time>1970-01-01T04:00:21.000Z</time>
      </trkpt>
      <trkpt lat="45.91712" lon="3.05811">
        <ele>436.3</ele>
        <time>1970-01-01T04:00:22.000Z</time>
      </trkpt>
      <trkpt lat="45.91713" lon="3.05812">
        <ele>436.4</ele>
        <time>1970-01-01T04:00:23.000Z</time>
      </trkpt>
      <trkpt lat="45.91714" lon="3.05814">
        <ele>436.5</ele>
        <time>1970-01-01T04:00:24.000Z</time>
      </trkpt>
      <trkpt lat="45.91715" lon="3.05816">
        <ele>436.5</ele>
        <time>1970-01-01T04:00:25.000Z</time>
      </trkpt>
      <trkpt lat="45.91717" lon="3.05817">
        <ele>436.6</ele>
        <time>1970-01-01T04:00:26.000Z</time>
      </trkpt>
      <trkpt lat="45.91718" lon="3.05819">
        <ele>436.6</ele>
        <time>1970-01-01T04:00:27.000Z</time>
      </trkpt>
      <trkpt lat="45.91721" lon="3.05823">
        <ele>436.7</ele>
        <time>1970-01-01T04:00:29.000Z</time>
      </trkpt>
      <trkpt lat="45.91724" lon="3.05826">
        <ele>436.8</ele>
        <time>1970-01-01T04:00:30.000Z</time>
      </trkpt>
      <trkpt lat="45.91724" lon="3.05827">
        <ele>436.8</ele>
        <time>1970-01-01T04:00:31.000Z</time>
      </trkpt>
      <trkpt lat="45.91727" lon="3.05831">
        <ele>436.9</ele>
        <time>1970-01-01T04:00:32.000Z</time>
      </trkpt>
      <trkpt lat="45.9173" lon="3.05834">
        <ele>436.9</ele>
        <time>1970-01-01T04:00:34.000Z</time>
      </trkpt>
      <trkpt lat="45.91731" lon="3.05835">
        <ele>436.9</ele>
        <time>1970-01-01T04:00:35.000Z</time>
      </trkpt>
      <trkpt lat="45.91734" lon="3.05836">
        <ele>437</ele>
        <time>1970-01-01T04:00:36.000Z</time>
      </trkpt>
      <trkpt lat="45.91739" lon="3.05841">
        <ele>437</ele>
        <time>1970-01-01T04:00:38.000Z</time>
      </trkpt>
      <trkpt lat="45.91742" lon="3.05844">
        <ele>437.1</ele>
        <time>1970-01-01T04:00:39.000Z</time>
      </trkpt>
      <trkpt lat="45.91745" lon="3.05847">
        <ele>437.2</ele>
        <time>1970-01-01T04:00:40.000Z</time>
      </trkpt>
      <trkpt lat="45.91748" lon="3.0585">
        <ele>437.2</ele>
        <time>1970-01-01T04:00:41.000Z</time>
      </trkpt>
      <trkpt lat="45.91752" lon="3.05854">
        <ele>437.3</ele>
        <time>1970-01-01T04:00:42.000Z</time>
      </trkpt>
      <trkpt lat="45.91755" lon="3.05859">
        <ele>437.4</ele>
        <time>1970-01-01T04:00:43.000Z</time>
      </trkpt>
      <trkpt lat="45.91757" lon="3.05866">
        <ele>437.6</ele>
        <time>1970-01-01T04:00:45.000Z</time>
      </trkpt>
      <trkpt lat="45.9176" lon="3.05873">
        <ele>437.7</ele>
        <time>1970-01-01T04:00:47.000Z</time>
      </trkpt>
      <trkpt lat="45.91762" lon="3.05876">
        <ele>437.8</ele>
        <time>1970-01-01T04:00:48.000Z</time>
      </trkpt>
      <trkpt lat="45.91765" lon="3.05878">
        <ele>437.9</ele>
        <time>1970-01-01T04:00:49.000Z</time>
      </trkpt>
      <trkpt lat="45.91769" lon="3.05883">
        <ele>437.9</ele>
        <time>1970-01-01T04:00:51.000Z</time>
      </trkpt>
      <trkpt lat="45.91771" lon="3.05886">
        <ele>438</ele>
        <time>1970-01-01T04:00:52.000Z</time>
      </trkpt>
      <trkpt lat="45.91775" lon="3.05893">
        <ele>438</ele>
        <time>1970-01-01T04:00:53.000Z</time>
      </trkpt>
      <trkpt lat="45.91778" lon="3.05898">
        <ele>438.1</ele>
        <time>1970-01-01T04:00:55.000Z</time>
      </trkpt>
      <trkpt lat="45.91782" lon="3.05902">
        <ele>438.1</ele>
        <time>1970-01-01T04:00:56.000Z</time>
      </trkpt>
      <trkpt lat="45.91785" lon="3.05906">
        <ele>438.2</ele>
        <time>1970-01-01T04:00:57.000Z</time>
      </trkpt>
      <trkpt lat="45.91788" lon="3.05909">
        <ele>438.2</ele>
        <time>1970-01-01T04:00:58.000Z</time>
      </trkpt>
      <trkpt lat="45.91791" lon="3.05913">
        <ele>438.3</ele>
        <time>1970-01-01T04:00:59.000Z</time>
      </trkpt>
      <trkpt lat="45.91795" lon="3.05915">
        <ele>438.5</ele>
        <time>1970-01-01T04:01:00.000Z</time>
      </trkpt>
      <trkpt lat="45.91799" lon="3.05918">
        <ele>438.6</ele>
        <time>1970-01-01T04:01:01.000Z</time>
      </trkpt>
      <trkpt lat="45.91803" lon="3.05921">
        <ele>438.8</ele>
        <time>1970-01-01T04:01:02.000Z</time>
      </trkpt>
      <trkpt lat="45.91806" lon="3.05925">
        <ele>438.9</ele>
        <time>1970-01-01T04:01:04.000Z</time>
      </trkpt>
      <trkpt lat="45.91808" lon="3.05927">
        <ele>439</ele>
        <time>1970-01-01T04:01:05.000Z</time>
      </trkpt>
      <trkpt lat="45.9181" lon="3.0593">
        <ele>439</ele>
        <time>1970-01-01T04:01:06.000Z</time>
      </trkpt>
      <trkpt lat="45.91813" lon="3.05934">
        <ele>439.1</ele>
        <time>1970-01-01T04:01:07.000Z</time>
      </trkpt>
      <trkpt lat="45.91816" lon="3.05937">
        <ele>439.2</ele>
        <time>1970-01-01T04:01:08.000Z</time>
      </trkpt>
      <trkpt lat="45.91818" lon="3.05942">
        <ele>439.3</ele>
        <time>1970-01-01T04:01:10.000Z</time>
      </trkpt>
      <trkpt lat="45.9182" lon="3.05946">
        <ele>439.3</ele>
        <time>1970-01-01T04:01:11.000Z</time>
      </trkpt>
      <trkpt lat="45.9182" lon="3.05948">
        <ele>439.3</ele>
        <time>1970-01-01T04:01:12.000Z</time>
      </trkpt>
      <trkpt lat="45.91823" lon="3.05951">
        <ele>439.3</ele>
        <time>1970-01-01T04:01:13.000Z</time>
      </trkpt>
      <trkpt lat="45.91826" lon="3.05954">
        <ele>439.2</ele>
        <time>1970-01-01T04:01:14.000Z</time>
      </trkpt>
      <trkpt lat="45.91827" lon="3.05955">
        <ele>439.2</ele>
        <time>1970-01-01T04:01:15.000Z</time>
      </trkpt>
      <trkpt lat="45.91828" lon="3.05959">
        <ele>439.1</ele>
        <time>1970-01-01T04:01:16.000Z</time>
      </trkpt>
      <trkpt lat="45.9183" lon="3.05963">
        <ele>439</ele>
        <time>1970-01-01T04:01:17.000Z</time>
      </trkpt>
      <trkpt lat="45.91832" lon="3.05968">
        <ele>438.8</ele>
        <time>1970-01-01T04:01:18.000Z</time>
      </trkpt>
      <trkpt lat="45.91834" lon="3.05974">
        <ele>438.6</ele>
        <time>1970-01-01T04:01:20.000Z</time>
      </trkpt>
      <trkpt lat="45.91835" lon="3.05978">
        <ele>438.4</ele>
        <time>1970-01-01T04:01:21.000Z</time>
      </trkpt>
      <trkpt lat="45.91837" lon="3.05981">
        <ele>438.1</ele>
        <time>1970-01-01T04:01:23.000Z</time>
      </trkpt>
      <trkpt lat="45.91838" lon="3.05982">
        <ele>438.1</ele>
        <time>1970-01-01T04:01:24.000Z</time>
      </trkpt>
      <trkpt lat="45.91839" lon="3.05985">
        <ele>437.8</ele>
        <time>1970-01-01T04:01:25.000Z</time>
      </trkpt>
      <trkpt lat="45.9184" lon="3.05988">
        <ele>437.7</ele>
        <time>1970-01-01T04:01:27.000Z</time>
      </trkpt>
      <trkpt lat="45.9184" lon="3.0599">
        <ele>437.6</ele>
        <time>1970-01-01T04:01:28.000Z</time>
      </trkpt>
      <trkpt lat="45.9184" lon="3.05992">
        <ele>437.4</ele>
        <time>1970-01-01T04:01:29.000Z</time>
      </trkpt>
      <trkpt lat="45.91841" lon="3.05996">
        <ele>437.1</ele>
        <time>1970-01-01T04:01:30.000Z</time>
      </trkpt>
      <trkpt lat="45.91842" lon="3.05997">
        <ele>437</ele>
        <time>1970-01-01T04:01:31.000Z</time>
      </trkpt>
      <trkpt lat="45.91843" lon="3.06002">
        <ele>436.7</ele>
        <time>1970-01-01T04:01:32.000Z</time>
      </trkpt>
      <trkpt lat="45.91843" lon="3.06003">
        <ele>436.6</ele>
        <time>1970-01-01T04:01:33.000Z</time>
      </trkpt>
      <trkpt lat="45.91844" lon="3.06008">
        <ele>436.2</ele>
        <time>1970-01-01T04:01:34.000Z</time>
      </trkpt>
      <trkpt lat="45.91844" lon="3.06009">
        <ele>436.1</ele>
        <time>1970-01-01T04:01:35.000Z</time>
      </trkpt>
      <trkpt lat="45.91843" lon="3.06012">
        <ele>435.9</ele>
        <time>1970-01-01T04:01:36.000Z</time>
      </trkpt>
      <trkpt lat="45.91842" lon="3.06015">
        <ele>435.6</ele>
        <time>1970-01-01T04:01:38.000Z</time>
      </trkpt>
      <trkpt lat="45.91841" lon="3.0602">
        <ele>435.2</ele>
        <time>1970-01-01T04:01:39.000Z</time>
      </trkpt>
      <trkpt lat="45.91841" lon="3.06022">
        <ele>435.1</ele>
        <time>1970-01-01T04:01:40.000Z</time>
      </trkpt>
      <trkpt lat="45.91842" lon="3.06024">
        <ele>434.9</ele>
        <time>1970-01-01T04:01:41.000Z</time>
      </trkpt>
      <trkpt lat="45.91842" lon="3.06026">
        <ele>434.7</ele>
        <time>1970-01-01T04:01:42.000Z</time>
      </trkpt>
      <trkpt lat="45.91842" lon="3.06028">
        <ele>434.5</ele>
        <time>1970-01-01T04:01:43.000Z</time>
      </trkpt>
      <trkpt lat="45.91843" lon="3.06031">
        <ele>434.3</ele>
        <time>1970-01-01T04:01:44.000Z</time>
      </trkpt>
      <trkpt lat="45.91843" lon="3.06036">
        <ele>433.8</ele>
        <time>1970-01-01T04:01:45.000Z</time>
      </trkpt>
      <trkpt lat="45.91844" lon="3.06038">
        <ele>434.7</ele>
        <time>1970-01-01T04:01:46.000Z</time>
      </trkpt>
      <trkpt lat="45.91844" lon="3.06042">
        <ele>435.7</ele>
        <time>1970-01-01T04:01:48.000Z</time>
      </trkpt>
      <trkpt lat="45.91843" lon="3.06045">
        <ele>436.6</ele>
        <time>1970-01-01T04:01:49.000Z</time>
      </trkpt>
      <trkpt lat="45.91843" lon="3.06047">
        <ele>437.5</ele>
        <time>1970-01-01T04:01:50.000Z</time>
      </trkpt>
      <trkpt lat="45.91843" lon="3.06049">
        <ele>438.5</ele>
        <time>1970-01-01T04:01:51.000Z</time>
      </trkpt>
      <trkpt lat="45.91843" lon="3.06052">
        <ele>439.4</ele>
        <time>1970-01-01T04:01:52.000Z</time>
      </trkpt>
      <trkpt lat="45.91842" lon="3.06057">
        <ele>440.1</ele>
        <time>1970-01-01T04:01:53.000Z</time>
      </trkpt>
      <trkpt lat="45.91842" lon="3.06059">
        <ele>441.1</ele>
        <time>1970-01-01T04:01:54.000Z</time>
      </trkpt>
      <trkpt lat="45.91841" lon="3.06063">
        <ele>442</ele>
        <time>1970-01-01T04:01:56.000Z</time>
      </trkpt>
      <trkpt lat="45.91841" lon="3.06065">
        <ele>442.2</ele>
        <time>1970-01-01T04:01:57.000Z</time>
      </trkpt>
      <trkpt lat="45.9184" lon="3.06068">
        <ele>442.5</ele>
        <time>1970-01-01T04:01:58.000Z</time>
      </trkpt>
      <trkpt lat="45.9184" lon="3.06072">
        <ele>443</ele>
        <time>1970-01-01T04:02:00.000Z</time>
      </trkpt>
      <trkpt lat="45.91841" lon="3.06075">
        <ele>443.3</ele>
        <time>1970-01-01T04:02:01.000Z</time>
      </trkpt>
      <trkpt lat="45.91841" lon="3.06077">
        <ele>443.5</ele>
        <time>1970-01-01T04:02:02.000Z</time>
      </trkpt>
      <trkpt lat="45.91841" lon="3.06078">
        <ele>443.7</ele>
        <time>1970-01-01T04:02:03.000Z</time>
      </trkpt>
      <trkpt lat="45.91841" lon="3.06081">
        <ele>444</ele>
        <time>1970-01-01T04:02:04.000Z</time>
      </trkpt>
      <trkpt lat="45.91841" lon="3.06086">
        <ele>444.4</ele>
        <time>1970-01-01T04:02:06.000Z</time>
      </trkpt>
      <trkpt lat="45.91841" lon="3.06087">
        <ele>444.5</ele>
        <time>1970-01-01T04:02:07.000Z</time>
      </trkpt>
      <trkpt lat="45.91841" lon="3.06088">
        <ele>444.7</ele>
        <time>1970-01-01T04:02:08.000Z</time>
      </trkpt>
      <trkpt lat="45.9184" lon="3.06091">
        <ele>444.9</ele>
        <time>1970-01-01T04:02:09.000Z</time>
      </trkpt>
      <trkpt lat="45.9184" lon="3.06094">
        <ele>445.2</ele>
        <time>1970-01-01T04:02:10.000Z</time>
      </trkpt>
      <trkpt lat="45.9184" lon="3.06095">
        <ele>445.3</ele>
        <time>1970-01-01T04:02:12.000Z</time>
      </trkpt>
      <trkpt lat="45.9184" lon="3.06097">
        <ele>445.4</ele>
        <time>1970-01-01T04:02:13.000Z</time>
      </trkpt>
      <trkpt lat="45.91839" lon="3.06099">
        <ele>445.6</ele>
        <time>1970-01-01T04:02:15.000Z</time>
      </trkpt>
      <trkpt lat="45.91838" lon="3.06101">
        <ele>445.8</ele>
        <time>1970-01-01T04:02:16.000Z</time>
      </trkpt>
      <trkpt lat="45.91838" lon="3.06105">
        <ele>446.2</ele>
        <time>1970-01-01T04:02:18.000Z</time>
      </trkpt>
      <trkpt lat="45.91838" lon="3.06106">
        <ele>446.3</ele>
        <time>1970-01-01T04:02:19.000Z</time>
      </trkpt>
      <trkpt lat="45.91838" lon="3.06109">
        <ele>446.5</ele>
        <time>1970-01-01T04:02:20.000Z</time>
      </trkpt>
      <trkpt lat="45.91837" lon="3.06112">
        <ele>446.8</ele>
        <time>1970-01-01T04:02:22.000Z</time>
      </trkpt>
      <trkpt lat="45.91838" lon="3.06115">
        <ele>447</ele>
        <time>1970-01-01T04:02:23.000Z</time>
      </trkpt>
      <trkpt lat="45.91837" lon="3.06118">
        <ele>447.2</ele>
        <time>1970-01-01T04:02:25.000Z</time>
      </trkpt>
      <trkpt lat="45.91837" lon="3.0612">
        <ele>447.4</ele>
        <time>1970-01-01T04:02:26.000Z</time>
      </trkpt>
      <trkpt lat="45.91836" lon="3.06122">
        <ele>447.6</ele>
        <time>1970-01-01T04:02:27.000Z</time>
      </trkpt>
      <trkpt lat="45.91836" lon="3.06124">
        <ele>447.8</ele>
        <time>1970-01-01T04:02:29.000Z</time>
      </trkpt>
      <trkpt lat="45.91836" lon="3.06126">
        <ele>447.9</ele>
        <time>1970-01-01T04:02:30.000Z</time>
      </trkpt>
      <trkpt lat="45.91835" lon="3.06127">
        <ele>448.1</ele>
        <time>1970-01-01T04:02:31.000Z</time>
      </trkpt>
      <trkpt lat="45.91835" lon="3.06129">
        <ele>448.3</ele>
        <time>1970-01-01T04:02:32.000Z</time>
      </trkpt>
      <trkpt lat="45.91834" lon="3.06131">
        <ele>448.4</ele>
        <time>1970-01-01T04:02:33.000Z</time>
      </trkpt>
      <trkpt lat="45.91834" lon="3.06134">
        <ele>448.7</ele>
        <time>1970-01-01T04:02:35.000Z</time>
      </trkpt>
      <trkpt lat="45.91833" lon="3.06135">
        <ele>448.9</ele>
        <time>1970-01-01T04:02:36.000Z</time>
      </trkpt>
      <trkpt lat="45.91833" lon="3.06136">
        <ele>449</ele>
        <time>1970-01-01T04:02:37.000Z</time>
      </trkpt>
      <trkpt lat="45.91832" lon="3.06138">
        <ele>449.2</ele>
        <time>1970-01-01T04:02:38.000Z</time>
      </trkpt>
      <trkpt lat="45.91832" lon="3.06141">
        <ele>449.4</ele>
        <time>1970-01-01T04:02:40.000Z</time>
      </trkpt>
      <trkpt lat="45.91832" lon="3.06142">
        <ele>449.6</ele>
        <time>1970-01-01T04:02:41.000Z</time>
      </trkpt>
      <trkpt lat="45.9183" lon="3.06144">
        <ele>449.8</ele>
        <time>1970-01-01T04:02:43.000Z</time>
      </trkpt>
      <trkpt lat="45.9183" lon="3.06146">
        <ele>450</ele>
        <time>1970-01-01T04:02:44.000Z</time>
      </trkpt>
      <trkpt lat="45.9183" lon="3.06147">
        <ele>450.2</ele>
        <time>1970-01-01T04:02:45.000Z</time>
      </trkpt>
      <trkpt lat="45.9183" lon="3.06148">
        <ele>450.3</ele>
        <time>1970-01-01T04:02:46.000Z</time>
      </trkpt>
      <trkpt lat="45.9183" lon="3.0615">
        <ele>450.4</ele>
        <time>1970-01-01T04:02:47.000Z</time>
      </trkpt>
      <trkpt lat="45.91829" lon="3.06151">
        <ele>450.6</ele>
        <time>1970-01-01T04:02:48.000Z</time>
      </trkpt>
      <trkpt lat="45.91829" lon="3.06153">
        <ele>450.7</ele>
        <time>1970-01-01T04:02:49.000Z</time>
      </trkpt>
      <trkpt lat="45.91829" lon="3.06155">
        <ele>450.9</ele>
        <time>1970-01-01T04:02:50.000Z</time>
      </trkpt>
      <trkpt lat="45.91829" lon="3.06157">
        <ele>451.1</ele>
        <time>1970-01-01T04:02:52.000Z</time>
      </trkpt>
      <trkpt lat="45.91829" lon="3.06158">
        <ele>451.2</ele>
        <time>1970-01-01T04:02:53.000Z</time>
      </trkpt>
      <trkpt lat="45.91829" lon="3.06159">
        <ele>451.4</ele>
        <time>1970-01-01T04:02:54.000Z</time>
      </trkpt>
      <trkpt lat="45.91828" lon="3.06161">
        <ele>451.7</ele>
        <time>1970-01-01T04:02:56.000Z</time>
      </trkpt>
      <trkpt lat="45.91827" lon="3.06164">
        <ele>452</ele>
        <time>1970-01-01T04:02:57.000Z</time>
      </trkpt>
      <trkpt lat="45.91827" lon="3.06166">
        <ele>452.2</ele>
        <time>1970-01-01T04:02:58.000Z</time>
      </trkpt>
      <trkpt lat="45.91826" lon="3.06167">
        <ele>452.3</ele>
        <time>1970-01-01T04:02:59.000Z</time>
      </trkpt>
      <trkpt lat="45.91825" lon="3.06169">
        <ele>452.6</ele>
        <time>1970-01-01T04:03:01.000Z</time>
      </trkpt>
      <trkpt lat="45.91824" lon="3.0617">
        <ele>452.8</ele>
        <time>1970-01-01T04:03:02.000Z</time>
      </trkpt>
      <trkpt lat="45.91824" lon="3.06172">
        <ele>452.9</ele>
        <time>1970-01-01T04:03:03.000Z</time>
      </trkpt>
      <trkpt lat="45.91823" lon="3.06174">
        <ele>453.3</ele>
        <time>1970-01-01T04:03:05.000Z</time>
      </trkpt>
      <trkpt lat="45.91822" lon="3.06176">
        <ele>453.5</ele>
        <time>1970-01-01T04:03:06.000Z</time>
      </trkpt>
      <trkpt lat="45.91822" lon="3.06178">
        <ele>453.7</ele>
        <time>1970-01-01T04:03:07.000Z</time>
      </trkpt>
      <trkpt lat="45.91822" lon="3.06179">
        <ele>453.8</ele>
        <time>1970-01-01T04:03:08.000Z</time>
      </trkpt>
      <trkpt lat="45.91821" lon="3.06181">
        <ele>454</ele>
        <time>1970-01-01T04:03:09.000Z</time>
      </trkpt>
      <trkpt lat="45.91821" lon="3.06182">
        <ele>454.2</ele>
        <time>1970-01-01T04:03:10.000Z</time>
      </trkpt>
      <trkpt lat="45.9182" lon="3.06184">
        <ele>454.4</ele>
        <time>1970-01-01T04:03:11.000Z</time>
      </trkpt>
      <trkpt lat="45.91819" lon="3.06185">
        <ele>454.6</ele>
        <time>1970-01-01T04:03:12.000Z</time>
      </trkpt>
      <trkpt lat="45.91818" lon="3.06186">
        <ele>454.8</ele>
        <time>1970-01-01T04:03:14.000Z</time>
      </trkpt>
      <trkpt lat="45.91818" lon="3.06186">
        <ele>454.9</ele>
        <time>1970-01-01T04:03:16.000Z</time>
      </trkpt>
      <trkpt lat="45.91818" lon="3.06185">
        <ele>455</ele>
        <time>1970-01-01T04:03:17.000Z</time>
      </trkpt>
      <trkpt lat="45.91818" lon="3.06185">
        <ele>455</ele>
        <time>1970-01-01T04:03:18.000Z</time>
      </trkpt>
      <trkpt lat="45.91818" lon="3.06184">
        <ele>455.1</ele>
        <time>1970-01-01T04:03:19.000Z</time>
      </trkpt>
      <trkpt lat="45.91818" lon="3.06183">
        <ele>455.2</ele>
        <time>1970-01-01T04:03:20.000Z</time>
      </trkpt>
      <trkpt lat="45.91818" lon="3.06183">
        <ele>455.2</ele>
        <time>1970-01-01T04:03:21.000Z</time>
      </trkpt>
      <trkpt lat="45.91818" lon="3.06182">
        <ele>455.3</ele>
        <time>1970-01-01T04:03:22.000Z</time>
      </trkpt>
      <trkpt lat="45.91818" lon="3.06181">
        <ele>455.4</ele>
        <time>1970-01-01T04:03:23.000Z</time>
      </trkpt>
      <trkpt lat="45.91818" lon="3.06181">
        <ele>455.4</ele>
        <time>1970-01-01T04:03:24.000Z</time>
      </trkpt>
      <trkpt lat="45.91818" lon="3.0618">
        <ele>455.5</ele>
        <time>1970-01-01T04:03:25.000Z</time>
      </trkpt>
      <trkpt lat="45.91818" lon="3.0618">
        <ele>455.6</ele>
        <time>1970-01-01T04:03:26.000Z</time>
      </trkpt>
      <trkpt lat="45.91818" lon="3.06179">
        <ele>455.6</ele>
        <time>1970-01-01T04:03:27.000Z</time>
      </trkpt>
      <trkpt lat="45.91818" lon="3.06178">
        <ele>455.7</ele>
        <time>1970-01-01T04:03:28.000Z</time>
      </trkpt>
      <trkpt lat="45.91818" lon="3.06178">
        <ele>455.8</ele>
        <time>1970-01-01T04:03:51.000Z</time>
      </trkpt>
      <trkpt lat="45.91818" lon="3.06177">
        <ele>455.8</ele>
        <time>1970-01-01T04:03:52.000Z</time>
      </trkpt>
      <trkpt lat="45.91818" lon="3.06177">
        <ele>455.9</ele>
        <time>1970-01-01T04:03:53.000Z</time>
      </trkpt>
      <trkpt lat="45.91818" lon="3.06176">
        <ele>456</ele>
        <time>1970-01-01T04:03:54.000Z</time>
      </trkpt>
      <trkpt lat="45.91818" lon="3.06172">
        <ele>456.4</ele>
        <time>1970-01-01T04:03:55.000Z</time>
      </trkpt>
      <trkpt lat="45.91818" lon="3.06171">
        <ele>456.5</ele>
        <time>1970-01-01T04:03:56.000Z</time>
      </trkpt>
      <trkpt lat="45.91818" lon="3.06167">
        <ele>457</ele>
        <time>1970-01-01T04:03:58.000Z</time>
      </trkpt>
      <trkpt lat="45.91818" lon="3.06165">
        <ele>457.1</ele>
        <time>1970-01-01T04:03:59.000Z</time>
      </trkpt>
      <trkpt lat="45.91818" lon="3.06163">
        <ele>457.3</ele>
        <time>1970-01-01T04:04:00.000Z</time>
      </trkpt>
      <trkpt lat="45.91817" lon="3.0616">
        <ele>457.6</ele>
        <time>1970-01-01T04:04:02.000Z</time>
      </trkpt>
      <trkpt lat="45.91817" lon="3.06155">
        <ele>458</ele>
        <time>1970-01-01T04:04:04.000Z</time>
      </trkpt>
      <trkpt lat="45.91816" lon="3.06154">
        <ele>458.1</ele>
        <time>1970-01-01T04:04:05.000Z</time>
      </trkpt>
      <trkpt lat="45.91816" lon="3.06153">
        <ele>458.2</ele>
        <time>1970-01-01T04:04:06.000Z</time>
      </trkpt>
      <trkpt lat="45.91816" lon="3.0615">
        <ele>458.4</ele>
        <time>1970-01-01T04:04:07.000Z</time>
      </trkpt>
      <trkpt lat="45.91816" lon="3.06145">
        <ele>458.8</ele>
        <time>1970-01-01T04:04:09.000Z</time>
      </trkpt>
      <trkpt lat="45.91816" lon="3.06144">
        <ele>458.9</ele>
        <time>1970-01-01T04:04:10.000Z</time>
      </trkpt>
      <trkpt lat="45.91816" lon="3.06141">
        <ele>459.1</ele>
        <time>1970-01-01T04:04:11.000Z</time>
      </trkpt>
      <trkpt lat="45.91815" lon="3.06139">
        <ele>459.2</ele>
        <time>1970-01-01T04:04:12.000Z</time>
      </trkpt>
      <trkpt lat="45.91815" lon="3.06137">
        <ele>459.3</ele>
        <time>1970-01-01T04:04:13.000Z</time>
      </trkpt>
      <trkpt lat="45.91815" lon="3.06135">
        <ele>459.5</ele>
        <time>1970-01-01T04:04:15.000Z</time>
      </trkpt>
      <trkpt lat="45.91815" lon="3.06134">
        <ele>459.6</ele>
        <time>1970-01-01T04:04:16.000Z</time>
      </trkpt>
      <trkpt lat="45.91815" lon="3.06132">
        <ele>459.7</ele>
        <time>1970-01-01T04:04:17.000Z</time>
      </trkpt>
      <trkpt lat="45.91815" lon="3.06129">
        <ele>459.9</ele>
        <time>1970-01-01T04:04:19.000Z</time>
      </trkpt>
      <trkpt lat="45.91814" lon="3.06126">
        <ele>460.1</ele>
        <time>1970-01-01T04:04:21.000Z</time>
      </trkpt>
      <trkpt lat="45.91814" lon="3.06124">
        <ele>460.2</ele>
        <time>1970-01-01T04:04:22.000Z</time>
      </trkpt>
      <trkpt lat="45.91814" lon="3.0612">
        <ele>460.5</ele>
        <time>1970-01-01T04:04:24.000Z</time>
      </trkpt>
      <trkpt lat="45.91814" lon="3.06118">
        <ele>460.6</ele>
        <time>1970-01-01T04:04:25.000Z</time>
      </trkpt>
      <trkpt lat="45.91813" lon="3.06115">
        <ele>460.8</ele>
        <time>1970-01-01T04:04:26.000Z</time>
      </trkpt>
      <trkpt lat="45.91813" lon="3.06113">
        <ele>460.9</ele>
        <time>1970-01-01T04:04:27.000Z</time>
      </trkpt>
      <trkpt lat="45.91813" lon="3.06111">
        <ele>461.1</ele>
        <time>1970-01-01T04:04:28.000Z</time>
      </trkpt>
      <trkpt lat="45.91813" lon="3.06108">
        <ele>461.3</ele>
        <time>1970-01-01T04:04:30.000Z</time>
      </trkpt>
      <trkpt lat="45.91812" lon="3.06104">
        <ele>461.6</ele>
        <time>1970-01-01T04:04:31.000Z</time>
      </trkpt>
      <trkpt lat="45.91812" lon="3.06099">
        <ele>461.9</ele>
        <time>1970-01-01T04:04:33.000Z</time>
      </trkpt>
      <trkpt lat="45.91812" lon="3.06098">
        <ele>462</ele>
        <time>1970-01-01T04:04:34.000Z</time>
      </trkpt>
      <trkpt lat="45.91811" lon="3.06094">
        <ele>462.2</ele>
        <time>1970-01-01T04:04:35.000Z</time>
      </trkpt>
      <trkpt lat="45.91811" lon="3.06093">
        <ele>462.4</ele>
        <time>1970-01-01T04:04:36.000Z</time>
      </trkpt>
      <trkpt lat="45.91811" lon="3.0609">
        <ele>462.6</ele>
        <time>1970-01-01T04:04:37.000Z</time>
      </trkpt>
      <trkpt lat="45.91811" lon="3.06088">
        <ele>462.8</ele>
        <time>1970-01-01T04:04:39.000Z</time>
      </trkpt>
      <trkpt lat="45.9181" lon="3.06085">
        <ele>463</ele>
        <time>1970-01-01T04:04:40.000Z</time>
      </trkpt>
      <trkpt lat="45.9181" lon="3.06082">
        <ele>463.2</ele>
        <time>1970-01-01T04:04:42.000Z</time>
      </trkpt>
      <trkpt lat="45.9181" lon="3.06079">
        <ele>463.4</ele>
        <time>1970-01-01T04:04:43.000Z</time>
      </trkpt>
      <trkpt lat="45.91809" lon="3.06077">
        <ele>463.6</ele>
        <time>1970-01-01T04:04:44.000Z</time>
      </trkpt>
      <trkpt lat="45.91808" lon="3.06075">
        <ele>463.8</ele>
        <time>1970-01-01T04:04:45.000Z</time>
      </trkpt>
      <trkpt lat="45.91807" lon="3.06071">
        <ele>464.2</ele>
        <time>1970-01-01T04:04:47.000Z</time>
      </trkpt>
      <trkpt lat="45.91807" lon="3.06069">
        <ele>464.4</ele>
        <time>1970-01-01T04:04:48.000Z</time>
      </trkpt>
      <trkpt lat="45.91807" lon="3.06066">
        <ele>464.6</ele>
        <time>1970-01-01T04:04:49.000Z</time>
      </trkpt>
      <trkpt lat="45.91806" lon="3.06062">
        <ele>465</ele>
        <time>1970-01-01T04:04:50.000Z</time>
      </trkpt>
      <trkpt lat="45.91806" lon="3.06059">
        <ele>465.3</ele>
        <time>1970-01-01T04:04:51.000Z</time>
      </trkpt>
      <trkpt lat="45.91806" lon="3.06056">
        <ele>465.6</ele>
        <time>1970-01-01T04:04:53.000Z</time>
      </trkpt>
      <trkpt lat="45.91805" lon="3.06055">
        <ele>465.8</ele>
        <time>1970-01-01T04:04:54.000Z</time>
      </trkpt>
      <trkpt lat="45.91804" lon="3.06054">
        <ele>466</ele>
        <time>1970-01-01T04:04:55.000Z</time>
      </trkpt>
      <trkpt lat="45.91802" lon="3.06055">
        <ele>466.3</ele>
        <time>1970-01-01T04:04:56.000Z</time>
      </trkpt>
      <trkpt lat="45.91801" lon="3.06058">
        <ele>466.6</ele>
        <time>1970-01-01T04:04:57.000Z</time>
      </trkpt>
      <trkpt lat="45.91802" lon="3.06062">
        <ele>467</ele>
        <time>1970-01-01T04:04:58.000Z</time>
      </trkpt>
      <trkpt lat="45.91802" lon="3.06063">
        <ele>467.2</ele>
        <time>1970-01-01T04:04:59.000Z</time>
      </trkpt>
      <trkpt lat="45.91802" lon="3.06066">
        <ele>467.5</ele>
        <time>1970-01-01T04:05:00.000Z</time>
      </trkpt>
      <trkpt lat="45.91802" lon="3.06069">
        <ele>467.7</ele>
        <time>1970-01-01T04:05:02.000Z</time>
      </trkpt>
      <trkpt lat="45.91802" lon="3.06072">
        <ele>468</ele>
        <time>1970-01-01T04:05:03.000Z</time>
      </trkpt>
      <trkpt lat="45.91802" lon="3.06073">
        <ele>468.1</ele>
        <time>1970-01-01T04:05:04.000Z</time>
      </trkpt>
      <trkpt lat="45.91802" lon="3.06077">
        <ele>468.4</ele>
        <time>1970-01-01T04:05:05.000Z</time>
      </trkpt>
      <trkpt lat="45.91801" lon="3.06079">
        <ele>468.5</ele>
        <time>1970-01-01T04:05:07.000Z</time>
      </trkpt>
      <trkpt lat="45.91801" lon="3.06084">
        <ele>469</ele>
        <time>1970-01-01T04:05:09.000Z</time>
      </trkpt>
      <trkpt lat="45.91801" lon="3.06086">
        <ele>469.1</ele>
        <time>1970-01-01T04:05:10.000Z</time>
      </trkpt>
      <trkpt lat="45.918" lon="3.06088">
        <ele>469.2</ele>
        <time>1970-01-01T04:05:12.000Z</time>
      </trkpt>
      <trkpt lat="45.91799" lon="3.06091">
        <ele>469.5</ele>
        <time>1970-01-01T04:05:14.000Z</time>
      </trkpt>
      <trkpt lat="45.91799" lon="3.06093">
        <ele>469.6</ele>
        <time>1970-01-01T04:05:15.000Z</time>
      </trkpt>
      <trkpt lat="45.91799" lon="3.06096">
        <ele>469.8</ele>
        <time>1970-01-01T04:05:16.000Z</time>
      </trkpt>
      <trkpt lat="45.91799" lon="3.06098">
        <ele>469.9</ele>
        <time>1970-01-01T04:05:17.000Z</time>
      </trkpt>
      <trkpt lat="45.91798" lon="3.06101">
        <ele>470.1</ele>
        <time>1970-01-01T04:05:19.000Z</time>
      </trkpt>
      <trkpt lat="45.91797" lon="3.06104">
        <ele>470.3</ele>
        <time>1970-01-01T04:05:20.000Z</time>
      </trkpt>
      <trkpt lat="45.91796" lon="3.06105">
        <ele>470.4</ele>
        <time>1970-01-01T04:05:21.000Z</time>
      </trkpt>
      <trkpt lat="45.91796" lon="3.06106">
        <ele>470.5</ele>
        <time>1970-01-01T04:05:22.000Z</time>
      </trkpt>
      <trkpt lat="45.91796" lon="3.06108">
        <ele>470.6</ele>
        <time>1970-01-01T04:05:23.000Z</time>
      </trkpt>
      <trkpt lat="45.91795" lon="3.06111">
        <ele>470.8</ele>
        <time>1970-01-01T04:05:24.000Z</time>
      </trkpt>
      <trkpt lat="45.91795" lon="3.06113">
        <ele>470.9</ele>
        <time>1970-01-01T04:05:26.000Z</time>
      </trkpt>
      <trkpt lat="45.91794" lon="3.06115">
        <ele>471</ele>
        <time>1970-01-01T04:05:27.000Z</time>
      </trkpt>
      <trkpt lat="45.91794" lon="3.06118">
        <ele>471.2</ele>
        <time>1970-01-01T04:05:28.000Z</time>
      </trkpt>
      <trkpt lat="45.91793" lon="3.06121">
        <ele>471.4</ele>
        <time>1970-01-01T04:05:30.000Z</time>
      </trkpt>
      <trkpt lat="45.91793" lon="3.06123">
        <ele>471.5</ele>
        <time>1970-01-01T04:05:31.000Z</time>
      </trkpt>
      <trkpt lat="45.91793" lon="3.06124">
        <ele>471.6</ele>
        <time>1970-01-01T04:05:32.000Z</time>
      </trkpt>
      <trkpt lat="45.91792" lon="3.06126">
        <ele>471.7</ele>
        <time>1970-01-01T04:05:33.000Z</time>
      </trkpt>
      <trkpt lat="45.91792" lon="3.06128">
        <ele>471.9</ele>
        <time>1970-01-01T04:05:34.000Z</time>
      </trkpt>
      <trkpt lat="45.91791" lon="3.06131">
        <ele>472.1</ele>
        <time>1970-01-01T04:05:36.000Z</time>
      </trkpt>
      <trkpt lat="45.9179" lon="3.06134">
        <ele>472.3</ele>
        <time>1970-01-01T04:05:37.000Z</time>
      </trkpt>
      <trkpt lat="45.9179" lon="3.06136">
        <ele>472.4</ele>
        <time>1970-01-01T04:05:38.000Z</time>
      </trkpt>
      <trkpt lat="45.9179" lon="3.06137">
        <ele>472.5</ele>
        <time>1970-01-01T04:05:39.000Z</time>
      </trkpt>
      <trkpt lat="45.91789" lon="3.0614">
        <ele>472.8</ele>
        <time>1970-01-01T04:05:41.000Z</time>
      </trkpt>
      <trkpt lat="45.91788" lon="3.06141">
        <ele>472.9</ele>
        <time>1970-01-01T04:05:42.000Z</time>
      </trkpt>
      <trkpt lat="45.91787" lon="3.06142">
        <ele>473</ele>
        <time>1970-01-01T04:05:43.000Z</time>
      </trkpt>
      <trkpt lat="45.91786" lon="3.06143">
        <ele>473.2</ele>
        <time>1970-01-01T04:05:44.000Z</time>
      </trkpt>
      <trkpt lat="45.91783" lon="3.06143">
        <ele>473.5</ele>
        <time>1970-01-01T04:05:46.000Z</time>
      </trkpt>
      <trkpt lat="45.91782" lon="3.06142">
        <ele>473.7</ele>
        <time>1970-01-01T04:05:47.000Z</time>
      </trkpt>
      <trkpt lat="45.91781" lon="3.06141">
        <ele>473.8</ele>
        <time>1970-01-01T04:05:48.000Z</time>
      </trkpt>
      <trkpt lat="45.9178" lon="3.0614">
        <ele>473.9</ele>
        <time>1970-01-01T04:05:49.000Z</time>
      </trkpt>
      <trkpt lat="45.9178" lon="3.06138">
        <ele>474.1</ele>
        <time>1970-01-01T04:05:50.000Z</time>
      </trkpt>
      <trkpt lat="45.91779" lon="3.06136">
        <ele>474.3</ele>
        <time>1970-01-01T04:05:51.000Z</time>
      </trkpt>
      <trkpt lat="45.91777" lon="3.06134">
        <ele>474.5</ele>
        <time>1970-01-01T04:05:52.000Z</time>
      </trkpt>
      <trkpt lat="45.91777" lon="3.06134">
        <ele>474.6</ele>
        <time>1970-01-01T04:05:53.000Z</time>
      </trkpt>
      <trkpt lat="45.91776" lon="3.06133">
        <ele>474.7</ele>
        <time>1970-01-01T04:05:54.000Z</time>
      </trkpt>
      <trkpt lat="45.91775" lon="3.06132">
        <ele>474.9</ele>
        <time>1970-01-01T04:05:55.000Z</time>
      </trkpt>
      <trkpt lat="45.91774" lon="3.0613">
        <ele>475.1</ele>
        <time>1970-01-01T04:05:56.000Z</time>
      </trkpt>
      <trkpt lat="45.91772" lon="3.06129">
        <ele>475.3</ele>
        <time>1970-01-01T04:05:57.000Z</time>
      </trkpt>
      <trkpt lat="45.91771" lon="3.06127">
        <ele>475.5</ele>
        <time>1970-01-01T04:05:58.000Z</time>
      </trkpt>
      <trkpt lat="45.9177" lon="3.06126">
        <ele>475.6</ele>
        <time>1970-01-01T04:05:59.000Z</time>
      </trkpt>
      <trkpt lat="45.91769" lon="3.06123">
        <ele>475.9</ele>
        <time>1970-01-01T04:06:01.000Z</time>
      </trkpt>
      <trkpt lat="45.91769" lon="3.06122">
        <ele>475.9</ele>
        <time>1970-01-01T04:06:02.000Z</time>
      </trkpt>
      <trkpt lat="45.91768" lon="3.06121">
        <ele>476</ele>
        <time>1970-01-01T04:06:03.000Z</time>
      </trkpt>
      <trkpt lat="45.91768" lon="3.0612">
        <ele>476.2</ele>
        <time>1970-01-01T04:06:04.000Z</time>
      </trkpt>
      <trkpt lat="45.91767" lon="3.06118">
        <ele>476.3</ele>
        <time>1970-01-01T04:06:05.000Z</time>
      </trkpt>
      <trkpt lat="45.91767" lon="3.06117">
        <ele>476.4</ele>
        <time>1970-01-01T04:06:06.000Z</time>
      </trkpt>
      <trkpt lat="45.91766" lon="3.06116">
        <ele>476.5</ele>
        <time>1970-01-01T04:06:07.000Z</time>
      </trkpt>
      <trkpt lat="45.91765" lon="3.06115">
        <ele>476.6</ele>
        <time>1970-01-01T04:06:08.000Z</time>
      </trkpt>
      <trkpt lat="45.91765" lon="3.06113">
        <ele>476.8</ele>
        <time>1970-01-01T04:06:09.000Z</time>
      </trkpt>
      <trkpt lat="45.91764" lon="3.0611">
        <ele>477</ele>
        <time>1970-01-01T04:06:10.000Z</time>
      </trkpt>
      <trkpt lat="45.91764" lon="3.06109">
        <ele>477.1</ele>
        <time>1970-01-01T04:06:11.000Z</time>
      </trkpt>
      <trkpt lat="45.91764" lon="3.06108">
        <ele>477.2</ele>
        <time>1970-01-01T04:06:12.000Z</time>
      </trkpt>
      <trkpt lat="45.91763" lon="3.06106">
        <ele>477.3</ele>
        <time>1970-01-01T04:06:13.000Z</time>
      </trkpt>
      <trkpt lat="45.91763" lon="3.06105">
        <ele>477.4</ele>
        <time>1970-01-01T04:06:14.000Z</time>
      </trkpt>
      <trkpt lat="45.91762" lon="3.06103">
        <ele>477.5</ele>
        <time>1970-01-01T04:06:16.000Z</time>
      </trkpt>
      <trkpt lat="45.91761" lon="3.06101">
        <ele>477.7</ele>
        <time>1970-01-01T04:06:17.000Z</time>
      </trkpt>
      <trkpt lat="45.91761" lon="3.06099">
        <ele>477.9</ele>
        <time>1970-01-01T04:06:18.000Z</time>
      </trkpt>
      <trkpt lat="45.91759" lon="3.06098">
        <ele>478</ele>
        <time>1970-01-01T04:06:19.000Z</time>
      </trkpt>
      <trkpt lat="45.91758" lon="3.06097">
        <ele>478.1</ele>
        <time>1970-01-01T04:06:20.000Z</time>
      </trkpt>
      <trkpt lat="45.91757" lon="3.06096">
        <ele>478.3</ele>
        <time>1970-01-01T04:06:22.000Z</time>
      </trkpt>
      <trkpt lat="45.91755" lon="3.06094">
        <ele>478.5</ele>
        <time>1970-01-01T04:06:24.000Z</time>
      </trkpt>
      <trkpt lat="45.91755" lon="3.06093">
        <ele>478.6</ele>
        <time>1970-01-01T04:06:25.000Z</time>
      </trkpt>
      <trkpt lat="45.91754" lon="3.06092">
        <ele>478.7</ele>
        <time>1970-01-01T04:06:26.000Z</time>
      </trkpt>
      <trkpt lat="45.91753" lon="3.06091">
        <ele>478.9</ele>
        <time>1970-01-01T04:06:27.000Z</time>
      </trkpt>
      <trkpt lat="45.91751" lon="3.06089">
        <ele>479.1</ele>
        <time>1970-01-01T04:06:28.000Z</time>
      </trkpt>
      <trkpt lat="45.9175" lon="3.06088">
        <ele>479.2</ele>
        <time>1970-01-01T04:06:30.000Z</time>
      </trkpt>
      <trkpt lat="45.9175" lon="3.06086">
        <ele>479.3</ele>
        <time>1970-01-01T04:06:31.000Z</time>
      </trkpt>
      <trkpt lat="45.91749" lon="3.06085">
        <ele>479.4</ele>
        <time>1970-01-01T04:06:32.000Z</time>
      </trkpt>
      <trkpt lat="45.91748" lon="3.06084">
        <ele>479.6</ele>
        <time>1970-01-01T04:06:33.000Z</time>
      </trkpt>
      <trkpt lat="45.91747" lon="3.06083">
        <ele>479.7</ele>
        <time>1970-01-01T04:06:34.000Z</time>
      </trkpt>
      <trkpt lat="45.91746" lon="3.06081">
        <ele>479.9</ele>
        <time>1970-01-01T04:06:36.000Z</time>
      </trkpt>
      <trkpt lat="45.91746" lon="3.0608">
        <ele>480</ele>
        <time>1970-01-01T04:06:37.000Z</time>
      </trkpt>
      <trkpt lat="45.91745" lon="3.06079">
        <ele>480.1</ele>
        <time>1970-01-01T04:06:38.000Z</time>
      </trkpt>
      <trkpt lat="45.91745" lon="3.06077">
        <ele>480.2</ele>
        <time>1970-01-01T04:06:39.000Z</time>
      </trkpt>
      <trkpt lat="45.91744" lon="3.06076">
        <ele>480.3</ele>
        <time>1970-01-01T04:06:40.000Z</time>
      </trkpt>
      <trkpt lat="45.91744" lon="3.06074">
        <ele>480.4</ele>
        <time>1970-01-01T04:06:41.000Z</time>
      </trkpt>
      <trkpt lat="45.91743" lon="3.06072">
        <ele>480.6</ele>
        <time>1970-01-01T04:06:42.000Z</time>
      </trkpt>
      <trkpt lat="45.91742" lon="3.06071">
        <ele>480.7</ele>
        <time>1970-01-01T04:06:43.000Z</time>
      </trkpt>
      <trkpt lat="45.91742" lon="3.06069">
        <ele>480.8</ele>
        <time>1970-01-01T04:06:44.000Z</time>
      </trkpt>
      <trkpt lat="45.91742" lon="3.06068">
        <ele>480.8</ele>
        <time>1970-01-01T04:06:45.000Z</time>
      </trkpt>
      <trkpt lat="45.91741" lon="3.06066">
        <ele>481</ele>
        <time>1970-01-01T04:06:46.000Z</time>
      </trkpt>
      <trkpt lat="45.9174" lon="3.06064">
        <ele>481.1</ele>
        <time>1970-01-01T04:06:48.000Z</time>
      </trkpt>
      <trkpt lat="45.9174" lon="3.06062">
        <ele>481.2</ele>
        <time>1970-01-01T04:06:49.000Z</time>
      </trkpt>
      <trkpt lat="45.9174" lon="3.0606">
        <ele>481.4</ele>
        <time>1970-01-01T04:06:50.000Z</time>
      </trkpt>
      <trkpt lat="45.91737" lon="3.06056">
        <ele>481.6</ele>
        <time>1970-01-01T04:06:52.000Z</time>
      </trkpt>
      <trkpt lat="45.91737" lon="3.06056">
        <ele>481.6</ele>
        <time>1970-01-01T04:06:53.000Z</time>
      </trkpt>
      <trkpt lat="45.91735" lon="3.06054">
        <ele>481.7</ele>
        <time>1970-01-01T04:06:54.000Z</time>
      </trkpt>
      <trkpt lat="45.91734" lon="3.06053">
        <ele>481.8</ele>
        <time>1970-01-01T04:06:55.000Z</time>
      </trkpt>
      <trkpt lat="45.91733" lon="3.06053">
        <ele>481.8</ele>
        <time>1970-01-01T04:06:56.000Z</time>
      </trkpt>
      <trkpt lat="45.91732" lon="3.06051">
        <ele>481.9</ele>
        <time>1970-01-01T04:06:57.000Z</time>
      </trkpt>
      <trkpt lat="45.91731" lon="3.06049">
        <ele>481.9</ele>
        <time>1970-01-01T04:06:58.000Z</time>
      </trkpt>
      <trkpt lat="45.91729" lon="3.06047">
        <ele>482.1</ele>
        <time>1970-01-01T04:06:59.000Z</time>
      </trkpt>
      <trkpt lat="45.91728" lon="3.06046">
        <ele>482.1</ele>
        <time>1970-01-01T04:07:00.000Z</time>
      </trkpt>
      <trkpt lat="45.91726" lon="3.06044">
        <ele>482.1</ele>
        <time>1970-01-01T04:07:01.000Z</time>
      </trkpt>
      <trkpt lat="45.91725" lon="3.06043">
        <ele>482.2</ele>
        <time>1970-01-01T04:07:02.000Z</time>
      </trkpt>
      <trkpt lat="45.91724" lon="3.06041">
        <ele>482.2</ele>
        <time>1970-01-01T04:07:03.000Z</time>
      </trkpt>
      <trkpt lat="45.91723" lon="3.06039">
        <ele>482.3</ele>
        <time>1970-01-01T04:07:04.000Z</time>
      </trkpt>
      <trkpt lat="45.91721" lon="3.06036">
        <ele>482.3</ele>
        <time>1970-01-01T04:07:05.000Z</time>
      </trkpt>
      <trkpt lat="45.9172" lon="3.06034">
        <ele>482.4</ele>
        <time>1970-01-01T04:07:06.000Z</time>
      </trkpt>
      <trkpt lat="45.91717" lon="3.06031">
        <ele>482.4</ele>
        <time>1970-01-01T04:07:08.000Z</time>
      </trkpt>
      <trkpt lat="45.91717" lon="3.06029">
        <ele>482.5</ele>
        <time>1970-01-01T04:07:09.000Z</time>
      </trkpt>
      <trkpt lat="45.91715" lon="3.06025">
        <ele>482.5</ele>
        <time>1970-01-01T04:07:10.000Z</time>
      </trkpt>
      <trkpt lat="45.91714" lon="3.06024">
        <ele>482.6</ele>
        <time>1970-01-01T04:07:11.000Z</time>
      </trkpt>
      <trkpt lat="45.91713" lon="3.0602">
        <ele>482.6</ele>
        <time>1970-01-01T04:07:13.000Z</time>
      </trkpt>
      <trkpt lat="45.91713" lon="3.06018">
        <ele>482.7</ele>
        <time>1970-01-01T04:07:14.000Z</time>
      </trkpt>
      <trkpt lat="45.91712" lon="3.06016">
        <ele>482.7</ele>
        <time>1970-01-01T04:07:15.000Z</time>
      </trkpt>
      <trkpt lat="45.91711" lon="3.06014">
        <ele>482.7</ele>
        <time>1970-01-01T04:07:16.000Z</time>
      </trkpt>
      <trkpt lat="45.9171" lon="3.06012">
        <ele>482.7</ele>
        <time>1970-01-01T04:07:17.000Z</time>
      </trkpt>
      <trkpt lat="45.91709" lon="3.06011">
        <ele>482.8</ele>
        <time>1970-01-01T04:07:18.000Z</time>
      </trkpt>
      <trkpt lat="45.91708" lon="3.06008">
        <ele>482.8</ele>
        <time>1970-01-01T04:07:19.000Z</time>
      </trkpt>
      <trkpt lat="45.91707" lon="3.06007">
        <ele>482.8</ele>
        <time>1970-01-01T04:07:20.000Z</time>
      </trkpt>
      <trkpt lat="45.91707" lon="3.06006">
        <ele>482.8</ele>
        <time>1970-01-01T04:07:21.000Z</time>
      </trkpt>
      <trkpt lat="45.91705" lon="3.06003">
        <ele>482.9</ele>
        <time>1970-01-01T04:07:22.000Z</time>
      </trkpt>
      <trkpt lat="45.91703" lon="3.05998">
        <ele>482.9</ele>
        <time>1970-01-01T04:07:24.000Z</time>
      </trkpt>
      <trkpt lat="45.91703" lon="3.05997">
        <ele>482.9</ele>
        <time>1970-01-01T04:07:25.000Z</time>
      </trkpt>
      <trkpt lat="45.91702" lon="3.05997">
        <ele>482.9</ele>
        <time>1970-01-01T04:07:27.000Z</time>
      </trkpt>
      <trkpt lat="45.91702" lon="3.05997">
        <ele>482.9</ele>
        <time>1970-01-01T04:07:28.000Z</time>
      </trkpt>
      <trkpt lat="45.91702" lon="3.05997">
        <ele>482.9</ele>
        <time>1970-01-01T04:07:29.000Z</time>
      </trkpt>
      <trkpt lat="45.91702" lon="3.05997">
        <ele>482.9</ele>
        <time>1970-01-01T04:07:30.000Z</time>
      </trkpt>
      <trkpt lat="45.91702" lon="3.05997">
        <ele>482.9</ele>
        <time>1970-01-01T04:07:31.000Z</time>
      </trkpt>
      <trkpt lat="45.91702" lon="3.05997">
        <ele>482.9</ele>
        <time>1970-01-01T04:07:32.000Z</time>
      </trkpt>
      <trkpt lat="45.91702" lon="3.05997">
        <ele>482.9</ele>
        <time>1970-01-01T04:07:33.000Z</time>
      </trkpt>
      <trkpt lat="45.91702" lon="3.05997">
        <ele>482.9</ele>
        <time>1970-01-01T04:07:34.000Z</time>
      </trkpt>
      <trkpt lat="45.91702" lon="3.05997">
        <ele>482.9</ele>
        <time>1970-01-01T04:07:35.000Z</time>
      </trkpt>
      <trkpt lat="45.91698" lon="3.05994">
        <ele>482.8</ele>
        <time>1970-01-01T04:08:16.000Z</time>
      </trkpt>
      <trkpt lat="45.91696" lon="3.05992">
        <ele>482.6</ele>
        <time>1970-01-01T04:08:17.000Z</time>
      </trkpt>
      <trkpt lat="45.91694" lon="3.05989">
        <ele>482.5</ele>
        <time>1970-01-01T04:08:18.000Z</time>
      </trkpt>
      <trkpt lat="45.91691" lon="3.05986">
        <ele>482.3</ele>
        <time>1970-01-01T04:08:19.000Z</time>
      </trkpt>
      <trkpt lat="45.9169" lon="3.05986">
        <ele>482.2</ele>
        <time>1970-01-01T04:08:20.000Z</time>
      </trkpt>
      <trkpt lat="45.91687" lon="3.05981">
        <ele>481.9</ele>
        <time>1970-01-01T04:08:22.000Z</time>
      </trkpt>
      <trkpt lat="45.91684" lon="3.05979">
        <ele>481.5</ele>
        <time>1970-01-01T04:08:23.000Z</time>
      </trkpt>
      <trkpt lat="45.91682" lon="3.05979">
        <ele>481.3</ele>
        <time>1970-01-01T04:08:24.000Z</time>
      </trkpt>
      <trkpt lat="45.91676" lon="3.05981">
        <ele>480.7</ele>
        <time>1970-01-01T04:08:25.000Z</time>
      </trkpt>
      <trkpt lat="45.91671" lon="3.05978">
        <ele>480.1</ele>
        <time>1970-01-01T04:08:26.000Z</time>
      </trkpt>
      <trkpt lat="45.91668" lon="3.05972">
        <ele>479.5</ele>
        <time>1970-01-01T04:08:28.000Z</time>
      </trkpt>
      <trkpt lat="45.91666" lon="3.05967">
        <ele>479.1</ele>
        <time>1970-01-01T04:08:29.000Z</time>
      </trkpt>
      <trkpt lat="45.91665" lon="3.05962">
        <ele>478.8</ele>
        <time>1970-01-01T04:08:30.000Z</time>
      </trkpt>
      <trkpt lat="45.91663" lon="3.05956">
        <ele>478.4</ele>
        <time>1970-01-01T04:08:31.000Z</time>
      </trkpt>
      <trkpt lat="45.9166" lon="3.05954">
        <ele>478.1</ele>
        <time>1970-01-01T04:08:32.000Z</time>
      </trkpt>
      <trkpt lat="45.91651" lon="3.05962">
        <ele>476.9</ele>
        <time>1970-01-01T04:08:34.000Z</time>
      </trkpt>
      <trkpt lat="45.91646" lon="3.05966">
        <ele>476.5</ele>
        <time>1970-01-01T04:08:35.000Z</time>
      </trkpt>
      <trkpt lat="45.91641" lon="3.0597">
        <ele>476.1</ele>
        <time>1970-01-01T04:08:36.000Z</time>
      </trkpt>
      <trkpt lat="45.91635" lon="3.05973">
        <ele>475.7</ele>
        <time>1970-01-01T04:08:37.000Z</time>
      </trkpt>
      <trkpt lat="45.91629" lon="3.05976">
        <ele>475.5</ele>
        <time>1970-01-01T04:08:38.000Z</time>
      </trkpt>
      <trkpt lat="45.91624" lon="3.0598">
        <ele>475.3</ele>
        <time>1970-01-01T04:08:39.000Z</time>
      </trkpt>
      <trkpt lat="45.91619" lon="3.05984">
        <ele>475.2</ele>
        <time>1970-01-01T04:08:40.000Z</time>
      </trkpt>
      <trkpt lat="45.91613" lon="3.05989">
        <ele>475.1</ele>
        <time>1970-01-01T04:08:41.000Z</time>
      </trkpt>
      <trkpt lat="45.91608" lon="3.05993">
        <ele>475.1</ele>
        <time>1970-01-01T04:08:42.000Z</time>
      </trkpt>
      <trkpt lat="45.91603" lon="3.05996">
        <ele>475</ele>
        <time>1970-01-01T04:08:43.000Z</time>
      </trkpt>
      <trkpt lat="45.91597" lon="3.06">
        <ele>475</ele>
        <time>1970-01-01T04:08:44.000Z</time>
      </trkpt>
      <trkpt lat="45.91593" lon="3.06003">
        <ele>475</ele>
        <time>1970-01-01T04:08:45.000Z</time>
      </trkpt>
      <trkpt lat="45.91588" lon="3.06006">
        <ele>475</ele>
        <time>1970-01-01T04:08:46.000Z</time>
      </trkpt>
      <trkpt lat="45.91584" lon="3.06009">
        <ele>475</ele>
        <time>1970-01-01T04:08:47.000Z</time>
      </trkpt>
      <trkpt lat="45.9158" lon="3.06013">
        <ele>474.9</ele>
        <time>1970-01-01T04:08:48.000Z</time>
      </trkpt>
      <trkpt lat="45.91577" lon="3.06015">
        <ele>474.9</ele>
        <time>1970-01-01T04:08:49.000Z</time>
      </trkpt>
      <trkpt lat="45.91573" lon="3.06017">
        <ele>474.9</ele>
        <time>1970-01-01T04:08:50.000Z</time>
      </trkpt>
      <trkpt lat="45.9157" lon="3.0602">
        <ele>474.8</ele>
        <time>1970-01-01T04:08:51.000Z</time>
      </trkpt>
      <trkpt lat="45.91567" lon="3.06022">
        <ele>474.7</ele>
        <time>1970-01-01T04:08:52.000Z</time>
      </trkpt>
      <trkpt lat="45.91564" lon="3.06025">
        <ele>474.6</ele>
        <time>1970-01-01T04:08:53.000Z</time>
      </trkpt>
      <trkpt lat="45.91561" lon="3.06029">
        <ele>474.4</ele>
        <time>1970-01-01T04:08:54.000Z</time>
      </trkpt>
      <trkpt lat="45.9156" lon="3.06031">
        <ele>474.3</ele>
        <time>1970-01-01T04:08:55.000Z</time>
      </trkpt>
      <trkpt lat="45.91555" lon="3.06033">
        <ele>474</ele>
        <time>1970-01-01T04:08:56.000Z</time>
      </trkpt>
      <trkpt lat="45.9155" lon="3.06036">
        <ele>473.6</ele>
        <time>1970-01-01T04:08:57.000Z</time>
      </trkpt>
      <trkpt lat="45.91546" lon="3.06038">
        <ele>473.3</ele>
        <time>1970-01-01T04:08:58.000Z</time>
      </trkpt>
      <trkpt lat="45.91542" lon="3.06039">
        <ele>472.9</ele>
        <time>1970-01-01T04:09:00.000Z</time>
      </trkpt>
      <trkpt lat="45.91539" lon="3.06041">
        <ele>472.7</ele>
        <time>1970-01-01T04:09:01.000Z</time>
      </trkpt>
      <trkpt lat="45.91536" lon="3.06042">
        <ele>472.4</ele>
        <time>1970-01-01T04:09:02.000Z</time>
      </trkpt>
      <trkpt lat="45.91534" lon="3.06044">
        <ele>472.2</ele>
        <time>1970-01-01T04:09:03.000Z</time>
      </trkpt>
      <trkpt lat="45.91533" lon="3.06046">
        <ele>472.1</ele>
        <time>1970-01-01T04:09:04.000Z</time>
      </trkpt>
      <trkpt lat="45.91533" lon="3.0605">
        <ele>471.7</ele>
        <time>1970-01-01T04:09:05.000Z</time>
      </trkpt>
      <trkpt lat="45.91532" lon="3.06052">
        <ele>471.6</ele>
        <time>1970-01-01T04:09:06.000Z</time>
      </trkpt>
      <trkpt lat="45.91533" lon="3.06059">
        <ele>471.4</ele>
        <time>1970-01-01T04:09:07.000Z</time>
      </trkpt>
      <trkpt lat="45.91533" lon="3.06066">
        <ele>471.2</ele>
        <time>1970-01-01T04:09:08.000Z</time>
      </trkpt>
      <trkpt lat="45.91535" lon="3.06077">
        <ele>470.8</ele>
        <time>1970-01-01T04:09:10.000Z</time>
      </trkpt>
      <trkpt lat="45.91536" lon="3.06085">
        <ele>470.6</ele>
        <time>1970-01-01T04:09:11.000Z</time>
      </trkpt>
      <trkpt lat="45.91536" lon="3.06092">
        <ele>470.4</ele>
        <time>1970-01-01T04:09:12.000Z</time>
      </trkpt>
      <trkpt lat="45.91537" lon="3.06099">
        <ele>470.2</ele>
        <time>1970-01-01T04:09:13.000Z</time>
      </trkpt>
      <trkpt lat="45.91537" lon="3.06107">
        <ele>470</ele>
        <time>1970-01-01T04:09:14.000Z</time>
      </trkpt>
      <trkpt lat="45.91538" lon="3.06115">
        <ele>469.9</ele>
        <time>1970-01-01T04:09:15.000Z</time>
      </trkpt>
      <trkpt lat="45.91539" lon="3.06123">
        <ele>469.8</ele>
        <time>1970-01-01T04:09:16.000Z</time>
      </trkpt>
      <trkpt lat="45.91539" lon="3.0613">
        <ele>469.6</ele>
        <time>1970-01-01T04:09:17.000Z</time>
      </trkpt>
      <trkpt lat="45.9154" lon="3.06138">
        <ele>469.5</ele>
        <time>1970-01-01T04:09:18.000Z</time>
      </trkpt>
      <trkpt lat="45.91541" lon="3.06146">
        <ele>469.4</ele>
        <time>1970-01-01T04:09:19.000Z</time>
      </trkpt>
      <trkpt lat="45.91541" lon="3.06153">
        <ele>469.3</ele>
        <time>1970-01-01T04:09:20.000Z</time>
      </trkpt>
      <trkpt lat="45.91542" lon="3.0616">
        <ele>469.3</ele>
        <time>1970-01-01T04:09:21.000Z</time>
      </trkpt>
      <trkpt lat="45.91543" lon="3.06168">
        <ele>469.2</ele>
        <time>1970-01-01T04:09:22.000Z</time>
      </trkpt>
      <trkpt lat="45.91543" lon="3.06175">
        <ele>469.1</ele>
        <time>1970-01-01T04:09:23.000Z</time>
      </trkpt>
      <trkpt lat="45.91543" lon="3.06182">
        <ele>469.1</ele>
        <time>1970-01-01T04:09:24.000Z</time>
      </trkpt>
      <trkpt lat="45.91542" lon="3.06187">
        <ele>469.1</ele>
        <time>1970-01-01T04:09:25.000Z</time>
      </trkpt>
      <trkpt lat="45.91539" lon="3.06192">
        <ele>469.1</ele>
        <time>1970-01-01T04:09:26.000Z</time>
      </trkpt>
      <trkpt lat="45.91535" lon="3.06191">
        <ele>469</ele>
        <time>1970-01-01T04:09:27.000Z</time>
      </trkpt>
      <trkpt lat="45.9153" lon="3.0619">
        <ele>468.9</ele>
        <time>1970-01-01T04:09:28.000Z</time>
      </trkpt>
      <trkpt lat="45.91526" lon="3.06189">
        <ele>468.9</ele>
        <time>1970-01-01T04:09:29.000Z</time>
      </trkpt>
      <trkpt lat="45.91522" lon="3.06188">
        <ele>468.9</ele>
        <time>1970-01-01T04:09:30.000Z</time>
      </trkpt>
      <trkpt lat="45.91518" lon="3.06186">
        <ele>468.9</ele>
        <time>1970-01-01T04:09:31.000Z</time>
      </trkpt>
      <trkpt lat="45.91513" lon="3.06185">
        <ele>468.8</ele>
        <time>1970-01-01T04:09:32.000Z</time>
      </trkpt>
      <trkpt lat="45.91505" lon="3.06183">
        <ele>468.8</ele>
        <time>1970-01-01T04:09:33.000Z</time>
      </trkpt>
      <trkpt lat="45.91501" lon="3.06183">
        <ele>468.8</ele>
        <time>1970-01-01T04:09:34.000Z</time>
      </trkpt>
      <trkpt lat="45.91496" lon="3.06182">
        <ele>468.8</ele>
        <time>1970-01-01T04:09:36.000Z</time>
      </trkpt>
      <trkpt lat="45.91491" lon="3.06182">
        <ele>468.8</ele>
        <time>1970-01-01T04:09:37.000Z</time>
      </trkpt>
      <trkpt lat="45.91487" lon="3.06181">
        <ele>468.8</ele>
        <time>1970-01-01T04:09:38.000Z</time>
      </trkpt>
      <trkpt lat="45.91482" lon="3.06181">
        <ele>468.8</ele>
        <time>1970-01-01T04:09:40.000Z</time>
      </trkpt>
      <trkpt lat="45.91477" lon="3.06183">
        <ele>468.7</ele>
        <time>1970-01-01T04:09:41.000Z</time>
      </trkpt>
      <trkpt lat="45.91473" lon="3.06185">
        <ele>468.7</ele>
        <time>1970-01-01T04:09:42.000Z</time>
      </trkpt>
      <trkpt lat="45.91468" lon="3.06189">
        <ele>468.8</ele>
        <time>1970-01-01T04:09:43.000Z</time>
      </trkpt>
      <trkpt lat="45.91464" lon="3.06192">
        <ele>468.9</ele>
        <time>1970-01-01T04:09:45.000Z</time>
      </trkpt>
      <trkpt lat="45.91461" lon="3.06195">
        <ele>468.9</ele>
        <time>1970-01-01T04:09:46.000Z</time>
      </trkpt>
      <trkpt lat="45.91458" lon="3.06197">
        <ele>469</ele>
        <time>1970-01-01T04:09:47.000Z</time>
      </trkpt>
      <trkpt lat="45.91455" lon="3.062">
        <ele>469</ele>
        <time>1970-01-01T04:09:48.000Z</time>
      </trkpt>
      <trkpt lat="45.91453" lon="3.06202">
        <ele>469.1</ele>
        <time>1970-01-01T04:09:49.000Z</time>
      </trkpt>
      <trkpt lat="45.9145" lon="3.06205">
        <ele>469.2</ele>
        <time>1970-01-01T04:09:50.000Z</time>
      </trkpt>
      <trkpt lat="45.91447" lon="3.06208">
        <ele>469.3</ele>
        <time>1970-01-01T04:09:51.000Z</time>
      </trkpt>
      <trkpt lat="45.91445" lon="3.06211">
        <ele>469.4</ele>
        <time>1970-01-01T04:09:52.000Z</time>
      </trkpt>
      <trkpt lat="45.91442" lon="3.06215">
        <ele>469.5</ele>
        <time>1970-01-01T04:09:53.000Z</time>
      </trkpt>
      <trkpt lat="45.91439" lon="3.06218">
        <ele>469.6</ele>
        <time>1970-01-01T04:09:54.000Z</time>
      </trkpt>
      <trkpt lat="45.91438" lon="3.0622">
        <ele>469.7</ele>
        <time>1970-01-01T04:09:55.000Z</time>
      </trkpt>
      <trkpt lat="45.91433" lon="3.06225">
        <ele>469.8</ele>
        <time>1970-01-01T04:09:57.000Z</time>
      </trkpt>
      <trkpt lat="45.91431" lon="3.06227">
        <ele>469.9</ele>
        <time>1970-01-01T04:09:58.000Z</time>
      </trkpt>
      <trkpt lat="45.91429" lon="3.0623">
        <ele>470</ele>
        <time>1970-01-01T04:09:59.000Z</time>
      </trkpt>
      <trkpt lat="45.91426" lon="3.06233">
        <ele>470.1</ele>
        <time>1970-01-01T04:10:00.000Z</time>
      </trkpt>
      <trkpt lat="45.91424" lon="3.06237">
        <ele>470.2</ele>
        <time>1970-01-01T04:10:01.000Z</time>
      </trkpt>
      <trkpt lat="45.91421" lon="3.06241">
        <ele>470.3</ele>
        <time>1970-01-01T04:10:02.000Z</time>
      </trkpt>
      <trkpt lat="45.91418" lon="3.06246">
        <ele>470.4</ele>
        <time>1970-01-01T04:10:04.000Z</time>
      </trkpt>
      <trkpt lat="45.91415" lon="3.0625">
        <ele>470.5</ele>
        <time>1970-01-01T04:10:05.000Z</time>
      </trkpt>
      <trkpt lat="45.91413" lon="3.06253">
        <ele>470.5</ele>
        <time>1970-01-01T04:10:06.000Z</time>
      </trkpt>
      <trkpt lat="45.91411" lon="3.06256">
        <ele>470.6</ele>
        <time>1970-01-01T04:10:07.000Z</time>
      </trkpt>
      <trkpt lat="45.91408" lon="3.06259">
        <ele>470.7</ele>
        <time>1970-01-01T04:10:08.000Z</time>
      </trkpt>
      <trkpt lat="45.91407" lon="3.0626">
        <ele>470.7</ele>
        <time>1970-01-01T04:10:09.000Z</time>
      </trkpt>
      <trkpt lat="45.91405" lon="3.06263">
        <ele>470.8</ele>
        <time>1970-01-01T04:10:10.000Z</time>
      </trkpt>
      <trkpt lat="45.91402" lon="3.06268">
        <ele>470.8</ele>
        <time>1970-01-01T04:10:11.000Z</time>
      </trkpt>
      <trkpt lat="45.91399" lon="3.06271">
        <ele>470.9</ele>
        <time>1970-01-01T04:10:12.000Z</time>
      </trkpt>
      <trkpt lat="45.91396" lon="3.06274">
        <ele>470.9</ele>
        <time>1970-01-01T04:10:14.000Z</time>
      </trkpt>
      <trkpt lat="45.91394" lon="3.06277">
        <ele>470.9</ele>
        <time>1970-01-01T04:10:15.000Z</time>
      </trkpt>
      <trkpt lat="45.91392" lon="3.0628">
        <ele>470.9</ele>
        <time>1970-01-01T04:10:16.000Z</time>
      </trkpt>
      <trkpt lat="45.91389" lon="3.06282">
        <ele>470.9</ele>
        <time>1970-01-01T04:10:17.000Z</time>
      </trkpt>
      <trkpt lat="45.91385" lon="3.06288">
        <ele>470.8</ele>
        <time>1970-01-01T04:10:18.000Z</time>
      </trkpt>
      <trkpt lat="45.91381" lon="3.06293">
        <ele>470.8</ele>
        <time>1970-01-01T04:10:20.000Z</time>
      </trkpt>
      <trkpt lat="45.91378" lon="3.06296">
        <ele>470.7</ele>
        <time>1970-01-01T04:10:21.000Z</time>
      </trkpt>
      <trkpt lat="45.91374" lon="3.063">
        <ele>470.7</ele>
        <time>1970-01-01T04:10:22.000Z</time>
      </trkpt>
      <trkpt lat="45.91372" lon="3.06303">
        <ele>470.6</ele>
        <time>1970-01-01T04:10:23.000Z</time>
      </trkpt>
      <trkpt lat="45.91368" lon="3.06307">
        <ele>470.6</ele>
        <time>1970-01-01T04:10:24.000Z</time>
      </trkpt>
      <trkpt lat="45.91366" lon="3.0631">
        <ele>470.5</ele>
        <time>1970-01-01T04:10:25.000Z</time>
      </trkpt>
      <trkpt lat="45.91363" lon="3.06314">
        <ele>470.5</ele>
        <time>1970-01-01T04:10:27.000Z</time>
      </trkpt>
      <trkpt lat="45.9136" lon="3.06318">
        <ele>470.4</ele>
        <time>1970-01-01T04:10:28.000Z</time>
      </trkpt>
      <trkpt lat="45.91358" lon="3.06321">
        <ele>470.4</ele>
        <time>1970-01-01T04:10:29.000Z</time>
      </trkpt>
      <trkpt lat="45.91354" lon="3.06327">
        <ele>470.3</ele>
        <time>1970-01-01T04:10:30.000Z</time>
      </trkpt>
      <trkpt lat="45.91351" lon="3.06331">
        <ele>470.3</ele>
        <time>1970-01-01T04:10:31.000Z</time>
      </trkpt>
      <trkpt lat="45.91348" lon="3.06336">
        <ele>470.2</ele>
        <time>1970-01-01T04:10:33.000Z</time>
      </trkpt>
      <trkpt lat="45.91345" lon="3.0634">
        <ele>470.2</ele>
        <time>1970-01-01T04:10:34.000Z</time>
      </trkpt>
      <trkpt lat="45.91342" lon="3.06346">
        <ele>470.1</ele>
        <time>1970-01-01T04:10:35.000Z</time>
      </trkpt>
      <trkpt lat="45.9134" lon="3.0635">
        <ele>470</ele>
        <time>1970-01-01T04:10:36.000Z</time>
      </trkpt>
      <trkpt lat="45.91337" lon="3.06355">
        <ele>470</ele>
        <time>1970-01-01T04:10:37.000Z</time>
      </trkpt>
      <trkpt lat="45.91333" lon="3.0636">
        <ele>469.9</ele>
        <time>1970-01-01T04:10:39.000Z</time>
      </trkpt>
      <trkpt lat="45.9133" lon="3.06365">
        <ele>469.9</ele>
        <time>1970-01-01T04:10:40.000Z</time>
      </trkpt>
      <trkpt lat="45.91324" lon="3.06372">
        <ele>469.8</ele>
        <time>1970-01-01T04:10:42.000Z</time>
      </trkpt>
      <trkpt lat="45.91321" lon="3.06374">
        <ele>469.8</ele>
        <time>1970-01-01T04:10:43.000Z</time>
      </trkpt>
      <trkpt lat="45.91318" lon="3.06376">
        <ele>469.8</ele>
        <time>1970-01-01T04:10:44.000Z</time>
      </trkpt>
      <trkpt lat="45.91315" lon="3.06378">
        <ele>469.8</ele>
        <time>1970-01-01T04:10:45.000Z</time>
      </trkpt>
      <trkpt lat="45.91312" lon="3.06381">
        <ele>469.8</ele>
        <time>1970-01-01T04:10:46.000Z</time>
      </trkpt>
      <trkpt lat="45.91309" lon="3.06384">
        <ele>469.8</ele>
        <time>1970-01-01T04:10:47.000Z</time>
      </trkpt>
      <trkpt lat="45.91307" lon="3.06388">
        <ele>469.8</ele>
        <time>1970-01-01T04:10:48.000Z</time>
      </trkpt>
      <trkpt lat="45.91304" lon="3.06391">
        <ele>469.9</ele>
        <time>1970-01-01T04:10:49.000Z</time>
      </trkpt>
      <trkpt lat="45.913" lon="3.06394">
        <ele>469.9</ele>
        <time>1970-01-01T04:10:51.000Z</time>
      </trkpt>
      <trkpt lat="45.91298" lon="3.06397">
        <ele>469.9</ele>
        <time>1970-01-01T04:10:52.000Z</time>
      </trkpt>
      <trkpt lat="45.91295" lon="3.06401">
        <ele>469.9</ele>
        <time>1970-01-01T04:10:53.000Z</time>
      </trkpt>
      <trkpt lat="45.91291" lon="3.06406">
        <ele>469.9</ele>
        <time>1970-01-01T04:10:54.000Z</time>
      </trkpt>
      <trkpt lat="45.91287" lon="3.0641">
        <ele>469.9</ele>
        <time>1970-01-01T04:10:56.000Z</time>
      </trkpt>
      <trkpt lat="45.91285" lon="3.06415">
        <ele>470</ele>
        <time>1970-01-01T04:10:57.000Z</time>
      </trkpt>
      <trkpt lat="45.91284" lon="3.06418">
        <ele>470</ele>
        <time>1970-01-01T04:10:58.000Z</time>
      </trkpt>
      <trkpt lat="45.91282" lon="3.06423">
        <ele>470.1</ele>
        <time>1970-01-01T04:10:59.000Z</time>
      </trkpt>
      <trkpt lat="45.91281" lon="3.06428">
        <ele>470.1</ele>
        <time>1970-01-01T04:11:00.000Z</time>
      </trkpt>
      <trkpt lat="45.91278" lon="3.06432">
        <ele>470.1</ele>
        <time>1970-01-01T04:11:02.000Z</time>
      </trkpt>
      <trkpt lat="45.91275" lon="3.06435">
        <ele>470.1</ele>
        <time>1970-01-01T04:11:03.000Z</time>
      </trkpt>
      <trkpt lat="45.91272" lon="3.06439">
        <ele>470.1</ele>
        <time>1970-01-01T04:11:04.000Z</time>
      </trkpt>
      <trkpt lat="45.91269" lon="3.06443">
        <ele>470.1</ele>
        <time>1970-01-01T04:11:05.000Z</time>
      </trkpt>
      <trkpt lat="45.91266" lon="3.06448">
        <ele>470.2</ele>
        <time>1970-01-01T04:11:06.000Z</time>
      </trkpt>
      <trkpt lat="45.91263" lon="3.06451">
        <ele>470.2</ele>
        <time>1970-01-01T04:11:07.000Z</time>
      </trkpt>
      <trkpt lat="45.91258" lon="3.06456">
        <ele>470.2</ele>
        <time>1970-01-01T04:11:08.000Z</time>
      </trkpt>
      <trkpt lat="45.91254" lon="3.06458">
        <ele>470.3</ele>
        <time>1970-01-01T04:11:10.000Z</time>
      </trkpt>
      <trkpt lat="45.91251" lon="3.06459">
        <ele>470.3</ele>
        <time>1970-01-01T04:11:11.000Z</time>
      </trkpt>
      <trkpt lat="45.91247" lon="3.0646">
        <ele>470.3</ele>
        <time>1970-01-01T04:11:12.000Z</time>
      </trkpt>
      <trkpt lat="45.91243" lon="3.0646">
        <ele>470.4</ele>
        <time>1970-01-01T04:11:13.000Z</time>
      </trkpt>
      <trkpt lat="45.91239" lon="3.06461">
        <ele>470.4</ele>
        <time>1970-01-01T04:11:14.000Z</time>
      </trkpt>
      <trkpt lat="45.91238" lon="3.06467">
        <ele>470.7</ele>
        <time>1970-01-01T04:11:16.000Z</time>
      </trkpt>
      <trkpt lat="45.91239" lon="3.06469">
        <ele>470.8</ele>
        <time>1970-01-01T04:11:17.000Z</time>
      </trkpt>
      <trkpt lat="45.9124" lon="3.06473">
        <ele>471.1</ele>
        <time>1970-01-01T04:11:18.000Z</time>
      </trkpt>
      <trkpt lat="45.91241" lon="3.06474">
        <ele>471.2</ele>
        <time>1970-01-01T04:11:19.000Z</time>
      </trkpt>
      <trkpt lat="45.91241" lon="3.06477">
        <ele>471.3</ele>
        <time>1970-01-01T04:11:20.000Z</time>
      </trkpt>
      <trkpt lat="45.91241" lon="3.06481">
        <ele>471.6</ele>
        <time>1970-01-01T04:11:22.000Z</time>
      </trkpt>
      <trkpt lat="45.91242" lon="3.06485">
        <ele>471.8</ele>
        <time>1970-01-01T04:11:23.000Z</time>
      </trkpt>
      <trkpt lat="45.91242" lon="3.06486">
        <ele>471.8</ele>
        <time>1970-01-01T04:11:24.000Z</time>
      </trkpt>
      <trkpt lat="45.91242" lon="3.06489">
        <ele>472</ele>
        <time>1970-01-01T04:11:25.000Z</time>
      </trkpt>
      <trkpt lat="45.91243" lon="3.06492">
        <ele>472.2</ele>
        <time>1970-01-01T04:11:27.000Z</time>
      </trkpt>
      <trkpt lat="45.91243" lon="3.06494">
        <ele>472.3</ele>
        <time>1970-01-01T04:11:28.000Z</time>
      </trkpt>
      <trkpt lat="45.91245" lon="3.06498">
        <ele>472.6</ele>
        <time>1970-01-01T04:11:30.000Z</time>
      </trkpt>
      <trkpt lat="45.91245" lon="3.065">
        <ele>472.7</ele>
        <time>1970-01-01T04:11:31.000Z</time>
      </trkpt>
      <trkpt lat="45.91246" lon="3.06503">
        <ele>472.9</ele>
        <time>1970-01-01T04:11:32.000Z</time>
      </trkpt>
      <trkpt lat="45.91246" lon="3.06507">
        <ele>473.1</ele>
        <time>1970-01-01T04:11:33.000Z</time>
      </trkpt>
      <trkpt lat="45.91246" lon="3.06508">
        <ele>473.2</ele>
        <time>1970-01-01T04:11:34.000Z</time>
      </trkpt>
      <trkpt lat="45.91247" lon="3.0651">
        <ele>473.3</ele>
        <time>1970-01-01T04:11:35.000Z</time>
      </trkpt>
      <trkpt lat="45.91247" lon="3.06512">
        <ele>473.4</ele>
        <time>1970-01-01T04:11:37.000Z</time>
      </trkpt>
      <trkpt lat="45.91248" lon="3.06515">
        <ele>473.6</ele>
        <time>1970-01-01T04:11:38.000Z</time>
      </trkpt>
      <trkpt lat="45.91248" lon="3.06516">
        <ele>473.6</ele>
        <time>1970-01-01T04:11:39.000Z</time>
      </trkpt>
      <trkpt lat="45.91249" lon="3.06518">
        <ele>473.7</ele>
        <time>1970-01-01T04:11:40.000Z</time>
      </trkpt>
      <trkpt lat="45.91249" lon="3.06521">
        <ele>473.9</ele>
        <time>1970-01-01T04:11:41.000Z</time>
      </trkpt>
      <trkpt lat="45.91249" lon="3.06525">
        <ele>474</ele>
        <time>1970-01-01T04:11:42.000Z</time>
      </trkpt>
      <trkpt lat="45.9125" lon="3.06527">
        <ele>474.1</ele>
        <time>1970-01-01T04:11:44.000Z</time>
      </trkpt>
      <trkpt lat="45.9125" lon="3.06529">
        <ele>474.2</ele>
        <time>1970-01-01T04:11:45.000Z</time>
      </trkpt>
      <trkpt lat="45.9125" lon="3.06531">
        <ele>474.2</ele>
        <time>1970-01-01T04:11:46.000Z</time>
      </trkpt>
      <trkpt lat="45.91251" lon="3.06535">
        <ele>474.4</ele>
        <time>1970-01-01T04:11:48.000Z</time>
      </trkpt>
      <trkpt lat="45.91251" lon="3.06536">
        <ele>474.4</ele>
        <time>1970-01-01T04:11:49.000Z</time>
      </trkpt>
      <trkpt lat="45.91252" lon="3.0654">
        <ele>474.5</ele>
        <time>1970-01-01T04:11:51.000Z</time>
      </trkpt>
      <trkpt lat="45.91252" lon="3.06542">
        <ele>474.6</ele>
        <time>1970-01-01T04:11:52.000Z</time>
      </trkpt>
      <trkpt lat="45.91252" lon="3.06544">
        <ele>474.6</ele>
        <time>1970-01-01T04:11:53.000Z</time>
      </trkpt>
      <trkpt lat="45.91253" lon="3.06546">
        <ele>474.7</ele>
        <time>1970-01-01T04:11:54.000Z</time>
      </trkpt>
      <trkpt lat="45.91254" lon="3.0655">
        <ele>474.8</ele>
        <time>1970-01-01T04:11:56.000Z</time>
      </trkpt>
      <trkpt lat="45.91254" lon="3.06551">
        <ele>474.8</ele>
        <time>1970-01-01T04:11:57.000Z</time>
      </trkpt>
      <trkpt lat="45.91255" lon="3.06555">
        <ele>474.9</ele>
        <time>1970-01-01T04:11:58.000Z</time>
      </trkpt>
      <trkpt lat="45.91255" lon="3.06557">
        <ele>474.9</ele>
        <time>1970-01-01T04:11:59.000Z</time>
      </trkpt>
      <trkpt lat="45.91256" lon="3.06561">
        <ele>475</ele>
        <time>1970-01-01T04:12:01.000Z</time>
      </trkpt>
      <trkpt lat="45.91257" lon="3.06562">
        <ele>475</ele>
        <time>1970-01-01T04:12:02.000Z</time>
      </trkpt>
      <trkpt lat="45.91257" lon="3.06564">
        <ele>475</ele>
        <time>1970-01-01T04:12:03.000Z</time>
      </trkpt>
      <trkpt lat="45.91257" lon="3.06567">
        <ele>475.1</ele>
        <time>1970-01-01T04:12:04.000Z</time>
      </trkpt>
      <trkpt lat="45.91258" lon="3.06572">
        <ele>475.1</ele>
        <time>1970-01-01T04:12:05.000Z</time>
      </trkpt>
      <trkpt lat="45.91259" lon="3.06573">
        <ele>475.2</ele>
        <time>1970-01-01T04:12:06.000Z</time>
      </trkpt>
      <trkpt lat="45.91259" lon="3.06578">
        <ele>475.2</ele>
        <time>1970-01-01T04:12:07.000Z</time>
      </trkpt>
      <trkpt lat="45.9126" lon="3.06579">
        <ele>475.2</ele>
        <time>1970-01-01T04:12:08.000Z</time>
      </trkpt>
      <trkpt lat="45.9126" lon="3.06585">
        <ele>475.3</ele>
        <time>1970-01-01T04:12:09.000Z</time>
      </trkpt>
      <trkpt lat="45.91261" lon="3.06587">
        <ele>475.3</ele>
        <time>1970-01-01T04:12:10.000Z</time>
      </trkpt>
      <trkpt lat="45.91262" lon="3.06591">
        <ele>475.4</ele>
        <time>1970-01-01T04:12:11.000Z</time>
      </trkpt>
      <trkpt lat="45.91262" lon="3.06595">
        <ele>475.4</ele>
        <time>1970-01-01T04:12:12.000Z</time>
      </trkpt>
      <trkpt lat="45.91263" lon="3.066">
        <ele>475.4</ele>
        <time>1970-01-01T04:12:13.000Z</time>
      </trkpt>
      <trkpt lat="45.91264" lon="3.06605">
        <ele>475.5</ele>
        <time>1970-01-01T04:12:14.000Z</time>
      </trkpt>
      <trkpt lat="45.91264" lon="3.0661">
        <ele>475.5</ele>
        <time>1970-01-01T04:12:16.000Z</time>
      </trkpt>
      <trkpt lat="45.91265" lon="3.06614">
        <ele>475.5</ele>
        <time>1970-01-01T04:12:17.000Z</time>
      </trkpt>
      <trkpt lat="45.91265" lon="3.06618">
        <ele>475.6</ele>
        <time>1970-01-01T04:12:18.000Z</time>
      </trkpt>
      <trkpt lat="45.91266" lon="3.06624">
        <ele>475.6</ele>
        <time>1970-01-01T04:12:19.000Z</time>
      </trkpt>
      <trkpt lat="45.91266" lon="3.06626">
        <ele>475.6</ele>
        <time>1970-01-01T04:12:20.000Z</time>
      </trkpt>
      <trkpt lat="45.91266" lon="3.06632">
        <ele>475.6</ele>
        <time>1970-01-01T04:12:21.000Z</time>
      </trkpt>
      <trkpt lat="45.91266" lon="3.06638">
        <ele>475.7</ele>
        <time>1970-01-01T04:12:22.000Z</time>
      </trkpt>
      <trkpt lat="45.91267" lon="3.06644">
        <ele>475.7</ele>
        <time>1970-01-01T04:12:24.000Z</time>
      </trkpt>
      <trkpt lat="45.91267" lon="3.06649">
        <ele>475.7</ele>
        <time>1970-01-01T04:12:25.000Z</time>
      </trkpt>
      <trkpt lat="45.91267" lon="3.06659">
        <ele>475.8</ele>
        <time>1970-01-01T04:12:27.000Z</time>
      </trkpt>
      <trkpt lat="45.91266" lon="3.06665">
        <ele>475.9</ele>
        <time>1970-01-01T04:12:28.000Z</time>
      </trkpt>
      <trkpt lat="45.91265" lon="3.06668">
        <ele>475.9</ele>
        <time>1970-01-01T04:12:29.000Z</time>
      </trkpt>
      <trkpt lat="45.91264" lon="3.06673">
        <ele>476</ele>
        <time>1970-01-01T04:12:31.000Z</time>
      </trkpt>
      <trkpt lat="45.91264" lon="3.06678">
        <ele>476</ele>
        <time>1970-01-01T04:12:32.000Z</time>
      </trkpt>
      <trkpt lat="45.91264" lon="3.0668">
        <ele>476.1</ele>
        <time>1970-01-01T04:12:33.000Z</time>
      </trkpt>
      <trkpt lat="45.91264" lon="3.06684">
        <ele>476.1</ele>
        <time>1970-01-01T04:12:34.000Z</time>
      </trkpt>
      <trkpt lat="45.9126" lon="3.06687">
        <ele>476.2</ele>
        <time>1970-01-01T04:12:36.000Z</time>
      </trkpt>
      <trkpt lat="45.91261" lon="3.06686">
        <ele>476.2</ele>
        <time>1970-01-01T04:12:38.000Z</time>
      </trkpt>
      <trkpt lat="45.91261" lon="3.06686">
        <ele>476.2</ele>
        <time>1970-01-01T04:12:39.000Z</time>
      </trkpt>
      <trkpt lat="45.91261" lon="3.06686">
        <ele>476.2</ele>
        <time>1970-01-01T04:12:41.000Z</time>
      </trkpt>
      <trkpt lat="45.9126" lon="3.06687">
        <ele>476.3</ele>
        <time>1970-01-01T04:12:42.000Z</time>
      </trkpt>
      <trkpt lat="45.9126" lon="3.06687">
        <ele>476.3</ele>
        <time>1970-01-01T04:12:43.000Z</time>
      </trkpt>
      <trkpt lat="45.91259" lon="3.06688">
        <ele>476.3</ele>
        <time>1970-01-01T04:12:44.000Z</time>
      </trkpt>
      <trkpt lat="45.91259" lon="3.06688">
        <ele>476.3</ele>
        <time>1970-01-01T04:12:45.000Z</time>
      </trkpt>
      <trkpt lat="45.91258" lon="3.06688">
        <ele>476.3</ele>
        <time>1970-01-01T04:12:46.000Z</time>
      </trkpt>
      <trkpt lat="45.91258" lon="3.06688">
        <ele>476.3</ele>
        <time>1970-01-01T04:12:47.000Z</time>
      </trkpt>
      <trkpt lat="45.91258" lon="3.06688">
        <ele>476.3</ele>
        <time>1970-01-01T04:12:48.000Z</time>
      </trkpt>
      <trkpt lat="45.91257" lon="3.06687">
        <ele>476.4</ele>
        <time>1970-01-01T04:12:49.000Z</time>
      </trkpt>
      <trkpt lat="45.91257" lon="3.06687">
        <ele>476.4</ele>
        <time>1970-01-01T04:12:50.000Z</time>
      </trkpt>
      <trkpt lat="45.91257" lon="3.06687">
        <ele>476.5</ele>
        <time>1970-01-01T04:12:51.000Z</time>
      </trkpt>
      <trkpt lat="45.91257" lon="3.06687">
        <ele>476.5</ele>
        <time>1970-01-01T04:12:52.000Z</time>
      </trkpt>
      <trkpt lat="45.91257" lon="3.06686">
        <ele>476.6</ele>
        <time>1970-01-01T04:12:53.000Z</time>
      </trkpt>
      <trkpt lat="45.91257" lon="3.06686">
        <ele>476.6</ele>
        <time>1970-01-01T04:12:54.000Z</time>
      </trkpt>
      <trkpt lat="45.91257" lon="3.06686">
        <ele>476.7</ele>
        <time>1970-01-01T04:12:55.000Z</time>
      </trkpt>
      <trkpt lat="45.91257" lon="3.06686">
        <ele>476.7</ele>
        <time>1970-01-01T04:12:56.000Z</time>
      </trkpt>
      <trkpt lat="45.91257" lon="3.06686">
        <ele>476.8</ele>
        <time>1970-01-01T04:12:57.000Z</time>
      </trkpt>
      <trkpt lat="45.91257" lon="3.06686">
        <ele>476.8</ele>
        <time>1970-01-01T04:12:58.000Z</time>
      </trkpt>
      <trkpt lat="45.91256" lon="3.06685">
        <ele>476.8</ele>
        <time>1970-01-01T04:13:12.000Z</time>
      </trkpt>
      <trkpt lat="45.91255" lon="3.06685">
        <ele>477</ele>
        <time>1970-01-01T04:13:13.000Z</time>
      </trkpt>
      <trkpt lat="45.91254" lon="3.06684">
        <ele>477</ele>
        <time>1970-01-01T04:13:14.000Z</time>
      </trkpt>
      <trkpt lat="45.91253" lon="3.06684">
        <ele>477.1</ele>
        <time>1970-01-01T04:13:15.000Z</time>
      </trkpt>
      <trkpt lat="45.91252" lon="3.06684">
        <ele>477.3</ele>
        <time>1970-01-01T04:13:16.000Z</time>
      </trkpt>
      <trkpt lat="45.91251" lon="3.06683">
        <ele>477.4</ele>
        <time>1970-01-01T04:13:17.000Z</time>
      </trkpt>
      <trkpt lat="45.91249" lon="3.06684">
        <ele>477.7</ele>
        <time>1970-01-01T04:13:18.000Z</time>
      </trkpt>
      <trkpt lat="45.91247" lon="3.06685">
        <ele>477.7</ele>
        <time>1970-01-01T04:13:20.000Z</time>
      </trkpt>
      <trkpt lat="45.91246" lon="3.06684">
        <ele>478</ele>
        <time>1970-01-01T04:13:21.000Z</time>
      </trkpt>
      <trkpt lat="45.91245" lon="3.06682">
        <ele>478</ele>
        <time>1970-01-01T04:13:22.000Z</time>
      </trkpt>
      <trkpt lat="45.91242" lon="3.06681">
        <ele>478.2</ele>
        <time>1970-01-01T04:13:23.000Z</time>
      </trkpt>
      <trkpt lat="45.91242" lon="3.06681">
        <ele>478.2</ele>
        <time>1970-01-01T04:13:24.000Z</time>
      </trkpt>
      <trkpt lat="45.91241" lon="3.06681">
        <ele>478.3</ele>
        <time>1970-01-01T04:13:25.000Z</time>
      </trkpt>
      <trkpt lat="45.91239" lon="3.06681">
        <ele>478.5</ele>
        <time>1970-01-01T04:13:26.000Z</time>
      </trkpt>
      <trkpt lat="45.91238" lon="3.06681">
        <ele>478.8</ele>
        <time>1970-01-01T04:13:27.000Z</time>
      </trkpt>
      <trkpt lat="45.91236" lon="3.06681">
        <ele>478.9</ele>
        <time>1970-01-01T04:13:28.000Z</time>
      </trkpt>
      <trkpt lat="45.91234" lon="3.06681">
        <ele>479.1</ele>
        <time>1970-01-01T04:13:29.000Z</time>
      </trkpt>
      <trkpt lat="45.91233" lon="3.06681">
        <ele>479.2</ele>
        <time>1970-01-01T04:13:30.000Z</time>
      </trkpt>
      <trkpt lat="45.91232" lon="3.0668">
        <ele>479.2</ele>
        <time>1970-01-01T04:13:31.000Z</time>
      </trkpt>
      <trkpt lat="45.9123" lon="3.0668">
        <ele>479.5</ele>
        <time>1970-01-01T04:13:33.000Z</time>
      </trkpt>
      <trkpt lat="45.91228" lon="3.06679">
        <ele>479.9</ele>
        <time>1970-01-01T04:13:34.000Z</time>
      </trkpt>
      <trkpt lat="45.91227" lon="3.06679">
        <ele>479.9</ele>
        <time>1970-01-01T04:13:35.000Z</time>
      </trkpt>
      <trkpt lat="45.91226" lon="3.06678">
        <ele>480</ele>
        <time>1970-01-01T04:13:36.000Z</time>
      </trkpt>
      <trkpt lat="45.91223" lon="3.06678">
        <ele>480.4</ele>
        <time>1970-01-01T04:13:38.000Z</time>
      </trkpt>
      <trkpt lat="45.91222" lon="3.06678">
        <ele>480.8</ele>
        <time>1970-01-01T04:13:39.000Z</time>
      </trkpt>
      <trkpt lat="45.91221" lon="3.06678">
        <ele>480.8</ele>
        <time>1970-01-01T04:13:40.000Z</time>
      </trkpt>
      <trkpt lat="45.9122" lon="3.06678">
        <ele>480.9</ele>
        <time>1970-01-01T04:13:41.000Z</time>
      </trkpt>
      <trkpt lat="45.91219" lon="3.06678">
        <ele>481.3</ele>
        <time>1970-01-01T04:13:42.000Z</time>
      </trkpt>
      <trkpt lat="45.91217" lon="3.06677">
        <ele>481.2</ele>
        <time>1970-01-01T04:13:43.000Z</time>
      </trkpt>
      <trkpt lat="45.91216" lon="3.06677">
        <ele>481.6</ele>
        <time>1970-01-01T04:13:44.000Z</time>
      </trkpt>
      <trkpt lat="45.91215" lon="3.06676">
        <ele>481.6</ele>
        <time>1970-01-01T04:13:45.000Z</time>
      </trkpt>
      <trkpt lat="45.91213" lon="3.06677">
        <ele>482</ele>
        <time>1970-01-01T04:13:46.000Z</time>
      </trkpt>
      <trkpt lat="45.91213" lon="3.06677">
        <ele>482.1</ele>
        <time>1970-01-01T04:13:47.000Z</time>
      </trkpt>
      <trkpt lat="45.91212" lon="3.06677">
        <ele>482.1</ele>
        <time>1970-01-01T04:13:48.000Z</time>
      </trkpt>
      <trkpt lat="45.9121" lon="3.06677">
        <ele>482.5</ele>
        <time>1970-01-01T04:13:50.000Z</time>
      </trkpt>
      <trkpt lat="45.91208" lon="3.06677">
        <ele>482.6</ele>
        <time>1970-01-01T04:13:51.000Z</time>
      </trkpt>
      <trkpt lat="45.91207" lon="3.06677">
        <ele>483</ele>
        <time>1970-01-01T04:13:52.000Z</time>
      </trkpt>
      <trkpt lat="45.91206" lon="3.06677">
        <ele>483</ele>
        <time>1970-01-01T04:13:53.000Z</time>
      </trkpt>
      <trkpt lat="45.91204" lon="3.06677">
        <ele>483.5</ele>
        <time>1970-01-01T04:13:55.000Z</time>
      </trkpt>
      <trkpt lat="45.91202" lon="3.06677">
        <ele>483.9</ele>
        <time>1970-01-01T04:13:56.000Z</time>
      </trkpt>
      <trkpt lat="45.91201" lon="3.06676">
        <ele>484</ele>
        <time>1970-01-01T04:13:57.000Z</time>
      </trkpt>
      <trkpt lat="45.912" lon="3.06676">
        <ele>484.1</ele>
        <time>1970-01-01T04:13:58.000Z</time>
      </trkpt>
      <trkpt lat="45.91198" lon="3.06676">
        <ele>484.5</ele>
        <time>1970-01-01T04:13:59.000Z</time>
      </trkpt>
      <trkpt lat="45.91197" lon="3.06676">
        <ele>484.6</ele>
        <time>1970-01-01T04:14:00.000Z</time>
      </trkpt>
      <trkpt lat="45.91195" lon="3.06676">
        <ele>485.1</ele>
        <time>1970-01-01T04:14:01.000Z</time>
      </trkpt>
      <trkpt lat="45.91193" lon="3.06675">
        <ele>485.1</ele>
        <time>1970-01-01T04:14:03.000Z</time>
      </trkpt>
      <trkpt lat="45.91192" lon="3.06675">
        <ele>485.6</ele>
        <time>1970-01-01T04:14:04.000Z</time>
      </trkpt>
      <trkpt lat="45.91192" lon="3.06675">
        <ele>485.6</ele>
        <time>1970-01-01T04:14:05.000Z</time>
      </trkpt>
      <trkpt lat="45.91189" lon="3.06675">
        <ele>486.1</ele>
        <time>1970-01-01T04:14:06.000Z</time>
      </trkpt>
      <trkpt lat="45.91188" lon="3.06675">
        <ele>486.1</ele>
        <time>1970-01-01T04:14:08.000Z</time>
      </trkpt>
      <trkpt lat="45.91187" lon="3.06675">
        <ele>486.6</ele>
        <time>1970-01-01T04:14:09.000Z</time>
      </trkpt>
      <trkpt lat="45.91186" lon="3.06675">
        <ele>486.6</ele>
        <time>1970-01-01T04:14:10.000Z</time>
      </trkpt>
      <trkpt lat="45.91185" lon="3.06675">
        <ele>486.7</ele>
        <time>1970-01-01T04:14:11.000Z</time>
      </trkpt>
      <trkpt lat="45.91183" lon="3.06675">
        <ele>487.1</ele>
        <time>1970-01-01T04:14:13.000Z</time>
      </trkpt>
      <trkpt lat="45.91182" lon="3.06675">
        <ele>487.1</ele>
        <time>1970-01-01T04:14:14.000Z</time>
      </trkpt>
      <trkpt lat="45.9118" lon="3.06674">
        <ele>487.6</ele>
        <time>1970-01-01T04:14:16.000Z</time>
      </trkpt>
      <trkpt lat="45.91179" lon="3.06674">
        <ele>487.6</ele>
        <time>1970-01-01T04:14:17.000Z</time>
      </trkpt>
      <trkpt lat="45.91177" lon="3.06675">
        <ele>488</ele>
        <time>1970-01-01T04:14:18.000Z</time>
      </trkpt>
      <trkpt lat="45.91177" lon="3.06675">
        <ele>488</ele>
        <time>1970-01-01T04:14:19.000Z</time>
      </trkpt>
      <trkpt lat="45.91176" lon="3.06675">
        <ele>488.1</ele>
        <time>1970-01-01T04:14:20.000Z</time>
      </trkpt>
      <trkpt lat="45.91174" lon="3.06674">
        <ele>488.5</ele>
        <time>1970-01-01T04:14:21.000Z</time>
      </trkpt>
      <trkpt lat="45.91172" lon="3.06673">
        <ele>488.9</ele>
        <time>1970-01-01T04:14:23.000Z</time>
      </trkpt>
      <trkpt lat="45.91171" lon="3.06673">
        <ele>488.7</ele>
        <time>1970-01-01T04:14:24.000Z</time>
      </trkpt>
      <trkpt lat="45.9117" lon="3.06673">
        <ele>489</ele>
        <time>1970-01-01T04:14:25.000Z</time>
      </trkpt>
      <trkpt lat="45.91169" lon="3.06673">
        <ele>489.4</ele>
        <time>1970-01-01T04:14:26.000Z</time>
      </trkpt>
      <trkpt lat="45.91167" lon="3.06673">
        <ele>489.4</ele>
        <time>1970-01-01T04:14:27.000Z</time>
      </trkpt>
      <trkpt lat="45.91165" lon="3.06672">
        <ele>489.5</ele>
        <time>1970-01-01T04:14:28.000Z</time>
      </trkpt>
      <trkpt lat="45.91164" lon="3.06672">
        <ele>489.6</ele>
        <time>1970-01-01T04:14:30.000Z</time>
      </trkpt>
      <trkpt lat="45.91162" lon="3.06672">
        <ele>490</ele>
        <time>1970-01-01T04:14:31.000Z</time>
      </trkpt>
      <trkpt lat="45.91161" lon="3.06672">
        <ele>490</ele>
        <time>1970-01-01T04:14:32.000Z</time>
      </trkpt>
      <trkpt lat="45.91161" lon="3.06672">
        <ele>490.1</ele>
        <time>1970-01-01T04:14:33.000Z</time>
      </trkpt>
      <trkpt lat="45.91159" lon="3.06673">
        <ele>490.7</ele>
        <time>1970-01-01T04:14:34.000Z</time>
      </trkpt>
      <trkpt lat="45.91158" lon="3.06674">
        <ele>490.7</ele>
        <time>1970-01-01T04:14:35.000Z</time>
      </trkpt>
      <trkpt lat="45.91156" lon="3.06674">
        <ele>491.1</ele>
        <time>1970-01-01T04:14:36.000Z</time>
      </trkpt>
      <trkpt lat="45.91155" lon="3.06674">
        <ele>491.1</ele>
        <time>1970-01-01T04:14:38.000Z</time>
      </trkpt>
      <trkpt lat="45.91152" lon="3.06676">
        <ele>491.4</ele>
        <time>1970-01-01T04:14:40.000Z</time>
      </trkpt>
      <trkpt lat="45.91151" lon="3.06678">
        <ele>492</ele>
        <time>1970-01-01T04:14:41.000Z</time>
      </trkpt>
      <trkpt lat="45.9115" lon="3.06679">
        <ele>492.1</ele>
        <time>1970-01-01T04:14:42.000Z</time>
      </trkpt>
      <trkpt lat="45.91148" lon="3.06681">
        <ele>492.1</ele>
        <time>1970-01-01T04:14:43.000Z</time>
      </trkpt>
      <trkpt lat="45.91147" lon="3.06682">
        <ele>492.8</ele>
        <time>1970-01-01T04:14:45.000Z</time>
      </trkpt>
      <trkpt lat="45.91146" lon="3.06684">
        <ele>492.8</ele>
        <time>1970-01-01T04:14:46.000Z</time>
      </trkpt>
      <trkpt lat="45.91146" lon="3.06687">
        <ele>492.8</ele>
        <time>1970-01-01T04:14:48.000Z</time>
      </trkpt>
      <trkpt lat="45.91146" lon="3.06689">
        <ele>492.8</ele>
        <time>1970-01-01T04:14:49.000Z</time>
      </trkpt>
      <trkpt lat="45.91146" lon="3.06692">
        <ele>492.8</ele>
        <time>1970-01-01T04:14:50.000Z</time>
      </trkpt>
      <trkpt lat="45.91145" lon="3.06694">
        <ele>492.8</ele>
        <time>1970-01-01T04:14:51.000Z</time>
      </trkpt>
      <trkpt lat="45.91145" lon="3.06696">
        <ele>492.8</ele>
        <time>1970-01-01T04:14:52.000Z</time>
      </trkpt>
      <trkpt lat="45.91145" lon="3.06697">
        <ele>492.8</ele>
        <time>1970-01-01T04:14:53.000Z</time>
      </trkpt>
      <trkpt lat="45.91144" lon="3.067">
        <ele>492.8</ele>
        <time>1970-01-01T04:14:54.000Z</time>
      </trkpt>
      <trkpt lat="45.91144" lon="3.06702">
        <ele>492.8</ele>
        <time>1970-01-01T04:14:55.000Z</time>
      </trkpt>
      <trkpt lat="45.91144" lon="3.06703">
        <ele>492.8</ele>
        <time>1970-01-01T04:14:56.000Z</time>
      </trkpt>
      <trkpt lat="45.91144" lon="3.06706">
        <ele>492.8</ele>
        <time>1970-01-01T04:14:57.000Z</time>
      </trkpt>
      <trkpt lat="45.91144" lon="3.06708">
        <ele>492.8</ele>
        <time>1970-01-01T04:14:58.000Z</time>
      </trkpt>
      <trkpt lat="45.91144" lon="3.06709">
        <ele>492.8</ele>
        <time>1970-01-01T04:14:59.000Z</time>
      </trkpt>
      <trkpt lat="45.91143" lon="3.06711">
        <ele>492.8</ele>
        <time>1970-01-01T04:15:00.000Z</time>
      </trkpt>
      <trkpt lat="45.91143" lon="3.06714">
        <ele>492.8</ele>
        <time>1970-01-01T04:15:01.000Z</time>
      </trkpt>
      <trkpt lat="45.91143" lon="3.06718">
        <ele>492.9</ele>
        <time>1970-01-01T04:15:02.000Z</time>
      </trkpt>
      <trkpt lat="45.91143" lon="3.06719">
        <ele>492.9</ele>
        <time>1970-01-01T04:15:03.000Z</time>
      </trkpt>
      <trkpt lat="45.91143" lon="3.06721">
        <ele>492.9</ele>
        <time>1970-01-01T04:15:04.000Z</time>
      </trkpt>
      <trkpt lat="45.91143" lon="3.06724">
        <ele>492.9</ele>
        <time>1970-01-01T04:15:05.000Z</time>
      </trkpt>
      <trkpt lat="45.91143" lon="3.06727">
        <ele>492.9</ele>
        <time>1970-01-01T04:15:06.000Z</time>
      </trkpt>
      <trkpt lat="45.91143" lon="3.06729">
        <ele>492.9</ele>
        <time>1970-01-01T04:15:07.000Z</time>
      </trkpt>
      <trkpt lat="45.91143" lon="3.06733">
        <ele>492.9</ele>
        <time>1970-01-01T04:15:08.000Z</time>
      </trkpt>
      <trkpt lat="45.91143" lon="3.06735">
        <ele>492.9</ele>
        <time>1970-01-01T04:15:09.000Z</time>
      </trkpt>
      <trkpt lat="45.91143" lon="3.0674">
        <ele>492.9</ele>
        <time>1970-01-01T04:15:10.000Z</time>
      </trkpt>
      <trkpt lat="45.91143" lon="3.06742">
        <ele>492.9</ele>
        <time>1970-01-01T04:15:11.000Z</time>
      </trkpt>
      <trkpt lat="45.91143" lon="3.06745">
        <ele>492.9</ele>
        <time>1970-01-01T04:15:12.000Z</time>
      </trkpt>
      <trkpt lat="45.91142" lon="3.06749">
        <ele>492.9</ele>
        <time>1970-01-01T04:15:14.000Z</time>
      </trkpt>
      <trkpt lat="45.91141" lon="3.06754">
        <ele>492.9</ele>
        <time>1970-01-01T04:15:15.000Z</time>
      </trkpt>
      <trkpt lat="45.9114" lon="3.06756">
        <ele>492.9</ele>
        <time>1970-01-01T04:15:16.000Z</time>
      </trkpt>
      <trkpt lat="45.91137" lon="3.06759">
        <ele>493</ele>
        <time>1970-01-01T04:15:17.000Z</time>
      </trkpt>
      <trkpt lat="45.91136" lon="3.0676">
        <ele>493</ele>
        <time>1970-01-01T04:15:18.000Z</time>
      </trkpt>
      <trkpt lat="45.91132" lon="3.06762">
        <ele>493</ele>
        <time>1970-01-01T04:15:20.000Z</time>
      </trkpt>
      <trkpt lat="45.9113" lon="3.06762">
        <ele>493</ele>
        <time>1970-01-01T04:15:21.000Z</time>
      </trkpt>
      <trkpt lat="45.91129" lon="3.06762">
        <ele>493</ele>
        <time>1970-01-01T04:15:22.000Z</time>
      </trkpt>
      <trkpt lat="45.91126" lon="3.06762">
        <ele>493</ele>
        <time>1970-01-01T04:15:24.000Z</time>
      </trkpt>
      <trkpt lat="45.91123" lon="3.06761">
        <ele>493</ele>
        <time>1970-01-01T04:15:25.000Z</time>
      </trkpt>
      <trkpt lat="45.9112" lon="3.06761">
        <ele>493</ele>
        <time>1970-01-01T04:15:27.000Z</time>
      </trkpt>
      <trkpt lat="45.91119" lon="3.06761">
        <ele>493</ele>
        <time>1970-01-01T04:15:28.000Z</time>
      </trkpt>
      <trkpt lat="45.91117" lon="3.06762">
        <ele>493</ele>
        <time>1970-01-01T04:15:29.000Z</time>
      </trkpt>
      <trkpt lat="45.91116" lon="3.06762">
        <ele>493</ele>
        <time>1970-01-01T04:15:30.000Z</time>
      </trkpt>
      <trkpt lat="45.91114" lon="3.06761">
        <ele>493</ele>
        <time>1970-01-01T04:15:31.000Z</time>
      </trkpt>
      <trkpt lat="45.91113" lon="3.06761">
        <ele>493</ele>
        <time>1970-01-01T04:15:32.000Z</time>
      </trkpt>
      <trkpt lat="45.91111" lon="3.06762">
        <ele>493.1</ele>
        <time>1970-01-01T04:15:33.000Z</time>
      </trkpt>
      <trkpt lat="45.9111" lon="3.06762">
        <ele>493.1</ele>
        <time>1970-01-01T04:15:34.000Z</time>
      </trkpt>
      <trkpt lat="45.91109" lon="3.06761">
        <ele>493.1</ele>
        <time>1970-01-01T04:15:35.000Z</time>
      </trkpt>
      <trkpt lat="45.91107" lon="3.06761">
        <ele>493.3</ele>
        <time>1970-01-01T04:15:36.000Z</time>
      </trkpt>
      <trkpt lat="45.91105" lon="3.0676">
        <ele>493.5</ele>
        <time>1970-01-01T04:15:37.000Z</time>
      </trkpt>
      <trkpt lat="45.91103" lon="3.06759">
        <ele>493.9</ele>
        <time>1970-01-01T04:15:39.000Z</time>
      </trkpt>
      <trkpt lat="45.91101" lon="3.06758">
        <ele>494.1</ele>
        <time>1970-01-01T04:15:40.000Z</time>
      </trkpt>
      <trkpt lat="45.91099" lon="3.06758">
        <ele>494.3</ele>
        <time>1970-01-01T04:15:41.000Z</time>
      </trkpt>
      <trkpt lat="45.91096" lon="3.06757">
        <ele>494.7</ele>
        <time>1970-01-01T04:15:42.000Z</time>
      </trkpt>
      <trkpt lat="45.91095" lon="3.06757">
        <ele>494.8</ele>
        <time>1970-01-01T04:15:43.000Z</time>
      </trkpt>
      <trkpt lat="45.91091" lon="3.06756">
        <ele>495.2</ele>
        <time>1970-01-01T04:15:45.000Z</time>
      </trkpt>
      <trkpt lat="45.9109" lon="3.06756">
        <ele>495.3</ele>
        <time>1970-01-01T04:15:46.000Z</time>
      </trkpt>
      <trkpt lat="45.91086" lon="3.06755">
        <ele>495.7</ele>
        <time>1970-01-01T04:15:48.000Z</time>
      </trkpt>
      <trkpt lat="45.91083" lon="3.06753">
        <ele>496</ele>
        <time>1970-01-01T04:15:49.000Z</time>
      </trkpt>
      <trkpt lat="45.91081" lon="3.06753">
        <ele>496.1</ele>
        <time>1970-01-01T04:15:50.000Z</time>
      </trkpt>
      <trkpt lat="45.91078" lon="3.06753">
        <ele>497.5</ele>
        <time>1970-01-01T04:15:51.000Z</time>
      </trkpt>
      <trkpt lat="45.91076" lon="3.06753">
        <ele>497.7</ele>
        <time>1970-01-01T04:15:52.000Z</time>
      </trkpt>
      <trkpt lat="45.91073" lon="3.06756">
        <ele>498</ele>
        <time>1970-01-01T04:15:53.000Z</time>
      </trkpt>
      <trkpt lat="45.91072" lon="3.06756">
        <ele>498.1</ele>
        <time>1970-01-01T04:15:54.000Z</time>
      </trkpt>
      <trkpt lat="45.91069" lon="3.06759">
        <ele>498.4</ele>
        <time>1970-01-01T04:15:55.000Z</time>
      </trkpt>
      <trkpt lat="45.91069" lon="3.0676">
        <ele>498.4</ele>
        <time>1970-01-01T04:15:56.000Z</time>
      </trkpt>
      <trkpt lat="45.91067" lon="3.06765">
        <ele>498.7</ele>
        <time>1970-01-01T04:15:58.000Z</time>
      </trkpt>
      <trkpt lat="45.91068" lon="3.06767">
        <ele>498.9</ele>
        <time>1970-01-01T04:15:59.000Z</time>
      </trkpt>
      <trkpt lat="45.91067" lon="3.0677">
        <ele>499</ele>
        <time>1970-01-01T04:16:00.000Z</time>
      </trkpt>
      <trkpt lat="45.91067" lon="3.06772">
        <ele>499.1</ele>
        <time>1970-01-01T04:16:01.000Z</time>
      </trkpt>
      <trkpt lat="45.91067" lon="3.06774">
        <ele>499.2</ele>
        <time>1970-01-01T04:16:02.000Z</time>
      </trkpt>
      <trkpt lat="45.91066" lon="3.06777">
        <ele>499.4</ele>
        <time>1970-01-01T04:16:03.000Z</time>
      </trkpt>
      <trkpt lat="45.91066" lon="3.06779">
        <ele>499.5</ele>
        <time>1970-01-01T04:16:04.000Z</time>
      </trkpt>
      <trkpt lat="45.91065" lon="3.06783">
        <ele>499.7</ele>
        <time>1970-01-01T04:16:05.000Z</time>
      </trkpt>
      <trkpt lat="45.91065" lon="3.06785">
        <ele>499.8</ele>
        <time>1970-01-01T04:16:06.000Z</time>
      </trkpt>
      <trkpt lat="45.91064" lon="3.06788">
        <ele>499.9</ele>
        <time>1970-01-01T04:16:07.000Z</time>
      </trkpt>
      <trkpt lat="45.91063" lon="3.06789">
        <ele>500</ele>
        <time>1970-01-01T04:16:08.000Z</time>
      </trkpt>
      <trkpt lat="45.91062" lon="3.06793">
        <ele>500.2</ele>
        <time>1970-01-01T04:16:10.000Z</time>
      </trkpt>
      <trkpt lat="45.91062" lon="3.06795">
        <ele>500.2</ele>
        <time>1970-01-01T04:16:11.000Z</time>
      </trkpt>
      <trkpt lat="45.91061" lon="3.068">
        <ele>500.4</ele>
        <time>1970-01-01T04:16:12.000Z</time>
      </trkpt>
      <trkpt lat="45.91063" lon="3.06805">
        <ele>500.6</ele>
        <time>1970-01-01T04:16:14.000Z</time>
      </trkpt>
      <trkpt lat="45.91064" lon="3.06807">
        <ele>500.6</ele>
        <time>1970-01-01T04:16:15.000Z</time>
      </trkpt>
      <trkpt lat="45.91065" lon="3.06808">
        <ele>500.7</ele>
        <time>1970-01-01T04:16:16.000Z</time>
      </trkpt>
      <trkpt lat="45.91067" lon="3.06811">
        <ele>500.8</ele>
        <time>1970-01-01T04:16:17.000Z</time>
      </trkpt>
      <trkpt lat="45.91067" lon="3.06812">
        <ele>500.8</ele>
        <time>1970-01-01T04:16:18.000Z</time>
      </trkpt>
      <trkpt lat="45.91069" lon="3.06815">
        <ele>500.9</ele>
        <time>1970-01-01T04:16:19.000Z</time>
      </trkpt>
      <trkpt lat="45.91069" lon="3.06817">
        <ele>500.9</ele>
        <time>1970-01-01T04:16:20.000Z</time>
      </trkpt>
      <trkpt lat="45.91069" lon="3.06821">
        <ele>501</ele>
        <time>1970-01-01T04:16:21.000Z</time>
      </trkpt>
      <trkpt lat="45.91069" lon="3.06822">
        <ele>501</ele>
        <time>1970-01-01T04:16:22.000Z</time>
      </trkpt>
      <trkpt lat="45.91068" lon="3.06826">
        <ele>501.1</ele>
        <time>1970-01-01T04:16:23.000Z</time>
      </trkpt>
      <trkpt lat="45.91067" lon="3.06827">
        <ele>501.1</ele>
        <time>1970-01-01T04:16:24.000Z</time>
      </trkpt>
      <trkpt lat="45.91065" lon="3.06831">
        <ele>501.1</ele>
        <time>1970-01-01T04:16:25.000Z</time>
      </trkpt>
      <trkpt lat="45.91064" lon="3.06833">
        <ele>501.1</ele>
        <time>1970-01-01T04:16:26.000Z</time>
      </trkpt>
      <trkpt lat="45.91064" lon="3.06835">
        <ele>501.1</ele>
        <time>1970-01-01T04:16:27.000Z</time>
      </trkpt>
      <trkpt lat="45.91063" lon="3.06837">
        <ele>501.1</ele>
        <time>1970-01-01T04:16:28.000Z</time>
      </trkpt>
      <trkpt lat="45.91061" lon="3.0684">
        <ele>501.1</ele>
        <time>1970-01-01T04:16:29.000Z</time>
      </trkpt>
      <trkpt lat="45.91061" lon="3.06842">
        <ele>501.1</ele>
        <time>1970-01-01T04:16:30.000Z</time>
      </trkpt>
      <trkpt lat="45.9106" lon="3.06848">
        <ele>500.9</ele>
        <time>1970-01-01T04:16:32.000Z</time>
      </trkpt>
      <trkpt lat="45.91059" lon="3.06851">
        <ele>500.8</ele>
        <time>1970-01-01T04:16:33.000Z</time>
      </trkpt>
      <trkpt lat="45.91059" lon="3.06856">
        <ele>500.6</ele>
        <time>1970-01-01T04:16:34.000Z</time>
      </trkpt>
      <trkpt lat="45.9106" lon="3.06861">
        <ele>500.3</ele>
        <time>1970-01-01T04:16:35.000Z</time>
      </trkpt>
      <trkpt lat="45.9106" lon="3.06862">
        <ele>500.2</ele>
        <time>1970-01-01T04:16:36.000Z</time>
      </trkpt>
      <trkpt lat="45.9106" lon="3.06866">
        <ele>500</ele>
        <time>1970-01-01T04:16:37.000Z</time>
      </trkpt>
      <trkpt lat="45.91059" lon="3.06872">
        <ele>499.6</ele>
        <time>1970-01-01T04:16:39.000Z</time>
      </trkpt>
      <trkpt lat="45.91056" lon="3.06877">
        <ele>499</ele>
        <time>1970-01-01T04:16:40.000Z</time>
      </trkpt>
      <trkpt lat="45.91047" lon="3.06882">
        <ele>497.9</ele>
        <time>1970-01-01T04:16:42.000Z</time>
      </trkpt>
      <trkpt lat="45.91043" lon="3.06886">
        <ele>497.4</ele>
        <time>1970-01-01T04:16:43.000Z</time>
      </trkpt>
      <trkpt lat="45.91037" lon="3.06889">
        <ele>496.7</ele>
        <time>1970-01-01T04:16:44.000Z</time>
      </trkpt>
      <trkpt lat="45.91031" lon="3.06893">
        <ele>496</ele>
        <time>1970-01-01T04:16:45.000Z</time>
      </trkpt>
      <trkpt lat="45.91025" lon="3.06896">
        <ele>495.4</ele>
        <time>1970-01-01T04:16:46.000Z</time>
      </trkpt>
      <trkpt lat="45.9102" lon="3.06899">
        <ele>494.8</ele>
        <time>1970-01-01T04:16:47.000Z</time>
      </trkpt>
      <trkpt lat="45.91015" lon="3.069">
        <ele>494.3</ele>
        <time>1970-01-01T04:16:48.000Z</time>
      </trkpt>
      <trkpt lat="45.91011" lon="3.06902">
        <ele>493.8</ele>
        <time>1970-01-01T04:16:49.000Z</time>
      </trkpt>
      <trkpt lat="45.91009" lon="3.06906">
        <ele>493.3</ele>
        <time>1970-01-01T04:16:50.000Z</time>
      </trkpt>
      <trkpt lat="45.91009" lon="3.0691">
        <ele>493</ele>
        <time>1970-01-01T04:16:51.000Z</time>
      </trkpt>
      <trkpt lat="45.91001" lon="3.06925">
        <ele>491.3</ele>
        <time>1970-01-01T04:16:53.000Z</time>
      </trkpt>
      <trkpt lat="45.90997" lon="3.06932">
        <ele>490.5</ele>
        <time>1970-01-01T04:16:54.000Z</time>
      </trkpt>
      <trkpt lat="45.90992" lon="3.06939">
        <ele>489.7</ele>
        <time>1970-01-01T04:16:55.000Z</time>
      </trkpt>
      <trkpt lat="45.90987" lon="3.06946">
        <ele>489</ele>
        <time>1970-01-01T04:16:56.000Z</time>
      </trkpt>
      <trkpt lat="45.90984" lon="3.06953">
        <ele>488.4</ele>
        <time>1970-01-01T04:16:57.000Z</time>
      </trkpt>
      <trkpt lat="45.90983" lon="3.06962">
        <ele>487.8</ele>
        <time>1970-01-01T04:16:58.000Z</time>
      </trkpt>
      <trkpt lat="45.90981" lon="3.06972">
        <ele>487.1</ele>
        <time>1970-01-01T04:16:59.000Z</time>
      </trkpt>
      <trkpt lat="45.90979" lon="3.06981">
        <ele>486.5</ele>
        <time>1970-01-01T04:17:00.000Z</time>
      </trkpt>
      <trkpt lat="45.90978" lon="3.0699">
        <ele>485.9</ele>
        <time>1970-01-01T04:17:01.000Z</time>
      </trkpt>
      <trkpt lat="45.90978" lon="3.06998">
        <ele>485.5</ele>
        <time>1970-01-01T04:17:02.000Z</time>
      </trkpt>
      <trkpt lat="45.90978" lon="3.07006">
        <ele>485</ele>
        <time>1970-01-01T04:17:03.000Z</time>
      </trkpt>
      <trkpt lat="45.90978" lon="3.07015">
        <ele>484.6</ele>
        <time>1970-01-01T04:17:04.000Z</time>
      </trkpt>
      <trkpt lat="45.90976" lon="3.07023">
        <ele>484.2</ele>
        <time>1970-01-01T04:17:05.000Z</time>
      </trkpt>
      <trkpt lat="45.90975" lon="3.07031">
        <ele>483.8</ele>
        <time>1970-01-01T04:17:06.000Z</time>
      </trkpt>
      <trkpt lat="45.90972" lon="3.07038">
        <ele>483.4</ele>
        <time>1970-01-01T04:17:07.000Z</time>
      </trkpt>
      <trkpt lat="45.9097" lon="3.07044">
        <ele>483.1</ele>
        <time>1970-01-01T04:17:08.000Z</time>
      </trkpt>
      <trkpt lat="45.90968" lon="3.07047">
        <ele>482.8</ele>
        <time>1970-01-01T04:17:09.000Z</time>
      </trkpt>
      <trkpt lat="45.90966" lon="3.07054">
        <ele>482.4</ele>
        <time>1970-01-01T04:17:10.000Z</time>
      </trkpt>
      <trkpt lat="45.90965" lon="3.07059">
        <ele>482.1</ele>
        <time>1970-01-01T04:17:11.000Z</time>
      </trkpt>
      <trkpt lat="45.90963" lon="3.07065">
        <ele>481.8</ele>
        <time>1970-01-01T04:17:12.000Z</time>
      </trkpt>
      <trkpt lat="45.90963" lon="3.07067">
        <ele>481.6</ele>
        <time>1970-01-01T04:17:13.000Z</time>
      </trkpt>
      <trkpt lat="45.90963" lon="3.07072">
        <ele>481.4</ele>
        <time>1970-01-01T04:17:14.000Z</time>
      </trkpt>
      <trkpt lat="45.90963" lon="3.07075">
        <ele>481.2</ele>
        <time>1970-01-01T04:17:15.000Z</time>
      </trkpt>
      <trkpt lat="45.90964" lon="3.07077">
        <ele>481.1</ele>
        <time>1970-01-01T04:17:16.000Z</time>
      </trkpt>
      <trkpt lat="45.90969" lon="3.07077">
        <ele>480.7</ele>
        <time>1970-01-01T04:17:18.000Z</time>
      </trkpt>
      <trkpt lat="45.90972" lon="3.07074">
        <ele>480.5</ele>
        <time>1970-01-01T04:17:19.000Z</time>
      </trkpt>
      <trkpt lat="45.90972" lon="3.07073">
        <ele>480.5</ele>
        <time>1970-01-01T04:17:20.000Z</time>
      </trkpt>
      <trkpt lat="45.90974" lon="3.07072">
        <ele>480.4</ele>
        <time>1970-01-01T04:17:21.000Z</time>
      </trkpt>
      <trkpt lat="45.90975" lon="3.07072">
        <ele>480.3</ele>
        <time>1970-01-01T04:17:22.000Z</time>
      </trkpt>
      <trkpt lat="45.90976" lon="3.07071">
        <ele>480.2</ele>
        <time>1970-01-01T04:17:23.000Z</time>
      </trkpt>
      <trkpt lat="45.90976" lon="3.07071">
        <ele>480.2</ele>
        <time>1970-01-01T04:17:24.000Z</time>
      </trkpt>
      <trkpt lat="45.90976" lon="3.07071">
        <ele>480.2</ele>
        <time>1970-01-01T04:17:25.000Z</time>
      </trkpt>
      <trkpt lat="45.90975" lon="3.07071">
        <ele>480.2</ele>
        <time>1970-01-01T04:17:26.000Z</time>
      </trkpt>
      <trkpt lat="45.90975" lon="3.07071">
        <ele>480.1</ele>
        <time>1970-01-01T04:17:27.000Z</time>
      </trkpt>
      <trkpt lat="45.90975" lon="3.07071">
        <ele>480.1</ele>
        <time>1970-01-01T04:17:28.000Z</time>
      </trkpt>
      <trkpt lat="45.90975" lon="3.07071">
        <ele>480.1</ele>
        <time>1970-01-01T04:17:29.000Z</time>
      </trkpt>
      <trkpt lat="45.90975" lon="3.07071">
        <ele>480.1</ele>
        <time>1970-01-01T04:17:30.000Z</time>
      </trkpt>
      <trkpt lat="45.90975" lon="3.07071">
        <ele>480.1</ele>
        <time>1970-01-01T04:17:31.000Z</time>
      </trkpt>
      <trkpt lat="45.90975" lon="3.07071">
        <ele>480.1</ele>
        <time>1970-01-01T04:17:32.000Z</time>
      </trkpt>
      <trkpt lat="45.90975" lon="3.07071">
        <ele>480.1</ele>
        <time>1970-01-01T04:17:33.000Z</time>
      </trkpt>
      <trkpt lat="45.90979" lon="3.07071">
        <ele>479.9</ele>
        <time>1970-01-01T04:18:11.000Z</time>
      </trkpt>
      <trkpt lat="45.90981" lon="3.07071">
        <ele>479.7</ele>
        <time>1970-01-01T04:18:12.000Z</time>
      </trkpt>
      <trkpt lat="45.90983" lon="3.0707">
        <ele>479.6</ele>
        <time>1970-01-01T04:18:13.000Z</time>
      </trkpt>
      <trkpt lat="45.90985" lon="3.07069">
        <ele>479.4</ele>
        <time>1970-01-01T04:18:14.000Z</time>
      </trkpt>
      <trkpt lat="45.90987" lon="3.07069">
        <ele>479.3</ele>
        <time>1970-01-01T04:18:15.000Z</time>
      </trkpt>
      <trkpt lat="45.90989" lon="3.07069">
        <ele>479.1</ele>
        <time>1970-01-01T04:18:16.000Z</time>
      </trkpt>
      <trkpt lat="45.90993" lon="3.07069">
        <ele>478.8</ele>
        <time>1970-01-01T04:18:17.000Z</time>
      </trkpt>
      <trkpt lat="45.90994" lon="3.07069">
        <ele>478.7</ele>
        <time>1970-01-01T04:18:18.000Z</time>
      </trkpt>
      <trkpt lat="45.90996" lon="3.07074">
        <ele>478.3</ele>
        <time>1970-01-01T04:18:19.000Z</time>
      </trkpt>
      <trkpt lat="45.90997" lon="3.07079">
        <ele>478</ele>
        <time>1970-01-01T04:18:21.000Z</time>
      </trkpt>
      <trkpt lat="45.90997" lon="3.07085">
        <ele>477.6</ele>
        <time>1970-01-01T04:18:22.000Z</time>
      </trkpt>
      <trkpt lat="45.90996" lon="3.07091">
        <ele>477.2</ele>
        <time>1970-01-01T04:18:23.000Z</time>
      </trkpt>
      <trkpt lat="45.90996" lon="3.07096">
        <ele>476.8</ele>
        <time>1970-01-01T04:18:24.000Z</time>
      </trkpt>
      <trkpt lat="45.90995" lon="3.07103">
        <ele>476.3</ele>
        <time>1970-01-01T04:18:25.000Z</time>
      </trkpt>
      <trkpt lat="45.90992" lon="3.07111">
        <ele>475.5</ele>
        <time>1970-01-01T04:18:26.000Z</time>
      </trkpt>
      <trkpt lat="45.9099" lon="3.07118">
        <ele>474.9</ele>
        <time>1970-01-01T04:18:27.000Z</time>
      </trkpt>
      <trkpt lat="45.90989" lon="3.07123">
        <ele>474.3</ele>
        <time>1970-01-01T04:18:28.000Z</time>
      </trkpt>
      <trkpt lat="45.90989" lon="3.07129">
        <ele>473.8</ele>
        <time>1970-01-01T04:18:29.000Z</time>
      </trkpt>
      <trkpt lat="45.90992" lon="3.07134">
        <ele>473.2</ele>
        <time>1970-01-01T04:18:30.000Z</time>
      </trkpt>
      <trkpt lat="45.90997" lon="3.07145">
        <ele>472</ele>
        <time>1970-01-01T04:18:32.000Z</time>
      </trkpt>
      <trkpt lat="45.90999" lon="3.07153">
        <ele>471.2</ele>
        <time>1970-01-01T04:18:33.000Z</time>
      </trkpt>
      <trkpt lat="45.91001" lon="3.07162">
        <ele>470.3</ele>
        <time>1970-01-01T04:18:34.000Z</time>
      </trkpt>
      <trkpt lat="45.91002" lon="3.07169">
        <ele>469.4</ele>
        <time>1970-01-01T04:18:35.000Z</time>
      </trkpt>
      <trkpt lat="45.91004" lon="3.07173">
        <ele>469</ele>
        <time>1970-01-01T04:18:36.000Z</time>
      </trkpt>
      <trkpt lat="45.91004" lon="3.07178">
        <ele>468.4</ele>
        <time>1970-01-01T04:18:37.000Z</time>
      </trkpt>
      <trkpt lat="45.91003" lon="3.07187">
        <ele>467.3</ele>
        <time>1970-01-01T04:18:38.000Z</time>
      </trkpt>
      <trkpt lat="45.91003" lon="3.07195">
        <ele>466.5</ele>
        <time>1970-01-01T04:18:39.000Z</time>
      </trkpt>
      <trkpt lat="45.91005" lon="3.07202">
        <ele>465.7</ele>
        <time>1970-01-01T04:18:40.000Z</time>
      </trkpt>
      <trkpt lat="45.91009" lon="3.0721">
        <ele>464.8</ele>
        <time>1970-01-01T04:18:41.000Z</time>
      </trkpt>
      <trkpt lat="45.91014" lon="3.07217">
        <ele>464</ele>
        <time>1970-01-01T04:18:42.000Z</time>
      </trkpt>
      <trkpt lat="45.91016" lon="3.07225">
        <ele>463.4</ele>
        <time>1970-01-01T04:18:43.000Z</time>
      </trkpt>
      <trkpt lat="45.91018" lon="3.07234">
        <ele>462.7</ele>
        <time>1970-01-01T04:18:44.000Z</time>
      </trkpt>
      <trkpt lat="45.9102" lon="3.07243">
        <ele>462.1</ele>
        <time>1970-01-01T04:18:45.000Z</time>
      </trkpt>
      <trkpt lat="45.91019" lon="3.07249">
        <ele>461.7</ele>
        <time>1970-01-01T04:18:46.000Z</time>
      </trkpt>
      <trkpt lat="45.91017" lon="3.07255">
        <ele>461.4</ele>
        <time>1970-01-01T04:18:47.000Z</time>
      </trkpt>
      <trkpt lat="45.91017" lon="3.0726">
        <ele>461.1</ele>
        <time>1970-01-01T04:18:48.000Z</time>
      </trkpt>
      <trkpt lat="45.91017" lon="3.07267">
        <ele>460.8</ele>
        <time>1970-01-01T04:18:49.000Z</time>
      </trkpt>
      <trkpt lat="45.9102" lon="3.07279">
        <ele>460.3</ele>
        <time>1970-01-01T04:18:51.000Z</time>
      </trkpt>
      <trkpt lat="45.91021" lon="3.07283">
        <ele>460.1</ele>
        <time>1970-01-01T04:18:52.000Z</time>
      </trkpt>
      <trkpt lat="45.91025" lon="3.07293">
        <ele>459.7</ele>
        <time>1970-01-01T04:18:53.000Z</time>
      </trkpt>
      <trkpt lat="45.91025" lon="3.07301">
        <ele>459.4</ele>
        <time>1970-01-01T04:18:54.000Z</time>
      </trkpt>
      <trkpt lat="45.91024" lon="3.07309">
        <ele>459.1</ele>
        <time>1970-01-01T04:18:55.000Z</time>
      </trkpt>
      <trkpt lat="45.91024" lon="3.07316">
        <ele>458.8</ele>
        <time>1970-01-01T04:18:56.000Z</time>
      </trkpt>
      <trkpt lat="45.91025" lon="3.07323">
        <ele>458.5</ele>
        <time>1970-01-01T04:18:57.000Z</time>
      </trkpt>
      <trkpt lat="45.91028" lon="3.07329">
        <ele>458.1</ele>
        <time>1970-01-01T04:18:58.000Z</time>
      </trkpt>
      <trkpt lat="45.91031" lon="3.07335">
        <ele>457.8</ele>
        <time>1970-01-01T04:18:59.000Z</time>
      </trkpt>
      <trkpt lat="45.91035" lon="3.07342">
        <ele>457.4</ele>
        <time>1970-01-01T04:19:00.000Z</time>
      </trkpt>
      <trkpt lat="45.91038" lon="3.07349">
        <ele>457</ele>
        <time>1970-01-01T04:19:01.000Z</time>
      </trkpt>
      <trkpt lat="45.91042" lon="3.07356">
        <ele>456.7</ele>
        <time>1970-01-01T04:19:02.000Z</time>
      </trkpt>
      <trkpt lat="45.91047" lon="3.07362">
        <ele>456.4</ele>
        <time>1970-01-01T04:19:03.000Z</time>
      </trkpt>
      <trkpt lat="45.91051" lon="3.07368">
        <ele>456.2</ele>
        <time>1970-01-01T04:19:04.000Z</time>
      </trkpt>
      <trkpt lat="45.91055" lon="3.07373">
        <ele>456</ele>
        <time>1970-01-01T04:19:05.000Z</time>
      </trkpt>
      <trkpt lat="45.91058" lon="3.07376">
        <ele>455.8</ele>
        <time>1970-01-01T04:19:06.000Z</time>
      </trkpt>
      <trkpt lat="45.9106" lon="3.07379">
        <ele>455.7</ele>
        <time>1970-01-01T04:19:07.000Z</time>
      </trkpt>
      <trkpt lat="45.91063" lon="3.07384">
        <ele>455.5</ele>
        <time>1970-01-01T04:19:08.000Z</time>
      </trkpt>
      <trkpt lat="45.91064" lon="3.07388">
        <ele>455.3</ele>
        <time>1970-01-01T04:19:09.000Z</time>
      </trkpt>
      <trkpt lat="45.91066" lon="3.07396">
        <ele>454.9</ele>
        <time>1970-01-01T04:19:10.000Z</time>
      </trkpt>
      <trkpt lat="45.91067" lon="3.07402">
        <ele>454.7</ele>
        <time>1970-01-01T04:19:11.000Z</time>
      </trkpt>
      <trkpt lat="45.91069" lon="3.07408">
        <ele>454.6</ele>
        <time>1970-01-01T04:19:12.000Z</time>
      </trkpt>
      <trkpt lat="45.9107" lon="3.07415">
        <ele>454.4</ele>
        <time>1970-01-01T04:19:13.000Z</time>
      </trkpt>
      <trkpt lat="45.9107" lon="3.07419">
        <ele>454.3</ele>
        <time>1970-01-01T04:19:14.000Z</time>
      </trkpt>
      <trkpt lat="45.9107" lon="3.07425">
        <ele>454.2</ele>
        <time>1970-01-01T04:19:15.000Z</time>
      </trkpt>
      <trkpt lat="45.91067" lon="3.07434">
        <ele>454.1</ele>
        <time>1970-01-01T04:19:17.000Z</time>
      </trkpt>
      <trkpt lat="45.91066" lon="3.0744">
        <ele>454</ele>
        <time>1970-01-01T04:19:18.000Z</time>
      </trkpt>
      <trkpt lat="45.91065" lon="3.07445">
        <ele>454</ele>
        <time>1970-01-01T04:19:19.000Z</time>
      </trkpt>
      <trkpt lat="45.91062" lon="3.07448">
        <ele>453.9</ele>
        <time>1970-01-01T04:19:20.000Z</time>
      </trkpt>
      <trkpt lat="45.9106" lon="3.07452">
        <ele>453.8</ele>
        <time>1970-01-01T04:19:21.000Z</time>
      </trkpt>
      <trkpt lat="45.91059" lon="3.07457">
        <ele>453.7</ele>
        <time>1970-01-01T04:19:22.000Z</time>
      </trkpt>
      <trkpt lat="45.91057" lon="3.07461">
        <ele>453.6</ele>
        <time>1970-01-01T04:19:23.000Z</time>
      </trkpt>
      <trkpt lat="45.91053" lon="3.07472">
        <ele>453.4</ele>
        <time>1970-01-01T04:19:25.000Z</time>
      </trkpt>
      <trkpt lat="45.91052" lon="3.07478">
        <ele>453.2</ele>
        <time>1970-01-01T04:19:26.000Z</time>
      </trkpt>
      <trkpt lat="45.91054" lon="3.07487">
        <ele>452.8</ele>
        <time>1970-01-01T04:19:27.000Z</time>
      </trkpt>
      <trkpt lat="45.91056" lon="3.07495">
        <ele>452.4</ele>
        <time>1970-01-01T04:19:28.000Z</time>
      </trkpt>
      <trkpt lat="45.91057" lon="3.07503">
        <ele>452.1</ele>
        <time>1970-01-01T04:19:29.000Z</time>
      </trkpt>
      <trkpt lat="45.91058" lon="3.07509">
        <ele>451.8</ele>
        <time>1970-01-01T04:19:30.000Z</time>
      </trkpt>
      <trkpt lat="45.91061" lon="3.07514">
        <ele>451.4</ele>
        <time>1970-01-01T04:19:31.000Z</time>
      </trkpt>
      <trkpt lat="45.91066" lon="3.0752">
        <ele>450.8</ele>
        <time>1970-01-01T04:19:32.000Z</time>
      </trkpt>
      <trkpt lat="45.91069" lon="3.07526">
        <ele>450.2</ele>
        <time>1970-01-01T04:19:33.000Z</time>
      </trkpt>
      <trkpt lat="45.91072" lon="3.0753">
        <ele>449.7</ele>
        <time>1970-01-01T04:19:34.000Z</time>
      </trkpt>
      <trkpt lat="45.91071" lon="3.07534">
        <ele>449.4</ele>
        <time>1970-01-01T04:19:35.000Z</time>
      </trkpt>
      <trkpt lat="45.91074" lon="3.07551">
        <ele>448.1</ele>
        <time>1970-01-01T04:19:37.000Z</time>
      </trkpt>
      <trkpt lat="45.91074" lon="3.0756">
        <ele>447.4</ele>
        <time>1970-01-01T04:19:38.000Z</time>
      </trkpt>
      <trkpt lat="45.91074" lon="3.07569">
        <ele>446.9</ele>
        <time>1970-01-01T04:19:39.000Z</time>
      </trkpt>
      <trkpt lat="45.91075" lon="3.07578">
        <ele>446.4</ele>
        <time>1970-01-01T04:19:40.000Z</time>
      </trkpt>
      <trkpt lat="45.91077" lon="3.07587">
        <ele>445.9</ele>
        <time>1970-01-01T04:19:41.000Z</time>
      </trkpt>
      <trkpt lat="45.91077" lon="3.07596">
        <ele>445.5</ele>
        <time>1970-01-01T04:19:42.000Z</time>
      </trkpt>
      <trkpt lat="45.91077" lon="3.07603">
        <ele>445.2</ele>
        <time>1970-01-01T04:19:43.000Z</time>
      </trkpt>
      <trkpt lat="45.91076" lon="3.07607">
        <ele>445</ele>
        <time>1970-01-01T04:19:44.000Z</time>
      </trkpt>
      <trkpt lat="45.9108" lon="3.07621">
        <ele>444.4</ele>
        <time>1970-01-01T04:19:46.000Z</time>
      </trkpt>
      <trkpt lat="45.9108" lon="3.07628">
        <ele>444.1</ele>
        <time>1970-01-01T04:19:47.000Z</time>
      </trkpt>
      <trkpt lat="45.9108" lon="3.07635">
        <ele>443.8</ele>
        <time>1970-01-01T04:19:48.000Z</time>
      </trkpt>
      <trkpt lat="45.91079" lon="3.07638">
        <ele>443.6</ele>
        <time>1970-01-01T04:19:49.000Z</time>
      </trkpt>
      <trkpt lat="45.91079" lon="3.07654">
        <ele>442.7</ele>
        <time>1970-01-01T04:19:51.000Z</time>
      </trkpt>
      <trkpt lat="45.91082" lon="3.07658">
        <ele>442.3</ele>
        <time>1970-01-01T04:19:52.000Z</time>
      </trkpt>
      <trkpt lat="45.91085" lon="3.07661">
        <ele>441.9</ele>
        <time>1970-01-01T04:19:53.000Z</time>
      </trkpt>
      <trkpt lat="45.91087" lon="3.07665">
        <ele>441.5</ele>
        <time>1970-01-01T04:19:54.000Z</time>
      </trkpt>
      <trkpt lat="45.91088" lon="3.07675">
        <ele>440.8</ele>
        <time>1970-01-01T04:19:56.000Z</time>
      </trkpt>
      <trkpt lat="45.91087" lon="3.0768">
        <ele>440.4</ele>
        <time>1970-01-01T04:19:57.000Z</time>
      </trkpt>
      <trkpt lat="45.91093" lon="3.07685">
        <ele>439.8</ele>
        <time>1970-01-01T04:19:58.000Z</time>
      </trkpt>
      <trkpt lat="45.91096" lon="3.0769">
        <ele>439.3</ele>
        <time>1970-01-01T04:19:59.000Z</time>
      </trkpt>
      <trkpt lat="45.91098" lon="3.07697">
        <ele>438.9</ele>
        <time>1970-01-01T04:20:00.000Z</time>
      </trkpt>
      <trkpt lat="45.91099" lon="3.07704">
        <ele>438.5</ele>
        <time>1970-01-01T04:20:01.000Z</time>
      </trkpt>
      <trkpt lat="45.91101" lon="3.07712">
        <ele>438.1</ele>
        <time>1970-01-01T04:20:02.000Z</time>
      </trkpt>
      <trkpt lat="45.91104" lon="3.07717">
        <ele>437.7</ele>
        <time>1970-01-01T04:20:03.000Z</time>
      </trkpt>
      <trkpt lat="45.91107" lon="3.07722">
        <ele>437.4</ele>
        <time>1970-01-01T04:20:04.000Z</time>
      </trkpt>
      <trkpt lat="45.91108" lon="3.07726">
        <ele>437.1</ele>
        <time>1970-01-01T04:20:05.000Z</time>
      </trkpt>
      <trkpt lat="45.91109" lon="3.07731">
        <ele>436.8</ele>
        <time>1970-01-01T04:20:06.000Z</time>
      </trkpt>
      <trkpt lat="45.91109" lon="3.07738">
        <ele>436.2</ele>
        <time>1970-01-01T04:20:07.000Z</time>
      </trkpt>
      <trkpt lat="45.91107" lon="3.07744">
        <ele>435.8</ele>
        <time>1970-01-01T04:20:08.000Z</time>
      </trkpt>
      <trkpt lat="45.91105" lon="3.07748">
        <ele>435.4</ele>
        <time>1970-01-01T04:20:09.000Z</time>
      </trkpt>
      <trkpt lat="45.91104" lon="3.07752">
        <ele>435</ele>
        <time>1970-01-01T04:20:10.000Z</time>
      </trkpt>
      <trkpt lat="45.911" lon="3.07766">
        <ele>433.7</ele>
        <time>1970-01-01T04:20:12.000Z</time>
      </trkpt>
      <trkpt lat="45.91099" lon="3.07773">
        <ele>433.2</ele>
        <time>1970-01-01T04:20:13.000Z</time>
      </trkpt>
      <trkpt lat="45.91102" lon="3.07777">
        <ele>432.8</ele>
        <time>1970-01-01T04:20:14.000Z</time>
      </trkpt>
      <trkpt lat="45.91102" lon="3.07778">
        <ele>432.7</ele>
        <time>1970-01-01T04:20:15.000Z</time>
      </trkpt>
      <trkpt lat="45.91101" lon="3.07785">
        <ele>432.3</ele>
        <time>1970-01-01T04:20:17.000Z</time>
      </trkpt>
      <trkpt lat="45.91099" lon="3.07788">
        <ele>431.9</ele>
        <time>1970-01-01T04:20:18.000Z</time>
      </trkpt>
      <trkpt lat="45.911" lon="3.07792">
        <ele>431.6</ele>
        <time>1970-01-01T04:20:19.000Z</time>
      </trkpt>
      <trkpt lat="45.91101" lon="3.07793">
        <ele>431.5</ele>
        <time>1970-01-01T04:20:20.000Z</time>
      </trkpt>
      <trkpt lat="45.91102" lon="3.07798">
        <ele>431.2</ele>
        <time>1970-01-01T04:20:21.000Z</time>
      </trkpt>
      <trkpt lat="45.91103" lon="3.07803">
        <ele>430.8</ele>
        <time>1970-01-01T04:20:22.000Z</time>
      </trkpt>
      <trkpt lat="45.91103" lon="3.07812">
        <ele>430.1</ele>
        <time>1970-01-01T04:20:24.000Z</time>
      </trkpt>
      <trkpt lat="45.91104" lon="3.07822">
        <ele>429.7</ele>
        <time>1970-01-01T04:20:25.000Z</time>
      </trkpt>
      <trkpt lat="45.91107" lon="3.07829">
        <ele>429</ele>
        <time>1970-01-01T04:20:26.000Z</time>
      </trkpt>
      <trkpt lat="45.91111" lon="3.07834">
        <ele>428.4</ele>
        <time>1970-01-01T04:20:27.000Z</time>
      </trkpt>
      <trkpt lat="45.91114" lon="3.07842">
        <ele>427.8</ele>
        <time>1970-01-01T04:20:28.000Z</time>
      </trkpt>
      <trkpt lat="45.91115" lon="3.07846">
        <ele>427.4</ele>
        <time>1970-01-01T04:20:29.000Z</time>
      </trkpt>
      <trkpt lat="45.91116" lon="3.07854">
        <ele>426.8</ele>
        <time>1970-01-01T04:20:30.000Z</time>
      </trkpt>
      <trkpt lat="45.91116" lon="3.07863">
        <ele>426.2</ele>
        <time>1970-01-01T04:20:31.000Z</time>
      </trkpt>
      <trkpt lat="45.91116" lon="3.07871">
        <ele>425.7</ele>
        <time>1970-01-01T04:20:32.000Z</time>
      </trkpt>
      <trkpt lat="45.91116" lon="3.07879">
        <ele>425.2</ele>
        <time>1970-01-01T04:20:33.000Z</time>
      </trkpt>
      <trkpt lat="45.91117" lon="3.07887">
        <ele>424.8</ele>
        <time>1970-01-01T04:20:34.000Z</time>
      </trkpt>
      <trkpt lat="45.91116" lon="3.07894">
        <ele>424.4</ele>
        <time>1970-01-01T04:20:35.000Z</time>
      </trkpt>
      <trkpt lat="45.91113" lon="3.07902">
        <ele>424</ele>
        <time>1970-01-01T04:20:36.000Z</time>
      </trkpt>
      <trkpt lat="45.91111" lon="3.07908">
        <ele>423.6</ele>
        <time>1970-01-01T04:20:37.000Z</time>
      </trkpt>
      <trkpt lat="45.91109" lon="3.07909">
        <ele>423.5</ele>
        <time>1970-01-01T04:20:38.000Z</time>
      </trkpt>
      <trkpt lat="45.91103" lon="3.07911">
        <ele>423</ele>
        <time>1970-01-01T04:20:40.000Z</time>
      </trkpt>
      <trkpt lat="45.911" lon="3.07921">
        <ele>422.2</ele>
        <time>1970-01-01T04:20:41.000Z</time>
      </trkpt>
      <trkpt lat="45.91101" lon="3.07929">
        <ele>421.7</ele>
        <time>1970-01-01T04:20:42.000Z</time>
      </trkpt>
      <trkpt lat="45.91103" lon="3.07937">
        <ele>421</ele>
        <time>1970-01-01T04:20:43.000Z</time>
      </trkpt>
      <trkpt lat="45.91104" lon="3.07944">
        <ele>420.3</ele>
        <time>1970-01-01T04:20:44.000Z</time>
      </trkpt>
      <trkpt lat="45.91104" lon="3.07951">
        <ele>419.7</ele>
        <time>1970-01-01T04:20:45.000Z</time>
      </trkpt>
      <trkpt lat="45.91105" lon="3.07958">
        <ele>419</ele>
        <time>1970-01-01T04:20:46.000Z</time>
      </trkpt>
      <trkpt lat="45.91105" lon="3.07965">
        <ele>418.4</ele>
        <time>1970-01-01T04:20:47.000Z</time>
      </trkpt>
      <trkpt lat="45.91105" lon="3.07974">
        <ele>417.6</ele>
        <time>1970-01-01T04:20:48.000Z</time>
      </trkpt>
      <trkpt lat="45.91104" lon="3.07984">
        <ele>416.7</ele>
        <time>1970-01-01T04:20:49.000Z</time>
      </trkpt>
      <trkpt lat="45.91102" lon="3.07994">
        <ele>415.8</ele>
        <time>1970-01-01T04:20:50.000Z</time>
      </trkpt>
      <trkpt lat="45.91102" lon="3.08004">
        <ele>415</ele>
        <time>1970-01-01T04:20:51.000Z</time>
      </trkpt>
      <trkpt lat="45.91102" lon="3.08014">
        <ele>414.2</ele>
        <time>1970-01-01T04:20:52.000Z</time>
      </trkpt>
      <trkpt lat="45.91103" lon="3.08024">
        <ele>413.5</ele>
        <time>1970-01-01T04:20:53.000Z</time>
      </trkpt>
      <trkpt lat="45.91103" lon="3.08034">
        <ele>412.8</ele>
        <time>1970-01-01T04:20:54.000Z</time>
      </trkpt>
      <trkpt lat="45.91103" lon="3.08044">
        <ele>412.1</ele>
        <time>1970-01-01T04:20:55.000Z</time>
      </trkpt>
      <trkpt lat="45.91103" lon="3.08055">
        <ele>411.5</ele>
        <time>1970-01-01T04:20:56.000Z</time>
      </trkpt>
      <trkpt lat="45.91103" lon="3.08065">
        <ele>410.9</ele>
        <time>1970-01-01T04:20:57.000Z</time>
      </trkpt>
      <trkpt lat="45.91104" lon="3.08076">
        <ele>410.4</ele>
        <time>1970-01-01T04:20:58.000Z</time>
      </trkpt>
      <trkpt lat="45.91105" lon="3.08086">
        <ele>410</ele>
        <time>1970-01-01T04:20:59.000Z</time>
      </trkpt>
      <trkpt lat="45.91106" lon="3.08093">
        <ele>409.7</ele>
        <time>1970-01-01T04:21:00.000Z</time>
      </trkpt>
      <trkpt lat="45.91107" lon="3.081">
        <ele>409.4</ele>
        <time>1970-01-01T04:21:01.000Z</time>
      </trkpt>
      <trkpt lat="45.91108" lon="3.08105">
        <ele>409.2</ele>
        <time>1970-01-01T04:21:02.000Z</time>
      </trkpt>
      <trkpt lat="45.91111" lon="3.08112">
        <ele>408.8</ele>
        <time>1970-01-01T04:21:03.000Z</time>
      </trkpt>
      <trkpt lat="45.91115" lon="3.08116">
        <ele>408.5</ele>
        <time>1970-01-01T04:21:04.000Z</time>
      </trkpt>
      <trkpt lat="45.91119" lon="3.08115">
        <ele>408.2</ele>
        <time>1970-01-01T04:21:05.000Z</time>
      </trkpt>
      <trkpt lat="45.91123" lon="3.08114">
        <ele>407.9</ele>
        <time>1970-01-01T04:21:06.000Z</time>
      </trkpt>
      <trkpt lat="45.91129" lon="3.08112">
        <ele>407.3</ele>
        <time>1970-01-01T04:21:07.000Z</time>
      </trkpt>
      <trkpt lat="45.91135" lon="3.08108">
        <ele>406.6</ele>
        <time>1970-01-01T04:21:08.000Z</time>
      </trkpt>
      <trkpt lat="45.9114" lon="3.08105">
        <ele>405.8</ele>
        <time>1970-01-01T04:21:09.000Z</time>
      </trkpt>
      <trkpt lat="45.91145" lon="3.08101">
        <ele>405.1</ele>
        <time>1970-01-01T04:21:10.000Z</time>
      </trkpt>
      <trkpt lat="45.9115" lon="3.08099">
        <ele>404.4</ele>
        <time>1970-01-01T04:21:11.000Z</time>
      </trkpt>
      <trkpt lat="45.91154" lon="3.08097">
        <ele>403.9</ele>
        <time>1970-01-01T04:21:12.000Z</time>
      </trkpt>
      <trkpt lat="45.91161" lon="3.08094">
        <ele>401.4</ele>
        <time>1970-01-01T04:21:13.000Z</time>
      </trkpt>
      <trkpt lat="45.91168" lon="3.08087">
        <ele>401.2</ele>
        <time>1970-01-01T04:21:14.000Z</time>
      </trkpt>
      <trkpt lat="45.91173" lon="3.08079">
        <ele>401</ele>
        <time>1970-01-01T04:21:15.000Z</time>
      </trkpt>
      <trkpt lat="45.91178" lon="3.0807">
        <ele>400.8</ele>
        <time>1970-01-01T04:21:16.000Z</time>
      </trkpt>
      <trkpt lat="45.91182" lon="3.08062">
        <ele>400.6</ele>
        <time>1970-01-01T04:21:17.000Z</time>
      </trkpt>
      <trkpt lat="45.91186" lon="3.08053">
        <ele>400.5</ele>
        <time>1970-01-01T04:21:18.000Z</time>
      </trkpt>
      <trkpt lat="45.9119" lon="3.08045">
        <ele>400.4</ele>
        <time>1970-01-01T04:21:19.000Z</time>
      </trkpt>
      <trkpt lat="45.91194" lon="3.08036">
        <ele>400.2</ele>
        <time>1970-01-01T04:21:20.000Z</time>
      </trkpt>
      <trkpt lat="45.91198" lon="3.08028">
        <ele>400.1</ele>
        <time>1970-01-01T04:21:21.000Z</time>
      </trkpt>
      <trkpt lat="45.91202" lon="3.0802">
        <ele>399.9</ele>
        <time>1970-01-01T04:21:22.000Z</time>
      </trkpt>
      <trkpt lat="45.91206" lon="3.08012">
        <ele>399.8</ele>
        <time>1970-01-01T04:21:23.000Z</time>
      </trkpt>
      <trkpt lat="45.9121" lon="3.08003">
        <ele>399.6</ele>
        <time>1970-01-01T04:21:24.000Z</time>
      </trkpt>
      <trkpt lat="45.91214" lon="3.07995">
        <ele>399.5</ele>
        <time>1970-01-01T04:21:25.000Z</time>
      </trkpt>
      <trkpt lat="45.91218" lon="3.07987">
        <ele>399.3</ele>
        <time>1970-01-01T04:21:26.000Z</time>
      </trkpt>
      <trkpt lat="45.91222" lon="3.07979">
        <ele>399.2</ele>
        <time>1970-01-01T04:21:27.000Z</time>
      </trkpt>
      <trkpt lat="45.91226" lon="3.0797">
        <ele>399.2</ele>
        <time>1970-01-01T04:21:28.000Z</time>
      </trkpt>
      <trkpt lat="45.9123" lon="3.07962">
        <ele>399.1</ele>
        <time>1970-01-01T04:21:29.000Z</time>
      </trkpt>
      <trkpt lat="45.91234" lon="3.07955">
        <ele>399.1</ele>
        <time>1970-01-01T04:21:30.000Z</time>
      </trkpt>
      <trkpt lat="45.91238" lon="3.07947">
        <ele>399.1</ele>
        <time>1970-01-01T04:21:31.000Z</time>
      </trkpt>
      <trkpt lat="45.91242" lon="3.0794">
        <ele>399</ele>
        <time>1970-01-01T04:21:32.000Z</time>
      </trkpt>
      <trkpt lat="45.91246" lon="3.07932">
        <ele>399</ele>
        <time>1970-01-01T04:21:33.000Z</time>
      </trkpt>
      <trkpt lat="45.9125" lon="3.07925">
        <ele>398.9</ele>
        <time>1970-01-01T04:21:34.000Z</time>
      </trkpt>
      <trkpt lat="45.91254" lon="3.07918">
        <ele>399</ele>
        <time>1970-01-01T04:21:35.000Z</time>
      </trkpt>
      <trkpt lat="45.91258" lon="3.07911">
        <ele>399</ele>
        <time>1970-01-01T04:21:36.000Z</time>
      </trkpt>
      <trkpt lat="45.91261" lon="3.07905">
        <ele>399.1</ele>
        <time>1970-01-01T04:21:37.000Z</time>
      </trkpt>
      <trkpt lat="45.91265" lon="3.07898">
        <ele>399.2</ele>
        <time>1970-01-01T04:21:38.000Z</time>
      </trkpt>
      <trkpt lat="45.91268" lon="3.07892">
        <ele>399.3</ele>
        <time>1970-01-01T04:21:39.000Z</time>
      </trkpt>
      <trkpt lat="45.91271" lon="3.07887">
        <ele>399.4</ele>
        <time>1970-01-01T04:21:40.000Z</time>
      </trkpt>
      <trkpt lat="45.91274" lon="3.07881">
        <ele>399.5</ele>
        <time>1970-01-01T04:21:41.000Z</time>
      </trkpt>
      <trkpt lat="45.91276" lon="3.07876">
        <ele>399.5</ele>
        <time>1970-01-01T04:21:42.000Z</time>
      </trkpt>
      <trkpt lat="45.91278" lon="3.07871">
        <ele>399.6</ele>
        <time>1970-01-01T04:21:43.000Z</time>
      </trkpt>
      <trkpt lat="45.91279" lon="3.07867">
        <ele>399.7</ele>
        <time>1970-01-01T04:21:44.000Z</time>
      </trkpt>
      <trkpt lat="45.91279" lon="3.0786">
        <ele>399.9</ele>
        <time>1970-01-01T04:21:45.000Z</time>
      </trkpt>
      <trkpt lat="45.91279" lon="3.07855">
        <ele>400</ele>
        <time>1970-01-01T04:21:46.000Z</time>
      </trkpt>
      <trkpt lat="45.91279" lon="3.07851">
        <ele>400.1</ele>
        <time>1970-01-01T04:21:47.000Z</time>
      </trkpt>
      <trkpt lat="45.91279" lon="3.07847">
        <ele>400.3</ele>
        <time>1970-01-01T04:21:48.000Z</time>
      </trkpt>
      <trkpt lat="45.91277" lon="3.07844">
        <ele>400.4</ele>
        <time>1970-01-01T04:21:49.000Z</time>
      </trkpt>
      <trkpt lat="45.91276" lon="3.07839">
        <ele>400.6</ele>
        <time>1970-01-01T04:21:50.000Z</time>
      </trkpt>
      <trkpt lat="45.91275" lon="3.07836">
        <ele>400.7</ele>
        <time>1970-01-01T04:21:51.000Z</time>
      </trkpt>
      <trkpt lat="45.91274" lon="3.07831">
        <ele>400.9</ele>
        <time>1970-01-01T04:21:52.000Z</time>
      </trkpt>
      <trkpt lat="45.91273" lon="3.07826">
        <ele>401.2</ele>
        <time>1970-01-01T04:21:54.000Z</time>
      </trkpt>
      <trkpt lat="45.91272" lon="3.07821">
        <ele>401.4</ele>
        <time>1970-01-01T04:21:55.000Z</time>
      </trkpt>
      <trkpt lat="45.9127" lon="3.07816">
        <ele>401.6</ele>
        <time>1970-01-01T04:21:56.000Z</time>
      </trkpt>
      <trkpt lat="45.91269" lon="3.0781">
        <ele>401.9</ele>
        <time>1970-01-01T04:21:57.000Z</time>
      </trkpt>
      <trkpt lat="45.91268" lon="3.07806">
        <ele>402.1</ele>
        <time>1970-01-01T04:21:59.000Z</time>
      </trkpt>
      <trkpt lat="45.91267" lon="3.07802">
        <ele>402.3</ele>
        <time>1970-01-01T04:22:00.000Z</time>
      </trkpt>
      <trkpt lat="45.91266" lon="3.07797">
        <ele>402.6</ele>
        <time>1970-01-01T04:22:01.000Z</time>
      </trkpt>
      <trkpt lat="45.91265" lon="3.07793">
        <ele>402.8</ele>
        <time>1970-01-01T04:22:02.000Z</time>
      </trkpt>
      <trkpt lat="45.91264" lon="3.07788">
        <ele>403</ele>
        <time>1970-01-01T04:22:03.000Z</time>
      </trkpt>
      <trkpt lat="45.91263" lon="3.07786">
        <ele>403.1</ele>
        <time>1970-01-01T04:22:04.000Z</time>
      </trkpt>
      <trkpt lat="45.91262" lon="3.07781">
        <ele>403.4</ele>
        <time>1970-01-01T04:22:06.000Z</time>
      </trkpt>
      <trkpt lat="45.91261" lon="3.07776">
        <ele>403.6</ele>
        <time>1970-01-01T04:22:07.000Z</time>
      </trkpt>
      <trkpt lat="45.91261" lon="3.07774">
        <ele>403.7</ele>
        <time>1970-01-01T04:22:08.000Z</time>
      </trkpt>
      <trkpt lat="45.9126" lon="3.0777">
        <ele>403.8</ele>
        <time>1970-01-01T04:22:09.000Z</time>
      </trkpt>
      <trkpt lat="45.91259" lon="3.07767">
        <ele>404</ele>
        <time>1970-01-01T04:22:10.000Z</time>
      </trkpt>
      <trkpt lat="45.91258" lon="3.07762">
        <ele>404.2</ele>
        <time>1970-01-01T04:22:12.000Z</time>
      </trkpt>
      <trkpt lat="45.91258" lon="3.07758">
        <ele>404.4</ele>
        <time>1970-01-01T04:22:13.000Z</time>
      </trkpt>
      <trkpt lat="45.91257" lon="3.07756">
        <ele>404.4</ele>
        <time>1970-01-01T04:22:14.000Z</time>
      </trkpt>
      <trkpt lat="45.91257" lon="3.07751">
        <ele>404.7</ele>
        <time>1970-01-01T04:22:15.000Z</time>
      </trkpt>
      <trkpt lat="45.91256" lon="3.0775">
        <ele>404.8</ele>
        <time>1970-01-01T04:22:16.000Z</time>
      </trkpt>
      <trkpt lat="45.91256" lon="3.07745">
        <ele>405</ele>
        <time>1970-01-01T04:22:17.000Z</time>
      </trkpt>
      <trkpt lat="45.91255" lon="3.07743">
        <ele>405.1</ele>
        <time>1970-01-01T04:22:18.000Z</time>
      </trkpt>
      <trkpt lat="45.91255" lon="3.07739">
        <ele>405.2</ele>
        <time>1970-01-01T04:22:19.000Z</time>
      </trkpt>
      <trkpt lat="45.91254" lon="3.07735">
        <ele>405.5</ele>
        <time>1970-01-01T04:22:20.000Z</time>
      </trkpt>
      <trkpt lat="45.91254" lon="3.07733">
        <ele>405.5</ele>
        <time>1970-01-01T04:22:21.000Z</time>
      </trkpt>
      <trkpt lat="45.91253" lon="3.07727">
        <ele>405.8</ele>
        <time>1970-01-01T04:22:23.000Z</time>
      </trkpt>
      <trkpt lat="45.91253" lon="3.07725">
        <ele>405.9</ele>
        <time>1970-01-01T04:22:24.000Z</time>
      </trkpt>
      <trkpt lat="45.91253" lon="3.07722">
        <ele>406</ele>
        <time>1970-01-01T04:22:25.000Z</time>
      </trkpt>
      <trkpt lat="45.91253" lon="3.0772">
        <ele>406.1</ele>
        <time>1970-01-01T04:22:26.000Z</time>
      </trkpt>
      <trkpt lat="45.91253" lon="3.07716">
        <ele>406.3</ele>
        <time>1970-01-01T04:22:28.000Z</time>
      </trkpt>
      <trkpt lat="45.91253" lon="3.07714">
        <ele>406.4</ele>
        <time>1970-01-01T04:22:29.000Z</time>
      </trkpt>
      <trkpt lat="45.91251" lon="3.0771">
        <ele>406.5</ele>
        <time>1970-01-01T04:22:30.000Z</time>
      </trkpt>
      <trkpt lat="45.91251" lon="3.07706">
        <ele>406.7</ele>
        <time>1970-01-01T04:22:31.000Z</time>
      </trkpt>
      <trkpt lat="45.9125" lon="3.07703">
        <ele>406.8</ele>
        <time>1970-01-01T04:22:33.000Z</time>
      </trkpt>
      <trkpt lat="45.91249" lon="3.07699">
        <ele>407</ele>
        <time>1970-01-01T04:22:34.000Z</time>
      </trkpt>
      <trkpt lat="45.91249" lon="3.07696">
        <ele>407.1</ele>
        <time>1970-01-01T04:22:35.000Z</time>
      </trkpt>
      <trkpt lat="45.91249" lon="3.07693">
        <ele>407.2</ele>
        <time>1970-01-01T04:22:37.000Z</time>
      </trkpt>
      <trkpt lat="45.9125" lon="3.07691">
        <ele>407.3</ele>
        <time>1970-01-01T04:22:38.000Z</time>
      </trkpt>
      <trkpt lat="45.91249" lon="3.07688">
        <ele>407.4</ele>
        <time>1970-01-01T04:22:39.000Z</time>
      </trkpt>
      <trkpt lat="45.91248" lon="3.07683">
        <ele>407.6</ele>
        <time>1970-01-01T04:22:40.000Z</time>
      </trkpt>
      <trkpt lat="45.91248" lon="3.07682">
        <ele>407.6</ele>
        <time>1970-01-01T04:22:41.000Z</time>
      </trkpt>
      <trkpt lat="45.91248" lon="3.07678">
        <ele>407.8</ele>
        <time>1970-01-01T04:22:42.000Z</time>
      </trkpt>
      <trkpt lat="45.91247" lon="3.07674">
        <ele>407.9</ele>
        <time>1970-01-01T04:22:44.000Z</time>
      </trkpt>
      <trkpt lat="45.91246" lon="3.07669">
        <ele>408.1</ele>
        <time>1970-01-01T04:22:45.000Z</time>
      </trkpt>
      <trkpt lat="45.91246" lon="3.07667">
        <ele>408.2</ele>
        <time>1970-01-01T04:22:46.000Z</time>
      </trkpt>
      <trkpt lat="45.91245" lon="3.07662">
        <ele>408.5</ele>
        <time>1970-01-01T04:22:48.000Z</time>
      </trkpt>
      <trkpt lat="45.91245" lon="3.07661">
        <ele>408.5</ele>
        <time>1970-01-01T04:22:49.000Z</time>
      </trkpt>
      <trkpt lat="45.91244" lon="3.07658">
        <ele>408.7</ele>
        <time>1970-01-01T04:22:50.000Z</time>
      </trkpt>
      <trkpt lat="45.91244" lon="3.07656">
        <ele>408.8</ele>
        <time>1970-01-01T04:22:51.000Z</time>
      </trkpt>
      <trkpt lat="45.91243" lon="3.07654">
        <ele>408.9</ele>
        <time>1970-01-01T04:22:52.000Z</time>
      </trkpt>
      <trkpt lat="45.91243" lon="3.07652">
        <ele>409</ele>
        <time>1970-01-01T04:22:53.000Z</time>
      </trkpt>
      <trkpt lat="45.91243" lon="3.0765">
        <ele>409.1</ele>
        <time>1970-01-01T04:22:54.000Z</time>
      </trkpt>
      <trkpt lat="45.91242" lon="3.07648">
        <ele>409.2</ele>
        <time>1970-01-01T04:22:55.000Z</time>
      </trkpt>
      <trkpt lat="45.91242" lon="3.07644">
        <ele>409.5</ele>
        <time>1970-01-01T04:22:56.000Z</time>
      </trkpt>
      <trkpt lat="45.91242" lon="3.07643">
        <ele>409.6</ele>
        <time>1970-01-01T04:22:57.000Z</time>
      </trkpt>
      <trkpt lat="45.91242" lon="3.07641">
        <ele>409.7</ele>
        <time>1970-01-01T04:22:58.000Z</time>
      </trkpt>
      <trkpt lat="45.91242" lon="3.07636">
        <ele>410</ele>
        <time>1970-01-01T04:23:00.000Z</time>
      </trkpt>
      <trkpt lat="45.91242" lon="3.07634">
        <ele>410.1</ele>
        <time>1970-01-01T04:23:01.000Z</time>
      </trkpt>
      <trkpt lat="45.91242" lon="3.0763">
        <ele>410.4</ele>
        <time>1970-01-01T04:23:03.000Z</time>
      </trkpt>
      <trkpt lat="45.91242" lon="3.07628">
        <ele>410.6</ele>
        <time>1970-01-01T04:23:04.000Z</time>
      </trkpt>
      <trkpt lat="45.91241" lon="3.07625">
        <ele>410.8</ele>
        <time>1970-01-01T04:23:05.000Z</time>
      </trkpt>
      <trkpt lat="45.91241" lon="3.07621">
        <ele>411.1</ele>
        <time>1970-01-01T04:23:06.000Z</time>
      </trkpt>
      <trkpt lat="45.91241" lon="3.0762">
        <ele>411.3</ele>
        <time>1970-01-01T04:23:07.000Z</time>
      </trkpt>
      <trkpt lat="45.9124" lon="3.07617">
        <ele>411.5</ele>
        <time>1970-01-01T04:23:09.000Z</time>
      </trkpt>
      <trkpt lat="45.9124" lon="3.07615">
        <ele>411.6</ele>
        <time>1970-01-01T04:23:10.000Z</time>
      </trkpt>
      <trkpt lat="45.9124" lon="3.07613">
        <ele>411.8</ele>
        <time>1970-01-01T04:23:11.000Z</time>
      </trkpt>
      <trkpt lat="45.9124" lon="3.07611">
        <ele>412</ele>
        <time>1970-01-01T04:23:12.000Z</time>
      </trkpt>
      <trkpt lat="45.9124" lon="3.07608">
        <ele>412.2</ele>
        <time>1970-01-01T04:23:13.000Z</time>
      </trkpt>
      <trkpt lat="45.9124" lon="3.07607">
        <ele>412.3</ele>
        <time>1970-01-01T04:23:14.000Z</time>
      </trkpt>
      <trkpt lat="45.9124" lon="3.07606">
        <ele>412.4</ele>
        <time>1970-01-01T04:23:15.000Z</time>
      </trkpt>
      <trkpt lat="45.91238" lon="3.07601">
        <ele>412.7</ele>
        <time>1970-01-01T04:23:17.000Z</time>
      </trkpt>
      <trkpt lat="45.91238" lon="3.07601">
        <ele>412.8</ele>
        <time>1970-01-01T04:23:18.000Z</time>
      </trkpt>
      <trkpt lat="45.91237" lon="3.07598">
        <ele>413</ele>
        <time>1970-01-01T04:23:19.000Z</time>
      </trkpt>
      <trkpt lat="45.91237" lon="3.07597">
        <ele>413.1</ele>
        <time>1970-01-01T04:23:20.000Z</time>
      </trkpt>
      <trkpt lat="45.91237" lon="3.07596">
        <ele>413.2</ele>
        <time>1970-01-01T04:23:21.000Z</time>
      </trkpt>
      <trkpt lat="45.91235" lon="3.07594">
        <ele>413.4</ele>
        <time>1970-01-01T04:23:22.000Z</time>
      </trkpt>
      <trkpt lat="45.91235" lon="3.07592">
        <ele>413.5</ele>
        <time>1970-01-01T04:23:23.000Z</time>
      </trkpt>
      <trkpt lat="45.91234" lon="3.07591">
        <ele>413.6</ele>
        <time>1970-01-01T04:23:24.000Z</time>
      </trkpt>
      <trkpt lat="45.91234" lon="3.07589">
        <ele>413.7</ele>
        <time>1970-01-01T04:23:25.000Z</time>
      </trkpt>
      <trkpt lat="45.91233" lon="3.07588">
        <ele>413.8</ele>
        <time>1970-01-01T04:23:26.000Z</time>
      </trkpt>
      <trkpt lat="45.91233" lon="3.07586">
        <ele>414</ele>
        <time>1970-01-01T04:23:27.000Z</time>
      </trkpt>
      <trkpt lat="45.91232" lon="3.07584">
        <ele>414.1</ele>
        <time>1970-01-01T04:23:28.000Z</time>
      </trkpt>
      <trkpt lat="45.91232" lon="3.07583">
        <ele>414.2</ele>
        <time>1970-01-01T04:23:29.000Z</time>
      </trkpt>
      <trkpt lat="45.91231" lon="3.0758">
        <ele>414.4</ele>
        <time>1970-01-01T04:23:30.000Z</time>
      </trkpt>
      <trkpt lat="45.91231" lon="3.07579">
        <ele>414.5</ele>
        <time>1970-01-01T04:23:31.000Z</time>
      </trkpt>
      <trkpt lat="45.91231" lon="3.07578">
        <ele>414.6</ele>
        <time>1970-01-01T04:23:32.000Z</time>
      </trkpt>
      <trkpt lat="45.9123" lon="3.07577">
        <ele>414.7</ele>
        <time>1970-01-01T04:23:33.000Z</time>
      </trkpt>
      <trkpt lat="45.9123" lon="3.07575">
        <ele>414.8</ele>
        <time>1970-01-01T04:23:34.000Z</time>
      </trkpt>
      <trkpt lat="45.9123" lon="3.07573">
        <ele>414.9</ele>
        <time>1970-01-01T04:23:35.000Z</time>
      </trkpt>
      <trkpt lat="45.91229" lon="3.07571">
        <ele>415.1</ele>
        <time>1970-01-01T04:23:36.000Z</time>
      </trkpt>
      <trkpt lat="45.91229" lon="3.0757">
        <ele>415.2</ele>
        <time>1970-01-01T04:23:37.000Z</time>
      </trkpt>
      <trkpt lat="45.91229" lon="3.07568">
        <ele>415.3</ele>
        <time>1970-01-01T04:23:38.000Z</time>
      </trkpt>
      <trkpt lat="45.91229" lon="3.07565">
        <ele>415.5</ele>
        <time>1970-01-01T04:23:39.000Z</time>
      </trkpt>
      <trkpt lat="45.91229" lon="3.07562">
        <ele>415.7</ele>
        <time>1970-01-01T04:23:41.000Z</time>
      </trkpt>
      <trkpt lat="45.91228" lon="3.0756">
        <ele>415.8</ele>
        <time>1970-01-01T04:23:42.000Z</time>
      </trkpt>
      <trkpt lat="45.91228" lon="3.07559">
        <ele>415.9</ele>
        <time>1970-01-01T04:23:43.000Z</time>
      </trkpt>
      <trkpt lat="45.91228" lon="3.07557">
        <ele>416.1</ele>
        <time>1970-01-01T04:23:44.000Z</time>
      </trkpt>
      <trkpt lat="45.91228" lon="3.07556">
        <ele>416.2</ele>
        <time>1970-01-01T04:23:45.000Z</time>
      </trkpt>
      <trkpt lat="45.91227" lon="3.07552">
        <ele>416.4</ele>
        <time>1970-01-01T04:23:46.000Z</time>
      </trkpt>
      <trkpt lat="45.91227" lon="3.07551">
        <ele>416.5</ele>
        <time>1970-01-01T04:23:47.000Z</time>
      </trkpt>
      <trkpt lat="45.91228" lon="3.07549">
        <ele>416.6</ele>
        <time>1970-01-01T04:23:48.000Z</time>
      </trkpt>
      <trkpt lat="45.91228" lon="3.07548">
        <ele>416.7</ele>
        <time>1970-01-01T04:23:49.000Z</time>
      </trkpt>
      <trkpt lat="45.91228" lon="3.07547">
        <ele>416.8</ele>
        <time>1970-01-01T04:23:50.000Z</time>
      </trkpt>
      <trkpt lat="45.91227" lon="3.07545">
        <ele>416.9</ele>
        <time>1970-01-01T04:23:51.000Z</time>
      </trkpt>
      <trkpt lat="45.91227" lon="3.07542">
        <ele>417.2</ele>
        <time>1970-01-01T04:23:52.000Z</time>
      </trkpt>
      <trkpt lat="45.91227" lon="3.07541">
        <ele>417.2</ele>
        <time>1970-01-01T04:23:53.000Z</time>
      </trkpt>
      <trkpt lat="45.91227" lon="3.0754">
        <ele>417.3</ele>
        <time>1970-01-01T04:23:54.000Z</time>
      </trkpt>
      <trkpt lat="45.91227" lon="3.07537">
        <ele>417.5</ele>
        <time>1970-01-01T04:23:55.000Z</time>
      </trkpt>
      <trkpt lat="45.91226" lon="3.07536">
        <ele>417.6</ele>
        <time>1970-01-01T04:23:56.000Z</time>
      </trkpt>
      <trkpt lat="45.91226" lon="3.07534">
        <ele>417.7</ele>
        <time>1970-01-01T04:23:57.000Z</time>
      </trkpt>
      <trkpt lat="45.91226" lon="3.07533">
        <ele>417.8</ele>
        <time>1970-01-01T04:23:58.000Z</time>
      </trkpt>
      <trkpt lat="45.91226" lon="3.07532">
        <ele>417.9</ele>
        <time>1970-01-01T04:23:59.000Z</time>
      </trkpt>
      <trkpt lat="45.91225" lon="3.0753">
        <ele>418</ele>
        <time>1970-01-01T04:24:00.000Z</time>
      </trkpt>
      <trkpt lat="45.91225" lon="3.07528">
        <ele>418.2</ele>
        <time>1970-01-01T04:24:01.000Z</time>
      </trkpt>
      <trkpt lat="45.91224" lon="3.07526">
        <ele>418.4</ele>
        <time>1970-01-01T04:24:02.000Z</time>
      </trkpt>
      <trkpt lat="45.91224" lon="3.07525">
        <ele>418.5</ele>
        <time>1970-01-01T04:24:03.000Z</time>
      </trkpt>
      <trkpt lat="45.91223" lon="3.07522">
        <ele>418.7</ele>
        <time>1970-01-01T04:24:05.000Z</time>
      </trkpt>
      <trkpt lat="45.91222" lon="3.0752">
        <ele>418.8</ele>
        <time>1970-01-01T04:24:06.000Z</time>
      </trkpt>
      <trkpt lat="45.91222" lon="3.07519">
        <ele>419</ele>
        <time>1970-01-01T04:24:07.000Z</time>
      </trkpt>
      <trkpt lat="45.91222" lon="3.07517">
        <ele>419.1</ele>
        <time>1970-01-01T04:24:08.000Z</time>
      </trkpt>
      <trkpt lat="45.91221" lon="3.07516">
        <ele>419.2</ele>
        <time>1970-01-01T04:24:09.000Z</time>
      </trkpt>
      <trkpt lat="45.9122" lon="3.07514">
        <ele>419.4</ele>
        <time>1970-01-01T04:24:10.000Z</time>
      </trkpt>
      <trkpt lat="45.9122" lon="3.07513">
        <ele>419.5</ele>
        <time>1970-01-01T04:24:11.000Z</time>
      </trkpt>
      <trkpt lat="45.91219" lon="3.0751">
        <ele>419.7</ele>
        <time>1970-01-01T04:24:12.000Z</time>
      </trkpt>
      <trkpt lat="45.91218" lon="3.0751">
        <ele>419.8</ele>
        <time>1970-01-01T04:24:13.000Z</time>
      </trkpt>
      <trkpt lat="45.91218" lon="3.07509">
        <ele>419.9</ele>
        <time>1970-01-01T04:24:14.000Z</time>
      </trkpt>
      <trkpt lat="45.91216" lon="3.07506">
        <ele>420.1</ele>
        <time>1970-01-01T04:24:15.000Z</time>
      </trkpt>
      <trkpt lat="45.91216" lon="3.07505">
        <ele>420.2</ele>
        <time>1970-01-01T04:24:16.000Z</time>
      </trkpt>
      <trkpt lat="45.91215" lon="3.07504">
        <ele>420.4</ele>
        <time>1970-01-01T04:24:17.000Z</time>
      </trkpt>
      <trkpt lat="45.91215" lon="3.07503">
        <ele>420.5</ele>
        <time>1970-01-01T04:24:18.000Z</time>
      </trkpt>
      <trkpt lat="45.91214" lon="3.07501">
        <ele>420.6</ele>
        <time>1970-01-01T04:24:19.000Z</time>
      </trkpt>
      <trkpt lat="45.91213" lon="3.075">
        <ele>420.8</ele>
        <time>1970-01-01T04:24:20.000Z</time>
      </trkpt>
      <trkpt lat="45.91213" lon="3.07499">
        <ele>420.9</ele>
        <time>1970-01-01T04:24:21.000Z</time>
      </trkpt>
      <trkpt lat="45.91212" lon="3.07497">
        <ele>421.1</ele>
        <time>1970-01-01T04:24:22.000Z</time>
      </trkpt>
      <trkpt lat="45.9121" lon="3.07495">
        <ele>421.3</ele>
        <time>1970-01-01T04:24:24.000Z</time>
      </trkpt>
      <trkpt lat="45.9121" lon="3.07493">
        <ele>421.5</ele>
        <time>1970-01-01T04:24:25.000Z</time>
      </trkpt>
      <trkpt lat="45.91209" lon="3.07491">
        <ele>421.6</ele>
        <time>1970-01-01T04:24:26.000Z</time>
      </trkpt>
      <trkpt lat="45.91208" lon="3.0749">
        <ele>421.8</ele>
        <time>1970-01-01T04:24:27.000Z</time>
      </trkpt>
      <trkpt lat="45.91207" lon="3.07487">
        <ele>422</ele>
        <time>1970-01-01T04:24:28.000Z</time>
      </trkpt>
      <trkpt lat="45.91207" lon="3.07486">
        <ele>422.1</ele>
        <time>1970-01-01T04:24:29.000Z</time>
      </trkpt>
      <trkpt lat="45.91206" lon="3.07485">
        <ele>422.2</ele>
        <time>1970-01-01T04:24:30.000Z</time>
      </trkpt>
      <trkpt lat="45.91206" lon="3.07484">
        <ele>422.3</ele>
        <time>1970-01-01T04:24:31.000Z</time>
      </trkpt>
      <trkpt lat="45.91205" lon="3.07482">
        <ele>422.5</ele>
        <time>1970-01-01T04:24:32.000Z</time>
      </trkpt>
      <trkpt lat="45.91204" lon="3.07481">
        <ele>422.6</ele>
        <time>1970-01-01T04:24:33.000Z</time>
      </trkpt>
      <trkpt lat="45.91203" lon="3.07479">
        <ele>422.8</ele>
        <time>1970-01-01T04:24:34.000Z</time>
      </trkpt>
      <trkpt lat="45.91202" lon="3.07476">
        <ele>423</ele>
        <time>1970-01-01T04:24:36.000Z</time>
      </trkpt>
      <trkpt lat="45.91201" lon="3.07474">
        <ele>423.2</ele>
        <time>1970-01-01T04:24:37.000Z</time>
      </trkpt>
      <trkpt lat="45.91201" lon="3.07473">
        <ele>423.2</ele>
        <time>1970-01-01T04:24:38.000Z</time>
      </trkpt>
      <trkpt lat="45.91201" lon="3.07472">
        <ele>423.3</ele>
        <time>1970-01-01T04:24:39.000Z</time>
      </trkpt>
      <trkpt lat="45.912" lon="3.07469">
        <ele>423.5</ele>
        <time>1970-01-01T04:24:40.000Z</time>
      </trkpt>
      <trkpt lat="45.912" lon="3.07467">
        <ele>423.6</ele>
        <time>1970-01-01T04:24:41.000Z</time>
      </trkpt>
      <trkpt lat="45.912" lon="3.07466">
        <ele>423.7</ele>
        <time>1970-01-01T04:24:42.000Z</time>
      </trkpt>
      <trkpt lat="45.91199" lon="3.07463">
        <ele>423.9</ele>
        <time>1970-01-01T04:24:44.000Z</time>
      </trkpt>
      <trkpt lat="45.91199" lon="3.07461">
        <ele>424.1</ele>
        <time>1970-01-01T04:24:45.000Z</time>
      </trkpt>
      <trkpt lat="45.91198" lon="3.0746">
        <ele>424.2</ele>
        <time>1970-01-01T04:24:46.000Z</time>
      </trkpt>
      <trkpt lat="45.91197" lon="3.07458">
        <ele>424.3</ele>
        <time>1970-01-01T04:24:47.000Z</time>
      </trkpt>
      <trkpt lat="45.91196" lon="3.07455">
        <ele>424.5</ele>
        <time>1970-01-01T04:24:48.000Z</time>
      </trkpt>
      <trkpt lat="45.91196" lon="3.07454">
        <ele>424.5</ele>
        <time>1970-01-01T04:24:49.000Z</time>
      </trkpt>
      <trkpt lat="45.91196" lon="3.07453">
        <ele>424.6</ele>
        <time>1970-01-01T04:24:50.000Z</time>
      </trkpt>
      <trkpt lat="45.91197" lon="3.0745">
        <ele>424.8</ele>
        <time>1970-01-01T04:24:51.000Z</time>
      </trkpt>
      <trkpt lat="45.91197" lon="3.07449">
        <ele>424.8</ele>
        <time>1970-01-01T04:24:52.000Z</time>
      </trkpt>
      <trkpt lat="45.91197" lon="3.07448">
        <ele>424.9</ele>
        <time>1970-01-01T04:24:53.000Z</time>
      </trkpt>
      <trkpt lat="45.91199" lon="3.07444">
        <ele>425.1</ele>
        <time>1970-01-01T04:24:54.000Z</time>
      </trkpt>
      <trkpt lat="45.91199" lon="3.07443">
        <ele>425.2</ele>
        <time>1970-01-01T04:24:55.000Z</time>
      </trkpt>
      <trkpt lat="45.91201" lon="3.07441">
        <ele>425.4</ele>
        <time>1970-01-01T04:24:57.000Z</time>
      </trkpt>
      <trkpt lat="45.91202" lon="3.0744">
        <ele>425.5</ele>
        <time>1970-01-01T04:24:58.000Z</time>
      </trkpt>
      <trkpt lat="45.91204" lon="3.0744">
        <ele>425.6</ele>
        <time>1970-01-01T04:24:59.000Z</time>
      </trkpt>
      <trkpt lat="45.91205" lon="3.07439">
        <ele>425.7</ele>
        <time>1970-01-01T04:25:00.000Z</time>
      </trkpt>
      <trkpt lat="45.91207" lon="3.07438">
        <ele>425.9</ele>
        <time>1970-01-01T04:25:01.000Z</time>
      </trkpt>
      <trkpt lat="45.91209" lon="3.07437">
        <ele>426</ele>
        <time>1970-01-01T04:25:02.000Z</time>
      </trkpt>
      <trkpt lat="45.9121" lon="3.07437">
        <ele>426</ele>
        <time>1970-01-01T04:25:03.000Z</time>
      </trkpt>
      <trkpt lat="45.91214" lon="3.07436">
        <ele>426.3</ele>
        <time>1970-01-01T04:25:05.000Z</time>
      </trkpt>
      <trkpt lat="45.91216" lon="3.07436">
        <ele>426.4</ele>
        <time>1970-01-01T04:25:06.000Z</time>
      </trkpt>
      <trkpt lat="45.91217" lon="3.07435">
        <ele>426.5</ele>
        <time>1970-01-01T04:25:07.000Z</time>
      </trkpt>
      <trkpt lat="45.91221" lon="3.07435">
        <ele>426.7</ele>
        <time>1970-01-01T04:25:08.000Z</time>
      </trkpt>
      <trkpt lat="45.91222" lon="3.07435">
        <ele>426.8</ele>
        <time>1970-01-01T04:25:09.000Z</time>
      </trkpt>
      <trkpt lat="45.91225" lon="3.07435">
        <ele>426.9</ele>
        <time>1970-01-01T04:25:10.000Z</time>
      </trkpt>
      <trkpt lat="45.91226" lon="3.07435">
        <ele>426.9</ele>
        <time>1970-01-01T04:25:11.000Z</time>
      </trkpt>
      <trkpt lat="45.91229" lon="3.07435">
        <ele>427.1</ele>
        <time>1970-01-01T04:25:13.000Z</time>
      </trkpt>
      <trkpt lat="45.9123" lon="3.07435">
        <ele>427.1</ele>
        <time>1970-01-01T04:25:14.000Z</time>
      </trkpt>
      <trkpt lat="45.91233" lon="3.07434">
        <ele>427.2</ele>
        <time>1970-01-01T04:25:15.000Z</time>
      </trkpt>
      <trkpt lat="45.91236" lon="3.07433">
        <ele>427.3</ele>
        <time>1970-01-01T04:25:16.000Z</time>
      </trkpt>
      <trkpt lat="45.9124" lon="3.07433">
        <ele>427.4</ele>
        <time>1970-01-01T04:25:18.000Z</time>
      </trkpt>
      <trkpt lat="45.91244" lon="3.07432">
        <ele>427.5</ele>
        <time>1970-01-01T04:25:19.000Z</time>
      </trkpt>
      <trkpt lat="45.91245" lon="3.07432">
        <ele>427.5</ele>
        <time>1970-01-01T04:25:20.000Z</time>
      </trkpt>
      <trkpt lat="45.91249" lon="3.07431">
        <ele>427.6</ele>
        <time>1970-01-01T04:25:21.000Z</time>
      </trkpt>
      <trkpt lat="45.9125" lon="3.07431">
        <ele>427.7</ele>
        <time>1970-01-01T04:25:22.000Z</time>
      </trkpt>
      <trkpt lat="45.91254" lon="3.07432">
        <ele>427.8</ele>
        <time>1970-01-01T04:25:23.000Z</time>
      </trkpt>
      <trkpt lat="45.91255" lon="3.07432">
        <ele>427.8</ele>
        <time>1970-01-01T04:25:24.000Z</time>
      </trkpt>
      <trkpt lat="45.91259" lon="3.07432">
        <ele>427.9</ele>
        <time>1970-01-01T04:25:26.000Z</time>
      </trkpt>
      <trkpt lat="45.91263" lon="3.07432">
        <ele>428.1</ele>
        <time>1970-01-01T04:25:27.000Z</time>
      </trkpt>
      <trkpt lat="45.91265" lon="3.07432">
        <ele>428.1</ele>
        <time>1970-01-01T04:25:28.000Z</time>
      </trkpt>
      <trkpt lat="45.9127" lon="3.07434">
        <ele>428.3</ele>
        <time>1970-01-01T04:25:29.000Z</time>
      </trkpt>
      <trkpt lat="45.91274" lon="3.07434">
        <ele>428.5</ele>
        <time>1970-01-01T04:25:31.000Z</time>
      </trkpt>
      <trkpt lat="45.91276" lon="3.07433">
        <ele>428.6</ele>
        <time>1970-01-01T04:25:32.000Z</time>
      </trkpt>
      <trkpt lat="45.91277" lon="3.07432">
        <ele>428.7</ele>
        <time>1970-01-01T04:25:33.000Z</time>
      </trkpt>
      <trkpt lat="45.9128" lon="3.0743">
        <ele>428.9</ele>
        <time>1970-01-01T04:25:35.000Z</time>
      </trkpt>
      <trkpt lat="45.9128" lon="3.0743">
        <ele>429</ele>
        <time>1970-01-01T04:25:36.000Z</time>
      </trkpt>
      <trkpt lat="45.91281" lon="3.07428">
        <ele>429.1</ele>
        <time>1970-01-01T04:25:37.000Z</time>
      </trkpt>
      <trkpt lat="45.91282" lon="3.07427">
        <ele>429.2</ele>
        <time>1970-01-01T04:25:38.000Z</time>
      </trkpt>
      <trkpt lat="45.91284" lon="3.07425">
        <ele>429.4</ele>
        <time>1970-01-01T04:25:39.000Z</time>
      </trkpt>
      <trkpt lat="45.91285" lon="3.07424">
        <ele>429.5</ele>
        <time>1970-01-01T04:25:40.000Z</time>
      </trkpt>
      <trkpt lat="45.91286" lon="3.07423">
        <ele>429.7</ele>
        <time>1970-01-01T04:25:41.000Z</time>
      </trkpt>
      <trkpt lat="45.91287" lon="3.0742">
        <ele>430</ele>
        <time>1970-01-01T04:25:43.000Z</time>
      </trkpt>
      <trkpt lat="45.91289" lon="3.07417">
        <ele>430.2</ele>
        <time>1970-01-01T04:25:44.000Z</time>
      </trkpt>
      <trkpt lat="45.91289" lon="3.07417">
        <ele>430.4</ele>
        <time>1970-01-01T04:25:45.000Z</time>
      </trkpt>
      <trkpt lat="45.9129" lon="3.07416">
        <ele>430.5</ele>
        <time>1970-01-01T04:25:46.000Z</time>
      </trkpt>
      <trkpt lat="45.91293" lon="3.07415">
        <ele>431</ele>
        <time>1970-01-01T04:25:48.000Z</time>
      </trkpt>
      <trkpt lat="45.91294" lon="3.07416">
        <ele>431</ele>
        <time>1970-01-01T04:25:49.000Z</time>
      </trkpt>
      <trkpt lat="45.91296" lon="3.07417">
        <ele>431.4</ele>
        <time>1970-01-01T04:25:50.000Z</time>
      </trkpt>
      <trkpt lat="45.91297" lon="3.07417">
        <ele>431.5</ele>
        <time>1970-01-01T04:25:51.000Z</time>
      </trkpt>
      <trkpt lat="45.91298" lon="3.07417">
        <ele>431.7</ele>
        <time>1970-01-01T04:25:52.000Z</time>
      </trkpt>
      <trkpt lat="45.91299" lon="3.07418">
        <ele>431.7</ele>
        <time>1970-01-01T04:25:53.000Z</time>
      </trkpt>
      <trkpt lat="45.913" lon="3.07418">
        <ele>431.7</ele>
        <time>1970-01-01T04:25:54.000Z</time>
      </trkpt>
      <trkpt lat="45.91303" lon="3.07419">
        <ele>431.5</ele>
        <time>1970-01-01T04:25:56.000Z</time>
      </trkpt>
      <trkpt lat="45.91305" lon="3.07419">
        <ele>431.2</ele>
        <time>1970-01-01T04:25:57.000Z</time>
      </trkpt>
      <trkpt lat="45.91307" lon="3.07419">
        <ele>431</ele>
        <time>1970-01-01T04:25:58.000Z</time>
      </trkpt>
      <trkpt lat="45.91309" lon="3.0742">
        <ele>430.3</ele>
        <time>1970-01-01T04:25:59.000Z</time>
      </trkpt>
      <trkpt lat="45.91311" lon="3.0742">
        <ele>430.3</ele>
        <time>1970-01-01T04:26:00.000Z</time>
      </trkpt>
      <trkpt lat="45.91313" lon="3.0742">
        <ele>430.1</ele>
        <time>1970-01-01T04:26:02.000Z</time>
      </trkpt>
      <trkpt lat="45.91316" lon="3.0742">
        <ele>429.8</ele>
        <time>1970-01-01T04:26:03.000Z</time>
      </trkpt>
      <trkpt lat="45.91317" lon="3.0742">
        <ele>429.8</ele>
        <time>1970-01-01T04:26:04.000Z</time>
      </trkpt>
      <trkpt lat="45.9132" lon="3.07422">
        <ele>429.6</ele>
        <time>1970-01-01T04:26:05.000Z</time>
      </trkpt>
      <trkpt lat="45.91321" lon="3.07422">
        <ele>429.6</ele>
        <time>1970-01-01T04:26:06.000Z</time>
      </trkpt>
      <trkpt lat="45.91324" lon="3.0742">
        <ele>429.4</ele>
        <time>1970-01-01T04:26:07.000Z</time>
      </trkpt>
      <trkpt lat="45.91325" lon="3.0742">
        <ele>429.1</ele>
        <time>1970-01-01T04:26:08.000Z</time>
      </trkpt>
      <trkpt lat="45.91328" lon="3.07419">
        <ele>429.2</ele>
        <time>1970-01-01T04:26:09.000Z</time>
      </trkpt>
      <trkpt lat="45.91329" lon="3.07419">
        <ele>429.2</ele>
        <time>1970-01-01T04:26:10.000Z</time>
      </trkpt>
      <trkpt lat="45.91333" lon="3.07418">
        <ele>428.9</ele>
        <time>1970-01-01T04:26:11.000Z</time>
      </trkpt>
      <trkpt lat="45.91334" lon="3.07417">
        <ele>428.6</ele>
        <time>1970-01-01T04:26:12.000Z</time>
      </trkpt>
      <trkpt lat="45.91337" lon="3.07416">
        <ele>428.3</ele>
        <time>1970-01-01T04:26:14.000Z</time>
      </trkpt>
      <trkpt lat="45.91341" lon="3.07418">
        <ele>428</ele>
        <time>1970-01-01T04:26:15.000Z</time>
      </trkpt>
      <trkpt lat="45.91343" lon="3.0742">
        <ele>427.8</ele>
        <time>1970-01-01T04:26:17.000Z</time>
      </trkpt>
      <trkpt lat="45.91344" lon="3.07423">
        <ele>427.4</ele>
        <time>1970-01-01T04:26:18.000Z</time>
      </trkpt>
      <trkpt lat="45.91346" lon="3.07429">
        <ele>426.5</ele>
        <time>1970-01-01T04:26:19.000Z</time>
      </trkpt>
      <trkpt lat="45.9135" lon="3.07429">
        <ele>426.2</ele>
        <time>1970-01-01T04:26:21.000Z</time>
      </trkpt>
      <trkpt lat="45.91353" lon="3.07428">
        <ele>426.3</ele>
        <time>1970-01-01T04:26:22.000Z</time>
      </trkpt>
      <trkpt lat="45.91357" lon="3.07428">
        <ele>426</ele>
        <time>1970-01-01T04:26:23.000Z</time>
      </trkpt>
      <trkpt lat="45.91363" lon="3.07432">
        <ele>425</ele>
        <time>1970-01-01T04:26:25.000Z</time>
      </trkpt>
      <trkpt lat="45.91366" lon="3.07434">
        <ele>424.3</ele>
        <time>1970-01-01T04:26:26.000Z</time>
      </trkpt>
      <trkpt lat="45.9137" lon="3.07435">
        <ele>423.7</ele>
        <time>1970-01-01T04:26:27.000Z</time>
      </trkpt>
      <trkpt lat="45.91376" lon="3.07437">
        <ele>423.2</ele>
        <time>1970-01-01T04:26:28.000Z</time>
      </trkpt>
      <trkpt lat="45.91379" lon="3.07438">
        <ele>422.6</ele>
        <time>1970-01-01T04:26:29.000Z</time>
      </trkpt>
      <trkpt lat="45.91385" lon="3.0744">
        <ele>422</ele>
        <time>1970-01-01T04:26:30.000Z</time>
      </trkpt>
      <trkpt lat="45.91391" lon="3.07442">
        <ele>421.1</ele>
        <time>1970-01-01T04:26:31.000Z</time>
      </trkpt>
      <trkpt lat="45.91397" lon="3.07443">
        <ele>420.6</ele>
        <time>1970-01-01T04:26:32.000Z</time>
      </trkpt>
      <trkpt lat="45.91402" lon="3.07444">
        <ele>420.4</ele>
        <time>1970-01-01T04:26:33.000Z</time>
      </trkpt>
      <trkpt lat="45.91407" lon="3.07445">
        <ele>420</ele>
        <time>1970-01-01T04:26:34.000Z</time>
      </trkpt>
      <trkpt lat="45.91412" lon="3.07445">
        <ele>419.5</ele>
        <time>1970-01-01T04:26:35.000Z</time>
      </trkpt>
      <trkpt lat="45.91418" lon="3.07445">
        <ele>418.9</ele>
        <time>1970-01-01T04:26:36.000Z</time>
      </trkpt>
      <trkpt lat="45.91423" lon="3.07442">
        <ele>418.4</ele>
        <time>1970-01-01T04:26:37.000Z</time>
      </trkpt>
      <trkpt lat="45.91429" lon="3.07438">
        <ele>418.5</ele>
        <time>1970-01-01T04:26:38.000Z</time>
      </trkpt>
      <trkpt lat="45.91432" lon="3.07433">
        <ele>418.3</ele>
        <time>1970-01-01T04:26:39.000Z</time>
      </trkpt>
      <trkpt lat="45.91434" lon="3.07428">
        <ele>418.7</ele>
        <time>1970-01-01T04:26:40.000Z</time>
      </trkpt>
      <trkpt lat="45.91435" lon="3.07422">
        <ele>418.6</ele>
        <time>1970-01-01T04:26:41.000Z</time>
      </trkpt>
      <trkpt lat="45.91437" lon="3.07418">
        <ele>418.8</ele>
        <time>1970-01-01T04:26:42.000Z</time>
      </trkpt>
      <trkpt lat="45.9144" lon="3.07417">
        <ele>418.6</ele>
        <time>1970-01-01T04:26:43.000Z</time>
      </trkpt>
      <trkpt lat="45.91441" lon="3.07417">
        <ele>418.3</ele>
        <time>1970-01-01T04:26:44.000Z</time>
      </trkpt>
      <trkpt lat="45.91443" lon="3.07417">
        <ele>418.3</ele>
        <time>1970-01-01T04:26:45.000Z</time>
      </trkpt>
      <trkpt lat="45.91445" lon="3.07416">
        <ele>418.1</ele>
        <time>1970-01-01T04:26:46.000Z</time>
      </trkpt>
      <trkpt lat="45.91445" lon="3.07416">
        <ele>418.1</ele>
        <time>1970-01-01T04:26:47.000Z</time>
      </trkpt>
      <trkpt lat="45.91446" lon="3.07415">
        <ele>418.3</ele>
        <time>1970-01-01T04:26:48.000Z</time>
      </trkpt>
      <trkpt lat="45.91446" lon="3.07415">
        <ele>418.3</ele>
        <time>1970-01-01T04:26:49.000Z</time>
      </trkpt>
      <trkpt lat="45.91446" lon="3.07415">
        <ele>418.3</ele>
        <time>1970-01-01T04:26:50.000Z</time>
      </trkpt>
      <trkpt lat="45.91445" lon="3.07416">
        <ele>418.1</ele>
        <time>1970-01-01T04:26:51.000Z</time>
      </trkpt>
      <trkpt lat="45.91445" lon="3.07416">
        <ele>418.1</ele>
        <time>1970-01-01T04:26:52.000Z</time>
      </trkpt>
      <trkpt lat="45.91445" lon="3.07416">
        <ele>418.1</ele>
        <time>1970-01-01T04:26:53.000Z</time>
      </trkpt>
      <trkpt lat="45.91445" lon="3.07416">
        <ele>418.1</ele>
        <time>1970-01-01T04:26:54.000Z</time>
      </trkpt>
      <trkpt lat="45.91445" lon="3.07416">
        <ele>418.1</ele>
        <time>1970-01-01T04:26:55.000Z</time>
      </trkpt>
      <trkpt lat="45.91445" lon="3.07416">
        <ele>418.1</ele>
        <time>1970-01-01T04:26:56.000Z</time>
      </trkpt>
      <trkpt lat="45.91445" lon="3.07416">
        <ele>418.1</ele>
        <time>1970-01-01T04:26:57.000Z</time>
      </trkpt>
      <trkpt lat="45.91445" lon="3.07416">
        <ele>418.1</ele>
        <time>1970-01-01T04:26:58.000Z</time>
      </trkpt>
      <trkpt lat="45.91446" lon="3.0742">
        <ele>417.9</ele>
        <time>1970-01-01T04:27:30.000Z</time>
      </trkpt>
      <trkpt lat="45.91446" lon="3.0742">
        <ele>417.9</ele>
        <time>1970-01-01T04:27:31.000Z</time>
      </trkpt>
      <trkpt lat="45.91446" lon="3.0742">
        <ele>417.9</ele>
        <time>1970-01-01T04:27:32.000Z</time>
      </trkpt>
      <trkpt lat="45.91446" lon="3.0742">
        <ele>417.9</ele>
        <time>1970-01-01T04:27:33.000Z</time>
      </trkpt>
      <trkpt lat="45.91446" lon="3.07421">
        <ele>417.9</ele>
        <time>1970-01-01T04:27:34.000Z</time>
      </trkpt>
      <trkpt lat="45.91446" lon="3.07421">
        <ele>417.9</ele>
        <time>1970-01-01T04:27:35.000Z</time>
      </trkpt>
      <trkpt lat="45.91446" lon="3.07421">
        <ele>417.9</ele>
        <time>1970-01-01T04:27:36.000Z</time>
      </trkpt>
      <trkpt lat="45.91446" lon="3.07421">
        <ele>417.9</ele>
        <time>1970-01-01T04:27:37.000Z</time>
      </trkpt>
      <trkpt lat="45.91446" lon="3.07421">
        <ele>417.9</ele>
        <time>1970-01-01T04:27:38.000Z</time>
      </trkpt>
      <trkpt lat="45.91446" lon="3.07421">
        <ele>417.9</ele>
        <time>1970-01-01T04:27:39.000Z</time>
      </trkpt>
      <trkpt lat="45.91446" lon="3.07421">
        <ele>417.9</ele>
        <time>1970-01-01T04:27:40.000Z</time>
      </trkpt>
      <trkpt lat="45.91446" lon="3.07421">
        <ele>417.9</ele>
        <time>1970-01-01T04:27:41.000Z</time>
      </trkpt>
      <trkpt lat="45.91446" lon="3.07421">
        <ele>417.9</ele>
        <time>1970-01-01T04:27:42.000Z</time>
      </trkpt>
      <trkpt lat="45.91446" lon="3.07421">
        <ele>417.9</ele>
        <time>1970-01-01T04:27:43.000Z</time>
      </trkpt>
      <trkpt lat="45.91446" lon="3.07421">
        <ele>417.9</ele>
        <time>1970-01-01T04:27:44.000Z</time>
      </trkpt>
      <trkpt lat="45.91446" lon="3.07421">
        <ele>417.9</ele>
        <time>1970-01-01T04:27:45.000Z</time>
      </trkpt>
      <trkpt lat="45.91446" lon="3.07421">
        <ele>417.9</ele>
        <time>1970-01-01T04:27:46.000Z</time>
      </trkpt>
      <trkpt lat="45.91446" lon="3.07421">
        <ele>417.9</ele>
        <time>1970-01-01T04:27:47.000Z</time>
      </trkpt>
      <trkpt lat="45.91446" lon="3.07421">
        <ele>417.9</ele>
        <time>1970-01-01T04:27:48.000Z</time>
      </trkpt>
      <trkpt lat="45.91446" lon="3.07421">
        <ele>417.9</ele>
        <time>1970-01-01T04:27:49.000Z</time>
      </trkpt>
      <trkpt lat="45.91446" lon="3.07421">
        <ele>417.9</ele>
        <time>1970-01-01T04:27:50.000Z</time>
      </trkpt>
      <trkpt lat="45.91446" lon="3.07421">
        <ele>417.9</ele>
        <time>1970-01-01T04:27:51.000Z</time>
      </trkpt>
      <trkpt lat="45.91446" lon="3.07421">
        <ele>417.9</ele>
        <time>1970-01-01T04:27:52.000Z</time>
      </trkpt>
      <trkpt lat="45.91446" lon="3.07421">
        <ele>417.9</ele>
        <time>1970-01-01T04:27:53.000Z</time>
      </trkpt>
      <trkpt lat="45.91446" lon="3.07421">
        <ele>417.9</ele>
        <time>1970-01-01T04:27:54.000Z</time>
      </trkpt>
      <trkpt lat="45.91446" lon="3.07421">
        <ele>417.9</ele>
        <time>1970-01-01T04:27:55.000Z</time>
      </trkpt>
      <trkpt lat="45.91446" lon="3.07421">
        <ele>417.9</ele>
        <time>1970-01-01T04:27:56.000Z</time>
      </trkpt>
      <trkpt lat="45.91446" lon="3.07421">
        <ele>417.9</ele>
        <time>1970-01-01T04:27:57.000Z</time>
      </trkpt>
      <trkpt lat="45.91446" lon="3.0742">
        <ele>417.9</ele>
        <time>1970-01-01T04:27:58.000Z</time>
      </trkpt>
      <trkpt lat="45.91446" lon="3.0742">
        <ele>417.9</ele>
        <time>1970-01-01T04:27:59.000Z</time>
      </trkpt>
      <trkpt lat="45.91446" lon="3.07421">
        <ele>417.9</ele>
        <time>1970-01-01T04:28:01.000Z</time>
      </trkpt>
      <trkpt lat="45.91446" lon="3.0742">
        <ele>417.9</ele>
        <time>1970-01-01T04:28:02.000Z</time>
      </trkpt>
      <trkpt lat="45.91446" lon="3.0742">
        <ele>417.9</ele>
        <time>1970-01-01T04:28:03.000Z</time>
      </trkpt>
      <trkpt lat="45.91446" lon="3.0742">
        <ele>417.9</ele>
        <time>1970-01-01T04:28:04.000Z</time>
      </trkpt>
      <trkpt lat="45.91446" lon="3.0742">
        <ele>417.9</ele>
        <time>1970-01-01T04:28:05.000Z</time>
      </trkpt>
      <trkpt lat="45.91446" lon="3.0742">
        <ele>418.1</ele>
        <time>1970-01-01T04:28:06.000Z</time>
      </trkpt>
      <trkpt lat="45.91446" lon="3.07419">
        <ele>418.1</ele>
        <time>1970-01-01T04:28:07.000Z</time>
      </trkpt>
      <trkpt lat="45.91446" lon="3.07419">
        <ele>418.1</ele>
        <time>1970-01-01T04:28:09.000Z</time>
      </trkpt>
      <trkpt lat="45.91446" lon="3.07419">
        <ele>418.1</ele>
        <time>1970-01-01T04:28:10.000Z</time>
      </trkpt>
      <trkpt lat="45.91446" lon="3.07419">
        <ele>418.1</ele>
        <time>1970-01-01T04:28:11.000Z</time>
      </trkpt>
      <trkpt lat="45.91446" lon="3.07419">
        <ele>418.1</ele>
        <time>1970-01-01T04:28:12.000Z</time>
      </trkpt>
      <trkpt lat="45.91446" lon="3.07419">
        <ele>418.1</ele>
        <time>1970-01-01T04:28:13.000Z</time>
      </trkpt>
      <trkpt lat="45.91446" lon="3.07418">
        <ele>418.1</ele>
        <time>1970-01-01T04:28:14.000Z</time>
      </trkpt>
      <trkpt lat="45.91446" lon="3.07418">
        <ele>418.1</ele>
        <time>1970-01-01T04:28:15.000Z</time>
      </trkpt>
      <trkpt lat="45.91446" lon="3.07418">
        <ele>418.1</ele>
        <time>1970-01-01T04:28:16.000Z</time>
      </trkpt>
      <trkpt lat="45.91446" lon="3.07418">
        <ele>418.1</ele>
        <time>1970-01-01T04:28:17.000Z</time>
      </trkpt>
      <trkpt lat="45.91446" lon="3.07418">
        <ele>418.1</ele>
        <time>1970-01-01T04:28:19.000Z</time>
      </trkpt>
      <trkpt lat="45.91446" lon="3.07418">
        <ele>418.1</ele>
        <time>1970-01-01T04:28:20.000Z</time>
      </trkpt>
      <trkpt lat="45.91446" lon="3.07418">
        <ele>418.1</ele>
        <time>1970-01-01T04:28:21.000Z</time>
      </trkpt>
      <trkpt lat="45.91447" lon="3.07418">
        <ele>418.1</ele>
        <time>1970-01-01T04:28:22.000Z</time>
      </trkpt>
      <trkpt lat="45.91447" lon="3.07417">
        <ele>417.8</ele>
        <time>1970-01-01T04:28:23.000Z</time>
      </trkpt>
      <trkpt lat="45.91447" lon="3.07417">
        <ele>417.8</ele>
        <time>1970-01-01T04:28:24.000Z</time>
      </trkpt>
      <trkpt lat="45.91447" lon="3.07417">
        <ele>417.8</ele>
        <time>1970-01-01T04:28:25.000Z</time>
      </trkpt>
      <trkpt lat="45.91447" lon="3.07417">
        <ele>417.8</ele>
        <time>1970-01-01T04:28:26.000Z</time>
      </trkpt>
      <trkpt lat="45.91447" lon="3.07417">
        <ele>417.8</ele>
        <time>1970-01-01T04:28:27.000Z</time>
      </trkpt>
    </trkseg>
  </trk>
</gpx>